<?xml version="1.0" encoding="UTF-8" standalone="no" ?>
<gpx xmlns="http://www.topografix.com/GPX/1/1" xmlns:xsi="http://www.w3.org/2001/XMLSchema-instance" xsi:schemaLocation="http://www.topografix.com/GPX/1/1 http://www.topografix.com/GPX/1/1/gpx.xsd" version="1.1" creator="VisuGPX - https://www.visugpx.com">
  <metadata>
    <name>Compostelle J2 LaBrugere StChely dAubrac</name>
    <desc><![CDATA[Second jour du Chemin de Saint Jacques de Compostelle par le GR65 81 KM 1200 D  1450D- un parcours fantastique passant le plateau de l\'Aubrac]]></desc>
  </metadata>
  <trk>
    <name><![CDATA[2015-09-18-01_j1 Le Puy En Velay – Le Sauvage on GPSies.com]]></name>
    <trkseg>
      <trkpt lat="44.88083" lon="3.49901">
        <ele>1129.3671</ele>
        <time>2015-09-18T06:16:04Z</time>
      </trkpt>
      <trkpt lat="44.88083" lon="3.49901">
        <ele>1129.3671</ele>
        <time>2015-09-18T06:16:05Z</time>
      </trkpt>
      <trkpt lat="44.88082" lon="3.49888">
        <ele>1134.8298</ele>
        <time>2015-09-18T06:17:15Z</time>
      </trkpt>
      <trkpt lat="44.88075" lon="3.49875">
        <ele>1134.8</ele>
        <time>2015-09-18T06:17:20Z</time>
      </trkpt>
      <trkpt lat="44.8807" lon="3.49862">
        <ele>1134.6</ele>
        <time>2015-09-18T06:17:24Z</time>
      </trkpt>
      <trkpt lat="44.88071" lon="3.49876">
        <ele>1133.9</ele>
        <time>2015-09-18T06:17:36Z</time>
      </trkpt>
      <trkpt lat="44.88076" lon="3.49889">
        <ele>1134</ele>
        <time>2015-09-18T06:17:43Z</time>
      </trkpt>
      <trkpt lat="44.8808" lon="3.499">
        <ele>1134</ele>
        <time>2015-09-18T06:17:49Z</time>
      </trkpt>
      <trkpt lat="44.88086" lon="3.49912">
        <ele>1134.1</ele>
        <time>2015-09-18T06:17:56Z</time>
      </trkpt>
      <trkpt lat="44.88085" lon="3.49925">
        <ele>1134.9</ele>
        <time>2015-09-18T06:18:15Z</time>
      </trkpt>
      <trkpt lat="44.88072" lon="3.49926">
        <ele>1134.9</ele>
        <time>2015-09-18T06:18:19Z</time>
      </trkpt>
      <trkpt lat="44.88059" lon="3.49929">
        <ele>1134.6</ele>
        <time>2015-09-18T06:18:21Z</time>
      </trkpt>
      <trkpt lat="44.88046" lon="3.49934">
        <ele>1133.9</ele>
        <time>2015-09-18T06:18:23Z</time>
      </trkpt>
      <trkpt lat="44.88035" lon="3.49935">
        <ele>1132.7</ele>
        <time>2015-09-18T06:18:26Z</time>
      </trkpt>
      <trkpt lat="44.88026" lon="3.49948">
        <ele>1131.4</ele>
        <time>2015-09-18T06:18:29Z</time>
      </trkpt>
      <trkpt lat="44.88023" lon="3.49962">
        <ele>1130.5</ele>
        <time>2015-09-18T06:18:31Z</time>
      </trkpt>
      <trkpt lat="44.88024" lon="3.49978">
        <ele>1129.4</ele>
        <time>2015-09-18T06:18:34Z</time>
      </trkpt>
      <trkpt lat="44.88023" lon="3.49992">
        <ele>1128.3</ele>
        <time>2015-09-18T06:18:37Z</time>
      </trkpt>
      <trkpt lat="44.88018" lon="3.50003">
        <ele>1126.9</ele>
        <time>2015-09-18T06:18:40Z</time>
      </trkpt>
      <trkpt lat="44.88006" lon="3.50004">
        <ele>1124.8</ele>
        <time>2015-09-18T06:18:44Z</time>
      </trkpt>
      <trkpt lat="44.87995" lon="3.49995">
        <ele>1123</ele>
        <time>2015-09-18T06:18:47Z</time>
      </trkpt>
      <trkpt lat="44.87983" lon="3.49997">
        <ele>1121.2</ele>
        <time>2015-09-18T06:18:50Z</time>
      </trkpt>
      <trkpt lat="44.87974" lon="3.50005">
        <ele>1119.7</ele>
        <time>2015-09-18T06:18:52Z</time>
      </trkpt>
      <trkpt lat="44.87964" lon="3.50011">
        <ele>1118.3</ele>
        <time>2015-09-18T06:18:54Z</time>
      </trkpt>
      <trkpt lat="44.87952" lon="3.50014">
        <ele>1116.9</ele>
        <time>2015-09-18T06:18:56Z</time>
      </trkpt>
      <trkpt lat="44.87938" lon="3.50015">
        <ele>1115.5</ele>
        <time>2015-09-18T06:18:58Z</time>
      </trkpt>
      <trkpt lat="44.87923" lon="3.50017">
        <ele>1114.1</ele>
        <time>2015-09-18T06:19:00Z</time>
      </trkpt>
      <trkpt lat="44.87908" lon="3.50021">
        <ele>1112.7</ele>
        <time>2015-09-18T06:19:02Z</time>
      </trkpt>
      <trkpt lat="44.87896" lon="3.50022">
        <ele>1111.3</ele>
        <time>2015-09-18T06:19:04Z</time>
      </trkpt>
      <trkpt lat="44.87887" lon="3.5002">
        <ele>1110.2</ele>
        <time>2015-09-18T06:19:06Z</time>
      </trkpt>
      <trkpt lat="44.87876" lon="3.50013">
        <ele>1108.6</ele>
        <time>2015-09-18T06:19:09Z</time>
      </trkpt>
      <trkpt lat="44.87866" lon="3.50007">
        <ele>1107</ele>
        <time>2015-09-18T06:19:13Z</time>
      </trkpt>
      <trkpt lat="44.87855" lon="3.50004">
        <ele>1105.7</ele>
        <time>2015-09-18T06:19:17Z</time>
      </trkpt>
      <trkpt lat="44.87846" lon="3.50004">
        <ele>1104.7</ele>
        <time>2015-09-18T06:19:21Z</time>
      </trkpt>
      <trkpt lat="44.87836" lon="3.50007">
        <ele>1104</ele>
        <time>2015-09-18T06:19:25Z</time>
      </trkpt>
      <trkpt lat="44.8783" lon="3.50018">
        <ele>1103.4</ele>
        <time>2015-09-18T06:19:29Z</time>
      </trkpt>
      <trkpt lat="44.87826" lon="3.50031">
        <ele>1102.7</ele>
        <time>2015-09-18T06:19:35Z</time>
      </trkpt>
      <trkpt lat="44.87822" lon="3.50043">
        <ele>1102.6</ele>
        <time>2015-09-18T06:19:42Z</time>
      </trkpt>
      <trkpt lat="44.87819" lon="3.50055">
        <ele>1103</ele>
        <time>2015-09-18T06:19:48Z</time>
      </trkpt>
      <trkpt lat="44.87814" lon="3.50068">
        <ele>1103.8</ele>
        <time>2015-09-18T06:19:55Z</time>
      </trkpt>
      <trkpt lat="44.87811" lon="3.50082">
        <ele>1104.3</ele>
        <time>2015-09-18T06:20:02Z</time>
      </trkpt>
      <trkpt lat="44.87809" lon="3.50095">
        <ele>1104.9</ele>
        <time>2015-09-18T06:20:09Z</time>
      </trkpt>
      <trkpt lat="44.87805" lon="3.50108">
        <ele>1105.6</ele>
        <time>2015-09-18T06:20:15Z</time>
      </trkpt>
      <trkpt lat="44.87799" lon="3.50119">
        <ele>1106.2</ele>
        <time>2015-09-18T06:20:21Z</time>
      </trkpt>
      <trkpt lat="44.87793" lon="3.50129">
        <ele>1107.3</ele>
        <time>2015-09-18T06:20:29Z</time>
      </trkpt>
      <trkpt lat="44.87784" lon="3.50131">
        <ele>1108.4</ele>
        <time>2015-09-18T06:20:38Z</time>
      </trkpt>
      <trkpt lat="44.87777" lon="3.50124">
        <ele>1110.3</ele>
        <time>2015-09-18T06:20:49Z</time>
      </trkpt>
      <trkpt lat="44.87769" lon="3.50115">
        <ele>1112.3</ele>
        <time>2015-09-18T06:21:00Z</time>
      </trkpt>
      <trkpt lat="44.8776" lon="3.50111">
        <ele>1113.9</ele>
        <time>2015-09-18T06:21:09Z</time>
      </trkpt>
      <trkpt lat="44.87751" lon="3.50111">
        <ele>1115.6</ele>
        <time>2015-09-18T06:21:18Z</time>
      </trkpt>
      <trkpt lat="44.8774" lon="3.50111">
        <ele>1116.9</ele>
        <time>2015-09-18T06:21:28Z</time>
      </trkpt>
      <trkpt lat="44.87731" lon="3.50115">
        <ele>1117.5</ele>
        <time>2015-09-18T06:21:35Z</time>
      </trkpt>
      <trkpt lat="44.87724" lon="3.50125">
        <ele>1118.4</ele>
        <time>2015-09-18T06:21:42Z</time>
      </trkpt>
      <trkpt lat="44.87717" lon="3.50135">
        <ele>1119.6</ele>
        <time>2015-09-18T06:21:51Z</time>
      </trkpt>
      <trkpt lat="44.8771" lon="3.50143">
        <ele>1120.5</ele>
        <time>2015-09-18T06:21:57Z</time>
      </trkpt>
      <trkpt lat="44.87702" lon="3.50149">
        <ele>1121.3</ele>
        <time>2015-09-18T06:22:05Z</time>
      </trkpt>
      <trkpt lat="44.87694" lon="3.50156">
        <ele>1121.9</ele>
        <time>2015-09-18T06:22:13Z</time>
      </trkpt>
      <trkpt lat="44.87685" lon="3.50161">
        <ele>1122.7</ele>
        <time>2015-09-18T06:22:22Z</time>
      </trkpt>
      <trkpt lat="44.87677" lon="3.50168">
        <ele>1124</ele>
        <time>2015-09-18T06:22:46Z</time>
      </trkpt>
      <trkpt lat="44.87669" lon="3.50174">
        <ele>1125.2</ele>
        <time>2015-09-18T06:23:16Z</time>
      </trkpt>
      <trkpt lat="44.8766" lon="3.5018">
        <ele>1125.3</ele>
        <time>2015-09-18T06:23:22Z</time>
      </trkpt>
      <trkpt lat="44.87651" lon="3.50185">
        <ele>1125.6</ele>
        <time>2015-09-18T06:23:29Z</time>
      </trkpt>
      <trkpt lat="44.87641" lon="3.50187">
        <ele>1127.2</ele>
        <time>2015-09-18T06:24:07Z</time>
      </trkpt>
      <trkpt lat="44.87632" lon="3.50191">
        <ele>1127.5</ele>
        <time>2015-09-18T06:24:14Z</time>
      </trkpt>
      <trkpt lat="44.87623" lon="3.50194">
        <ele>1127.8</ele>
        <time>2015-09-18T06:24:21Z</time>
      </trkpt>
      <trkpt lat="44.87614" lon="3.50196">
        <ele>1128.3</ele>
        <time>2015-09-18T06:24:28Z</time>
      </trkpt>
      <trkpt lat="44.87605" lon="3.50201">
        <ele>1128.9</ele>
        <time>2015-09-18T06:24:35Z</time>
      </trkpt>
      <trkpt lat="44.87596" lon="3.50206">
        <ele>1129.6</ele>
        <time>2015-09-18T06:24:43Z</time>
      </trkpt>
      <trkpt lat="44.87588" lon="3.50213">
        <ele>1130.6</ele>
        <time>2015-09-18T06:24:51Z</time>
      </trkpt>
      <trkpt lat="44.8758" lon="3.50219">
        <ele>1131.7</ele>
        <time>2015-09-18T06:25:00Z</time>
      </trkpt>
      <trkpt lat="44.87573" lon="3.50227">
        <ele>1132.8</ele>
        <time>2015-09-18T06:25:08Z</time>
      </trkpt>
      <trkpt lat="44.87565" lon="3.50235">
        <ele>1134.5</ele>
        <time>2015-09-18T06:25:20Z</time>
      </trkpt>
      <trkpt lat="44.87558" lon="3.50244">
        <ele>1136.3</ele>
        <time>2015-09-18T06:25:32Z</time>
      </trkpt>
      <trkpt lat="44.8755" lon="3.5025">
        <ele>1138.1</ele>
        <time>2015-09-18T06:25:45Z</time>
      </trkpt>
      <trkpt lat="44.87541" lon="3.50252">
        <ele>1139.6</ele>
        <time>2015-09-18T06:25:56Z</time>
      </trkpt>
      <trkpt lat="44.87532" lon="3.50258">
        <ele>1141.5</ele>
        <time>2015-09-18T06:26:08Z</time>
      </trkpt>
      <trkpt lat="44.87523" lon="3.50263">
        <ele>1143</ele>
        <time>2015-09-18T06:26:17Z</time>
      </trkpt>
      <trkpt lat="44.87514" lon="3.50266">
        <ele>1144.9</ele>
        <time>2015-09-18T06:26:30Z</time>
      </trkpt>
      <trkpt lat="44.87505" lon="3.5027">
        <ele>1146.3</ele>
        <time>2015-09-18T06:26:39Z</time>
      </trkpt>
      <trkpt lat="44.87496" lon="3.50273">
        <ele>1147.7</ele>
        <time>2015-09-18T06:26:48Z</time>
      </trkpt>
      <trkpt lat="44.87486" lon="3.50274">
        <ele>1149.3</ele>
        <time>2015-09-18T06:26:57Z</time>
      </trkpt>
      <trkpt lat="44.87478" lon="3.50278">
        <ele>1151.4</ele>
        <time>2015-09-18T06:27:09Z</time>
      </trkpt>
      <trkpt lat="44.87469" lon="3.50283">
        <ele>1152.8</ele>
        <time>2015-09-18T06:27:21Z</time>
      </trkpt>
      <trkpt lat="44.87462" lon="3.50291">
        <ele>1154</ele>
        <time>2015-09-18T06:27:30Z</time>
      </trkpt>
      <trkpt lat="44.87453" lon="3.50287">
        <ele>1156.1</ele>
        <time>2015-09-18T06:27:44Z</time>
      </trkpt>
      <trkpt lat="44.87454" lon="3.50275">
        <ele>1158.8</ele>
        <time>2015-09-18T06:30:26Z</time>
      </trkpt>
      <trkpt lat="44.87459" lon="3.50263">
        <ele>1158.8</ele>
        <time>2015-09-18T06:30:29Z</time>
      </trkpt>
      <trkpt lat="44.87464" lon="3.50247">
        <ele>1158.7</ele>
        <time>2015-09-18T06:30:32Z</time>
      </trkpt>
      <trkpt lat="44.87468" lon="3.50233">
        <ele>1158.6</ele>
        <time>2015-09-18T06:30:34Z</time>
      </trkpt>
      <trkpt lat="44.87471" lon="3.50217">
        <ele>1158.3</ele>
        <time>2015-09-18T06:30:36Z</time>
      </trkpt>
      <trkpt lat="44.87472" lon="3.50199">
        <ele>1158.1</ele>
        <time>2015-09-18T06:30:38Z</time>
      </trkpt>
      <trkpt lat="44.8747" lon="3.50182">
        <ele>1157.8</ele>
        <time>2015-09-18T06:30:40Z</time>
      </trkpt>
      <trkpt lat="44.87468" lon="3.50166">
        <ele>1157.5</ele>
        <time>2015-09-18T06:30:42Z</time>
      </trkpt>
      <trkpt lat="44.87467" lon="3.5015">
        <ele>1157.1</ele>
        <time>2015-09-18T06:30:44Z</time>
      </trkpt>
      <trkpt lat="44.87465" lon="3.50133">
        <ele>1156.8</ele>
        <time>2015-09-18T06:30:46Z</time>
      </trkpt>
      <trkpt lat="44.87463" lon="3.50116">
        <ele>1156.3</ele>
        <time>2015-09-18T06:30:48Z</time>
      </trkpt>
      <trkpt lat="44.87462" lon="3.50099">
        <ele>1155.9</ele>
        <time>2015-09-18T06:30:50Z</time>
      </trkpt>
      <trkpt lat="44.87461" lon="3.5008">
        <ele>1155.4</ele>
        <time>2015-09-18T06:30:52Z</time>
      </trkpt>
      <trkpt lat="44.87459" lon="3.5006">
        <ele>1154.9</ele>
        <time>2015-09-18T06:30:54Z</time>
      </trkpt>
      <trkpt lat="44.87455" lon="3.50041">
        <ele>1154.2</ele>
        <time>2015-09-18T06:30:56Z</time>
      </trkpt>
      <trkpt lat="44.8745" lon="3.50022">
        <ele>1153.5</ele>
        <time>2015-09-18T06:30:58Z</time>
      </trkpt>
      <trkpt lat="44.87444" lon="3.50002">
        <ele>1152.8</ele>
        <time>2015-09-18T06:31:00Z</time>
      </trkpt>
      <trkpt lat="44.87438" lon="3.49982">
        <ele>1152.1</ele>
        <time>2015-09-18T06:31:02Z</time>
      </trkpt>
      <trkpt lat="44.87431" lon="3.49962">
        <ele>1151.3</ele>
        <time>2015-09-18T06:31:04Z</time>
      </trkpt>
      <trkpt lat="44.87424" lon="3.49941">
        <ele>1150.4</ele>
        <time>2015-09-18T06:31:06Z</time>
      </trkpt>
      <trkpt lat="44.87415" lon="3.49919">
        <ele>1149.4</ele>
        <time>2015-09-18T06:31:08Z</time>
      </trkpt>
      <trkpt lat="44.87408" lon="3.49896">
        <ele>1148.4</ele>
        <time>2015-09-18T06:31:10Z</time>
      </trkpt>
      <trkpt lat="44.87401" lon="3.49874">
        <ele>1147.3</ele>
        <time>2015-09-18T06:31:12Z</time>
      </trkpt>
      <trkpt lat="44.87393" lon="3.49852">
        <ele>1146.3</ele>
        <time>2015-09-18T06:31:14Z</time>
      </trkpt>
      <trkpt lat="44.87385" lon="3.49831">
        <ele>1145.4</ele>
        <time>2015-09-18T06:31:16Z</time>
      </trkpt>
      <trkpt lat="44.87378" lon="3.49809">
        <ele>1144.4</ele>
        <time>2015-09-18T06:31:18Z</time>
      </trkpt>
      <trkpt lat="44.8737" lon="3.49788">
        <ele>1143.4</ele>
        <time>2015-09-18T06:31:20Z</time>
      </trkpt>
      <trkpt lat="44.87361" lon="3.49767">
        <ele>1142.4</ele>
        <time>2015-09-18T06:31:22Z</time>
      </trkpt>
      <trkpt lat="44.87351" lon="3.49747">
        <ele>1141.3</ele>
        <time>2015-09-18T06:31:24Z</time>
      </trkpt>
      <trkpt lat="44.87345" lon="3.49737">
        <ele>1140.8</ele>
        <time>2015-09-18T06:31:25Z</time>
      </trkpt>
      <trkpt lat="44.87339" lon="3.49727">
        <ele>1140.2</ele>
        <time>2015-09-18T06:31:26Z</time>
      </trkpt>
      <trkpt lat="44.87333" lon="3.49716">
        <ele>1139.6</ele>
        <time>2015-09-18T06:31:27Z</time>
      </trkpt>
      <trkpt lat="44.87327" lon="3.49707">
        <ele>1138.9</ele>
        <time>2015-09-18T06:31:28Z</time>
      </trkpt>
      <trkpt lat="44.8732" lon="3.49696">
        <ele>1138.2</ele>
        <time>2015-09-18T06:31:29Z</time>
      </trkpt>
      <trkpt lat="44.87314" lon="3.49685">
        <ele>1137.5</ele>
        <time>2015-09-18T06:31:30Z</time>
      </trkpt>
      <trkpt lat="44.87307" lon="3.49676">
        <ele>1136.7</ele>
        <time>2015-09-18T06:31:31Z</time>
      </trkpt>
      <trkpt lat="44.873" lon="3.49667">
        <ele>1135.9</ele>
        <time>2015-09-18T06:31:32Z</time>
      </trkpt>
      <trkpt lat="44.87292" lon="3.49658">
        <ele>1135.2</ele>
        <time>2015-09-18T06:31:33Z</time>
      </trkpt>
      <trkpt lat="44.87283" lon="3.49651">
        <ele>1134.5</ele>
        <time>2015-09-18T06:31:34Z</time>
      </trkpt>
      <trkpt lat="44.87274" lon="3.49645">
        <ele>1133.7</ele>
        <time>2015-09-18T06:31:35Z</time>
      </trkpt>
      <trkpt lat="44.87265" lon="3.4964">
        <ele>1133</ele>
        <time>2015-09-18T06:31:36Z</time>
      </trkpt>
      <trkpt lat="44.87255" lon="3.49636">
        <ele>1132.2</ele>
        <time>2015-09-18T06:31:37Z</time>
      </trkpt>
      <trkpt lat="44.87246" lon="3.49632">
        <ele>1131.5</ele>
        <time>2015-09-18T06:31:38Z</time>
      </trkpt>
      <trkpt lat="44.8723" lon="3.49621">
        <ele>1130.1</ele>
        <time>2015-09-18T06:31:40Z</time>
      </trkpt>
      <trkpt lat="44.87217" lon="3.49605">
        <ele>1128.6</ele>
        <time>2015-09-18T06:31:42Z</time>
      </trkpt>
      <trkpt lat="44.87212" lon="3.49595">
        <ele>1127.9</ele>
        <time>2015-09-18T06:31:43Z</time>
      </trkpt>
      <trkpt lat="44.87208" lon="3.49583">
        <ele>1127.1</ele>
        <time>2015-09-18T06:31:44Z</time>
      </trkpt>
      <trkpt lat="44.87204" lon="3.49571">
        <ele>1126.4</ele>
        <time>2015-09-18T06:31:45Z</time>
      </trkpt>
      <trkpt lat="44.87198" lon="3.4955">
        <ele>1124.9</ele>
        <time>2015-09-18T06:31:47Z</time>
      </trkpt>
      <trkpt lat="44.87192" lon="3.49535">
        <ele>1123.5</ele>
        <time>2015-09-18T06:31:49Z</time>
      </trkpt>
      <trkpt lat="44.87182" lon="3.49525">
        <ele>1121.7</ele>
        <time>2015-09-18T06:31:52Z</time>
      </trkpt>
      <trkpt lat="44.87173" lon="3.49521">
        <ele>1119.2</ele>
        <time>2015-09-18T06:31:57Z</time>
      </trkpt>
      <trkpt lat="44.87163" lon="3.49525">
        <ele>1116.9</ele>
        <time>2015-09-18T06:32:03Z</time>
      </trkpt>
      <trkpt lat="44.87153" lon="3.49531">
        <ele>1115.5</ele>
        <time>2015-09-18T06:32:08Z</time>
      </trkpt>
      <trkpt lat="44.87143" lon="3.49536">
        <ele>1114.5</ele>
        <time>2015-09-18T06:32:13Z</time>
      </trkpt>
      <trkpt lat="44.87134" lon="3.4954">
        <ele>1113.9</ele>
        <time>2015-09-18T06:32:17Z</time>
      </trkpt>
      <trkpt lat="44.87126" lon="3.49545">
        <ele>1113.5</ele>
        <time>2015-09-18T06:32:21Z</time>
      </trkpt>
      <trkpt lat="44.87117" lon="3.49549">
        <ele>1113.2</ele>
        <time>2015-09-18T06:32:25Z</time>
      </trkpt>
      <trkpt lat="44.87107" lon="3.49553">
        <ele>1112.9</ele>
        <time>2015-09-18T06:32:30Z</time>
      </trkpt>
      <trkpt lat="44.87097" lon="3.49556">
        <ele>1112.7</ele>
        <time>2015-09-18T06:32:34Z</time>
      </trkpt>
      <trkpt lat="44.87087" lon="3.4956">
        <ele>1112.6</ele>
        <time>2015-09-18T06:32:38Z</time>
      </trkpt>
      <trkpt lat="44.87078" lon="3.49564">
        <ele>1112.7</ele>
        <time>2015-09-18T06:32:42Z</time>
      </trkpt>
      <trkpt lat="44.8707" lon="3.49569">
        <ele>1112.9</ele>
        <time>2015-09-18T06:32:46Z</time>
      </trkpt>
      <trkpt lat="44.87062" lon="3.49575">
        <ele>1113.2</ele>
        <time>2015-09-18T06:32:51Z</time>
      </trkpt>
      <trkpt lat="44.87053" lon="3.4958">
        <ele>1113.7</ele>
        <time>2015-09-18T06:32:56Z</time>
      </trkpt>
      <trkpt lat="44.87043" lon="3.49581">
        <ele>1114.3</ele>
        <time>2015-09-18T06:33:01Z</time>
      </trkpt>
      <trkpt lat="44.87033" lon="3.49581">
        <ele>1114.8</ele>
        <time>2015-09-18T06:33:06Z</time>
      </trkpt>
      <trkpt lat="44.87024" lon="3.4958">
        <ele>1115.4</ele>
        <time>2015-09-18T06:33:11Z</time>
      </trkpt>
      <trkpt lat="44.87014" lon="3.4958">
        <ele>1115.8</ele>
        <time>2015-09-18T06:33:16Z</time>
      </trkpt>
      <trkpt lat="44.87005" lon="3.49578">
        <ele>1116.3</ele>
        <time>2015-09-18T06:33:21Z</time>
      </trkpt>
      <trkpt lat="44.86994" lon="3.49576">
        <ele>1116.9</ele>
        <time>2015-09-18T06:33:26Z</time>
      </trkpt>
      <trkpt lat="44.86985" lon="3.49576">
        <ele>1117.5</ele>
        <time>2015-09-18T06:33:31Z</time>
      </trkpt>
      <trkpt lat="44.86974" lon="3.49576">
        <ele>1118</ele>
        <time>2015-09-18T06:33:36Z</time>
      </trkpt>
      <trkpt lat="44.86964" lon="3.49578">
        <ele>1118.4</ele>
        <time>2015-09-18T06:33:41Z</time>
      </trkpt>
      <trkpt lat="44.86955" lon="3.4958">
        <ele>1118.9</ele>
        <time>2015-09-18T06:33:46Z</time>
      </trkpt>
      <trkpt lat="44.86945" lon="3.49584">
        <ele>1119.5</ele>
        <time>2015-09-18T06:33:51Z</time>
      </trkpt>
      <trkpt lat="44.86937" lon="3.49588">
        <ele>1120.1</ele>
        <time>2015-09-18T06:33:56Z</time>
      </trkpt>
      <trkpt lat="44.86928" lon="3.4959">
        <ele>1120.7</ele>
        <time>2015-09-18T06:34:01Z</time>
      </trkpt>
      <trkpt lat="44.86919" lon="3.49594">
        <ele>1121.5</ele>
        <time>2015-09-18T06:34:06Z</time>
      </trkpt>
      <trkpt lat="44.86909" lon="3.49597">
        <ele>1122.5</ele>
        <time>2015-09-18T06:34:11Z</time>
      </trkpt>
      <trkpt lat="44.86898" lon="3.496">
        <ele>1123.4</ele>
        <time>2015-09-18T06:34:16Z</time>
      </trkpt>
      <trkpt lat="44.86889" lon="3.49603">
        <ele>1124</ele>
        <time>2015-09-18T06:34:21Z</time>
      </trkpt>
      <trkpt lat="44.8688" lon="3.49605">
        <ele>1124.5</ele>
        <time>2015-09-18T06:34:26Z</time>
      </trkpt>
      <trkpt lat="44.8687" lon="3.49607">
        <ele>1125</ele>
        <time>2015-09-18T06:34:32Z</time>
      </trkpt>
      <trkpt lat="44.8686" lon="3.49608">
        <ele>1125.3</ele>
        <time>2015-09-18T06:34:38Z</time>
      </trkpt>
      <trkpt lat="44.86851" lon="3.49609">
        <ele>1125.5</ele>
        <time>2015-09-18T06:34:44Z</time>
      </trkpt>
      <trkpt lat="44.86839" lon="3.49609">
        <ele>1125.6</ele>
        <time>2015-09-18T06:34:49Z</time>
      </trkpt>
      <trkpt lat="44.8683" lon="3.49612">
        <ele>1125.7</ele>
        <time>2015-09-18T06:34:52Z</time>
      </trkpt>
      <trkpt lat="44.8682" lon="3.49616">
        <ele>1125.7</ele>
        <time>2015-09-18T06:34:55Z</time>
      </trkpt>
      <trkpt lat="44.86811" lon="3.49619">
        <ele>1125.7</ele>
        <time>2015-09-18T06:34:58Z</time>
      </trkpt>
      <trkpt lat="44.86802" lon="3.49624">
        <ele>1125.7</ele>
        <time>2015-09-18T06:35:03Z</time>
      </trkpt>
      <trkpt lat="44.86792" lon="3.49626">
        <ele>1125.7</ele>
        <time>2015-09-18T06:35:08Z</time>
      </trkpt>
      <trkpt lat="44.86783" lon="3.49622">
        <ele>1125.6</ele>
        <time>2015-09-18T06:35:13Z</time>
      </trkpt>
      <trkpt lat="44.86773" lon="3.49617">
        <ele>1125.6</ele>
        <time>2015-09-18T06:35:18Z</time>
      </trkpt>
      <trkpt lat="44.86764" lon="3.49608">
        <ele>1125.7</ele>
        <time>2015-09-18T06:35:23Z</time>
      </trkpt>
      <trkpt lat="44.86754" lon="3.49601">
        <ele>1125.9</ele>
        <time>2015-09-18T06:35:28Z</time>
      </trkpt>
      <trkpt lat="44.86743" lon="3.49597">
        <ele>1126.2</ele>
        <time>2015-09-18T06:35:33Z</time>
      </trkpt>
      <trkpt lat="44.86734" lon="3.49595">
        <ele>1126.4</ele>
        <time>2015-09-18T06:35:37Z</time>
      </trkpt>
      <trkpt lat="44.86724" lon="3.49595">
        <ele>1126.8</ele>
        <time>2015-09-18T06:35:42Z</time>
      </trkpt>
      <trkpt lat="44.86714" lon="3.49594">
        <ele>1127.3</ele>
        <time>2015-09-18T06:35:47Z</time>
      </trkpt>
      <trkpt lat="44.86703" lon="3.49593">
        <ele>1127.8</ele>
        <time>2015-09-18T06:35:52Z</time>
      </trkpt>
      <trkpt lat="44.86693" lon="3.49592">
        <ele>1128.2</ele>
        <time>2015-09-18T06:35:57Z</time>
      </trkpt>
      <trkpt lat="44.86683" lon="3.49592">
        <ele>1128.6</ele>
        <time>2015-09-18T06:36:02Z</time>
      </trkpt>
      <trkpt lat="44.86672" lon="3.49592">
        <ele>1129</ele>
        <time>2015-09-18T06:36:07Z</time>
      </trkpt>
      <trkpt lat="44.86662" lon="3.49593">
        <ele>1129.7</ele>
        <time>2015-09-18T06:36:13Z</time>
      </trkpt>
      <trkpt lat="44.86652" lon="3.49593">
        <ele>1130.5</ele>
        <time>2015-09-18T06:36:19Z</time>
      </trkpt>
      <trkpt lat="44.86642" lon="3.49594">
        <ele>1131.2</ele>
        <time>2015-09-18T06:36:24Z</time>
      </trkpt>
      <trkpt lat="44.86631" lon="3.49592">
        <ele>1131.7</ele>
        <time>2015-09-18T06:36:29Z</time>
      </trkpt>
      <trkpt lat="44.86621" lon="3.49592">
        <ele>1132.3</ele>
        <time>2015-09-18T06:36:34Z</time>
      </trkpt>
      <trkpt lat="44.86611" lon="3.49591">
        <ele>1132.9</ele>
        <time>2015-09-18T06:36:40Z</time>
      </trkpt>
      <trkpt lat="44.86602" lon="3.4959">
        <ele>1133.6</ele>
        <time>2015-09-18T06:36:45Z</time>
      </trkpt>
      <trkpt lat="44.86592" lon="3.49589">
        <ele>1134.2</ele>
        <time>2015-09-18T06:36:50Z</time>
      </trkpt>
      <trkpt lat="44.86583" lon="3.49584">
        <ele>1135</ele>
        <time>2015-09-18T06:36:56Z</time>
      </trkpt>
      <trkpt lat="44.86574" lon="3.49576">
        <ele>1136</ele>
        <time>2015-09-18T06:37:03Z</time>
      </trkpt>
      <trkpt lat="44.86566" lon="3.4957">
        <ele>1136.7</ele>
        <time>2015-09-18T06:37:08Z</time>
      </trkpt>
      <trkpt lat="44.86558" lon="3.49563">
        <ele>1137.2</ele>
        <time>2015-09-18T06:37:13Z</time>
      </trkpt>
      <trkpt lat="44.86549" lon="3.49555">
        <ele>1137.7</ele>
        <time>2015-09-18T06:37:18Z</time>
      </trkpt>
      <trkpt lat="44.86541" lon="3.49548">
        <ele>1138.1</ele>
        <time>2015-09-18T06:37:22Z</time>
      </trkpt>
      <trkpt lat="44.86531" lon="3.49541">
        <ele>1138.4</ele>
        <time>2015-09-18T06:37:27Z</time>
      </trkpt>
      <trkpt lat="44.86523" lon="3.49533">
        <ele>1138.8</ele>
        <time>2015-09-18T06:37:32Z</time>
      </trkpt>
      <trkpt lat="44.86513" lon="3.49527">
        <ele>1139.3</ele>
        <time>2015-09-18T06:37:37Z</time>
      </trkpt>
      <trkpt lat="44.86504" lon="3.49522">
        <ele>1139.7</ele>
        <time>2015-09-18T06:37:42Z</time>
      </trkpt>
      <trkpt lat="44.86493" lon="3.4952">
        <ele>1140.2</ele>
        <time>2015-09-18T06:37:47Z</time>
      </trkpt>
      <trkpt lat="44.86484" lon="3.49517">
        <ele>1140.6</ele>
        <time>2015-09-18T06:37:52Z</time>
      </trkpt>
      <trkpt lat="44.86475" lon="3.49515">
        <ele>1141</ele>
        <time>2015-09-18T06:37:57Z</time>
      </trkpt>
      <trkpt lat="44.86464" lon="3.49515">
        <ele>1141.7</ele>
        <time>2015-09-18T06:38:03Z</time>
      </trkpt>
      <trkpt lat="44.86453" lon="3.49515">
        <ele>1142.2</ele>
        <time>2015-09-18T06:38:08Z</time>
      </trkpt>
      <trkpt lat="44.86442" lon="3.49514">
        <ele>1142.5</ele>
        <time>2015-09-18T06:38:13Z</time>
      </trkpt>
      <trkpt lat="44.86432" lon="3.49515">
        <ele>1142.8</ele>
        <time>2015-09-18T06:38:17Z</time>
      </trkpt>
      <trkpt lat="44.86422" lon="3.49516">
        <ele>1143</ele>
        <time>2015-09-18T06:38:21Z</time>
      </trkpt>
      <trkpt lat="44.86413" lon="3.49519">
        <ele>1143.3</ele>
        <time>2015-09-18T06:38:25Z</time>
      </trkpt>
      <trkpt lat="44.86402" lon="3.49522">
        <ele>1143.6</ele>
        <time>2015-09-18T06:38:30Z</time>
      </trkpt>
      <trkpt lat="44.86393" lon="3.4953">
        <ele>1143.7</ele>
        <time>2015-09-18T06:38:34Z</time>
      </trkpt>
      <trkpt lat="44.86385" lon="3.49538">
        <ele>1143.9</ele>
        <time>2015-09-18T06:38:38Z</time>
      </trkpt>
      <trkpt lat="44.86374" lon="3.49535">
        <ele>1144</ele>
        <time>2015-09-18T06:38:44Z</time>
      </trkpt>
      <trkpt lat="44.86364" lon="3.49529">
        <ele>1143.9</ele>
        <time>2015-09-18T06:38:47Z</time>
      </trkpt>
      <trkpt lat="44.86354" lon="3.49523">
        <ele>1143.6</ele>
        <time>2015-09-18T06:38:50Z</time>
      </trkpt>
      <trkpt lat="44.86345" lon="3.49518">
        <ele>1143.1</ele>
        <time>2015-09-18T06:38:54Z</time>
      </trkpt>
      <trkpt lat="44.86334" lon="3.49518">
        <ele>1139.9</ele>
        <time>2015-09-18T06:40:45Z</time>
      </trkpt>
      <trkpt lat="44.86323" lon="3.49517">
        <ele>1139.9</ele>
        <time>2015-09-18T06:40:49Z</time>
      </trkpt>
      <trkpt lat="44.8631" lon="3.49519">
        <ele>1139.8</ele>
        <time>2015-09-18T06:40:52Z</time>
      </trkpt>
      <trkpt lat="44.863" lon="3.4952">
        <ele>1139.6</ele>
        <time>2015-09-18T06:40:54Z</time>
      </trkpt>
      <trkpt lat="44.86288" lon="3.49519">
        <ele>1139.4</ele>
        <time>2015-09-18T06:40:56Z</time>
      </trkpt>
      <trkpt lat="44.86277" lon="3.49514">
        <ele>1139.1</ele>
        <time>2015-09-18T06:40:58Z</time>
      </trkpt>
      <trkpt lat="44.86265" lon="3.4951">
        <ele>1138.7</ele>
        <time>2015-09-18T06:41:00Z</time>
      </trkpt>
      <trkpt lat="44.86254" lon="3.49507">
        <ele>1138.4</ele>
        <time>2015-09-18T06:41:02Z</time>
      </trkpt>
      <trkpt lat="44.86243" lon="3.49504">
        <ele>1138.1</ele>
        <time>2015-09-18T06:41:04Z</time>
      </trkpt>
      <trkpt lat="44.86234" lon="3.49501">
        <ele>1137.7</ele>
        <time>2015-09-18T06:41:06Z</time>
      </trkpt>
      <trkpt lat="44.86225" lon="3.49497">
        <ele>1137.4</ele>
        <time>2015-09-18T06:41:08Z</time>
      </trkpt>
      <trkpt lat="44.86216" lon="3.49489">
        <ele>1137.2</ele>
        <time>2015-09-18T06:41:10Z</time>
      </trkpt>
      <trkpt lat="44.86208" lon="3.49484">
        <ele>1136.9</ele>
        <time>2015-09-18T06:41:12Z</time>
      </trkpt>
      <trkpt lat="44.86197" lon="3.49481">
        <ele>1136.5</ele>
        <time>2015-09-18T06:41:15Z</time>
      </trkpt>
      <trkpt lat="44.86187" lon="3.49478">
        <ele>1136</ele>
        <time>2015-09-18T06:41:20Z</time>
      </trkpt>
      <trkpt lat="44.86177" lon="3.49475">
        <ele>1135.7</ele>
        <time>2015-09-18T06:41:26Z</time>
      </trkpt>
      <trkpt lat="44.86168" lon="3.49473">
        <ele>1135.9</ele>
        <time>2015-09-18T06:41:32Z</time>
      </trkpt>
      <trkpt lat="44.86158" lon="3.49474">
        <ele>1136.3</ele>
        <time>2015-09-18T06:41:39Z</time>
      </trkpt>
      <trkpt lat="44.86149" lon="3.49477">
        <ele>1136.8</ele>
        <time>2015-09-18T06:41:45Z</time>
      </trkpt>
      <trkpt lat="44.8614" lon="3.49477">
        <ele>1137.3</ele>
        <time>2015-09-18T06:41:51Z</time>
      </trkpt>
      <trkpt lat="44.8613" lon="3.49478">
        <ele>1137.9</ele>
        <time>2015-09-18T06:41:57Z</time>
      </trkpt>
      <trkpt lat="44.8612" lon="3.49478">
        <ele>1138.6</ele>
        <time>2015-09-18T06:42:03Z</time>
      </trkpt>
      <trkpt lat="44.86112" lon="3.49473">
        <ele>1139.4</ele>
        <time>2015-09-18T06:42:10Z</time>
      </trkpt>
      <trkpt lat="44.86103" lon="3.49469">
        <ele>1140.4</ele>
        <time>2015-09-18T06:42:17Z</time>
      </trkpt>
      <trkpt lat="44.86093" lon="3.49467">
        <ele>1141.4</ele>
        <time>2015-09-18T06:42:24Z</time>
      </trkpt>
      <trkpt lat="44.86084" lon="3.49463">
        <ele>1142.4</ele>
        <time>2015-09-18T06:42:31Z</time>
      </trkpt>
      <trkpt lat="44.86075" lon="3.49456">
        <ele>1143.7</ele>
        <time>2015-09-18T06:42:39Z</time>
      </trkpt>
      <trkpt lat="44.86067" lon="3.49451">
        <ele>1144.6</ele>
        <time>2015-09-18T06:42:46Z</time>
      </trkpt>
      <trkpt lat="44.86058" lon="3.49446">
        <ele>1145.8</ele>
        <time>2015-09-18T06:42:54Z</time>
      </trkpt>
      <trkpt lat="44.8605" lon="3.4944">
        <ele>1147</ele>
        <time>2015-09-18T06:43:02Z</time>
      </trkpt>
      <trkpt lat="44.86041" lon="3.49434">
        <ele>1148.2</ele>
        <time>2015-09-18T06:43:10Z</time>
      </trkpt>
      <trkpt lat="44.86031" lon="3.4943">
        <ele>1149.3</ele>
        <time>2015-09-18T06:43:18Z</time>
      </trkpt>
      <trkpt lat="44.86023" lon="3.49425">
        <ele>1150.6</ele>
        <time>2015-09-18T06:43:26Z</time>
      </trkpt>
      <trkpt lat="44.86014" lon="3.4942">
        <ele>1151.8</ele>
        <time>2015-09-18T06:43:34Z</time>
      </trkpt>
      <trkpt lat="44.86005" lon="3.49415">
        <ele>1153</ele>
        <time>2015-09-18T06:43:42Z</time>
      </trkpt>
      <trkpt lat="44.85996" lon="3.49409">
        <ele>1154.3</ele>
        <time>2015-09-18T06:43:51Z</time>
      </trkpt>
      <trkpt lat="44.85987" lon="3.49403">
        <ele>1155.1</ele>
        <time>2015-09-18T06:43:58Z</time>
      </trkpt>
      <trkpt lat="44.85979" lon="3.49399">
        <ele>1155.8</ele>
        <time>2015-09-18T06:44:05Z</time>
      </trkpt>
      <trkpt lat="44.85969" lon="3.49393">
        <ele>1156.5</ele>
        <time>2015-09-18T06:44:12Z</time>
      </trkpt>
      <trkpt lat="44.8596" lon="3.49388">
        <ele>1157</ele>
        <time>2015-09-18T06:44:18Z</time>
      </trkpt>
      <trkpt lat="44.85952" lon="3.49383">
        <ele>1157.5</ele>
        <time>2015-09-18T06:44:24Z</time>
      </trkpt>
      <trkpt lat="44.85942" lon="3.49379">
        <ele>1158.2</ele>
        <time>2015-09-18T06:44:31Z</time>
      </trkpt>
      <trkpt lat="44.85933" lon="3.49374">
        <ele>1158.7</ele>
        <time>2015-09-18T06:44:37Z</time>
      </trkpt>
      <trkpt lat="44.85924" lon="3.49369">
        <ele>1159.3</ele>
        <time>2015-09-18T06:44:44Z</time>
      </trkpt>
      <trkpt lat="44.85915" lon="3.49368">
        <ele>1160.1</ele>
        <time>2015-09-18T06:44:51Z</time>
      </trkpt>
      <trkpt lat="44.85905" lon="3.49368">
        <ele>1161.1</ele>
        <time>2015-09-18T06:44:59Z</time>
      </trkpt>
      <trkpt lat="44.85896" lon="3.49369">
        <ele>1162</ele>
        <time>2015-09-18T06:45:05Z</time>
      </trkpt>
      <trkpt lat="44.85885" lon="3.49367">
        <ele>1162.8</ele>
        <time>2015-09-18T06:45:12Z</time>
      </trkpt>
      <trkpt lat="44.85875" lon="3.49364">
        <ele>1163.4</ele>
        <time>2015-09-18T06:45:18Z</time>
      </trkpt>
      <trkpt lat="44.85866" lon="3.49357">
        <ele>1164.1</ele>
        <time>2015-09-18T06:45:25Z</time>
      </trkpt>
      <trkpt lat="44.85857" lon="3.49351">
        <ele>1164.6</ele>
        <time>2015-09-18T06:45:31Z</time>
      </trkpt>
      <trkpt lat="44.8585" lon="3.49343">
        <ele>1165</ele>
        <time>2015-09-18T06:45:36Z</time>
      </trkpt>
      <trkpt lat="44.85844" lon="3.49334">
        <ele>1165.2</ele>
        <time>2015-09-18T06:45:40Z</time>
      </trkpt>
      <trkpt lat="44.85837" lon="3.49322">
        <ele>1165.4</ele>
        <time>2015-09-18T06:45:44Z</time>
      </trkpt>
      <trkpt lat="44.85832" lon="3.49312">
        <ele>1165.5</ele>
        <time>2015-09-18T06:45:47Z</time>
      </trkpt>
      <trkpt lat="44.85821" lon="3.49306">
        <ele>1165.5</ele>
        <time>2015-09-18T06:45:51Z</time>
      </trkpt>
      <trkpt lat="44.85812" lon="3.49305">
        <ele>1165.5</ele>
        <time>2015-09-18T06:45:55Z</time>
      </trkpt>
      <trkpt lat="44.85801" lon="3.49305">
        <ele>1165.4</ele>
        <time>2015-09-18T06:46:00Z</time>
      </trkpt>
      <trkpt lat="44.85791" lon="3.49303">
        <ele>1165.3</ele>
        <time>2015-09-18T06:46:04Z</time>
      </trkpt>
      <trkpt lat="44.85781" lon="3.49303">
        <ele>1165.3</ele>
        <time>2015-09-18T06:46:07Z</time>
      </trkpt>
      <trkpt lat="44.85768" lon="3.49304">
        <ele>1165.2</ele>
        <time>2015-09-18T06:46:10Z</time>
      </trkpt>
      <trkpt lat="44.85756" lon="3.49307">
        <ele>1164.9</ele>
        <time>2015-09-18T06:46:13Z</time>
      </trkpt>
      <trkpt lat="44.85745" lon="3.49308">
        <ele>1164.5</ele>
        <time>2015-09-18T06:46:16Z</time>
      </trkpt>
      <trkpt lat="44.85735" lon="3.49308">
        <ele>1164.2</ele>
        <time>2015-09-18T06:46:20Z</time>
      </trkpt>
      <trkpt lat="44.85724" lon="3.49308">
        <ele>1163.9</ele>
        <time>2015-09-18T06:46:24Z</time>
      </trkpt>
      <trkpt lat="44.85715" lon="3.49308">
        <ele>1163.6</ele>
        <time>2015-09-18T06:46:28Z</time>
      </trkpt>
      <trkpt lat="44.85705" lon="3.49312">
        <ele>1163.5</ele>
        <time>2015-09-18T06:46:31Z</time>
      </trkpt>
      <trkpt lat="44.85695" lon="3.4932">
        <ele>1163.4</ele>
        <time>2015-09-18T06:46:34Z</time>
      </trkpt>
      <trkpt lat="44.85687" lon="3.49329">
        <ele>1163.3</ele>
        <time>2015-09-18T06:46:37Z</time>
      </trkpt>
      <trkpt lat="44.85678" lon="3.4934">
        <ele>1163.2</ele>
        <time>2015-09-18T06:46:40Z</time>
      </trkpt>
      <trkpt lat="44.85669" lon="3.49346">
        <ele>1163.1</ele>
        <time>2015-09-18T06:46:44Z</time>
      </trkpt>
      <trkpt lat="44.8566" lon="3.4935">
        <ele>1163.1</ele>
        <time>2015-09-18T06:46:50Z</time>
      </trkpt>
      <trkpt lat="44.85659" lon="3.49364">
        <ele>1163.9</ele>
        <time>2015-09-18T06:47:41Z</time>
      </trkpt>
      <trkpt lat="44.85665" lon="3.49373">
        <ele>1164.5</ele>
        <time>2015-09-18T06:47:48Z</time>
      </trkpt>
      <trkpt lat="44.85667" lon="3.49388">
        <ele>1165.7</ele>
        <time>2015-09-18T06:47:56Z</time>
      </trkpt>
      <trkpt lat="44.85663" lon="3.49401">
        <ele>1166.9</ele>
        <time>2015-09-18T06:48:03Z</time>
      </trkpt>
      <trkpt lat="44.85663" lon="3.49415">
        <ele>1168.3</ele>
        <time>2015-09-18T06:48:10Z</time>
      </trkpt>
      <trkpt lat="44.85665" lon="3.49428">
        <ele>1169.7</ele>
        <time>2015-09-18T06:48:17Z</time>
      </trkpt>
      <trkpt lat="44.85665" lon="3.49441">
        <ele>1170.9</ele>
        <time>2015-09-18T06:48:24Z</time>
      </trkpt>
      <trkpt lat="44.85669" lon="3.49453">
        <ele>1172.3</ele>
        <time>2015-09-18T06:48:31Z</time>
      </trkpt>
      <trkpt lat="44.85668" lon="3.49466">
        <ele>1173.8</ele>
        <time>2015-09-18T06:48:40Z</time>
      </trkpt>
      <trkpt lat="44.85662" lon="3.49476">
        <ele>1175.1</ele>
        <time>2015-09-18T06:48:49Z</time>
      </trkpt>
      <trkpt lat="44.85656" lon="3.49486">
        <ele>1176.4</ele>
        <time>2015-09-18T06:48:58Z</time>
      </trkpt>
      <trkpt lat="44.85651" lon="3.49498">
        <ele>1177.6</ele>
        <time>2015-09-18T06:49:06Z</time>
      </trkpt>
      <trkpt lat="44.85645" lon="3.49509">
        <ele>1178.7</ele>
        <time>2015-09-18T06:49:14Z</time>
      </trkpt>
      <trkpt lat="44.85637" lon="3.49516">
        <ele>1179.7</ele>
        <time>2015-09-18T06:49:21Z</time>
      </trkpt>
      <trkpt lat="44.85628" lon="3.4952">
        <ele>1180.7</ele>
        <time>2015-09-18T06:49:29Z</time>
      </trkpt>
      <trkpt lat="44.85618" lon="3.49519">
        <ele>1181.7</ele>
        <time>2015-09-18T06:49:38Z</time>
      </trkpt>
      <trkpt lat="44.85609" lon="3.49519">
        <ele>1182.7</ele>
        <time>2015-09-18T06:49:45Z</time>
      </trkpt>
      <trkpt lat="44.85599" lon="3.49519">
        <ele>1183.9</ele>
        <time>2015-09-18T06:49:53Z</time>
      </trkpt>
      <trkpt lat="44.8559" lon="3.49518">
        <ele>1185.1</ele>
        <time>2015-09-18T06:50:02Z</time>
      </trkpt>
      <trkpt lat="44.85581" lon="3.49516">
        <ele>1185.9</ele>
        <time>2015-09-18T06:50:10Z</time>
      </trkpt>
      <trkpt lat="44.85572" lon="3.49514">
        <ele>1186.2</ele>
        <time>2015-09-18T06:50:16Z</time>
      </trkpt>
      <trkpt lat="44.85562" lon="3.49516">
        <ele>1186.5</ele>
        <time>2015-09-18T06:50:22Z</time>
      </trkpt>
      <trkpt lat="44.85553" lon="3.49516">
        <ele>1186.7</ele>
        <time>2015-09-18T06:50:27Z</time>
      </trkpt>
      <trkpt lat="44.85542" lon="3.49517">
        <ele>1186.8</ele>
        <time>2015-09-18T06:50:32Z</time>
      </trkpt>
      <trkpt lat="44.85532" lon="3.49519">
        <ele>1187</ele>
        <time>2015-09-18T06:50:37Z</time>
      </trkpt>
      <trkpt lat="44.85522" lon="3.49521">
        <ele>1187.1</ele>
        <time>2015-09-18T06:50:41Z</time>
      </trkpt>
      <trkpt lat="44.85513" lon="3.49523">
        <ele>1187.1</ele>
        <time>2015-09-18T06:50:44Z</time>
      </trkpt>
      <trkpt lat="44.85501" lon="3.49525">
        <ele>1187.1</ele>
        <time>2015-09-18T06:50:47Z</time>
      </trkpt>
      <trkpt lat="44.85492" lon="3.49527">
        <ele>1187</ele>
        <time>2015-09-18T06:50:49Z</time>
      </trkpt>
      <trkpt lat="44.85481" lon="3.4953">
        <ele>1186.9</ele>
        <time>2015-09-18T06:50:51Z</time>
      </trkpt>
      <trkpt lat="44.8547" lon="3.49535">
        <ele>1186.7</ele>
        <time>2015-09-18T06:50:53Z</time>
      </trkpt>
      <trkpt lat="44.85457" lon="3.49543">
        <ele>1186.3</ele>
        <time>2015-09-18T06:50:55Z</time>
      </trkpt>
      <trkpt lat="44.85445" lon="3.49552">
        <ele>1186</ele>
        <time>2015-09-18T06:50:57Z</time>
      </trkpt>
      <trkpt lat="44.85432" lon="3.4956">
        <ele>1185.5</ele>
        <time>2015-09-18T06:50:59Z</time>
      </trkpt>
      <trkpt lat="44.85419" lon="3.49566">
        <ele>1185.1</ele>
        <time>2015-09-18T06:51:01Z</time>
      </trkpt>
      <trkpt lat="44.85408" lon="3.49572">
        <ele>1184.7</ele>
        <time>2015-09-18T06:51:03Z</time>
      </trkpt>
      <trkpt lat="44.85397" lon="3.49575">
        <ele>1184.4</ele>
        <time>2015-09-18T06:51:05Z</time>
      </trkpt>
      <trkpt lat="44.85386" lon="3.49579">
        <ele>1184.1</ele>
        <time>2015-09-18T06:51:07Z</time>
      </trkpt>
      <trkpt lat="44.85374" lon="3.49582">
        <ele>1183.7</ele>
        <time>2015-09-18T06:51:09Z</time>
      </trkpt>
      <trkpt lat="44.85363" lon="3.49583">
        <ele>1183.3</ele>
        <time>2015-09-18T06:51:11Z</time>
      </trkpt>
      <trkpt lat="44.85352" lon="3.49579">
        <ele>1182.8</ele>
        <time>2015-09-18T06:51:14Z</time>
      </trkpt>
      <trkpt lat="44.85343" lon="3.49575">
        <ele>1182.4</ele>
        <time>2015-09-18T06:51:18Z</time>
      </trkpt>
      <trkpt lat="44.85334" lon="3.49572">
        <ele>1182.1</ele>
        <time>2015-09-18T06:51:24Z</time>
      </trkpt>
      <trkpt lat="44.85324" lon="3.49572">
        <ele>1182</ele>
        <time>2015-09-18T06:51:30Z</time>
      </trkpt>
      <trkpt lat="44.85315" lon="3.49574">
        <ele>1182.1</ele>
        <time>2015-09-18T06:51:36Z</time>
      </trkpt>
      <trkpt lat="44.85305" lon="3.49577">
        <ele>1182.8</ele>
        <time>2015-09-18T06:51:44Z</time>
      </trkpt>
      <trkpt lat="44.85296" lon="3.49577">
        <ele>1183.3</ele>
        <time>2015-09-18T06:51:51Z</time>
      </trkpt>
      <trkpt lat="44.85287" lon="3.49573">
        <ele>1183.8</ele>
        <time>2015-09-18T06:51:58Z</time>
      </trkpt>
      <trkpt lat="44.85278" lon="3.49566">
        <ele>1184.5</ele>
        <time>2015-09-18T06:52:05Z</time>
      </trkpt>
      <trkpt lat="44.85269" lon="3.49563">
        <ele>1185.4</ele>
        <time>2015-09-18T06:52:12Z</time>
      </trkpt>
      <trkpt lat="44.85259" lon="3.4956">
        <ele>1186.2</ele>
        <time>2015-09-18T06:52:19Z</time>
      </trkpt>
      <trkpt lat="44.85249" lon="3.49559">
        <ele>1186.9</ele>
        <time>2015-09-18T06:52:25Z</time>
      </trkpt>
      <trkpt lat="44.85239" lon="3.49559">
        <ele>1187.5</ele>
        <time>2015-09-18T06:52:32Z</time>
      </trkpt>
      <trkpt lat="44.85229" lon="3.49559">
        <ele>1188.1</ele>
        <time>2015-09-18T06:52:39Z</time>
      </trkpt>
      <trkpt lat="44.85219" lon="3.4956">
        <ele>1188.8</ele>
        <time>2015-09-18T06:52:46Z</time>
      </trkpt>
      <trkpt lat="44.85209" lon="3.49563">
        <ele>1189.7</ele>
        <time>2015-09-18T06:52:53Z</time>
      </trkpt>
      <trkpt lat="44.85199" lon="3.49566">
        <ele>1190.2</ele>
        <time>2015-09-18T06:52:59Z</time>
      </trkpt>
      <trkpt lat="44.8519" lon="3.49569">
        <ele>1190.8</ele>
        <time>2015-09-18T06:53:09Z</time>
      </trkpt>
      <trkpt lat="44.85182" lon="3.49573">
        <ele>1191.3</ele>
        <time>2015-09-18T06:53:17Z</time>
      </trkpt>
      <trkpt lat="44.85172" lon="3.49576">
        <ele>1191.7</ele>
        <time>2015-09-18T06:53:25Z</time>
      </trkpt>
      <trkpt lat="44.85163" lon="3.4958">
        <ele>1192</ele>
        <time>2015-09-18T06:53:32Z</time>
      </trkpt>
      <trkpt lat="44.85152" lon="3.49583">
        <ele>1192.1</ele>
        <time>2015-09-18T06:53:38Z</time>
      </trkpt>
      <trkpt lat="44.85142" lon="3.49586">
        <ele>1192.2</ele>
        <time>2015-09-18T06:53:43Z</time>
      </trkpt>
      <trkpt lat="44.85134" lon="3.49591">
        <ele>1192.2</ele>
        <time>2015-09-18T06:53:46Z</time>
      </trkpt>
      <trkpt lat="44.85124" lon="3.49595">
        <ele>1192.1</ele>
        <time>2015-09-18T06:53:49Z</time>
      </trkpt>
      <trkpt lat="44.85116" lon="3.49601">
        <ele>1192</ele>
        <time>2015-09-18T06:53:52Z</time>
      </trkpt>
      <trkpt lat="44.85107" lon="3.49606">
        <ele>1191.7</ele>
        <time>2015-09-18T06:53:58Z</time>
      </trkpt>
      <trkpt lat="44.85098" lon="3.49613">
        <ele>1191.5</ele>
        <time>2015-09-18T06:54:06Z</time>
      </trkpt>
      <trkpt lat="44.85092" lon="3.49624">
        <ele>1191.4</ele>
        <time>2015-09-18T06:54:13Z</time>
      </trkpt>
      <trkpt lat="44.85085" lon="3.49636">
        <ele>1191.3</ele>
        <time>2015-09-18T06:54:20Z</time>
      </trkpt>
      <trkpt lat="44.85081" lon="3.49647">
        <ele>1191.3</ele>
        <time>2015-09-18T06:54:25Z</time>
      </trkpt>
      <trkpt lat="44.85074" lon="3.49656">
        <ele>1191.3</ele>
        <time>2015-09-18T06:54:30Z</time>
      </trkpt>
      <trkpt lat="44.85065" lon="3.49663">
        <ele>1191.4</ele>
        <time>2015-09-18T06:54:34Z</time>
      </trkpt>
      <trkpt lat="44.85054" lon="3.49669">
        <ele>1191.5</ele>
        <time>2015-09-18T06:54:38Z</time>
      </trkpt>
      <trkpt lat="44.85044" lon="3.49669">
        <ele>1191.6</ele>
        <time>2015-09-18T06:54:42Z</time>
      </trkpt>
      <trkpt lat="44.85034" lon="3.49668">
        <ele>1191.8</ele>
        <time>2015-09-18T06:54:46Z</time>
      </trkpt>
      <trkpt lat="44.85024" lon="3.49664">
        <ele>1192</ele>
        <time>2015-09-18T06:54:50Z</time>
      </trkpt>
      <trkpt lat="44.85015" lon="3.49661">
        <ele>1192.2</ele>
        <time>2015-09-18T06:54:54Z</time>
      </trkpt>
      <trkpt lat="44.85004" lon="3.49659">
        <ele>1192.5</ele>
        <time>2015-09-18T06:54:59Z</time>
      </trkpt>
      <trkpt lat="44.84994" lon="3.49659">
        <ele>1192.9</ele>
        <time>2015-09-18T06:55:04Z</time>
      </trkpt>
      <trkpt lat="44.84985" lon="3.49666">
        <ele>1193.3</ele>
        <time>2015-09-18T06:55:10Z</time>
      </trkpt>
      <trkpt lat="44.84977" lon="3.49674">
        <ele>1193.9</ele>
        <time>2015-09-18T06:55:19Z</time>
      </trkpt>
      <trkpt lat="44.8497" lon="3.49683">
        <ele>1194.4</ele>
        <time>2015-09-18T06:55:27Z</time>
      </trkpt>
      <trkpt lat="44.84962" lon="3.49691">
        <ele>1195.2</ele>
        <time>2015-09-18T06:55:35Z</time>
      </trkpt>
      <trkpt lat="44.84954" lon="3.49699">
        <ele>1196.2</ele>
        <time>2015-09-18T06:55:44Z</time>
      </trkpt>
      <trkpt lat="44.84947" lon="3.49708">
        <ele>1197.1</ele>
        <time>2015-09-18T06:55:52Z</time>
      </trkpt>
      <trkpt lat="44.8494" lon="3.49715">
        <ele>1198.2</ele>
        <time>2015-09-18T06:56:00Z</time>
      </trkpt>
      <trkpt lat="44.84931" lon="3.49723">
        <ele>1199.3</ele>
        <time>2015-09-18T06:56:08Z</time>
      </trkpt>
      <trkpt lat="44.84924" lon="3.49733">
        <ele>1200.5</ele>
        <time>2015-09-18T06:56:16Z</time>
      </trkpt>
      <trkpt lat="44.84915" lon="3.4974">
        <ele>1201.7</ele>
        <time>2015-09-18T06:56:23Z</time>
      </trkpt>
      <trkpt lat="44.84905" lon="3.49739">
        <ele>1202.9</ele>
        <time>2015-09-18T06:56:30Z</time>
      </trkpt>
      <trkpt lat="44.84895" lon="3.49737">
        <ele>1204.1</ele>
        <time>2015-09-18T06:56:38Z</time>
      </trkpt>
      <trkpt lat="44.84886" lon="3.49733">
        <ele>1205.1</ele>
        <time>2015-09-18T06:56:45Z</time>
      </trkpt>
      <trkpt lat="44.84877" lon="3.49735">
        <ele>1206.3</ele>
        <time>2015-09-18T06:56:52Z</time>
      </trkpt>
      <trkpt lat="44.84868" lon="3.49734">
        <ele>1207.6</ele>
        <time>2015-09-18T06:57:00Z</time>
      </trkpt>
      <trkpt lat="44.84859" lon="3.49731">
        <ele>1208.9</ele>
        <time>2015-09-18T06:57:08Z</time>
      </trkpt>
      <trkpt lat="44.84851" lon="3.49723">
        <ele>1209.7</ele>
        <time>2015-09-18T06:57:15Z</time>
      </trkpt>
      <trkpt lat="44.84843" lon="3.49716">
        <ele>1210.6</ele>
        <time>2015-09-18T06:57:22Z</time>
      </trkpt>
      <trkpt lat="44.84836" lon="3.49708">
        <ele>1211.5</ele>
        <time>2015-09-18T06:57:29Z</time>
      </trkpt>
      <trkpt lat="44.84828" lon="3.497">
        <ele>1212.2</ele>
        <time>2015-09-18T06:57:36Z</time>
      </trkpt>
      <trkpt lat="44.8482" lon="3.49692">
        <ele>1212.6</ele>
        <time>2015-09-18T06:57:42Z</time>
      </trkpt>
      <trkpt lat="44.84814" lon="3.49681">
        <ele>1212.9</ele>
        <time>2015-09-18T06:57:47Z</time>
      </trkpt>
      <trkpt lat="44.84809" lon="3.4967">
        <ele>1213.1</ele>
        <time>2015-09-18T06:57:52Z</time>
      </trkpt>
      <trkpt lat="44.848" lon="3.49664">
        <ele>1213.2</ele>
        <time>2015-09-18T06:57:57Z</time>
      </trkpt>
      <trkpt lat="44.84789" lon="3.49666">
        <ele>1213.3</ele>
        <time>2015-09-18T06:58:02Z</time>
      </trkpt>
      <trkpt lat="44.84779" lon="3.49673">
        <ele>1213.4</ele>
        <time>2015-09-18T06:58:07Z</time>
      </trkpt>
      <trkpt lat="44.84771" lon="3.4968">
        <ele>1213.5</ele>
        <time>2015-09-18T06:58:11Z</time>
      </trkpt>
      <trkpt lat="44.84763" lon="3.49688">
        <ele>1213.6</ele>
        <time>2015-09-18T06:58:15Z</time>
      </trkpt>
      <trkpt lat="44.84755" lon="3.49697">
        <ele>1213.6</ele>
        <time>2015-09-18T06:58:20Z</time>
      </trkpt>
      <trkpt lat="44.84747" lon="3.49706">
        <ele>1213.7</ele>
        <time>2015-09-18T06:58:25Z</time>
      </trkpt>
      <trkpt lat="44.84739" lon="3.49714">
        <ele>1213.9</ele>
        <time>2015-09-18T06:58:29Z</time>
      </trkpt>
      <trkpt lat="44.84732" lon="3.49722">
        <ele>1214</ele>
        <time>2015-09-18T06:58:33Z</time>
      </trkpt>
      <trkpt lat="44.84724" lon="3.49731">
        <ele>1214.2</ele>
        <time>2015-09-18T06:58:37Z</time>
      </trkpt>
      <trkpt lat="44.84715" lon="3.49738">
        <ele>1214.5</ele>
        <time>2015-09-18T06:58:41Z</time>
      </trkpt>
      <trkpt lat="44.84706" lon="3.49745">
        <ele>1214.7</ele>
        <time>2015-09-18T06:58:45Z</time>
      </trkpt>
      <trkpt lat="44.84697" lon="3.49754">
        <ele>1214.9</ele>
        <time>2015-09-18T06:58:50Z</time>
      </trkpt>
      <trkpt lat="44.84688" lon="3.49762">
        <ele>1215.1</ele>
        <time>2015-09-18T06:58:54Z</time>
      </trkpt>
      <trkpt lat="44.8468" lon="3.4977">
        <ele>1215.3</ele>
        <time>2015-09-18T06:58:58Z</time>
      </trkpt>
      <trkpt lat="44.84671" lon="3.49777">
        <ele>1215.4</ele>
        <time>2015-09-18T06:59:03Z</time>
      </trkpt>
      <trkpt lat="44.84661" lon="3.49784">
        <ele>1215.6</ele>
        <time>2015-09-18T06:59:07Z</time>
      </trkpt>
      <trkpt lat="44.84652" lon="3.49787">
        <ele>1215.6</ele>
        <time>2015-09-18T06:59:11Z</time>
      </trkpt>
      <trkpt lat="44.84643" lon="3.49788">
        <ele>1215.7</ele>
        <time>2015-09-18T06:59:15Z</time>
      </trkpt>
      <trkpt lat="44.84634" lon="3.49789">
        <ele>1215.7</ele>
        <time>2015-09-18T06:59:19Z</time>
      </trkpt>
      <trkpt lat="44.84624" lon="3.4979">
        <ele>1215.8</ele>
        <time>2015-09-18T06:59:23Z</time>
      </trkpt>
      <trkpt lat="44.84615" lon="3.49793">
        <ele>1215.8</ele>
        <time>2015-09-18T06:59:27Z</time>
      </trkpt>
      <trkpt lat="44.84607" lon="3.498">
        <ele>1215.8</ele>
        <time>2015-09-18T06:59:31Z</time>
      </trkpt>
      <trkpt lat="44.84599" lon="3.49807">
        <ele>1215.9</ele>
        <time>2015-09-18T06:59:35Z</time>
      </trkpt>
      <trkpt lat="44.84589" lon="3.49812">
        <ele>1216</ele>
        <time>2015-09-18T06:59:39Z</time>
      </trkpt>
      <trkpt lat="44.8458" lon="3.49817">
        <ele>1216.3</ele>
        <time>2015-09-18T06:59:43Z</time>
      </trkpt>
      <trkpt lat="44.84571" lon="3.49822">
        <ele>1216.7</ele>
        <time>2015-09-18T06:59:47Z</time>
      </trkpt>
      <trkpt lat="44.84561" lon="3.49823">
        <ele>1217.2</ele>
        <time>2015-09-18T06:59:52Z</time>
      </trkpt>
      <trkpt lat="44.84552" lon="3.49825">
        <ele>1217.5</ele>
        <time>2015-09-18T06:59:56Z</time>
      </trkpt>
      <trkpt lat="44.84543" lon="3.49824">
        <ele>1217.8</ele>
        <time>2015-09-18T07:00:00Z</time>
      </trkpt>
      <trkpt lat="44.84532" lon="3.49826">
        <ele>1218.2</ele>
        <time>2015-09-18T07:00:05Z</time>
      </trkpt>
      <trkpt lat="44.84522" lon="3.49828">
        <ele>1218.6</ele>
        <time>2015-09-18T07:00:10Z</time>
      </trkpt>
      <trkpt lat="44.84512" lon="3.49833">
        <ele>1219.2</ele>
        <time>2015-09-18T07:00:17Z</time>
      </trkpt>
      <trkpt lat="44.84503" lon="3.49839">
        <ele>1220</ele>
        <time>2015-09-18T07:00:24Z</time>
      </trkpt>
      <trkpt lat="44.84494" lon="3.49847">
        <ele>1221.6</ele>
        <time>2015-09-18T07:00:36Z</time>
      </trkpt>
      <trkpt lat="44.84484" lon="3.49854">
        <ele>1222.7</ele>
        <time>2015-09-18T07:00:44Z</time>
      </trkpt>
      <trkpt lat="44.84474" lon="3.49855">
        <ele>1224</ele>
        <time>2015-09-18T07:00:53Z</time>
      </trkpt>
      <trkpt lat="44.84466" lon="3.49856">
        <ele>1225.1</ele>
        <time>2015-09-18T07:01:00Z</time>
      </trkpt>
      <trkpt lat="44.84456" lon="3.49853">
        <ele>1226.4</ele>
        <time>2015-09-18T07:01:08Z</time>
      </trkpt>
      <trkpt lat="44.84446" lon="3.49851">
        <ele>1227.5</ele>
        <time>2015-09-18T07:01:15Z</time>
      </trkpt>
      <trkpt lat="44.84436" lon="3.49848">
        <ele>1228.5</ele>
        <time>2015-09-18T07:01:22Z</time>
      </trkpt>
      <trkpt lat="44.84427" lon="3.49844">
        <ele>1229</ele>
        <time>2015-09-18T07:01:27Z</time>
      </trkpt>
      <trkpt lat="44.84417" lon="3.4984">
        <ele>1229.5</ele>
        <time>2015-09-18T07:01:33Z</time>
      </trkpt>
      <trkpt lat="44.84409" lon="3.49833">
        <ele>1230.1</ele>
        <time>2015-09-18T07:01:39Z</time>
      </trkpt>
      <trkpt lat="44.84401" lon="3.49829">
        <ele>1230.7</ele>
        <time>2015-09-18T07:01:47Z</time>
      </trkpt>
      <trkpt lat="44.84391" lon="3.49831">
        <ele>1231</ele>
        <time>2015-09-18T07:01:55Z</time>
      </trkpt>
      <trkpt lat="44.84382" lon="3.49829">
        <ele>1231.2</ele>
        <time>2015-09-18T07:02:03Z</time>
      </trkpt>
      <trkpt lat="44.84371" lon="3.49827">
        <ele>1231.4</ele>
        <time>2015-09-18T07:02:09Z</time>
      </trkpt>
      <trkpt lat="44.84361" lon="3.49822">
        <ele>1231.5</ele>
        <time>2015-09-18T07:02:13Z</time>
      </trkpt>
      <trkpt lat="44.84351" lon="3.49819">
        <ele>1231.5</ele>
        <time>2015-09-18T07:02:16Z</time>
      </trkpt>
      <trkpt lat="44.84342" lon="3.49815">
        <ele>1231.5</ele>
        <time>2015-09-18T07:02:20Z</time>
      </trkpt>
      <trkpt lat="44.84332" lon="3.49817">
        <ele>1231.4</ele>
        <time>2015-09-18T07:02:26Z</time>
      </trkpt>
      <trkpt lat="44.84324" lon="3.49814">
        <ele>1231.2</ele>
        <time>2015-09-18T07:02:32Z</time>
      </trkpt>
      <trkpt lat="44.84314" lon="3.49814">
        <ele>1231.1</ele>
        <time>2015-09-18T07:02:40Z</time>
      </trkpt>
      <trkpt lat="44.84305" lon="3.4982">
        <ele>1231</ele>
        <time>2015-09-18T07:02:45Z</time>
      </trkpt>
      <trkpt lat="44.84292" lon="3.49819">
        <ele>1231</ele>
        <time>2015-09-18T07:02:48Z</time>
      </trkpt>
      <trkpt lat="44.84286" lon="3.49807">
        <ele>1231</ele>
        <time>2015-09-18T07:02:52Z</time>
      </trkpt>
      <trkpt lat="44.8428" lon="3.49797">
        <ele>1231</ele>
        <time>2015-09-18T07:02:59Z</time>
      </trkpt>
      <trkpt lat="44.84273" lon="3.49789">
        <ele>1231.2</ele>
        <time>2015-09-18T07:03:05Z</time>
      </trkpt>
      <trkpt lat="44.84269" lon="3.49776">
        <ele>1231.6</ele>
        <time>2015-09-18T07:03:12Z</time>
      </trkpt>
      <trkpt lat="44.84271" lon="3.49763">
        <ele>1232.3</ele>
        <time>2015-09-18T07:03:19Z</time>
      </trkpt>
      <trkpt lat="44.84268" lon="3.4975">
        <ele>1232.9</ele>
        <time>2015-09-18T07:03:25Z</time>
      </trkpt>
      <trkpt lat="44.84265" lon="3.49737">
        <ele>1233.8</ele>
        <time>2015-09-18T07:03:36Z</time>
      </trkpt>
      <trkpt lat="44.84261" lon="3.49726">
        <ele>1235.1</ele>
        <time>2015-09-18T07:04:04Z</time>
      </trkpt>
      <trkpt lat="44.84252" lon="3.49728">
        <ele>1235.3</ele>
        <time>2015-09-18T07:04:35Z</time>
      </trkpt>
      <trkpt lat="44.84247" lon="3.49716">
        <ele>1235.1</ele>
        <time>2015-09-18T07:06:45Z</time>
      </trkpt>
      <trkpt lat="44.84242" lon="3.49706">
        <ele>1235.1</ele>
        <time>2015-09-18T07:06:52Z</time>
      </trkpt>
      <trkpt lat="44.84235" lon="3.49695">
        <ele>1235.1</ele>
        <time>2015-09-18T07:07:01Z</time>
      </trkpt>
      <trkpt lat="44.84229" lon="3.49684">
        <ele>1235.1</ele>
        <time>2015-09-18T07:07:08Z</time>
      </trkpt>
      <trkpt lat="44.84228" lon="3.4967">
        <ele>1235.1</ele>
        <time>2015-09-18T07:07:15Z</time>
      </trkpt>
      <trkpt lat="44.84226" lon="3.49657">
        <ele>1235.1</ele>
        <time>2015-09-18T07:07:22Z</time>
      </trkpt>
      <trkpt lat="44.84223" lon="3.49643">
        <ele>1235.1</ele>
        <time>2015-09-18T07:07:29Z</time>
      </trkpt>
      <trkpt lat="44.84216" lon="3.49632">
        <ele>1235.1</ele>
        <time>2015-09-18T07:07:34Z</time>
      </trkpt>
      <trkpt lat="44.84209" lon="3.49623">
        <ele>1235.2</ele>
        <time>2015-09-18T07:07:39Z</time>
      </trkpt>
      <trkpt lat="44.842" lon="3.49614">
        <ele>1235.5</ele>
        <time>2015-09-18T07:07:45Z</time>
      </trkpt>
      <trkpt lat="44.84192" lon="3.49606">
        <ele>1236.1</ele>
        <time>2015-09-18T07:07:51Z</time>
      </trkpt>
      <trkpt lat="44.84186" lon="3.49596">
        <ele>1237.1</ele>
        <time>2015-09-18T07:07:59Z</time>
      </trkpt>
      <trkpt lat="44.84182" lon="3.49584">
        <ele>1237.6</ele>
        <time>2015-09-18T07:08:04Z</time>
      </trkpt>
      <trkpt lat="44.84176" lon="3.49573">
        <ele>1238.3</ele>
        <time>2015-09-18T07:08:11Z</time>
      </trkpt>
      <trkpt lat="44.84171" lon="3.4956">
        <ele>1239</ele>
        <time>2015-09-18T07:08:18Z</time>
      </trkpt>
      <trkpt lat="44.84166" lon="3.49547">
        <ele>1239.6</ele>
        <time>2015-09-18T07:08:23Z</time>
      </trkpt>
      <trkpt lat="44.8416" lon="3.49536">
        <ele>1240.2</ele>
        <time>2015-09-18T07:08:29Z</time>
      </trkpt>
      <trkpt lat="44.84151" lon="3.49529">
        <ele>1240.6</ele>
        <time>2015-09-18T07:08:35Z</time>
      </trkpt>
      <trkpt lat="44.84141" lon="3.49528">
        <ele>1241.2</ele>
        <time>2015-09-18T07:08:42Z</time>
      </trkpt>
      <trkpt lat="44.84133" lon="3.49523">
        <ele>1242.2</ele>
        <time>2015-09-18T07:08:50Z</time>
      </trkpt>
      <trkpt lat="44.84124" lon="3.49521">
        <ele>1243.8</ele>
        <time>2015-09-18T07:09:02Z</time>
      </trkpt>
      <trkpt lat="44.84114" lon="3.49519">
        <ele>1245.2</ele>
        <time>2015-09-18T07:09:12Z</time>
      </trkpt>
      <trkpt lat="44.84105" lon="3.4952">
        <ele>1246.7</ele>
        <time>2015-09-18T07:09:23Z</time>
      </trkpt>
      <trkpt lat="44.84096" lon="3.49522">
        <ele>1248.5</ele>
        <time>2015-09-18T07:09:34Z</time>
      </trkpt>
      <trkpt lat="44.84087" lon="3.49522">
        <ele>1250.1</ele>
        <time>2015-09-18T07:09:44Z</time>
      </trkpt>
      <trkpt lat="44.84078" lon="3.49521">
        <ele>1251.2</ele>
        <time>2015-09-18T07:09:52Z</time>
      </trkpt>
      <trkpt lat="44.84068" lon="3.49525">
        <ele>1252.5</ele>
        <time>2015-09-18T07:10:02Z</time>
      </trkpt>
      <trkpt lat="44.8406" lon="3.49531">
        <ele>1253.9</ele>
        <time>2015-09-18T07:10:11Z</time>
      </trkpt>
      <trkpt lat="44.8405" lon="3.49534">
        <ele>1255.5</ele>
        <time>2015-09-18T07:10:20Z</time>
      </trkpt>
      <trkpt lat="44.8404" lon="3.49539">
        <ele>1256.9</ele>
        <time>2015-09-18T07:10:29Z</time>
      </trkpt>
      <trkpt lat="44.84032" lon="3.49546">
        <ele>1257.9</ele>
        <time>2015-09-18T07:10:36Z</time>
      </trkpt>
      <trkpt lat="44.84024" lon="3.49553">
        <ele>1260.1</ele>
        <time>2015-09-18T07:10:50Z</time>
      </trkpt>
      <trkpt lat="44.84016" lon="3.4956">
        <ele>1261.6</ele>
        <time>2015-09-18T07:10:58Z</time>
      </trkpt>
      <trkpt lat="44.84007" lon="3.49563">
        <ele>1263.3</ele>
        <time>2015-09-18T07:11:09Z</time>
      </trkpt>
      <trkpt lat="44.83998" lon="3.49564">
        <ele>1265.1</ele>
        <time>2015-09-18T07:11:21Z</time>
      </trkpt>
      <trkpt lat="44.83989" lon="3.49567">
        <ele>1266</ele>
        <time>2015-09-18T07:11:29Z</time>
      </trkpt>
      <trkpt lat="44.83978" lon="3.49567">
        <ele>1266.5</ele>
        <time>2015-09-18T07:11:34Z</time>
      </trkpt>
      <trkpt lat="44.83969" lon="3.49564">
        <ele>1267.3</ele>
        <time>2015-09-18T07:11:40Z</time>
      </trkpt>
      <trkpt lat="44.8396" lon="3.49562">
        <ele>1267.9</ele>
        <time>2015-09-18T07:11:45Z</time>
      </trkpt>
      <trkpt lat="44.83951" lon="3.49562">
        <ele>1268.3</ele>
        <time>2015-09-18T07:11:49Z</time>
      </trkpt>
      <trkpt lat="44.83941" lon="3.49559">
        <ele>1268.7</ele>
        <time>2015-09-18T07:11:55Z</time>
      </trkpt>
      <trkpt lat="44.8393" lon="3.49557">
        <ele>1269.2</ele>
        <time>2015-09-18T07:12:01Z</time>
      </trkpt>
      <trkpt lat="44.83921" lon="3.49556">
        <ele>1269.7</ele>
        <time>2015-09-18T07:12:07Z</time>
      </trkpt>
      <trkpt lat="44.8391" lon="3.49552">
        <ele>1270.8</ele>
        <time>2015-09-18T07:12:16Z</time>
      </trkpt>
      <trkpt lat="44.839" lon="3.49551">
        <ele>1271.6</ele>
        <time>2015-09-18T07:12:21Z</time>
      </trkpt>
      <trkpt lat="44.83891" lon="3.4955">
        <ele>1272.7</ele>
        <time>2015-09-18T07:12:28Z</time>
      </trkpt>
      <trkpt lat="44.83882" lon="3.49553">
        <ele>1274.1</ele>
        <time>2015-09-18T07:12:38Z</time>
      </trkpt>
      <trkpt lat="44.83874" lon="3.4956">
        <ele>1276.1</ele>
        <time>2015-09-18T07:12:49Z</time>
      </trkpt>
      <trkpt lat="44.83866" lon="3.49566">
        <ele>1277.5</ele>
        <time>2015-09-18T07:12:57Z</time>
      </trkpt>
      <trkpt lat="44.83857" lon="3.49563">
        <ele>1278.4</ele>
        <time>2015-09-18T07:13:04Z</time>
      </trkpt>
      <trkpt lat="44.83848" lon="3.49564">
        <ele>1279.8</ele>
        <time>2015-09-18T07:13:14Z</time>
      </trkpt>
      <trkpt lat="44.83838" lon="3.49567">
        <ele>1280.9</ele>
        <time>2015-09-18T07:13:24Z</time>
      </trkpt>
      <trkpt lat="44.83829" lon="3.49566">
        <ele>1282</ele>
        <time>2015-09-18T07:13:34Z</time>
      </trkpt>
      <trkpt lat="44.8382" lon="3.49567">
        <ele>1283</ele>
        <time>2015-09-18T07:13:43Z</time>
      </trkpt>
      <trkpt lat="44.83811" lon="3.49568">
        <ele>1284.1</ele>
        <time>2015-09-18T07:13:53Z</time>
      </trkpt>
      <trkpt lat="44.83801" lon="3.49569">
        <ele>1284.9</ele>
        <time>2015-09-18T07:14:00Z</time>
      </trkpt>
      <trkpt lat="44.83792" lon="3.49572">
        <ele>1285.8</ele>
        <time>2015-09-18T07:14:08Z</time>
      </trkpt>
      <trkpt lat="44.83782" lon="3.49574">
        <ele>1286.4</ele>
        <time>2015-09-18T07:14:15Z</time>
      </trkpt>
      <trkpt lat="44.83773" lon="3.49576">
        <ele>1287.1</ele>
        <time>2015-09-18T07:14:20Z</time>
      </trkpt>
      <trkpt lat="44.83763" lon="3.49576">
        <ele>1288</ele>
        <time>2015-09-18T07:14:28Z</time>
      </trkpt>
      <trkpt lat="44.83754" lon="3.49574">
        <ele>1289</ele>
        <time>2015-09-18T07:14:35Z</time>
      </trkpt>
      <trkpt lat="44.83744" lon="3.49574">
        <ele>1289.9</ele>
        <time>2015-09-18T07:14:43Z</time>
      </trkpt>
      <trkpt lat="44.83735" lon="3.49574">
        <ele>1290.7</ele>
        <time>2015-09-18T07:14:50Z</time>
      </trkpt>
      <trkpt lat="44.83725" lon="3.49571">
        <ele>1291.4</ele>
        <time>2015-09-18T07:14:56Z</time>
      </trkpt>
      <trkpt lat="44.83716" lon="3.49568">
        <ele>1292</ele>
        <time>2015-09-18T07:15:03Z</time>
      </trkpt>
      <trkpt lat="44.83706" lon="3.49567">
        <ele>1292.5</ele>
        <time>2015-09-18T07:15:10Z</time>
      </trkpt>
      <trkpt lat="44.83696" lon="3.49565">
        <ele>1293.1</ele>
        <time>2015-09-18T07:15:17Z</time>
      </trkpt>
      <trkpt lat="44.83686" lon="3.49568">
        <ele>1293.6</ele>
        <time>2015-09-18T07:15:23Z</time>
      </trkpt>
      <trkpt lat="44.83677" lon="3.49567">
        <ele>1294.1</ele>
        <time>2015-09-18T07:15:30Z</time>
      </trkpt>
      <trkpt lat="44.83667" lon="3.49566">
        <ele>1294.6</ele>
        <time>2015-09-18T07:15:37Z</time>
      </trkpt>
      <trkpt lat="44.83656" lon="3.49565">
        <ele>1295.2</ele>
        <time>2015-09-18T07:15:44Z</time>
      </trkpt>
      <trkpt lat="44.83647" lon="3.49564">
        <ele>1295.9</ele>
        <time>2015-09-18T07:15:51Z</time>
      </trkpt>
      <trkpt lat="44.83637" lon="3.49559">
        <ele>1296.7</ele>
        <time>2015-09-18T07:15:58Z</time>
      </trkpt>
      <trkpt lat="44.83627" lon="3.49555">
        <ele>1297.1</ele>
        <time>2015-09-18T07:16:05Z</time>
      </trkpt>
      <trkpt lat="44.83617" lon="3.49554">
        <ele>1297.5</ele>
        <time>2015-09-18T07:16:11Z</time>
      </trkpt>
      <trkpt lat="44.83607" lon="3.49553">
        <ele>1297.7</ele>
        <time>2015-09-18T07:16:17Z</time>
      </trkpt>
      <trkpt lat="44.83597" lon="3.49549">
        <ele>1297.8</ele>
        <time>2015-09-18T07:16:23Z</time>
      </trkpt>
      <trkpt lat="44.83587" lon="3.49548">
        <ele>1298.2</ele>
        <time>2015-09-18T07:16:29Z</time>
      </trkpt>
      <trkpt lat="44.83576" lon="3.49545">
        <ele>1298.5</ele>
        <time>2015-09-18T07:16:36Z</time>
      </trkpt>
      <trkpt lat="44.83566" lon="3.49543">
        <ele>1298.7</ele>
        <time>2015-09-18T07:16:40Z</time>
      </trkpt>
      <trkpt lat="44.83556" lon="3.49542">
        <ele>1298.8</ele>
        <time>2015-09-18T07:16:46Z</time>
      </trkpt>
      <trkpt lat="44.83547" lon="3.49544">
        <ele>1298.9</ele>
        <time>2015-09-18T07:16:52Z</time>
      </trkpt>
      <trkpt lat="44.83537" lon="3.49548">
        <ele>1299.2</ele>
        <time>2015-09-18T07:16:56Z</time>
      </trkpt>
      <trkpt lat="44.83529" lon="3.49553">
        <ele>1300.2</ele>
        <time>2015-09-18T07:17:14Z</time>
      </trkpt>
      <trkpt lat="44.83523" lon="3.49563">
        <ele>1301.4</ele>
        <time>2015-09-18T07:18:47Z</time>
      </trkpt>
      <trkpt lat="44.83521" lon="3.49576">
        <ele>1301.7</ele>
        <time>2015-09-18T07:18:56Z</time>
      </trkpt>
      <trkpt lat="44.83518" lon="3.4959">
        <ele>1302.2</ele>
        <time>2015-09-18T07:19:05Z</time>
      </trkpt>
      <trkpt lat="44.83513" lon="3.49602">
        <ele>1303</ele>
        <time>2015-09-18T07:19:14Z</time>
      </trkpt>
      <trkpt lat="44.8351" lon="3.49614">
        <ele>1304</ele>
        <time>2015-09-18T07:19:22Z</time>
      </trkpt>
      <trkpt lat="44.83507" lon="3.49628">
        <ele>1305.2</ele>
        <time>2015-09-18T07:19:31Z</time>
      </trkpt>
      <trkpt lat="44.83507" lon="3.49642">
        <ele>1306.4</ele>
        <time>2015-09-18T07:19:40Z</time>
      </trkpt>
      <trkpt lat="44.83504" lon="3.49655">
        <ele>1307.5</ele>
        <time>2015-09-18T07:19:49Z</time>
      </trkpt>
      <trkpt lat="44.83503" lon="3.49669">
        <ele>1308.7</ele>
        <time>2015-09-18T07:19:58Z</time>
      </trkpt>
      <trkpt lat="44.83502" lon="3.49681">
        <ele>1309.7</ele>
        <time>2015-09-18T07:20:06Z</time>
      </trkpt>
      <trkpt lat="44.83501" lon="3.49694">
        <ele>1311</ele>
        <time>2015-09-18T07:20:15Z</time>
      </trkpt>
      <trkpt lat="44.83499" lon="3.49707">
        <ele>1312.5</ele>
        <time>2015-09-18T07:20:25Z</time>
      </trkpt>
      <trkpt lat="44.83501" lon="3.49721">
        <ele>1314.8</ele>
        <time>2015-09-18T07:20:40Z</time>
      </trkpt>
      <trkpt lat="44.835" lon="3.49734">
        <ele>1316.8</ele>
        <time>2015-09-18T07:20:52Z</time>
      </trkpt>
      <trkpt lat="44.83494" lon="3.49744">
        <ele>1318.5</ele>
        <time>2015-09-18T07:21:03Z</time>
      </trkpt>
      <trkpt lat="44.83486" lon="3.4975">
        <ele>1320.3</ele>
        <time>2015-09-18T07:21:15Z</time>
      </trkpt>
      <trkpt lat="44.83476" lon="3.4975">
        <ele>1321.1</ele>
        <time>2015-09-18T07:21:26Z</time>
      </trkpt>
      <trkpt lat="44.83466" lon="3.4975">
        <ele>1321.3</ele>
        <time>2015-09-18T07:21:31Z</time>
      </trkpt>
      <trkpt lat="44.83454" lon="3.49749">
        <ele>1321.3</ele>
        <time>2015-09-18T07:21:36Z</time>
      </trkpt>
      <trkpt lat="44.83442" lon="3.49748">
        <ele>1321</ele>
        <time>2015-09-18T07:21:41Z</time>
      </trkpt>
      <trkpt lat="44.83431" lon="3.4975">
        <ele>1320.8</ele>
        <time>2015-09-18T07:21:44Z</time>
      </trkpt>
      <trkpt lat="44.83422" lon="3.49743">
        <ele>1320.5</ele>
        <time>2015-09-18T07:21:47Z</time>
      </trkpt>
      <trkpt lat="44.83411" lon="3.49736">
        <ele>1320.3</ele>
        <time>2015-09-18T07:21:50Z</time>
      </trkpt>
      <trkpt lat="44.834" lon="3.49736">
        <ele>1320.1</ele>
        <time>2015-09-18T07:21:53Z</time>
      </trkpt>
      <trkpt lat="44.83392" lon="3.49726">
        <ele>1319.8</ele>
        <time>2015-09-18T07:21:56Z</time>
      </trkpt>
      <trkpt lat="44.83382" lon="3.49722">
        <ele>1319.7</ele>
        <time>2015-09-18T07:21:58Z</time>
      </trkpt>
      <trkpt lat="44.83373" lon="3.49722">
        <ele>1319.5</ele>
        <time>2015-09-18T07:22:01Z</time>
      </trkpt>
      <trkpt lat="44.83365" lon="3.49715">
        <ele>1319.4</ele>
        <time>2015-09-18T07:22:04Z</time>
      </trkpt>
      <trkpt lat="44.83353" lon="3.49711">
        <ele>1319.3</ele>
        <time>2015-09-18T07:22:07Z</time>
      </trkpt>
      <trkpt lat="44.83343" lon="3.4971">
        <ele>1319.2</ele>
        <time>2015-09-18T07:22:09Z</time>
      </trkpt>
      <trkpt lat="44.83333" lon="3.4971">
        <ele>1319.1</ele>
        <time>2015-09-18T07:22:13Z</time>
      </trkpt>
      <trkpt lat="44.83326" lon="3.49703">
        <ele>1319</ele>
        <time>2015-09-18T07:22:16Z</time>
      </trkpt>
      <trkpt lat="44.83314" lon="3.49701">
        <ele>1319.2</ele>
        <time>2015-09-18T07:22:19Z</time>
      </trkpt>
      <trkpt lat="44.83304" lon="3.49698">
        <ele>1319.4</ele>
        <time>2015-09-18T07:22:23Z</time>
      </trkpt>
      <trkpt lat="44.83293" lon="3.49694">
        <ele>1319.7</ele>
        <time>2015-09-18T07:22:27Z</time>
      </trkpt>
      <trkpt lat="44.83282" lon="3.49694">
        <ele>1320.1</ele>
        <time>2015-09-18T07:22:30Z</time>
      </trkpt>
      <trkpt lat="44.83273" lon="3.4969">
        <ele>1320.4</ele>
        <time>2015-09-18T07:22:33Z</time>
      </trkpt>
      <trkpt lat="44.83264" lon="3.49687">
        <ele>1320.7</ele>
        <time>2015-09-18T07:22:35Z</time>
      </trkpt>
      <trkpt lat="44.83255" lon="3.49684">
        <ele>1321</ele>
        <time>2015-09-18T07:22:37Z</time>
      </trkpt>
      <trkpt lat="44.83245" lon="3.49681">
        <ele>1321.4</ele>
        <time>2015-09-18T07:22:40Z</time>
      </trkpt>
      <trkpt lat="44.83236" lon="3.49679">
        <ele>1321.6</ele>
        <time>2015-09-18T07:22:42Z</time>
      </trkpt>
      <trkpt lat="44.83227" lon="3.49677">
        <ele>1322</ele>
        <time>2015-09-18T07:22:45Z</time>
      </trkpt>
      <trkpt lat="44.83217" lon="3.49674">
        <ele>1322.5</ele>
        <time>2015-09-18T07:22:49Z</time>
      </trkpt>
      <trkpt lat="44.83207" lon="3.49671">
        <ele>1322.9</ele>
        <time>2015-09-18T07:22:52Z</time>
      </trkpt>
      <trkpt lat="44.83197" lon="3.49667">
        <ele>1323.5</ele>
        <time>2015-09-18T07:22:57Z</time>
      </trkpt>
      <trkpt lat="44.83184" lon="3.49664">
        <ele>1323.8</ele>
        <time>2015-09-18T07:23:01Z</time>
      </trkpt>
      <trkpt lat="44.83174" lon="3.49661">
        <ele>1324.1</ele>
        <time>2015-09-18T07:23:04Z</time>
      </trkpt>
      <trkpt lat="44.83163" lon="3.49657">
        <ele>1324.4</ele>
        <time>2015-09-18T07:23:08Z</time>
      </trkpt>
      <trkpt lat="44.83154" lon="3.49657">
        <ele>1324.7</ele>
        <time>2015-09-18T07:23:11Z</time>
      </trkpt>
      <trkpt lat="44.83142" lon="3.49654">
        <ele>1325</ele>
        <time>2015-09-18T07:23:15Z</time>
      </trkpt>
      <trkpt lat="44.83131" lon="3.4965">
        <ele>1325.3</ele>
        <time>2015-09-18T07:23:19Z</time>
      </trkpt>
      <trkpt lat="44.8312" lon="3.49646">
        <ele>1325.5</ele>
        <time>2015-09-18T07:23:23Z</time>
      </trkpt>
      <trkpt lat="44.83109" lon="3.49643">
        <ele>1325.7</ele>
        <time>2015-09-18T07:23:28Z</time>
      </trkpt>
      <trkpt lat="44.83099" lon="3.49641">
        <ele>1325.9</ele>
        <time>2015-09-18T07:23:33Z</time>
      </trkpt>
      <trkpt lat="44.83088" lon="3.49636">
        <ele>1326.1</ele>
        <time>2015-09-18T07:23:38Z</time>
      </trkpt>
      <trkpt lat="44.83077" lon="3.49632">
        <ele>1326.2</ele>
        <time>2015-09-18T07:23:42Z</time>
      </trkpt>
      <trkpt lat="44.83066" lon="3.49628">
        <ele>1326.4</ele>
        <time>2015-09-18T07:23:46Z</time>
      </trkpt>
      <trkpt lat="44.83055" lon="3.49625">
        <ele>1326.6</ele>
        <time>2015-09-18T07:23:50Z</time>
      </trkpt>
      <trkpt lat="44.83045" lon="3.49622">
        <ele>1326.7</ele>
        <time>2015-09-18T07:23:54Z</time>
      </trkpt>
      <trkpt lat="44.83035" lon="3.49619">
        <ele>1326.9</ele>
        <time>2015-09-18T07:23:58Z</time>
      </trkpt>
      <trkpt lat="44.83026" lon="3.49616">
        <ele>1327</ele>
        <time>2015-09-18T07:24:02Z</time>
      </trkpt>
      <trkpt lat="44.83016" lon="3.49613">
        <ele>1327.1</ele>
        <time>2015-09-18T07:24:07Z</time>
      </trkpt>
      <trkpt lat="44.83007" lon="3.49611">
        <ele>1327.2</ele>
        <time>2015-09-18T07:24:12Z</time>
      </trkpt>
      <trkpt lat="44.83004" lon="3.49598">
        <ele>1326.8</ele>
        <time>2015-09-18T07:26:16Z</time>
      </trkpt>
      <trkpt lat="44.83012" lon="3.49588">
        <ele>1326.7</ele>
        <time>2015-09-18T07:26:21Z</time>
      </trkpt>
      <trkpt lat="44.83022" lon="3.4958">
        <ele>1326.6</ele>
        <time>2015-09-18T07:26:25Z</time>
      </trkpt>
      <trkpt lat="44.83032" lon="3.49572">
        <ele>1326.5</ele>
        <time>2015-09-18T07:26:28Z</time>
      </trkpt>
      <trkpt lat="44.83042" lon="3.49564">
        <ele>1326.3</ele>
        <time>2015-09-18T07:26:31Z</time>
      </trkpt>
      <trkpt lat="44.83053" lon="3.49553">
        <ele>1326</ele>
        <time>2015-09-18T07:26:34Z</time>
      </trkpt>
      <trkpt lat="44.8306" lon="3.49544">
        <ele>1325.8</ele>
        <time>2015-09-18T07:26:36Z</time>
      </trkpt>
      <trkpt lat="44.83067" lon="3.49533">
        <ele>1325.6</ele>
        <time>2015-09-18T07:26:38Z</time>
      </trkpt>
      <trkpt lat="44.83072" lon="3.4952">
        <ele>1325.4</ele>
        <time>2015-09-18T07:26:40Z</time>
      </trkpt>
      <trkpt lat="44.83077" lon="3.49507">
        <ele>1325.1</ele>
        <time>2015-09-18T07:26:42Z</time>
      </trkpt>
      <trkpt lat="44.8308" lon="3.49492">
        <ele>1324.8</ele>
        <time>2015-09-18T07:26:44Z</time>
      </trkpt>
      <trkpt lat="44.83082" lon="3.49477">
        <ele>1324.6</ele>
        <time>2015-09-18T07:26:46Z</time>
      </trkpt>
      <trkpt lat="44.83084" lon="3.49462">
        <ele>1324.3</ele>
        <time>2015-09-18T07:26:48Z</time>
      </trkpt>
      <trkpt lat="44.83085" lon="3.49448">
        <ele>1324</ele>
        <time>2015-09-18T07:26:50Z</time>
      </trkpt>
      <trkpt lat="44.83086" lon="3.49433">
        <ele>1323.7</ele>
        <time>2015-09-18T07:26:52Z</time>
      </trkpt>
      <trkpt lat="44.83086" lon="3.49417">
        <ele>1323.3</ele>
        <time>2015-09-18T07:26:54Z</time>
      </trkpt>
      <trkpt lat="44.83085" lon="3.49401">
        <ele>1322.8</ele>
        <time>2015-09-18T07:26:56Z</time>
      </trkpt>
      <trkpt lat="44.8308" lon="3.49384">
        <ele>1322.4</ele>
        <time>2015-09-18T07:26:58Z</time>
      </trkpt>
      <trkpt lat="44.83074" lon="3.49368">
        <ele>1321.8</ele>
        <time>2015-09-18T07:27:00Z</time>
      </trkpt>
      <trkpt lat="44.83067" lon="3.49353">
        <ele>1321.3</ele>
        <time>2015-09-18T07:27:02Z</time>
      </trkpt>
      <trkpt lat="44.83059" lon="3.49338">
        <ele>1320.7</ele>
        <time>2015-09-18T07:27:04Z</time>
      </trkpt>
      <trkpt lat="44.83052" lon="3.49323">
        <ele>1320.2</ele>
        <time>2015-09-18T07:27:06Z</time>
      </trkpt>
      <trkpt lat="44.83045" lon="3.49307">
        <ele>1319.5</ele>
        <time>2015-09-18T07:27:08Z</time>
      </trkpt>
      <trkpt lat="44.83038" lon="3.4929">
        <ele>1318.9</ele>
        <time>2015-09-18T07:27:10Z</time>
      </trkpt>
      <trkpt lat="44.83033" lon="3.49272">
        <ele>1318.2</ele>
        <time>2015-09-18T07:27:12Z</time>
      </trkpt>
      <trkpt lat="44.83026" lon="3.49254">
        <ele>1317.6</ele>
        <time>2015-09-18T07:27:14Z</time>
      </trkpt>
      <trkpt lat="44.83019" lon="3.49235">
        <ele>1316.8</ele>
        <time>2015-09-18T07:27:16Z</time>
      </trkpt>
      <trkpt lat="44.8301" lon="3.49215">
        <ele>1316</ele>
        <time>2015-09-18T07:27:18Z</time>
      </trkpt>
      <trkpt lat="44.83" lon="3.49194">
        <ele>1314.9</ele>
        <time>2015-09-18T07:27:20Z</time>
      </trkpt>
      <trkpt lat="44.82994" lon="3.49184">
        <ele>1314.3</ele>
        <time>2015-09-18T07:27:21Z</time>
      </trkpt>
      <trkpt lat="44.82988" lon="3.49175">
        <ele>1313.8</ele>
        <time>2015-09-18T07:27:22Z</time>
      </trkpt>
      <trkpt lat="44.82981" lon="3.49166">
        <ele>1313.2</ele>
        <time>2015-09-18T07:27:23Z</time>
      </trkpt>
      <trkpt lat="44.82974" lon="3.49156">
        <ele>1312.5</ele>
        <time>2015-09-18T07:27:24Z</time>
      </trkpt>
      <trkpt lat="44.82967" lon="3.49147">
        <ele>1311.8</ele>
        <time>2015-09-18T07:27:25Z</time>
      </trkpt>
      <trkpt lat="44.82958" lon="3.49139">
        <ele>1311.1</ele>
        <time>2015-09-18T07:27:26Z</time>
      </trkpt>
      <trkpt lat="44.82949" lon="3.49133">
        <ele>1310.4</ele>
        <time>2015-09-18T07:27:27Z</time>
      </trkpt>
      <trkpt lat="44.8294" lon="3.49127">
        <ele>1309.7</ele>
        <time>2015-09-18T07:27:28Z</time>
      </trkpt>
      <trkpt lat="44.82931" lon="3.49121">
        <ele>1309</ele>
        <time>2015-09-18T07:27:29Z</time>
      </trkpt>
      <trkpt lat="44.82922" lon="3.49117">
        <ele>1308.3</ele>
        <time>2015-09-18T07:27:30Z</time>
      </trkpt>
      <trkpt lat="44.82912" lon="3.49113">
        <ele>1307.6</ele>
        <time>2015-09-18T07:27:31Z</time>
      </trkpt>
      <trkpt lat="44.82903" lon="3.49109">
        <ele>1306.9</ele>
        <time>2015-09-18T07:27:32Z</time>
      </trkpt>
      <trkpt lat="44.82894" lon="3.49106">
        <ele>1306.2</ele>
        <time>2015-09-18T07:27:33Z</time>
      </trkpt>
      <trkpt lat="44.82884" lon="3.49102">
        <ele>1305.5</ele>
        <time>2015-09-18T07:27:34Z</time>
      </trkpt>
      <trkpt lat="44.82875" lon="3.49099">
        <ele>1304.9</ele>
        <time>2015-09-18T07:27:35Z</time>
      </trkpt>
      <trkpt lat="44.82859" lon="3.49092">
        <ele>1303.7</ele>
        <time>2015-09-18T07:27:37Z</time>
      </trkpt>
      <trkpt lat="44.82844" lon="3.49086">
        <ele>1302.7</ele>
        <time>2015-09-18T07:27:39Z</time>
      </trkpt>
      <trkpt lat="44.82831" lon="3.4908">
        <ele>1301.8</ele>
        <time>2015-09-18T07:27:41Z</time>
      </trkpt>
      <trkpt lat="44.8282" lon="3.49073">
        <ele>1301</ele>
        <time>2015-09-18T07:27:43Z</time>
      </trkpt>
      <trkpt lat="44.8281" lon="3.49068">
        <ele>1300.4</ele>
        <time>2015-09-18T07:27:45Z</time>
      </trkpt>
      <trkpt lat="44.828" lon="3.49063">
        <ele>1300</ele>
        <time>2015-09-18T07:27:47Z</time>
      </trkpt>
      <trkpt lat="44.8279" lon="3.49062">
        <ele>1299.8</ele>
        <time>2015-09-18T07:27:49Z</time>
      </trkpt>
      <trkpt lat="44.82778" lon="3.49069">
        <ele>1299.7</ele>
        <time>2015-09-18T07:27:52Z</time>
      </trkpt>
      <trkpt lat="44.82769" lon="3.49076">
        <ele>1299.7</ele>
        <time>2015-09-18T07:27:55Z</time>
      </trkpt>
      <trkpt lat="44.82761" lon="3.49084">
        <ele>1300</ele>
        <time>2015-09-18T07:27:58Z</time>
      </trkpt>
      <trkpt lat="44.82752" lon="3.4909">
        <ele>1300.7</ele>
        <time>2015-09-18T07:28:03Z</time>
      </trkpt>
      <trkpt lat="44.82745" lon="3.49097">
        <ele>1301.3</ele>
        <time>2015-09-18T07:28:07Z</time>
      </trkpt>
      <trkpt lat="44.82737" lon="3.49107">
        <ele>1302.2</ele>
        <time>2015-09-18T07:28:13Z</time>
      </trkpt>
      <trkpt lat="44.82728" lon="3.49115">
        <ele>1303</ele>
        <time>2015-09-18T07:28:19Z</time>
      </trkpt>
      <trkpt lat="44.82718" lon="3.49121">
        <ele>1303.7</ele>
        <time>2015-09-18T07:28:24Z</time>
      </trkpt>
      <trkpt lat="44.82708" lon="3.49123">
        <ele>1304.2</ele>
        <time>2015-09-18T07:28:29Z</time>
      </trkpt>
      <trkpt lat="44.82698" lon="3.49121">
        <ele>1304.5</ele>
        <time>2015-09-18T07:28:33Z</time>
      </trkpt>
      <trkpt lat="44.82687" lon="3.49118">
        <ele>1304.7</ele>
        <time>2015-09-18T07:28:37Z</time>
      </trkpt>
      <trkpt lat="44.82678" lon="3.49116">
        <ele>1304.9</ele>
        <time>2015-09-18T07:28:40Z</time>
      </trkpt>
      <trkpt lat="44.82665" lon="3.49111">
        <ele>1305</ele>
        <time>2015-09-18T07:28:43Z</time>
      </trkpt>
      <trkpt lat="44.82655" lon="3.49108">
        <ele>1305.1</ele>
        <time>2015-09-18T07:28:45Z</time>
      </trkpt>
      <trkpt lat="44.82646" lon="3.49104">
        <ele>1305</ele>
        <time>2015-09-18T07:28:47Z</time>
      </trkpt>
      <trkpt lat="44.82636" lon="3.49102">
        <ele>1304.9</ele>
        <time>2015-09-18T07:28:49Z</time>
      </trkpt>
      <trkpt lat="44.82626" lon="3.49098">
        <ele>1304.8</ele>
        <time>2015-09-18T07:28:51Z</time>
      </trkpt>
      <trkpt lat="44.82616" lon="3.49093">
        <ele>1304.7</ele>
        <time>2015-09-18T07:28:53Z</time>
      </trkpt>
      <trkpt lat="44.82606" lon="3.49088">
        <ele>1304.5</ele>
        <time>2015-09-18T07:28:55Z</time>
      </trkpt>
      <trkpt lat="44.82596" lon="3.49083">
        <ele>1304.3</ele>
        <time>2015-09-18T07:28:57Z</time>
      </trkpt>
      <trkpt lat="44.82587" lon="3.49076">
        <ele>1304.1</ele>
        <time>2015-09-18T07:28:59Z</time>
      </trkpt>
      <trkpt lat="44.82579" lon="3.4907">
        <ele>1303.9</ele>
        <time>2015-09-18T07:29:01Z</time>
      </trkpt>
      <trkpt lat="44.8257" lon="3.49064">
        <ele>1303.6</ele>
        <time>2015-09-18T07:29:03Z</time>
      </trkpt>
      <trkpt lat="44.82561" lon="3.4906">
        <ele>1303.4</ele>
        <time>2015-09-18T07:29:05Z</time>
      </trkpt>
      <trkpt lat="44.82552" lon="3.49057">
        <ele>1303.2</ele>
        <time>2015-09-18T07:29:07Z</time>
      </trkpt>
      <trkpt lat="44.82543" lon="3.49053">
        <ele>1302.9</ele>
        <time>2015-09-18T07:29:09Z</time>
      </trkpt>
      <trkpt lat="44.82535" lon="3.49048">
        <ele>1302.7</ele>
        <time>2015-09-18T07:29:11Z</time>
      </trkpt>
      <trkpt lat="44.82526" lon="3.49042">
        <ele>1302.4</ele>
        <time>2015-09-18T07:29:13Z</time>
      </trkpt>
      <trkpt lat="44.82518" lon="3.49038">
        <ele>1302.2</ele>
        <time>2015-09-18T07:29:15Z</time>
      </trkpt>
      <trkpt lat="44.82506" lon="3.49031">
        <ele>1301.9</ele>
        <time>2015-09-18T07:29:18Z</time>
      </trkpt>
      <trkpt lat="44.82496" lon="3.49024">
        <ele>1301.7</ele>
        <time>2015-09-18T07:29:21Z</time>
      </trkpt>
      <trkpt lat="44.82486" lon="3.49014">
        <ele>1301.4</ele>
        <time>2015-09-18T07:29:24Z</time>
      </trkpt>
      <trkpt lat="44.8248" lon="3.49002">
        <ele>1301.2</ele>
        <time>2015-09-18T07:29:27Z</time>
      </trkpt>
      <trkpt lat="44.82475" lon="3.48987">
        <ele>1301.1</ele>
        <time>2015-09-18T07:29:30Z</time>
      </trkpt>
      <trkpt lat="44.82469" lon="3.48971">
        <ele>1300.9</ele>
        <time>2015-09-18T07:29:33Z</time>
      </trkpt>
      <trkpt lat="44.82464" lon="3.48955">
        <ele>1300.6</ele>
        <time>2015-09-18T07:29:36Z</time>
      </trkpt>
      <trkpt lat="44.82461" lon="3.48941">
        <ele>1300.3</ele>
        <time>2015-09-18T07:29:40Z</time>
      </trkpt>
      <trkpt lat="44.82457" lon="3.48927">
        <ele>1300.3</ele>
        <time>2015-09-18T07:29:44Z</time>
      </trkpt>
      <trkpt lat="44.82455" lon="3.48911">
        <ele>1300.3</ele>
        <time>2015-09-18T07:29:48Z</time>
      </trkpt>
      <trkpt lat="44.82455" lon="3.48895">
        <ele>1300.4</ele>
        <time>2015-09-18T07:29:52Z</time>
      </trkpt>
      <trkpt lat="44.82455" lon="3.48882">
        <ele>1300.5</ele>
        <time>2015-09-18T07:29:55Z</time>
      </trkpt>
      <trkpt lat="44.82454" lon="3.48866">
        <ele>1300.7</ele>
        <time>2015-09-18T07:29:59Z</time>
      </trkpt>
      <trkpt lat="44.82454" lon="3.48851">
        <ele>1300.8</ele>
        <time>2015-09-18T07:30:03Z</time>
      </trkpt>
      <trkpt lat="44.82453" lon="3.48835">
        <ele>1300.8</ele>
        <time>2015-09-18T07:30:07Z</time>
      </trkpt>
      <trkpt lat="44.82452" lon="3.4882">
        <ele>1300.9</ele>
        <time>2015-09-18T07:30:11Z</time>
      </trkpt>
      <trkpt lat="44.82452" lon="3.48803">
        <ele>1300.9</ele>
        <time>2015-09-18T07:30:15Z</time>
      </trkpt>
      <trkpt lat="44.82451" lon="3.48787">
        <ele>1301</ele>
        <time>2015-09-18T07:30:19Z</time>
      </trkpt>
      <trkpt lat="44.82451" lon="3.48774">
        <ele>1300.9</ele>
        <time>2015-09-18T07:30:23Z</time>
      </trkpt>
      <trkpt lat="44.82448" lon="3.4876">
        <ele>1300.9</ele>
        <time>2015-09-18T07:30:27Z</time>
      </trkpt>
      <trkpt lat="44.82438" lon="3.48751">
        <ele>1300.7</ele>
        <time>2015-09-18T07:30:30Z</time>
      </trkpt>
      <trkpt lat="44.82428" lon="3.48749">
        <ele>1300.4</ele>
        <time>2015-09-18T07:30:32Z</time>
      </trkpt>
      <trkpt lat="44.82418" lon="3.48751">
        <ele>1300.2</ele>
        <time>2015-09-18T07:30:34Z</time>
      </trkpt>
      <trkpt lat="44.82408" lon="3.48753">
        <ele>1300</ele>
        <time>2015-09-18T07:30:36Z</time>
      </trkpt>
      <trkpt lat="44.82398" lon="3.48755">
        <ele>1299.7</ele>
        <time>2015-09-18T07:30:38Z</time>
      </trkpt>
      <trkpt lat="44.82386" lon="3.48757">
        <ele>1299.3</ele>
        <time>2015-09-18T07:30:40Z</time>
      </trkpt>
      <trkpt lat="44.82373" lon="3.48759">
        <ele>1298.9</ele>
        <time>2015-09-18T07:30:42Z</time>
      </trkpt>
      <trkpt lat="44.82359" lon="3.4876">
        <ele>1298.4</ele>
        <time>2015-09-18T07:30:44Z</time>
      </trkpt>
      <trkpt lat="44.82346" lon="3.48759">
        <ele>1297.9</ele>
        <time>2015-09-18T07:30:46Z</time>
      </trkpt>
      <trkpt lat="44.82334" lon="3.48755">
        <ele>1297.5</ele>
        <time>2015-09-18T07:30:48Z</time>
      </trkpt>
      <trkpt lat="44.82324" lon="3.48748">
        <ele>1297.1</ele>
        <time>2015-09-18T07:30:50Z</time>
      </trkpt>
      <trkpt lat="44.82318" lon="3.48734">
        <ele>1296.5</ele>
        <time>2015-09-18T07:30:53Z</time>
      </trkpt>
      <trkpt lat="44.82318" lon="3.4872">
        <ele>1296.1</ele>
        <time>2015-09-18T07:30:57Z</time>
      </trkpt>
      <trkpt lat="44.82322" lon="3.48707">
        <ele>1295.8</ele>
        <time>2015-09-18T07:31:01Z</time>
      </trkpt>
      <trkpt lat="44.82322" lon="3.48691">
        <ele>1295.7</ele>
        <time>2015-09-18T07:31:07Z</time>
      </trkpt>
      <trkpt lat="44.82319" lon="3.48671">
        <ele>1295.8</ele>
        <time>2015-09-18T07:31:13Z</time>
      </trkpt>
      <trkpt lat="44.82322" lon="3.48657">
        <ele>1296.1</ele>
        <time>2015-09-18T07:31:18Z</time>
      </trkpt>
      <trkpt lat="44.82329" lon="3.48649">
        <ele>1296.3</ele>
        <time>2015-09-18T07:31:21Z</time>
      </trkpt>
      <trkpt lat="44.82328" lon="3.48635">
        <ele>1296.5</ele>
        <time>2015-09-18T07:31:24Z</time>
      </trkpt>
      <trkpt lat="44.82328" lon="3.48619">
        <ele>1296.7</ele>
        <time>2015-09-18T07:31:28Z</time>
      </trkpt>
      <trkpt lat="44.8233" lon="3.48605">
        <ele>1297</ele>
        <time>2015-09-18T07:31:32Z</time>
      </trkpt>
      <trkpt lat="44.82335" lon="3.48591">
        <ele>1297.3</ele>
        <time>2015-09-18T07:31:36Z</time>
      </trkpt>
      <trkpt lat="44.82333" lon="3.48572">
        <ele>1297</ele>
        <time>2015-09-18T07:31:41Z</time>
      </trkpt>
      <trkpt lat="44.82336" lon="3.48558">
        <ele>1298.2</ele>
        <time>2015-09-18T07:31:45Z</time>
      </trkpt>
      <trkpt lat="44.82341" lon="3.48538">
        <ele>1298.6</ele>
        <time>2015-09-18T07:31:50Z</time>
      </trkpt>
      <trkpt lat="44.82345" lon="3.48523">
        <ele>1298</ele>
        <time>2015-09-18T07:31:54Z</time>
      </trkpt>
      <trkpt lat="44.82344" lon="3.48507">
        <ele>1299.5</ele>
        <time>2015-09-18T07:31:58Z</time>
      </trkpt>
      <trkpt lat="44.82343" lon="3.48487">
        <ele>1300</ele>
        <time>2015-09-18T07:32:03Z</time>
      </trkpt>
      <trkpt lat="44.82343" lon="3.4847">
        <ele>1300.5</ele>
        <time>2015-09-18T07:32:07Z</time>
      </trkpt>
      <trkpt lat="44.82344" lon="3.48454">
        <ele>1300.9</ele>
        <time>2015-09-18T07:32:11Z</time>
      </trkpt>
      <trkpt lat="44.82344" lon="3.4843">
        <ele>1301.5</ele>
        <time>2015-09-18T07:32:17Z</time>
      </trkpt>
      <trkpt lat="44.8234" lon="3.48418">
        <ele>1301.7</ele>
        <time>2015-09-18T07:32:21Z</time>
      </trkpt>
      <trkpt lat="44.82338" lon="3.48402">
        <ele>1302.2</ele>
        <time>2015-09-18T07:32:27Z</time>
      </trkpt>
      <trkpt lat="44.82334" lon="3.48389">
        <ele>1302.5</ele>
        <time>2015-09-18T07:32:31Z</time>
      </trkpt>
      <trkpt lat="44.82329" lon="3.48376">
        <ele>1302.9</ele>
        <time>2015-09-18T07:32:35Z</time>
      </trkpt>
      <trkpt lat="44.82326" lon="3.48363">
        <ele>1303.3</ele>
        <time>2015-09-18T07:32:39Z</time>
      </trkpt>
      <trkpt lat="44.82324" lon="3.48349">
        <ele>1303.7</ele>
        <time>2015-09-18T07:32:44Z</time>
      </trkpt>
      <trkpt lat="44.82321" lon="3.48335">
        <ele>1304</ele>
        <time>2015-09-18T07:32:47Z</time>
      </trkpt>
      <trkpt lat="44.82315" lon="3.48322">
        <ele>1304.2</ele>
        <time>2015-09-18T07:32:50Z</time>
      </trkpt>
      <trkpt lat="44.82307" lon="3.48315">
        <ele>1304.3</ele>
        <time>2015-09-18T07:32:52Z</time>
      </trkpt>
      <trkpt lat="44.82299" lon="3.48305">
        <ele>1304.4</ele>
        <time>2015-09-18T07:32:56Z</time>
      </trkpt>
      <trkpt lat="44.82292" lon="3.48294">
        <ele>1304.5</ele>
        <time>2015-09-18T07:32:59Z</time>
      </trkpt>
      <trkpt lat="44.82283" lon="3.48284">
        <ele>1304.6</ele>
        <time>2015-09-18T07:33:02Z</time>
      </trkpt>
      <trkpt lat="44.82274" lon="3.48272">
        <ele>1304.7</ele>
        <time>2015-09-18T07:33:05Z</time>
      </trkpt>
      <trkpt lat="44.82266" lon="3.48263">
        <ele>1304.7</ele>
        <time>2015-09-18T07:33:08Z</time>
      </trkpt>
      <trkpt lat="44.82257" lon="3.48252">
        <ele>1304.8</ele>
        <time>2015-09-18T07:33:11Z</time>
      </trkpt>
      <trkpt lat="44.82248" lon="3.48242">
        <ele>1304.8</ele>
        <time>2015-09-18T07:33:14Z</time>
      </trkpt>
      <trkpt lat="44.82239" lon="3.48232">
        <ele>1304.9</ele>
        <time>2015-09-18T07:33:17Z</time>
      </trkpt>
      <trkpt lat="44.8223" lon="3.48223">
        <ele>1304.9</ele>
        <time>2015-09-18T07:33:20Z</time>
      </trkpt>
      <trkpt lat="44.82221" lon="3.48213">
        <ele>1304.9</ele>
        <time>2015-09-18T07:33:23Z</time>
      </trkpt>
      <trkpt lat="44.82211" lon="3.48201">
        <ele>1304.8</ele>
        <time>2015-09-18T07:33:26Z</time>
      </trkpt>
      <trkpt lat="44.82205" lon="3.48186">
        <ele>1304.6</ele>
        <time>2015-09-18T07:33:29Z</time>
      </trkpt>
      <trkpt lat="44.82202" lon="3.48169">
        <ele>1304.5</ele>
        <time>2015-09-18T07:33:32Z</time>
      </trkpt>
      <trkpt lat="44.822" lon="3.48152">
        <ele>1304.3</ele>
        <time>2015-09-18T07:33:35Z</time>
      </trkpt>
      <trkpt lat="44.82198" lon="3.48135">
        <ele>1304.1</ele>
        <time>2015-09-18T07:33:38Z</time>
      </trkpt>
      <trkpt lat="44.82196" lon="3.48118">
        <ele>1303.9</ele>
        <time>2015-09-18T07:33:41Z</time>
      </trkpt>
      <trkpt lat="44.82197" lon="3.48101">
        <ele>1303.8</ele>
        <time>2015-09-18T07:33:44Z</time>
      </trkpt>
      <trkpt lat="44.822" lon="3.48088">
        <ele>1303.7</ele>
        <time>2015-09-18T07:33:48Z</time>
      </trkpt>
      <trkpt lat="44.82206" lon="3.48077">
        <ele>1303.5</ele>
        <time>2015-09-18T07:33:56Z</time>
      </trkpt>
      <trkpt lat="44.82211" lon="3.48064">
        <ele>1303.4</ele>
        <time>2015-09-18T07:34:02Z</time>
      </trkpt>
      <trkpt lat="44.82215" lon="3.48049">
        <ele>1303.4</ele>
        <time>2015-09-18T07:34:07Z</time>
      </trkpt>
      <trkpt lat="44.82218" lon="3.48035">
        <ele>1303.6</ele>
        <time>2015-09-18T07:34:11Z</time>
      </trkpt>
      <trkpt lat="44.82222" lon="3.48021">
        <ele>1303.7</ele>
        <time>2015-09-18T07:34:15Z</time>
      </trkpt>
      <trkpt lat="44.82225" lon="3.48005">
        <ele>1303.9</ele>
        <time>2015-09-18T07:34:19Z</time>
      </trkpt>
      <trkpt lat="44.82225" lon="3.4799">
        <ele>1304</ele>
        <time>2015-09-18T07:34:23Z</time>
      </trkpt>
      <trkpt lat="44.82229" lon="3.47975">
        <ele>1304.2</ele>
        <time>2015-09-18T07:34:27Z</time>
      </trkpt>
      <trkpt lat="44.8223" lon="3.47961">
        <ele>1304.3</ele>
        <time>2015-09-18T07:34:30Z</time>
      </trkpt>
      <trkpt lat="44.82232" lon="3.47947">
        <ele>1304.3</ele>
        <time>2015-09-18T07:34:33Z</time>
      </trkpt>
      <trkpt lat="44.82236" lon="3.47936">
        <ele>1304.4</ele>
        <time>2015-09-18T07:34:36Z</time>
      </trkpt>
      <trkpt lat="44.82235" lon="3.47922">
        <ele>1304.5</ele>
        <time>2015-09-18T07:34:39Z</time>
      </trkpt>
      <trkpt lat="44.82231" lon="3.47906">
        <ele>1304.5</ele>
        <time>2015-09-18T07:34:42Z</time>
      </trkpt>
      <trkpt lat="44.82227" lon="3.47893">
        <ele>1304.5</ele>
        <time>2015-09-18T07:34:45Z</time>
      </trkpt>
      <trkpt lat="44.82225" lon="3.47878">
        <ele>1304.6</ele>
        <time>2015-09-18T07:34:48Z</time>
      </trkpt>
      <trkpt lat="44.82227" lon="3.47863">
        <ele>1304.6</ele>
        <time>2015-09-18T07:34:51Z</time>
      </trkpt>
      <trkpt lat="44.82228" lon="3.47847">
        <ele>1304.6</ele>
        <time>2015-09-18T07:34:54Z</time>
      </trkpt>
      <trkpt lat="44.8223" lon="3.47832">
        <ele>1304.6</ele>
        <time>2015-09-18T07:34:57Z</time>
      </trkpt>
      <trkpt lat="44.82234" lon="3.47817">
        <ele>1304.7</ele>
        <time>2015-09-18T07:35:00Z</time>
      </trkpt>
      <trkpt lat="44.8224" lon="3.47805">
        <ele>1304.7</ele>
        <time>2015-09-18T07:35:03Z</time>
      </trkpt>
      <trkpt lat="44.82248" lon="3.47796">
        <ele>1304.7</ele>
        <time>2015-09-18T07:35:06Z</time>
      </trkpt>
      <trkpt lat="44.82257" lon="3.4779">
        <ele>1304.8</ele>
        <time>2015-09-18T07:35:09Z</time>
      </trkpt>
      <trkpt lat="44.82266" lon="3.47786">
        <ele>1305.2</ele>
        <time>2015-09-18T07:35:12Z</time>
      </trkpt>
      <trkpt lat="44.82276" lon="3.47781">
        <ele>1305.6</ele>
        <time>2015-09-18T07:35:15Z</time>
      </trkpt>
      <trkpt lat="44.82285" lon="3.47771">
        <ele>1306</ele>
        <time>2015-09-18T07:35:19Z</time>
      </trkpt>
      <trkpt lat="44.82291" lon="3.47759">
        <ele>1306.2</ele>
        <time>2015-09-18T07:35:22Z</time>
      </trkpt>
      <trkpt lat="44.82297" lon="3.47745">
        <ele>1306.5</ele>
        <time>2015-09-18T07:35:25Z</time>
      </trkpt>
      <trkpt lat="44.82304" lon="3.4773">
        <ele>1306.7</ele>
        <time>2015-09-18T07:35:28Z</time>
      </trkpt>
      <trkpt lat="44.82311" lon="3.47715">
        <ele>1306.8</ele>
        <time>2015-09-18T07:35:31Z</time>
      </trkpt>
      <trkpt lat="44.82318" lon="3.47701">
        <ele>1306.9</ele>
        <time>2015-09-18T07:35:34Z</time>
      </trkpt>
      <trkpt lat="44.82324" lon="3.47689">
        <ele>1307.1</ele>
        <time>2015-09-18T07:35:37Z</time>
      </trkpt>
      <trkpt lat="44.82327" lon="3.47674">
        <ele>1307.4</ele>
        <time>2015-09-18T07:35:41Z</time>
      </trkpt>
      <trkpt lat="44.82331" lon="3.47664">
        <ele>1307.8</ele>
        <time>2015-09-18T07:35:44Z</time>
      </trkpt>
      <trkpt lat="44.82335" lon="3.47652">
        <ele>1308.1</ele>
        <time>2015-09-18T07:35:47Z</time>
      </trkpt>
      <trkpt lat="44.82336" lon="3.47639">
        <ele>1308.3</ele>
        <time>2015-09-18T07:35:50Z</time>
      </trkpt>
      <trkpt lat="44.82337" lon="3.47626">
        <ele>1308.5</ele>
        <time>2015-09-18T07:35:53Z</time>
      </trkpt>
      <trkpt lat="44.82337" lon="3.47612">
        <ele>1308.7</ele>
        <time>2015-09-18T07:35:56Z</time>
      </trkpt>
      <trkpt lat="44.82337" lon="3.47597">
        <ele>1309</ele>
        <time>2015-09-18T07:36:00Z</time>
      </trkpt>
      <trkpt lat="44.82335" lon="3.47584">
        <ele>1309.1</ele>
        <time>2015-09-18T07:36:03Z</time>
      </trkpt>
      <trkpt lat="44.82334" lon="3.47569">
        <ele>1309.4</ele>
        <time>2015-09-18T07:36:07Z</time>
      </trkpt>
      <trkpt lat="44.82331" lon="3.47554">
        <ele>1309.5</ele>
        <time>2015-09-18T07:36:10Z</time>
      </trkpt>
      <trkpt lat="44.82329" lon="3.47537">
        <ele>1309.6</ele>
        <time>2015-09-18T07:36:13Z</time>
      </trkpt>
      <trkpt lat="44.8233" lon="3.4752">
        <ele>1309.7</ele>
        <time>2015-09-18T07:36:16Z</time>
      </trkpt>
      <trkpt lat="44.82333" lon="3.47505">
        <ele>1309.8</ele>
        <time>2015-09-18T07:36:19Z</time>
      </trkpt>
      <trkpt lat="44.82338" lon="3.4749">
        <ele>1309.8</ele>
        <time>2015-09-18T07:36:22Z</time>
      </trkpt>
      <trkpt lat="44.82345" lon="3.47476">
        <ele>1309.8</ele>
        <time>2015-09-18T07:36:25Z</time>
      </trkpt>
      <trkpt lat="44.82351" lon="3.47465">
        <ele>1309.8</ele>
        <time>2015-09-18T07:36:28Z</time>
      </trkpt>
      <trkpt lat="44.82358" lon="3.47455">
        <ele>1309.8</ele>
        <time>2015-09-18T07:36:31Z</time>
      </trkpt>
      <trkpt lat="44.82366" lon="3.47445">
        <ele>1309.8</ele>
        <time>2015-09-18T07:36:34Z</time>
      </trkpt>
      <trkpt lat="44.82374" lon="3.47437">
        <ele>1309.9</ele>
        <time>2015-09-18T07:36:36Z</time>
      </trkpt>
      <trkpt lat="44.82382" lon="3.47426">
        <ele>1310</ele>
        <time>2015-09-18T07:36:39Z</time>
      </trkpt>
      <trkpt lat="44.82389" lon="3.47414">
        <ele>1310</ele>
        <time>2015-09-18T07:36:42Z</time>
      </trkpt>
      <trkpt lat="44.82396" lon="3.47401">
        <ele>1310.1</ele>
        <time>2015-09-18T07:36:45Z</time>
      </trkpt>
      <trkpt lat="44.82401" lon="3.47388">
        <ele>1310.1</ele>
        <time>2015-09-18T07:36:48Z</time>
      </trkpt>
      <trkpt lat="44.82406" lon="3.47376">
        <ele>1310.2</ele>
        <time>2015-09-18T07:36:51Z</time>
      </trkpt>
      <trkpt lat="44.8241" lon="3.47364">
        <ele>1310.2</ele>
        <time>2015-09-18T07:36:54Z</time>
      </trkpt>
      <trkpt lat="44.82413" lon="3.47352">
        <ele>1310.4</ele>
        <time>2015-09-18T07:36:57Z</time>
      </trkpt>
      <trkpt lat="44.82417" lon="3.4734">
        <ele>1310.5</ele>
        <time>2015-09-18T07:37:00Z</time>
      </trkpt>
      <trkpt lat="44.82422" lon="3.4733">
        <ele>1310.7</ele>
        <time>2015-09-18T07:37:03Z</time>
      </trkpt>
      <trkpt lat="44.82428" lon="3.47314">
        <ele>1310.8</ele>
        <time>2015-09-18T07:37:07Z</time>
      </trkpt>
      <trkpt lat="44.82432" lon="3.473">
        <ele>1311.1</ele>
        <time>2015-09-18T07:37:11Z</time>
      </trkpt>
      <trkpt lat="44.82435" lon="3.47286">
        <ele>1311.5</ele>
        <time>2015-09-18T07:37:17Z</time>
      </trkpt>
      <trkpt lat="44.82439" lon="3.47273">
        <ele>1311.9</ele>
        <time>2015-09-18T07:37:22Z</time>
      </trkpt>
      <trkpt lat="44.8244" lon="3.47261">
        <ele>1312.2</ele>
        <time>2015-09-18T07:37:26Z</time>
      </trkpt>
      <trkpt lat="44.82444" lon="3.47247">
        <ele>1312.9</ele>
        <time>2015-09-18T07:37:32Z</time>
      </trkpt>
      <trkpt lat="44.82449" lon="3.47236">
        <ele>1313.8</ele>
        <time>2015-09-18T07:37:38Z</time>
      </trkpt>
      <trkpt lat="44.82454" lon="3.47223">
        <ele>1314.8</ele>
        <time>2015-09-18T07:37:45Z</time>
      </trkpt>
      <trkpt lat="44.8246" lon="3.47213">
        <ele>1315.6</ele>
        <time>2015-09-18T07:37:51Z</time>
      </trkpt>
      <trkpt lat="44.82469" lon="3.47207">
        <ele>1316.4</ele>
        <time>2015-09-18T07:37:59Z</time>
      </trkpt>
      <trkpt lat="44.82476" lon="3.47197">
        <ele>1317.4</ele>
        <time>2015-09-18T07:38:08Z</time>
      </trkpt>
      <trkpt lat="44.82486" lon="3.47193">
        <ele>1317.9</ele>
        <time>2015-09-18T07:38:13Z</time>
      </trkpt>
      <trkpt lat="44.82494" lon="3.47184">
        <ele>1319</ele>
        <time>2015-09-18T07:38:22Z</time>
      </trkpt>
      <trkpt lat="44.82502" lon="3.47176">
        <ele>1319.8</ele>
        <time>2015-09-18T07:38:29Z</time>
      </trkpt>
      <trkpt lat="44.82511" lon="3.4717">
        <ele>1320.6</ele>
        <time>2015-09-18T07:38:35Z</time>
      </trkpt>
      <trkpt lat="44.8252" lon="3.47165">
        <ele>1321.3</ele>
        <time>2015-09-18T07:38:40Z</time>
      </trkpt>
      <trkpt lat="44.82527" lon="3.47156">
        <ele>1322.2</ele>
        <time>2015-09-18T07:38:46Z</time>
      </trkpt>
      <trkpt lat="44.82535" lon="3.47146">
        <ele>1322.9</ele>
        <time>2015-09-18T07:38:52Z</time>
      </trkpt>
      <trkpt lat="44.82541" lon="3.47135">
        <ele>1323.6</ele>
        <time>2015-09-18T07:38:58Z</time>
      </trkpt>
      <trkpt lat="44.82543" lon="3.47121">
        <ele>1324.1</ele>
        <time>2015-09-18T07:39:04Z</time>
      </trkpt>
      <trkpt lat="44.82548" lon="3.4711">
        <ele>1324.5</ele>
        <time>2015-09-18T07:39:10Z</time>
      </trkpt>
      <trkpt lat="44.82553" lon="3.47097">
        <ele>1324.8</ele>
        <time>2015-09-18T07:39:15Z</time>
      </trkpt>
      <trkpt lat="44.82558" lon="3.47085">
        <ele>1325</ele>
        <time>2015-09-18T07:39:20Z</time>
      </trkpt>
      <trkpt lat="44.82562" lon="3.47072">
        <ele>1325.2</ele>
        <time>2015-09-18T07:39:25Z</time>
      </trkpt>
      <trkpt lat="44.82564" lon="3.47059">
        <ele>1325.3</ele>
        <time>2015-09-18T07:39:30Z</time>
      </trkpt>
      <trkpt lat="44.82572" lon="3.4705">
        <ele>1325.4</ele>
        <time>2015-09-18T07:39:37Z</time>
      </trkpt>
      <trkpt lat="44.82581" lon="3.47047">
        <ele>1325.6</ele>
        <time>2015-09-18T07:39:49Z</time>
      </trkpt>
      <trkpt lat="44.82588" lon="3.4704">
        <ele>1325.5</ele>
        <time>2015-09-18T07:40:36Z</time>
      </trkpt>
      <trkpt lat="44.82597" lon="3.47034">
        <ele>1325.3</ele>
        <time>2015-09-18T07:42:04Z</time>
      </trkpt>
      <trkpt lat="44.82597" lon="3.47021">
        <ele>1325</ele>
        <time>2015-09-18T07:42:36Z</time>
      </trkpt>
      <trkpt lat="44.82598" lon="3.47008">
        <ele>1324.9</ele>
        <time>2015-09-18T07:42:39Z</time>
      </trkpt>
      <trkpt lat="44.826" lon="3.46992">
        <ele>1324.7</ele>
        <time>2015-09-18T07:42:42Z</time>
      </trkpt>
      <trkpt lat="44.82608" lon="3.46973">
        <ele>1324.4</ele>
        <time>2015-09-18T07:42:45Z</time>
      </trkpt>
      <trkpt lat="44.82612" lon="3.46961">
        <ele>1324.2</ele>
        <time>2015-09-18T07:42:47Z</time>
      </trkpt>
      <trkpt lat="44.82616" lon="3.4695">
        <ele>1324.1</ele>
        <time>2015-09-18T07:42:49Z</time>
      </trkpt>
      <trkpt lat="44.8262" lon="3.46938">
        <ele>1323.8</ele>
        <time>2015-09-18T07:42:51Z</time>
      </trkpt>
      <trkpt lat="44.82623" lon="3.46925">
        <ele>1323.6</ele>
        <time>2015-09-18T07:42:53Z</time>
      </trkpt>
      <trkpt lat="44.82627" lon="3.46909">
        <ele>1323.3</ele>
        <time>2015-09-18T07:42:56Z</time>
      </trkpt>
      <trkpt lat="44.8263" lon="3.46892">
        <ele>1323.1</ele>
        <time>2015-09-18T07:42:59Z</time>
      </trkpt>
      <trkpt lat="44.82631" lon="3.46875">
        <ele>1322.8</ele>
        <time>2015-09-18T07:43:02Z</time>
      </trkpt>
      <trkpt lat="44.82636" lon="3.46859">
        <ele>1322.6</ele>
        <time>2015-09-18T07:43:05Z</time>
      </trkpt>
      <trkpt lat="44.82641" lon="3.46842">
        <ele>1322.3</ele>
        <time>2015-09-18T07:43:08Z</time>
      </trkpt>
      <trkpt lat="44.82643" lon="3.4683">
        <ele>1322.1</ele>
        <time>2015-09-18T07:43:10Z</time>
      </trkpt>
      <trkpt lat="44.82642" lon="3.46815">
        <ele>1321.9</ele>
        <time>2015-09-18T07:43:12Z</time>
      </trkpt>
      <trkpt lat="44.82641" lon="3.46801">
        <ele>1321.7</ele>
        <time>2015-09-18T07:43:14Z</time>
      </trkpt>
      <trkpt lat="44.82647" lon="3.46785">
        <ele>1321.5</ele>
        <time>2015-09-18T07:43:16Z</time>
      </trkpt>
      <trkpt lat="44.82647" lon="3.46771">
        <ele>1321.2</ele>
        <time>2015-09-18T07:43:18Z</time>
      </trkpt>
      <trkpt lat="44.82653" lon="3.46756">
        <ele>1320.9</ele>
        <time>2015-09-18T07:43:20Z</time>
      </trkpt>
      <trkpt lat="44.82653" lon="3.46742">
        <ele>1320.5</ele>
        <time>2015-09-18T07:43:22Z</time>
      </trkpt>
      <trkpt lat="44.82653" lon="3.46723">
        <ele>1320.1</ele>
        <time>2015-09-18T07:43:25Z</time>
      </trkpt>
      <trkpt lat="44.82662" lon="3.46709">
        <ele>1319.6</ele>
        <time>2015-09-18T07:43:28Z</time>
      </trkpt>
      <trkpt lat="44.82672" lon="3.46703">
        <ele>1319.1</ele>
        <time>2015-09-18T07:43:31Z</time>
      </trkpt>
      <trkpt lat="44.82681" lon="3.46699">
        <ele>1318.6</ele>
        <time>2015-09-18T07:43:35Z</time>
      </trkpt>
      <trkpt lat="44.82692" lon="3.46693">
        <ele>1318.2</ele>
        <time>2015-09-18T07:43:38Z</time>
      </trkpt>
      <trkpt lat="44.82703" lon="3.46687">
        <ele>1317.8</ele>
        <time>2015-09-18T07:43:41Z</time>
      </trkpt>
      <trkpt lat="44.82712" lon="3.46681">
        <ele>1317.5</ele>
        <time>2015-09-18T07:43:44Z</time>
      </trkpt>
      <trkpt lat="44.82721" lon="3.46677">
        <ele>1317.3</ele>
        <time>2015-09-18T07:43:46Z</time>
      </trkpt>
      <trkpt lat="44.82733" lon="3.46672">
        <ele>1317</ele>
        <time>2015-09-18T07:43:49Z</time>
      </trkpt>
      <trkpt lat="44.82743" lon="3.46666">
        <ele>1316.8</ele>
        <time>2015-09-18T07:43:52Z</time>
      </trkpt>
      <trkpt lat="44.82752" lon="3.46658">
        <ele>1316.6</ele>
        <time>2015-09-18T07:43:55Z</time>
      </trkpt>
      <trkpt lat="44.82761" lon="3.46652">
        <ele>1316.4</ele>
        <time>2015-09-18T07:43:58Z</time>
      </trkpt>
      <trkpt lat="44.82769" lon="3.46646">
        <ele>1316.1</ele>
        <time>2015-09-18T07:44:01Z</time>
      </trkpt>
      <trkpt lat="44.82781" lon="3.4664">
        <ele>1315.8</ele>
        <time>2015-09-18T07:44:04Z</time>
      </trkpt>
      <trkpt lat="44.82789" lon="3.46635">
        <ele>1315.6</ele>
        <time>2015-09-18T07:44:06Z</time>
      </trkpt>
      <trkpt lat="44.82798" lon="3.4663">
        <ele>1315.3</ele>
        <time>2015-09-18T07:44:08Z</time>
      </trkpt>
      <trkpt lat="44.82806" lon="3.46623">
        <ele>1315</ele>
        <time>2015-09-18T07:44:10Z</time>
      </trkpt>
      <trkpt lat="44.82815" lon="3.46617">
        <ele>1314.8</ele>
        <time>2015-09-18T07:44:12Z</time>
      </trkpt>
      <trkpt lat="44.82824" lon="3.4661">
        <ele>1314.5</ele>
        <time>2015-09-18T07:44:14Z</time>
      </trkpt>
      <trkpt lat="44.82835" lon="3.46605">
        <ele>1314.1</ele>
        <time>2015-09-18T07:44:16Z</time>
      </trkpt>
      <trkpt lat="44.82846" lon="3.46605">
        <ele>1313.8</ele>
        <time>2015-09-18T07:44:18Z</time>
      </trkpt>
      <trkpt lat="44.82857" lon="3.46608">
        <ele>1313.5</ele>
        <time>2015-09-18T07:44:20Z</time>
      </trkpt>
      <trkpt lat="44.82867" lon="3.46613">
        <ele>1313.2</ele>
        <time>2015-09-18T07:44:22Z</time>
      </trkpt>
      <trkpt lat="44.82876" lon="3.46619">
        <ele>1312.9</ele>
        <time>2015-09-18T07:44:24Z</time>
      </trkpt>
      <trkpt lat="44.82884" lon="3.46626">
        <ele>1312.6</ele>
        <time>2015-09-18T07:44:26Z</time>
      </trkpt>
      <trkpt lat="44.82893" lon="3.46632">
        <ele>1312.4</ele>
        <time>2015-09-18T07:44:28Z</time>
      </trkpt>
      <trkpt lat="44.82902" lon="3.46639">
        <ele>1312.1</ele>
        <time>2015-09-18T07:44:30Z</time>
      </trkpt>
      <trkpt lat="44.82911" lon="3.46647">
        <ele>1311.9</ele>
        <time>2015-09-18T07:44:32Z</time>
      </trkpt>
      <trkpt lat="44.8292" lon="3.46655">
        <ele>1311.7</ele>
        <time>2015-09-18T07:44:34Z</time>
      </trkpt>
      <trkpt lat="44.8293" lon="3.46663">
        <ele>1311.5</ele>
        <time>2015-09-18T07:44:36Z</time>
      </trkpt>
      <trkpt lat="44.82941" lon="3.46671">
        <ele>1311.3</ele>
        <time>2015-09-18T07:44:38Z</time>
      </trkpt>
      <trkpt lat="44.82952" lon="3.46679">
        <ele>1311.1</ele>
        <time>2015-09-18T07:44:40Z</time>
      </trkpt>
      <trkpt lat="44.82963" lon="3.46688">
        <ele>1311</ele>
        <time>2015-09-18T07:44:42Z</time>
      </trkpt>
      <trkpt lat="44.82974" lon="3.46696">
        <ele>1310.8</ele>
        <time>2015-09-18T07:44:44Z</time>
      </trkpt>
      <trkpt lat="44.82985" lon="3.46702">
        <ele>1310.6</ele>
        <time>2015-09-18T07:44:46Z</time>
      </trkpt>
      <trkpt lat="44.82995" lon="3.46707">
        <ele>1310.4</ele>
        <time>2015-09-18T07:44:48Z</time>
      </trkpt>
      <trkpt lat="44.83007" lon="3.46711">
        <ele>1310.2</ele>
        <time>2015-09-18T07:44:50Z</time>
      </trkpt>
      <trkpt lat="44.83018" lon="3.46712">
        <ele>1309.9</ele>
        <time>2015-09-18T07:44:52Z</time>
      </trkpt>
      <trkpt lat="44.83032" lon="3.46713">
        <ele>1309.6</ele>
        <time>2015-09-18T07:44:55Z</time>
      </trkpt>
      <trkpt lat="44.83044" lon="3.46709">
        <ele>1309.4</ele>
        <time>2015-09-18T07:44:57Z</time>
      </trkpt>
      <trkpt lat="44.83052" lon="3.46703">
        <ele>1309.2</ele>
        <time>2015-09-18T07:44:59Z</time>
      </trkpt>
      <trkpt lat="44.83063" lon="3.46694">
        <ele>1309.1</ele>
        <time>2015-09-18T07:45:01Z</time>
      </trkpt>
      <trkpt lat="44.83075" lon="3.46682">
        <ele>1309</ele>
        <time>2015-09-18T07:45:03Z</time>
      </trkpt>
      <trkpt lat="44.83088" lon="3.46669">
        <ele>1308.9</ele>
        <time>2015-09-18T07:45:05Z</time>
      </trkpt>
      <trkpt lat="44.83098" lon="3.46655">
        <ele>1308.7</ele>
        <time>2015-09-18T07:45:07Z</time>
      </trkpt>
      <trkpt lat="44.83104" lon="3.4664">
        <ele>1308.7</ele>
        <time>2015-09-18T07:45:09Z</time>
      </trkpt>
      <trkpt lat="44.8311" lon="3.46624">
        <ele>1308.6</ele>
        <time>2015-09-18T07:45:11Z</time>
      </trkpt>
      <trkpt lat="44.83114" lon="3.46609">
        <ele>1308.5</ele>
        <time>2015-09-18T07:45:13Z</time>
      </trkpt>
      <trkpt lat="44.83118" lon="3.46594">
        <ele>1308.5</ele>
        <time>2015-09-18T07:45:15Z</time>
      </trkpt>
      <trkpt lat="44.83122" lon="3.46579">
        <ele>1308.4</ele>
        <time>2015-09-18T07:45:17Z</time>
      </trkpt>
      <trkpt lat="44.83127" lon="3.46565">
        <ele>1308.4</ele>
        <time>2015-09-18T07:45:19Z</time>
      </trkpt>
      <trkpt lat="44.8313" lon="3.4655">
        <ele>1308.3</ele>
        <time>2015-09-18T07:45:21Z</time>
      </trkpt>
      <trkpt lat="44.83135" lon="3.46535">
        <ele>1308.3</ele>
        <time>2015-09-18T07:45:23Z</time>
      </trkpt>
      <trkpt lat="44.83137" lon="3.46521">
        <ele>1308.2</ele>
        <time>2015-09-18T07:45:25Z</time>
      </trkpt>
      <trkpt lat="44.83139" lon="3.46508">
        <ele>1308.2</ele>
        <time>2015-09-18T07:45:27Z</time>
      </trkpt>
      <trkpt lat="44.83142" lon="3.46496">
        <ele>1308.2</ele>
        <time>2015-09-18T07:45:29Z</time>
      </trkpt>
      <trkpt lat="44.83144" lon="3.46483">
        <ele>1308.2</ele>
        <time>2015-09-18T07:45:31Z</time>
      </trkpt>
      <trkpt lat="44.83144" lon="3.4647">
        <ele>1308.2</ele>
        <time>2015-09-18T07:45:33Z</time>
      </trkpt>
      <trkpt lat="44.83142" lon="3.46456">
        <ele>1308.1</ele>
        <time>2015-09-18T07:45:35Z</time>
      </trkpt>
      <trkpt lat="44.83145" lon="3.46441">
        <ele>1308.1</ele>
        <time>2015-09-18T07:45:37Z</time>
      </trkpt>
      <trkpt lat="44.83149" lon="3.46425">
        <ele>1308</ele>
        <time>2015-09-18T07:45:39Z</time>
      </trkpt>
      <trkpt lat="44.83153" lon="3.46409">
        <ele>1307.9</ele>
        <time>2015-09-18T07:45:41Z</time>
      </trkpt>
      <trkpt lat="44.83157" lon="3.46393">
        <ele>1307.8</ele>
        <time>2015-09-18T07:45:43Z</time>
      </trkpt>
      <trkpt lat="44.8316" lon="3.46377">
        <ele>1307.6</ele>
        <time>2015-09-18T07:45:45Z</time>
      </trkpt>
      <trkpt lat="44.83159" lon="3.46361">
        <ele>1307.5</ele>
        <time>2015-09-18T07:45:47Z</time>
      </trkpt>
      <trkpt lat="44.83159" lon="3.46347">
        <ele>1307.3</ele>
        <time>2015-09-18T07:45:49Z</time>
      </trkpt>
      <trkpt lat="44.8316" lon="3.46334">
        <ele>1307.1</ele>
        <time>2015-09-18T07:45:51Z</time>
      </trkpt>
      <trkpt lat="44.83162" lon="3.46322">
        <ele>1307</ele>
        <time>2015-09-18T07:45:53Z</time>
      </trkpt>
      <trkpt lat="44.83166" lon="3.46304">
        <ele>1306.8</ele>
        <time>2015-09-18T07:45:56Z</time>
      </trkpt>
      <trkpt lat="44.83167" lon="3.46287">
        <ele>1306.7</ele>
        <time>2015-09-18T07:45:59Z</time>
      </trkpt>
      <trkpt lat="44.83168" lon="3.46271">
        <ele>1306.5</ele>
        <time>2015-09-18T07:46:02Z</time>
      </trkpt>
      <trkpt lat="44.8317" lon="3.46258">
        <ele>1306.4</ele>
        <time>2015-09-18T07:46:05Z</time>
      </trkpt>
      <trkpt lat="44.83173" lon="3.46246">
        <ele>1306.4</ele>
        <time>2015-09-18T07:46:08Z</time>
      </trkpt>
      <trkpt lat="44.83177" lon="3.46231">
        <ele>1306.3</ele>
        <time>2015-09-18T07:46:12Z</time>
      </trkpt>
      <trkpt lat="44.83177" lon="3.46216">
        <ele>1306.2</ele>
        <time>2015-09-18T07:46:16Z</time>
      </trkpt>
      <trkpt lat="44.83172" lon="3.46201">
        <ele>1306.1</ele>
        <time>2015-09-18T07:46:20Z</time>
      </trkpt>
      <trkpt lat="44.83167" lon="3.46189">
        <ele>1306.1</ele>
        <time>2015-09-18T07:46:23Z</time>
      </trkpt>
      <trkpt lat="44.83162" lon="3.46177">
        <ele>1306</ele>
        <time>2015-09-18T07:46:26Z</time>
      </trkpt>
      <trkpt lat="44.83157" lon="3.46167">
        <ele>1306</ele>
        <time>2015-09-18T07:46:29Z</time>
      </trkpt>
      <trkpt lat="44.83152" lon="3.46154">
        <ele>1305.9</ele>
        <time>2015-09-18T07:46:32Z</time>
      </trkpt>
      <trkpt lat="44.83146" lon="3.46139">
        <ele>1305.8</ele>
        <time>2015-09-18T07:46:35Z</time>
      </trkpt>
      <trkpt lat="44.8314" lon="3.46124">
        <ele>1305.6</ele>
        <time>2015-09-18T07:46:38Z</time>
      </trkpt>
      <trkpt lat="44.83133" lon="3.46108">
        <ele>1305.4</ele>
        <time>2015-09-18T07:46:41Z</time>
      </trkpt>
      <trkpt lat="44.83127" lon="3.46092">
        <ele>1305.2</ele>
        <time>2015-09-18T07:46:44Z</time>
      </trkpt>
      <trkpt lat="44.83121" lon="3.46076">
        <ele>1305</ele>
        <time>2015-09-18T07:46:47Z</time>
      </trkpt>
      <trkpt lat="44.83118" lon="3.46061">
        <ele>1304.8</ele>
        <time>2015-09-18T07:46:50Z</time>
      </trkpt>
      <trkpt lat="44.83114" lon="3.46048">
        <ele>1304.7</ele>
        <time>2015-09-18T07:46:53Z</time>
      </trkpt>
      <trkpt lat="44.83105" lon="3.46043">
        <ele>1302.5</ele>
        <time>2015-09-18T07:48:25Z</time>
      </trkpt>
      <trkpt lat="44.83097" lon="3.46034">
        <ele>1302.5</ele>
        <time>2015-09-18T07:48:50Z</time>
      </trkpt>
      <trkpt lat="44.83098" lon="3.46018">
        <ele>1302.5</ele>
        <time>2015-09-18T07:48:54Z</time>
      </trkpt>
      <trkpt lat="44.83096" lon="3.46002">
        <ele>1302.5</ele>
        <time>2015-09-18T07:48:57Z</time>
      </trkpt>
      <trkpt lat="44.83093" lon="3.45984">
        <ele>1302.4</ele>
        <time>2015-09-18T07:49:00Z</time>
      </trkpt>
      <trkpt lat="44.83091" lon="3.4597">
        <ele>1302.3</ele>
        <time>2015-09-18T07:49:02Z</time>
      </trkpt>
      <trkpt lat="44.83089" lon="3.45956">
        <ele>1302.2</ele>
        <time>2015-09-18T07:49:04Z</time>
      </trkpt>
      <trkpt lat="44.83086" lon="3.45941">
        <ele>1302.1</ele>
        <time>2015-09-18T07:49:06Z</time>
      </trkpt>
      <trkpt lat="44.83084" lon="3.45926">
        <ele>1301.9</ele>
        <time>2015-09-18T07:49:08Z</time>
      </trkpt>
      <trkpt lat="44.83081" lon="3.4591">
        <ele>1301.7</ele>
        <time>2015-09-18T07:49:10Z</time>
      </trkpt>
      <trkpt lat="44.83076" lon="3.45893">
        <ele>1301.3</ele>
        <time>2015-09-18T07:49:12Z</time>
      </trkpt>
      <trkpt lat="44.83071" lon="3.45875">
        <ele>1300.9</ele>
        <time>2015-09-18T07:49:14Z</time>
      </trkpt>
      <trkpt lat="44.83066" lon="3.45857">
        <ele>1300.4</ele>
        <time>2015-09-18T07:49:16Z</time>
      </trkpt>
      <trkpt lat="44.83061" lon="3.45837">
        <ele>1299.8</ele>
        <time>2015-09-18T07:49:18Z</time>
      </trkpt>
      <trkpt lat="44.83056" lon="3.45815">
        <ele>1299.1</ele>
        <time>2015-09-18T07:49:20Z</time>
      </trkpt>
      <trkpt lat="44.83054" lon="3.45793">
        <ele>1298.3</ele>
        <time>2015-09-18T07:49:22Z</time>
      </trkpt>
      <trkpt lat="44.83054" lon="3.4577">
        <ele>1297.7</ele>
        <time>2015-09-18T07:49:24Z</time>
      </trkpt>
      <trkpt lat="44.83051" lon="3.45748">
        <ele>1297</ele>
        <time>2015-09-18T07:49:26Z</time>
      </trkpt>
      <trkpt lat="44.83047" lon="3.45727">
        <ele>1296.5</ele>
        <time>2015-09-18T07:49:28Z</time>
      </trkpt>
      <trkpt lat="44.83042" lon="3.45709">
        <ele>1296</ele>
        <time>2015-09-18T07:49:30Z</time>
      </trkpt>
      <trkpt lat="44.83034" lon="3.45692">
        <ele>1295.6</ele>
        <time>2015-09-18T07:49:32Z</time>
      </trkpt>
      <trkpt lat="44.83025" lon="3.45679">
        <ele>1295.2</ele>
        <time>2015-09-18T07:49:34Z</time>
      </trkpt>
      <trkpt lat="44.83016" lon="3.45667">
        <ele>1294.9</ele>
        <time>2015-09-18T07:49:36Z</time>
      </trkpt>
      <trkpt lat="44.83005" lon="3.45658">
        <ele>1294.6</ele>
        <time>2015-09-18T07:49:38Z</time>
      </trkpt>
      <trkpt lat="44.82994" lon="3.4565">
        <ele>1294.4</ele>
        <time>2015-09-18T07:49:40Z</time>
      </trkpt>
      <trkpt lat="44.82983" lon="3.45644">
        <ele>1294.2</ele>
        <time>2015-09-18T07:49:42Z</time>
      </trkpt>
      <trkpt lat="44.82971" lon="3.45638">
        <ele>1294.1</ele>
        <time>2015-09-18T07:49:44Z</time>
      </trkpt>
      <trkpt lat="44.82961" lon="3.45634">
        <ele>1293.9</ele>
        <time>2015-09-18T07:49:46Z</time>
      </trkpt>
      <trkpt lat="44.82951" lon="3.45629">
        <ele>1293.8</ele>
        <time>2015-09-18T07:49:48Z</time>
      </trkpt>
      <trkpt lat="44.82941" lon="3.45626">
        <ele>1293.7</ele>
        <time>2015-09-18T07:49:50Z</time>
      </trkpt>
      <trkpt lat="44.8293" lon="3.45623">
        <ele>1293.6</ele>
        <time>2015-09-18T07:49:52Z</time>
      </trkpt>
      <trkpt lat="44.82919" lon="3.4562">
        <ele>1293.5</ele>
        <time>2015-09-18T07:49:54Z</time>
      </trkpt>
      <trkpt lat="44.82909" lon="3.45617">
        <ele>1293.5</ele>
        <time>2015-09-18T07:49:56Z</time>
      </trkpt>
      <trkpt lat="44.82899" lon="3.45615">
        <ele>1293.3</ele>
        <time>2015-09-18T07:49:58Z</time>
      </trkpt>
      <trkpt lat="44.82889" lon="3.45612">
        <ele>1293.2</ele>
        <time>2015-09-18T07:50:00Z</time>
      </trkpt>
      <trkpt lat="44.82879" lon="3.45608">
        <ele>1293.1</ele>
        <time>2015-09-18T07:50:02Z</time>
      </trkpt>
      <trkpt lat="44.82869" lon="3.45604">
        <ele>1292.9</ele>
        <time>2015-09-18T07:50:04Z</time>
      </trkpt>
      <trkpt lat="44.82858" lon="3.456">
        <ele>1292.7</ele>
        <time>2015-09-18T07:50:06Z</time>
      </trkpt>
      <trkpt lat="44.82847" lon="3.45596">
        <ele>1292.4</ele>
        <time>2015-09-18T07:50:08Z</time>
      </trkpt>
      <trkpt lat="44.82837" lon="3.4559">
        <ele>1292.1</ele>
        <time>2015-09-18T07:50:10Z</time>
      </trkpt>
      <trkpt lat="44.82828" lon="3.45583">
        <ele>1291.7</ele>
        <time>2015-09-18T07:50:12Z</time>
      </trkpt>
      <trkpt lat="44.82817" lon="3.45574">
        <ele>1291.2</ele>
        <time>2015-09-18T07:50:15Z</time>
      </trkpt>
      <trkpt lat="44.82808" lon="3.45564">
        <ele>1290.5</ele>
        <time>2015-09-18T07:50:19Z</time>
      </trkpt>
      <trkpt lat="44.82799" lon="3.45553">
        <ele>1290</ele>
        <time>2015-09-18T07:50:22Z</time>
      </trkpt>
      <trkpt lat="44.82788" lon="3.45541">
        <ele>1289.5</ele>
        <time>2015-09-18T07:50:25Z</time>
      </trkpt>
      <trkpt lat="44.82781" lon="3.45532">
        <ele>1289.1</ele>
        <time>2015-09-18T07:50:27Z</time>
      </trkpt>
      <trkpt lat="44.82773" lon="3.45523">
        <ele>1288.6</ele>
        <time>2015-09-18T07:50:29Z</time>
      </trkpt>
      <trkpt lat="44.82763" lon="3.45511">
        <ele>1288.1</ele>
        <time>2015-09-18T07:50:32Z</time>
      </trkpt>
      <trkpt lat="44.82755" lon="3.45496">
        <ele>1287.5</ele>
        <time>2015-09-18T07:50:35Z</time>
      </trkpt>
      <trkpt lat="44.82748" lon="3.4548">
        <ele>1286.8</ele>
        <time>2015-09-18T07:50:38Z</time>
      </trkpt>
      <trkpt lat="44.82741" lon="3.45469">
        <ele>1286.2</ele>
        <time>2015-09-18T07:50:41Z</time>
      </trkpt>
      <trkpt lat="44.82737" lon="3.45458">
        <ele>1285.5</ele>
        <time>2015-09-18T07:50:46Z</time>
      </trkpt>
      <trkpt lat="44.82733" lon="3.45444">
        <ele>1282.1</ele>
        <time>2015-09-18T07:53:53Z</time>
      </trkpt>
      <trkpt lat="44.82728" lon="3.45429">
        <ele>1282.1</ele>
        <time>2015-09-18T07:53:56Z</time>
      </trkpt>
      <trkpt lat="44.82724" lon="3.45416">
        <ele>1282</ele>
        <time>2015-09-18T07:53:58Z</time>
      </trkpt>
      <trkpt lat="44.82721" lon="3.45402">
        <ele>1281.8</ele>
        <time>2015-09-18T07:54:00Z</time>
      </trkpt>
      <trkpt lat="44.82715" lon="3.4539">
        <ele>1281.6</ele>
        <time>2015-09-18T07:54:02Z</time>
      </trkpt>
      <trkpt lat="44.82708" lon="3.45377">
        <ele>1281</ele>
        <time>2015-09-18T07:54:05Z</time>
      </trkpt>
      <trkpt lat="44.82704" lon="3.45363">
        <ele>1280.1</ele>
        <time>2015-09-18T07:54:09Z</time>
      </trkpt>
      <trkpt lat="44.82699" lon="3.45352">
        <ele>1279</ele>
        <time>2015-09-18T07:54:13Z</time>
      </trkpt>
      <trkpt lat="44.82692" lon="3.4534">
        <ele>1277.2</ele>
        <time>2015-09-18T07:54:18Z</time>
      </trkpt>
      <trkpt lat="44.82683" lon="3.45335">
        <ele>1276.5</ele>
        <time>2015-09-18T07:54:20Z</time>
      </trkpt>
      <trkpt lat="44.82675" lon="3.45327">
        <ele>1275.7</ele>
        <time>2015-09-18T07:54:22Z</time>
      </trkpt>
      <trkpt lat="44.82667" lon="3.45315">
        <ele>1274.6</ele>
        <time>2015-09-18T07:54:24Z</time>
      </trkpt>
      <trkpt lat="44.82659" lon="3.45302">
        <ele>1273.5</ele>
        <time>2015-09-18T07:54:26Z</time>
      </trkpt>
      <trkpt lat="44.82652" lon="3.45292">
        <ele>1272.4</ele>
        <time>2015-09-18T07:54:28Z</time>
      </trkpt>
      <trkpt lat="44.82645" lon="3.45283">
        <ele>1271.2</ele>
        <time>2015-09-18T07:54:30Z</time>
      </trkpt>
      <trkpt lat="44.82638" lon="3.45272">
        <ele>1270.1</ele>
        <time>2015-09-18T07:54:32Z</time>
      </trkpt>
      <trkpt lat="44.82632" lon="3.45255">
        <ele>1269</ele>
        <time>2015-09-18T07:54:34Z</time>
      </trkpt>
      <trkpt lat="44.82627" lon="3.45238">
        <ele>1267.9</ele>
        <time>2015-09-18T07:54:36Z</time>
      </trkpt>
      <trkpt lat="44.82622" lon="3.45222">
        <ele>1266.9</ele>
        <time>2015-09-18T07:54:38Z</time>
      </trkpt>
      <trkpt lat="44.82616" lon="3.45204">
        <ele>1266</ele>
        <time>2015-09-18T07:54:40Z</time>
      </trkpt>
      <trkpt lat="44.82611" lon="3.45187">
        <ele>1265.1</ele>
        <time>2015-09-18T07:54:42Z</time>
      </trkpt>
      <trkpt lat="44.82606" lon="3.45172">
        <ele>1264.3</ele>
        <time>2015-09-18T07:54:44Z</time>
      </trkpt>
      <trkpt lat="44.82604" lon="3.45159">
        <ele>1263.6</ele>
        <time>2015-09-18T07:54:46Z</time>
      </trkpt>
      <trkpt lat="44.82597" lon="3.4515">
        <ele>1261.9</ele>
        <time>2015-09-18T07:54:52Z</time>
      </trkpt>
      <trkpt lat="44.82586" lon="3.4514">
        <ele>1260.8</ele>
        <time>2015-09-18T07:54:57Z</time>
      </trkpt>
      <trkpt lat="44.82577" lon="3.45131">
        <ele>1260.4</ele>
        <time>2015-09-18T07:54:59Z</time>
      </trkpt>
      <trkpt lat="44.8257" lon="3.45123">
        <ele>1259.9</ele>
        <time>2015-09-18T07:55:01Z</time>
      </trkpt>
      <trkpt lat="44.8256" lon="3.45114">
        <ele>1259.2</ele>
        <time>2015-09-18T07:55:04Z</time>
      </trkpt>
      <trkpt lat="44.82548" lon="3.45106">
        <ele>1258.6</ele>
        <time>2015-09-18T07:55:07Z</time>
      </trkpt>
      <trkpt lat="44.82538" lon="3.45101">
        <ele>1258.2</ele>
        <time>2015-09-18T07:55:09Z</time>
      </trkpt>
      <trkpt lat="44.8253" lon="3.45092">
        <ele>1257.7</ele>
        <time>2015-09-18T07:55:12Z</time>
      </trkpt>
      <trkpt lat="44.82519" lon="3.45084">
        <ele>1257.2</ele>
        <time>2015-09-18T07:55:15Z</time>
      </trkpt>
      <trkpt lat="44.82508" lon="3.45077">
        <ele>1256.6</ele>
        <time>2015-09-18T07:55:18Z</time>
      </trkpt>
      <trkpt lat="44.82496" lon="3.45074">
        <ele>1256</ele>
        <time>2015-09-18T07:55:21Z</time>
      </trkpt>
      <trkpt lat="44.82487" lon="3.45069">
        <ele>1253.4</ele>
        <time>2015-09-18T07:55:35Z</time>
      </trkpt>
      <trkpt lat="44.82477" lon="3.4506">
        <ele>1252.9</ele>
        <time>2015-09-18T07:55:40Z</time>
      </trkpt>
      <trkpt lat="44.82468" lon="3.45051">
        <ele>1252.4</ele>
        <time>2015-09-18T07:55:43Z</time>
      </trkpt>
      <trkpt lat="44.8246" lon="3.45035">
        <ele>1251.7</ele>
        <time>2015-09-18T07:55:46Z</time>
      </trkpt>
      <trkpt lat="44.82455" lon="3.45021">
        <ele>1251.3</ele>
        <time>2015-09-18T07:55:48Z</time>
      </trkpt>
      <trkpt lat="44.82449" lon="3.45008">
        <ele>1250.7</ele>
        <time>2015-09-18T07:55:50Z</time>
      </trkpt>
      <trkpt lat="44.82446" lon="3.44996">
        <ele>1249.7</ele>
        <time>2015-09-18T07:55:53Z</time>
      </trkpt>
      <trkpt lat="44.82445" lon="3.4498">
        <ele>1249</ele>
        <time>2015-09-18T07:55:55Z</time>
      </trkpt>
      <trkpt lat="44.82441" lon="3.44964">
        <ele>1248.4</ele>
        <time>2015-09-18T07:55:57Z</time>
      </trkpt>
      <trkpt lat="44.82439" lon="3.44951">
        <ele>1247.7</ele>
        <time>2015-09-18T07:55:59Z</time>
      </trkpt>
      <trkpt lat="44.82437" lon="3.44935">
        <ele>1246.5</ele>
        <time>2015-09-18T07:56:03Z</time>
      </trkpt>
      <trkpt lat="44.82436" lon="3.44918">
        <ele>1245.6</ele>
        <time>2015-09-18T07:56:06Z</time>
      </trkpt>
      <trkpt lat="44.82439" lon="3.44905">
        <ele>1244.9</ele>
        <time>2015-09-18T07:56:08Z</time>
      </trkpt>
      <trkpt lat="44.82444" lon="3.44891">
        <ele>1244</ele>
        <time>2015-09-18T07:56:11Z</time>
      </trkpt>
      <trkpt lat="44.8245" lon="3.44881">
        <ele>1243.1</ele>
        <time>2015-09-18T07:56:14Z</time>
      </trkpt>
      <trkpt lat="44.82457" lon="3.44864">
        <ele>1242.1</ele>
        <time>2015-09-18T07:56:17Z</time>
      </trkpt>
      <trkpt lat="44.82466" lon="3.44855">
        <ele>1241.9</ele>
        <time>2015-09-18T07:56:18Z</time>
      </trkpt>
      <trkpt lat="44.82472" lon="3.4484">
        <ele>1241.3</ele>
        <time>2015-09-18T07:56:20Z</time>
      </trkpt>
      <trkpt lat="44.82474" lon="3.44826">
        <ele>1240.8</ele>
        <time>2015-09-18T07:56:22Z</time>
      </trkpt>
      <trkpt lat="44.82473" lon="3.44812">
        <ele>1240.3</ele>
        <time>2015-09-18T07:56:24Z</time>
      </trkpt>
      <trkpt lat="44.82471" lon="3.44799">
        <ele>1239.9</ele>
        <time>2015-09-18T07:56:26Z</time>
      </trkpt>
      <trkpt lat="44.82467" lon="3.44782">
        <ele>1239.2</ele>
        <time>2015-09-18T07:56:29Z</time>
      </trkpt>
      <trkpt lat="44.82462" lon="3.44767">
        <ele>1238.7</ele>
        <time>2015-09-18T07:56:32Z</time>
      </trkpt>
      <trkpt lat="44.82455" lon="3.44754">
        <ele>1238.3</ele>
        <time>2015-09-18T07:56:35Z</time>
      </trkpt>
      <trkpt lat="44.82449" lon="3.44743">
        <ele>1237.9</ele>
        <time>2015-09-18T07:56:38Z</time>
      </trkpt>
      <trkpt lat="44.82441" lon="3.44734">
        <ele>1237.4</ele>
        <time>2015-09-18T07:56:43Z</time>
      </trkpt>
      <trkpt lat="44.82434" lon="3.44727">
        <ele>1237.1</ele>
        <time>2015-09-18T07:56:47Z</time>
      </trkpt>
      <trkpt lat="44.82425" lon="3.44715">
        <ele>1236.2</ele>
        <time>2015-09-18T07:57:06Z</time>
      </trkpt>
      <trkpt lat="44.8242" lon="3.44702">
        <ele>1236</ele>
        <time>2015-09-18T07:57:09Z</time>
      </trkpt>
      <trkpt lat="44.82415" lon="3.44691">
        <ele>1235.7</ele>
        <time>2015-09-18T07:57:11Z</time>
      </trkpt>
      <trkpt lat="44.8241" lon="3.44678">
        <ele>1235.5</ele>
        <time>2015-09-18T07:57:13Z</time>
      </trkpt>
      <trkpt lat="44.82404" lon="3.44665">
        <ele>1235.1</ele>
        <time>2015-09-18T07:57:15Z</time>
      </trkpt>
      <trkpt lat="44.82399" lon="3.4465">
        <ele>1234.7</ele>
        <time>2015-09-18T07:57:17Z</time>
      </trkpt>
      <trkpt lat="44.82394" lon="3.44636">
        <ele>1234.2</ele>
        <time>2015-09-18T07:57:19Z</time>
      </trkpt>
      <trkpt lat="44.82387" lon="3.44623">
        <ele>1233.8</ele>
        <time>2015-09-18T07:57:21Z</time>
      </trkpt>
      <trkpt lat="44.8238" lon="3.44611">
        <ele>1233.4</ele>
        <time>2015-09-18T07:57:23Z</time>
      </trkpt>
      <trkpt lat="44.82372" lon="3.44603">
        <ele>1233</ele>
        <time>2015-09-18T07:57:25Z</time>
      </trkpt>
      <trkpt lat="44.8236" lon="3.44596">
        <ele>1232.6</ele>
        <time>2015-09-18T07:57:28Z</time>
      </trkpt>
      <trkpt lat="44.82348" lon="3.44588">
        <ele>1232.1</ele>
        <time>2015-09-18T07:57:31Z</time>
      </trkpt>
      <trkpt lat="44.8234" lon="3.44584">
        <ele>1231.9</ele>
        <time>2015-09-18T07:57:33Z</time>
      </trkpt>
      <trkpt lat="44.82328" lon="3.44579">
        <ele>1231.6</ele>
        <time>2015-09-18T07:57:36Z</time>
      </trkpt>
      <trkpt lat="44.82318" lon="3.44577">
        <ele>1231.4</ele>
        <time>2015-09-18T07:57:39Z</time>
      </trkpt>
      <trkpt lat="44.8231" lon="3.44569">
        <ele>1231.6</ele>
        <time>2015-09-18T07:57:43Z</time>
      </trkpt>
      <trkpt lat="44.82302" lon="3.44564">
        <ele>1231.8</ele>
        <time>2015-09-18T07:57:46Z</time>
      </trkpt>
      <trkpt lat="44.82293" lon="3.44557">
        <ele>1232</ele>
        <time>2015-09-18T07:57:49Z</time>
      </trkpt>
      <trkpt lat="44.82285" lon="3.4455">
        <ele>1232.2</ele>
        <time>2015-09-18T07:57:52Z</time>
      </trkpt>
      <trkpt lat="44.82277" lon="3.44544">
        <ele>1232.4</ele>
        <time>2015-09-18T07:57:55Z</time>
      </trkpt>
      <trkpt lat="44.82268" lon="3.44537">
        <ele>1232.7</ele>
        <time>2015-09-18T07:57:58Z</time>
      </trkpt>
      <trkpt lat="44.82256" lon="3.44528">
        <ele>1233</ele>
        <time>2015-09-18T07:58:01Z</time>
      </trkpt>
      <trkpt lat="44.82247" lon="3.4452">
        <ele>1233.2</ele>
        <time>2015-09-18T07:58:03Z</time>
      </trkpt>
      <trkpt lat="44.82238" lon="3.44513">
        <ele>1233.3</ele>
        <time>2015-09-18T07:58:05Z</time>
      </trkpt>
      <trkpt lat="44.8223" lon="3.44506">
        <ele>1233.5</ele>
        <time>2015-09-18T07:58:07Z</time>
      </trkpt>
      <trkpt lat="44.82222" lon="3.44498">
        <ele>1233.6</ele>
        <time>2015-09-18T07:58:09Z</time>
      </trkpt>
      <trkpt lat="44.82214" lon="3.44489">
        <ele>1233.7</ele>
        <time>2015-09-18T07:58:11Z</time>
      </trkpt>
      <trkpt lat="44.82207" lon="3.4448">
        <ele>1233.8</ele>
        <time>2015-09-18T07:58:13Z</time>
      </trkpt>
      <trkpt lat="44.822" lon="3.44469">
        <ele>1233.9</ele>
        <time>2015-09-18T07:58:15Z</time>
      </trkpt>
      <trkpt lat="44.82193" lon="3.44457">
        <ele>1234</ele>
        <time>2015-09-18T07:58:17Z</time>
      </trkpt>
      <trkpt lat="44.82187" lon="3.44445">
        <ele>1234</ele>
        <time>2015-09-18T07:58:19Z</time>
      </trkpt>
      <trkpt lat="44.8218" lon="3.44432">
        <ele>1234</ele>
        <time>2015-09-18T07:58:21Z</time>
      </trkpt>
      <trkpt lat="44.82174" lon="3.44419">
        <ele>1234</ele>
        <time>2015-09-18T07:58:23Z</time>
      </trkpt>
      <trkpt lat="44.82167" lon="3.44405">
        <ele>1233.9</ele>
        <time>2015-09-18T07:58:25Z</time>
      </trkpt>
      <trkpt lat="44.82162" lon="3.44391">
        <ele>1233.9</ele>
        <time>2015-09-18T07:58:27Z</time>
      </trkpt>
      <trkpt lat="44.82155" lon="3.44379">
        <ele>1233.8</ele>
        <time>2015-09-18T07:58:29Z</time>
      </trkpt>
      <trkpt lat="44.82149" lon="3.44367">
        <ele>1233.7</ele>
        <time>2015-09-18T07:58:31Z</time>
      </trkpt>
      <trkpt lat="44.82142" lon="3.44356">
        <ele>1233.5</ele>
        <time>2015-09-18T07:58:33Z</time>
      </trkpt>
      <trkpt lat="44.82134" lon="3.44347">
        <ele>1233.4</ele>
        <time>2015-09-18T07:58:35Z</time>
      </trkpt>
      <trkpt lat="44.82124" lon="3.44338">
        <ele>1233.1</ele>
        <time>2015-09-18T07:58:37Z</time>
      </trkpt>
      <trkpt lat="44.82115" lon="3.44327">
        <ele>1232.8</ele>
        <time>2015-09-18T07:58:39Z</time>
      </trkpt>
      <trkpt lat="44.82105" lon="3.44315">
        <ele>1232.6</ele>
        <time>2015-09-18T07:58:41Z</time>
      </trkpt>
      <trkpt lat="44.82094" lon="3.443">
        <ele>1232.3</ele>
        <time>2015-09-18T07:58:43Z</time>
      </trkpt>
      <trkpt lat="44.82082" lon="3.44288">
        <ele>1232</ele>
        <time>2015-09-18T07:58:45Z</time>
      </trkpt>
      <trkpt lat="44.82072" lon="3.44275">
        <ele>1231.8</ele>
        <time>2015-09-18T07:58:47Z</time>
      </trkpt>
      <trkpt lat="44.82062" lon="3.44259">
        <ele>1231.4</ele>
        <time>2015-09-18T07:58:49Z</time>
      </trkpt>
      <trkpt lat="44.82054" lon="3.4424">
        <ele>1230.9</ele>
        <time>2015-09-18T07:58:51Z</time>
      </trkpt>
      <trkpt lat="44.82046" lon="3.44219">
        <ele>1230.2</ele>
        <time>2015-09-18T07:58:53Z</time>
      </trkpt>
      <trkpt lat="44.82035" lon="3.44199">
        <ele>1229.5</ele>
        <time>2015-09-18T07:58:55Z</time>
      </trkpt>
      <trkpt lat="44.82026" lon="3.4418">
        <ele>1228.7</ele>
        <time>2015-09-18T07:58:57Z</time>
      </trkpt>
      <trkpt lat="44.82018" lon="3.44159">
        <ele>1228</ele>
        <time>2015-09-18T07:58:59Z</time>
      </trkpt>
      <trkpt lat="44.82012" lon="3.44136">
        <ele>1227.2</ele>
        <time>2015-09-18T07:59:01Z</time>
      </trkpt>
      <trkpt lat="44.82005" lon="3.44114">
        <ele>1226.5</ele>
        <time>2015-09-18T07:59:03Z</time>
      </trkpt>
      <trkpt lat="44.81998" lon="3.44092">
        <ele>1225.6</ele>
        <time>2015-09-18T07:59:05Z</time>
      </trkpt>
      <trkpt lat="44.81992" lon="3.44069">
        <ele>1224.7</ele>
        <time>2015-09-18T07:59:07Z</time>
      </trkpt>
      <trkpt lat="44.81988" lon="3.44046">
        <ele>1223.6</ele>
        <time>2015-09-18T07:59:09Z</time>
      </trkpt>
      <trkpt lat="44.81984" lon="3.44025">
        <ele>1222.5</ele>
        <time>2015-09-18T07:59:11Z</time>
      </trkpt>
      <trkpt lat="44.81977" lon="3.44008">
        <ele>1221.2</ele>
        <time>2015-09-18T07:59:13Z</time>
      </trkpt>
      <trkpt lat="44.8197" lon="3.43995">
        <ele>1220</ele>
        <time>2015-09-18T07:59:15Z</time>
      </trkpt>
      <trkpt lat="44.81962" lon="3.43985">
        <ele>1218.8</ele>
        <time>2015-09-18T07:59:17Z</time>
      </trkpt>
      <trkpt lat="44.81953" lon="3.43971">
        <ele>1217.4</ele>
        <time>2015-09-18T07:59:19Z</time>
      </trkpt>
      <trkpt lat="44.81942" lon="3.43957">
        <ele>1216.1</ele>
        <time>2015-09-18T07:59:21Z</time>
      </trkpt>
      <trkpt lat="44.8193" lon="3.4395">
        <ele>1214.8</ele>
        <time>2015-09-18T07:59:23Z</time>
      </trkpt>
      <trkpt lat="44.81925" lon="3.43935">
        <ele>1212.1</ele>
        <time>2015-09-18T07:59:28Z</time>
      </trkpt>
      <trkpt lat="44.81919" lon="3.43923">
        <ele>1211.2</ele>
        <time>2015-09-18T07:59:30Z</time>
      </trkpt>
      <trkpt lat="44.81912" lon="3.43909">
        <ele>1210.3</ele>
        <time>2015-09-18T07:59:32Z</time>
      </trkpt>
      <trkpt lat="44.81904" lon="3.43891">
        <ele>1209.3</ele>
        <time>2015-09-18T07:59:34Z</time>
      </trkpt>
      <trkpt lat="44.81897" lon="3.4387">
        <ele>1208.2</ele>
        <time>2015-09-18T07:59:36Z</time>
      </trkpt>
      <trkpt lat="44.81891" lon="3.43848">
        <ele>1207</ele>
        <time>2015-09-18T07:59:38Z</time>
      </trkpt>
      <trkpt lat="44.81886" lon="3.43827">
        <ele>1205.9</ele>
        <time>2015-09-18T07:59:40Z</time>
      </trkpt>
      <trkpt lat="44.81882" lon="3.43806">
        <ele>1204.8</ele>
        <time>2015-09-18T07:59:42Z</time>
      </trkpt>
      <trkpt lat="44.81878" lon="3.43783">
        <ele>1203.7</ele>
        <time>2015-09-18T07:59:44Z</time>
      </trkpt>
      <trkpt lat="44.81873" lon="3.43761">
        <ele>1202.6</ele>
        <time>2015-09-18T07:59:46Z</time>
      </trkpt>
      <trkpt lat="44.81868" lon="3.43739">
        <ele>1201.6</ele>
        <time>2015-09-18T07:59:48Z</time>
      </trkpt>
      <trkpt lat="44.81866" lon="3.43716">
        <ele>1200.7</ele>
        <time>2015-09-18T07:59:50Z</time>
      </trkpt>
      <trkpt lat="44.81865" lon="3.43691">
        <ele>1199.8</ele>
        <time>2015-09-18T07:59:52Z</time>
      </trkpt>
      <trkpt lat="44.81863" lon="3.43667">
        <ele>1198.8</ele>
        <time>2015-09-18T07:59:54Z</time>
      </trkpt>
      <trkpt lat="44.81861" lon="3.43645">
        <ele>1198</ele>
        <time>2015-09-18T07:59:56Z</time>
      </trkpt>
      <trkpt lat="44.81859" lon="3.43625">
        <ele>1197.2</ele>
        <time>2015-09-18T07:59:58Z</time>
      </trkpt>
      <trkpt lat="44.81856" lon="3.43606">
        <ele>1196.4</ele>
        <time>2015-09-18T08:00:00Z</time>
      </trkpt>
      <trkpt lat="44.81853" lon="3.43588">
        <ele>1195.8</ele>
        <time>2015-09-18T08:00:02Z</time>
      </trkpt>
      <trkpt lat="44.8185" lon="3.43569">
        <ele>1195.1</ele>
        <time>2015-09-18T08:00:04Z</time>
      </trkpt>
      <trkpt lat="44.81847" lon="3.4355">
        <ele>1194.3</ele>
        <time>2015-09-18T08:00:06Z</time>
      </trkpt>
      <trkpt lat="44.81844" lon="3.43531">
        <ele>1193.6</ele>
        <time>2015-09-18T08:00:08Z</time>
      </trkpt>
      <trkpt lat="44.81841" lon="3.43512">
        <ele>1192.9</ele>
        <time>2015-09-18T08:00:10Z</time>
      </trkpt>
      <trkpt lat="44.81837" lon="3.43492">
        <ele>1192.2</ele>
        <time>2015-09-18T08:00:12Z</time>
      </trkpt>
      <trkpt lat="44.81835" lon="3.43472">
        <ele>1191.6</ele>
        <time>2015-09-18T08:00:14Z</time>
      </trkpt>
      <trkpt lat="44.81831" lon="3.43453">
        <ele>1190.9</ele>
        <time>2015-09-18T08:00:16Z</time>
      </trkpt>
      <trkpt lat="44.81826" lon="3.43434">
        <ele>1190.2</ele>
        <time>2015-09-18T08:00:18Z</time>
      </trkpt>
      <trkpt lat="44.81819" lon="3.43417">
        <ele>1189.4</ele>
        <time>2015-09-18T08:00:20Z</time>
      </trkpt>
      <trkpt lat="44.81811" lon="3.43403">
        <ele>1188.5</ele>
        <time>2015-09-18T08:00:22Z</time>
      </trkpt>
      <trkpt lat="44.81806" lon="3.43387">
        <ele>1187.7</ele>
        <time>2015-09-18T08:00:24Z</time>
      </trkpt>
      <trkpt lat="44.81801" lon="3.43371">
        <ele>1186.8</ele>
        <time>2015-09-18T08:00:26Z</time>
      </trkpt>
      <trkpt lat="44.81796" lon="3.43354">
        <ele>1185.9</ele>
        <time>2015-09-18T08:00:28Z</time>
      </trkpt>
      <trkpt lat="44.81792" lon="3.43338">
        <ele>1185.1</ele>
        <time>2015-09-18T08:00:30Z</time>
      </trkpt>
      <trkpt lat="44.81789" lon="3.43321">
        <ele>1184.1</ele>
        <time>2015-09-18T08:00:32Z</time>
      </trkpt>
      <trkpt lat="44.81786" lon="3.43303">
        <ele>1183.1</ele>
        <time>2015-09-18T08:00:34Z</time>
      </trkpt>
      <trkpt lat="44.81783" lon="3.43287">
        <ele>1182.3</ele>
        <time>2015-09-18T08:00:36Z</time>
      </trkpt>
      <trkpt lat="44.81778" lon="3.43271">
        <ele>1181.3</ele>
        <time>2015-09-18T08:00:38Z</time>
      </trkpt>
      <trkpt lat="44.81774" lon="3.43253">
        <ele>1180.4</ele>
        <time>2015-09-18T08:00:40Z</time>
      </trkpt>
      <trkpt lat="44.81769" lon="3.43234">
        <ele>1179.5</ele>
        <time>2015-09-18T08:00:42Z</time>
      </trkpt>
      <trkpt lat="44.81764" lon="3.43215">
        <ele>1178.5</ele>
        <time>2015-09-18T08:00:44Z</time>
      </trkpt>
      <trkpt lat="44.81759" lon="3.43194">
        <ele>1177.4</ele>
        <time>2015-09-18T08:00:46Z</time>
      </trkpt>
      <trkpt lat="44.81754" lon="3.4318">
        <ele>1176.2</ele>
        <time>2015-09-18T08:00:48Z</time>
      </trkpt>
      <trkpt lat="44.8175" lon="3.43165">
        <ele>1174.6</ele>
        <time>2015-09-18T08:00:51Z</time>
      </trkpt>
      <trkpt lat="44.81754" lon="3.43149">
        <ele>1173.2</ele>
        <time>2015-09-18T08:00:54Z</time>
      </trkpt>
      <trkpt lat="44.81755" lon="3.43136">
        <ele>1172.3</ele>
        <time>2015-09-18T08:00:56Z</time>
      </trkpt>
      <trkpt lat="44.81756" lon="3.4312">
        <ele>1171.4</ele>
        <time>2015-09-18T08:00:58Z</time>
      </trkpt>
      <trkpt lat="44.81756" lon="3.43103">
        <ele>1170.5</ele>
        <time>2015-09-18T08:01:00Z</time>
      </trkpt>
      <trkpt lat="44.81756" lon="3.43084">
        <ele>1169.6</ele>
        <time>2015-09-18T08:01:02Z</time>
      </trkpt>
      <trkpt lat="44.81757" lon="3.43065">
        <ele>1168.5</ele>
        <time>2015-09-18T08:01:04Z</time>
      </trkpt>
      <trkpt lat="44.81757" lon="3.43044">
        <ele>1167.3</ele>
        <time>2015-09-18T08:01:06Z</time>
      </trkpt>
      <trkpt lat="44.81755" lon="3.43023">
        <ele>1166.2</ele>
        <time>2015-09-18T08:01:08Z</time>
      </trkpt>
      <trkpt lat="44.81753" lon="3.43003">
        <ele>1165.2</ele>
        <time>2015-09-18T08:01:10Z</time>
      </trkpt>
      <trkpt lat="44.81748" lon="3.42984">
        <ele>1164.2</ele>
        <time>2015-09-18T08:01:12Z</time>
      </trkpt>
      <trkpt lat="44.81744" lon="3.42967">
        <ele>1163.3</ele>
        <time>2015-09-18T08:01:14Z</time>
      </trkpt>
      <trkpt lat="44.8174" lon="3.42953">
        <ele>1162.5</ele>
        <time>2015-09-18T08:01:16Z</time>
      </trkpt>
      <trkpt lat="44.81737" lon="3.4294">
        <ele>1161.8</ele>
        <time>2015-09-18T08:01:18Z</time>
      </trkpt>
      <trkpt lat="44.81732" lon="3.42923">
        <ele>1161</ele>
        <time>2015-09-18T08:01:21Z</time>
      </trkpt>
      <trkpt lat="44.81727" lon="3.42913">
        <ele>1160.5</ele>
        <time>2015-09-18T08:01:23Z</time>
      </trkpt>
      <trkpt lat="44.81721" lon="3.42901">
        <ele>1160</ele>
        <time>2015-09-18T08:01:25Z</time>
      </trkpt>
      <trkpt lat="44.81715" lon="3.4289">
        <ele>1159.6</ele>
        <time>2015-09-18T08:01:27Z</time>
      </trkpt>
      <trkpt lat="44.81708" lon="3.42877">
        <ele>1159.1</ele>
        <time>2015-09-18T08:01:30Z</time>
      </trkpt>
      <trkpt lat="44.81702" lon="3.42867">
        <ele>1158.7</ele>
        <time>2015-09-18T08:01:33Z</time>
      </trkpt>
      <trkpt lat="44.81694" lon="3.42854">
        <ele>1158.3</ele>
        <time>2015-09-18T08:01:37Z</time>
      </trkpt>
      <trkpt lat="44.81686" lon="3.42843">
        <ele>1158</ele>
        <time>2015-09-18T08:01:41Z</time>
      </trkpt>
      <trkpt lat="44.81678" lon="3.42832">
        <ele>1157.8</ele>
        <time>2015-09-18T08:01:45Z</time>
      </trkpt>
      <trkpt lat="44.8167" lon="3.42824">
        <ele>1157.6</ele>
        <time>2015-09-18T08:01:49Z</time>
      </trkpt>
      <trkpt lat="44.81663" lon="3.42816">
        <ele>1157.6</ele>
        <time>2015-09-18T08:01:53Z</time>
      </trkpt>
      <trkpt lat="44.81656" lon="3.42808">
        <ele>1157.7</ele>
        <time>2015-09-18T08:01:57Z</time>
      </trkpt>
      <trkpt lat="44.81648" lon="3.42799">
        <ele>1157.8</ele>
        <time>2015-09-18T08:02:01Z</time>
      </trkpt>
      <trkpt lat="44.8164" lon="3.42791">
        <ele>1158</ele>
        <time>2015-09-18T08:02:05Z</time>
      </trkpt>
      <trkpt lat="44.81632" lon="3.42783">
        <ele>1158.1</ele>
        <time>2015-09-18T08:02:09Z</time>
      </trkpt>
      <trkpt lat="44.81626" lon="3.42774">
        <ele>1158.4</ele>
        <time>2015-09-18T08:02:13Z</time>
      </trkpt>
      <trkpt lat="44.8162" lon="3.42764">
        <ele>1158.7</ele>
        <time>2015-09-18T08:02:17Z</time>
      </trkpt>
      <trkpt lat="44.81615" lon="3.42752">
        <ele>1159</ele>
        <time>2015-09-18T08:02:21Z</time>
      </trkpt>
      <trkpt lat="44.81611" lon="3.4274">
        <ele>1159.5</ele>
        <time>2015-09-18T08:02:26Z</time>
      </trkpt>
      <trkpt lat="44.81605" lon="3.42728">
        <ele>1160</ele>
        <time>2015-09-18T08:02:31Z</time>
      </trkpt>
      <trkpt lat="44.81601" lon="3.42716">
        <ele>1160.7</ele>
        <time>2015-09-18T08:02:36Z</time>
      </trkpt>
      <trkpt lat="44.81597" lon="3.42702">
        <ele>1161.6</ele>
        <time>2015-09-18T08:02:43Z</time>
      </trkpt>
      <trkpt lat="44.81592" lon="3.42691">
        <ele>1162.8</ele>
        <time>2015-09-18T08:02:52Z</time>
      </trkpt>
      <trkpt lat="44.81587" lon="3.42679">
        <ele>1164.3</ele>
        <time>2015-09-18T08:03:04Z</time>
      </trkpt>
      <trkpt lat="44.81582" lon="3.42666">
        <ele>1165.3</ele>
        <time>2015-09-18T08:03:13Z</time>
      </trkpt>
      <trkpt lat="44.81578" lon="3.42653">
        <ele>1166.4</ele>
        <time>2015-09-18T08:03:22Z</time>
      </trkpt>
      <trkpt lat="44.81575" lon="3.42641">
        <ele>1167.8</ele>
        <time>2015-09-18T08:03:32Z</time>
      </trkpt>
      <trkpt lat="44.81568" lon="3.4263">
        <ele>1169.2</ele>
        <time>2015-09-18T08:03:41Z</time>
      </trkpt>
      <trkpt lat="44.81563" lon="3.42619">
        <ele>1170.7</ele>
        <time>2015-09-18T08:03:50Z</time>
      </trkpt>
      <trkpt lat="44.81558" lon="3.42608">
        <ele>1172.3</ele>
        <time>2015-09-18T08:04:00Z</time>
      </trkpt>
      <trkpt lat="44.81553" lon="3.42597">
        <ele>1173.8</ele>
        <time>2015-09-18T08:04:09Z</time>
      </trkpt>
      <trkpt lat="44.81548" lon="3.42586">
        <ele>1175.1</ele>
        <time>2015-09-18T08:04:18Z</time>
      </trkpt>
      <trkpt lat="44.81543" lon="3.42575">
        <ele>1176.1</ele>
        <time>2015-09-18T08:04:27Z</time>
      </trkpt>
      <trkpt lat="44.81538" lon="3.42564">
        <ele>1176.7</ele>
        <time>2015-09-18T08:04:34Z</time>
      </trkpt>
      <trkpt lat="44.81534" lon="3.42551">
        <ele>1177.3</ele>
        <time>2015-09-18T08:04:40Z</time>
      </trkpt>
      <trkpt lat="44.81527" lon="3.42541">
        <ele>1177.9</ele>
        <time>2015-09-18T08:04:46Z</time>
      </trkpt>
      <trkpt lat="44.81521" lon="3.4253">
        <ele>1178.6</ele>
        <time>2015-09-18T08:04:52Z</time>
      </trkpt>
      <trkpt lat="44.81516" lon="3.42519">
        <ele>1179.3</ele>
        <time>2015-09-18T08:04:57Z</time>
      </trkpt>
      <trkpt lat="44.81511" lon="3.42508">
        <ele>1179.8</ele>
        <time>2015-09-18T08:05:02Z</time>
      </trkpt>
      <trkpt lat="44.81505" lon="3.42498">
        <ele>1180.3</ele>
        <time>2015-09-18T08:05:07Z</time>
      </trkpt>
      <trkpt lat="44.815" lon="3.42486">
        <ele>1180.7</ele>
        <time>2015-09-18T08:05:12Z</time>
      </trkpt>
      <trkpt lat="44.81495" lon="3.42475">
        <ele>1181</ele>
        <time>2015-09-18T08:05:17Z</time>
      </trkpt>
      <trkpt lat="44.81491" lon="3.42462">
        <ele>1181.2</ele>
        <time>2015-09-18T08:05:21Z</time>
      </trkpt>
      <trkpt lat="44.81485" lon="3.42449">
        <ele>1181.3</ele>
        <time>2015-09-18T08:05:25Z</time>
      </trkpt>
      <trkpt lat="44.8148" lon="3.42438">
        <ele>1181.4</ele>
        <time>2015-09-18T08:05:28Z</time>
      </trkpt>
      <trkpt lat="44.81475" lon="3.42427">
        <ele>1181.5</ele>
        <time>2015-09-18T08:05:31Z</time>
      </trkpt>
      <trkpt lat="44.8147" lon="3.42416">
        <ele>1181.6</ele>
        <time>2015-09-18T08:05:34Z</time>
      </trkpt>
      <trkpt lat="44.81464" lon="3.42404">
        <ele>1181.8</ele>
        <time>2015-09-18T08:05:37Z</time>
      </trkpt>
      <trkpt lat="44.81459" lon="3.42394">
        <ele>1182</ele>
        <time>2015-09-18T08:05:40Z</time>
      </trkpt>
      <trkpt lat="44.81453" lon="3.42383">
        <ele>1182.1</ele>
        <time>2015-09-18T08:05:43Z</time>
      </trkpt>
      <trkpt lat="44.81447" lon="3.42373">
        <ele>1182.3</ele>
        <time>2015-09-18T08:05:46Z</time>
      </trkpt>
      <trkpt lat="44.81442" lon="3.42362">
        <ele>1182.5</ele>
        <time>2015-09-18T08:05:49Z</time>
      </trkpt>
      <trkpt lat="44.81435" lon="3.42353">
        <ele>1182.6</ele>
        <time>2015-09-18T08:05:52Z</time>
      </trkpt>
      <trkpt lat="44.81429" lon="3.42342">
        <ele>1182.7</ele>
        <time>2015-09-18T08:05:55Z</time>
      </trkpt>
      <trkpt lat="44.81422" lon="3.42332">
        <ele>1182.8</ele>
        <time>2015-09-18T08:05:58Z</time>
      </trkpt>
      <trkpt lat="44.81415" lon="3.42322">
        <ele>1182.9</ele>
        <time>2015-09-18T08:06:01Z</time>
      </trkpt>
      <trkpt lat="44.81407" lon="3.42311">
        <ele>1183</ele>
        <time>2015-09-18T08:06:04Z</time>
      </trkpt>
      <trkpt lat="44.814" lon="3.42301">
        <ele>1183.1</ele>
        <time>2015-09-18T08:06:07Z</time>
      </trkpt>
      <trkpt lat="44.81391" lon="3.42291">
        <ele>1183.1</ele>
        <time>2015-09-18T08:06:10Z</time>
      </trkpt>
      <trkpt lat="44.81383" lon="3.42281">
        <ele>1183.3</ele>
        <time>2015-09-18T08:06:13Z</time>
      </trkpt>
      <trkpt lat="44.81376" lon="3.4227">
        <ele>1183.3</ele>
        <time>2015-09-18T08:06:16Z</time>
      </trkpt>
      <trkpt lat="44.81369" lon="3.42258">
        <ele>1183.4</ele>
        <time>2015-09-18T08:06:19Z</time>
      </trkpt>
      <trkpt lat="44.81362" lon="3.42247">
        <ele>1183.6</ele>
        <time>2015-09-18T08:06:22Z</time>
      </trkpt>
      <trkpt lat="44.81354" lon="3.42237">
        <ele>1183.6</ele>
        <time>2015-09-18T08:06:25Z</time>
      </trkpt>
      <trkpt lat="44.81344" lon="3.4223">
        <ele>1183.8</ele>
        <time>2015-09-18T08:06:28Z</time>
      </trkpt>
      <trkpt lat="44.81335" lon="3.42224">
        <ele>1183.9</ele>
        <time>2015-09-18T08:06:31Z</time>
      </trkpt>
      <trkpt lat="44.81325" lon="3.42217">
        <ele>1184</ele>
        <time>2015-09-18T08:06:34Z</time>
      </trkpt>
      <trkpt lat="44.81316" lon="3.4221">
        <ele>1184.1</ele>
        <time>2015-09-18T08:06:37Z</time>
      </trkpt>
      <trkpt lat="44.81307" lon="3.42203">
        <ele>1184.2</ele>
        <time>2015-09-18T08:06:40Z</time>
      </trkpt>
      <trkpt lat="44.81299" lon="3.42195">
        <ele>1184.3</ele>
        <time>2015-09-18T08:06:43Z</time>
      </trkpt>
      <trkpt lat="44.8129" lon="3.42187">
        <ele>1184.5</ele>
        <time>2015-09-18T08:06:46Z</time>
      </trkpt>
      <trkpt lat="44.81281" lon="3.4218">
        <ele>1184.6</ele>
        <time>2015-09-18T08:06:49Z</time>
      </trkpt>
      <trkpt lat="44.81273" lon="3.42175">
        <ele>1184.7</ele>
        <time>2015-09-18T08:06:52Z</time>
      </trkpt>
      <trkpt lat="44.81264" lon="3.42169">
        <ele>1184.9</ele>
        <time>2015-09-18T08:06:55Z</time>
      </trkpt>
      <trkpt lat="44.81254" lon="3.42162">
        <ele>1185.1</ele>
        <time>2015-09-18T08:06:59Z</time>
      </trkpt>
      <trkpt lat="44.81245" lon="3.42159">
        <ele>1185.4</ele>
        <time>2015-09-18T08:07:02Z</time>
      </trkpt>
      <trkpt lat="44.81234" lon="3.42154">
        <ele>1185.9</ele>
        <time>2015-09-18T08:07:06Z</time>
      </trkpt>
      <trkpt lat="44.81224" lon="3.42149">
        <ele>1186.2</ele>
        <time>2015-09-18T08:07:09Z</time>
      </trkpt>
      <trkpt lat="44.81214" lon="3.42141">
        <ele>1186.6</ele>
        <time>2015-09-18T08:07:13Z</time>
      </trkpt>
      <trkpt lat="44.81206" lon="3.42135">
        <ele>1186.8</ele>
        <time>2015-09-18T08:07:16Z</time>
      </trkpt>
      <trkpt lat="44.81197" lon="3.42124">
        <ele>1187.1</ele>
        <time>2015-09-18T08:07:20Z</time>
      </trkpt>
      <trkpt lat="44.81188" lon="3.42115">
        <ele>1187.4</ele>
        <time>2015-09-18T08:07:23Z</time>
      </trkpt>
      <trkpt lat="44.8118" lon="3.42107">
        <ele>1187.7</ele>
        <time>2015-09-18T08:07:26Z</time>
      </trkpt>
      <trkpt lat="44.81175" lon="3.42096">
        <ele>1188.4</ele>
        <time>2015-09-18T08:07:32Z</time>
      </trkpt>
      <trkpt lat="44.81169" lon="3.42084">
        <ele>1189</ele>
        <time>2015-09-18T08:07:38Z</time>
      </trkpt>
      <trkpt lat="44.81166" lon="3.42071">
        <ele>1189.5</ele>
        <time>2015-09-18T08:07:44Z</time>
      </trkpt>
      <trkpt lat="44.81162" lon="3.42059">
        <ele>1190.1</ele>
        <time>2015-09-18T08:07:50Z</time>
      </trkpt>
      <trkpt lat="44.81158" lon="3.42047">
        <ele>1190.8</ele>
        <time>2015-09-18T08:07:57Z</time>
      </trkpt>
      <trkpt lat="44.81155" lon="3.42035">
        <ele>1191.3</ele>
        <time>2015-09-18T08:08:03Z</time>
      </trkpt>
      <trkpt lat="44.81151" lon="3.42024">
        <ele>1192</ele>
        <time>2015-09-18T08:08:10Z</time>
      </trkpt>
      <trkpt lat="44.81147" lon="3.42012">
        <ele>1192.8</ele>
        <time>2015-09-18T08:08:19Z</time>
      </trkpt>
      <trkpt lat="44.8114" lon="3.42003">
        <ele>1193.9</ele>
        <time>2015-09-18T08:09:22Z</time>
      </trkpt>
      <trkpt lat="44.81131" lon="3.41997">
        <ele>1193.9</ele>
        <time>2015-09-18T08:09:31Z</time>
      </trkpt>
      <trkpt lat="44.81138" lon="3.42005">
        <ele>1193.7</ele>
        <time>2015-09-18T08:10:42Z</time>
      </trkpt>
      <trkpt lat="44.81135" lon="3.41992">
        <ele>1193.9</ele>
        <time>2015-09-18T08:12:22Z</time>
      </trkpt>
      <trkpt lat="44.81131" lon="3.4198">
        <ele>1193.9</ele>
        <time>2015-09-18T08:12:32Z</time>
      </trkpt>
      <trkpt lat="44.81125" lon="3.4197">
        <ele>1193.9</ele>
        <time>2015-09-18T08:12:41Z</time>
      </trkpt>
      <trkpt lat="44.81119" lon="3.41959">
        <ele>1193.9</ele>
        <time>2015-09-18T08:12:48Z</time>
      </trkpt>
      <trkpt lat="44.81114" lon="3.41948">
        <ele>1193.9</ele>
        <time>2015-09-18T08:12:55Z</time>
      </trkpt>
      <trkpt lat="44.81107" lon="3.41937">
        <ele>1193.9</ele>
        <time>2015-09-18T08:13:01Z</time>
      </trkpt>
      <trkpt lat="44.811" lon="3.41925">
        <ele>1194.1</ele>
        <time>2015-09-18T08:13:50Z</time>
      </trkpt>
      <trkpt lat="44.81093" lon="3.41913">
        <ele>1194.1</ele>
        <time>2015-09-18T08:13:53Z</time>
      </trkpt>
      <trkpt lat="44.81087" lon="3.41903">
        <ele>1194.1</ele>
        <time>2015-09-18T08:13:55Z</time>
      </trkpt>
      <trkpt lat="44.81081" lon="3.41892">
        <ele>1194.1</ele>
        <time>2015-09-18T08:13:57Z</time>
      </trkpt>
      <trkpt lat="44.81074" lon="3.41883">
        <ele>1194.1</ele>
        <time>2015-09-18T08:13:59Z</time>
      </trkpt>
      <trkpt lat="44.81067" lon="3.41873">
        <ele>1194.1</ele>
        <time>2015-09-18T08:14:01Z</time>
      </trkpt>
      <trkpt lat="44.81061" lon="3.41863">
        <ele>1194.1</ele>
        <time>2015-09-18T08:14:03Z</time>
      </trkpt>
      <trkpt lat="44.81054" lon="3.41852">
        <ele>1194.1</ele>
        <time>2015-09-18T08:14:05Z</time>
      </trkpt>
      <trkpt lat="44.81047" lon="3.41842">
        <ele>1194.1</ele>
        <time>2015-09-18T08:14:07Z</time>
      </trkpt>
      <trkpt lat="44.81039" lon="3.4183">
        <ele>1194.1</ele>
        <time>2015-09-18T08:14:09Z</time>
      </trkpt>
      <trkpt lat="44.81031" lon="3.41819">
        <ele>1194.1</ele>
        <time>2015-09-18T08:14:11Z</time>
      </trkpt>
      <trkpt lat="44.81022" lon="3.41812">
        <ele>1194.1</ele>
        <time>2015-09-18T08:14:13Z</time>
      </trkpt>
      <trkpt lat="44.81016" lon="3.41802">
        <ele>1194.1</ele>
        <time>2015-09-18T08:14:15Z</time>
      </trkpt>
      <trkpt lat="44.81006" lon="3.41793">
        <ele>1193.9</ele>
        <time>2015-09-18T08:14:17Z</time>
      </trkpt>
      <trkpt lat="44.80996" lon="3.41779">
        <ele>1193.8</ele>
        <time>2015-09-18T08:14:19Z</time>
      </trkpt>
      <trkpt lat="44.80986" lon="3.41776">
        <ele>1193.7</ele>
        <time>2015-09-18T08:14:20Z</time>
      </trkpt>
      <trkpt lat="44.80977" lon="3.4177">
        <ele>1193.6</ele>
        <time>2015-09-18T08:14:21Z</time>
      </trkpt>
      <trkpt lat="44.80963" lon="3.41755">
        <ele>1193.2</ele>
        <time>2015-09-18T08:14:23Z</time>
      </trkpt>
      <trkpt lat="44.8095" lon="3.41739">
        <ele>1192.8</ele>
        <time>2015-09-18T08:14:25Z</time>
      </trkpt>
      <trkpt lat="44.80937" lon="3.41724">
        <ele>1192.4</ele>
        <time>2015-09-18T08:14:27Z</time>
      </trkpt>
      <trkpt lat="44.80925" lon="3.4171">
        <ele>1191.9</ele>
        <time>2015-09-18T08:14:29Z</time>
      </trkpt>
      <trkpt lat="44.80914" lon="3.41691">
        <ele>1191.5</ele>
        <time>2015-09-18T08:14:31Z</time>
      </trkpt>
      <trkpt lat="44.80904" lon="3.41671">
        <ele>1190.9</ele>
        <time>2015-09-18T08:14:33Z</time>
      </trkpt>
      <trkpt lat="44.80898" lon="3.41661">
        <ele>1190.5</ele>
        <time>2015-09-18T08:14:34Z</time>
      </trkpt>
      <trkpt lat="44.80892" lon="3.41652">
        <ele>1190.2</ele>
        <time>2015-09-18T08:14:35Z</time>
      </trkpt>
      <trkpt lat="44.80885" lon="3.41642">
        <ele>1189.7</ele>
        <time>2015-09-18T08:14:36Z</time>
      </trkpt>
      <trkpt lat="44.80878" lon="3.41632">
        <ele>1189.3</ele>
        <time>2015-09-18T08:14:37Z</time>
      </trkpt>
      <trkpt lat="44.80872" lon="3.41623">
        <ele>1188.8</ele>
        <time>2015-09-18T08:14:38Z</time>
      </trkpt>
      <trkpt lat="44.80865" lon="3.41614">
        <ele>1188.4</ele>
        <time>2015-09-18T08:14:39Z</time>
      </trkpt>
      <trkpt lat="44.80858" lon="3.41606">
        <ele>1187.9</ele>
        <time>2015-09-18T08:14:40Z</time>
      </trkpt>
      <trkpt lat="44.8085" lon="3.41599">
        <ele>1187.5</ele>
        <time>2015-09-18T08:14:41Z</time>
      </trkpt>
      <trkpt lat="44.80842" lon="3.41591">
        <ele>1187</ele>
        <time>2015-09-18T08:14:42Z</time>
      </trkpt>
      <trkpt lat="44.80833" lon="3.41585">
        <ele>1186.5</ele>
        <time>2015-09-18T08:14:43Z</time>
      </trkpt>
      <trkpt lat="44.80825" lon="3.41579">
        <ele>1186</ele>
        <time>2015-09-18T08:14:44Z</time>
      </trkpt>
      <trkpt lat="44.80815" lon="3.41576">
        <ele>1185.5</ele>
        <time>2015-09-18T08:14:45Z</time>
      </trkpt>
      <trkpt lat="44.80804" lon="3.41572">
        <ele>1185</ele>
        <time>2015-09-18T08:14:46Z</time>
      </trkpt>
      <trkpt lat="44.80796" lon="3.41566">
        <ele>1184.5</ele>
        <time>2015-09-18T08:14:47Z</time>
      </trkpt>
      <trkpt lat="44.80788" lon="3.41558">
        <ele>1184</ele>
        <time>2015-09-18T08:14:48Z</time>
      </trkpt>
      <trkpt lat="44.80773" lon="3.41546">
        <ele>1183.1</ele>
        <time>2015-09-18T08:14:50Z</time>
      </trkpt>
      <trkpt lat="44.80757" lon="3.41536">
        <ele>1182.1</ele>
        <time>2015-09-18T08:14:52Z</time>
      </trkpt>
      <trkpt lat="44.80741" lon="3.41526">
        <ele>1181.1</ele>
        <time>2015-09-18T08:14:54Z</time>
      </trkpt>
      <trkpt lat="44.80727" lon="3.41517">
        <ele>1180.2</ele>
        <time>2015-09-18T08:14:56Z</time>
      </trkpt>
      <trkpt lat="44.80712" lon="3.41508">
        <ele>1179.3</ele>
        <time>2015-09-18T08:14:58Z</time>
      </trkpt>
      <trkpt lat="44.80698" lon="3.41495">
        <ele>1178.5</ele>
        <time>2015-09-18T08:15:00Z</time>
      </trkpt>
      <trkpt lat="44.80684" lon="3.41484">
        <ele>1177.6</ele>
        <time>2015-09-18T08:15:02Z</time>
      </trkpt>
      <trkpt lat="44.80673" lon="3.41472">
        <ele>1176.8</ele>
        <time>2015-09-18T08:15:04Z</time>
      </trkpt>
      <trkpt lat="44.8066" lon="3.41461">
        <ele>1176.1</ele>
        <time>2015-09-18T08:15:06Z</time>
      </trkpt>
      <trkpt lat="44.80648" lon="3.4145">
        <ele>1175.2</ele>
        <time>2015-09-18T08:15:08Z</time>
      </trkpt>
      <trkpt lat="44.80637" lon="3.41443">
        <ele>1174.3</ele>
        <time>2015-09-18T08:15:10Z</time>
      </trkpt>
      <trkpt lat="44.80623" lon="3.4143">
        <ele>1173.7</ele>
        <time>2015-09-18T08:15:12Z</time>
      </trkpt>
      <trkpt lat="44.80612" lon="3.41421">
        <ele>1173</ele>
        <time>2015-09-18T08:15:14Z</time>
      </trkpt>
      <trkpt lat="44.80602" lon="3.41411">
        <ele>1172.3</ele>
        <time>2015-09-18T08:15:16Z</time>
      </trkpt>
      <trkpt lat="44.8059" lon="3.41405">
        <ele>1171.7</ele>
        <time>2015-09-18T08:15:18Z</time>
      </trkpt>
      <trkpt lat="44.80578" lon="3.41396">
        <ele>1171.1</ele>
        <time>2015-09-18T08:15:20Z</time>
      </trkpt>
      <trkpt lat="44.80567" lon="3.41386">
        <ele>1170.3</ele>
        <time>2015-09-18T08:15:22Z</time>
      </trkpt>
      <trkpt lat="44.80556" lon="3.41377">
        <ele>1169.5</ele>
        <time>2015-09-18T08:15:24Z</time>
      </trkpt>
      <trkpt lat="44.80544" lon="3.41368">
        <ele>1168.8</ele>
        <time>2015-09-18T08:15:26Z</time>
      </trkpt>
      <trkpt lat="44.80531" lon="3.41357">
        <ele>1168.2</ele>
        <time>2015-09-18T08:15:28Z</time>
      </trkpt>
      <trkpt lat="44.80519" lon="3.41341">
        <ele>1167.5</ele>
        <time>2015-09-18T08:15:30Z</time>
      </trkpt>
      <trkpt lat="44.8051" lon="3.41333">
        <ele>1167.2</ele>
        <time>2015-09-18T08:15:31Z</time>
      </trkpt>
      <trkpt lat="44.80503" lon="3.41324">
        <ele>1166.9</ele>
        <time>2015-09-18T08:15:32Z</time>
      </trkpt>
      <trkpt lat="44.80497" lon="3.41313">
        <ele>1166.6</ele>
        <time>2015-09-18T08:15:33Z</time>
      </trkpt>
      <trkpt lat="44.80487" lon="3.41297">
        <ele>1166.1</ele>
        <time>2015-09-18T08:15:35Z</time>
      </trkpt>
      <trkpt lat="44.80479" lon="3.41286">
        <ele>1165.6</ele>
        <time>2015-09-18T08:15:37Z</time>
      </trkpt>
      <trkpt lat="44.80468" lon="3.41275">
        <ele>1165</ele>
        <time>2015-09-18T08:15:39Z</time>
      </trkpt>
      <trkpt lat="44.80455" lon="3.41264">
        <ele>1164.4</ele>
        <time>2015-09-18T08:15:41Z</time>
      </trkpt>
      <trkpt lat="44.80445" lon="3.41245">
        <ele>1163.7</ele>
        <time>2015-09-18T08:15:43Z</time>
      </trkpt>
      <trkpt lat="44.80435" lon="3.41235">
        <ele>1163</ele>
        <time>2015-09-18T08:15:45Z</time>
      </trkpt>
      <trkpt lat="44.80425" lon="3.41226">
        <ele>1162.3</ele>
        <time>2015-09-18T08:15:47Z</time>
      </trkpt>
      <trkpt lat="44.80426" lon="3.41211">
        <ele>1161.6</ele>
        <time>2015-09-18T08:15:49Z</time>
      </trkpt>
      <trkpt lat="44.80431" lon="3.41193">
        <ele>1160.5</ele>
        <time>2015-09-18T08:15:52Z</time>
      </trkpt>
      <trkpt lat="44.80434" lon="3.41179">
        <ele>1159.5</ele>
        <time>2015-09-18T08:15:54Z</time>
      </trkpt>
      <trkpt lat="44.80436" lon="3.41165">
        <ele>1158.6</ele>
        <time>2015-09-18T08:15:56Z</time>
      </trkpt>
      <trkpt lat="44.80441" lon="3.41153">
        <ele>1157.8</ele>
        <time>2015-09-18T08:15:58Z</time>
      </trkpt>
      <trkpt lat="44.80448" lon="3.41143">
        <ele>1156.9</ele>
        <time>2015-09-18T08:16:00Z</time>
      </trkpt>
      <trkpt lat="44.80448" lon="3.41131">
        <ele>1156.5</ele>
        <time>2015-09-18T08:16:01Z</time>
      </trkpt>
      <trkpt lat="44.80456" lon="3.41111">
        <ele>1155.7</ele>
        <time>2015-09-18T08:16:03Z</time>
      </trkpt>
      <trkpt lat="44.80466" lon="3.41095">
        <ele>1154.8</ele>
        <time>2015-09-18T08:16:05Z</time>
      </trkpt>
      <trkpt lat="44.80473" lon="3.41077">
        <ele>1153.8</ele>
        <time>2015-09-18T08:16:07Z</time>
      </trkpt>
      <trkpt lat="44.80479" lon="3.41065">
        <ele>1152.9</ele>
        <time>2015-09-18T08:16:09Z</time>
      </trkpt>
      <trkpt lat="44.80486" lon="3.41053">
        <ele>1151.5</ele>
        <time>2015-09-18T08:16:12Z</time>
      </trkpt>
      <trkpt lat="44.80491" lon="3.41043">
        <ele>1150.3</ele>
        <time>2015-09-18T08:16:15Z</time>
      </trkpt>
      <trkpt lat="44.80499" lon="3.41035">
        <ele>1149.1</ele>
        <time>2015-09-18T08:16:18Z</time>
      </trkpt>
      <trkpt lat="44.8051" lon="3.41021">
        <ele>1148.3</ele>
        <time>2015-09-18T08:16:20Z</time>
      </trkpt>
      <trkpt lat="44.80518" lon="3.4101">
        <ele>1147.5</ele>
        <time>2015-09-18T08:16:22Z</time>
      </trkpt>
      <trkpt lat="44.80523" lon="3.40994">
        <ele>1146.7</ele>
        <time>2015-09-18T08:16:24Z</time>
      </trkpt>
      <trkpt lat="44.80532" lon="3.40978">
        <ele>1145.8</ele>
        <time>2015-09-18T08:16:26Z</time>
      </trkpt>
      <trkpt lat="44.80538" lon="3.40962">
        <ele>1144.8</ele>
        <time>2015-09-18T08:16:28Z</time>
      </trkpt>
      <trkpt lat="44.80541" lon="3.40945">
        <ele>1143.9</ele>
        <time>2015-09-18T08:16:30Z</time>
      </trkpt>
      <trkpt lat="44.80545" lon="3.40928">
        <ele>1142.6</ele>
        <time>2015-09-18T08:16:33Z</time>
      </trkpt>
      <trkpt lat="44.80548" lon="3.4091">
        <ele>1141.4</ele>
        <time>2015-09-18T08:16:36Z</time>
      </trkpt>
      <trkpt lat="44.80539" lon="3.40912">
        <ele>1138.6</ele>
        <time>2015-09-18T08:16:43Z</time>
      </trkpt>
      <trkpt lat="44.8053" lon="3.40923">
        <ele>1137.1</ele>
        <time>2015-09-18T08:16:47Z</time>
      </trkpt>
      <trkpt lat="44.80521" lon="3.40927">
        <ele>1136</ele>
        <time>2015-09-18T08:16:50Z</time>
      </trkpt>
      <trkpt lat="44.80512" lon="3.40935">
        <ele>1134.9</ele>
        <time>2015-09-18T08:16:53Z</time>
      </trkpt>
      <trkpt lat="44.805" lon="3.40941">
        <ele>1133.7</ele>
        <time>2015-09-18T08:16:56Z</time>
      </trkpt>
      <trkpt lat="44.80491" lon="3.40945">
        <ele>1133</ele>
        <time>2015-09-18T08:16:58Z</time>
      </trkpt>
      <trkpt lat="44.80477" lon="3.40952">
        <ele>1131.8</ele>
        <time>2015-09-18T08:17:01Z</time>
      </trkpt>
      <trkpt lat="44.80468" lon="3.40956">
        <ele>1131.1</ele>
        <time>2015-09-18T08:17:03Z</time>
      </trkpt>
      <trkpt lat="44.80458" lon="3.40959">
        <ele>1130.1</ele>
        <time>2015-09-18T08:17:05Z</time>
      </trkpt>
      <trkpt lat="44.80448" lon="3.40962">
        <ele>1129.2</ele>
        <time>2015-09-18T08:17:07Z</time>
      </trkpt>
      <trkpt lat="44.80438" lon="3.40968">
        <ele>1128.4</ele>
        <time>2015-09-18T08:17:09Z</time>
      </trkpt>
      <trkpt lat="44.80428" lon="3.40973">
        <ele>1127.7</ele>
        <time>2015-09-18T08:17:11Z</time>
      </trkpt>
      <trkpt lat="44.80418" lon="3.40975">
        <ele>1127</ele>
        <time>2015-09-18T08:17:13Z</time>
      </trkpt>
      <trkpt lat="44.80408" lon="3.4098">
        <ele>1126.3</ele>
        <time>2015-09-18T08:17:15Z</time>
      </trkpt>
      <trkpt lat="44.80396" lon="3.40984">
        <ele>1125.5</ele>
        <time>2015-09-18T08:17:17Z</time>
      </trkpt>
      <trkpt lat="44.80383" lon="3.40988">
        <ele>1124.7</ele>
        <time>2015-09-18T08:17:19Z</time>
      </trkpt>
      <trkpt lat="44.80371" lon="3.40995">
        <ele>1123.9</ele>
        <time>2015-09-18T08:17:21Z</time>
      </trkpt>
      <trkpt lat="44.80358" lon="3.41003">
        <ele>1123</ele>
        <time>2015-09-18T08:17:23Z</time>
      </trkpt>
      <trkpt lat="44.80347" lon="3.41013">
        <ele>1122.2</ele>
        <time>2015-09-18T08:17:25Z</time>
      </trkpt>
      <trkpt lat="44.80341" lon="3.41022">
        <ele>1121.3</ele>
        <time>2015-09-18T08:17:27Z</time>
      </trkpt>
      <trkpt lat="44.80334" lon="3.41031">
        <ele>1120.2</ele>
        <time>2015-09-18T08:17:29Z</time>
      </trkpt>
      <trkpt lat="44.80326" lon="3.4104">
        <ele>1119.3</ele>
        <time>2015-09-18T08:17:31Z</time>
      </trkpt>
      <trkpt lat="44.80317" lon="3.41048">
        <ele>1118.5</ele>
        <time>2015-09-18T08:17:33Z</time>
      </trkpt>
      <trkpt lat="44.80307" lon="3.41056">
        <ele>1117.6</ele>
        <time>2015-09-18T08:17:35Z</time>
      </trkpt>
      <trkpt lat="44.80298" lon="3.41069">
        <ele>1116.7</ele>
        <time>2015-09-18T08:17:37Z</time>
      </trkpt>
      <trkpt lat="44.80287" lon="3.4108">
        <ele>1115.9</ele>
        <time>2015-09-18T08:17:39Z</time>
      </trkpt>
      <trkpt lat="44.80278" lon="3.41092">
        <ele>1115.1</ele>
        <time>2015-09-18T08:17:41Z</time>
      </trkpt>
      <trkpt lat="44.8027" lon="3.41101">
        <ele>1114.3</ele>
        <time>2015-09-18T08:17:43Z</time>
      </trkpt>
      <trkpt lat="44.80259" lon="3.41105">
        <ele>1113</ele>
        <time>2015-09-18T08:17:46Z</time>
      </trkpt>
      <trkpt lat="44.80248" lon="3.41098">
        <ele>1111.7</ele>
        <time>2015-09-18T08:17:49Z</time>
      </trkpt>
      <trkpt lat="44.80249" lon="3.41083">
        <ele>1104.1</ele>
        <time>2015-09-18T08:19:25Z</time>
      </trkpt>
      <trkpt lat="44.80256" lon="3.41071">
        <ele>1104</ele>
        <time>2015-09-18T08:19:29Z</time>
      </trkpt>
      <trkpt lat="44.80262" lon="3.41057">
        <ele>1104</ele>
        <time>2015-09-18T08:19:32Z</time>
      </trkpt>
      <trkpt lat="44.80267" lon="3.41043">
        <ele>1103.9</ele>
        <time>2015-09-18T08:19:35Z</time>
      </trkpt>
      <trkpt lat="44.80272" lon="3.41028">
        <ele>1103.9</ele>
        <time>2015-09-18T08:19:38Z</time>
      </trkpt>
      <trkpt lat="44.80277" lon="3.41014">
        <ele>1103.8</ele>
        <time>2015-09-18T08:19:41Z</time>
      </trkpt>
      <trkpt lat="44.80282" lon="3.40999">
        <ele>1103.7</ele>
        <time>2015-09-18T08:19:44Z</time>
      </trkpt>
      <trkpt lat="44.80286" lon="3.40983">
        <ele>1103.5</ele>
        <time>2015-09-18T08:19:47Z</time>
      </trkpt>
      <trkpt lat="44.80291" lon="3.40968">
        <ele>1103.1</ele>
        <time>2015-09-18T08:19:50Z</time>
      </trkpt>
      <trkpt lat="44.80295" lon="3.40951">
        <ele>1102.6</ele>
        <time>2015-09-18T08:19:53Z</time>
      </trkpt>
      <trkpt lat="44.80299" lon="3.40937">
        <ele>1102.1</ele>
        <time>2015-09-18T08:19:56Z</time>
      </trkpt>
      <trkpt lat="44.80303" lon="3.4092">
        <ele>1101.3</ele>
        <time>2015-09-18T08:19:59Z</time>
      </trkpt>
      <trkpt lat="44.80303" lon="3.40903">
        <ele>1100.5</ele>
        <time>2015-09-18T08:20:02Z</time>
      </trkpt>
      <trkpt lat="44.80303" lon="3.40884">
        <ele>1099.8</ele>
        <time>2015-09-18T08:20:05Z</time>
      </trkpt>
      <trkpt lat="44.80302" lon="3.4087">
        <ele>1099.2</ele>
        <time>2015-09-18T08:20:07Z</time>
      </trkpt>
      <trkpt lat="44.80297" lon="3.40858">
        <ele>1098.7</ele>
        <time>2015-09-18T08:20:09Z</time>
      </trkpt>
      <trkpt lat="44.80291" lon="3.40848">
        <ele>1098.3</ele>
        <time>2015-09-18T08:20:11Z</time>
      </trkpt>
      <trkpt lat="44.80285" lon="3.40838">
        <ele>1097.8</ele>
        <time>2015-09-18T08:20:13Z</time>
      </trkpt>
      <trkpt lat="44.80279" lon="3.40827">
        <ele>1097.4</ele>
        <time>2015-09-18T08:20:15Z</time>
      </trkpt>
      <trkpt lat="44.8027" lon="3.40811">
        <ele>1096.8</ele>
        <time>2015-09-18T08:20:18Z</time>
      </trkpt>
      <trkpt lat="44.80264" lon="3.40801">
        <ele>1096.3</ele>
        <time>2015-09-18T08:20:20Z</time>
      </trkpt>
      <trkpt lat="44.80257" lon="3.40789">
        <ele>1095.9</ele>
        <time>2015-09-18T08:20:22Z</time>
      </trkpt>
      <trkpt lat="44.80254" lon="3.40775">
        <ele>1095.3</ele>
        <time>2015-09-18T08:20:24Z</time>
      </trkpt>
      <trkpt lat="44.80253" lon="3.40759">
        <ele>1094.4</ele>
        <time>2015-09-18T08:20:27Z</time>
      </trkpt>
      <trkpt lat="44.80248" lon="3.40741">
        <ele>1093.7</ele>
        <time>2015-09-18T08:20:29Z</time>
      </trkpt>
      <trkpt lat="44.8025" lon="3.40728">
        <ele>1093.1</ele>
        <time>2015-09-18T08:20:31Z</time>
      </trkpt>
      <trkpt lat="44.80252" lon="3.40714">
        <ele>1092.6</ele>
        <time>2015-09-18T08:20:33Z</time>
      </trkpt>
      <trkpt lat="44.80253" lon="3.40691">
        <ele>1092</ele>
        <time>2015-09-18T08:20:35Z</time>
      </trkpt>
      <trkpt lat="44.80251" lon="3.40674">
        <ele>1091.4</ele>
        <time>2015-09-18T08:20:37Z</time>
      </trkpt>
      <trkpt lat="44.8025" lon="3.40657">
        <ele>1090.9</ele>
        <time>2015-09-18T08:20:39Z</time>
      </trkpt>
      <trkpt lat="44.80255" lon="3.4064">
        <ele>1090.3</ele>
        <time>2015-09-18T08:20:41Z</time>
      </trkpt>
      <trkpt lat="44.8026" lon="3.40619">
        <ele>1089.8</ele>
        <time>2015-09-18T08:20:43Z</time>
      </trkpt>
      <trkpt lat="44.80264" lon="3.40599">
        <ele>1089.2</ele>
        <time>2015-09-18T08:20:45Z</time>
      </trkpt>
      <trkpt lat="44.80271" lon="3.40583">
        <ele>1088.5</ele>
        <time>2015-09-18T08:20:47Z</time>
      </trkpt>
      <trkpt lat="44.80273" lon="3.40564">
        <ele>1087.8</ele>
        <time>2015-09-18T08:20:49Z</time>
      </trkpt>
      <trkpt lat="44.80275" lon="3.40541">
        <ele>1087.1</ele>
        <time>2015-09-18T08:20:51Z</time>
      </trkpt>
      <trkpt lat="44.8028" lon="3.40519">
        <ele>1086.1</ele>
        <time>2015-09-18T08:20:53Z</time>
      </trkpt>
      <trkpt lat="44.80286" lon="3.40495">
        <ele>1084.9</ele>
        <time>2015-09-18T08:20:55Z</time>
      </trkpt>
      <trkpt lat="44.80289" lon="3.40482">
        <ele>1084.2</ele>
        <time>2015-09-18T08:20:56Z</time>
      </trkpt>
      <trkpt lat="44.80291" lon="3.40469">
        <ele>1083.5</ele>
        <time>2015-09-18T08:20:57Z</time>
      </trkpt>
      <trkpt lat="44.80294" lon="3.40457">
        <ele>1082.8</ele>
        <time>2015-09-18T08:20:58Z</time>
      </trkpt>
      <trkpt lat="44.80301" lon="3.40436">
        <ele>1081.2</ele>
        <time>2015-09-18T08:21:00Z</time>
      </trkpt>
      <trkpt lat="44.80304" lon="3.40417">
        <ele>1079.6</ele>
        <time>2015-09-18T08:21:02Z</time>
      </trkpt>
      <trkpt lat="44.80302" lon="3.40395">
        <ele>1078</ele>
        <time>2015-09-18T08:21:04Z</time>
      </trkpt>
      <trkpt lat="44.80298" lon="3.40379">
        <ele>1076.3</ele>
        <time>2015-09-18T08:21:06Z</time>
      </trkpt>
      <trkpt lat="44.80295" lon="3.40362">
        <ele>1074.7</ele>
        <time>2015-09-18T08:21:08Z</time>
      </trkpt>
      <trkpt lat="44.80293" lon="3.40345">
        <ele>1072.4</ele>
        <time>2015-09-18T08:21:11Z</time>
      </trkpt>
      <trkpt lat="44.80285" lon="3.40332">
        <ele>1069.9</ele>
        <time>2015-09-18T08:21:15Z</time>
      </trkpt>
      <trkpt lat="44.80276" lon="3.40321">
        <ele>1062.5</ele>
        <time>2015-09-18T08:21:39Z</time>
      </trkpt>
      <trkpt lat="44.80268" lon="3.40314">
        <ele>1062.1</ele>
        <time>2015-09-18T08:21:41Z</time>
      </trkpt>
      <trkpt lat="44.80261" lon="3.40301">
        <ele>1061.6</ele>
        <time>2015-09-18T08:21:43Z</time>
      </trkpt>
      <trkpt lat="44.80256" lon="3.40284">
        <ele>1060.9</ele>
        <time>2015-09-18T08:21:45Z</time>
      </trkpt>
      <trkpt lat="44.80251" lon="3.40265">
        <ele>1060.2</ele>
        <time>2015-09-18T08:21:47Z</time>
      </trkpt>
      <trkpt lat="44.80247" lon="3.40244">
        <ele>1059.4</ele>
        <time>2015-09-18T08:21:49Z</time>
      </trkpt>
      <trkpt lat="44.80244" lon="3.40225">
        <ele>1058.6</ele>
        <time>2015-09-18T08:21:51Z</time>
      </trkpt>
      <trkpt lat="44.80242" lon="3.40206">
        <ele>1057.6</ele>
        <time>2015-09-18T08:21:53Z</time>
      </trkpt>
      <trkpt lat="44.8024" lon="3.40185">
        <ele>1056.7</ele>
        <time>2015-09-18T08:21:55Z</time>
      </trkpt>
      <trkpt lat="44.80239" lon="3.40164">
        <ele>1055.7</ele>
        <time>2015-09-18T08:21:57Z</time>
      </trkpt>
      <trkpt lat="44.80237" lon="3.40141">
        <ele>1054.8</ele>
        <time>2015-09-18T08:21:59Z</time>
      </trkpt>
      <trkpt lat="44.80229" lon="3.4012">
        <ele>1053.9</ele>
        <time>2015-09-18T08:22:01Z</time>
      </trkpt>
      <trkpt lat="44.80219" lon="3.40103">
        <ele>1053.1</ele>
        <time>2015-09-18T08:22:03Z</time>
      </trkpt>
      <trkpt lat="44.8021" lon="3.40091">
        <ele>1052.2</ele>
        <time>2015-09-18T08:22:05Z</time>
      </trkpt>
      <trkpt lat="44.80201" lon="3.4008">
        <ele>1050.9</ele>
        <time>2015-09-18T08:22:08Z</time>
      </trkpt>
      <trkpt lat="44.80193" lon="3.40073">
        <ele>1049.4</ele>
        <time>2015-09-18T08:22:12Z</time>
      </trkpt>
      <trkpt lat="44.80184" lon="3.40066">
        <ele>1047.9</ele>
        <time>2015-09-18T08:22:17Z</time>
      </trkpt>
      <trkpt lat="44.80176" lon="3.40059">
        <ele>1047.1</ele>
        <time>2015-09-18T08:22:21Z</time>
      </trkpt>
      <trkpt lat="44.80167" lon="3.40051">
        <ele>1046.4</ele>
        <time>2015-09-18T08:22:25Z</time>
      </trkpt>
      <trkpt lat="44.80158" lon="3.40045">
        <ele>1046</ele>
        <time>2015-09-18T08:22:28Z</time>
      </trkpt>
      <trkpt lat="44.80148" lon="3.40039">
        <ele>1045.6</ele>
        <time>2015-09-18T08:22:31Z</time>
      </trkpt>
      <trkpt lat="44.80136" lon="3.40035">
        <ele>1045.3</ele>
        <time>2015-09-18T08:22:34Z</time>
      </trkpt>
      <trkpt lat="44.80127" lon="3.40029">
        <ele>1044.8</ele>
        <time>2015-09-18T08:22:38Z</time>
      </trkpt>
      <trkpt lat="44.80136" lon="3.40035">
        <ele>1043.8</ele>
        <time>2015-09-18T08:22:51Z</time>
      </trkpt>
      <trkpt lat="44.80129" lon="3.40024">
        <ele>1042.9</ele>
        <time>2015-09-18T08:23:49Z</time>
      </trkpt>
      <trkpt lat="44.80137" lon="3.40019">
        <ele>1042.7</ele>
        <time>2015-09-18T08:24:34Z</time>
      </trkpt>
      <trkpt lat="44.80146" lon="3.40014">
        <ele>1042.9</ele>
        <time>2015-09-18T08:28:10Z</time>
      </trkpt>
      <trkpt lat="44.80137" lon="3.40016">
        <ele>1042.9</ele>
        <time>2015-09-18T08:28:37Z</time>
      </trkpt>
      <trkpt lat="44.80127" lon="3.40017">
        <ele>1042.7</ele>
        <time>2015-09-18T08:29:46Z</time>
      </trkpt>
      <trkpt lat="44.80121" lon="3.40026">
        <ele>1042.6</ele>
        <time>2015-09-18T08:29:54Z</time>
      </trkpt>
      <trkpt lat="44.80116" lon="3.40016">
        <ele>1042.3</ele>
        <time>2015-09-18T08:30:01Z</time>
      </trkpt>
      <trkpt lat="44.8011" lon="3.40003">
        <ele>1040.9</ele>
        <time>2015-09-18T08:31:34Z</time>
      </trkpt>
      <trkpt lat="44.80103" lon="3.39987">
        <ele>1040.8</ele>
        <time>2015-09-18T08:31:38Z</time>
      </trkpt>
      <trkpt lat="44.80094" lon="3.39983">
        <ele>1040.7</ele>
        <time>2015-09-18T08:31:40Z</time>
      </trkpt>
      <trkpt lat="44.80084" lon="3.39996">
        <ele>1040.3</ele>
        <time>2015-09-18T08:31:42Z</time>
      </trkpt>
      <trkpt lat="44.80078" lon="3.40015">
        <ele>1039.7</ele>
        <time>2015-09-18T08:31:44Z</time>
      </trkpt>
      <trkpt lat="44.80072" lon="3.40026">
        <ele>1039.1</ele>
        <time>2015-09-18T08:31:46Z</time>
      </trkpt>
      <trkpt lat="44.80063" lon="3.40025">
        <ele>1036.9</ele>
        <time>2015-09-18T08:31:54Z</time>
      </trkpt>
      <trkpt lat="44.80053" lon="3.40019">
        <ele>1035.1</ele>
        <time>2015-09-18T08:32:06Z</time>
      </trkpt>
      <trkpt lat="44.80044" lon="3.40016">
        <ele>1034.9</ele>
        <time>2015-09-18T08:32:08Z</time>
      </trkpt>
      <trkpt lat="44.80033" lon="3.40012">
        <ele>1034.6</ele>
        <time>2015-09-18T08:32:10Z</time>
      </trkpt>
      <trkpt lat="44.80022" lon="3.40008">
        <ele>1034.3</ele>
        <time>2015-09-18T08:32:12Z</time>
      </trkpt>
      <trkpt lat="44.80009" lon="3.40004">
        <ele>1033.9</ele>
        <time>2015-09-18T08:32:14Z</time>
      </trkpt>
      <trkpt lat="44.79994" lon="3.4">
        <ele>1033.5</ele>
        <time>2015-09-18T08:32:16Z</time>
      </trkpt>
      <trkpt lat="44.79978" lon="3.39995">
        <ele>1033</ele>
        <time>2015-09-18T08:32:18Z</time>
      </trkpt>
      <trkpt lat="44.7996" lon="3.3999">
        <ele>1032.5</ele>
        <time>2015-09-18T08:32:20Z</time>
      </trkpt>
      <trkpt lat="44.79952" lon="3.39987">
        <ele>1032.2</ele>
        <time>2015-09-18T08:32:21Z</time>
      </trkpt>
      <trkpt lat="44.79934" lon="3.3998">
        <ele>1031.6</ele>
        <time>2015-09-18T08:32:23Z</time>
      </trkpt>
      <trkpt lat="44.79925" lon="3.39976">
        <ele>1031.3</ele>
        <time>2015-09-18T08:32:24Z</time>
      </trkpt>
      <trkpt lat="44.79916" lon="3.39972">
        <ele>1031</ele>
        <time>2015-09-18T08:32:25Z</time>
      </trkpt>
      <trkpt lat="44.79908" lon="3.39969">
        <ele>1030.7</ele>
        <time>2015-09-18T08:32:26Z</time>
      </trkpt>
      <trkpt lat="44.79891" lon="3.39963">
        <ele>1030</ele>
        <time>2015-09-18T08:32:28Z</time>
      </trkpt>
      <trkpt lat="44.79874" lon="3.39958">
        <ele>1029.4</ele>
        <time>2015-09-18T08:32:30Z</time>
      </trkpt>
      <trkpt lat="44.79858" lon="3.39954">
        <ele>1028.8</ele>
        <time>2015-09-18T08:32:32Z</time>
      </trkpt>
      <trkpt lat="44.79841" lon="3.39947">
        <ele>1028.1</ele>
        <time>2015-09-18T08:32:34Z</time>
      </trkpt>
      <trkpt lat="44.79825" lon="3.39939">
        <ele>1027.4</ele>
        <time>2015-09-18T08:32:36Z</time>
      </trkpt>
      <trkpt lat="44.79809" lon="3.39929">
        <ele>1026.7</ele>
        <time>2015-09-18T08:32:38Z</time>
      </trkpt>
      <trkpt lat="44.79794" lon="3.39918">
        <ele>1026</ele>
        <time>2015-09-18T08:32:40Z</time>
      </trkpt>
      <trkpt lat="44.7978" lon="3.39908">
        <ele>1025.3</ele>
        <time>2015-09-18T08:32:42Z</time>
      </trkpt>
      <trkpt lat="44.79764" lon="3.39898">
        <ele>1024.5</ele>
        <time>2015-09-18T08:32:44Z</time>
      </trkpt>
      <trkpt lat="44.79748" lon="3.3989">
        <ele>1023.8</ele>
        <time>2015-09-18T08:32:46Z</time>
      </trkpt>
      <trkpt lat="44.79732" lon="3.3988">
        <ele>1023.1</ele>
        <time>2015-09-18T08:32:48Z</time>
      </trkpt>
      <trkpt lat="44.79717" lon="3.39871">
        <ele>1022.4</ele>
        <time>2015-09-18T08:32:50Z</time>
      </trkpt>
      <trkpt lat="44.79703" lon="3.39863">
        <ele>1021.8</ele>
        <time>2015-09-18T08:32:52Z</time>
      </trkpt>
      <trkpt lat="44.79688" lon="3.39858">
        <ele>1021.1</ele>
        <time>2015-09-18T08:32:54Z</time>
      </trkpt>
      <trkpt lat="44.79673" lon="3.39852">
        <ele>1020.5</ele>
        <time>2015-09-18T08:32:56Z</time>
      </trkpt>
      <trkpt lat="44.79659" lon="3.39844">
        <ele>1020</ele>
        <time>2015-09-18T08:32:58Z</time>
      </trkpt>
      <trkpt lat="44.79645" lon="3.39834">
        <ele>1019.5</ele>
        <time>2015-09-18T08:33:00Z</time>
      </trkpt>
      <trkpt lat="44.79631" lon="3.39824">
        <ele>1019</ele>
        <time>2015-09-18T08:33:02Z</time>
      </trkpt>
      <trkpt lat="44.79619" lon="3.39813">
        <ele>1018.6</ele>
        <time>2015-09-18T08:33:04Z</time>
      </trkpt>
      <trkpt lat="44.79607" lon="3.39801">
        <ele>1018.2</ele>
        <time>2015-09-18T08:33:06Z</time>
      </trkpt>
      <trkpt lat="44.79597" lon="3.39789">
        <ele>1017.8</ele>
        <time>2015-09-18T08:33:08Z</time>
      </trkpt>
      <trkpt lat="44.79588" lon="3.39778">
        <ele>1017.5</ele>
        <time>2015-09-18T08:33:10Z</time>
      </trkpt>
      <trkpt lat="44.79581" lon="3.39766">
        <ele>1017.2</ele>
        <time>2015-09-18T08:33:12Z</time>
      </trkpt>
      <trkpt lat="44.79575" lon="3.39752">
        <ele>1016.9</ele>
        <time>2015-09-18T08:33:14Z</time>
      </trkpt>
      <trkpt lat="44.79568" lon="3.3974">
        <ele>1016.6</ele>
        <time>2015-09-18T08:33:16Z</time>
      </trkpt>
      <trkpt lat="44.79561" lon="3.39731">
        <ele>1016.4</ele>
        <time>2015-09-18T08:33:18Z</time>
      </trkpt>
      <trkpt lat="44.79554" lon="3.3972">
        <ele>1016.2</ele>
        <time>2015-09-18T08:33:20Z</time>
      </trkpt>
      <trkpt lat="44.79547" lon="3.3971">
        <ele>1016</ele>
        <time>2015-09-18T08:33:22Z</time>
      </trkpt>
      <trkpt lat="44.7954" lon="3.39701">
        <ele>1015.8</ele>
        <time>2015-09-18T08:33:24Z</time>
      </trkpt>
      <trkpt lat="44.79532" lon="3.39691">
        <ele>1015.6</ele>
        <time>2015-09-18T08:33:26Z</time>
      </trkpt>
      <trkpt lat="44.79524" lon="3.39681">
        <ele>1015.5</ele>
        <time>2015-09-18T08:33:28Z</time>
      </trkpt>
      <trkpt lat="44.79517" lon="3.39669">
        <ele>1015.4</ele>
        <time>2015-09-18T08:33:30Z</time>
      </trkpt>
      <trkpt lat="44.7951" lon="3.39659">
        <ele>1015.3</ele>
        <time>2015-09-18T08:33:32Z</time>
      </trkpt>
      <trkpt lat="44.79503" lon="3.39651">
        <ele>1015.2</ele>
        <time>2015-09-18T08:33:34Z</time>
      </trkpt>
      <trkpt lat="44.79495" lon="3.39642">
        <ele>1015.1</ele>
        <time>2015-09-18T08:33:36Z</time>
      </trkpt>
      <trkpt lat="44.79487" lon="3.39632">
        <ele>1015</ele>
        <time>2015-09-18T08:33:38Z</time>
      </trkpt>
      <trkpt lat="44.79479" lon="3.39624">
        <ele>1014.9</ele>
        <time>2015-09-18T08:33:40Z</time>
      </trkpt>
      <trkpt lat="44.79471" lon="3.39615">
        <ele>1014.8</ele>
        <time>2015-09-18T08:33:42Z</time>
      </trkpt>
      <trkpt lat="44.79463" lon="3.39603">
        <ele>1014.7</ele>
        <time>2015-09-18T08:33:44Z</time>
      </trkpt>
      <trkpt lat="44.79454" lon="3.3959">
        <ele>1014.2</ele>
        <time>2015-09-18T08:33:46Z</time>
      </trkpt>
      <trkpt lat="44.79445" lon="3.39578">
        <ele>1013.6</ele>
        <time>2015-09-18T08:33:48Z</time>
      </trkpt>
      <trkpt lat="44.7944" lon="3.39563">
        <ele>1012.8</ele>
        <time>2015-09-18T08:33:50Z</time>
      </trkpt>
      <trkpt lat="44.79438" lon="3.39546">
        <ele>1012</ele>
        <time>2015-09-18T08:33:52Z</time>
      </trkpt>
      <trkpt lat="44.79434" lon="3.39527">
        <ele>1011</ele>
        <time>2015-09-18T08:33:54Z</time>
      </trkpt>
      <trkpt lat="44.79426" lon="3.3951">
        <ele>1010</ele>
        <time>2015-09-18T08:33:56Z</time>
      </trkpt>
      <trkpt lat="44.79416" lon="3.39499">
        <ele>1009.1</ele>
        <time>2015-09-18T08:33:58Z</time>
      </trkpt>
      <trkpt lat="44.79407" lon="3.39493">
        <ele>1008.3</ele>
        <time>2015-09-18T08:34:00Z</time>
      </trkpt>
      <trkpt lat="44.79398" lon="3.39489">
        <ele>1007.6</ele>
        <time>2015-09-18T08:34:02Z</time>
      </trkpt>
      <trkpt lat="44.79385" lon="3.39483">
        <ele>1006.7</ele>
        <time>2015-09-18T08:34:05Z</time>
      </trkpt>
      <trkpt lat="44.79374" lon="3.39476">
        <ele>1006</ele>
        <time>2015-09-18T08:34:08Z</time>
      </trkpt>
      <trkpt lat="44.79364" lon="3.39468">
        <ele>1005.5</ele>
        <time>2015-09-18T08:34:11Z</time>
      </trkpt>
      <trkpt lat="44.79357" lon="3.39459">
        <ele>1005.2</ele>
        <time>2015-09-18T08:34:15Z</time>
      </trkpt>
      <trkpt lat="44.79349" lon="3.3945">
        <ele>1005.2</ele>
        <time>2015-09-18T08:34:18Z</time>
      </trkpt>
      <trkpt lat="44.7934" lon="3.39443">
        <ele>1005.3</ele>
        <time>2015-09-18T08:34:22Z</time>
      </trkpt>
      <trkpt lat="44.79332" lon="3.39434">
        <ele>1005.9</ele>
        <time>2015-09-18T08:34:27Z</time>
      </trkpt>
      <trkpt lat="44.79324" lon="3.39425">
        <ele>1006.7</ele>
        <time>2015-09-18T08:34:32Z</time>
      </trkpt>
      <trkpt lat="44.79316" lon="3.39417">
        <ele>1007.6</ele>
        <time>2015-09-18T08:34:37Z</time>
      </trkpt>
      <trkpt lat="44.79308" lon="3.39411">
        <ele>1008.4</ele>
        <time>2015-09-18T08:34:41Z</time>
      </trkpt>
      <trkpt lat="44.79302" lon="3.394">
        <ele>1009.2</ele>
        <time>2015-09-18T08:34:46Z</time>
      </trkpt>
      <trkpt lat="44.79295" lon="3.3939">
        <ele>1010.3</ele>
        <time>2015-09-18T08:34:52Z</time>
      </trkpt>
      <trkpt lat="44.79289" lon="3.39379">
        <ele>1011.2</ele>
        <time>2015-09-18T08:34:57Z</time>
      </trkpt>
      <trkpt lat="44.79282" lon="3.39369">
        <ele>1012</ele>
        <time>2015-09-18T08:35:02Z</time>
      </trkpt>
      <trkpt lat="44.79274" lon="3.3936">
        <ele>1012.9</ele>
        <time>2015-09-18T08:35:07Z</time>
      </trkpt>
      <trkpt lat="44.79265" lon="3.39352">
        <ele>1013.5</ele>
        <time>2015-09-18T08:35:12Z</time>
      </trkpt>
      <trkpt lat="44.79257" lon="3.39345">
        <ele>1014.1</ele>
        <time>2015-09-18T08:35:16Z</time>
      </trkpt>
      <trkpt lat="44.79248" lon="3.39337">
        <ele>1014.7</ele>
        <time>2015-09-18T08:35:21Z</time>
      </trkpt>
      <trkpt lat="44.7924" lon="3.3933">
        <ele>1015.3</ele>
        <time>2015-09-18T08:35:25Z</time>
      </trkpt>
      <trkpt lat="44.79231" lon="3.39324">
        <ele>1015.9</ele>
        <time>2015-09-18T08:35:30Z</time>
      </trkpt>
      <trkpt lat="44.79222" lon="3.39319">
        <ele>1016.6</ele>
        <time>2015-09-18T08:35:35Z</time>
      </trkpt>
      <trkpt lat="44.79211" lon="3.39315">
        <ele>1017.2</ele>
        <time>2015-09-18T08:35:40Z</time>
      </trkpt>
      <trkpt lat="44.79201" lon="3.3931">
        <ele>1017.8</ele>
        <time>2015-09-18T08:35:45Z</time>
      </trkpt>
      <trkpt lat="44.79192" lon="3.39306">
        <ele>1018.3</ele>
        <time>2015-09-18T08:35:50Z</time>
      </trkpt>
      <trkpt lat="44.79182" lon="3.39302">
        <ele>1018.7</ele>
        <time>2015-09-18T08:35:55Z</time>
      </trkpt>
      <trkpt lat="44.79171" lon="3.39298">
        <ele>1019.1</ele>
        <time>2015-09-18T08:36:00Z</time>
      </trkpt>
      <trkpt lat="44.7916" lon="3.39294">
        <ele>1019.6</ele>
        <time>2015-09-18T08:36:05Z</time>
      </trkpt>
      <trkpt lat="44.7915" lon="3.39291">
        <ele>1020.2</ele>
        <time>2015-09-18T08:36:10Z</time>
      </trkpt>
      <trkpt lat="44.79141" lon="3.39287">
        <ele>1020.6</ele>
        <time>2015-09-18T08:36:14Z</time>
      </trkpt>
      <trkpt lat="44.79132" lon="3.39284">
        <ele>1020.9</ele>
        <time>2015-09-18T08:36:18Z</time>
      </trkpt>
      <trkpt lat="44.79121" lon="3.39279">
        <ele>1021.3</ele>
        <time>2015-09-18T08:36:23Z</time>
      </trkpt>
      <trkpt lat="44.79112" lon="3.39276">
        <ele>1021.6</ele>
        <time>2015-09-18T08:36:27Z</time>
      </trkpt>
      <trkpt lat="44.79103" lon="3.39271">
        <ele>1021.9</ele>
        <time>2015-09-18T08:36:31Z</time>
      </trkpt>
      <trkpt lat="44.79095" lon="3.39268">
        <ele>1022.2</ele>
        <time>2015-09-18T08:36:35Z</time>
      </trkpt>
      <trkpt lat="44.79084" lon="3.39263">
        <ele>1022.5</ele>
        <time>2015-09-18T08:36:39Z</time>
      </trkpt>
      <trkpt lat="44.79076" lon="3.39257">
        <ele>1022.7</ele>
        <time>2015-09-18T08:36:42Z</time>
      </trkpt>
      <trkpt lat="44.79068" lon="3.3925">
        <ele>1022.8</ele>
        <time>2015-09-18T08:36:45Z</time>
      </trkpt>
      <trkpt lat="44.7906" lon="3.39244">
        <ele>1022.9</ele>
        <time>2015-09-18T08:36:48Z</time>
      </trkpt>
      <trkpt lat="44.79051" lon="3.39237">
        <ele>1023</ele>
        <time>2015-09-18T08:36:52Z</time>
      </trkpt>
      <trkpt lat="44.79043" lon="3.39227">
        <ele>1023.1</ele>
        <time>2015-09-18T08:36:57Z</time>
      </trkpt>
      <trkpt lat="44.79034" lon="3.39224">
        <ele>1023.2</ele>
        <time>2015-09-18T08:37:00Z</time>
      </trkpt>
      <trkpt lat="44.79025" lon="3.39217">
        <ele>1023.2</ele>
        <time>2015-09-18T08:37:03Z</time>
      </trkpt>
      <trkpt lat="44.79014" lon="3.39212">
        <ele>1023.3</ele>
        <time>2015-09-18T08:37:06Z</time>
      </trkpt>
      <trkpt lat="44.79004" lon="3.39205">
        <ele>1023.3</ele>
        <time>2015-09-18T08:37:09Z</time>
      </trkpt>
      <trkpt lat="44.78992" lon="3.39197">
        <ele>1023.3</ele>
        <time>2015-09-18T08:37:12Z</time>
      </trkpt>
      <trkpt lat="44.78981" lon="3.3919">
        <ele>1023.3</ele>
        <time>2015-09-18T08:37:15Z</time>
      </trkpt>
      <trkpt lat="44.78968" lon="3.39182">
        <ele>1023.2</ele>
        <time>2015-09-18T08:37:18Z</time>
      </trkpt>
      <trkpt lat="44.78958" lon="3.39172">
        <ele>1023.1</ele>
        <time>2015-09-18T08:37:21Z</time>
      </trkpt>
      <trkpt lat="44.78948" lon="3.39171">
        <ele>1022.9</ele>
        <time>2015-09-18T08:37:24Z</time>
      </trkpt>
      <trkpt lat="44.7894" lon="3.39184">
        <ele>1022.8</ele>
        <time>2015-09-18T08:37:27Z</time>
      </trkpt>
      <trkpt lat="44.78929" lon="3.39192">
        <ele>1022.7</ele>
        <time>2015-09-18T08:37:30Z</time>
      </trkpt>
      <trkpt lat="44.7892" lon="3.39195">
        <ele>1022.6</ele>
        <time>2015-09-18T08:37:32Z</time>
      </trkpt>
      <trkpt lat="44.7891" lon="3.39198">
        <ele>1022.6</ele>
        <time>2015-09-18T08:37:34Z</time>
      </trkpt>
      <trkpt lat="44.789" lon="3.39201">
        <ele>1022.5</ele>
        <time>2015-09-18T08:37:36Z</time>
      </trkpt>
      <trkpt lat="44.78889" lon="3.39203">
        <ele>1022.3</ele>
        <time>2015-09-18T08:37:38Z</time>
      </trkpt>
      <trkpt lat="44.78877" lon="3.39206">
        <ele>1022.2</ele>
        <time>2015-09-18T08:37:40Z</time>
      </trkpt>
      <trkpt lat="44.78864" lon="3.39209">
        <ele>1022</ele>
        <time>2015-09-18T08:37:42Z</time>
      </trkpt>
      <trkpt lat="44.78851" lon="3.39212">
        <ele>1021.8</ele>
        <time>2015-09-18T08:37:44Z</time>
      </trkpt>
      <trkpt lat="44.78837" lon="3.39215">
        <ele>1021.6</ele>
        <time>2015-09-18T08:37:46Z</time>
      </trkpt>
      <trkpt lat="44.78824" lon="3.39218">
        <ele>1021.4</ele>
        <time>2015-09-18T08:37:48Z</time>
      </trkpt>
      <trkpt lat="44.7881" lon="3.39221">
        <ele>1021.3</ele>
        <time>2015-09-18T08:37:50Z</time>
      </trkpt>
      <trkpt lat="44.78798" lon="3.39223">
        <ele>1021.2</ele>
        <time>2015-09-18T08:37:52Z</time>
      </trkpt>
      <trkpt lat="44.78786" lon="3.39225">
        <ele>1021</ele>
        <time>2015-09-18T08:37:54Z</time>
      </trkpt>
      <trkpt lat="44.78775" lon="3.39226">
        <ele>1020.9</ele>
        <time>2015-09-18T08:37:56Z</time>
      </trkpt>
      <trkpt lat="44.78764" lon="3.39227">
        <ele>1020.8</ele>
        <time>2015-09-18T08:37:58Z</time>
      </trkpt>
      <trkpt lat="44.78754" lon="3.39228">
        <ele>1020.8</ele>
        <time>2015-09-18T08:38:00Z</time>
      </trkpt>
      <trkpt lat="44.78742" lon="3.39228">
        <ele>1020.7</ele>
        <time>2015-09-18T08:38:02Z</time>
      </trkpt>
      <trkpt lat="44.78731" lon="3.39227">
        <ele>1020.6</ele>
        <time>2015-09-18T08:38:04Z</time>
      </trkpt>
      <trkpt lat="44.78719" lon="3.39226">
        <ele>1020.6</ele>
        <time>2015-09-18T08:38:06Z</time>
      </trkpt>
      <trkpt lat="44.78708" lon="3.39225">
        <ele>1020.5</ele>
        <time>2015-09-18T08:38:08Z</time>
      </trkpt>
      <trkpt lat="44.78698" lon="3.39223">
        <ele>1020.5</ele>
        <time>2015-09-18T08:38:10Z</time>
      </trkpt>
      <trkpt lat="44.78688" lon="3.3922">
        <ele>1020.5</ele>
        <time>2015-09-18T08:38:12Z</time>
      </trkpt>
      <trkpt lat="44.78679" lon="3.39217">
        <ele>1020.7</ele>
        <time>2015-09-18T08:38:14Z</time>
      </trkpt>
      <trkpt lat="44.78666" lon="3.39215">
        <ele>1020.9</ele>
        <time>2015-09-18T08:38:17Z</time>
      </trkpt>
      <trkpt lat="44.78655" lon="3.39214">
        <ele>1021.1</ele>
        <time>2015-09-18T08:38:20Z</time>
      </trkpt>
      <trkpt lat="44.78643" lon="3.39214">
        <ele>1021.4</ele>
        <time>2015-09-18T08:38:23Z</time>
      </trkpt>
      <trkpt lat="44.78631" lon="3.39214">
        <ele>1021.8</ele>
        <time>2015-09-18T08:38:26Z</time>
      </trkpt>
      <trkpt lat="44.78619" lon="3.39217">
        <ele>1022.2</ele>
        <time>2015-09-18T08:38:29Z</time>
      </trkpt>
      <trkpt lat="44.78609" lon="3.39219">
        <ele>1022.5</ele>
        <time>2015-09-18T08:38:32Z</time>
      </trkpt>
      <trkpt lat="44.786" lon="3.39219">
        <ele>1022.9</ele>
        <time>2015-09-18T08:38:35Z</time>
      </trkpt>
      <trkpt lat="44.78591" lon="3.3922">
        <ele>1023.2</ele>
        <time>2015-09-18T08:38:39Z</time>
      </trkpt>
      <trkpt lat="44.786" lon="3.39222">
        <ele>1023.8</ele>
        <time>2015-09-18T08:38:48Z</time>
      </trkpt>
      <trkpt lat="44.78609" lon="3.39218">
        <ele>1023.9</ele>
        <time>2015-09-18T08:38:52Z</time>
      </trkpt>
      <trkpt lat="44.78619" lon="3.39218">
        <ele>1024.2</ele>
        <time>2015-09-18T08:38:59Z</time>
      </trkpt>
      <trkpt lat="44.78627" lon="3.39211">
        <ele>1024.4</ele>
        <time>2015-09-18T08:39:07Z</time>
      </trkpt>
      <trkpt lat="44.78619" lon="3.39216">
        <ele>1024.6</ele>
        <time>2015-09-18T08:39:44Z</time>
      </trkpt>
      <trkpt lat="44.78608" lon="3.39217">
        <ele>1024.6</ele>
        <time>2015-09-18T08:39:56Z</time>
      </trkpt>
      <trkpt lat="44.78598" lon="3.39217">
        <ele>1024.7</ele>
        <time>2015-09-18T08:40:00Z</time>
      </trkpt>
      <trkpt lat="44.78588" lon="3.39219">
        <ele>1024.7</ele>
        <time>2015-09-18T08:40:03Z</time>
      </trkpt>
      <trkpt lat="44.78577" lon="3.39222">
        <ele>1024.7</ele>
        <time>2015-09-18T08:40:06Z</time>
      </trkpt>
      <trkpt lat="44.78565" lon="3.39227">
        <ele>1024.6</ele>
        <time>2015-09-18T08:40:09Z</time>
      </trkpt>
      <trkpt lat="44.78556" lon="3.39232">
        <ele>1024.5</ele>
        <time>2015-09-18T08:40:11Z</time>
      </trkpt>
      <trkpt lat="44.78547" lon="3.39236">
        <ele>1024.4</ele>
        <time>2015-09-18T08:40:13Z</time>
      </trkpt>
      <trkpt lat="44.78535" lon="3.39242">
        <ele>1024.2</ele>
        <time>2015-09-18T08:40:16Z</time>
      </trkpt>
      <trkpt lat="44.78526" lon="3.39247">
        <ele>1023.9</ele>
        <time>2015-09-18T08:40:18Z</time>
      </trkpt>
      <trkpt lat="44.78518" lon="3.39253">
        <ele>1023.7</ele>
        <time>2015-09-18T08:40:20Z</time>
      </trkpt>
      <trkpt lat="44.78507" lon="3.3926">
        <ele>1023.3</ele>
        <time>2015-09-18T08:40:23Z</time>
      </trkpt>
      <trkpt lat="44.78496" lon="3.39267">
        <ele>1022.9</ele>
        <time>2015-09-18T08:40:26Z</time>
      </trkpt>
      <trkpt lat="44.78486" lon="3.39271">
        <ele>1022.5</ele>
        <time>2015-09-18T08:40:29Z</time>
      </trkpt>
      <trkpt lat="44.78477" lon="3.39277">
        <ele>1022.1</ele>
        <time>2015-09-18T08:40:32Z</time>
      </trkpt>
      <trkpt lat="44.78467" lon="3.39283">
        <ele>1021.6</ele>
        <time>2015-09-18T08:40:35Z</time>
      </trkpt>
      <trkpt lat="44.78458" lon="3.39288">
        <ele>1021.1</ele>
        <time>2015-09-18T08:40:38Z</time>
      </trkpt>
      <trkpt lat="44.78447" lon="3.39294">
        <ele>1020.5</ele>
        <time>2015-09-18T08:40:42Z</time>
      </trkpt>
      <trkpt lat="44.78438" lon="3.393">
        <ele>1018.5</ele>
        <time>2015-09-18T08:41:01Z</time>
      </trkpt>
      <trkpt lat="44.78429" lon="3.39305">
        <ele>1018.2</ele>
        <time>2015-09-18T08:41:05Z</time>
      </trkpt>
      <trkpt lat="44.78418" lon="3.39309">
        <ele>1017.9</ele>
        <time>2015-09-18T08:41:08Z</time>
      </trkpt>
      <trkpt lat="44.78405" lon="3.39313">
        <ele>1017.6</ele>
        <time>2015-09-18T08:41:11Z</time>
      </trkpt>
      <trkpt lat="44.78395" lon="3.39316">
        <ele>1017.3</ele>
        <time>2015-09-18T08:41:13Z</time>
      </trkpt>
      <trkpt lat="44.78384" lon="3.39319">
        <ele>1016.9</ele>
        <time>2015-09-18T08:41:15Z</time>
      </trkpt>
      <trkpt lat="44.78372" lon="3.39323">
        <ele>1016.6</ele>
        <time>2015-09-18T08:41:17Z</time>
      </trkpt>
      <trkpt lat="44.7836" lon="3.39328">
        <ele>1016.2</ele>
        <time>2015-09-18T08:41:19Z</time>
      </trkpt>
      <trkpt lat="44.78347" lon="3.39334">
        <ele>1015.8</ele>
        <time>2015-09-18T08:41:21Z</time>
      </trkpt>
      <trkpt lat="44.78333" lon="3.39341">
        <ele>1015.3</ele>
        <time>2015-09-18T08:41:23Z</time>
      </trkpt>
      <trkpt lat="44.78318" lon="3.39337">
        <ele>1014.8</ele>
        <time>2015-09-18T08:41:25Z</time>
      </trkpt>
      <trkpt lat="44.78306" lon="3.39323">
        <ele>1014.2</ele>
        <time>2015-09-18T08:41:27Z</time>
      </trkpt>
      <trkpt lat="44.78297" lon="3.39307">
        <ele>1013.7</ele>
        <time>2015-09-18T08:41:29Z</time>
      </trkpt>
      <trkpt lat="44.78288" lon="3.39291">
        <ele>1013.3</ele>
        <time>2015-09-18T08:41:31Z</time>
      </trkpt>
      <trkpt lat="44.7828" lon="3.39277">
        <ele>1012.9</ele>
        <time>2015-09-18T08:41:33Z</time>
      </trkpt>
      <trkpt lat="44.78271" lon="3.39264">
        <ele>1012.5</ele>
        <time>2015-09-18T08:41:35Z</time>
      </trkpt>
      <trkpt lat="44.78263" lon="3.39253">
        <ele>1012.2</ele>
        <time>2015-09-18T08:41:37Z</time>
      </trkpt>
      <trkpt lat="44.78256" lon="3.39243">
        <ele>1011.9</ele>
        <time>2015-09-18T08:41:39Z</time>
      </trkpt>
      <trkpt lat="44.78248" lon="3.39233">
        <ele>1011.7</ele>
        <time>2015-09-18T08:41:41Z</time>
      </trkpt>
      <trkpt lat="44.78241" lon="3.39225">
        <ele>1011.4</ele>
        <time>2015-09-18T08:41:43Z</time>
      </trkpt>
      <trkpt lat="44.78233" lon="3.39217">
        <ele>1011.2</ele>
        <time>2015-09-18T08:41:45Z</time>
      </trkpt>
      <trkpt lat="44.78225" lon="3.39211">
        <ele>1011.1</ele>
        <time>2015-09-18T08:41:47Z</time>
      </trkpt>
      <trkpt lat="44.78216" lon="3.39207">
        <ele>1010.9</ele>
        <time>2015-09-18T08:41:49Z</time>
      </trkpt>
      <trkpt lat="44.78204" lon="3.39208">
        <ele>1010.7</ele>
        <time>2015-09-18T08:41:52Z</time>
      </trkpt>
      <trkpt lat="44.78191" lon="3.39207">
        <ele>1010.6</ele>
        <time>2015-09-18T08:41:55Z</time>
      </trkpt>
      <trkpt lat="44.78177" lon="3.39207">
        <ele>1010.5</ele>
        <time>2015-09-18T08:41:58Z</time>
      </trkpt>
      <trkpt lat="44.78164" lon="3.39208">
        <ele>1010.5</ele>
        <time>2015-09-18T08:42:01Z</time>
      </trkpt>
      <trkpt lat="44.78151" lon="3.39207">
        <ele>1010.4</ele>
        <time>2015-09-18T08:42:04Z</time>
      </trkpt>
      <trkpt lat="44.78138" lon="3.39207">
        <ele>1010.5</ele>
        <time>2015-09-18T08:42:07Z</time>
      </trkpt>
      <trkpt lat="44.78126" lon="3.39206">
        <ele>1010.6</ele>
        <time>2015-09-18T08:42:10Z</time>
      </trkpt>
      <trkpt lat="44.78113" lon="3.39208">
        <ele>1010.7</ele>
        <time>2015-09-18T08:42:13Z</time>
      </trkpt>
      <trkpt lat="44.781" lon="3.39211">
        <ele>1010.8</ele>
        <time>2015-09-18T08:42:16Z</time>
      </trkpt>
      <trkpt lat="44.78089" lon="3.39214">
        <ele>1010.8</ele>
        <time>2015-09-18T08:42:18Z</time>
      </trkpt>
      <trkpt lat="44.78078" lon="3.39217">
        <ele>1010.9</ele>
        <time>2015-09-18T08:42:20Z</time>
      </trkpt>
      <trkpt lat="44.78067" lon="3.3922">
        <ele>1010.9</ele>
        <time>2015-09-18T08:42:22Z</time>
      </trkpt>
      <trkpt lat="44.78055" lon="3.39223">
        <ele>1011</ele>
        <time>2015-09-18T08:42:24Z</time>
      </trkpt>
      <trkpt lat="44.78043" lon="3.39226">
        <ele>1011</ele>
        <time>2015-09-18T08:42:26Z</time>
      </trkpt>
      <trkpt lat="44.78031" lon="3.3922">
        <ele>1011</ele>
        <time>2015-09-18T08:42:28Z</time>
      </trkpt>
      <trkpt lat="44.78019" lon="3.3921">
        <ele>1011</ele>
        <time>2015-09-18T08:42:30Z</time>
      </trkpt>
      <trkpt lat="44.78008" lon="3.39199">
        <ele>1010.9</ele>
        <time>2015-09-18T08:42:32Z</time>
      </trkpt>
      <trkpt lat="44.77998" lon="3.39185">
        <ele>1010.7</ele>
        <time>2015-09-18T08:42:34Z</time>
      </trkpt>
      <trkpt lat="44.77987" lon="3.39171">
        <ele>1010.4</ele>
        <time>2015-09-18T08:42:36Z</time>
      </trkpt>
      <trkpt lat="44.77975" lon="3.39156">
        <ele>1010</ele>
        <time>2015-09-18T08:42:38Z</time>
      </trkpt>
      <trkpt lat="44.77967" lon="3.39135">
        <ele>1009.5</ele>
        <time>2015-09-18T08:42:40Z</time>
      </trkpt>
      <trkpt lat="44.77968" lon="3.39122">
        <ele>1009.2</ele>
        <time>2015-09-18T08:42:41Z</time>
      </trkpt>
      <trkpt lat="44.7797" lon="3.3911">
        <ele>1008.8</ele>
        <time>2015-09-18T08:42:42Z</time>
      </trkpt>
      <trkpt lat="44.77974" lon="3.39098">
        <ele>1008.3</ele>
        <time>2015-09-18T08:42:43Z</time>
      </trkpt>
      <trkpt lat="44.77979" lon="3.39086">
        <ele>1007.9</ele>
        <time>2015-09-18T08:42:44Z</time>
      </trkpt>
      <trkpt lat="44.77984" lon="3.39073">
        <ele>1007.3</ele>
        <time>2015-09-18T08:42:45Z</time>
      </trkpt>
      <trkpt lat="44.77989" lon="3.39061">
        <ele>1006.7</ele>
        <time>2015-09-18T08:42:46Z</time>
      </trkpt>
      <trkpt lat="44.77995" lon="3.39048">
        <ele>1006.2</ele>
        <time>2015-09-18T08:42:47Z</time>
      </trkpt>
      <trkpt lat="44.78001" lon="3.39036">
        <ele>1005.5</ele>
        <time>2015-09-18T08:42:48Z</time>
      </trkpt>
      <trkpt lat="44.78009" lon="3.39025">
        <ele>1004.9</ele>
        <time>2015-09-18T08:42:49Z</time>
      </trkpt>
      <trkpt lat="44.78017" lon="3.39015">
        <ele>1004.2</ele>
        <time>2015-09-18T08:42:50Z</time>
      </trkpt>
      <trkpt lat="44.78026" lon="3.39005">
        <ele>1003.5</ele>
        <time>2015-09-18T08:42:51Z</time>
      </trkpt>
      <trkpt lat="44.78035" lon="3.38995">
        <ele>1002.8</ele>
        <time>2015-09-18T08:42:52Z</time>
      </trkpt>
      <trkpt lat="44.78044" lon="3.38986">
        <ele>1002.1</ele>
        <time>2015-09-18T08:42:53Z</time>
      </trkpt>
      <trkpt lat="44.78054" lon="3.38977">
        <ele>1001.2</ele>
        <time>2015-09-18T08:42:54Z</time>
      </trkpt>
      <trkpt lat="44.78064" lon="3.38968">
        <ele>1000.4</ele>
        <time>2015-09-18T08:42:55Z</time>
      </trkpt>
      <trkpt lat="44.78074" lon="3.3896">
        <ele>999.6</ele>
        <time>2015-09-18T08:42:56Z</time>
      </trkpt>
      <trkpt lat="44.78085" lon="3.38953">
        <ele>998.7</ele>
        <time>2015-09-18T08:42:57Z</time>
      </trkpt>
      <trkpt lat="44.78094" lon="3.38948">
        <ele>997.8</ele>
        <time>2015-09-18T08:42:58Z</time>
      </trkpt>
      <trkpt lat="44.78107" lon="3.38937">
        <ele>996.1</ele>
        <time>2015-09-18T08:43:00Z</time>
      </trkpt>
      <trkpt lat="44.78108" lon="3.38919">
        <ele>994.7</ele>
        <time>2015-09-18T08:43:02Z</time>
      </trkpt>
      <trkpt lat="44.78105" lon="3.389">
        <ele>993.3</ele>
        <time>2015-09-18T08:43:04Z</time>
      </trkpt>
      <trkpt lat="44.78111" lon="3.38882">
        <ele>991.9</ele>
        <time>2015-09-18T08:43:06Z</time>
      </trkpt>
      <trkpt lat="44.78119" lon="3.38869">
        <ele>990.5</ele>
        <time>2015-09-18T08:43:08Z</time>
      </trkpt>
      <trkpt lat="44.78125" lon="3.38856">
        <ele>989.2</ele>
        <time>2015-09-18T08:43:10Z</time>
      </trkpt>
      <trkpt lat="44.78126" lon="3.38844">
        <ele>988</ele>
        <time>2015-09-18T08:43:12Z</time>
      </trkpt>
      <trkpt lat="44.78135" lon="3.38837">
        <ele>981.5</ele>
        <time>2015-09-18T08:43:27Z</time>
      </trkpt>
      <trkpt lat="44.78148" lon="3.38835">
        <ele>980.6</ele>
        <time>2015-09-18T08:43:30Z</time>
      </trkpt>
      <trkpt lat="44.78162" lon="3.38839">
        <ele>979.9</ele>
        <time>2015-09-18T08:43:32Z</time>
      </trkpt>
      <trkpt lat="44.78178" lon="3.3884">
        <ele>978.9</ele>
        <time>2015-09-18T08:43:34Z</time>
      </trkpt>
      <trkpt lat="44.78197" lon="3.3884">
        <ele>977.9</ele>
        <time>2015-09-18T08:43:36Z</time>
      </trkpt>
      <trkpt lat="44.78211" lon="3.38838">
        <ele>976.8</ele>
        <time>2015-09-18T08:43:38Z</time>
      </trkpt>
      <trkpt lat="44.7822" lon="3.38829">
        <ele>975.7</ele>
        <time>2015-09-18T08:43:40Z</time>
      </trkpt>
      <trkpt lat="44.78221" lon="3.38816">
        <ele>974.5</ele>
        <time>2015-09-18T08:43:42Z</time>
      </trkpt>
      <trkpt lat="44.78212" lon="3.38808">
        <ele>973.3</ele>
        <time>2015-09-18T08:43:44Z</time>
      </trkpt>
      <trkpt lat="44.78202" lon="3.38804">
        <ele>972.3</ele>
        <time>2015-09-18T08:43:46Z</time>
      </trkpt>
      <trkpt lat="44.7819" lon="3.38799">
        <ele>971.3</ele>
        <time>2015-09-18T08:43:48Z</time>
      </trkpt>
      <trkpt lat="44.78178" lon="3.38798">
        <ele>970.5</ele>
        <time>2015-09-18T08:43:50Z</time>
      </trkpt>
      <trkpt lat="44.78169" lon="3.38795">
        <ele>969.7</ele>
        <time>2015-09-18T08:43:52Z</time>
      </trkpt>
      <trkpt lat="44.78161" lon="3.38801">
        <ele>965.1</ele>
        <time>2015-09-18T08:44:17Z</time>
      </trkpt>
      <trkpt lat="44.78151" lon="3.38797">
        <ele>963.7</ele>
        <time>2015-09-18T08:47:27Z</time>
      </trkpt>
      <trkpt lat="44.78143" lon="3.388">
        <ele>961.8</ele>
        <time>2015-09-18T08:56:45Z</time>
      </trkpt>
      <trkpt lat="44.78134" lon="3.38793">
        <ele>961.3</ele>
        <time>2015-09-18T09:00:20Z</time>
      </trkpt>
      <trkpt lat="44.78121" lon="3.38781">
        <ele>961.2</ele>
        <time>2015-09-18T09:00:26Z</time>
      </trkpt>
      <trkpt lat="44.78111" lon="3.38775">
        <ele>961</ele>
        <time>2015-09-18T09:00:29Z</time>
      </trkpt>
      <trkpt lat="44.78099" lon="3.3877">
        <ele>960.7</ele>
        <time>2015-09-18T09:00:32Z</time>
      </trkpt>
      <trkpt lat="44.78102" lon="3.38755">
        <ele>959.5</ele>
        <time>2015-09-18T09:00:39Z</time>
      </trkpt>
      <trkpt lat="44.78112" lon="3.38743">
        <ele>959</ele>
        <time>2015-09-18T09:00:42Z</time>
      </trkpt>
      <trkpt lat="44.7812" lon="3.38737">
        <ele>958.2</ele>
        <time>2015-09-18T09:00:45Z</time>
      </trkpt>
      <trkpt lat="44.78131" lon="3.38734">
        <ele>957.3</ele>
        <time>2015-09-18T09:00:48Z</time>
      </trkpt>
      <trkpt lat="44.78137" lon="3.38722">
        <ele>956.6</ele>
        <time>2015-09-18T09:00:51Z</time>
      </trkpt>
      <trkpt lat="44.78142" lon="3.38709">
        <ele>956</ele>
        <time>2015-09-18T09:00:53Z</time>
      </trkpt>
      <trkpt lat="44.7815" lon="3.38695">
        <ele>955.3</ele>
        <time>2015-09-18T09:00:55Z</time>
      </trkpt>
      <trkpt lat="44.78157" lon="3.38684">
        <ele>954.1</ele>
        <time>2015-09-18T09:00:59Z</time>
      </trkpt>
      <trkpt lat="44.78159" lon="3.38669">
        <ele>951.7</ele>
        <time>2015-09-18T09:01:08Z</time>
      </trkpt>
      <trkpt lat="44.78151" lon="3.38659">
        <ele>950.9</ele>
        <time>2015-09-18T09:01:12Z</time>
      </trkpt>
      <trkpt lat="44.7814" lon="3.38656">
        <ele>950.4</ele>
        <time>2015-09-18T09:01:15Z</time>
      </trkpt>
      <trkpt lat="44.78129" lon="3.38649">
        <ele>950</ele>
        <time>2015-09-18T09:01:18Z</time>
      </trkpt>
      <trkpt lat="44.78117" lon="3.38642">
        <ele>949.7</ele>
        <time>2015-09-18T09:01:21Z</time>
      </trkpt>
      <trkpt lat="44.78104" lon="3.38636">
        <ele>949.3</ele>
        <time>2015-09-18T09:01:24Z</time>
      </trkpt>
      <trkpt lat="44.78095" lon="3.38632">
        <ele>949.1</ele>
        <time>2015-09-18T09:01:26Z</time>
      </trkpt>
      <trkpt lat="44.78087" lon="3.38627">
        <ele>948.9</ele>
        <time>2015-09-18T09:01:28Z</time>
      </trkpt>
      <trkpt lat="44.78079" lon="3.3862">
        <ele>948.7</ele>
        <time>2015-09-18T09:01:30Z</time>
      </trkpt>
      <trkpt lat="44.78071" lon="3.38613">
        <ele>948.4</ele>
        <time>2015-09-18T09:01:32Z</time>
      </trkpt>
      <trkpt lat="44.78064" lon="3.38605">
        <ele>948.2</ele>
        <time>2015-09-18T09:01:34Z</time>
      </trkpt>
      <trkpt lat="44.78057" lon="3.38597">
        <ele>948</ele>
        <time>2015-09-18T09:01:36Z</time>
      </trkpt>
      <trkpt lat="44.78049" lon="3.38588">
        <ele>947.8</ele>
        <time>2015-09-18T09:01:38Z</time>
      </trkpt>
      <trkpt lat="44.78041" lon="3.3858">
        <ele>947.5</ele>
        <time>2015-09-18T09:01:40Z</time>
      </trkpt>
      <trkpt lat="44.78033" lon="3.38573">
        <ele>947.3</ele>
        <time>2015-09-18T09:01:42Z</time>
      </trkpt>
      <trkpt lat="44.78024" lon="3.38565">
        <ele>947</ele>
        <time>2015-09-18T09:01:44Z</time>
      </trkpt>
      <trkpt lat="44.78014" lon="3.38558">
        <ele>946.6</ele>
        <time>2015-09-18T09:01:46Z</time>
      </trkpt>
      <trkpt lat="44.78003" lon="3.3855">
        <ele>946.3</ele>
        <time>2015-09-18T09:01:48Z</time>
      </trkpt>
      <trkpt lat="44.77991" lon="3.38542">
        <ele>946</ele>
        <time>2015-09-18T09:01:50Z</time>
      </trkpt>
      <trkpt lat="44.77978" lon="3.38534">
        <ele>945.5</ele>
        <time>2015-09-18T09:01:52Z</time>
      </trkpt>
      <trkpt lat="44.77964" lon="3.38525">
        <ele>944.9</ele>
        <time>2015-09-18T09:01:54Z</time>
      </trkpt>
      <trkpt lat="44.77954" lon="3.38518">
        <ele>944.3</ele>
        <time>2015-09-18T09:01:56Z</time>
      </trkpt>
      <trkpt lat="44.77945" lon="3.38503">
        <ele>943.4</ele>
        <time>2015-09-18T09:01:59Z</time>
      </trkpt>
      <trkpt lat="44.77941" lon="3.38489">
        <ele>942.8</ele>
        <time>2015-09-18T09:02:01Z</time>
      </trkpt>
      <trkpt lat="44.77936" lon="3.38474">
        <ele>942.1</ele>
        <time>2015-09-18T09:02:03Z</time>
      </trkpt>
      <trkpt lat="44.77931" lon="3.3846">
        <ele>941.4</ele>
        <time>2015-09-18T09:02:05Z</time>
      </trkpt>
      <trkpt lat="44.77924" lon="3.38445">
        <ele>940.7</ele>
        <time>2015-09-18T09:02:07Z</time>
      </trkpt>
      <trkpt lat="44.77918" lon="3.38427">
        <ele>939.9</ele>
        <time>2015-09-18T09:02:09Z</time>
      </trkpt>
      <trkpt lat="44.77912" lon="3.38409">
        <ele>939.1</ele>
        <time>2015-09-18T09:02:11Z</time>
      </trkpt>
      <trkpt lat="44.77906" lon="3.38389">
        <ele>938.4</ele>
        <time>2015-09-18T09:02:13Z</time>
      </trkpt>
      <trkpt lat="44.77899" lon="3.38367">
        <ele>937.6</ele>
        <time>2015-09-18T09:02:15Z</time>
      </trkpt>
      <trkpt lat="44.77891" lon="3.38345">
        <ele>936.7</ele>
        <time>2015-09-18T09:02:17Z</time>
      </trkpt>
      <trkpt lat="44.77883" lon="3.38323">
        <ele>935.9</ele>
        <time>2015-09-18T09:02:19Z</time>
      </trkpt>
      <trkpt lat="44.7788" lon="3.38311">
        <ele>935.4</ele>
        <time>2015-09-18T09:02:20Z</time>
      </trkpt>
      <trkpt lat="44.77876" lon="3.38299">
        <ele>934.9</ele>
        <time>2015-09-18T09:02:21Z</time>
      </trkpt>
      <trkpt lat="44.77872" lon="3.38287">
        <ele>934.5</ele>
        <time>2015-09-18T09:02:22Z</time>
      </trkpt>
      <trkpt lat="44.77869" lon="3.38275">
        <ele>934.1</ele>
        <time>2015-09-18T09:02:23Z</time>
      </trkpt>
      <trkpt lat="44.77865" lon="3.38263">
        <ele>933.6</ele>
        <time>2015-09-18T09:02:24Z</time>
      </trkpt>
      <trkpt lat="44.77861" lon="3.38251">
        <ele>933.2</ele>
        <time>2015-09-18T09:02:25Z</time>
      </trkpt>
      <trkpt lat="44.77854" lon="3.38228">
        <ele>932.4</ele>
        <time>2015-09-18T09:02:27Z</time>
      </trkpt>
      <trkpt lat="44.77847" lon="3.38206">
        <ele>931.7</ele>
        <time>2015-09-18T09:02:29Z</time>
      </trkpt>
      <trkpt lat="44.7784" lon="3.38185">
        <ele>931.1</ele>
        <time>2015-09-18T09:02:31Z</time>
      </trkpt>
      <trkpt lat="44.77834" lon="3.38164">
        <ele>930.5</ele>
        <time>2015-09-18T09:02:33Z</time>
      </trkpt>
      <trkpt lat="44.77828" lon="3.38144">
        <ele>929.9</ele>
        <time>2015-09-18T09:02:35Z</time>
      </trkpt>
      <trkpt lat="44.77822" lon="3.38124">
        <ele>929.4</ele>
        <time>2015-09-18T09:02:37Z</time>
      </trkpt>
      <trkpt lat="44.77816" lon="3.38106">
        <ele>929</ele>
        <time>2015-09-18T09:02:39Z</time>
      </trkpt>
      <trkpt lat="44.77811" lon="3.38088">
        <ele>928.5</ele>
        <time>2015-09-18T09:02:41Z</time>
      </trkpt>
      <trkpt lat="44.77806" lon="3.38071">
        <ele>928.2</ele>
        <time>2015-09-18T09:02:43Z</time>
      </trkpt>
      <trkpt lat="44.77801" lon="3.38055">
        <ele>927.8</ele>
        <time>2015-09-18T09:02:45Z</time>
      </trkpt>
      <trkpt lat="44.77795" lon="3.38038">
        <ele>927.5</ele>
        <time>2015-09-18T09:02:47Z</time>
      </trkpt>
      <trkpt lat="44.77791" lon="3.38021">
        <ele>927.2</ele>
        <time>2015-09-18T09:02:49Z</time>
      </trkpt>
      <trkpt lat="44.77785" lon="3.38005">
        <ele>926.9</ele>
        <time>2015-09-18T09:02:51Z</time>
      </trkpt>
      <trkpt lat="44.77779" lon="3.37989">
        <ele>926.7</ele>
        <time>2015-09-18T09:02:53Z</time>
      </trkpt>
      <trkpt lat="44.77773" lon="3.37973">
        <ele>926.5</ele>
        <time>2015-09-18T09:02:55Z</time>
      </trkpt>
      <trkpt lat="44.77766" lon="3.37959">
        <ele>926.3</ele>
        <time>2015-09-18T09:02:57Z</time>
      </trkpt>
      <trkpt lat="44.77759" lon="3.37947">
        <ele>926.1</ele>
        <time>2015-09-18T09:02:59Z</time>
      </trkpt>
      <trkpt lat="44.77755" lon="3.37935">
        <ele>925.9</ele>
        <time>2015-09-18T09:03:01Z</time>
      </trkpt>
      <trkpt lat="44.77761" lon="3.37922">
        <ele>925.7</ele>
        <time>2015-09-18T09:03:04Z</time>
      </trkpt>
      <trkpt lat="44.77771" lon="3.37917">
        <ele>925.4</ele>
        <time>2015-09-18T09:03:07Z</time>
      </trkpt>
      <trkpt lat="44.77782" lon="3.37914">
        <ele>925.2</ele>
        <time>2015-09-18T09:03:10Z</time>
      </trkpt>
      <trkpt lat="44.77795" lon="3.37911">
        <ele>925.1</ele>
        <time>2015-09-18T09:03:13Z</time>
      </trkpt>
      <trkpt lat="44.77808" lon="3.37908">
        <ele>924.9</ele>
        <time>2015-09-18T09:03:16Z</time>
      </trkpt>
      <trkpt lat="44.77821" lon="3.37902">
        <ele>924.8</ele>
        <time>2015-09-18T09:03:19Z</time>
      </trkpt>
      <trkpt lat="44.77828" lon="3.37895">
        <ele>924.8</ele>
        <time>2015-09-18T09:03:21Z</time>
      </trkpt>
      <trkpt lat="44.77838" lon="3.37885">
        <ele>924.7</ele>
        <time>2015-09-18T09:03:24Z</time>
      </trkpt>
      <trkpt lat="44.77847" lon="3.37872">
        <ele>924.6</ele>
        <time>2015-09-18T09:03:28Z</time>
      </trkpt>
      <trkpt lat="44.77856" lon="3.37863">
        <ele>924.7</ele>
        <time>2015-09-18T09:03:31Z</time>
      </trkpt>
      <trkpt lat="44.77863" lon="3.37851">
        <ele>924.9</ele>
        <time>2015-09-18T09:03:33Z</time>
      </trkpt>
      <trkpt lat="44.77865" lon="3.37832">
        <ele>925</ele>
        <time>2015-09-18T09:03:35Z</time>
      </trkpt>
      <trkpt lat="44.77869" lon="3.37817">
        <ele>925.1</ele>
        <time>2015-09-18T09:03:37Z</time>
      </trkpt>
      <trkpt lat="44.77874" lon="3.37806">
        <ele>925.2</ele>
        <time>2015-09-18T09:03:39Z</time>
      </trkpt>
      <trkpt lat="44.77878" lon="3.37795">
        <ele>925.4</ele>
        <time>2015-09-18T09:03:41Z</time>
      </trkpt>
      <trkpt lat="44.7788" lon="3.37778">
        <ele>925.6</ele>
        <time>2015-09-18T09:03:44Z</time>
      </trkpt>
      <trkpt lat="44.77876" lon="3.37763">
        <ele>925.7</ele>
        <time>2015-09-18T09:03:47Z</time>
      </trkpt>
      <trkpt lat="44.77869" lon="3.3775">
        <ele>925.9</ele>
        <time>2015-09-18T09:03:50Z</time>
      </trkpt>
      <trkpt lat="44.77863" lon="3.37739">
        <ele>926.2</ele>
        <time>2015-09-18T09:03:53Z</time>
      </trkpt>
      <trkpt lat="44.77857" lon="3.37729">
        <ele>926.5</ele>
        <time>2015-09-18T09:03:56Z</time>
      </trkpt>
      <trkpt lat="44.77851" lon="3.37717">
        <ele>926.9</ele>
        <time>2015-09-18T09:04:00Z</time>
      </trkpt>
      <trkpt lat="44.77846" lon="3.37705">
        <ele>927.4</ele>
        <time>2015-09-18T09:04:04Z</time>
      </trkpt>
      <trkpt lat="44.7784" lon="3.37693">
        <ele>927.9</ele>
        <time>2015-09-18T09:04:09Z</time>
      </trkpt>
      <trkpt lat="44.77834" lon="3.37684">
        <ele>928.8</ele>
        <time>2015-09-18T09:04:15Z</time>
      </trkpt>
      <trkpt lat="44.77827" lon="3.37675">
        <ele>930.4</ele>
        <time>2015-09-18T09:04:26Z</time>
      </trkpt>
      <trkpt lat="44.77819" lon="3.37668">
        <ele>932.1</ele>
        <time>2015-09-18T09:04:36Z</time>
      </trkpt>
      <trkpt lat="44.77813" lon="3.37657">
        <ele>933.9</ele>
        <time>2015-09-18T09:04:47Z</time>
      </trkpt>
      <trkpt lat="44.77807" lon="3.37645">
        <ele>935.4</ele>
        <time>2015-09-18T09:04:57Z</time>
      </trkpt>
      <trkpt lat="44.77801" lon="3.37636">
        <ele>936.4</ele>
        <time>2015-09-18T09:05:05Z</time>
      </trkpt>
      <trkpt lat="44.77796" lon="3.37623">
        <ele>937.5</ele>
        <time>2015-09-18T09:05:15Z</time>
      </trkpt>
      <trkpt lat="44.77791" lon="3.37613">
        <ele>938</ele>
        <time>2015-09-18T09:05:19Z</time>
      </trkpt>
      <trkpt lat="44.77785" lon="3.37601">
        <ele>938.4</ele>
        <time>2015-09-18T09:05:23Z</time>
      </trkpt>
      <trkpt lat="44.77779" lon="3.37589">
        <ele>938.9</ele>
        <time>2015-09-18T09:05:27Z</time>
      </trkpt>
      <trkpt lat="44.77775" lon="3.37576">
        <ele>939.4</ele>
        <time>2015-09-18T09:05:31Z</time>
      </trkpt>
      <trkpt lat="44.77771" lon="3.37561">
        <ele>940</ele>
        <time>2015-09-18T09:05:36Z</time>
      </trkpt>
      <trkpt lat="44.77767" lon="3.37548">
        <ele>940.7</ele>
        <time>2015-09-18T09:05:41Z</time>
      </trkpt>
      <trkpt lat="44.77762" lon="3.37535">
        <ele>941.3</ele>
        <time>2015-09-18T09:05:46Z</time>
      </trkpt>
      <trkpt lat="44.77758" lon="3.37521">
        <ele>942</ele>
        <time>2015-09-18T09:05:51Z</time>
      </trkpt>
      <trkpt lat="44.77754" lon="3.37507">
        <ele>942.6</ele>
        <time>2015-09-18T09:05:56Z</time>
      </trkpt>
      <trkpt lat="44.77751" lon="3.37494">
        <ele>943.2</ele>
        <time>2015-09-18T09:06:01Z</time>
      </trkpt>
      <trkpt lat="44.77747" lon="3.37482">
        <ele>943.9</ele>
        <time>2015-09-18T09:06:06Z</time>
      </trkpt>
      <trkpt lat="44.77743" lon="3.37469">
        <ele>944.5</ele>
        <time>2015-09-18T09:06:11Z</time>
      </trkpt>
      <trkpt lat="44.77741" lon="3.37454">
        <ele>945.1</ele>
        <time>2015-09-18T09:06:16Z</time>
      </trkpt>
      <trkpt lat="44.77741" lon="3.3744">
        <ele>945.6</ele>
        <time>2015-09-18T09:06:21Z</time>
      </trkpt>
      <trkpt lat="44.77741" lon="3.37425">
        <ele>946.1</ele>
        <time>2015-09-18T09:06:26Z</time>
      </trkpt>
      <trkpt lat="44.77741" lon="3.37411">
        <ele>946.4</ele>
        <time>2015-09-18T09:06:31Z</time>
      </trkpt>
      <trkpt lat="44.77741" lon="3.37397">
        <ele>946.8</ele>
        <time>2015-09-18T09:06:36Z</time>
      </trkpt>
      <trkpt lat="44.77743" lon="3.37382">
        <ele>947.2</ele>
        <time>2015-09-18T09:06:41Z</time>
      </trkpt>
      <trkpt lat="44.77746" lon="3.37368">
        <ele>947.7</ele>
        <time>2015-09-18T09:06:46Z</time>
      </trkpt>
      <trkpt lat="44.7775" lon="3.37355">
        <ele>948.3</ele>
        <time>2015-09-18T09:06:52Z</time>
      </trkpt>
      <trkpt lat="44.77752" lon="3.37342">
        <ele>949.2</ele>
        <time>2015-09-18T09:07:03Z</time>
      </trkpt>
      <trkpt lat="44.77755" lon="3.37329">
        <ele>950.4</ele>
        <time>2015-09-18T09:07:14Z</time>
      </trkpt>
      <trkpt lat="44.77753" lon="3.37315">
        <ele>951.9</ele>
        <time>2015-09-18T09:07:26Z</time>
      </trkpt>
      <trkpt lat="44.7775" lon="3.37302">
        <ele>953.4</ele>
        <time>2015-09-18T09:07:36Z</time>
      </trkpt>
      <trkpt lat="44.77747" lon="3.37289">
        <ele>955.1</ele>
        <time>2015-09-18T09:07:47Z</time>
      </trkpt>
      <trkpt lat="44.77747" lon="3.37276">
        <ele>957</ele>
        <time>2015-09-18T09:08:01Z</time>
      </trkpt>
      <trkpt lat="44.77745" lon="3.37263">
        <ele>958.5</ele>
        <time>2015-09-18T09:08:12Z</time>
      </trkpt>
      <trkpt lat="44.77744" lon="3.3725">
        <ele>960.1</ele>
        <time>2015-09-18T09:08:23Z</time>
      </trkpt>
      <trkpt lat="44.77745" lon="3.37237">
        <ele>962.8</ele>
        <time>2015-09-18T09:08:40Z</time>
      </trkpt>
      <trkpt lat="44.77744" lon="3.37224">
        <ele>964</ele>
        <time>2015-09-18T09:08:50Z</time>
      </trkpt>
      <trkpt lat="44.77742" lon="3.3721">
        <ele>965.4</ele>
        <time>2015-09-18T09:09:00Z</time>
      </trkpt>
      <trkpt lat="44.77741" lon="3.37197">
        <ele>966.8</ele>
        <time>2015-09-18T09:09:11Z</time>
      </trkpt>
      <trkpt lat="44.77739" lon="3.37183">
        <ele>968.1</ele>
        <time>2015-09-18T09:09:21Z</time>
      </trkpt>
      <trkpt lat="44.77738" lon="3.3717">
        <ele>969.4</ele>
        <time>2015-09-18T09:09:32Z</time>
      </trkpt>
      <trkpt lat="44.77737" lon="3.37157">
        <ele>970.3</ele>
        <time>2015-09-18T09:09:40Z</time>
      </trkpt>
      <trkpt lat="44.77739" lon="3.37144">
        <ele>971.3</ele>
        <time>2015-09-18T09:09:49Z</time>
      </trkpt>
      <trkpt lat="44.77737" lon="3.3713">
        <ele>972.8</ele>
        <time>2015-09-18T09:10:07Z</time>
      </trkpt>
      <trkpt lat="44.77734" lon="3.37117">
        <ele>973.8</ele>
        <time>2015-09-18T09:10:17Z</time>
      </trkpt>
      <trkpt lat="44.7773" lon="3.37104">
        <ele>975.1</ele>
        <time>2015-09-18T09:10:27Z</time>
      </trkpt>
      <trkpt lat="44.77728" lon="3.37092">
        <ele>976.3</ele>
        <time>2015-09-18T09:10:37Z</time>
      </trkpt>
      <trkpt lat="44.77727" lon="3.37079">
        <ele>977.3</ele>
        <time>2015-09-18T09:10:46Z</time>
      </trkpt>
      <trkpt lat="44.77723" lon="3.37066">
        <ele>978.8</ele>
        <time>2015-09-18T09:10:58Z</time>
      </trkpt>
      <trkpt lat="44.77722" lon="3.37053">
        <ele>980.8</ele>
        <time>2015-09-18T09:23:33Z</time>
      </trkpt>
      <trkpt lat="44.77721" lon="3.37039">
        <ele>980.6</ele>
        <time>2015-09-18T09:24:05Z</time>
      </trkpt>
      <trkpt lat="44.77715" lon="3.37022">
        <ele>980.4</ele>
        <time>2015-09-18T09:24:08Z</time>
      </trkpt>
      <trkpt lat="44.77706" lon="3.37009">
        <ele>980.1</ele>
        <time>2015-09-18T09:24:10Z</time>
      </trkpt>
      <trkpt lat="44.777" lon="3.36992">
        <ele>979.8</ele>
        <time>2015-09-18T09:24:12Z</time>
      </trkpt>
      <trkpt lat="44.77704" lon="3.36974">
        <ele>979.2</ele>
        <time>2015-09-18T09:24:14Z</time>
      </trkpt>
      <trkpt lat="44.77717" lon="3.36961">
        <ele>978.4</ele>
        <time>2015-09-18T09:24:16Z</time>
      </trkpt>
      <trkpt lat="44.77725" lon="3.36954">
        <ele>977.9</ele>
        <time>2015-09-18T09:24:17Z</time>
      </trkpt>
      <trkpt lat="44.77733" lon="3.36946">
        <ele>977.4</ele>
        <time>2015-09-18T09:24:18Z</time>
      </trkpt>
      <trkpt lat="44.77741" lon="3.3694">
        <ele>976.9</ele>
        <time>2015-09-18T09:24:19Z</time>
      </trkpt>
      <trkpt lat="44.7775" lon="3.36934">
        <ele>976.3</ele>
        <time>2015-09-18T09:24:20Z</time>
      </trkpt>
      <trkpt lat="44.77758" lon="3.36926">
        <ele>975.7</ele>
        <time>2015-09-18T09:24:21Z</time>
      </trkpt>
      <trkpt lat="44.77765" lon="3.36918">
        <ele>975.1</ele>
        <time>2015-09-18T09:24:22Z</time>
      </trkpt>
      <trkpt lat="44.77777" lon="3.36906">
        <ele>973.9</ele>
        <time>2015-09-18T09:24:24Z</time>
      </trkpt>
      <trkpt lat="44.77789" lon="3.36895">
        <ele>972.6</ele>
        <time>2015-09-18T09:24:26Z</time>
      </trkpt>
      <trkpt lat="44.77802" lon="3.36881">
        <ele>971.3</ele>
        <time>2015-09-18T09:24:28Z</time>
      </trkpt>
      <trkpt lat="44.77818" lon="3.36873">
        <ele>969.9</ele>
        <time>2015-09-18T09:24:30Z</time>
      </trkpt>
      <trkpt lat="44.77834" lon="3.36867">
        <ele>968.5</ele>
        <time>2015-09-18T09:24:32Z</time>
      </trkpt>
      <trkpt lat="44.7785" lon="3.36861">
        <ele>967.3</ele>
        <time>2015-09-18T09:24:34Z</time>
      </trkpt>
      <trkpt lat="44.77865" lon="3.36852">
        <ele>966.1</ele>
        <time>2015-09-18T09:24:36Z</time>
      </trkpt>
      <trkpt lat="44.77876" lon="3.36839">
        <ele>965</ele>
        <time>2015-09-18T09:24:38Z</time>
      </trkpt>
      <trkpt lat="44.77887" lon="3.36825">
        <ele>964</ele>
        <time>2015-09-18T09:24:40Z</time>
      </trkpt>
      <trkpt lat="44.77898" lon="3.3681">
        <ele>963</ele>
        <time>2015-09-18T09:24:42Z</time>
      </trkpt>
      <trkpt lat="44.77908" lon="3.36795">
        <ele>962.1</ele>
        <time>2015-09-18T09:24:44Z</time>
      </trkpt>
      <trkpt lat="44.77904" lon="3.36782">
        <ele>960.2</ele>
        <time>2015-09-18T09:24:48Z</time>
      </trkpt>
      <trkpt lat="44.77895" lon="3.36784">
        <ele>959.2</ele>
        <time>2015-09-18T09:24:50Z</time>
      </trkpt>
      <trkpt lat="44.77881" lon="3.36791">
        <ele>958</ele>
        <time>2015-09-18T09:24:52Z</time>
      </trkpt>
      <trkpt lat="44.77863" lon="3.36797">
        <ele>956.6</ele>
        <time>2015-09-18T09:24:54Z</time>
      </trkpt>
      <trkpt lat="44.77848" lon="3.368">
        <ele>955</ele>
        <time>2015-09-18T09:24:56Z</time>
      </trkpt>
      <trkpt lat="44.77836" lon="3.36792">
        <ele>953.3</ele>
        <time>2015-09-18T09:24:58Z</time>
      </trkpt>
      <trkpt lat="44.77825" lon="3.36781">
        <ele>951.6</ele>
        <time>2015-09-18T09:25:00Z</time>
      </trkpt>
      <trkpt lat="44.77811" lon="3.36772">
        <ele>950</ele>
        <time>2015-09-18T09:25:02Z</time>
      </trkpt>
      <trkpt lat="44.77796" lon="3.36768">
        <ele>948.3</ele>
        <time>2015-09-18T09:25:04Z</time>
      </trkpt>
      <trkpt lat="44.77788" lon="3.36761">
        <ele>947.4</ele>
        <time>2015-09-18T09:25:05Z</time>
      </trkpt>
      <trkpt lat="44.77774" lon="3.36752">
        <ele>945.6</ele>
        <time>2015-09-18T09:25:07Z</time>
      </trkpt>
      <trkpt lat="44.77768" lon="3.36737">
        <ele>943.9</ele>
        <time>2015-09-18T09:25:09Z</time>
      </trkpt>
      <trkpt lat="44.7777" lon="3.36721">
        <ele>942.2</ele>
        <time>2015-09-18T09:25:11Z</time>
      </trkpt>
      <trkpt lat="44.77775" lon="3.36709">
        <ele>939.8</ele>
        <time>2015-09-18T09:25:14Z</time>
      </trkpt>
      <trkpt lat="44.77764" lon="3.36706">
        <ele>937.6</ele>
        <time>2015-09-18T09:25:17Z</time>
      </trkpt>
      <trkpt lat="44.77753" lon="3.36706">
        <ele>936.2</ele>
        <time>2015-09-18T09:25:19Z</time>
      </trkpt>
      <trkpt lat="44.77743" lon="3.36708">
        <ele>934.9</ele>
        <time>2015-09-18T09:25:21Z</time>
      </trkpt>
      <trkpt lat="44.77732" lon="3.36709">
        <ele>933.1</ele>
        <time>2015-09-18T09:25:24Z</time>
      </trkpt>
      <trkpt lat="44.77721" lon="3.36708">
        <ele>930.9</ele>
        <time>2015-09-18T09:25:28Z</time>
      </trkpt>
      <trkpt lat="44.77718" lon="3.36695">
        <ele>928.9</ele>
        <time>2015-09-18T09:25:32Z</time>
      </trkpt>
      <trkpt lat="44.7772" lon="3.3668">
        <ele>926.7</ele>
        <time>2015-09-18T09:25:37Z</time>
      </trkpt>
      <trkpt lat="44.77723" lon="3.36668">
        <ele>925.1</ele>
        <time>2015-09-18T09:25:41Z</time>
      </trkpt>
      <trkpt lat="44.77726" lon="3.36652">
        <ele>923.7</ele>
        <time>2015-09-18T09:25:45Z</time>
      </trkpt>
      <trkpt lat="44.77729" lon="3.36637">
        <ele>922.8</ele>
        <time>2015-09-18T09:25:48Z</time>
      </trkpt>
      <trkpt lat="44.77731" lon="3.3662">
        <ele>921.8</ele>
        <time>2015-09-18T09:25:51Z</time>
      </trkpt>
      <trkpt lat="44.77731" lon="3.36606">
        <ele>921.2</ele>
        <time>2015-09-18T09:25:53Z</time>
      </trkpt>
      <trkpt lat="44.77731" lon="3.3659">
        <ele>920.6</ele>
        <time>2015-09-18T09:25:55Z</time>
      </trkpt>
      <trkpt lat="44.7773" lon="3.36575">
        <ele>920</ele>
        <time>2015-09-18T09:25:57Z</time>
      </trkpt>
      <trkpt lat="44.77729" lon="3.36559">
        <ele>919.4</ele>
        <time>2015-09-18T09:25:59Z</time>
      </trkpt>
      <trkpt lat="44.77728" lon="3.36542">
        <ele>918.8</ele>
        <time>2015-09-18T09:26:01Z</time>
      </trkpt>
      <trkpt lat="44.77727" lon="3.3653">
        <ele>918.2</ele>
        <time>2015-09-18T09:26:03Z</time>
      </trkpt>
      <trkpt lat="44.7772" lon="3.36517">
        <ele>917.4</ele>
        <time>2015-09-18T09:26:06Z</time>
      </trkpt>
      <trkpt lat="44.7771" lon="3.36509">
        <ele>916.8</ele>
        <time>2015-09-18T09:26:09Z</time>
      </trkpt>
      <trkpt lat="44.77701" lon="3.36505">
        <ele>916.3</ele>
        <time>2015-09-18T09:26:11Z</time>
      </trkpt>
      <trkpt lat="44.77691" lon="3.365">
        <ele>915.9</ele>
        <time>2015-09-18T09:26:13Z</time>
      </trkpt>
      <trkpt lat="44.77681" lon="3.36497">
        <ele>915.5</ele>
        <time>2015-09-18T09:26:15Z</time>
      </trkpt>
      <trkpt lat="44.77672" lon="3.36496">
        <ele>915.1</ele>
        <time>2015-09-18T09:26:17Z</time>
      </trkpt>
      <trkpt lat="44.7766" lon="3.36494">
        <ele>914.6</ele>
        <time>2015-09-18T09:26:20Z</time>
      </trkpt>
      <trkpt lat="44.77649" lon="3.3649">
        <ele>914.2</ele>
        <time>2015-09-18T09:26:23Z</time>
      </trkpt>
      <trkpt lat="44.77639" lon="3.36488">
        <ele>913.7</ele>
        <time>2015-09-18T09:26:27Z</time>
      </trkpt>
      <trkpt lat="44.7763" lon="3.36485">
        <ele>913.3</ele>
        <time>2015-09-18T09:26:31Z</time>
      </trkpt>
      <trkpt lat="44.77621" lon="3.36482">
        <ele>913.2</ele>
        <time>2015-09-18T09:26:35Z</time>
      </trkpt>
      <trkpt lat="44.77613" lon="3.36475">
        <ele>913.4</ele>
        <time>2015-09-18T09:26:41Z</time>
      </trkpt>
      <trkpt lat="44.77608" lon="3.36464">
        <ele>914</ele>
        <time>2015-09-18T09:26:51Z</time>
      </trkpt>
      <trkpt lat="44.77614" lon="3.36454">
        <ele>914.2</ele>
        <time>2015-09-18T09:26:59Z</time>
      </trkpt>
      <trkpt lat="44.77619" lon="3.36444">
        <ele>914.6</ele>
        <time>2015-09-18T09:27:06Z</time>
      </trkpt>
      <trkpt lat="44.77625" lon="3.36434">
        <ele>915.6</ele>
        <time>2015-09-18T09:27:16Z</time>
      </trkpt>
      <trkpt lat="44.7763" lon="3.36422">
        <ele>917.3</ele>
        <time>2015-09-18T09:27:28Z</time>
      </trkpt>
      <trkpt lat="44.77634" lon="3.3641">
        <ele>918.9</ele>
        <time>2015-09-18T09:27:38Z</time>
      </trkpt>
      <trkpt lat="44.77637" lon="3.36397">
        <ele>920.4</ele>
        <time>2015-09-18T09:27:48Z</time>
      </trkpt>
      <trkpt lat="44.77641" lon="3.36385">
        <ele>921.8</ele>
        <time>2015-09-18T09:27:59Z</time>
      </trkpt>
      <trkpt lat="44.77637" lon="3.36373">
        <ele>922.9</ele>
        <time>2015-09-18T09:28:08Z</time>
      </trkpt>
      <trkpt lat="44.77628" lon="3.3637">
        <ele>924.4</ele>
        <time>2015-09-18T09:28:19Z</time>
      </trkpt>
      <trkpt lat="44.77626" lon="3.36383">
        <ele>925.8</ele>
        <time>2015-09-18T09:28:31Z</time>
      </trkpt>
      <trkpt lat="44.77628" lon="3.36396">
        <ele>927.2</ele>
        <time>2015-09-18T09:28:43Z</time>
      </trkpt>
      <trkpt lat="44.77619" lon="3.364">
        <ele>928.5</ele>
        <time>2015-09-18T09:28:54Z</time>
      </trkpt>
      <trkpt lat="44.7761" lon="3.36399">
        <ele>929.6</ele>
        <time>2015-09-18T09:29:05Z</time>
      </trkpt>
      <trkpt lat="44.776" lon="3.36399">
        <ele>930.8</ele>
        <time>2015-09-18T09:29:14Z</time>
      </trkpt>
      <trkpt lat="44.77591" lon="3.36396">
        <ele>931.7</ele>
        <time>2015-09-18T09:29:22Z</time>
      </trkpt>
      <trkpt lat="44.77581" lon="3.36398">
        <ele>932.7</ele>
        <time>2015-09-18T09:29:31Z</time>
      </trkpt>
      <trkpt lat="44.77572" lon="3.36398">
        <ele>933.3</ele>
        <time>2015-09-18T09:29:38Z</time>
      </trkpt>
      <trkpt lat="44.77563" lon="3.36396">
        <ele>933.9</ele>
        <time>2015-09-18T09:29:44Z</time>
      </trkpt>
      <trkpt lat="44.77553" lon="3.36395">
        <ele>934.3</ele>
        <time>2015-09-18T09:29:50Z</time>
      </trkpt>
      <trkpt lat="44.77543" lon="3.36395">
        <ele>934.9</ele>
        <time>2015-09-18T09:29:56Z</time>
      </trkpt>
      <trkpt lat="44.77534" lon="3.36394">
        <ele>935.7</ele>
        <time>2015-09-18T09:30:02Z</time>
      </trkpt>
      <trkpt lat="44.77524" lon="3.36395">
        <ele>936.5</ele>
        <time>2015-09-18T09:30:08Z</time>
      </trkpt>
      <trkpt lat="44.77513" lon="3.36395">
        <ele>937.4</ele>
        <time>2015-09-18T09:30:15Z</time>
      </trkpt>
      <trkpt lat="44.77504" lon="3.36396">
        <ele>938.1</ele>
        <time>2015-09-18T09:30:21Z</time>
      </trkpt>
      <trkpt lat="44.77494" lon="3.36398">
        <ele>938.9</ele>
        <time>2015-09-18T09:30:28Z</time>
      </trkpt>
      <trkpt lat="44.77484" lon="3.36402">
        <ele>939.5</ele>
        <time>2015-09-18T09:30:34Z</time>
      </trkpt>
      <trkpt lat="44.77475" lon="3.36406">
        <ele>940.2</ele>
        <time>2015-09-18T09:30:41Z</time>
      </trkpt>
      <trkpt lat="44.77466" lon="3.36402">
        <ele>941.4</ele>
        <time>2015-09-18T09:30:53Z</time>
      </trkpt>
      <trkpt lat="44.77457" lon="3.364">
        <ele>942.5</ele>
        <time>2015-09-18T09:31:01Z</time>
      </trkpt>
      <trkpt lat="44.77447" lon="3.36401">
        <ele>943.6</ele>
        <time>2015-09-18T09:31:09Z</time>
      </trkpt>
      <trkpt lat="44.77438" lon="3.36403">
        <ele>944.8</ele>
        <time>2015-09-18T09:31:19Z</time>
      </trkpt>
      <trkpt lat="44.77429" lon="3.36398">
        <ele>945.8</ele>
        <time>2015-09-18T09:31:28Z</time>
      </trkpt>
      <trkpt lat="44.7742" lon="3.36396">
        <ele>947.1</ele>
        <time>2015-09-18T09:31:38Z</time>
      </trkpt>
      <trkpt lat="44.77411" lon="3.36398">
        <ele>949.4</ele>
        <time>2015-09-18T09:31:54Z</time>
      </trkpt>
      <trkpt lat="44.77402" lon="3.36396">
        <ele>951</ele>
        <time>2015-09-18T09:32:05Z</time>
      </trkpt>
      <trkpt lat="44.77394" lon="3.36393">
        <ele>952.4</ele>
        <time>2015-09-18T09:32:15Z</time>
      </trkpt>
      <trkpt lat="44.77385" lon="3.36389">
        <ele>953.8</ele>
        <time>2015-09-18T09:32:25Z</time>
      </trkpt>
      <trkpt lat="44.77376" lon="3.36386">
        <ele>954.8</ele>
        <time>2015-09-18T09:32:34Z</time>
      </trkpt>
      <trkpt lat="44.77367" lon="3.36384">
        <ele>956.1</ele>
        <time>2015-09-18T09:32:44Z</time>
      </trkpt>
      <trkpt lat="44.77357" lon="3.3638">
        <ele>957.4</ele>
        <time>2015-09-18T09:32:55Z</time>
      </trkpt>
      <trkpt lat="44.77349" lon="3.36375">
        <ele>958.6</ele>
        <time>2015-09-18T09:33:05Z</time>
      </trkpt>
      <trkpt lat="44.7734" lon="3.36371">
        <ele>959.9</ele>
        <time>2015-09-18T09:33:16Z</time>
      </trkpt>
      <trkpt lat="44.77332" lon="3.36365">
        <ele>961.2</ele>
        <time>2015-09-18T09:33:25Z</time>
      </trkpt>
      <trkpt lat="44.77325" lon="3.36355">
        <ele>962.3</ele>
        <time>2015-09-18T09:33:34Z</time>
      </trkpt>
      <trkpt lat="44.77319" lon="3.36344">
        <ele>963</ele>
        <time>2015-09-18T09:33:42Z</time>
      </trkpt>
      <trkpt lat="44.77314" lon="3.36332">
        <ele>963.6</ele>
        <time>2015-09-18T09:33:51Z</time>
      </trkpt>
      <trkpt lat="44.77313" lon="3.3632">
        <ele>964</ele>
        <time>2015-09-18T09:33:59Z</time>
      </trkpt>
      <trkpt lat="44.77312" lon="3.36306">
        <ele>964.4</ele>
        <time>2015-09-18T09:34:08Z</time>
      </trkpt>
      <trkpt lat="44.7731" lon="3.36294">
        <ele>964.8</ele>
        <time>2015-09-18T09:34:16Z</time>
      </trkpt>
      <trkpt lat="44.77307" lon="3.36281">
        <ele>965.4</ele>
        <time>2015-09-18T09:34:26Z</time>
      </trkpt>
      <trkpt lat="44.77304" lon="3.36269">
        <ele>967</ele>
        <time>2015-09-18T09:34:38Z</time>
      </trkpt>
      <trkpt lat="44.773" lon="3.36256">
        <ele>967.9</ele>
        <time>2015-09-18T09:34:47Z</time>
      </trkpt>
      <trkpt lat="44.77293" lon="3.36246">
        <ele>968.6</ele>
        <time>2015-09-18T09:34:56Z</time>
      </trkpt>
      <trkpt lat="44.77284" lon="3.36239">
        <ele>969</ele>
        <time>2015-09-18T09:35:04Z</time>
      </trkpt>
      <trkpt lat="44.77276" lon="3.36235">
        <ele>969.5</ele>
        <time>2015-09-18T09:35:13Z</time>
      </trkpt>
      <trkpt lat="44.77268" lon="3.36228">
        <ele>969.8</ele>
        <time>2015-09-18T09:35:21Z</time>
      </trkpt>
      <trkpt lat="44.77259" lon="3.36221">
        <ele>970.4</ele>
        <time>2015-09-18T09:35:29Z</time>
      </trkpt>
      <trkpt lat="44.77251" lon="3.36214">
        <ele>970.9</ele>
        <time>2015-09-18T09:35:37Z</time>
      </trkpt>
      <trkpt lat="44.77243" lon="3.36206">
        <ele>971.5</ele>
        <time>2015-09-18T09:35:47Z</time>
      </trkpt>
      <trkpt lat="44.77236" lon="3.36197">
        <ele>972.4</ele>
        <time>2015-09-18T09:35:58Z</time>
      </trkpt>
      <trkpt lat="44.77227" lon="3.36192">
        <ele>973.8</ele>
        <time>2015-09-18T09:36:08Z</time>
      </trkpt>
      <trkpt lat="44.77219" lon="3.36184">
        <ele>975.8</ele>
        <time>2015-09-18T09:36:22Z</time>
      </trkpt>
      <trkpt lat="44.77214" lon="3.36173">
        <ele>976.7</ele>
        <time>2015-09-18T09:36:32Z</time>
      </trkpt>
      <trkpt lat="44.77207" lon="3.36164">
        <ele>977.4</ele>
        <time>2015-09-18T09:36:41Z</time>
      </trkpt>
      <trkpt lat="44.77199" lon="3.36156">
        <ele>978</ele>
        <time>2015-09-18T09:36:49Z</time>
      </trkpt>
      <trkpt lat="44.7719" lon="3.36152">
        <ele>978.9</ele>
        <time>2015-09-18T09:36:58Z</time>
      </trkpt>
      <trkpt lat="44.77182" lon="3.36145">
        <ele>980.3</ele>
        <time>2015-09-18T09:37:09Z</time>
      </trkpt>
      <trkpt lat="44.77174" lon="3.36136">
        <ele>981.3</ele>
        <time>2015-09-18T09:37:18Z</time>
      </trkpt>
      <trkpt lat="44.77167" lon="3.36127">
        <ele>982.1</ele>
        <time>2015-09-18T09:37:26Z</time>
      </trkpt>
      <trkpt lat="44.7716" lon="3.36117">
        <ele>983</ele>
        <time>2015-09-18T09:37:35Z</time>
      </trkpt>
      <trkpt lat="44.77152" lon="3.3611">
        <ele>983.9</ele>
        <time>2015-09-18T09:37:44Z</time>
      </trkpt>
      <trkpt lat="44.77144" lon="3.36104">
        <ele>985.1</ele>
        <time>2015-09-18T09:37:54Z</time>
      </trkpt>
      <trkpt lat="44.77136" lon="3.36095">
        <ele>985.8</ele>
        <time>2015-09-18T09:38:03Z</time>
      </trkpt>
      <trkpt lat="44.77129" lon="3.36086">
        <ele>986.3</ele>
        <time>2015-09-18T09:38:12Z</time>
      </trkpt>
      <trkpt lat="44.77122" lon="3.36078">
        <ele>986.8</ele>
        <time>2015-09-18T09:38:20Z</time>
      </trkpt>
      <trkpt lat="44.77114" lon="3.36069">
        <ele>987.5</ele>
        <time>2015-09-18T09:38:29Z</time>
      </trkpt>
      <trkpt lat="44.77107" lon="3.36061">
        <ele>988.5</ele>
        <time>2015-09-18T09:38:39Z</time>
      </trkpt>
      <trkpt lat="44.771" lon="3.36052">
        <ele>990.2</ele>
        <time>2015-09-18T09:38:51Z</time>
      </trkpt>
      <trkpt lat="44.77093" lon="3.36043">
        <ele>991.5</ele>
        <time>2015-09-18T09:39:04Z</time>
      </trkpt>
      <trkpt lat="44.77086" lon="3.36034">
        <ele>992.8</ele>
        <time>2015-09-18T09:39:20Z</time>
      </trkpt>
      <trkpt lat="44.77079" lon="3.36025">
        <ele>994.3</ele>
        <time>2015-09-18T09:39:34Z</time>
      </trkpt>
      <trkpt lat="44.77073" lon="3.36015">
        <ele>995.7</ele>
        <time>2015-09-18T09:39:46Z</time>
      </trkpt>
      <trkpt lat="44.77065" lon="3.36008">
        <ele>997</ele>
        <time>2015-09-18T09:39:56Z</time>
      </trkpt>
      <trkpt lat="44.77058" lon="3.35998">
        <ele>998.3</ele>
        <time>2015-09-18T09:40:06Z</time>
      </trkpt>
      <trkpt lat="44.77051" lon="3.35989">
        <ele>1000.7</ele>
        <time>2015-09-18T09:40:49Z</time>
      </trkpt>
      <trkpt lat="44.77043" lon="3.35982">
        <ele>1001.5</ele>
        <time>2015-09-18T09:40:59Z</time>
      </trkpt>
      <trkpt lat="44.77037" lon="3.35972">
        <ele>1003</ele>
        <time>2015-09-18T09:41:10Z</time>
      </trkpt>
      <trkpt lat="44.77029" lon="3.35963">
        <ele>1004.4</ele>
        <time>2015-09-18T09:41:21Z</time>
      </trkpt>
      <trkpt lat="44.77022" lon="3.35953">
        <ele>1006</ele>
        <time>2015-09-18T09:41:32Z</time>
      </trkpt>
      <trkpt lat="44.77014" lon="3.35944">
        <ele>1006.7</ele>
        <time>2015-09-18T09:41:38Z</time>
      </trkpt>
      <trkpt lat="44.77006" lon="3.35935">
        <ele>1007.4</ele>
        <time>2015-09-18T09:41:44Z</time>
      </trkpt>
      <trkpt lat="44.76997" lon="3.35928">
        <ele>1008</ele>
        <time>2015-09-18T09:41:50Z</time>
      </trkpt>
      <trkpt lat="44.76989" lon="3.3592">
        <ele>1008.4</ele>
        <time>2015-09-18T09:41:55Z</time>
      </trkpt>
      <trkpt lat="44.7698" lon="3.35913">
        <ele>1008.8</ele>
        <time>2015-09-18T09:42:00Z</time>
      </trkpt>
      <trkpt lat="44.7697" lon="3.35906">
        <ele>1009</ele>
        <time>2015-09-18T09:42:05Z</time>
      </trkpt>
      <trkpt lat="44.7696" lon="3.359">
        <ele>1009.2</ele>
        <time>2015-09-18T09:42:10Z</time>
      </trkpt>
      <trkpt lat="44.76949" lon="3.35894">
        <ele>1009.5</ele>
        <time>2015-09-18T09:42:15Z</time>
      </trkpt>
      <trkpt lat="44.7694" lon="3.35891">
        <ele>1009.7</ele>
        <time>2015-09-18T09:42:19Z</time>
      </trkpt>
      <trkpt lat="44.76931" lon="3.35889">
        <ele>1009.9</ele>
        <time>2015-09-18T09:42:23Z</time>
      </trkpt>
      <trkpt lat="44.76923" lon="3.35894">
        <ele>1010.1</ele>
        <time>2015-09-18T09:42:27Z</time>
      </trkpt>
      <trkpt lat="44.76913" lon="3.35896">
        <ele>1010.5</ele>
        <time>2015-09-18T09:42:32Z</time>
      </trkpt>
      <trkpt lat="44.76903" lon="3.35892">
        <ele>1010.8</ele>
        <time>2015-09-18T09:42:37Z</time>
      </trkpt>
      <trkpt lat="44.76892" lon="3.35891">
        <ele>1011.2</ele>
        <time>2015-09-18T09:42:42Z</time>
      </trkpt>
      <trkpt lat="44.76883" lon="3.35891">
        <ele>1011.6</ele>
        <time>2015-09-18T09:42:46Z</time>
      </trkpt>
      <trkpt lat="44.76874" lon="3.3589">
        <ele>1012.4</ele>
        <time>2015-09-18T09:42:51Z</time>
      </trkpt>
      <trkpt lat="44.76865" lon="3.35888">
        <ele>1013.4</ele>
        <time>2015-09-18T09:42:57Z</time>
      </trkpt>
      <trkpt lat="44.76855" lon="3.35886">
        <ele>1014.8</ele>
        <time>2015-09-18T09:43:05Z</time>
      </trkpt>
      <trkpt lat="44.76846" lon="3.35883">
        <ele>1015.7</ele>
        <time>2015-09-18T09:43:10Z</time>
      </trkpt>
      <trkpt lat="44.76838" lon="3.35876">
        <ele>1016.5</ele>
        <time>2015-09-18T09:43:15Z</time>
      </trkpt>
      <trkpt lat="44.76828" lon="3.35872">
        <ele>1017.4</ele>
        <time>2015-09-18T09:43:21Z</time>
      </trkpt>
      <trkpt lat="44.76819" lon="3.35868">
        <ele>1018.3</ele>
        <time>2015-09-18T09:43:27Z</time>
      </trkpt>
      <trkpt lat="44.7681" lon="3.35864">
        <ele>1018.8</ele>
        <time>2015-09-18T09:43:31Z</time>
      </trkpt>
      <trkpt lat="44.76801" lon="3.35861">
        <ele>1019.3</ele>
        <time>2015-09-18T09:43:36Z</time>
      </trkpt>
      <trkpt lat="44.76792" lon="3.35857">
        <ele>1019.8</ele>
        <time>2015-09-18T09:43:40Z</time>
      </trkpt>
      <trkpt lat="44.76781" lon="3.35855">
        <ele>1020.4</ele>
        <time>2015-09-18T09:43:45Z</time>
      </trkpt>
      <trkpt lat="44.7677" lon="3.3585">
        <ele>1020.9</ele>
        <time>2015-09-18T09:43:49Z</time>
      </trkpt>
      <trkpt lat="44.7676" lon="3.35844">
        <ele>1021.4</ele>
        <time>2015-09-18T09:43:53Z</time>
      </trkpt>
      <trkpt lat="44.76751" lon="3.35836">
        <ele>1021.9</ele>
        <time>2015-09-18T09:43:57Z</time>
      </trkpt>
      <trkpt lat="44.76741" lon="3.3583">
        <ele>1022.5</ele>
        <time>2015-09-18T09:44:01Z</time>
      </trkpt>
      <trkpt lat="44.76732" lon="3.35826">
        <ele>1023.1</ele>
        <time>2015-09-18T09:44:05Z</time>
      </trkpt>
      <trkpt lat="44.76723" lon="3.35822">
        <ele>1023.6</ele>
        <time>2015-09-18T09:44:09Z</time>
      </trkpt>
      <trkpt lat="44.76714" lon="3.35816">
        <ele>1024.1</ele>
        <time>2015-09-18T09:44:13Z</time>
      </trkpt>
      <trkpt lat="44.76704" lon="3.3581">
        <ele>1024.8</ele>
        <time>2015-09-18T09:44:17Z</time>
      </trkpt>
      <trkpt lat="44.76696" lon="3.35805">
        <ele>1025.3</ele>
        <time>2015-09-18T09:44:21Z</time>
      </trkpt>
      <trkpt lat="44.76686" lon="3.35799">
        <ele>1025.7</ele>
        <time>2015-09-18T09:44:25Z</time>
      </trkpt>
      <trkpt lat="44.76677" lon="3.35794">
        <ele>1026.1</ele>
        <time>2015-09-18T09:44:29Z</time>
      </trkpt>
      <trkpt lat="44.76667" lon="3.3579">
        <ele>1026.5</ele>
        <time>2015-09-18T09:44:34Z</time>
      </trkpt>
      <trkpt lat="44.76656" lon="3.35788">
        <ele>1026.8</ele>
        <time>2015-09-18T09:44:38Z</time>
      </trkpt>
      <trkpt lat="44.76647" lon="3.35789">
        <ele>1027</ele>
        <time>2015-09-18T09:44:41Z</time>
      </trkpt>
      <trkpt lat="44.76637" lon="3.35791">
        <ele>1027.1</ele>
        <time>2015-09-18T09:44:44Z</time>
      </trkpt>
      <trkpt lat="44.76628" lon="3.35793">
        <ele>1027.2</ele>
        <time>2015-09-18T09:44:47Z</time>
      </trkpt>
      <trkpt lat="44.76618" lon="3.35793">
        <ele>1027.4</ele>
        <time>2015-09-18T09:44:50Z</time>
      </trkpt>
      <trkpt lat="44.76607" lon="3.35791">
        <ele>1027.6</ele>
        <time>2015-09-18T09:44:53Z</time>
      </trkpt>
      <trkpt lat="44.76595" lon="3.35787">
        <ele>1027.7</ele>
        <time>2015-09-18T09:44:56Z</time>
      </trkpt>
      <trkpt lat="44.76582" lon="3.35784">
        <ele>1027.8</ele>
        <time>2015-09-18T09:44:59Z</time>
      </trkpt>
      <trkpt lat="44.76573" lon="3.35783">
        <ele>1027.8</ele>
        <time>2015-09-18T09:45:01Z</time>
      </trkpt>
      <trkpt lat="44.76564" lon="3.35782">
        <ele>1027.8</ele>
        <time>2015-09-18T09:45:03Z</time>
      </trkpt>
      <trkpt lat="44.7655" lon="3.35782">
        <ele>1027.7</ele>
        <time>2015-09-18T09:45:06Z</time>
      </trkpt>
      <trkpt lat="44.76541" lon="3.35782">
        <ele>1027.7</ele>
        <time>2015-09-18T09:45:08Z</time>
      </trkpt>
      <trkpt lat="44.76532" lon="3.35782">
        <ele>1027.6</ele>
        <time>2015-09-18T09:45:10Z</time>
      </trkpt>
      <trkpt lat="44.76522" lon="3.35783">
        <ele>1027.5</ele>
        <time>2015-09-18T09:45:12Z</time>
      </trkpt>
      <trkpt lat="44.76513" lon="3.35783">
        <ele>1027.4</ele>
        <time>2015-09-18T09:45:14Z</time>
      </trkpt>
      <trkpt lat="44.76503" lon="3.35781">
        <ele>1027.2</ele>
        <time>2015-09-18T09:45:16Z</time>
      </trkpt>
      <trkpt lat="44.76492" lon="3.35775">
        <ele>1027</ele>
        <time>2015-09-18T09:45:18Z</time>
      </trkpt>
      <trkpt lat="44.76481" lon="3.35766">
        <ele>1026.8</ele>
        <time>2015-09-18T09:45:20Z</time>
      </trkpt>
      <trkpt lat="44.7647" lon="3.35755">
        <ele>1026.6</ele>
        <time>2015-09-18T09:45:22Z</time>
      </trkpt>
      <trkpt lat="44.76459" lon="3.35744">
        <ele>1026.3</ele>
        <time>2015-09-18T09:45:24Z</time>
      </trkpt>
      <trkpt lat="44.76449" lon="3.35735">
        <ele>1026</ele>
        <time>2015-09-18T09:45:26Z</time>
      </trkpt>
      <trkpt lat="44.76439" lon="3.35726">
        <ele>1025.8</ele>
        <time>2015-09-18T09:45:28Z</time>
      </trkpt>
      <trkpt lat="44.7643" lon="3.35718">
        <ele>1025.5</ele>
        <time>2015-09-18T09:45:30Z</time>
      </trkpt>
      <trkpt lat="44.76419" lon="3.35714">
        <ele>1025.2</ele>
        <time>2015-09-18T09:45:32Z</time>
      </trkpt>
      <trkpt lat="44.76408" lon="3.35713">
        <ele>1025</ele>
        <time>2015-09-18T09:45:34Z</time>
      </trkpt>
      <trkpt lat="44.76397" lon="3.35712">
        <ele>1024.8</ele>
        <time>2015-09-18T09:45:36Z</time>
      </trkpt>
      <trkpt lat="44.76387" lon="3.35711">
        <ele>1024.6</ele>
        <time>2015-09-18T09:45:38Z</time>
      </trkpt>
      <trkpt lat="44.76375" lon="3.35709">
        <ele>1024.4</ele>
        <time>2015-09-18T09:45:41Z</time>
      </trkpt>
      <trkpt lat="44.76363" lon="3.35708">
        <ele>1024.2</ele>
        <time>2015-09-18T09:45:44Z</time>
      </trkpt>
      <trkpt lat="44.76354" lon="3.35707">
        <ele>1024.1</ele>
        <time>2015-09-18T09:45:46Z</time>
      </trkpt>
      <trkpt lat="44.76344" lon="3.35705">
        <ele>1023.9</ele>
        <time>2015-09-18T09:45:48Z</time>
      </trkpt>
      <trkpt lat="44.76334" lon="3.35704">
        <ele>1023.7</ele>
        <time>2015-09-18T09:45:50Z</time>
      </trkpt>
      <trkpt lat="44.76323" lon="3.35702">
        <ele>1023.5</ele>
        <time>2015-09-18T09:45:52Z</time>
      </trkpt>
      <trkpt lat="44.76312" lon="3.357">
        <ele>1023.2</ele>
        <time>2015-09-18T09:45:54Z</time>
      </trkpt>
      <trkpt lat="44.76302" lon="3.35699">
        <ele>1023</ele>
        <time>2015-09-18T09:45:56Z</time>
      </trkpt>
      <trkpt lat="44.76291" lon="3.357">
        <ele>1022.7</ele>
        <time>2015-09-18T09:45:58Z</time>
      </trkpt>
      <trkpt lat="44.7628" lon="3.35702">
        <ele>1022.4</ele>
        <time>2015-09-18T09:46:00Z</time>
      </trkpt>
      <trkpt lat="44.7627" lon="3.35704">
        <ele>1022.2</ele>
        <time>2015-09-18T09:46:02Z</time>
      </trkpt>
      <trkpt lat="44.7626" lon="3.35704">
        <ele>1021.9</ele>
        <time>2015-09-18T09:46:04Z</time>
      </trkpt>
      <trkpt lat="44.7625" lon="3.35704">
        <ele>1021.6</ele>
        <time>2015-09-18T09:46:06Z</time>
      </trkpt>
      <trkpt lat="44.76241" lon="3.35704">
        <ele>1021.4</ele>
        <time>2015-09-18T09:46:08Z</time>
      </trkpt>
      <trkpt lat="44.76231" lon="3.35702">
        <ele>1021.1</ele>
        <time>2015-09-18T09:46:10Z</time>
      </trkpt>
      <trkpt lat="44.76222" lon="3.357">
        <ele>1020.9</ele>
        <time>2015-09-18T09:46:12Z</time>
      </trkpt>
      <trkpt lat="44.76212" lon="3.35699">
        <ele>1020.7</ele>
        <time>2015-09-18T09:46:14Z</time>
      </trkpt>
      <trkpt lat="44.76203" lon="3.35697">
        <ele>1020.5</ele>
        <time>2015-09-18T09:46:16Z</time>
      </trkpt>
      <trkpt lat="44.76193" lon="3.35695">
        <ele>1020.4</ele>
        <time>2015-09-18T09:46:18Z</time>
      </trkpt>
      <trkpt lat="44.7618" lon="3.35693">
        <ele>1020.2</ele>
        <time>2015-09-18T09:46:21Z</time>
      </trkpt>
      <trkpt lat="44.76168" lon="3.35689">
        <ele>1020</ele>
        <time>2015-09-18T09:46:24Z</time>
      </trkpt>
      <trkpt lat="44.76158" lon="3.35688">
        <ele>1019.8</ele>
        <time>2015-09-18T09:46:27Z</time>
      </trkpt>
      <trkpt lat="44.76147" lon="3.3569">
        <ele>1019.7</ele>
        <time>2015-09-18T09:46:30Z</time>
      </trkpt>
      <trkpt lat="44.76136" lon="3.35695">
        <ele>1019.6</ele>
        <time>2015-09-18T09:46:33Z</time>
      </trkpt>
      <trkpt lat="44.76126" lon="3.35692">
        <ele>1019.6</ele>
        <time>2015-09-18T09:46:35Z</time>
      </trkpt>
      <trkpt lat="44.76118" lon="3.35682">
        <ele>1019.5</ele>
        <time>2015-09-18T09:46:38Z</time>
      </trkpt>
      <trkpt lat="44.76116" lon="3.35667">
        <ele>1019.4</ele>
        <time>2015-09-18T09:46:42Z</time>
      </trkpt>
      <trkpt lat="44.76118" lon="3.3568">
        <ele>1019.1</ele>
        <time>2015-09-18T09:47:57Z</time>
      </trkpt>
      <trkpt lat="44.76123" lon="3.35692">
        <ele>1019.1</ele>
        <time>2015-09-18T09:48:03Z</time>
      </trkpt>
      <trkpt lat="44.76129" lon="3.35701">
        <ele>1019.1</ele>
        <time>2015-09-18T09:48:10Z</time>
      </trkpt>
      <trkpt lat="44.76125" lon="3.35689">
        <ele>1018.7</ele>
        <time>2015-09-18T09:49:27Z</time>
      </trkpt>
      <trkpt lat="44.76121" lon="3.35676">
        <ele>1018.7</ele>
        <time>2015-09-18T09:49:35Z</time>
      </trkpt>
      <trkpt lat="44.76122" lon="3.35662">
        <ele>1018.7</ele>
        <time>2015-09-18T09:49:55Z</time>
      </trkpt>
      <trkpt lat="44.76124" lon="3.35648">
        <ele>1018.7</ele>
        <time>2015-09-18T09:50:00Z</time>
      </trkpt>
      <trkpt lat="44.76125" lon="3.35634">
        <ele>1018.7</ele>
        <time>2015-09-18T09:50:03Z</time>
      </trkpt>
      <trkpt lat="44.76126" lon="3.3562">
        <ele>1018.5</ele>
        <time>2015-09-18T09:50:05Z</time>
      </trkpt>
      <trkpt lat="44.76123" lon="3.35605">
        <ele>1018.3</ele>
        <time>2015-09-18T09:50:07Z</time>
      </trkpt>
      <trkpt lat="44.76115" lon="3.35591">
        <ele>1018</ele>
        <time>2015-09-18T09:50:09Z</time>
      </trkpt>
      <trkpt lat="44.761" lon="3.35585">
        <ele>1017.5</ele>
        <time>2015-09-18T09:50:11Z</time>
      </trkpt>
      <trkpt lat="44.76084" lon="3.3558">
        <ele>1016.9</ele>
        <time>2015-09-18T09:50:13Z</time>
      </trkpt>
      <trkpt lat="44.76068" lon="3.35579">
        <ele>1016.2</ele>
        <time>2015-09-18T09:50:15Z</time>
      </trkpt>
      <trkpt lat="44.76052" lon="3.35587">
        <ele>1015.5</ele>
        <time>2015-09-18T09:50:17Z</time>
      </trkpt>
      <trkpt lat="44.76036" lon="3.35599">
        <ele>1014.8</ele>
        <time>2015-09-18T09:50:19Z</time>
      </trkpt>
      <trkpt lat="44.76029" lon="3.35605">
        <ele>1014.4</ele>
        <time>2015-09-18T09:50:20Z</time>
      </trkpt>
      <trkpt lat="44.7602" lon="3.35612">
        <ele>1014</ele>
        <time>2015-09-18T09:50:21Z</time>
      </trkpt>
      <trkpt lat="44.76012" lon="3.35617">
        <ele>1013.6</ele>
        <time>2015-09-18T09:50:22Z</time>
      </trkpt>
      <trkpt lat="44.76003" lon="3.35621">
        <ele>1013.1</ele>
        <time>2015-09-18T09:50:23Z</time>
      </trkpt>
      <trkpt lat="44.75994" lon="3.35624">
        <ele>1012.7</ele>
        <time>2015-09-18T09:50:24Z</time>
      </trkpt>
      <trkpt lat="44.75981" lon="3.3563">
        <ele>1012</ele>
        <time>2015-09-18T09:50:26Z</time>
      </trkpt>
      <trkpt lat="44.75972" lon="3.35634">
        <ele>1011.3</ele>
        <time>2015-09-18T09:50:28Z</time>
      </trkpt>
      <trkpt lat="44.75961" lon="3.35644">
        <ele>1010.5</ele>
        <time>2015-09-18T09:50:31Z</time>
      </trkpt>
      <trkpt lat="44.7595" lon="3.35653">
        <ele>1009.8</ele>
        <time>2015-09-18T09:50:34Z</time>
      </trkpt>
      <trkpt lat="44.7594" lon="3.35661">
        <ele>1009.2</ele>
        <time>2015-09-18T09:50:37Z</time>
      </trkpt>
      <trkpt lat="44.75932" lon="3.35667">
        <ele>1008.8</ele>
        <time>2015-09-18T09:50:40Z</time>
      </trkpt>
      <trkpt lat="44.75924" lon="3.35673">
        <ele>1008.7</ele>
        <time>2015-09-18T09:50:43Z</time>
      </trkpt>
      <trkpt lat="44.75915" lon="3.3568">
        <ele>1008.7</ele>
        <time>2015-09-18T09:50:46Z</time>
      </trkpt>
      <trkpt lat="44.75908" lon="3.35688">
        <ele>1008.7</ele>
        <time>2015-09-18T09:50:49Z</time>
      </trkpt>
      <trkpt lat="44.75898" lon="3.35695">
        <ele>1008.9</ele>
        <time>2015-09-18T09:50:53Z</time>
      </trkpt>
      <trkpt lat="44.75887" lon="3.35703">
        <ele>1009.3</ele>
        <time>2015-09-18T09:50:57Z</time>
      </trkpt>
      <trkpt lat="44.75879" lon="3.35708">
        <ele>1009.5</ele>
        <time>2015-09-18T09:51:00Z</time>
      </trkpt>
      <trkpt lat="44.75867" lon="3.35714">
        <ele>1009.9</ele>
        <time>2015-09-18T09:51:04Z</time>
      </trkpt>
      <trkpt lat="44.75857" lon="3.3572">
        <ele>1010.3</ele>
        <time>2015-09-18T09:51:08Z</time>
      </trkpt>
      <trkpt lat="44.75847" lon="3.35727">
        <ele>1010.6</ele>
        <time>2015-09-18T09:51:12Z</time>
      </trkpt>
      <trkpt lat="44.75836" lon="3.35733">
        <ele>1011</ele>
        <time>2015-09-18T09:51:16Z</time>
      </trkpt>
      <trkpt lat="44.75827" lon="3.35739">
        <ele>1011.5</ele>
        <time>2015-09-18T09:51:20Z</time>
      </trkpt>
      <trkpt lat="44.75817" lon="3.35744">
        <ele>1012</ele>
        <time>2015-09-18T09:51:24Z</time>
      </trkpt>
      <trkpt lat="44.75808" lon="3.3575">
        <ele>1012.6</ele>
        <time>2015-09-18T09:51:28Z</time>
      </trkpt>
      <trkpt lat="44.75799" lon="3.35755">
        <ele>1013.2</ele>
        <time>2015-09-18T09:51:32Z</time>
      </trkpt>
      <trkpt lat="44.7579" lon="3.3576">
        <ele>1013.8</ele>
        <time>2015-09-18T09:51:36Z</time>
      </trkpt>
      <trkpt lat="44.7578" lon="3.35765">
        <ele>1014.4</ele>
        <time>2015-09-18T09:51:40Z</time>
      </trkpt>
      <trkpt lat="44.7577" lon="3.3577">
        <ele>1014.9</ele>
        <time>2015-09-18T09:51:44Z</time>
      </trkpt>
      <trkpt lat="44.75761" lon="3.35775">
        <ele>1015.4</ele>
        <time>2015-09-18T09:51:48Z</time>
      </trkpt>
      <trkpt lat="44.75751" lon="3.35779">
        <ele>1016.1</ele>
        <time>2015-09-18T09:51:52Z</time>
      </trkpt>
      <trkpt lat="44.75742" lon="3.35784">
        <ele>1016.6</ele>
        <time>2015-09-18T09:51:56Z</time>
      </trkpt>
      <trkpt lat="44.75732" lon="3.35788">
        <ele>1017.5</ele>
        <time>2015-09-18T09:52:01Z</time>
      </trkpt>
      <trkpt lat="44.75721" lon="3.35793">
        <ele>1018.3</ele>
        <time>2015-09-18T09:52:06Z</time>
      </trkpt>
      <trkpt lat="44.75711" lon="3.35799">
        <ele>1019</ele>
        <time>2015-09-18T09:52:11Z</time>
      </trkpt>
      <trkpt lat="44.75701" lon="3.35802">
        <ele>1019.5</ele>
        <time>2015-09-18T09:52:15Z</time>
      </trkpt>
      <trkpt lat="44.7569" lon="3.35808">
        <ele>1019.9</ele>
        <time>2015-09-18T09:52:19Z</time>
      </trkpt>
      <trkpt lat="44.7568" lon="3.35814">
        <ele>1020.3</ele>
        <time>2015-09-18T09:52:23Z</time>
      </trkpt>
      <trkpt lat="44.75669" lon="3.3582">
        <ele>1020.7</ele>
        <time>2015-09-18T09:52:27Z</time>
      </trkpt>
      <trkpt lat="44.7566" lon="3.35824">
        <ele>1021</ele>
        <time>2015-09-18T09:52:30Z</time>
      </trkpt>
      <trkpt lat="44.7565" lon="3.35829">
        <ele>1021.2</ele>
        <time>2015-09-18T09:52:33Z</time>
      </trkpt>
      <trkpt lat="44.7564" lon="3.35835">
        <ele>1021.3</ele>
        <time>2015-09-18T09:52:36Z</time>
      </trkpt>
      <trkpt lat="44.75629" lon="3.35838">
        <ele>1021.4</ele>
        <time>2015-09-18T09:52:39Z</time>
      </trkpt>
      <trkpt lat="44.75617" lon="3.35842">
        <ele>1021.6</ele>
        <time>2015-09-18T09:52:42Z</time>
      </trkpt>
      <trkpt lat="44.75605" lon="3.35844">
        <ele>1021.6</ele>
        <time>2015-09-18T09:52:45Z</time>
      </trkpt>
      <trkpt lat="44.75593" lon="3.35846">
        <ele>1021.7</ele>
        <time>2015-09-18T09:52:48Z</time>
      </trkpt>
      <trkpt lat="44.75583" lon="3.35848">
        <ele>1021.8</ele>
        <time>2015-09-18T09:52:51Z</time>
      </trkpt>
      <trkpt lat="44.75573" lon="3.3585">
        <ele>1022</ele>
        <time>2015-09-18T09:52:54Z</time>
      </trkpt>
      <trkpt lat="44.75564" lon="3.35854">
        <ele>1022.1</ele>
        <time>2015-09-18T09:52:57Z</time>
      </trkpt>
      <trkpt lat="44.75554" lon="3.35856">
        <ele>1022.5</ele>
        <time>2015-09-18T09:53:01Z</time>
      </trkpt>
      <trkpt lat="44.75544" lon="3.35858">
        <ele>1023.3</ele>
        <time>2015-09-18T09:53:14Z</time>
      </trkpt>
      <trkpt lat="44.75536" lon="3.35852">
        <ele>1023.6</ele>
        <time>2015-09-18T09:53:22Z</time>
      </trkpt>
      <trkpt lat="44.75525" lon="3.35852">
        <ele>1023.6</ele>
        <time>2015-09-18T09:53:25Z</time>
      </trkpt>
      <trkpt lat="44.75514" lon="3.35851">
        <ele>1023.4</ele>
        <time>2015-09-18T09:53:27Z</time>
      </trkpt>
      <trkpt lat="44.75499" lon="3.35849">
        <ele>1023.1</ele>
        <time>2015-09-18T09:53:29Z</time>
      </trkpt>
      <trkpt lat="44.75487" lon="3.35849">
        <ele>1022.7</ele>
        <time>2015-09-18T09:53:31Z</time>
      </trkpt>
      <trkpt lat="44.75473" lon="3.35849">
        <ele>1022.4</ele>
        <time>2015-09-18T09:53:33Z</time>
      </trkpt>
      <trkpt lat="44.75461" lon="3.35847">
        <ele>1022.1</ele>
        <time>2015-09-18T09:53:35Z</time>
      </trkpt>
      <trkpt lat="44.75449" lon="3.35845">
        <ele>1021.8</ele>
        <time>2015-09-18T09:53:37Z</time>
      </trkpt>
      <trkpt lat="44.75437" lon="3.35842">
        <ele>1021.4</ele>
        <time>2015-09-18T09:53:39Z</time>
      </trkpt>
      <trkpt lat="44.75425" lon="3.35838">
        <ele>1021</ele>
        <time>2015-09-18T09:53:41Z</time>
      </trkpt>
      <trkpt lat="44.75412" lon="3.35833">
        <ele>1020.6</ele>
        <time>2015-09-18T09:53:43Z</time>
      </trkpt>
      <trkpt lat="44.754" lon="3.35831">
        <ele>1020.2</ele>
        <time>2015-09-18T09:53:45Z</time>
      </trkpt>
      <trkpt lat="44.7539" lon="3.35829">
        <ele>1019.9</ele>
        <time>2015-09-18T09:53:47Z</time>
      </trkpt>
      <trkpt lat="44.75381" lon="3.35829">
        <ele>1019.4</ele>
        <time>2015-09-18T09:53:51Z</time>
      </trkpt>
      <trkpt lat="44.75373" lon="3.35823">
        <ele>1018.9</ele>
        <time>2015-09-18T09:53:56Z</time>
      </trkpt>
      <trkpt lat="44.75363" lon="3.35813">
        <ele>1018.6</ele>
        <time>2015-09-18T09:54:00Z</time>
      </trkpt>
      <trkpt lat="44.75355" lon="3.35804">
        <ele>1018.4</ele>
        <time>2015-09-18T09:54:04Z</time>
      </trkpt>
      <trkpt lat="44.75346" lon="3.35794">
        <ele>1018.2</ele>
        <time>2015-09-18T09:54:09Z</time>
      </trkpt>
      <trkpt lat="44.75338" lon="3.35784">
        <ele>1018</ele>
        <time>2015-09-18T09:54:14Z</time>
      </trkpt>
      <trkpt lat="44.7533" lon="3.35773">
        <ele>1017.9</ele>
        <time>2015-09-18T09:54:18Z</time>
      </trkpt>
      <trkpt lat="44.75323" lon="3.35763">
        <ele>1017.8</ele>
        <time>2015-09-18T09:54:23Z</time>
      </trkpt>
      <trkpt lat="44.75314" lon="3.35752">
        <ele>1017.8</ele>
        <time>2015-09-18T09:54:27Z</time>
      </trkpt>
      <trkpt lat="44.75308" lon="3.35742">
        <ele>1017.8</ele>
        <time>2015-09-18T09:54:30Z</time>
      </trkpt>
      <trkpt lat="44.753" lon="3.35732">
        <ele>1017.7</ele>
        <time>2015-09-18T09:54:33Z</time>
      </trkpt>
      <trkpt lat="44.75292" lon="3.35724">
        <ele>1017.8</ele>
        <time>2015-09-18T09:54:36Z</time>
      </trkpt>
      <trkpt lat="44.75284" lon="3.35715">
        <ele>1017.9</ele>
        <time>2015-09-18T09:54:39Z</time>
      </trkpt>
      <trkpt lat="44.75274" lon="3.35706">
        <ele>1018.2</ele>
        <time>2015-09-18T09:54:42Z</time>
      </trkpt>
      <trkpt lat="44.75265" lon="3.35697">
        <ele>1018.5</ele>
        <time>2015-09-18T09:54:45Z</time>
      </trkpt>
      <trkpt lat="44.75257" lon="3.35689">
        <ele>1018.8</ele>
        <time>2015-09-18T09:54:48Z</time>
      </trkpt>
      <trkpt lat="44.75249" lon="3.3568">
        <ele>1019.1</ele>
        <time>2015-09-18T09:54:51Z</time>
      </trkpt>
      <trkpt lat="44.75241" lon="3.35672">
        <ele>1019.4</ele>
        <time>2015-09-18T09:54:54Z</time>
      </trkpt>
      <trkpt lat="44.75234" lon="3.35663">
        <ele>1019.7</ele>
        <time>2015-09-18T09:54:57Z</time>
      </trkpt>
      <trkpt lat="44.75227" lon="3.35655">
        <ele>1020</ele>
        <time>2015-09-18T09:55:00Z</time>
      </trkpt>
      <trkpt lat="44.75219" lon="3.35646">
        <ele>1020.2</ele>
        <time>2015-09-18T09:55:03Z</time>
      </trkpt>
      <trkpt lat="44.75212" lon="3.35637">
        <ele>1020.4</ele>
        <time>2015-09-18T09:55:06Z</time>
      </trkpt>
      <trkpt lat="44.75202" lon="3.35628">
        <ele>1020.8</ele>
        <time>2015-09-18T09:55:10Z</time>
      </trkpt>
      <trkpt lat="44.75194" lon="3.35619">
        <ele>1021.2</ele>
        <time>2015-09-18T09:55:14Z</time>
      </trkpt>
      <trkpt lat="44.75186" lon="3.3561">
        <ele>1021.5</ele>
        <time>2015-09-18T09:55:18Z</time>
      </trkpt>
      <trkpt lat="44.75177" lon="3.35602">
        <ele>1021.9</ele>
        <time>2015-09-18T09:55:22Z</time>
      </trkpt>
      <trkpt lat="44.75174" lon="3.35589">
        <ele>1022.3</ele>
        <time>2015-09-18T09:55:26Z</time>
      </trkpt>
      <trkpt lat="44.75171" lon="3.35575">
        <ele>1022.7</ele>
        <time>2015-09-18T09:55:30Z</time>
      </trkpt>
      <trkpt lat="44.75166" lon="3.35562">
        <ele>1023.1</ele>
        <time>2015-09-18T09:55:34Z</time>
      </trkpt>
      <trkpt lat="44.75158" lon="3.35549">
        <ele>1023.4</ele>
        <time>2015-09-18T09:55:38Z</time>
      </trkpt>
      <trkpt lat="44.75151" lon="3.35541">
        <ele>1023.7</ele>
        <time>2015-09-18T09:55:41Z</time>
      </trkpt>
      <trkpt lat="44.75142" lon="3.35534">
        <ele>1023.9</ele>
        <time>2015-09-18T09:55:44Z</time>
      </trkpt>
      <trkpt lat="44.75133" lon="3.35528">
        <ele>1024.1</ele>
        <time>2015-09-18T09:55:47Z</time>
      </trkpt>
      <trkpt lat="44.75123" lon="3.35523">
        <ele>1024.4</ele>
        <time>2015-09-18T09:55:51Z</time>
      </trkpt>
      <trkpt lat="44.75112" lon="3.35517">
        <ele>1024.7</ele>
        <time>2015-09-18T09:55:55Z</time>
      </trkpt>
      <trkpt lat="44.75103" lon="3.35513">
        <ele>1024.9</ele>
        <time>2015-09-18T09:55:58Z</time>
      </trkpt>
      <trkpt lat="44.75091" lon="3.35509">
        <ele>1025.1</ele>
        <time>2015-09-18T09:56:02Z</time>
      </trkpt>
      <trkpt lat="44.75081" lon="3.35501">
        <ele>1025.5</ele>
        <time>2015-09-18T09:56:06Z</time>
      </trkpt>
      <trkpt lat="44.75072" lon="3.35493">
        <ele>1025.6</ele>
        <time>2015-09-18T09:56:09Z</time>
      </trkpt>
      <trkpt lat="44.75063" lon="3.35487">
        <ele>1025.8</ele>
        <time>2015-09-18T09:56:12Z</time>
      </trkpt>
      <trkpt lat="44.75053" lon="3.35479">
        <ele>1026</ele>
        <time>2015-09-18T09:56:16Z</time>
      </trkpt>
      <trkpt lat="44.75044" lon="3.35472">
        <ele>1026.1</ele>
        <time>2015-09-18T09:56:19Z</time>
      </trkpt>
      <trkpt lat="44.75034" lon="3.35467">
        <ele>1026.2</ele>
        <time>2015-09-18T09:56:22Z</time>
      </trkpt>
      <trkpt lat="44.75021" lon="3.35461">
        <ele>1026.2</ele>
        <time>2015-09-18T09:56:25Z</time>
      </trkpt>
      <trkpt lat="44.75012" lon="3.35458">
        <ele>1026.3</ele>
        <time>2015-09-18T09:56:27Z</time>
      </trkpt>
      <trkpt lat="44.75003" lon="3.35453">
        <ele>1026.3</ele>
        <time>2015-09-18T09:56:29Z</time>
      </trkpt>
      <trkpt lat="44.74994" lon="3.35448">
        <ele>1026.3</ele>
        <time>2015-09-18T09:56:31Z</time>
      </trkpt>
      <trkpt lat="44.74982" lon="3.35442">
        <ele>1026.3</ele>
        <time>2015-09-18T09:56:34Z</time>
      </trkpt>
      <trkpt lat="44.74971" lon="3.35438">
        <ele>1026.4</ele>
        <time>2015-09-18T09:56:37Z</time>
      </trkpt>
      <trkpt lat="44.74959" lon="3.35434">
        <ele>1026.4</ele>
        <time>2015-09-18T09:56:40Z</time>
      </trkpt>
      <trkpt lat="44.74947" lon="3.35428">
        <ele>1026.3</ele>
        <time>2015-09-18T09:56:43Z</time>
      </trkpt>
      <trkpt lat="44.74935" lon="3.3542">
        <ele>1026.1</ele>
        <time>2015-09-18T09:56:46Z</time>
      </trkpt>
      <trkpt lat="44.74925" lon="3.35411">
        <ele>1026</ele>
        <time>2015-09-18T09:56:49Z</time>
      </trkpt>
      <trkpt lat="44.74915" lon="3.35398">
        <ele>1025.7</ele>
        <time>2015-09-18T09:56:52Z</time>
      </trkpt>
      <trkpt lat="44.74908" lon="3.3539">
        <ele>1025.5</ele>
        <time>2015-09-18T09:56:54Z</time>
      </trkpt>
      <trkpt lat="44.74901" lon="3.3538">
        <ele>1025.3</ele>
        <time>2015-09-18T09:56:56Z</time>
      </trkpt>
      <trkpt lat="44.74894" lon="3.35371">
        <ele>1025.2</ele>
        <time>2015-09-18T09:56:58Z</time>
      </trkpt>
      <trkpt lat="44.74887" lon="3.35361">
        <ele>1025</ele>
        <time>2015-09-18T09:57:00Z</time>
      </trkpt>
      <trkpt lat="44.7488" lon="3.35349">
        <ele>1024.8</ele>
        <time>2015-09-18T09:57:02Z</time>
      </trkpt>
      <trkpt lat="44.74873" lon="3.35336">
        <ele>1024.5</ele>
        <time>2015-09-18T09:57:04Z</time>
      </trkpt>
      <trkpt lat="44.74868" lon="3.35323">
        <ele>1024.2</ele>
        <time>2015-09-18T09:57:06Z</time>
      </trkpt>
      <trkpt lat="44.74864" lon="3.35308">
        <ele>1023.9</ele>
        <time>2015-09-18T09:57:08Z</time>
      </trkpt>
      <trkpt lat="44.74858" lon="3.35293">
        <ele>1023.6</ele>
        <time>2015-09-18T09:57:10Z</time>
      </trkpt>
      <trkpt lat="44.74851" lon="3.35277">
        <ele>1023.1</ele>
        <time>2015-09-18T09:57:12Z</time>
      </trkpt>
      <trkpt lat="44.74841" lon="3.35259">
        <ele>1022.4</ele>
        <time>2015-09-18T09:57:14Z</time>
      </trkpt>
      <trkpt lat="44.7483" lon="3.3524">
        <ele>1021.6</ele>
        <time>2015-09-18T09:57:16Z</time>
      </trkpt>
      <trkpt lat="44.7482" lon="3.3522">
        <ele>1020.9</ele>
        <time>2015-09-18T09:57:18Z</time>
      </trkpt>
      <trkpt lat="44.7481" lon="3.35201">
        <ele>1020.2</ele>
        <time>2015-09-18T09:57:20Z</time>
      </trkpt>
      <trkpt lat="44.74799" lon="3.35183">
        <ele>1019.5</ele>
        <time>2015-09-18T09:57:22Z</time>
      </trkpt>
      <trkpt lat="44.7479" lon="3.35165">
        <ele>1018.8</ele>
        <time>2015-09-18T09:57:24Z</time>
      </trkpt>
      <trkpt lat="44.74781" lon="3.35148">
        <ele>1018.1</ele>
        <time>2015-09-18T09:57:26Z</time>
      </trkpt>
      <trkpt lat="44.74772" lon="3.35137">
        <ele>1017.5</ele>
        <time>2015-09-18T09:57:28Z</time>
      </trkpt>
      <trkpt lat="44.74762" lon="3.35125">
        <ele>1017</ele>
        <time>2015-09-18T09:57:30Z</time>
      </trkpt>
      <trkpt lat="44.74753" lon="3.35115">
        <ele>1016.5</ele>
        <time>2015-09-18T09:57:32Z</time>
      </trkpt>
      <trkpt lat="44.74745" lon="3.35106">
        <ele>1016.1</ele>
        <time>2015-09-18T09:57:34Z</time>
      </trkpt>
      <trkpt lat="44.74735" lon="3.35095">
        <ele>1015.6</ele>
        <time>2015-09-18T09:57:37Z</time>
      </trkpt>
      <trkpt lat="44.74727" lon="3.35087">
        <ele>1015.2</ele>
        <time>2015-09-18T09:57:40Z</time>
      </trkpt>
      <trkpt lat="44.74717" lon="3.35076">
        <ele>1014.9</ele>
        <time>2015-09-18T09:57:43Z</time>
      </trkpt>
      <trkpt lat="44.74706" lon="3.35067">
        <ele>1014.7</ele>
        <time>2015-09-18T09:57:46Z</time>
      </trkpt>
      <trkpt lat="44.74696" lon="3.35061">
        <ele>1014.5</ele>
        <time>2015-09-18T09:57:49Z</time>
      </trkpt>
      <trkpt lat="44.74686" lon="3.35055">
        <ele>1014.4</ele>
        <time>2015-09-18T09:57:52Z</time>
      </trkpt>
      <trkpt lat="44.74676" lon="3.35049">
        <ele>1014.4</ele>
        <time>2015-09-18T09:57:55Z</time>
      </trkpt>
      <trkpt lat="44.74664" lon="3.35041">
        <ele>1014.3</ele>
        <time>2015-09-18T09:57:58Z</time>
      </trkpt>
      <trkpt lat="44.74655" lon="3.35037">
        <ele>1014.3</ele>
        <time>2015-09-18T09:58:00Z</time>
      </trkpt>
      <trkpt lat="44.74645" lon="3.35033">
        <ele>1014.2</ele>
        <time>2015-09-18T09:58:02Z</time>
      </trkpt>
      <trkpt lat="44.74635" lon="3.35026">
        <ele>1014.2</ele>
        <time>2015-09-18T09:58:04Z</time>
      </trkpt>
      <trkpt lat="44.74624" lon="3.35021">
        <ele>1014.1</ele>
        <time>2015-09-18T09:58:06Z</time>
      </trkpt>
      <trkpt lat="44.74612" lon="3.35017">
        <ele>1014.1</ele>
        <time>2015-09-18T09:58:08Z</time>
      </trkpt>
      <trkpt lat="44.74599" lon="3.35016">
        <ele>1014</ele>
        <time>2015-09-18T09:58:10Z</time>
      </trkpt>
      <trkpt lat="44.74586" lon="3.35015">
        <ele>1014</ele>
        <time>2015-09-18T09:58:12Z</time>
      </trkpt>
      <trkpt lat="44.74573" lon="3.35015">
        <ele>1013.9</ele>
        <time>2015-09-18T09:58:14Z</time>
      </trkpt>
      <trkpt lat="44.7456" lon="3.35017">
        <ele>1013.9</ele>
        <time>2015-09-18T09:58:16Z</time>
      </trkpt>
      <trkpt lat="44.74547" lon="3.35023">
        <ele>1013.9</ele>
        <time>2015-09-18T09:58:18Z</time>
      </trkpt>
      <trkpt lat="44.74535" lon="3.35028">
        <ele>1013.9</ele>
        <time>2015-09-18T09:58:20Z</time>
      </trkpt>
      <trkpt lat="44.74523" lon="3.35031">
        <ele>1013.8</ele>
        <time>2015-09-18T09:58:22Z</time>
      </trkpt>
      <trkpt lat="44.74512" lon="3.35037">
        <ele>1013.8</ele>
        <time>2015-09-18T09:58:24Z</time>
      </trkpt>
      <trkpt lat="44.74502" lon="3.35045">
        <ele>1013.8</ele>
        <time>2015-09-18T09:58:26Z</time>
      </trkpt>
      <trkpt lat="44.74494" lon="3.35057">
        <ele>1013.8</ele>
        <time>2015-09-18T09:58:28Z</time>
      </trkpt>
      <trkpt lat="44.74486" lon="3.35071">
        <ele>1013.7</ele>
        <time>2015-09-18T09:58:30Z</time>
      </trkpt>
      <trkpt lat="44.74479" lon="3.35085">
        <ele>1013.6</ele>
        <time>2015-09-18T09:58:32Z</time>
      </trkpt>
      <trkpt lat="44.74474" lon="3.35095">
        <ele>1013.4</ele>
        <time>2015-09-18T09:58:35Z</time>
      </trkpt>
      <trkpt lat="44.7447" lon="3.35106">
        <ele>1013</ele>
        <time>2015-09-18T09:58:41Z</time>
      </trkpt>
      <trkpt lat="44.74469" lon="3.35124">
        <ele>1011.4</ele>
        <time>2015-09-18T09:59:27Z</time>
      </trkpt>
      <trkpt lat="44.74461" lon="3.35146">
        <ele>1011.2</ele>
        <time>2015-09-18T09:59:30Z</time>
      </trkpt>
      <trkpt lat="44.74456" lon="3.35167">
        <ele>1010.8</ele>
        <time>2015-09-18T09:59:32Z</time>
      </trkpt>
      <trkpt lat="44.74453" lon="3.35179">
        <ele>1010.5</ele>
        <time>2015-09-18T09:59:33Z</time>
      </trkpt>
      <trkpt lat="44.74449" lon="3.35193">
        <ele>1010.1</ele>
        <time>2015-09-18T09:59:34Z</time>
      </trkpt>
      <trkpt lat="44.74444" lon="3.35205">
        <ele>1009.7</ele>
        <time>2015-09-18T09:59:35Z</time>
      </trkpt>
      <trkpt lat="44.74438" lon="3.35216">
        <ele>1009.3</ele>
        <time>2015-09-18T09:59:36Z</time>
      </trkpt>
      <trkpt lat="44.74428" lon="3.35234">
        <ele>1008.5</ele>
        <time>2015-09-18T09:59:38Z</time>
      </trkpt>
      <trkpt lat="44.74416" lon="3.35249">
        <ele>1007.5</ele>
        <time>2015-09-18T09:59:40Z</time>
      </trkpt>
      <trkpt lat="44.74407" lon="3.35256">
        <ele>1006.9</ele>
        <time>2015-09-18T09:59:41Z</time>
      </trkpt>
      <trkpt lat="44.74397" lon="3.35271">
        <ele>1005.8</ele>
        <time>2015-09-18T09:59:43Z</time>
      </trkpt>
      <trkpt lat="44.74396" lon="3.35285">
        <ele>1003</ele>
        <time>2015-09-18T09:59:49Z</time>
      </trkpt>
      <trkpt lat="44.74403" lon="3.35299">
        <ele>1002</ele>
        <time>2015-09-18T09:59:52Z</time>
      </trkpt>
      <trkpt lat="44.74404" lon="3.35316">
        <ele>1000.7</ele>
        <time>2015-09-18T09:59:55Z</time>
      </trkpt>
      <trkpt lat="44.74397" lon="3.35326">
        <ele>999.8</ele>
        <time>2015-09-18T09:59:57Z</time>
      </trkpt>
      <trkpt lat="44.74385" lon="3.35327">
        <ele>997.8</ele>
        <time>2015-09-18T10:00:01Z</time>
      </trkpt>
      <trkpt lat="44.74373" lon="3.35321">
        <ele>995.7</ele>
        <time>2015-09-18T10:00:05Z</time>
      </trkpt>
      <trkpt lat="44.7436" lon="3.35316">
        <ele>994.4</ele>
        <time>2015-09-18T10:00:07Z</time>
      </trkpt>
      <trkpt lat="44.74348" lon="3.35307">
        <ele>993.1</ele>
        <time>2015-09-18T10:00:09Z</time>
      </trkpt>
      <trkpt lat="44.7434" lon="3.35301">
        <ele>991.9</ele>
        <time>2015-09-18T10:00:11Z</time>
      </trkpt>
      <trkpt lat="44.74328" lon="3.35297">
        <ele>990</ele>
        <time>2015-09-18T10:00:14Z</time>
      </trkpt>
      <trkpt lat="44.74316" lon="3.35293">
        <ele>988</ele>
        <time>2015-09-18T10:00:17Z</time>
      </trkpt>
      <trkpt lat="44.74308" lon="3.35289">
        <ele>985.3</ele>
        <time>2015-09-18T10:00:21Z</time>
      </trkpt>
      <trkpt lat="44.74298" lon="3.35288">
        <ele>983.3</ele>
        <time>2015-09-18T10:00:24Z</time>
      </trkpt>
      <trkpt lat="44.74284" lon="3.35291">
        <ele>981</ele>
        <time>2015-09-18T10:00:27Z</time>
      </trkpt>
      <trkpt lat="44.74271" lon="3.35293">
        <ele>979.6</ele>
        <time>2015-09-18T10:00:29Z</time>
      </trkpt>
      <trkpt lat="44.74261" lon="3.35294">
        <ele>977.4</ele>
        <time>2015-09-18T10:00:32Z</time>
      </trkpt>
      <trkpt lat="44.74251" lon="3.35294">
        <ele>976</ele>
        <time>2015-09-18T10:00:34Z</time>
      </trkpt>
      <trkpt lat="44.74242" lon="3.35296">
        <ele>974.5</ele>
        <time>2015-09-18T10:00:36Z</time>
      </trkpt>
      <trkpt lat="44.74229" lon="3.35296">
        <ele>972.2</ele>
        <time>2015-09-18T10:00:39Z</time>
      </trkpt>
      <trkpt lat="44.74216" lon="3.353">
        <ele>969.9</ele>
        <time>2015-09-18T10:00:42Z</time>
      </trkpt>
      <trkpt lat="44.74203" lon="3.353">
        <ele>967.5</ele>
        <time>2015-09-18T10:00:45Z</time>
      </trkpt>
      <trkpt lat="44.74191" lon="3.35301">
        <ele>965.1</ele>
        <time>2015-09-18T10:00:48Z</time>
      </trkpt>
      <trkpt lat="44.74178" lon="3.35299">
        <ele>963.4</ele>
        <time>2015-09-18T10:00:50Z</time>
      </trkpt>
      <trkpt lat="44.74164" lon="3.35299">
        <ele>961.7</ele>
        <time>2015-09-18T10:00:52Z</time>
      </trkpt>
      <trkpt lat="44.74152" lon="3.35306">
        <ele>960.1</ele>
        <time>2015-09-18T10:00:54Z</time>
      </trkpt>
      <trkpt lat="44.74141" lon="3.35313">
        <ele>957.5</ele>
        <time>2015-09-18T10:00:57Z</time>
      </trkpt>
      <trkpt lat="44.74132" lon="3.35305">
        <ele>942.9</ele>
        <time>2015-09-18T10:03:02Z</time>
      </trkpt>
      <trkpt lat="44.74126" lon="3.35295">
        <ele>942.5</ele>
        <time>2015-09-18T10:03:07Z</time>
      </trkpt>
      <trkpt lat="44.74117" lon="3.35307">
        <ele>941.9</ele>
        <time>2015-09-18T10:03:11Z</time>
      </trkpt>
      <trkpt lat="44.74115" lon="3.3532">
        <ele>941.3</ele>
        <time>2015-09-18T10:03:13Z</time>
      </trkpt>
      <trkpt lat="44.74106" lon="3.35317">
        <ele>940.1</ele>
        <time>2015-09-18T10:03:17Z</time>
      </trkpt>
      <trkpt lat="44.74101" lon="3.35304">
        <ele>939.2</ele>
        <time>2015-09-18T10:03:20Z</time>
      </trkpt>
      <trkpt lat="44.74102" lon="3.3529">
        <ele>936.6</ele>
        <time>2015-09-18T10:03:36Z</time>
      </trkpt>
      <trkpt lat="44.741" lon="3.35273">
        <ele>936.1</ele>
        <time>2015-09-18T10:03:40Z</time>
      </trkpt>
      <trkpt lat="44.741" lon="3.35256">
        <ele>935.7</ele>
        <time>2015-09-18T10:03:43Z</time>
      </trkpt>
      <trkpt lat="44.741" lon="3.35237">
        <ele>935.4</ele>
        <time>2015-09-18T10:03:46Z</time>
      </trkpt>
      <trkpt lat="44.74101" lon="3.35224">
        <ele>935</ele>
        <time>2015-09-18T10:03:48Z</time>
      </trkpt>
      <trkpt lat="44.74103" lon="3.35206">
        <ele>934.6</ele>
        <time>2015-09-18T10:03:51Z</time>
      </trkpt>
      <trkpt lat="44.74103" lon="3.35192">
        <ele>934.4</ele>
        <time>2015-09-18T10:03:53Z</time>
      </trkpt>
      <trkpt lat="44.74103" lon="3.35177">
        <ele>934.1</ele>
        <time>2015-09-18T10:03:55Z</time>
      </trkpt>
      <trkpt lat="44.74104" lon="3.35164">
        <ele>933.8</ele>
        <time>2015-09-18T10:03:57Z</time>
      </trkpt>
      <trkpt lat="44.74101" lon="3.35151">
        <ele>933.2</ele>
        <time>2015-09-18T10:04:01Z</time>
      </trkpt>
      <trkpt lat="44.74091" lon="3.3515">
        <ele>932.2</ele>
        <time>2015-09-18T10:04:10Z</time>
      </trkpt>
      <trkpt lat="44.74101" lon="3.35146">
        <ele>931.1</ele>
        <time>2015-09-18T10:04:20Z</time>
      </trkpt>
      <trkpt lat="44.74103" lon="3.35129">
        <ele>930.8</ele>
        <time>2015-09-18T10:04:24Z</time>
      </trkpt>
      <trkpt lat="44.741" lon="3.3511">
        <ele>930.6</ele>
        <time>2015-09-18T10:04:27Z</time>
      </trkpt>
      <trkpt lat="44.74093" lon="3.35099">
        <ele>930.3</ele>
        <time>2015-09-18T10:04:29Z</time>
      </trkpt>
      <trkpt lat="44.74085" lon="3.35087">
        <ele>930</ele>
        <time>2015-09-18T10:04:31Z</time>
      </trkpt>
      <trkpt lat="44.74076" lon="3.35074">
        <ele>929.7</ele>
        <time>2015-09-18T10:04:33Z</time>
      </trkpt>
      <trkpt lat="44.74066" lon="3.35061">
        <ele>929.3</ele>
        <time>2015-09-18T10:04:35Z</time>
      </trkpt>
      <trkpt lat="44.74055" lon="3.35048">
        <ele>928.9</ele>
        <time>2015-09-18T10:04:37Z</time>
      </trkpt>
      <trkpt lat="44.74044" lon="3.35033">
        <ele>928.5</ele>
        <time>2015-09-18T10:04:39Z</time>
      </trkpt>
      <trkpt lat="44.74033" lon="3.35021">
        <ele>928.1</ele>
        <time>2015-09-18T10:04:41Z</time>
      </trkpt>
      <trkpt lat="44.74024" lon="3.35007">
        <ele>927.7</ele>
        <time>2015-09-18T10:04:43Z</time>
      </trkpt>
      <trkpt lat="44.74016" lon="3.34994">
        <ele>927.3</ele>
        <time>2015-09-18T10:04:45Z</time>
      </trkpt>
      <trkpt lat="44.7401" lon="3.34981">
        <ele>926.9</ele>
        <time>2015-09-18T10:04:47Z</time>
      </trkpt>
      <trkpt lat="44.74006" lon="3.34967">
        <ele>926.6</ele>
        <time>2015-09-18T10:04:49Z</time>
      </trkpt>
      <trkpt lat="44.74002" lon="3.34954">
        <ele>926.3</ele>
        <time>2015-09-18T10:04:51Z</time>
      </trkpt>
      <trkpt lat="44.73998" lon="3.3494">
        <ele>926.1</ele>
        <time>2015-09-18T10:04:53Z</time>
      </trkpt>
      <trkpt lat="44.73994" lon="3.34927">
        <ele>925.9</ele>
        <time>2015-09-18T10:04:55Z</time>
      </trkpt>
      <trkpt lat="44.7399" lon="3.34915">
        <ele>925.7</ele>
        <time>2015-09-18T10:04:57Z</time>
      </trkpt>
      <trkpt lat="44.7399" lon="3.34902">
        <ele>925.5</ele>
        <time>2015-09-18T10:04:59Z</time>
      </trkpt>
      <trkpt lat="44.73994" lon="3.3489">
        <ele>925.4</ele>
        <time>2015-09-18T10:05:01Z</time>
      </trkpt>
      <trkpt lat="44.73999" lon="3.3488">
        <ele>925.3</ele>
        <time>2015-09-18T10:05:03Z</time>
      </trkpt>
      <trkpt lat="44.74007" lon="3.34864">
        <ele>925.1</ele>
        <time>2015-09-18T10:05:06Z</time>
      </trkpt>
      <trkpt lat="44.74014" lon="3.3485">
        <ele>925</ele>
        <time>2015-09-18T10:05:09Z</time>
      </trkpt>
      <trkpt lat="44.7402" lon="3.34836">
        <ele>924.8</ele>
        <time>2015-09-18T10:05:12Z</time>
      </trkpt>
      <trkpt lat="44.74027" lon="3.34823">
        <ele>924.7</ele>
        <time>2015-09-18T10:05:15Z</time>
      </trkpt>
      <trkpt lat="44.74034" lon="3.34813">
        <ele>924.7</ele>
        <time>2015-09-18T10:05:18Z</time>
      </trkpt>
      <trkpt lat="44.74043" lon="3.348">
        <ele>924.8</ele>
        <time>2015-09-18T10:05:21Z</time>
      </trkpt>
      <trkpt lat="44.74051" lon="3.34791">
        <ele>924.8</ele>
        <time>2015-09-18T10:05:23Z</time>
      </trkpt>
      <trkpt lat="44.74058" lon="3.34782">
        <ele>924.8</ele>
        <time>2015-09-18T10:05:25Z</time>
      </trkpt>
      <trkpt lat="44.74063" lon="3.3477">
        <ele>924.9</ele>
        <time>2015-09-18T10:05:28Z</time>
      </trkpt>
      <trkpt lat="44.7406" lon="3.34758">
        <ele>924.9</ele>
        <time>2015-09-18T10:05:31Z</time>
      </trkpt>
      <trkpt lat="44.74056" lon="3.34743">
        <ele>925</ele>
        <time>2015-09-18T10:05:36Z</time>
      </trkpt>
      <trkpt lat="44.74054" lon="3.34729">
        <ele>925.1</ele>
        <time>2015-09-18T10:05:40Z</time>
      </trkpt>
      <trkpt lat="44.74058" lon="3.34717">
        <ele>925.6</ele>
        <time>2015-09-18T10:05:45Z</time>
      </trkpt>
      <trkpt lat="44.74064" lon="3.34706">
        <ele>926.5</ele>
        <time>2015-09-18T10:05:52Z</time>
      </trkpt>
      <trkpt lat="44.74067" lon="3.34693">
        <ele>927.6</ele>
        <time>2015-09-18T10:06:00Z</time>
      </trkpt>
      <trkpt lat="44.74071" lon="3.34682">
        <ele>928.5</ele>
        <time>2015-09-18T10:06:07Z</time>
      </trkpt>
      <trkpt lat="44.74075" lon="3.34671">
        <ele>929.3</ele>
        <time>2015-09-18T10:06:14Z</time>
      </trkpt>
      <trkpt lat="44.7408" lon="3.3466">
        <ele>930</ele>
        <time>2015-09-18T10:06:22Z</time>
      </trkpt>
      <trkpt lat="44.74085" lon="3.34648">
        <ele>931</ele>
        <time>2015-09-18T10:06:31Z</time>
      </trkpt>
      <trkpt lat="44.74088" lon="3.34635">
        <ele>931.9</ele>
        <time>2015-09-18T10:06:39Z</time>
      </trkpt>
      <trkpt lat="44.74092" lon="3.34623">
        <ele>933</ele>
        <time>2015-09-18T10:06:47Z</time>
      </trkpt>
      <trkpt lat="44.74091" lon="3.34608">
        <ele>934.2</ele>
        <time>2015-09-18T10:06:56Z</time>
      </trkpt>
      <trkpt lat="44.7409" lon="3.34595">
        <ele>935.4</ele>
        <time>2015-09-18T10:07:04Z</time>
      </trkpt>
      <trkpt lat="44.74086" lon="3.34583">
        <ele>937.2</ele>
        <time>2015-09-18T10:07:14Z</time>
      </trkpt>
      <trkpt lat="44.74081" lon="3.34572">
        <ele>938.7</ele>
        <time>2015-09-18T10:07:24Z</time>
      </trkpt>
      <trkpt lat="44.74074" lon="3.34564">
        <ele>940.3</ele>
        <time>2015-09-18T10:07:35Z</time>
      </trkpt>
      <trkpt lat="44.74066" lon="3.34558">
        <ele>941.6</ele>
        <time>2015-09-18T10:07:45Z</time>
      </trkpt>
      <trkpt lat="44.74057" lon="3.34551">
        <ele>942.8</ele>
        <time>2015-09-18T10:07:54Z</time>
      </trkpt>
      <trkpt lat="44.74048" lon="3.34549">
        <ele>944.3</ele>
        <time>2015-09-18T10:08:08Z</time>
      </trkpt>
      <trkpt lat="44.74038" lon="3.34547">
        <ele>945.6</ele>
        <time>2015-09-18T10:08:20Z</time>
      </trkpt>
      <trkpt lat="44.74029" lon="3.34546">
        <ele>947.1</ele>
        <time>2015-09-18T10:08:32Z</time>
      </trkpt>
      <trkpt lat="44.7402" lon="3.34546">
        <ele>948.3</ele>
        <time>2015-09-18T10:08:42Z</time>
      </trkpt>
      <trkpt lat="44.7401" lon="3.34547">
        <ele>950.1</ele>
        <time>2015-09-18T10:08:54Z</time>
      </trkpt>
      <trkpt lat="44.74" lon="3.34548">
        <ele>951</ele>
        <time>2015-09-18T10:09:04Z</time>
      </trkpt>
      <trkpt lat="44.73991" lon="3.3455">
        <ele>951.8</ele>
        <time>2015-09-18T10:09:12Z</time>
      </trkpt>
      <trkpt lat="44.73981" lon="3.34554">
        <ele>952.5</ele>
        <time>2015-09-18T10:09:21Z</time>
      </trkpt>
      <trkpt lat="44.73972" lon="3.34558">
        <ele>953.2</ele>
        <time>2015-09-18T10:09:30Z</time>
      </trkpt>
      <trkpt lat="44.73963" lon="3.34563">
        <ele>953.8</ele>
        <time>2015-09-18T10:09:38Z</time>
      </trkpt>
      <trkpt lat="44.73955" lon="3.34569">
        <ele>954.5</ele>
        <time>2015-09-18T10:09:46Z</time>
      </trkpt>
      <trkpt lat="44.73945" lon="3.34573">
        <ele>955.4</ele>
        <time>2015-09-18T10:09:56Z</time>
      </trkpt>
      <trkpt lat="44.73936" lon="3.34569">
        <ele>957.3</ele>
        <time>2015-09-18T10:10:22Z</time>
      </trkpt>
      <trkpt lat="44.73929" lon="3.34562">
        <ele>958.1</ele>
        <time>2015-09-18T10:10:34Z</time>
      </trkpt>
      <trkpt lat="44.73921" lon="3.34554">
        <ele>959.3</ele>
        <time>2015-09-18T10:10:45Z</time>
      </trkpt>
      <trkpt lat="44.73913" lon="3.34547">
        <ele>960.9</ele>
        <time>2015-09-18T10:10:56Z</time>
      </trkpt>
      <trkpt lat="44.73905" lon="3.3454">
        <ele>962.3</ele>
        <time>2015-09-18T10:11:07Z</time>
      </trkpt>
      <trkpt lat="44.73897" lon="3.34533">
        <ele>963.9</ele>
        <time>2015-09-18T10:11:17Z</time>
      </trkpt>
      <trkpt lat="44.73888" lon="3.34527">
        <ele>965.4</ele>
        <time>2015-09-18T10:11:27Z</time>
      </trkpt>
      <trkpt lat="44.73881" lon="3.34518">
        <ele>967.2</ele>
        <time>2015-09-18T10:11:39Z</time>
      </trkpt>
      <trkpt lat="44.73872" lon="3.34511">
        <ele>969</ele>
        <time>2015-09-18T10:11:50Z</time>
      </trkpt>
      <trkpt lat="44.73864" lon="3.34505">
        <ele>970.4</ele>
        <time>2015-09-18T10:11:59Z</time>
      </trkpt>
      <trkpt lat="44.73856" lon="3.34497">
        <ele>971.5</ele>
        <time>2015-09-18T10:12:09Z</time>
      </trkpt>
      <trkpt lat="44.73849" lon="3.34489">
        <ele>972.5</ele>
        <time>2015-09-18T10:12:18Z</time>
      </trkpt>
      <trkpt lat="44.7384" lon="3.34483">
        <ele>973.4</ele>
        <time>2015-09-18T10:12:27Z</time>
      </trkpt>
      <trkpt lat="44.73833" lon="3.34475">
        <ele>974.5</ele>
        <time>2015-09-18T10:12:36Z</time>
      </trkpt>
      <trkpt lat="44.73824" lon="3.34469">
        <ele>975.7</ele>
        <time>2015-09-18T10:12:45Z</time>
      </trkpt>
      <trkpt lat="44.73815" lon="3.34464">
        <ele>976.6</ele>
        <time>2015-09-18T10:12:54Z</time>
      </trkpt>
      <trkpt lat="44.73806" lon="3.3446">
        <ele>977.3</ele>
        <time>2015-09-18T10:13:03Z</time>
      </trkpt>
      <trkpt lat="44.73797" lon="3.34455">
        <ele>977.7</ele>
        <time>2015-09-18T10:13:11Z</time>
      </trkpt>
      <trkpt lat="44.73788" lon="3.34448">
        <ele>978</ele>
        <time>2015-09-18T10:13:21Z</time>
      </trkpt>
      <trkpt lat="44.7378" lon="3.3444">
        <ele>978.3</ele>
        <time>2015-09-18T10:13:30Z</time>
      </trkpt>
      <trkpt lat="44.73772" lon="3.34432">
        <ele>979.1</ele>
        <time>2015-09-18T10:13:39Z</time>
      </trkpt>
      <trkpt lat="44.73765" lon="3.34424">
        <ele>979.6</ele>
        <time>2015-09-18T10:13:47Z</time>
      </trkpt>
      <trkpt lat="44.73758" lon="3.34414">
        <ele>980.4</ele>
        <time>2015-09-18T10:13:56Z</time>
      </trkpt>
      <trkpt lat="44.7375" lon="3.34406">
        <ele>981.3</ele>
        <time>2015-09-18T10:14:05Z</time>
      </trkpt>
      <trkpt lat="44.73743" lon="3.34398">
        <ele>982.2</ele>
        <time>2015-09-18T10:14:14Z</time>
      </trkpt>
      <trkpt lat="44.73739" lon="3.34387">
        <ele>983.2</ele>
        <time>2015-09-18T10:14:24Z</time>
      </trkpt>
      <trkpt lat="44.73735" lon="3.34375">
        <ele>984.2</ele>
        <time>2015-09-18T10:14:33Z</time>
      </trkpt>
      <trkpt lat="44.73731" lon="3.34362">
        <ele>985.2</ele>
        <time>2015-09-18T10:14:42Z</time>
      </trkpt>
      <trkpt lat="44.73726" lon="3.34351">
        <ele>986.1</ele>
        <time>2015-09-18T10:14:51Z</time>
      </trkpt>
      <trkpt lat="44.7372" lon="3.34341">
        <ele>987.1</ele>
        <time>2015-09-18T10:14:59Z</time>
      </trkpt>
      <trkpt lat="44.73713" lon="3.34331">
        <ele>988.2</ele>
        <time>2015-09-18T10:15:08Z</time>
      </trkpt>
      <trkpt lat="44.73706" lon="3.34323">
        <ele>989.1</ele>
        <time>2015-09-18T10:15:18Z</time>
      </trkpt>
      <trkpt lat="44.73703" lon="3.34311">
        <ele>990.7</ele>
        <time>2015-09-18T10:16:57Z</time>
      </trkpt>
      <trkpt lat="44.73698" lon="3.34299">
        <ele>990.7</ele>
        <time>2015-09-18T10:17:03Z</time>
      </trkpt>
      <trkpt lat="44.73692" lon="3.34288">
        <ele>990.6</ele>
        <time>2015-09-18T10:17:07Z</time>
      </trkpt>
      <trkpt lat="44.73683" lon="3.34277">
        <ele>990.6</ele>
        <time>2015-09-18T10:17:11Z</time>
      </trkpt>
      <trkpt lat="44.73676" lon="3.34264">
        <ele>990.5</ele>
        <time>2015-09-18T10:17:15Z</time>
      </trkpt>
      <trkpt lat="44.73669" lon="3.34253">
        <ele>990.4</ele>
        <time>2015-09-18T10:17:19Z</time>
      </trkpt>
      <trkpt lat="44.73661" lon="3.34242">
        <ele>990.3</ele>
        <time>2015-09-18T10:17:24Z</time>
      </trkpt>
      <trkpt lat="44.73653" lon="3.34231">
        <ele>990.3</ele>
        <time>2015-09-18T10:17:27Z</time>
      </trkpt>
      <trkpt lat="44.73645" lon="3.34216">
        <ele>990.2</ele>
        <time>2015-09-18T10:17:30Z</time>
      </trkpt>
      <trkpt lat="44.73639" lon="3.34201">
        <ele>990</ele>
        <time>2015-09-18T10:17:33Z</time>
      </trkpt>
      <trkpt lat="44.73633" lon="3.34187">
        <ele>989.8</ele>
        <time>2015-09-18T10:17:36Z</time>
      </trkpt>
      <trkpt lat="44.73629" lon="3.34173">
        <ele>989.6</ele>
        <time>2015-09-18T10:17:39Z</time>
      </trkpt>
      <trkpt lat="44.73625" lon="3.3416">
        <ele>989.5</ele>
        <time>2015-09-18T10:17:42Z</time>
      </trkpt>
      <trkpt lat="44.73619" lon="3.34145">
        <ele>989.3</ele>
        <time>2015-09-18T10:17:45Z</time>
      </trkpt>
      <trkpt lat="44.73613" lon="3.34133">
        <ele>989.2</ele>
        <time>2015-09-18T10:17:48Z</time>
      </trkpt>
      <trkpt lat="44.73607" lon="3.34121">
        <ele>989.1</ele>
        <time>2015-09-18T10:17:51Z</time>
      </trkpt>
      <trkpt lat="44.73599" lon="3.3411">
        <ele>988.9</ele>
        <time>2015-09-18T10:17:55Z</time>
      </trkpt>
      <trkpt lat="44.73587" lon="3.34107">
        <ele>988.7</ele>
        <time>2015-09-18T10:17:59Z</time>
      </trkpt>
      <trkpt lat="44.73577" lon="3.34104">
        <ele>988.5</ele>
        <time>2015-09-18T10:18:01Z</time>
      </trkpt>
      <trkpt lat="44.73566" lon="3.34093">
        <ele>988</ele>
        <time>2015-09-18T10:18:03Z</time>
      </trkpt>
      <trkpt lat="44.73552" lon="3.34079">
        <ele>987.2</ele>
        <time>2015-09-18T10:18:05Z</time>
      </trkpt>
      <trkpt lat="44.73543" lon="3.34072">
        <ele>986.8</ele>
        <time>2015-09-18T10:18:06Z</time>
      </trkpt>
      <trkpt lat="44.73535" lon="3.34064">
        <ele>986.3</ele>
        <time>2015-09-18T10:18:07Z</time>
      </trkpt>
      <trkpt lat="44.73525" lon="3.34058">
        <ele>985.7</ele>
        <time>2015-09-18T10:18:08Z</time>
      </trkpt>
      <trkpt lat="44.73515" lon="3.34052">
        <ele>985.1</ele>
        <time>2015-09-18T10:18:09Z</time>
      </trkpt>
      <trkpt lat="44.73505" lon="3.34046">
        <ele>984.6</ele>
        <time>2015-09-18T10:18:10Z</time>
      </trkpt>
      <trkpt lat="44.73495" lon="3.3404">
        <ele>984</ele>
        <time>2015-09-18T10:18:11Z</time>
      </trkpt>
      <trkpt lat="44.73486" lon="3.34034">
        <ele>983.5</ele>
        <time>2015-09-18T10:18:12Z</time>
      </trkpt>
      <trkpt lat="44.73476" lon="3.34028">
        <ele>982.9</ele>
        <time>2015-09-18T10:18:13Z</time>
      </trkpt>
      <trkpt lat="44.73467" lon="3.34022">
        <ele>982.3</ele>
        <time>2015-09-18T10:18:14Z</time>
      </trkpt>
      <trkpt lat="44.73452" lon="3.34013">
        <ele>981.2</ele>
        <time>2015-09-18T10:18:16Z</time>
      </trkpt>
      <trkpt lat="44.73439" lon="3.34006">
        <ele>980.1</ele>
        <time>2015-09-18T10:18:18Z</time>
      </trkpt>
      <trkpt lat="44.73424" lon="3.34001">
        <ele>979.2</ele>
        <time>2015-09-18T10:18:20Z</time>
      </trkpt>
      <trkpt lat="44.73414" lon="3.33999">
        <ele>978.2</ele>
        <time>2015-09-18T10:18:22Z</time>
      </trkpt>
      <trkpt lat="44.73407" lon="3.33988">
        <ele>976.7</ele>
        <time>2015-09-18T10:18:25Z</time>
      </trkpt>
      <trkpt lat="44.7341" lon="3.33975">
        <ele>975.7</ele>
        <time>2015-09-18T10:18:27Z</time>
      </trkpt>
      <trkpt lat="44.73412" lon="3.33961">
        <ele>974.8</ele>
        <time>2015-09-18T10:18:29Z</time>
      </trkpt>
      <trkpt lat="44.73413" lon="3.33947">
        <ele>973.9</ele>
        <time>2015-09-18T10:18:31Z</time>
      </trkpt>
      <trkpt lat="44.73416" lon="3.33932">
        <ele>972.8</ele>
        <time>2015-09-18T10:18:34Z</time>
      </trkpt>
      <trkpt lat="44.73416" lon="3.33919">
        <ele>971.2</ele>
        <time>2015-09-18T10:18:40Z</time>
      </trkpt>
      <trkpt lat="44.73416" lon="3.33906">
        <ele>969</ele>
        <time>2015-09-18T10:18:55Z</time>
      </trkpt>
      <trkpt lat="44.73416" lon="3.33891">
        <ele>968.6</ele>
        <time>2015-09-18T10:19:01Z</time>
      </trkpt>
      <trkpt lat="44.73418" lon="3.33878">
        <ele>968.4</ele>
        <time>2015-09-18T10:19:05Z</time>
      </trkpt>
      <trkpt lat="44.73422" lon="3.33864">
        <ele>968.3</ele>
        <time>2015-09-18T10:19:09Z</time>
      </trkpt>
      <trkpt lat="44.73428" lon="3.33853">
        <ele>968.3</ele>
        <time>2015-09-18T10:19:13Z</time>
      </trkpt>
      <trkpt lat="44.73435" lon="3.33844">
        <ele>968.5</ele>
        <time>2015-09-18T10:19:18Z</time>
      </trkpt>
      <trkpt lat="44.73443" lon="3.33837">
        <ele>968.8</ele>
        <time>2015-09-18T10:19:23Z</time>
      </trkpt>
      <trkpt lat="44.73449" lon="3.33827">
        <ele>969.1</ele>
        <time>2015-09-18T10:19:27Z</time>
      </trkpt>
      <trkpt lat="44.73455" lon="3.33815">
        <ele>969.5</ele>
        <time>2015-09-18T10:19:32Z</time>
      </trkpt>
      <trkpt lat="44.7346" lon="3.33801">
        <ele>970.1</ele>
        <time>2015-09-18T10:19:37Z</time>
      </trkpt>
      <trkpt lat="44.73463" lon="3.33785">
        <ele>970.6</ele>
        <time>2015-09-18T10:19:41Z</time>
      </trkpt>
      <trkpt lat="44.73465" lon="3.33771">
        <ele>971</ele>
        <time>2015-09-18T10:19:45Z</time>
      </trkpt>
      <trkpt lat="44.73465" lon="3.33758">
        <ele>971.3</ele>
        <time>2015-09-18T10:19:49Z</time>
      </trkpt>
      <trkpt lat="44.73464" lon="3.33744">
        <ele>971.7</ele>
        <time>2015-09-18T10:19:53Z</time>
      </trkpt>
      <trkpt lat="44.73462" lon="3.3373">
        <ele>971.9</ele>
        <time>2015-09-18T10:19:56Z</time>
      </trkpt>
      <trkpt lat="44.73459" lon="3.33713">
        <ele>972.1</ele>
        <time>2015-09-18T10:19:59Z</time>
      </trkpt>
      <trkpt lat="44.73454" lon="3.33697">
        <ele>972.2</ele>
        <time>2015-09-18T10:20:02Z</time>
      </trkpt>
      <trkpt lat="44.73449" lon="3.3368">
        <ele>972.1</ele>
        <time>2015-09-18T10:20:05Z</time>
      </trkpt>
      <trkpt lat="44.73447" lon="3.33667">
        <ele>971.8</ele>
        <time>2015-09-18T10:20:07Z</time>
      </trkpt>
      <trkpt lat="44.7345" lon="3.33653">
        <ele>971.5</ele>
        <time>2015-09-18T10:20:10Z</time>
      </trkpt>
      <trkpt lat="44.73451" lon="3.3364">
        <ele>971</ele>
        <time>2015-09-18T10:20:15Z</time>
      </trkpt>
      <trkpt lat="44.7345" lon="3.33627">
        <ele>970.7</ele>
        <time>2015-09-18T10:20:20Z</time>
      </trkpt>
      <trkpt lat="44.73449" lon="3.33612">
        <ele>970.4</ele>
        <time>2015-09-18T10:20:25Z</time>
      </trkpt>
      <trkpt lat="44.73449" lon="3.33597">
        <ele>970.3</ele>
        <time>2015-09-18T10:20:30Z</time>
      </trkpt>
      <trkpt lat="44.7345" lon="3.33582">
        <ele>970.2</ele>
        <time>2015-09-18T10:20:35Z</time>
      </trkpt>
      <trkpt lat="44.73453" lon="3.33569">
        <ele>970.3</ele>
        <time>2015-09-18T10:20:39Z</time>
      </trkpt>
      <trkpt lat="44.73457" lon="3.33555">
        <ele>970.4</ele>
        <time>2015-09-18T10:20:44Z</time>
      </trkpt>
      <trkpt lat="44.73461" lon="3.33543">
        <ele>970.6</ele>
        <time>2015-09-18T10:20:48Z</time>
      </trkpt>
      <trkpt lat="44.73464" lon="3.33531">
        <ele>970.8</ele>
        <time>2015-09-18T10:20:52Z</time>
      </trkpt>
      <trkpt lat="44.73469" lon="3.33517">
        <ele>971.1</ele>
        <time>2015-09-18T10:20:57Z</time>
      </trkpt>
      <trkpt lat="44.73473" lon="3.33504">
        <ele>971.6</ele>
        <time>2015-09-18T10:21:03Z</time>
      </trkpt>
      <trkpt lat="44.73478" lon="3.33491">
        <ele>972.3</ele>
        <time>2015-09-18T10:21:09Z</time>
      </trkpt>
      <trkpt lat="44.73482" lon="3.33478">
        <ele>973</ele>
        <time>2015-09-18T10:21:15Z</time>
      </trkpt>
      <trkpt lat="44.73482" lon="3.33464">
        <ele>973.9</ele>
        <time>2015-09-18T10:21:21Z</time>
      </trkpt>
      <trkpt lat="44.7348" lon="3.33449">
        <ele>974.9</ele>
        <time>2015-09-18T10:21:27Z</time>
      </trkpt>
      <trkpt lat="44.73478" lon="3.33434">
        <ele>975.7</ele>
        <time>2015-09-18T10:21:33Z</time>
      </trkpt>
      <trkpt lat="44.73475" lon="3.3342">
        <ele>976.3</ele>
        <time>2015-09-18T10:21:38Z</time>
      </trkpt>
      <trkpt lat="44.73472" lon="3.33404">
        <ele>976.7</ele>
        <time>2015-09-18T10:21:42Z</time>
      </trkpt>
      <trkpt lat="44.73467" lon="3.33387">
        <ele>977</ele>
        <time>2015-09-18T10:21:45Z</time>
      </trkpt>
      <trkpt lat="44.73461" lon="3.33374">
        <ele>977</ele>
        <time>2015-09-18T10:21:47Z</time>
      </trkpt>
      <trkpt lat="44.73457" lon="3.33358">
        <ele>976.9</ele>
        <time>2015-09-18T10:21:49Z</time>
      </trkpt>
      <trkpt lat="44.73453" lon="3.33343">
        <ele>976.8</ele>
        <time>2015-09-18T10:21:51Z</time>
      </trkpt>
      <trkpt lat="44.73448" lon="3.3333">
        <ele>976.6</ele>
        <time>2015-09-18T10:21:53Z</time>
      </trkpt>
      <trkpt lat="44.73443" lon="3.33317">
        <ele>976.5</ele>
        <time>2015-09-18T10:21:55Z</time>
      </trkpt>
      <trkpt lat="44.73437" lon="3.33305">
        <ele>976.3</ele>
        <time>2015-09-18T10:21:57Z</time>
      </trkpt>
      <trkpt lat="44.73432" lon="3.33294">
        <ele>976.1</ele>
        <time>2015-09-18T10:21:59Z</time>
      </trkpt>
      <trkpt lat="44.73425" lon="3.33284">
        <ele>975.9</ele>
        <time>2015-09-18T10:22:01Z</time>
      </trkpt>
      <trkpt lat="44.73417" lon="3.33276">
        <ele>975.8</ele>
        <time>2015-09-18T10:22:03Z</time>
      </trkpt>
      <trkpt lat="44.73409" lon="3.33268">
        <ele>975.5</ele>
        <time>2015-09-18T10:22:05Z</time>
      </trkpt>
      <trkpt lat="44.73401" lon="3.33261">
        <ele>975.2</ele>
        <time>2015-09-18T10:22:07Z</time>
      </trkpt>
      <trkpt lat="44.73392" lon="3.33256">
        <ele>975</ele>
        <time>2015-09-18T10:22:09Z</time>
      </trkpt>
      <trkpt lat="44.73383" lon="3.33254">
        <ele>974.7</ele>
        <time>2015-09-18T10:22:11Z</time>
      </trkpt>
      <trkpt lat="44.73372" lon="3.33249">
        <ele>974.4</ele>
        <time>2015-09-18T10:22:14Z</time>
      </trkpt>
      <trkpt lat="44.73363" lon="3.33241">
        <ele>974.2</ele>
        <time>2015-09-18T10:22:17Z</time>
      </trkpt>
      <trkpt lat="44.73355" lon="3.33233">
        <ele>974</ele>
        <time>2015-09-18T10:22:20Z</time>
      </trkpt>
      <trkpt lat="44.73347" lon="3.33227">
        <ele>973.8</ele>
        <time>2015-09-18T10:22:23Z</time>
      </trkpt>
      <trkpt lat="44.73337" lon="3.33217">
        <ele>973.7</ele>
        <time>2015-09-18T10:22:27Z</time>
      </trkpt>
      <trkpt lat="44.73332" lon="3.33208">
        <ele>973.6</ele>
        <time>2015-09-18T10:22:30Z</time>
      </trkpt>
      <trkpt lat="44.73326" lon="3.33197">
        <ele>973.4</ele>
        <time>2015-09-18T10:22:35Z</time>
      </trkpt>
      <trkpt lat="44.73319" lon="3.33187">
        <ele>973.4</ele>
        <time>2015-09-18T10:22:38Z</time>
      </trkpt>
      <trkpt lat="44.73314" lon="3.33175">
        <ele>973.4</ele>
        <time>2015-09-18T10:22:41Z</time>
      </trkpt>
      <trkpt lat="44.73307" lon="3.33163">
        <ele>973.5</ele>
        <time>2015-09-18T10:22:45Z</time>
      </trkpt>
      <trkpt lat="44.73302" lon="3.33153">
        <ele>973.7</ele>
        <time>2015-09-18T10:22:48Z</time>
      </trkpt>
      <trkpt lat="44.73296" lon="3.3314">
        <ele>973.9</ele>
        <time>2015-09-18T10:22:52Z</time>
      </trkpt>
      <trkpt lat="44.73293" lon="3.33127">
        <ele>974.1</ele>
        <time>2015-09-18T10:22:56Z</time>
      </trkpt>
      <trkpt lat="44.73287" lon="3.33116">
        <ele>974.3</ele>
        <time>2015-09-18T10:22:59Z</time>
      </trkpt>
      <trkpt lat="44.73281" lon="3.33102">
        <ele>974.7</ele>
        <time>2015-09-18T10:23:03Z</time>
      </trkpt>
      <trkpt lat="44.73277" lon="3.33088">
        <ele>975.1</ele>
        <time>2015-09-18T10:23:07Z</time>
      </trkpt>
      <trkpt lat="44.73275" lon="3.33072">
        <ele>975.6</ele>
        <time>2015-09-18T10:23:12Z</time>
      </trkpt>
      <trkpt lat="44.7327" lon="3.33062">
        <ele>975.9</ele>
        <time>2015-09-18T10:23:15Z</time>
      </trkpt>
      <trkpt lat="44.73262" lon="3.33051">
        <ele>976.2</ele>
        <time>2015-09-18T10:23:18Z</time>
      </trkpt>
      <trkpt lat="44.73253" lon="3.33041">
        <ele>976.6</ele>
        <time>2015-09-18T10:23:23Z</time>
      </trkpt>
      <trkpt lat="44.73245" lon="3.33031">
        <ele>976.9</ele>
        <time>2015-09-18T10:23:28Z</time>
      </trkpt>
      <trkpt lat="44.73238" lon="3.3302">
        <ele>977.1</ele>
        <time>2015-09-18T10:23:32Z</time>
      </trkpt>
      <trkpt lat="44.7323" lon="3.33013">
        <ele>977.2</ele>
        <time>2015-09-18T10:23:36Z</time>
      </trkpt>
      <trkpt lat="44.73219" lon="3.33008">
        <ele>977.4</ele>
        <time>2015-09-18T10:23:40Z</time>
      </trkpt>
      <trkpt lat="44.73209" lon="3.33003">
        <ele>977.6</ele>
        <time>2015-09-18T10:23:45Z</time>
      </trkpt>
      <trkpt lat="44.732" lon="3.32997">
        <ele>978</ele>
        <time>2015-09-18T10:23:51Z</time>
      </trkpt>
      <trkpt lat="44.73192" lon="3.3299">
        <ele>978.6</ele>
        <time>2015-09-18T10:23:58Z</time>
      </trkpt>
      <trkpt lat="44.73183" lon="3.3299">
        <ele>979.3</ele>
        <time>2015-09-18T10:24:04Z</time>
      </trkpt>
      <trkpt lat="44.73173" lon="3.32994">
        <ele>980.2</ele>
        <time>2015-09-18T10:24:12Z</time>
      </trkpt>
      <trkpt lat="44.73165" lon="3.33002">
        <ele>981.2</ele>
        <time>2015-09-18T10:24:20Z</time>
      </trkpt>
      <trkpt lat="44.73158" lon="3.33011">
        <ele>982.6</ele>
        <time>2015-09-18T10:24:28Z</time>
      </trkpt>
      <trkpt lat="44.7315" lon="3.33018">
        <ele>983.8</ele>
        <time>2015-09-18T10:24:36Z</time>
      </trkpt>
      <trkpt lat="44.73143" lon="3.33027">
        <ele>985</ele>
        <time>2015-09-18T10:24:44Z</time>
      </trkpt>
      <trkpt lat="44.73135" lon="3.33034">
        <ele>986.2</ele>
        <time>2015-09-18T10:24:53Z</time>
      </trkpt>
      <trkpt lat="44.73125" lon="3.3304">
        <ele>987.4</ele>
        <time>2015-09-18T10:25:01Z</time>
      </trkpt>
      <trkpt lat="44.73116" lon="3.33039">
        <ele>990</ele>
        <time>2015-09-18T10:25:17Z</time>
      </trkpt>
      <trkpt lat="44.73107" lon="3.33036">
        <ele>991.5</ele>
        <time>2015-09-18T10:25:30Z</time>
      </trkpt>
      <trkpt lat="44.73101" lon="3.33026">
        <ele>992.5</ele>
        <time>2015-09-18T10:25:40Z</time>
      </trkpt>
      <trkpt lat="44.73094" lon="3.33018">
        <ele>994.1</ele>
        <time>2015-09-18T10:25:51Z</time>
      </trkpt>
      <trkpt lat="44.73085" lon="3.33013">
        <ele>995.2</ele>
        <time>2015-09-18T10:26:02Z</time>
      </trkpt>
      <trkpt lat="44.73077" lon="3.33006">
        <ele>996.1</ele>
        <time>2015-09-18T10:26:11Z</time>
      </trkpt>
      <trkpt lat="44.73068" lon="3.32999">
        <ele>997.5</ele>
        <time>2015-09-18T10:26:26Z</time>
      </trkpt>
      <trkpt lat="44.73059" lon="3.32996">
        <ele>998.3</ele>
        <time>2015-09-18T10:26:35Z</time>
      </trkpt>
      <trkpt lat="44.7305" lon="3.32993">
        <ele>999.2</ele>
        <time>2015-09-18T10:26:44Z</time>
      </trkpt>
      <trkpt lat="44.7304" lon="3.32993">
        <ele>1000.2</ele>
        <time>2015-09-18T10:26:54Z</time>
      </trkpt>
      <trkpt lat="44.73031" lon="3.32992">
        <ele>1000.9</ele>
        <time>2015-09-18T10:27:03Z</time>
      </trkpt>
      <trkpt lat="44.73021" lon="3.32992">
        <ele>1001.7</ele>
        <time>2015-09-18T10:27:12Z</time>
      </trkpt>
      <trkpt lat="44.73012" lon="3.32992">
        <ele>1002.8</ele>
        <time>2015-09-18T10:27:22Z</time>
      </trkpt>
      <trkpt lat="44.73003" lon="3.32996">
        <ele>1003.6</ele>
        <time>2015-09-18T10:27:30Z</time>
      </trkpt>
      <trkpt lat="44.72994" lon="3.32997">
        <ele>1004.4</ele>
        <time>2015-09-18T10:27:40Z</time>
      </trkpt>
      <trkpt lat="44.72984" lon="3.32998">
        <ele>1005</ele>
        <time>2015-09-18T10:27:47Z</time>
      </trkpt>
      <trkpt lat="44.72974" lon="3.32998">
        <ele>1005.9</ele>
        <time>2015-09-18T10:27:55Z</time>
      </trkpt>
      <trkpt lat="44.72965" lon="3.32998">
        <ele>1007.1</ele>
        <time>2015-09-18T10:28:03Z</time>
      </trkpt>
      <trkpt lat="44.72955" lon="3.32998">
        <ele>1008.4</ele>
        <time>2015-09-18T10:28:12Z</time>
      </trkpt>
      <trkpt lat="44.72946" lon="3.32998">
        <ele>1009.7</ele>
        <time>2015-09-18T10:28:22Z</time>
      </trkpt>
      <trkpt lat="44.72937" lon="3.32999">
        <ele>1011.1</ele>
        <time>2015-09-18T10:28:35Z</time>
      </trkpt>
      <trkpt lat="44.72928" lon="3.33005">
        <ele>1012.4</ele>
        <time>2015-09-18T10:28:46Z</time>
      </trkpt>
      <trkpt lat="44.7292" lon="3.3301">
        <ele>1013.4</ele>
        <time>2015-09-18T10:28:54Z</time>
      </trkpt>
      <trkpt lat="44.72912" lon="3.33016">
        <ele>1014.4</ele>
        <time>2015-09-18T10:29:04Z</time>
      </trkpt>
      <trkpt lat="44.72902" lon="3.3302">
        <ele>1016.3</ele>
        <time>2015-09-18T10:29:19Z</time>
      </trkpt>
      <trkpt lat="44.72893" lon="3.33025">
        <ele>1017.3</ele>
        <time>2015-09-18T10:29:29Z</time>
      </trkpt>
      <trkpt lat="44.72883" lon="3.33027">
        <ele>1018.2</ele>
        <time>2015-09-18T10:29:39Z</time>
      </trkpt>
      <trkpt lat="44.72874" lon="3.3303">
        <ele>1019.2</ele>
        <time>2015-09-18T10:29:48Z</time>
      </trkpt>
      <trkpt lat="44.72866" lon="3.33034">
        <ele>1020.3</ele>
        <time>2015-09-18T10:29:58Z</time>
      </trkpt>
      <trkpt lat="44.72857" lon="3.33039">
        <ele>1021.5</ele>
        <time>2015-09-18T10:30:07Z</time>
      </trkpt>
      <trkpt lat="44.72848" lon="3.33045">
        <ele>1022.6</ele>
        <time>2015-09-18T10:30:17Z</time>
      </trkpt>
      <trkpt lat="44.72841" lon="3.33053">
        <ele>1023.8</ele>
        <time>2015-09-18T10:30:27Z</time>
      </trkpt>
      <trkpt lat="44.72833" lon="3.33062">
        <ele>1024.8</ele>
        <time>2015-09-18T10:30:37Z</time>
      </trkpt>
      <trkpt lat="44.72826" lon="3.3307">
        <ele>1025.6</ele>
        <time>2015-09-18T10:30:47Z</time>
      </trkpt>
      <trkpt lat="44.72817" lon="3.33077">
        <ele>1026.3</ele>
        <time>2015-09-18T10:30:57Z</time>
      </trkpt>
      <trkpt lat="44.72809" lon="3.33085">
        <ele>1027.1</ele>
        <time>2015-09-18T10:31:06Z</time>
      </trkpt>
      <trkpt lat="44.72801" lon="3.33092">
        <ele>1027.9</ele>
        <time>2015-09-18T10:31:15Z</time>
      </trkpt>
      <trkpt lat="44.72794" lon="3.331">
        <ele>1028.7</ele>
        <time>2015-09-18T10:31:24Z</time>
      </trkpt>
      <trkpt lat="44.72786" lon="3.33108">
        <ele>1029.8</ele>
        <time>2015-09-18T10:31:33Z</time>
      </trkpt>
      <trkpt lat="44.72778" lon="3.33114">
        <ele>1030.7</ele>
        <time>2015-09-18T10:31:42Z</time>
      </trkpt>
      <trkpt lat="44.72769" lon="3.3312">
        <ele>1031.4</ele>
        <time>2015-09-18T10:31:51Z</time>
      </trkpt>
      <trkpt lat="44.72761" lon="3.33125">
        <ele>1032.3</ele>
        <time>2015-09-18T10:32:06Z</time>
      </trkpt>
      <trkpt lat="44.72753" lon="3.33132">
        <ele>1032.6</ele>
        <time>2015-09-18T10:32:11Z</time>
      </trkpt>
      <trkpt lat="44.72744" lon="3.33135">
        <ele>1032.8</ele>
        <time>2015-09-18T10:32:16Z</time>
      </trkpt>
      <trkpt lat="44.72733" lon="3.33137">
        <ele>1033</ele>
        <time>2015-09-18T10:32:21Z</time>
      </trkpt>
      <trkpt lat="44.72724" lon="3.33139">
        <ele>1033.2</ele>
        <time>2015-09-18T10:32:25Z</time>
      </trkpt>
      <trkpt lat="44.72714" lon="3.33139">
        <ele>1033.3</ele>
        <time>2015-09-18T10:32:29Z</time>
      </trkpt>
      <trkpt lat="44.72704" lon="3.33142">
        <ele>1033.4</ele>
        <time>2015-09-18T10:32:33Z</time>
      </trkpt>
      <trkpt lat="44.72695" lon="3.33146">
        <ele>1033.4</ele>
        <time>2015-09-18T10:32:36Z</time>
      </trkpt>
      <trkpt lat="44.72686" lon="3.3315">
        <ele>1033.5</ele>
        <time>2015-09-18T10:32:39Z</time>
      </trkpt>
      <trkpt lat="44.72677" lon="3.33156">
        <ele>1033.5</ele>
        <time>2015-09-18T10:32:42Z</time>
      </trkpt>
      <trkpt lat="44.72666" lon="3.3316">
        <ele>1033.5</ele>
        <time>2015-09-18T10:32:45Z</time>
      </trkpt>
      <trkpt lat="44.72655" lon="3.33165">
        <ele>1033.5</ele>
        <time>2015-09-18T10:32:48Z</time>
      </trkpt>
      <trkpt lat="44.72643" lon="3.3317">
        <ele>1033.6</ele>
        <time>2015-09-18T10:32:51Z</time>
      </trkpt>
      <trkpt lat="44.72633" lon="3.33175">
        <ele>1033.6</ele>
        <time>2015-09-18T10:32:54Z</time>
      </trkpt>
      <trkpt lat="44.72622" lon="3.33178">
        <ele>1033.5</ele>
        <time>2015-09-18T10:32:58Z</time>
      </trkpt>
      <trkpt lat="44.72611" lon="3.33178">
        <ele>1033.4</ele>
        <time>2015-09-18T10:33:02Z</time>
      </trkpt>
      <trkpt lat="44.72602" lon="3.33172">
        <ele>1033.3</ele>
        <time>2015-09-18T10:33:07Z</time>
      </trkpt>
      <trkpt lat="44.72596" lon="3.3316">
        <ele>1033.6</ele>
        <time>2015-09-18T10:33:15Z</time>
      </trkpt>
      <trkpt lat="44.72589" lon="3.33149">
        <ele>1033.9</ele>
        <time>2015-09-18T10:33:20Z</time>
      </trkpt>
      <trkpt lat="44.72585" lon="3.33136">
        <ele>1034.4</ele>
        <time>2015-09-18T10:33:26Z</time>
      </trkpt>
      <trkpt lat="44.7258" lon="3.33125">
        <ele>1035</ele>
        <time>2015-09-18T10:33:33Z</time>
      </trkpt>
      <trkpt lat="44.72573" lon="3.33115">
        <ele>1035.9</ele>
        <time>2015-09-18T10:33:40Z</time>
      </trkpt>
      <trkpt lat="44.72567" lon="3.33106">
        <ele>1036.7</ele>
        <time>2015-09-18T10:33:46Z</time>
      </trkpt>
      <trkpt lat="44.7256" lon="3.33097">
        <ele>1037.6</ele>
        <time>2015-09-18T10:33:52Z</time>
      </trkpt>
      <trkpt lat="44.72552" lon="3.3309">
        <ele>1038.7</ele>
        <time>2015-09-18T10:33:59Z</time>
      </trkpt>
      <trkpt lat="44.72546" lon="3.33079">
        <ele>1039.6</ele>
        <time>2015-09-18T10:34:05Z</time>
      </trkpt>
      <trkpt lat="44.72541" lon="3.33067">
        <ele>1040.3</ele>
        <time>2015-09-18T10:34:11Z</time>
      </trkpt>
      <trkpt lat="44.72535" lon="3.33057">
        <ele>1041.2</ele>
        <time>2015-09-18T10:34:18Z</time>
      </trkpt>
      <trkpt lat="44.72529" lon="3.33047">
        <ele>1041.8</ele>
        <time>2015-09-18T10:34:24Z</time>
      </trkpt>
      <trkpt lat="44.72521" lon="3.33036">
        <ele>1042.4</ele>
        <time>2015-09-18T10:34:30Z</time>
      </trkpt>
      <trkpt lat="44.72515" lon="3.33025">
        <ele>1042.9</ele>
        <time>2015-09-18T10:34:36Z</time>
      </trkpt>
      <trkpt lat="44.7251" lon="3.33012">
        <ele>1043.5</ele>
        <time>2015-09-18T10:34:43Z</time>
      </trkpt>
      <trkpt lat="44.72504" lon="3.33001">
        <ele>1043.9</ele>
        <time>2015-09-18T10:34:48Z</time>
      </trkpt>
      <trkpt lat="44.72497" lon="3.32989">
        <ele>1044.4</ele>
        <time>2015-09-18T10:34:54Z</time>
      </trkpt>
      <trkpt lat="44.72491" lon="3.32978">
        <ele>1044.7</ele>
        <time>2015-09-18T10:35:00Z</time>
      </trkpt>
      <trkpt lat="44.72485" lon="3.32967">
        <ele>1044.9</ele>
        <time>2015-09-18T10:35:06Z</time>
      </trkpt>
      <trkpt lat="44.72476" lon="3.32956">
        <ele>1045</ele>
        <time>2015-09-18T10:35:11Z</time>
      </trkpt>
      <trkpt lat="44.7247" lon="3.32947">
        <ele>1045.1</ele>
        <time>2015-09-18T10:35:14Z</time>
      </trkpt>
      <trkpt lat="44.72464" lon="3.32932">
        <ele>1045.1</ele>
        <time>2015-09-18T10:35:17Z</time>
      </trkpt>
      <trkpt lat="44.7246" lon="3.3292">
        <ele>1045.1</ele>
        <time>2015-09-18T10:35:19Z</time>
      </trkpt>
      <trkpt lat="44.72456" lon="3.32908">
        <ele>1045.1</ele>
        <time>2015-09-18T10:35:21Z</time>
      </trkpt>
      <trkpt lat="44.72453" lon="3.32895">
        <ele>1045</ele>
        <time>2015-09-18T10:35:23Z</time>
      </trkpt>
      <trkpt lat="44.72447" lon="3.32879">
        <ele>1044.8</ele>
        <time>2015-09-18T10:35:26Z</time>
      </trkpt>
      <trkpt lat="44.72442" lon="3.32865">
        <ele>1044.7</ele>
        <time>2015-09-18T10:35:29Z</time>
      </trkpt>
      <trkpt lat="44.72437" lon="3.32851">
        <ele>1044.6</ele>
        <time>2015-09-18T10:35:33Z</time>
      </trkpt>
      <trkpt lat="44.7243" lon="3.32841">
        <ele>1044.5</ele>
        <time>2015-09-18T10:35:38Z</time>
      </trkpt>
      <trkpt lat="44.7243" lon="3.32828">
        <ele>1043.2</ele>
        <time>2015-09-18T10:37:50Z</time>
      </trkpt>
      <trkpt lat="44.72428" lon="3.32815">
        <ele>1043.2</ele>
        <time>2015-09-18T10:37:55Z</time>
      </trkpt>
      <trkpt lat="44.72426" lon="3.32802">
        <ele>1043.2</ele>
        <time>2015-09-18T10:38:00Z</time>
      </trkpt>
      <trkpt lat="44.72424" lon="3.32787">
        <ele>1043.2</ele>
        <time>2015-09-18T10:38:04Z</time>
      </trkpt>
      <trkpt lat="44.72419" lon="3.32773">
        <ele>1043.1</ele>
        <time>2015-09-18T10:38:07Z</time>
      </trkpt>
      <trkpt lat="44.72414" lon="3.32757">
        <ele>1043.1</ele>
        <time>2015-09-18T10:38:10Z</time>
      </trkpt>
      <trkpt lat="44.72409" lon="3.32745">
        <ele>1043</ele>
        <time>2015-09-18T10:38:12Z</time>
      </trkpt>
      <trkpt lat="44.72404" lon="3.32733">
        <ele>1042.9</ele>
        <time>2015-09-18T10:38:14Z</time>
      </trkpt>
      <trkpt lat="44.724" lon="3.3272">
        <ele>1042.7</ele>
        <time>2015-09-18T10:38:16Z</time>
      </trkpt>
      <trkpt lat="44.72397" lon="3.32708">
        <ele>1042.5</ele>
        <time>2015-09-18T10:38:18Z</time>
      </trkpt>
      <trkpt lat="44.72394" lon="3.32695">
        <ele>1042.3</ele>
        <time>2015-09-18T10:38:20Z</time>
      </trkpt>
      <trkpt lat="44.72393" lon="3.32682">
        <ele>1042.2</ele>
        <time>2015-09-18T10:38:22Z</time>
      </trkpt>
      <trkpt lat="44.72393" lon="3.32669">
        <ele>1042</ele>
        <time>2015-09-18T10:38:24Z</time>
      </trkpt>
      <trkpt lat="44.72393" lon="3.32656">
        <ele>1041.8</ele>
        <time>2015-09-18T10:38:26Z</time>
      </trkpt>
      <trkpt lat="44.72393" lon="3.32638">
        <ele>1041.6</ele>
        <time>2015-09-18T10:38:29Z</time>
      </trkpt>
      <trkpt lat="44.72393" lon="3.32625">
        <ele>1041.5</ele>
        <time>2015-09-18T10:38:31Z</time>
      </trkpt>
      <trkpt lat="44.72396" lon="3.32607">
        <ele>1041.3</ele>
        <time>2015-09-18T10:38:34Z</time>
      </trkpt>
      <trkpt lat="44.72396" lon="3.32594">
        <ele>1041.3</ele>
        <time>2015-09-18T10:38:36Z</time>
      </trkpt>
      <trkpt lat="44.72396" lon="3.32576">
        <ele>1041.1</ele>
        <time>2015-09-18T10:38:39Z</time>
      </trkpt>
      <trkpt lat="44.72397" lon="3.32559">
        <ele>1041</ele>
        <time>2015-09-18T10:38:42Z</time>
      </trkpt>
      <trkpt lat="44.724" lon="3.32544">
        <ele>1040.9</ele>
        <time>2015-09-18T10:38:45Z</time>
      </trkpt>
      <trkpt lat="44.72403" lon="3.32531">
        <ele>1040.9</ele>
        <time>2015-09-18T10:38:48Z</time>
      </trkpt>
      <trkpt lat="44.72404" lon="3.32516">
        <ele>1040.8</ele>
        <time>2015-09-18T10:38:51Z</time>
      </trkpt>
      <trkpt lat="44.72405" lon="3.325">
        <ele>1040.8</ele>
        <time>2015-09-18T10:38:54Z</time>
      </trkpt>
      <trkpt lat="44.72408" lon="3.32485">
        <ele>1040.8</ele>
        <time>2015-09-18T10:38:57Z</time>
      </trkpt>
      <trkpt lat="44.7241" lon="3.3247">
        <ele>1040.9</ele>
        <time>2015-09-18T10:39:00Z</time>
      </trkpt>
      <trkpt lat="44.72415" lon="3.32456">
        <ele>1041</ele>
        <time>2015-09-18T10:39:04Z</time>
      </trkpt>
      <trkpt lat="44.72418" lon="3.32443">
        <ele>1041.3</ele>
        <time>2015-09-18T10:39:07Z</time>
      </trkpt>
      <trkpt lat="44.72417" lon="3.3243">
        <ele>1041.5</ele>
        <time>2015-09-18T10:39:09Z</time>
      </trkpt>
      <trkpt lat="44.72417" lon="3.32414">
        <ele>1041.7</ele>
        <time>2015-09-18T10:39:12Z</time>
      </trkpt>
      <trkpt lat="44.72417" lon="3.32399">
        <ele>1042</ele>
        <time>2015-09-18T10:39:15Z</time>
      </trkpt>
      <trkpt lat="44.72419" lon="3.32386">
        <ele>1042.3</ele>
        <time>2015-09-18T10:39:18Z</time>
      </trkpt>
      <trkpt lat="44.72423" lon="3.32371">
        <ele>1042.7</ele>
        <time>2015-09-18T10:39:22Z</time>
      </trkpt>
      <trkpt lat="44.72425" lon="3.32354">
        <ele>1043</ele>
        <time>2015-09-18T10:39:26Z</time>
      </trkpt>
      <trkpt lat="44.72429" lon="3.32338">
        <ele>1043.4</ele>
        <time>2015-09-18T10:39:30Z</time>
      </trkpt>
      <trkpt lat="44.72431" lon="3.32325">
        <ele>1043.6</ele>
        <time>2015-09-18T10:39:33Z</time>
      </trkpt>
      <trkpt lat="44.72435" lon="3.3231">
        <ele>1043.9</ele>
        <time>2015-09-18T10:39:37Z</time>
      </trkpt>
      <trkpt lat="44.72436" lon="3.32294">
        <ele>1044.1</ele>
        <time>2015-09-18T10:39:40Z</time>
      </trkpt>
      <trkpt lat="44.72438" lon="3.32279">
        <ele>1044.2</ele>
        <time>2015-09-18T10:39:43Z</time>
      </trkpt>
      <trkpt lat="44.72437" lon="3.32265">
        <ele>1044.3</ele>
        <time>2015-09-18T10:39:45Z</time>
      </trkpt>
      <trkpt lat="44.72436" lon="3.32248">
        <ele>1044.3</ele>
        <time>2015-09-18T10:39:48Z</time>
      </trkpt>
      <trkpt lat="44.72435" lon="3.32234">
        <ele>1044.3</ele>
        <time>2015-09-18T10:39:50Z</time>
      </trkpt>
      <trkpt lat="44.72434" lon="3.32215">
        <ele>1044.2</ele>
        <time>2015-09-18T10:39:53Z</time>
      </trkpt>
      <trkpt lat="44.72433" lon="3.32197">
        <ele>1044.2</ele>
        <time>2015-09-18T10:39:56Z</time>
      </trkpt>
      <trkpt lat="44.72433" lon="3.3218">
        <ele>1044.1</ele>
        <time>2015-09-18T10:39:59Z</time>
      </trkpt>
      <trkpt lat="44.7243" lon="3.32163">
        <ele>1044</ele>
        <time>2015-09-18T10:40:02Z</time>
      </trkpt>
      <trkpt lat="44.72431" lon="3.32146">
        <ele>1043.8</ele>
        <time>2015-09-18T10:40:05Z</time>
      </trkpt>
      <trkpt lat="44.72435" lon="3.32127">
        <ele>1043.7</ele>
        <time>2015-09-18T10:40:08Z</time>
      </trkpt>
      <trkpt lat="44.7244" lon="3.32111">
        <ele>1043.6</ele>
        <time>2015-09-18T10:40:11Z</time>
      </trkpt>
      <trkpt lat="44.72447" lon="3.32099">
        <ele>1043.6</ele>
        <time>2015-09-18T10:40:14Z</time>
      </trkpt>
      <trkpt lat="44.72453" lon="3.32089">
        <ele>1043.5</ele>
        <time>2015-09-18T10:40:17Z</time>
      </trkpt>
      <trkpt lat="44.72461" lon="3.32081">
        <ele>1043.5</ele>
        <time>2015-09-18T10:40:20Z</time>
      </trkpt>
      <trkpt lat="44.72468" lon="3.32071">
        <ele>1043.5</ele>
        <time>2015-09-18T10:40:23Z</time>
      </trkpt>
      <trkpt lat="44.72474" lon="3.32061">
        <ele>1043.4</ele>
        <time>2015-09-18T10:40:26Z</time>
      </trkpt>
      <trkpt lat="44.72479" lon="3.32051">
        <ele>1043.4</ele>
        <time>2015-09-18T10:40:29Z</time>
      </trkpt>
      <trkpt lat="44.72483" lon="3.32036">
        <ele>1043.4</ele>
        <time>2015-09-18T10:40:33Z</time>
      </trkpt>
      <trkpt lat="44.72484" lon="3.32021">
        <ele>1043.6</ele>
        <time>2015-09-18T10:40:37Z</time>
      </trkpt>
      <trkpt lat="44.72484" lon="3.32005">
        <ele>1043.9</ele>
        <time>2015-09-18T10:40:41Z</time>
      </trkpt>
      <trkpt lat="44.72485" lon="3.31989">
        <ele>1044.2</ele>
        <time>2015-09-18T10:40:45Z</time>
      </trkpt>
      <trkpt lat="44.72486" lon="3.31974">
        <ele>1044.6</ele>
        <time>2015-09-18T10:40:49Z</time>
      </trkpt>
      <trkpt lat="44.72488" lon="3.31961">
        <ele>1045.1</ele>
        <time>2015-09-18T10:40:53Z</time>
      </trkpt>
      <trkpt lat="44.72492" lon="3.31949">
        <ele>1045.6</ele>
        <time>2015-09-18T10:40:57Z</time>
      </trkpt>
      <trkpt lat="44.72495" lon="3.31937">
        <ele>1046</ele>
        <time>2015-09-18T10:41:01Z</time>
      </trkpt>
      <trkpt lat="44.72497" lon="3.31922">
        <ele>1046.7</ele>
        <time>2015-09-18T10:41:06Z</time>
      </trkpt>
      <trkpt lat="44.72498" lon="3.31907">
        <ele>1047.3</ele>
        <time>2015-09-18T10:41:11Z</time>
      </trkpt>
      <trkpt lat="44.72499" lon="3.31894">
        <ele>1047.8</ele>
        <time>2015-09-18T10:41:15Z</time>
      </trkpt>
      <trkpt lat="44.72501" lon="3.31882">
        <ele>1048.3</ele>
        <time>2015-09-18T10:41:19Z</time>
      </trkpt>
      <trkpt lat="44.72504" lon="3.31869">
        <ele>1048.6</ele>
        <time>2015-09-18T10:41:23Z</time>
      </trkpt>
      <trkpt lat="44.72505" lon="3.31856">
        <ele>1049.1</ele>
        <time>2015-09-18T10:41:27Z</time>
      </trkpt>
      <trkpt lat="44.72507" lon="3.31843">
        <ele>1049.6</ele>
        <time>2015-09-18T10:41:31Z</time>
      </trkpt>
      <trkpt lat="44.72509" lon="3.31827">
        <ele>1050</ele>
        <time>2015-09-18T10:41:35Z</time>
      </trkpt>
      <trkpt lat="44.7251" lon="3.31815">
        <ele>1050.2</ele>
        <time>2015-09-18T10:41:38Z</time>
      </trkpt>
      <trkpt lat="44.72512" lon="3.31798">
        <ele>1050.4</ele>
        <time>2015-09-18T10:41:42Z</time>
      </trkpt>
      <trkpt lat="44.72515" lon="3.31786">
        <ele>1050.7</ele>
        <time>2015-09-18T10:41:45Z</time>
      </trkpt>
      <trkpt lat="44.72517" lon="3.3177">
        <ele>1051</ele>
        <time>2015-09-18T10:41:49Z</time>
      </trkpt>
      <trkpt lat="44.72518" lon="3.31754">
        <ele>1051.2</ele>
        <time>2015-09-18T10:41:53Z</time>
      </trkpt>
      <trkpt lat="44.72518" lon="3.31737">
        <ele>1051.4</ele>
        <time>2015-09-18T10:41:57Z</time>
      </trkpt>
      <trkpt lat="44.72518" lon="3.31724">
        <ele>1051.5</ele>
        <time>2015-09-18T10:42:00Z</time>
      </trkpt>
      <trkpt lat="44.72517" lon="3.31709">
        <ele>1051.6</ele>
        <time>2015-09-18T10:42:04Z</time>
      </trkpt>
      <trkpt lat="44.72516" lon="3.31694">
        <ele>1051.7</ele>
        <time>2015-09-18T10:42:08Z</time>
      </trkpt>
      <trkpt lat="44.72516" lon="3.31679">
        <ele>1051.8</ele>
        <time>2015-09-18T10:42:12Z</time>
      </trkpt>
      <trkpt lat="44.72516" lon="3.31663">
        <ele>1052</ele>
        <time>2015-09-18T10:42:16Z</time>
      </trkpt>
      <trkpt lat="44.72517" lon="3.31648">
        <ele>1052.3</ele>
        <time>2015-09-18T10:42:20Z</time>
      </trkpt>
      <trkpt lat="44.72518" lon="3.31636">
        <ele>1052.5</ele>
        <time>2015-09-18T10:42:24Z</time>
      </trkpt>
      <trkpt lat="44.7252" lon="3.31621">
        <ele>1052.9</ele>
        <time>2015-09-18T10:42:29Z</time>
      </trkpt>
      <trkpt lat="44.72522" lon="3.31607">
        <ele>1053.3</ele>
        <time>2015-09-18T10:42:34Z</time>
      </trkpt>
      <trkpt lat="44.72525" lon="3.31593">
        <ele>1053.8</ele>
        <time>2015-09-18T10:42:40Z</time>
      </trkpt>
      <trkpt lat="44.72529" lon="3.3158">
        <ele>1054.2</ele>
        <time>2015-09-18T10:42:46Z</time>
      </trkpt>
      <trkpt lat="44.72531" lon="3.31568">
        <ele>1054.5</ele>
        <time>2015-09-18T10:42:51Z</time>
      </trkpt>
      <trkpt lat="44.72534" lon="3.31554">
        <ele>1055.1</ele>
        <time>2015-09-18T10:42:57Z</time>
      </trkpt>
      <trkpt lat="44.72536" lon="3.31541">
        <ele>1055.6</ele>
        <time>2015-09-18T10:43:02Z</time>
      </trkpt>
      <trkpt lat="44.72539" lon="3.31529">
        <ele>1056.2</ele>
        <time>2015-09-18T10:43:07Z</time>
      </trkpt>
      <trkpt lat="44.7254" lon="3.31515">
        <ele>1056.8</ele>
        <time>2015-09-18T10:43:12Z</time>
      </trkpt>
      <trkpt lat="44.72541" lon="3.31501">
        <ele>1057.4</ele>
        <time>2015-09-18T10:43:17Z</time>
      </trkpt>
      <trkpt lat="44.72541" lon="3.31487">
        <ele>1058.1</ele>
        <time>2015-09-18T10:43:22Z</time>
      </trkpt>
      <trkpt lat="44.7254" lon="3.31472">
        <ele>1058.7</ele>
        <time>2015-09-18T10:43:27Z</time>
      </trkpt>
      <trkpt lat="44.72541" lon="3.31458">
        <ele>1059.2</ele>
        <time>2015-09-18T10:43:32Z</time>
      </trkpt>
      <trkpt lat="44.72539" lon="3.31443">
        <ele>1059.8</ele>
        <time>2015-09-18T10:43:37Z</time>
      </trkpt>
      <trkpt lat="44.7254" lon="3.31429">
        <ele>1060.4</ele>
        <time>2015-09-18T10:43:42Z</time>
      </trkpt>
      <trkpt lat="44.72541" lon="3.31416">
        <ele>1061</ele>
        <time>2015-09-18T10:43:47Z</time>
      </trkpt>
      <trkpt lat="44.72542" lon="3.31402">
        <ele>1061.5</ele>
        <time>2015-09-18T10:43:52Z</time>
      </trkpt>
      <trkpt lat="44.72543" lon="3.31389">
        <ele>1062.1</ele>
        <time>2015-09-18T10:43:57Z</time>
      </trkpt>
      <trkpt lat="44.72545" lon="3.31375">
        <ele>1062.8</ele>
        <time>2015-09-18T10:44:02Z</time>
      </trkpt>
      <trkpt lat="44.72545" lon="3.31361">
        <ele>1063.3</ele>
        <time>2015-09-18T10:44:07Z</time>
      </trkpt>
      <trkpt lat="44.72548" lon="3.31347">
        <ele>1063.9</ele>
        <time>2015-09-18T10:44:12Z</time>
      </trkpt>
      <trkpt lat="44.72551" lon="3.31333">
        <ele>1064.5</ele>
        <time>2015-09-18T10:44:18Z</time>
      </trkpt>
      <trkpt lat="44.72551" lon="3.31317">
        <ele>1064.9</ele>
        <time>2015-09-18T10:44:23Z</time>
      </trkpt>
      <trkpt lat="44.72552" lon="3.31304">
        <ele>1065.2</ele>
        <time>2015-09-18T10:44:28Z</time>
      </trkpt>
      <trkpt lat="44.72552" lon="3.3129">
        <ele>1065.4</ele>
        <time>2015-09-18T10:44:33Z</time>
      </trkpt>
      <trkpt lat="44.72552" lon="3.31277">
        <ele>1065.6</ele>
        <time>2015-09-18T10:44:38Z</time>
      </trkpt>
      <trkpt lat="44.72552" lon="3.31264">
        <ele>1066</ele>
        <time>2015-09-18T10:44:43Z</time>
      </trkpt>
      <trkpt lat="44.72553" lon="3.31249">
        <ele>1066.3</ele>
        <time>2015-09-18T10:44:49Z</time>
      </trkpt>
      <trkpt lat="44.72553" lon="3.31235">
        <ele>1066.8</ele>
        <time>2015-09-18T10:44:55Z</time>
      </trkpt>
      <trkpt lat="44.72553" lon="3.31221">
        <ele>1067.6</ele>
        <time>2015-09-18T10:45:06Z</time>
      </trkpt>
      <trkpt lat="44.72553" lon="3.31208">
        <ele>1068.3</ele>
        <time>2015-09-18T10:45:15Z</time>
      </trkpt>
      <trkpt lat="44.72555" lon="3.31195">
        <ele>1069.1</ele>
        <time>2015-09-18T10:45:25Z</time>
      </trkpt>
      <trkpt lat="44.72555" lon="3.31181">
        <ele>1069.9</ele>
        <time>2015-09-18T10:45:34Z</time>
      </trkpt>
      <trkpt lat="44.72555" lon="3.31167">
        <ele>1070.7</ele>
        <time>2015-09-18T10:45:43Z</time>
      </trkpt>
      <trkpt lat="44.72556" lon="3.31154">
        <ele>1071.6</ele>
        <time>2015-09-18T10:45:52Z</time>
      </trkpt>
      <trkpt lat="44.72556" lon="3.31141">
        <ele>1074.1</ele>
        <time>2015-09-18T10:46:33Z</time>
      </trkpt>
      <trkpt lat="44.72557" lon="3.31129">
        <ele>1074.7</ele>
        <time>2015-09-18T10:46:42Z</time>
      </trkpt>
      <trkpt lat="44.72558" lon="3.31116">
        <ele>1075.4</ele>
        <time>2015-09-18T10:46:51Z</time>
      </trkpt>
      <trkpt lat="44.72558" lon="3.31102">
        <ele>1076.6</ele>
        <time>2015-09-18T10:47:01Z</time>
      </trkpt>
      <trkpt lat="44.72557" lon="3.31088">
        <ele>1078</ele>
        <time>2015-09-18T10:47:11Z</time>
      </trkpt>
      <trkpt lat="44.72558" lon="3.31075">
        <ele>1079.1</ele>
        <time>2015-09-18T10:47:22Z</time>
      </trkpt>
      <trkpt lat="44.72557" lon="3.31062">
        <ele>1082.5</ele>
        <time>2015-09-18T10:49:10Z</time>
      </trkpt>
      <trkpt lat="44.72555" lon="3.31048">
        <ele>1082.5</ele>
        <time>2015-09-18T10:49:16Z</time>
      </trkpt>
      <trkpt lat="44.72555" lon="3.31033">
        <ele>1082.6</ele>
        <time>2015-09-18T10:49:21Z</time>
      </trkpt>
      <trkpt lat="44.72555" lon="3.31019">
        <ele>1082.6</ele>
        <time>2015-09-18T10:49:25Z</time>
      </trkpt>
      <trkpt lat="44.72555" lon="3.31004">
        <ele>1082.6</ele>
        <time>2015-09-18T10:49:30Z</time>
      </trkpt>
      <trkpt lat="44.72554" lon="3.30989">
        <ele>1082.7</ele>
        <time>2015-09-18T10:49:35Z</time>
      </trkpt>
      <trkpt lat="44.72554" lon="3.30975">
        <ele>1082.7</ele>
        <time>2015-09-18T10:49:39Z</time>
      </trkpt>
      <trkpt lat="44.72555" lon="3.30961">
        <ele>1082.7</ele>
        <time>2015-09-18T10:49:43Z</time>
      </trkpt>
      <trkpt lat="44.72555" lon="3.30946">
        <ele>1082.8</ele>
        <time>2015-09-18T10:49:47Z</time>
      </trkpt>
      <trkpt lat="44.72555" lon="3.30932">
        <ele>1082.8</ele>
        <time>2015-09-18T10:49:51Z</time>
      </trkpt>
      <trkpt lat="44.72555" lon="3.30917">
        <ele>1082.8</ele>
        <time>2015-09-18T10:49:55Z</time>
      </trkpt>
      <trkpt lat="44.72552" lon="3.30902">
        <ele>1082.9</ele>
        <time>2015-09-18T10:49:59Z</time>
      </trkpt>
      <trkpt lat="44.7255" lon="3.30887">
        <ele>1082.9</ele>
        <time>2015-09-18T10:50:03Z</time>
      </trkpt>
      <trkpt lat="44.72547" lon="3.30873">
        <ele>1083.1</ele>
        <time>2015-09-18T10:50:07Z</time>
      </trkpt>
      <trkpt lat="44.72545" lon="3.30859">
        <ele>1083.2</ele>
        <time>2015-09-18T10:50:11Z</time>
      </trkpt>
      <trkpt lat="44.72542" lon="3.30844">
        <ele>1083.4</ele>
        <time>2015-09-18T10:50:15Z</time>
      </trkpt>
      <trkpt lat="44.72539" lon="3.30831">
        <ele>1083.6</ele>
        <time>2015-09-18T10:50:19Z</time>
      </trkpt>
      <trkpt lat="44.72536" lon="3.30816">
        <ele>1084</ele>
        <time>2015-09-18T10:50:23Z</time>
      </trkpt>
      <trkpt lat="44.72534" lon="3.30803">
        <ele>1084.4</ele>
        <time>2015-09-18T10:50:27Z</time>
      </trkpt>
      <trkpt lat="44.72531" lon="3.3079">
        <ele>1084.9</ele>
        <time>2015-09-18T10:50:32Z</time>
      </trkpt>
      <trkpt lat="44.72529" lon="3.30776">
        <ele>1085.4</ele>
        <time>2015-09-18T10:50:37Z</time>
      </trkpt>
      <trkpt lat="44.72527" lon="3.30763">
        <ele>1086.2</ele>
        <time>2015-09-18T10:50:42Z</time>
      </trkpt>
      <trkpt lat="44.72536" lon="3.30762">
        <ele>1086.9</ele>
        <time>2015-09-18T10:50:47Z</time>
      </trkpt>
      <trkpt lat="44.72546" lon="3.30765">
        <ele>1087.3</ele>
        <time>2015-09-18T10:50:51Z</time>
      </trkpt>
      <trkpt lat="44.72556" lon="3.3077">
        <ele>1087.7</ele>
        <time>2015-09-18T10:50:56Z</time>
      </trkpt>
      <trkpt lat="44.72565" lon="3.30775">
        <ele>1088</ele>
        <time>2015-09-18T10:51:01Z</time>
      </trkpt>
      <trkpt lat="44.72574" lon="3.3078">
        <ele>1088.1</ele>
        <time>2015-09-18T10:51:07Z</time>
      </trkpt>
      <trkpt lat="44.72583" lon="3.30784">
        <ele>1088.1</ele>
        <time>2015-09-18T10:52:02Z</time>
      </trkpt>
      <trkpt lat="44.72592" lon="3.30789">
        <ele>1088.1</ele>
        <time>2015-09-18T10:52:05Z</time>
      </trkpt>
      <trkpt lat="44.72602" lon="3.30793">
        <ele>1088.1</ele>
        <time>2015-09-18T10:52:08Z</time>
      </trkpt>
      <trkpt lat="44.72613" lon="3.308">
        <ele>1087.9</ele>
        <time>2015-09-18T10:52:11Z</time>
      </trkpt>
      <trkpt lat="44.72623" lon="3.30803">
        <ele>1087.7</ele>
        <time>2015-09-18T10:52:13Z</time>
      </trkpt>
      <trkpt lat="44.72633" lon="3.30808">
        <ele>1087.4</ele>
        <time>2015-09-18T10:52:15Z</time>
      </trkpt>
      <trkpt lat="44.72643" lon="3.30813">
        <ele>1087.1</ele>
        <time>2015-09-18T10:52:17Z</time>
      </trkpt>
      <trkpt lat="44.72653" lon="3.30818">
        <ele>1086.8</ele>
        <time>2015-09-18T10:52:19Z</time>
      </trkpt>
      <trkpt lat="44.72663" lon="3.30822">
        <ele>1086.5</ele>
        <time>2015-09-18T10:52:21Z</time>
      </trkpt>
      <trkpt lat="44.72674" lon="3.30825">
        <ele>1086.1</ele>
        <time>2015-09-18T10:52:24Z</time>
      </trkpt>
      <trkpt lat="44.72678" lon="3.30812">
        <ele>1085.5</ele>
        <time>2015-09-18T10:52:28Z</time>
      </trkpt>
      <trkpt lat="44.72671" lon="3.30803">
        <ele>1085.1</ele>
        <time>2015-09-18T10:52:33Z</time>
      </trkpt>
      <trkpt lat="44.72662" lon="3.30796">
        <ele>1084.7</ele>
        <time>2015-09-18T10:52:39Z</time>
      </trkpt>
      <trkpt lat="44.72653" lon="3.30789">
        <ele>1084.8</ele>
        <time>2015-09-18T10:52:45Z</time>
      </trkpt>
      <trkpt lat="44.72644" lon="3.30783">
        <ele>1085.2</ele>
        <time>2015-09-18T10:52:51Z</time>
      </trkpt>
      <trkpt lat="44.72636" lon="3.30777">
        <ele>1085.8</ele>
        <time>2015-09-18T10:52:57Z</time>
      </trkpt>
      <trkpt lat="44.72627" lon="3.3077">
        <ele>1086.6</ele>
        <time>2015-09-18T10:53:04Z</time>
      </trkpt>
      <trkpt lat="44.72619" lon="3.30763">
        <ele>1087.2</ele>
        <time>2015-09-18T10:53:10Z</time>
      </trkpt>
      <trkpt lat="44.72611" lon="3.30757">
        <ele>1087.7</ele>
        <time>2015-09-18T10:53:16Z</time>
      </trkpt>
      <trkpt lat="44.72604" lon="3.30749">
        <ele>1088.3</ele>
        <time>2015-09-18T10:53:22Z</time>
      </trkpt>
      <trkpt lat="44.72595" lon="3.3074">
        <ele>1088.9</ele>
        <time>2015-09-18T10:53:29Z</time>
      </trkpt>
      <trkpt lat="44.72588" lon="3.30732">
        <ele>1089.4</ele>
        <time>2015-09-18T10:53:35Z</time>
      </trkpt>
      <trkpt lat="44.7258" lon="3.30725">
        <ele>1089.9</ele>
        <time>2015-09-18T10:53:41Z</time>
      </trkpt>
      <trkpt lat="44.72573" lon="3.30715">
        <ele>1090.4</ele>
        <time>2015-09-18T10:53:47Z</time>
      </trkpt>
      <trkpt lat="44.72566" lon="3.30705">
        <ele>1090.8</ele>
        <time>2015-09-18T10:53:53Z</time>
      </trkpt>
      <trkpt lat="44.72559" lon="3.30693">
        <ele>1091.3</ele>
        <time>2015-09-18T10:53:59Z</time>
      </trkpt>
      <trkpt lat="44.72553" lon="3.30681">
        <ele>1091.7</ele>
        <time>2015-09-18T10:54:05Z</time>
      </trkpt>
      <trkpt lat="44.72547" lon="3.30668">
        <ele>1092.2</ele>
        <time>2015-09-18T10:54:11Z</time>
      </trkpt>
      <trkpt lat="44.72542" lon="3.30656">
        <ele>1092.8</ele>
        <time>2015-09-18T10:54:17Z</time>
      </trkpt>
      <trkpt lat="44.72537" lon="3.30643">
        <ele>1093.7</ele>
        <time>2015-09-18T10:54:24Z</time>
      </trkpt>
      <trkpt lat="44.72533" lon="3.3063">
        <ele>1094.2</ele>
        <time>2015-09-18T10:54:30Z</time>
      </trkpt>
      <trkpt lat="44.72529" lon="3.30616">
        <ele>1094.7</ele>
        <time>2015-09-18T10:54:36Z</time>
      </trkpt>
      <trkpt lat="44.72525" lon="3.30602">
        <ele>1095.1</ele>
        <time>2015-09-18T10:54:42Z</time>
      </trkpt>
      <trkpt lat="44.72523" lon="3.3059">
        <ele>1095.4</ele>
        <time>2015-09-18T10:54:47Z</time>
      </trkpt>
      <trkpt lat="44.7252" lon="3.30576">
        <ele>1095.7</ele>
        <time>2015-09-18T10:54:52Z</time>
      </trkpt>
      <trkpt lat="44.72517" lon="3.30563">
        <ele>1095.8</ele>
        <time>2015-09-18T10:54:56Z</time>
      </trkpt>
      <trkpt lat="44.72513" lon="3.30548">
        <ele>1096</ele>
        <time>2015-09-18T10:55:00Z</time>
      </trkpt>
      <trkpt lat="44.72509" lon="3.30535">
        <ele>1096.1</ele>
        <time>2015-09-18T10:55:04Z</time>
      </trkpt>
      <trkpt lat="44.72506" lon="3.3052">
        <ele>1096.2</ele>
        <time>2015-09-18T10:55:08Z</time>
      </trkpt>
      <trkpt lat="44.72502" lon="3.30506">
        <ele>1096.3</ele>
        <time>2015-09-18T10:55:12Z</time>
      </trkpt>
      <trkpt lat="44.72496" lon="3.30493">
        <ele>1096.4</ele>
        <time>2015-09-18T10:55:16Z</time>
      </trkpt>
      <trkpt lat="44.7249" lon="3.30479">
        <ele>1096.4</ele>
        <time>2015-09-18T10:55:20Z</time>
      </trkpt>
      <trkpt lat="44.72484" lon="3.30465">
        <ele>1096.5</ele>
        <time>2015-09-18T10:55:24Z</time>
      </trkpt>
      <trkpt lat="44.72479" lon="3.30454">
        <ele>1096.5</ele>
        <time>2015-09-18T10:55:27Z</time>
      </trkpt>
      <trkpt lat="44.72474" lon="3.30441">
        <ele>1096.6</ele>
        <time>2015-09-18T10:55:31Z</time>
      </trkpt>
      <trkpt lat="44.72468" lon="3.30427">
        <ele>1096.6</ele>
        <time>2015-09-18T10:55:35Z</time>
      </trkpt>
      <trkpt lat="44.72462" lon="3.30414">
        <ele>1096.6</ele>
        <time>2015-09-18T10:55:39Z</time>
      </trkpt>
      <trkpt lat="44.72458" lon="3.30401">
        <ele>1096.7</ele>
        <time>2015-09-18T10:55:43Z</time>
      </trkpt>
      <trkpt lat="44.72454" lon="3.30388">
        <ele>1096.7</ele>
        <time>2015-09-18T10:55:47Z</time>
      </trkpt>
      <trkpt lat="44.7245" lon="3.30375">
        <ele>1096.7</ele>
        <time>2015-09-18T10:55:51Z</time>
      </trkpt>
      <trkpt lat="44.72444" lon="3.30361">
        <ele>1096.7</ele>
        <time>2015-09-18T10:55:55Z</time>
      </trkpt>
      <trkpt lat="44.72439" lon="3.30348">
        <ele>1096.8</ele>
        <time>2015-09-18T10:55:59Z</time>
      </trkpt>
      <trkpt lat="44.72434" lon="3.30335">
        <ele>1096.8</ele>
        <time>2015-09-18T10:56:03Z</time>
      </trkpt>
      <trkpt lat="44.72429" lon="3.30322">
        <ele>1096.8</ele>
        <time>2015-09-18T10:56:07Z</time>
      </trkpt>
      <trkpt lat="44.72423" lon="3.30308">
        <ele>1096.8</ele>
        <time>2015-09-18T10:56:11Z</time>
      </trkpt>
      <trkpt lat="44.72416" lon="3.30296">
        <ele>1096.9</ele>
        <time>2015-09-18T10:56:15Z</time>
      </trkpt>
      <trkpt lat="44.72409" lon="3.30283">
        <ele>1096.9</ele>
        <time>2015-09-18T10:56:19Z</time>
      </trkpt>
      <trkpt lat="44.72402" lon="3.30273">
        <ele>1097</ele>
        <time>2015-09-18T10:56:23Z</time>
      </trkpt>
      <trkpt lat="44.72395" lon="3.30261">
        <ele>1097.2</ele>
        <time>2015-09-18T10:56:27Z</time>
      </trkpt>
      <trkpt lat="44.72387" lon="3.30251">
        <ele>1097.4</ele>
        <time>2015-09-18T10:56:31Z</time>
      </trkpt>
      <trkpt lat="44.7238" lon="3.30241">
        <ele>1097.8</ele>
        <time>2015-09-18T10:56:35Z</time>
      </trkpt>
      <trkpt lat="44.72371" lon="3.3023">
        <ele>1098.1</ele>
        <time>2015-09-18T10:56:39Z</time>
      </trkpt>
      <trkpt lat="44.72362" lon="3.30219">
        <ele>1098.4</ele>
        <time>2015-09-18T10:56:43Z</time>
      </trkpt>
      <trkpt lat="44.72354" lon="3.30208">
        <ele>1098.7</ele>
        <time>2015-09-18T10:56:47Z</time>
      </trkpt>
      <trkpt lat="44.72347" lon="3.30198">
        <ele>1099</ele>
        <time>2015-09-18T10:56:50Z</time>
      </trkpt>
      <trkpt lat="44.72341" lon="3.30188">
        <ele>1099.2</ele>
        <time>2015-09-18T10:56:53Z</time>
      </trkpt>
      <trkpt lat="44.72335" lon="3.30178">
        <ele>1099.5</ele>
        <time>2015-09-18T10:56:56Z</time>
      </trkpt>
      <trkpt lat="44.72329" lon="3.30165">
        <ele>1099.7</ele>
        <time>2015-09-18T10:57:00Z</time>
      </trkpt>
      <trkpt lat="44.72323" lon="3.30152">
        <ele>1099.9</ele>
        <time>2015-09-18T10:57:04Z</time>
      </trkpt>
      <trkpt lat="44.72318" lon="3.30139">
        <ele>1100.2</ele>
        <time>2015-09-18T10:57:08Z</time>
      </trkpt>
      <trkpt lat="44.72313" lon="3.30124">
        <ele>1100.4</ele>
        <time>2015-09-18T10:57:12Z</time>
      </trkpt>
      <trkpt lat="44.72308" lon="3.30112">
        <ele>1100.6</ele>
        <time>2015-09-18T10:57:15Z</time>
      </trkpt>
      <trkpt lat="44.72303" lon="3.30098">
        <ele>1100.7</ele>
        <time>2015-09-18T10:57:18Z</time>
      </trkpt>
      <trkpt lat="44.72295" lon="3.30082">
        <ele>1100.7</ele>
        <time>2015-09-18T10:57:21Z</time>
      </trkpt>
      <trkpt lat="44.7229" lon="3.3007">
        <ele>1100.6</ele>
        <time>2015-09-18T10:57:23Z</time>
      </trkpt>
      <trkpt lat="44.72285" lon="3.30055">
        <ele>1100.2</ele>
        <time>2015-09-18T10:57:25Z</time>
      </trkpt>
      <trkpt lat="44.72278" lon="3.30038">
        <ele>1099.9</ele>
        <time>2015-09-18T10:57:27Z</time>
      </trkpt>
      <trkpt lat="44.7227" lon="3.30019">
        <ele>1099.2</ele>
        <time>2015-09-18T10:57:29Z</time>
      </trkpt>
      <trkpt lat="44.72261" lon="3.29999">
        <ele>1098.5</ele>
        <time>2015-09-18T10:57:31Z</time>
      </trkpt>
      <trkpt lat="44.72249" lon="3.29982">
        <ele>1097.7</ele>
        <time>2015-09-18T10:57:33Z</time>
      </trkpt>
      <trkpt lat="44.72242" lon="3.29974">
        <ele>1097.3</ele>
        <time>2015-09-18T10:57:34Z</time>
      </trkpt>
      <trkpt lat="44.72234" lon="3.29967">
        <ele>1096.9</ele>
        <time>2015-09-18T10:57:35Z</time>
      </trkpt>
      <trkpt lat="44.72226" lon="3.29962">
        <ele>1096.4</ele>
        <time>2015-09-18T10:57:36Z</time>
      </trkpt>
      <trkpt lat="44.72218" lon="3.29957">
        <ele>1095.9</ele>
        <time>2015-09-18T10:57:37Z</time>
      </trkpt>
      <trkpt lat="44.72209" lon="3.29952">
        <ele>1095.5</ele>
        <time>2015-09-18T10:57:38Z</time>
      </trkpt>
      <trkpt lat="44.72193" lon="3.29944">
        <ele>1094.6</ele>
        <time>2015-09-18T10:57:40Z</time>
      </trkpt>
      <trkpt lat="44.72184" lon="3.29939">
        <ele>1094.1</ele>
        <time>2015-09-18T10:57:41Z</time>
      </trkpt>
      <trkpt lat="44.72168" lon="3.2993">
        <ele>1093.3</ele>
        <time>2015-09-18T10:57:43Z</time>
      </trkpt>
      <trkpt lat="44.7216" lon="3.29924">
        <ele>1092.8</ele>
        <time>2015-09-18T10:57:44Z</time>
      </trkpt>
      <trkpt lat="44.72146" lon="3.2991">
        <ele>1092</ele>
        <time>2015-09-18T10:57:46Z</time>
      </trkpt>
      <trkpt lat="44.72133" lon="3.29895">
        <ele>1091.2</ele>
        <time>2015-09-18T10:57:48Z</time>
      </trkpt>
      <trkpt lat="44.72121" lon="3.2988">
        <ele>1090.5</ele>
        <time>2015-09-18T10:57:50Z</time>
      </trkpt>
      <trkpt lat="44.72108" lon="3.29869">
        <ele>1089.9</ele>
        <time>2015-09-18T10:57:52Z</time>
      </trkpt>
      <trkpt lat="44.72096" lon="3.29859">
        <ele>1089.3</ele>
        <time>2015-09-18T10:57:54Z</time>
      </trkpt>
      <trkpt lat="44.7209" lon="3.29846">
        <ele>1088.8</ele>
        <time>2015-09-18T10:57:56Z</time>
      </trkpt>
      <trkpt lat="44.72091" lon="3.2983">
        <ele>1088.2</ele>
        <time>2015-09-18T10:57:59Z</time>
      </trkpt>
      <trkpt lat="44.72082" lon="3.29826">
        <ele>1087.4</ele>
        <time>2015-09-18T11:04:24Z</time>
      </trkpt>
      <trkpt lat="44.72078" lon="3.29813">
        <ele>1087.4</ele>
        <time>2015-09-18T11:04:29Z</time>
      </trkpt>
      <trkpt lat="44.72075" lon="3.29798">
        <ele>1087.4</ele>
        <time>2015-09-18T11:04:34Z</time>
      </trkpt>
      <trkpt lat="44.72072" lon="3.29786">
        <ele>1087.5</ele>
        <time>2015-09-18T11:04:38Z</time>
      </trkpt>
      <trkpt lat="44.72067" lon="3.29772">
        <ele>1087.5</ele>
        <time>2015-09-18T11:04:42Z</time>
      </trkpt>
      <trkpt lat="44.72063" lon="3.29757">
        <ele>1087.5</ele>
        <time>2015-09-18T11:04:46Z</time>
      </trkpt>
      <trkpt lat="44.72058" lon="3.29742">
        <ele>1087.5</ele>
        <time>2015-09-18T11:04:50Z</time>
      </trkpt>
      <trkpt lat="44.72054" lon="3.2973">
        <ele>1087.6</ele>
        <time>2015-09-18T11:04:53Z</time>
      </trkpt>
      <trkpt lat="44.72049" lon="3.29718">
        <ele>1087.6</ele>
        <time>2015-09-18T11:04:56Z</time>
      </trkpt>
      <trkpt lat="44.72043" lon="3.29705">
        <ele>1087.7</ele>
        <time>2015-09-18T11:04:59Z</time>
      </trkpt>
      <trkpt lat="44.72036" lon="3.29692">
        <ele>1087.7</ele>
        <time>2015-09-18T11:05:02Z</time>
      </trkpt>
      <trkpt lat="44.72028" lon="3.2968">
        <ele>1087.7</ele>
        <time>2015-09-18T11:05:05Z</time>
      </trkpt>
      <trkpt lat="44.72019" lon="3.29669">
        <ele>1087.8</ele>
        <time>2015-09-18T11:05:08Z</time>
      </trkpt>
      <trkpt lat="44.72011" lon="3.29659">
        <ele>1087.8</ele>
        <time>2015-09-18T11:05:11Z</time>
      </trkpt>
      <trkpt lat="44.72002" lon="3.29649">
        <ele>1087.9</ele>
        <time>2015-09-18T11:05:14Z</time>
      </trkpt>
      <trkpt lat="44.71992" lon="3.29639">
        <ele>1087.9</ele>
        <time>2015-09-18T11:05:17Z</time>
      </trkpt>
      <trkpt lat="44.71983" lon="3.29628">
        <ele>1088</ele>
        <time>2015-09-18T11:05:20Z</time>
      </trkpt>
      <trkpt lat="44.71975" lon="3.2962">
        <ele>1088</ele>
        <time>2015-09-18T11:05:22Z</time>
      </trkpt>
      <trkpt lat="44.71968" lon="3.29611">
        <ele>1088</ele>
        <time>2015-09-18T11:05:24Z</time>
      </trkpt>
      <trkpt lat="44.71959" lon="3.29602">
        <ele>1088</ele>
        <time>2015-09-18T11:05:26Z</time>
      </trkpt>
      <trkpt lat="44.71951" lon="3.29592">
        <ele>1087.9</ele>
        <time>2015-09-18T11:05:28Z</time>
      </trkpt>
      <trkpt lat="44.71944" lon="3.29582">
        <ele>1087.9</ele>
        <time>2015-09-18T11:05:30Z</time>
      </trkpt>
      <trkpt lat="44.71936" lon="3.29573">
        <ele>1087.8</ele>
        <time>2015-09-18T11:05:32Z</time>
      </trkpt>
      <trkpt lat="44.71926" lon="3.29562">
        <ele>1087.8</ele>
        <time>2015-09-18T11:05:35Z</time>
      </trkpt>
      <trkpt lat="44.71916" lon="3.29555">
        <ele>1087.7</ele>
        <time>2015-09-18T11:05:38Z</time>
      </trkpt>
      <trkpt lat="44.71908" lon="3.2955">
        <ele>1087.7</ele>
        <time>2015-09-18T11:05:41Z</time>
      </trkpt>
      <trkpt lat="44.71899" lon="3.29543">
        <ele>1087.8</ele>
        <time>2015-09-18T11:05:45Z</time>
      </trkpt>
      <trkpt lat="44.71895" lon="3.29528">
        <ele>1087.9</ele>
        <time>2015-09-18T11:05:50Z</time>
      </trkpt>
      <trkpt lat="44.719" lon="3.29515">
        <ele>1088</ele>
        <time>2015-09-18T11:05:54Z</time>
      </trkpt>
      <trkpt lat="44.71906" lon="3.29503">
        <ele>1088</ele>
        <time>2015-09-18T11:05:57Z</time>
      </trkpt>
      <trkpt lat="44.71912" lon="3.29488">
        <ele>1088.1</ele>
        <time>2015-09-18T11:06:00Z</time>
      </trkpt>
      <trkpt lat="44.71921" lon="3.29474">
        <ele>1088</ele>
        <time>2015-09-18T11:06:03Z</time>
      </trkpt>
      <trkpt lat="44.71928" lon="3.29466">
        <ele>1087.9</ele>
        <time>2015-09-18T11:06:05Z</time>
      </trkpt>
      <trkpt lat="44.71935" lon="3.29458">
        <ele>1087.8</ele>
        <time>2015-09-18T11:06:07Z</time>
      </trkpt>
      <trkpt lat="44.71944" lon="3.29451">
        <ele>1087.7</ele>
        <time>2015-09-18T11:06:09Z</time>
      </trkpt>
      <trkpt lat="44.71952" lon="3.29443">
        <ele>1087.5</ele>
        <time>2015-09-18T11:06:11Z</time>
      </trkpt>
      <trkpt lat="44.7196" lon="3.29436">
        <ele>1087.4</ele>
        <time>2015-09-18T11:06:13Z</time>
      </trkpt>
      <trkpt lat="44.71969" lon="3.29429">
        <ele>1087.2</ele>
        <time>2015-09-18T11:06:15Z</time>
      </trkpt>
      <trkpt lat="44.71978" lon="3.29422">
        <ele>1087.1</ele>
        <time>2015-09-18T11:06:17Z</time>
      </trkpt>
      <trkpt lat="44.71986" lon="3.29413">
        <ele>1086.9</ele>
        <time>2015-09-18T11:06:19Z</time>
      </trkpt>
      <trkpt lat="44.71994" lon="3.29403">
        <ele>1086.7</ele>
        <time>2015-09-18T11:06:21Z</time>
      </trkpt>
      <trkpt lat="44.72002" lon="3.29392">
        <ele>1086.5</ele>
        <time>2015-09-18T11:06:23Z</time>
      </trkpt>
      <trkpt lat="44.72009" lon="3.2938">
        <ele>1086.2</ele>
        <time>2015-09-18T11:06:25Z</time>
      </trkpt>
      <trkpt lat="44.72017" lon="3.29367">
        <ele>1085.9</ele>
        <time>2015-09-18T11:06:27Z</time>
      </trkpt>
      <trkpt lat="44.72024" lon="3.29353">
        <ele>1085.5</ele>
        <time>2015-09-18T11:06:29Z</time>
      </trkpt>
      <trkpt lat="44.72031" lon="3.2934">
        <ele>1085.1</ele>
        <time>2015-09-18T11:06:31Z</time>
      </trkpt>
      <trkpt lat="44.72038" lon="3.29327">
        <ele>1084.8</ele>
        <time>2015-09-18T11:06:33Z</time>
      </trkpt>
      <trkpt lat="44.72045" lon="3.29315">
        <ele>1084.5</ele>
        <time>2015-09-18T11:06:35Z</time>
      </trkpt>
      <trkpt lat="44.72052" lon="3.29302">
        <ele>1084.2</ele>
        <time>2015-09-18T11:06:37Z</time>
      </trkpt>
      <trkpt lat="44.72059" lon="3.29291">
        <ele>1083.9</ele>
        <time>2015-09-18T11:06:39Z</time>
      </trkpt>
      <trkpt lat="44.72065" lon="3.29279">
        <ele>1083.6</ele>
        <time>2015-09-18T11:06:41Z</time>
      </trkpt>
      <trkpt lat="44.7207" lon="3.29268">
        <ele>1083.4</ele>
        <time>2015-09-18T11:06:43Z</time>
      </trkpt>
      <trkpt lat="44.72077" lon="3.29253">
        <ele>1083.1</ele>
        <time>2015-09-18T11:06:46Z</time>
      </trkpt>
      <trkpt lat="44.72083" lon="3.29238">
        <ele>1082.8</ele>
        <time>2015-09-18T11:06:49Z</time>
      </trkpt>
      <trkpt lat="44.72088" lon="3.29223">
        <ele>1082.4</ele>
        <time>2015-09-18T11:06:52Z</time>
      </trkpt>
      <trkpt lat="44.72093" lon="3.29206">
        <ele>1082.1</ele>
        <time>2015-09-18T11:06:55Z</time>
      </trkpt>
      <trkpt lat="44.72098" lon="3.29189">
        <ele>1081.6</ele>
        <time>2015-09-18T11:06:58Z</time>
      </trkpt>
      <trkpt lat="44.72102" lon="3.29176">
        <ele>1081.3</ele>
        <time>2015-09-18T11:07:00Z</time>
      </trkpt>
      <trkpt lat="44.72105" lon="3.29163">
        <ele>1081</ele>
        <time>2015-09-18T11:07:02Z</time>
      </trkpt>
      <trkpt lat="44.72109" lon="3.29148">
        <ele>1080.6</ele>
        <time>2015-09-18T11:07:04Z</time>
      </trkpt>
      <trkpt lat="44.72113" lon="3.29131">
        <ele>1080.2</ele>
        <time>2015-09-18T11:07:06Z</time>
      </trkpt>
      <trkpt lat="44.72118" lon="3.29113">
        <ele>1079.6</ele>
        <time>2015-09-18T11:07:08Z</time>
      </trkpt>
      <trkpt lat="44.72124" lon="3.29093">
        <ele>1079</ele>
        <time>2015-09-18T11:07:10Z</time>
      </trkpt>
      <trkpt lat="44.72129" lon="3.29071">
        <ele>1078.2</ele>
        <time>2015-09-18T11:07:12Z</time>
      </trkpt>
      <trkpt lat="44.72135" lon="3.29049">
        <ele>1077.4</ele>
        <time>2015-09-18T11:07:14Z</time>
      </trkpt>
      <trkpt lat="44.7214" lon="3.29027">
        <ele>1076.5</ele>
        <time>2015-09-18T11:07:16Z</time>
      </trkpt>
      <trkpt lat="44.72145" lon="3.29005">
        <ele>1075.7</ele>
        <time>2015-09-18T11:07:18Z</time>
      </trkpt>
      <trkpt lat="44.7215" lon="3.28983">
        <ele>1074.8</ele>
        <time>2015-09-18T11:07:20Z</time>
      </trkpt>
      <trkpt lat="44.72155" lon="3.28962">
        <ele>1074</ele>
        <time>2015-09-18T11:07:22Z</time>
      </trkpt>
      <trkpt lat="44.7216" lon="3.28941">
        <ele>1073.1</ele>
        <time>2015-09-18T11:07:24Z</time>
      </trkpt>
      <trkpt lat="44.72166" lon="3.28919">
        <ele>1072.3</ele>
        <time>2015-09-18T11:07:26Z</time>
      </trkpt>
      <trkpt lat="44.72173" lon="3.28898">
        <ele>1071.4</ele>
        <time>2015-09-18T11:07:28Z</time>
      </trkpt>
      <trkpt lat="44.7218" lon="3.28878">
        <ele>1070.6</ele>
        <time>2015-09-18T11:07:30Z</time>
      </trkpt>
      <trkpt lat="44.72188" lon="3.28858">
        <ele>1069.7</ele>
        <time>2015-09-18T11:07:32Z</time>
      </trkpt>
      <trkpt lat="44.72196" lon="3.28838">
        <ele>1068.9</ele>
        <time>2015-09-18T11:07:34Z</time>
      </trkpt>
      <trkpt lat="44.72202" lon="3.28819">
        <ele>1068.2</ele>
        <time>2015-09-18T11:07:36Z</time>
      </trkpt>
      <trkpt lat="44.72208" lon="3.288">
        <ele>1067.5</ele>
        <time>2015-09-18T11:07:38Z</time>
      </trkpt>
      <trkpt lat="44.72214" lon="3.28781">
        <ele>1066.8</ele>
        <time>2015-09-18T11:07:40Z</time>
      </trkpt>
      <trkpt lat="44.72221" lon="3.28763">
        <ele>1066.1</ele>
        <time>2015-09-18T11:07:42Z</time>
      </trkpt>
      <trkpt lat="44.72226" lon="3.28744">
        <ele>1065.5</ele>
        <time>2015-09-18T11:07:44Z</time>
      </trkpt>
      <trkpt lat="44.72228" lon="3.28724">
        <ele>1064.7</ele>
        <time>2015-09-18T11:07:46Z</time>
      </trkpt>
      <trkpt lat="44.72226" lon="3.28704">
        <ele>1064</ele>
        <time>2015-09-18T11:07:48Z</time>
      </trkpt>
      <trkpt lat="44.72222" lon="3.28683">
        <ele>1063.3</ele>
        <time>2015-09-18T11:07:50Z</time>
      </trkpt>
      <trkpt lat="44.72218" lon="3.28662">
        <ele>1062.5</ele>
        <time>2015-09-18T11:07:52Z</time>
      </trkpt>
      <trkpt lat="44.72217" lon="3.2864">
        <ele>1061.8</ele>
        <time>2015-09-18T11:07:54Z</time>
      </trkpt>
      <trkpt lat="44.72218" lon="3.28619">
        <ele>1061.1</ele>
        <time>2015-09-18T11:07:56Z</time>
      </trkpt>
      <trkpt lat="44.72223" lon="3.28598">
        <ele>1060.3</ele>
        <time>2015-09-18T11:07:58Z</time>
      </trkpt>
      <trkpt lat="44.72231" lon="3.28578">
        <ele>1059.5</ele>
        <time>2015-09-18T11:08:00Z</time>
      </trkpt>
      <trkpt lat="44.7224" lon="3.28559">
        <ele>1058.7</ele>
        <time>2015-09-18T11:08:02Z</time>
      </trkpt>
      <trkpt lat="44.72249" lon="3.28542">
        <ele>1057.8</ele>
        <time>2015-09-18T11:08:04Z</time>
      </trkpt>
      <trkpt lat="44.72255" lon="3.28532">
        <ele>1057.1</ele>
        <time>2015-09-18T11:08:06Z</time>
      </trkpt>
      <trkpt lat="44.72261" lon="3.28517">
        <ele>1056.1</ele>
        <time>2015-09-18T11:08:09Z</time>
      </trkpt>
      <trkpt lat="44.72262" lon="3.28501">
        <ele>1055.3</ele>
        <time>2015-09-18T11:08:12Z</time>
      </trkpt>
      <trkpt lat="44.72263" lon="3.28485">
        <ele>1054.6</ele>
        <time>2015-09-18T11:08:15Z</time>
      </trkpt>
      <trkpt lat="44.72265" lon="3.28469">
        <ele>1054</ele>
        <time>2015-09-18T11:08:18Z</time>
      </trkpt>
      <trkpt lat="44.72263" lon="3.28452">
        <ele>1053.6</ele>
        <time>2015-09-18T11:08:21Z</time>
      </trkpt>
      <trkpt lat="44.7226" lon="3.28434">
        <ele>1053.2</ele>
        <time>2015-09-18T11:08:24Z</time>
      </trkpt>
      <trkpt lat="44.72255" lon="3.28418">
        <ele>1052.8</ele>
        <time>2015-09-18T11:08:27Z</time>
      </trkpt>
      <trkpt lat="44.7225" lon="3.28403">
        <ele>1052.6</ele>
        <time>2015-09-18T11:08:30Z</time>
      </trkpt>
      <trkpt lat="44.72244" lon="3.28389">
        <ele>1052.4</ele>
        <time>2015-09-18T11:08:33Z</time>
      </trkpt>
      <trkpt lat="44.72238" lon="3.28377">
        <ele>1052.2</ele>
        <time>2015-09-18T11:08:36Z</time>
      </trkpt>
      <trkpt lat="44.72232" lon="3.28365">
        <ele>1052</ele>
        <time>2015-09-18T11:08:39Z</time>
      </trkpt>
      <trkpt lat="44.72224" lon="3.28355">
        <ele>1051.9</ele>
        <time>2015-09-18T11:08:42Z</time>
      </trkpt>
      <trkpt lat="44.72216" lon="3.28347">
        <ele>1051.8</ele>
        <time>2015-09-18T11:08:45Z</time>
      </trkpt>
      <trkpt lat="44.72206" lon="3.2834">
        <ele>1051.7</ele>
        <time>2015-09-18T11:08:50Z</time>
      </trkpt>
      <trkpt lat="44.72196" lon="3.28337">
        <ele>1051.7</ele>
        <time>2015-09-18T11:08:54Z</time>
      </trkpt>
      <trkpt lat="44.72195" lon="3.2835">
        <ele>1051.7</ele>
        <time>2015-09-18T11:08:58Z</time>
      </trkpt>
      <trkpt lat="44.72192" lon="3.28363">
        <ele>1053.7</ele>
        <time>2015-09-18T11:10:10Z</time>
      </trkpt>
      <trkpt lat="44.72187" lon="3.28385">
        <ele>1053.5</ele>
        <time>2015-09-18T12:10:36Z</time>
      </trkpt>
      <trkpt lat="44.72193" lon="3.28375">
        <ele>1053.7</ele>
        <time>2015-09-18T12:10:44Z</time>
      </trkpt>
      <trkpt lat="44.72199" lon="3.28363">
        <ele>1053.5</ele>
        <time>2015-09-18T12:10:49Z</time>
      </trkpt>
      <trkpt lat="44.722" lon="3.2835">
        <ele>1053.1</ele>
        <time>2015-09-18T12:10:54Z</time>
      </trkpt>
      <trkpt lat="44.722" lon="3.28336">
        <ele>1052.4</ele>
        <time>2015-09-18T12:11:01Z</time>
      </trkpt>
      <trkpt lat="44.72191" lon="3.28327">
        <ele>1051.9</ele>
        <time>2015-09-18T12:11:07Z</time>
      </trkpt>
      <trkpt lat="44.72182" lon="3.28319">
        <ele>1051.6</ele>
        <time>2015-09-18T12:11:13Z</time>
      </trkpt>
      <trkpt lat="44.72175" lon="3.28312">
        <ele>1051.3</ele>
        <time>2015-09-18T12:11:19Z</time>
      </trkpt>
      <trkpt lat="44.72166" lon="3.28305">
        <ele>1051.1</ele>
        <time>2015-09-18T12:11:25Z</time>
      </trkpt>
      <trkpt lat="44.72161" lon="3.28295">
        <ele>1049.5</ele>
        <time>2015-09-18T12:12:28Z</time>
      </trkpt>
      <trkpt lat="44.72152" lon="3.2829">
        <ele>1049.3</ele>
        <time>2015-09-18T12:13:08Z</time>
      </trkpt>
      <trkpt lat="44.72144" lon="3.28281">
        <ele>1049.2</ele>
        <time>2015-09-18T12:13:11Z</time>
      </trkpt>
      <trkpt lat="44.72134" lon="3.28268">
        <ele>1049</ele>
        <time>2015-09-18T12:13:14Z</time>
      </trkpt>
      <trkpt lat="44.72126" lon="3.2826">
        <ele>1048.9</ele>
        <time>2015-09-18T12:13:16Z</time>
      </trkpt>
      <trkpt lat="44.72117" lon="3.2825">
        <ele>1048.6</ele>
        <time>2015-09-18T12:13:18Z</time>
      </trkpt>
      <trkpt lat="44.72108" lon="3.2824">
        <ele>1048.3</ele>
        <time>2015-09-18T12:13:20Z</time>
      </trkpt>
      <trkpt lat="44.72099" lon="3.28228">
        <ele>1047.9</ele>
        <time>2015-09-18T12:13:22Z</time>
      </trkpt>
      <trkpt lat="44.72088" lon="3.28216">
        <ele>1047.4</ele>
        <time>2015-09-18T12:13:24Z</time>
      </trkpt>
      <trkpt lat="44.72076" lon="3.28203">
        <ele>1046.9</ele>
        <time>2015-09-18T12:13:26Z</time>
      </trkpt>
      <trkpt lat="44.7206" lon="3.28202">
        <ele>1046.3</ele>
        <time>2015-09-18T12:13:28Z</time>
      </trkpt>
      <trkpt lat="44.72045" lon="3.28209">
        <ele>1045.6</ele>
        <time>2015-09-18T12:13:30Z</time>
      </trkpt>
      <trkpt lat="44.72028" lon="3.28213">
        <ele>1044.8</ele>
        <time>2015-09-18T12:13:32Z</time>
      </trkpt>
      <trkpt lat="44.72014" lon="3.28203">
        <ele>1043.9</ele>
        <time>2015-09-18T12:13:34Z</time>
      </trkpt>
      <trkpt lat="44.72007" lon="3.28182">
        <ele>1043.1</ele>
        <time>2015-09-18T12:13:36Z</time>
      </trkpt>
      <trkpt lat="44.72003" lon="3.28163">
        <ele>1042.3</ele>
        <time>2015-09-18T12:13:38Z</time>
      </trkpt>
      <trkpt lat="44.71998" lon="3.28149">
        <ele>1041.2</ele>
        <time>2015-09-18T12:13:41Z</time>
      </trkpt>
      <trkpt lat="44.71993" lon="3.2816">
        <ele>1039.9</ele>
        <time>2015-09-18T12:13:46Z</time>
      </trkpt>
      <trkpt lat="44.71985" lon="3.2817">
        <ele>1038.9</ele>
        <time>2015-09-18T12:13:51Z</time>
      </trkpt>
      <trkpt lat="44.71976" lon="3.28174">
        <ele>1038.5</ele>
        <time>2015-09-18T12:13:53Z</time>
      </trkpt>
      <trkpt lat="44.71965" lon="3.28179">
        <ele>1038.1</ele>
        <time>2015-09-18T12:13:55Z</time>
      </trkpt>
      <trkpt lat="44.71954" lon="3.28183">
        <ele>1037.7</ele>
        <time>2015-09-18T12:13:57Z</time>
      </trkpt>
      <trkpt lat="44.71944" lon="3.28188">
        <ele>1037.2</ele>
        <time>2015-09-18T12:13:59Z</time>
      </trkpt>
      <trkpt lat="44.71933" lon="3.28192">
        <ele>1036.8</ele>
        <time>2015-09-18T12:14:01Z</time>
      </trkpt>
      <trkpt lat="44.71922" lon="3.28197">
        <ele>1036.5</ele>
        <time>2015-09-18T12:14:03Z</time>
      </trkpt>
      <trkpt lat="44.71913" lon="3.28201">
        <ele>1036.2</ele>
        <time>2015-09-18T12:14:05Z</time>
      </trkpt>
      <trkpt lat="44.71903" lon="3.28207">
        <ele>1035.9</ele>
        <time>2015-09-18T12:14:07Z</time>
      </trkpt>
      <trkpt lat="44.71893" lon="3.28213">
        <ele>1035.7</ele>
        <time>2015-09-18T12:14:09Z</time>
      </trkpt>
      <trkpt lat="44.71883" lon="3.28219">
        <ele>1035.5</ele>
        <time>2015-09-18T12:14:11Z</time>
      </trkpt>
      <trkpt lat="44.71873" lon="3.28227">
        <ele>1035.3</ele>
        <time>2015-09-18T12:14:13Z</time>
      </trkpt>
      <trkpt lat="44.71863" lon="3.28235">
        <ele>1035.2</ele>
        <time>2015-09-18T12:14:15Z</time>
      </trkpt>
      <trkpt lat="44.71855" lon="3.28243">
        <ele>1035</ele>
        <time>2015-09-18T12:14:17Z</time>
      </trkpt>
      <trkpt lat="44.71846" lon="3.28252">
        <ele>1034.9</ele>
        <time>2015-09-18T12:14:19Z</time>
      </trkpt>
      <trkpt lat="44.71838" lon="3.28262">
        <ele>1034.8</ele>
        <time>2015-09-18T12:14:21Z</time>
      </trkpt>
      <trkpt lat="44.71831" lon="3.2827">
        <ele>1034.7</ele>
        <time>2015-09-18T12:14:23Z</time>
      </trkpt>
      <trkpt lat="44.71822" lon="3.28282">
        <ele>1034.5</ele>
        <time>2015-09-18T12:14:26Z</time>
      </trkpt>
      <trkpt lat="44.71813" lon="3.28293">
        <ele>1034.5</ele>
        <time>2015-09-18T12:14:29Z</time>
      </trkpt>
      <trkpt lat="44.71805" lon="3.28304">
        <ele>1034.5</ele>
        <time>2015-09-18T12:14:32Z</time>
      </trkpt>
      <trkpt lat="44.71798" lon="3.28315">
        <ele>1034.7</ele>
        <time>2015-09-18T12:14:35Z</time>
      </trkpt>
      <trkpt lat="44.71791" lon="3.28326">
        <ele>1034.9</ele>
        <time>2015-09-18T12:14:38Z</time>
      </trkpt>
      <trkpt lat="44.71784" lon="3.28335">
        <ele>1035.2</ele>
        <time>2015-09-18T12:14:41Z</time>
      </trkpt>
      <trkpt lat="44.71778" lon="3.28345">
        <ele>1035.5</ele>
        <time>2015-09-18T12:14:44Z</time>
      </trkpt>
      <trkpt lat="44.7177" lon="3.28355">
        <ele>1036</ele>
        <time>2015-09-18T12:14:48Z</time>
      </trkpt>
      <trkpt lat="44.71762" lon="3.28365">
        <ele>1036.5</ele>
        <time>2015-09-18T12:14:52Z</time>
      </trkpt>
      <trkpt lat="44.71752" lon="3.28371">
        <ele>1037.1</ele>
        <time>2015-09-18T12:14:56Z</time>
      </trkpt>
      <trkpt lat="44.71741" lon="3.28372">
        <ele>1037.7</ele>
        <time>2015-09-18T12:15:00Z</time>
      </trkpt>
      <trkpt lat="44.7173" lon="3.2837">
        <ele>1038.2</ele>
        <time>2015-09-18T12:15:04Z</time>
      </trkpt>
      <trkpt lat="44.71719" lon="3.28367">
        <ele>1038.6</ele>
        <time>2015-09-18T12:15:08Z</time>
      </trkpt>
      <trkpt lat="44.71709" lon="3.28364">
        <ele>1038.9</ele>
        <time>2015-09-18T12:15:12Z</time>
      </trkpt>
      <trkpt lat="44.71701" lon="3.28357">
        <ele>1039.2</ele>
        <time>2015-09-18T12:15:16Z</time>
      </trkpt>
      <trkpt lat="44.71696" lon="3.28345">
        <ele>1039.5</ele>
        <time>2015-09-18T12:15:20Z</time>
      </trkpt>
      <trkpt lat="44.71691" lon="3.28333">
        <ele>1039.9</ele>
        <time>2015-09-18T12:15:26Z</time>
      </trkpt>
      <trkpt lat="44.71687" lon="3.2832">
        <ele>1040.3</ele>
        <time>2015-09-18T12:15:32Z</time>
      </trkpt>
      <trkpt lat="44.71682" lon="3.28308">
        <ele>1040.6</ele>
        <time>2015-09-18T12:15:37Z</time>
      </trkpt>
      <trkpt lat="44.71678" lon="3.28295">
        <ele>1041.2</ele>
        <time>2015-09-18T12:15:43Z</time>
      </trkpt>
      <trkpt lat="44.71673" lon="3.28283">
        <ele>1041.8</ele>
        <time>2015-09-18T12:15:50Z</time>
      </trkpt>
      <trkpt lat="44.71667" lon="3.28272">
        <ele>1042.3</ele>
        <time>2015-09-18T12:15:56Z</time>
      </trkpt>
      <trkpt lat="44.71663" lon="3.2826">
        <ele>1043.3</ele>
        <time>2015-09-18T12:16:03Z</time>
      </trkpt>
      <trkpt lat="44.71658" lon="3.28248">
        <ele>1044.4</ele>
        <time>2015-09-18T12:16:10Z</time>
      </trkpt>
      <trkpt lat="44.71654" lon="3.28236">
        <ele>1045.3</ele>
        <time>2015-09-18T12:16:17Z</time>
      </trkpt>
      <trkpt lat="44.71647" lon="3.28225">
        <ele>1046</ele>
        <time>2015-09-18T12:16:25Z</time>
      </trkpt>
      <trkpt lat="44.71639" lon="3.28216">
        <ele>1047</ele>
        <time>2015-09-18T12:16:32Z</time>
      </trkpt>
      <trkpt lat="44.71631" lon="3.28209">
        <ele>1047.7</ele>
        <time>2015-09-18T12:16:38Z</time>
      </trkpt>
      <trkpt lat="44.71623" lon="3.28202">
        <ele>1048.5</ele>
        <time>2015-09-18T12:16:45Z</time>
      </trkpt>
      <trkpt lat="44.71615" lon="3.28194">
        <ele>1049.2</ele>
        <time>2015-09-18T12:16:52Z</time>
      </trkpt>
      <trkpt lat="44.71607" lon="3.28186">
        <ele>1049.9</ele>
        <time>2015-09-18T12:16:59Z</time>
      </trkpt>
      <trkpt lat="44.71599" lon="3.28179">
        <ele>1050.6</ele>
        <time>2015-09-18T12:17:06Z</time>
      </trkpt>
      <trkpt lat="44.71591" lon="3.28171">
        <ele>1051.5</ele>
        <time>2015-09-18T12:17:14Z</time>
      </trkpt>
      <trkpt lat="44.71584" lon="3.28163">
        <ele>1052.8</ele>
        <time>2015-09-18T12:17:22Z</time>
      </trkpt>
      <trkpt lat="44.71576" lon="3.28154">
        <ele>1054.3</ele>
        <time>2015-09-18T12:17:31Z</time>
      </trkpt>
      <trkpt lat="44.71568" lon="3.28148">
        <ele>1055.7</ele>
        <time>2015-09-18T12:17:40Z</time>
      </trkpt>
      <trkpt lat="44.7156" lon="3.28141">
        <ele>1058.1</ele>
        <time>2015-09-18T12:17:54Z</time>
      </trkpt>
      <trkpt lat="44.71552" lon="3.28135">
        <ele>1060.2</ele>
        <time>2015-09-18T12:18:08Z</time>
      </trkpt>
      <trkpt lat="44.71544" lon="3.28127">
        <ele>1062.2</ele>
        <time>2015-09-18T12:18:21Z</time>
      </trkpt>
      <trkpt lat="44.71536" lon="3.28119">
        <ele>1064.2</ele>
        <time>2015-09-18T12:18:34Z</time>
      </trkpt>
      <trkpt lat="44.71529" lon="3.2811">
        <ele>1065.7</ele>
        <time>2015-09-18T12:18:45Z</time>
      </trkpt>
      <trkpt lat="44.71523" lon="3.281">
        <ele>1067.5</ele>
        <time>2015-09-18T12:18:57Z</time>
      </trkpt>
      <trkpt lat="44.71515" lon="3.28092">
        <ele>1069</ele>
        <time>2015-09-18T12:19:08Z</time>
      </trkpt>
      <trkpt lat="44.71508" lon="3.28085">
        <ele>1069.8</ele>
        <time>2015-09-18T12:19:17Z</time>
      </trkpt>
      <trkpt lat="44.71499" lon="3.28077">
        <ele>1070.2</ele>
        <time>2015-09-18T12:19:24Z</time>
      </trkpt>
      <trkpt lat="44.7149" lon="3.2807">
        <ele>1070.8</ele>
        <time>2015-09-18T12:19:31Z</time>
      </trkpt>
      <trkpt lat="44.71482" lon="3.28063">
        <ele>1071.1</ele>
        <time>2015-09-18T12:19:37Z</time>
      </trkpt>
      <trkpt lat="44.71473" lon="3.28055">
        <ele>1071.3</ele>
        <time>2015-09-18T12:19:42Z</time>
      </trkpt>
      <trkpt lat="44.71465" lon="3.28046">
        <ele>1071.4</ele>
        <time>2015-09-18T12:19:45Z</time>
      </trkpt>
      <trkpt lat="44.71456" lon="3.28034">
        <ele>1071.5</ele>
        <time>2015-09-18T12:19:48Z</time>
      </trkpt>
      <trkpt lat="44.7145" lon="3.28025">
        <ele>1071.3</ele>
        <time>2015-09-18T12:19:50Z</time>
      </trkpt>
      <trkpt lat="44.71443" lon="3.28013">
        <ele>1071.2</ele>
        <time>2015-09-18T12:19:52Z</time>
      </trkpt>
      <trkpt lat="44.71438" lon="3.28001">
        <ele>1070.9</ele>
        <time>2015-09-18T12:19:54Z</time>
      </trkpt>
      <trkpt lat="44.71433" lon="3.2799">
        <ele>1070.6</ele>
        <time>2015-09-18T12:19:56Z</time>
      </trkpt>
      <trkpt lat="44.71426" lon="3.27977">
        <ele>1070.3</ele>
        <time>2015-09-18T12:19:59Z</time>
      </trkpt>
      <trkpt lat="44.71421" lon="3.27963">
        <ele>1069.8</ele>
        <time>2015-09-18T12:20:02Z</time>
      </trkpt>
      <trkpt lat="44.71422" lon="3.27949">
        <ele>1067.3</ele>
        <time>2015-09-18T12:20:52Z</time>
      </trkpt>
      <trkpt lat="44.71421" lon="3.27935">
        <ele>1067.3</ele>
        <time>2015-09-18T12:20:55Z</time>
      </trkpt>
      <trkpt lat="44.71421" lon="3.27918">
        <ele>1067.3</ele>
        <time>2015-09-18T12:20:58Z</time>
      </trkpt>
      <trkpt lat="44.71421" lon="3.27899">
        <ele>1067.2</ele>
        <time>2015-09-18T12:21:01Z</time>
      </trkpt>
      <trkpt lat="44.71422" lon="3.27886">
        <ele>1067.2</ele>
        <time>2015-09-18T12:21:03Z</time>
      </trkpt>
      <trkpt lat="44.71422" lon="3.27872">
        <ele>1067.2</ele>
        <time>2015-09-18T12:21:05Z</time>
      </trkpt>
      <trkpt lat="44.71422" lon="3.27858">
        <ele>1067.1</ele>
        <time>2015-09-18T12:21:07Z</time>
      </trkpt>
      <trkpt lat="44.71423" lon="3.27845">
        <ele>1067.1</ele>
        <time>2015-09-18T12:21:09Z</time>
      </trkpt>
      <trkpt lat="44.71422" lon="3.27829">
        <ele>1067.1</ele>
        <time>2015-09-18T12:21:11Z</time>
      </trkpt>
      <trkpt lat="44.71422" lon="3.27816">
        <ele>1067</ele>
        <time>2015-09-18T12:21:13Z</time>
      </trkpt>
      <trkpt lat="44.71421" lon="3.27803">
        <ele>1067</ele>
        <time>2015-09-18T12:21:15Z</time>
      </trkpt>
      <trkpt lat="44.71421" lon="3.2779">
        <ele>1066.9</ele>
        <time>2015-09-18T12:21:17Z</time>
      </trkpt>
      <trkpt lat="44.7142" lon="3.27777">
        <ele>1066.9</ele>
        <time>2015-09-18T12:21:19Z</time>
      </trkpt>
      <trkpt lat="44.71418" lon="3.27764">
        <ele>1066.8</ele>
        <time>2015-09-18T12:21:21Z</time>
      </trkpt>
      <trkpt lat="44.71415" lon="3.27746">
        <ele>1066.8</ele>
        <time>2015-09-18T12:21:24Z</time>
      </trkpt>
      <trkpt lat="44.71413" lon="3.27729">
        <ele>1066.7</ele>
        <time>2015-09-18T12:21:27Z</time>
      </trkpt>
      <trkpt lat="44.71411" lon="3.27712">
        <ele>1066.7</ele>
        <time>2015-09-18T12:21:30Z</time>
      </trkpt>
      <trkpt lat="44.71409" lon="3.27695">
        <ele>1066.7</ele>
        <time>2015-09-18T12:21:33Z</time>
      </trkpt>
      <trkpt lat="44.71408" lon="3.27677">
        <ele>1066.6</ele>
        <time>2015-09-18T12:21:36Z</time>
      </trkpt>
      <trkpt lat="44.71406" lon="3.2766">
        <ele>1066.6</ele>
        <time>2015-09-18T12:21:39Z</time>
      </trkpt>
      <trkpt lat="44.71403" lon="3.27641">
        <ele>1066.6</ele>
        <time>2015-09-18T12:21:42Z</time>
      </trkpt>
      <trkpt lat="44.71401" lon="3.27629">
        <ele>1066.6</ele>
        <time>2015-09-18T12:21:44Z</time>
      </trkpt>
      <trkpt lat="44.71397" lon="3.27617">
        <ele>1066.6</ele>
        <time>2015-09-18T12:21:46Z</time>
      </trkpt>
      <trkpt lat="44.71392" lon="3.27606">
        <ele>1066.6</ele>
        <time>2015-09-18T12:21:48Z</time>
      </trkpt>
      <trkpt lat="44.71385" lon="3.27592">
        <ele>1066.6</ele>
        <time>2015-09-18T12:21:51Z</time>
      </trkpt>
      <trkpt lat="44.71378" lon="3.27578">
        <ele>1066.5</ele>
        <time>2015-09-18T12:21:54Z</time>
      </trkpt>
      <trkpt lat="44.71374" lon="3.27564">
        <ele>1066.5</ele>
        <time>2015-09-18T12:21:57Z</time>
      </trkpt>
      <trkpt lat="44.71366" lon="3.2755">
        <ele>1066.6</ele>
        <time>2015-09-18T12:22:00Z</time>
      </trkpt>
      <trkpt lat="44.71357" lon="3.27536">
        <ele>1066.7</ele>
        <time>2015-09-18T12:22:03Z</time>
      </trkpt>
      <trkpt lat="44.71349" lon="3.27524">
        <ele>1066.9</ele>
        <time>2015-09-18T12:22:06Z</time>
      </trkpt>
      <trkpt lat="44.71341" lon="3.27513">
        <ele>1067.1</ele>
        <time>2015-09-18T12:22:09Z</time>
      </trkpt>
      <trkpt lat="44.71332" lon="3.27501">
        <ele>1067.3</ele>
        <time>2015-09-18T12:22:12Z</time>
      </trkpt>
      <trkpt lat="44.71323" lon="3.27489">
        <ele>1067.4</ele>
        <time>2015-09-18T12:22:15Z</time>
      </trkpt>
      <trkpt lat="44.71315" lon="3.27479">
        <ele>1067.6</ele>
        <time>2015-09-18T12:22:18Z</time>
      </trkpt>
      <trkpt lat="44.71305" lon="3.27466">
        <ele>1067.7</ele>
        <time>2015-09-18T12:22:21Z</time>
      </trkpt>
      <trkpt lat="44.71299" lon="3.27457">
        <ele>1067.7</ele>
        <time>2015-09-18T12:22:23Z</time>
      </trkpt>
      <trkpt lat="44.71292" lon="3.27446">
        <ele>1067.7</ele>
        <time>2015-09-18T12:22:25Z</time>
      </trkpt>
      <trkpt lat="44.71284" lon="3.27434">
        <ele>1067.6</ele>
        <time>2015-09-18T12:22:27Z</time>
      </trkpt>
      <trkpt lat="44.71276" lon="3.27422">
        <ele>1067.5</ele>
        <time>2015-09-18T12:22:29Z</time>
      </trkpt>
      <trkpt lat="44.71268" lon="3.2741">
        <ele>1067.4</ele>
        <time>2015-09-18T12:22:31Z</time>
      </trkpt>
      <trkpt lat="44.7126" lon="3.27395">
        <ele>1067.1</ele>
        <time>2015-09-18T12:22:33Z</time>
      </trkpt>
      <trkpt lat="44.71252" lon="3.27382">
        <ele>1066.8</ele>
        <time>2015-09-18T12:22:35Z</time>
      </trkpt>
      <trkpt lat="44.71242" lon="3.27371">
        <ele>1066.6</ele>
        <time>2015-09-18T12:22:37Z</time>
      </trkpt>
      <trkpt lat="44.71234" lon="3.2736">
        <ele>1066.3</ele>
        <time>2015-09-18T12:22:39Z</time>
      </trkpt>
      <trkpt lat="44.71227" lon="3.27349">
        <ele>1066</ele>
        <time>2015-09-18T12:22:41Z</time>
      </trkpt>
      <trkpt lat="44.71219" lon="3.27339">
        <ele>1065.8</ele>
        <time>2015-09-18T12:22:43Z</time>
      </trkpt>
      <trkpt lat="44.71211" lon="3.27332">
        <ele>1065.6</ele>
        <time>2015-09-18T12:22:45Z</time>
      </trkpt>
      <trkpt lat="44.71204" lon="3.27324">
        <ele>1065.4</ele>
        <time>2015-09-18T12:22:47Z</time>
      </trkpt>
      <trkpt lat="44.71193" lon="3.27313">
        <ele>1065.1</ele>
        <time>2015-09-18T12:22:50Z</time>
      </trkpt>
      <trkpt lat="44.71182" lon="3.27304">
        <ele>1064.9</ele>
        <time>2015-09-18T12:22:53Z</time>
      </trkpt>
      <trkpt lat="44.7117" lon="3.27299">
        <ele>1064.7</ele>
        <time>2015-09-18T12:22:56Z</time>
      </trkpt>
      <trkpt lat="44.71157" lon="3.27301">
        <ele>1064.6</ele>
        <time>2015-09-18T12:22:59Z</time>
      </trkpt>
      <trkpt lat="44.71144" lon="3.27308">
        <ele>1064.5</ele>
        <time>2015-09-18T12:23:02Z</time>
      </trkpt>
      <trkpt lat="44.71135" lon="3.27313">
        <ele>1064.3</ele>
        <time>2015-09-18T12:23:04Z</time>
      </trkpt>
      <trkpt lat="44.71126" lon="3.27322">
        <ele>1064</ele>
        <time>2015-09-18T12:23:06Z</time>
      </trkpt>
      <trkpt lat="44.71118" lon="3.2733">
        <ele>1063.6</ele>
        <time>2015-09-18T12:23:08Z</time>
      </trkpt>
      <trkpt lat="44.71109" lon="3.27322">
        <ele>1062.4</ele>
        <time>2015-09-18T12:23:13Z</time>
      </trkpt>
      <trkpt lat="44.71108" lon="3.27307">
        <ele>1061.6</ele>
        <time>2015-09-18T12:23:18Z</time>
      </trkpt>
      <trkpt lat="44.71103" lon="3.27295">
        <ele>1060.9</ele>
        <time>2015-09-18T12:23:23Z</time>
      </trkpt>
      <trkpt lat="44.71101" lon="3.27281">
        <ele>1060.6</ele>
        <time>2015-09-18T12:23:27Z</time>
      </trkpt>
      <trkpt lat="44.71107" lon="3.27271">
        <ele>1060.4</ele>
        <time>2015-09-18T12:23:32Z</time>
      </trkpt>
      <trkpt lat="44.71116" lon="3.27266">
        <ele>1060.5</ele>
        <time>2015-09-18T12:23:37Z</time>
      </trkpt>
      <trkpt lat="44.71125" lon="3.27261">
        <ele>1060.9</ele>
        <time>2015-09-18T12:23:42Z</time>
      </trkpt>
      <trkpt lat="44.71126" lon="3.27248">
        <ele>1061.4</ele>
        <time>2015-09-18T12:23:48Z</time>
      </trkpt>
      <trkpt lat="44.71119" lon="3.27237">
        <ele>1061.7</ele>
        <time>2015-09-18T12:23:52Z</time>
      </trkpt>
      <trkpt lat="44.71112" lon="3.27228">
        <ele>1061.9</ele>
        <time>2015-09-18T12:23:55Z</time>
      </trkpt>
      <trkpt lat="44.71103" lon="3.27218">
        <ele>1062.1</ele>
        <time>2015-09-18T12:23:58Z</time>
      </trkpt>
      <trkpt lat="44.71094" lon="3.27206">
        <ele>1062.2</ele>
        <time>2015-09-18T12:24:01Z</time>
      </trkpt>
      <trkpt lat="44.71085" lon="3.27192">
        <ele>1062.3</ele>
        <time>2015-09-18T12:24:04Z</time>
      </trkpt>
      <trkpt lat="44.71076" lon="3.27178">
        <ele>1062.4</ele>
        <time>2015-09-18T12:24:07Z</time>
      </trkpt>
      <trkpt lat="44.71067" lon="3.27165">
        <ele>1062.5</ele>
        <time>2015-09-18T12:24:10Z</time>
      </trkpt>
      <trkpt lat="44.71058" lon="3.27152">
        <ele>1062.6</ele>
        <time>2015-09-18T12:24:13Z</time>
      </trkpt>
      <trkpt lat="44.71048" lon="3.2714">
        <ele>1062.6</ele>
        <time>2015-09-18T12:24:16Z</time>
      </trkpt>
      <trkpt lat="44.71039" lon="3.27126">
        <ele>1062.7</ele>
        <time>2015-09-18T12:24:19Z</time>
      </trkpt>
      <trkpt lat="44.71031" lon="3.27114">
        <ele>1062.7</ele>
        <time>2015-09-18T12:24:22Z</time>
      </trkpt>
      <trkpt lat="44.71025" lon="3.27105">
        <ele>1062.7</ele>
        <time>2015-09-18T12:24:24Z</time>
      </trkpt>
      <trkpt lat="44.71016" lon="3.2709">
        <ele>1062.7</ele>
        <time>2015-09-18T12:24:27Z</time>
      </trkpt>
      <trkpt lat="44.71007" lon="3.27076">
        <ele>1062.8</ele>
        <time>2015-09-18T12:24:30Z</time>
      </trkpt>
      <trkpt lat="44.71" lon="3.27067">
        <ele>1062.8</ele>
        <time>2015-09-18T12:24:32Z</time>
      </trkpt>
      <trkpt lat="44.70993" lon="3.27059">
        <ele>1062.9</ele>
        <time>2015-09-18T12:24:34Z</time>
      </trkpt>
      <trkpt lat="44.70985" lon="3.27051">
        <ele>1062.9</ele>
        <time>2015-09-18T12:24:36Z</time>
      </trkpt>
      <trkpt lat="44.70975" lon="3.27042">
        <ele>1063</ele>
        <time>2015-09-18T12:24:39Z</time>
      </trkpt>
      <trkpt lat="44.70965" lon="3.27034">
        <ele>1063</ele>
        <time>2015-09-18T12:24:42Z</time>
      </trkpt>
      <trkpt lat="44.70954" lon="3.27027">
        <ele>1063.1</ele>
        <time>2015-09-18T12:24:45Z</time>
      </trkpt>
      <trkpt lat="44.70941" lon="3.27019">
        <ele>1063.1</ele>
        <time>2015-09-18T12:24:48Z</time>
      </trkpt>
      <trkpt lat="44.70932" lon="3.27014">
        <ele>1063.1</ele>
        <time>2015-09-18T12:24:50Z</time>
      </trkpt>
      <trkpt lat="44.70922" lon="3.27008">
        <ele>1063.1</ele>
        <time>2015-09-18T12:24:52Z</time>
      </trkpt>
      <trkpt lat="44.70913" lon="3.27002">
        <ele>1063</ele>
        <time>2015-09-18T12:24:54Z</time>
      </trkpt>
      <trkpt lat="44.70904" lon="3.26996">
        <ele>1063</ele>
        <time>2015-09-18T12:24:56Z</time>
      </trkpt>
      <trkpt lat="44.70896" lon="3.26991">
        <ele>1062.9</ele>
        <time>2015-09-18T12:24:58Z</time>
      </trkpt>
      <trkpt lat="44.70885" lon="3.26982">
        <ele>1062.8</ele>
        <time>2015-09-18T12:25:01Z</time>
      </trkpt>
      <trkpt lat="44.70873" lon="3.26973">
        <ele>1062.7</ele>
        <time>2015-09-18T12:25:04Z</time>
      </trkpt>
      <trkpt lat="44.70864" lon="3.26968">
        <ele>1062.6</ele>
        <time>2015-09-18T12:25:06Z</time>
      </trkpt>
      <trkpt lat="44.70854" lon="3.26963">
        <ele>1062.6</ele>
        <time>2015-09-18T12:25:08Z</time>
      </trkpt>
      <trkpt lat="44.70845" lon="3.2696">
        <ele>1062.5</ele>
        <time>2015-09-18T12:25:10Z</time>
      </trkpt>
      <trkpt lat="44.70835" lon="3.26957">
        <ele>1062.4</ele>
        <time>2015-09-18T12:25:12Z</time>
      </trkpt>
      <trkpt lat="44.70825" lon="3.26954">
        <ele>1062.3</ele>
        <time>2015-09-18T12:25:14Z</time>
      </trkpt>
      <trkpt lat="44.70813" lon="3.26951">
        <ele>1062.1</ele>
        <time>2015-09-18T12:25:16Z</time>
      </trkpt>
      <trkpt lat="44.708" lon="3.26947">
        <ele>1061.8</ele>
        <time>2015-09-18T12:25:18Z</time>
      </trkpt>
      <trkpt lat="44.70786" lon="3.26944">
        <ele>1061.5</ele>
        <time>2015-09-18T12:25:20Z</time>
      </trkpt>
      <trkpt lat="44.70772" lon="3.26941">
        <ele>1061</ele>
        <time>2015-09-18T12:25:22Z</time>
      </trkpt>
      <trkpt lat="44.70757" lon="3.26937">
        <ele>1060.5</ele>
        <time>2015-09-18T12:25:24Z</time>
      </trkpt>
      <trkpt lat="44.70741" lon="3.26933">
        <ele>1059.9</ele>
        <time>2015-09-18T12:25:26Z</time>
      </trkpt>
      <trkpt lat="44.70726" lon="3.2693">
        <ele>1059.4</ele>
        <time>2015-09-18T12:25:28Z</time>
      </trkpt>
      <trkpt lat="44.7071" lon="3.26927">
        <ele>1058.8</ele>
        <time>2015-09-18T12:25:30Z</time>
      </trkpt>
      <trkpt lat="44.70694" lon="3.26923">
        <ele>1058.2</ele>
        <time>2015-09-18T12:25:32Z</time>
      </trkpt>
      <trkpt lat="44.70678" lon="3.26919">
        <ele>1057.6</ele>
        <time>2015-09-18T12:25:34Z</time>
      </trkpt>
      <trkpt lat="44.70663" lon="3.26913">
        <ele>1057</ele>
        <time>2015-09-18T12:25:36Z</time>
      </trkpt>
      <trkpt lat="44.70648" lon="3.26905">
        <ele>1056.5</ele>
        <time>2015-09-18T12:25:38Z</time>
      </trkpt>
      <trkpt lat="44.70634" lon="3.26896">
        <ele>1056</ele>
        <time>2015-09-18T12:25:40Z</time>
      </trkpt>
      <trkpt lat="44.70621" lon="3.26888">
        <ele>1055.6</ele>
        <time>2015-09-18T12:25:42Z</time>
      </trkpt>
      <trkpt lat="44.70607" lon="3.2688">
        <ele>1055.2</ele>
        <time>2015-09-18T12:25:44Z</time>
      </trkpt>
      <trkpt lat="44.70595" lon="3.26873">
        <ele>1054.8</ele>
        <time>2015-09-18T12:25:46Z</time>
      </trkpt>
      <trkpt lat="44.70583" lon="3.26866">
        <ele>1054.3</ele>
        <time>2015-09-18T12:25:48Z</time>
      </trkpt>
      <trkpt lat="44.70572" lon="3.26859">
        <ele>1054</ele>
        <time>2015-09-18T12:25:50Z</time>
      </trkpt>
      <trkpt lat="44.70562" lon="3.26851">
        <ele>1053.6</ele>
        <time>2015-09-18T12:25:52Z</time>
      </trkpt>
      <trkpt lat="44.70551" lon="3.26844">
        <ele>1053.3</ele>
        <time>2015-09-18T12:25:54Z</time>
      </trkpt>
      <trkpt lat="44.7054" lon="3.26838">
        <ele>1053</ele>
        <time>2015-09-18T12:25:56Z</time>
      </trkpt>
      <trkpt lat="44.70528" lon="3.26835">
        <ele>1052.7</ele>
        <time>2015-09-18T12:25:58Z</time>
      </trkpt>
      <trkpt lat="44.70515" lon="3.26833">
        <ele>1052.5</ele>
        <time>2015-09-18T12:26:00Z</time>
      </trkpt>
      <trkpt lat="44.70503" lon="3.26833">
        <ele>1052.2</ele>
        <time>2015-09-18T12:26:02Z</time>
      </trkpt>
      <trkpt lat="44.70491" lon="3.26833">
        <ele>1052</ele>
        <time>2015-09-18T12:26:04Z</time>
      </trkpt>
      <trkpt lat="44.70479" lon="3.26832">
        <ele>1051.8</ele>
        <time>2015-09-18T12:26:06Z</time>
      </trkpt>
      <trkpt lat="44.70466" lon="3.26832">
        <ele>1051.6</ele>
        <time>2015-09-18T12:26:08Z</time>
      </trkpt>
      <trkpt lat="44.70454" lon="3.26832">
        <ele>1051.4</ele>
        <time>2015-09-18T12:26:10Z</time>
      </trkpt>
      <trkpt lat="44.70442" lon="3.26834">
        <ele>1051.2</ele>
        <time>2015-09-18T12:26:12Z</time>
      </trkpt>
      <trkpt lat="44.70429" lon="3.26835">
        <ele>1051</ele>
        <time>2015-09-18T12:26:14Z</time>
      </trkpt>
      <trkpt lat="44.70418" lon="3.26837">
        <ele>1050.8</ele>
        <time>2015-09-18T12:26:16Z</time>
      </trkpt>
      <trkpt lat="44.70406" lon="3.26839">
        <ele>1050.7</ele>
        <time>2015-09-18T12:26:18Z</time>
      </trkpt>
      <trkpt lat="44.70395" lon="3.26842">
        <ele>1050.5</ele>
        <time>2015-09-18T12:26:20Z</time>
      </trkpt>
      <trkpt lat="44.70384" lon="3.26843">
        <ele>1050.4</ele>
        <time>2015-09-18T12:26:22Z</time>
      </trkpt>
      <trkpt lat="44.70373" lon="3.26842">
        <ele>1050.2</ele>
        <time>2015-09-18T12:26:24Z</time>
      </trkpt>
      <trkpt lat="44.70361" lon="3.26841">
        <ele>1050</ele>
        <time>2015-09-18T12:26:26Z</time>
      </trkpt>
      <trkpt lat="44.70349" lon="3.2684">
        <ele>1049.8</ele>
        <time>2015-09-18T12:26:28Z</time>
      </trkpt>
      <trkpt lat="44.70336" lon="3.26838">
        <ele>1049.5</ele>
        <time>2015-09-18T12:26:30Z</time>
      </trkpt>
      <trkpt lat="44.70322" lon="3.26837">
        <ele>1049.2</ele>
        <time>2015-09-18T12:26:32Z</time>
      </trkpt>
      <trkpt lat="44.70308" lon="3.26835">
        <ele>1048.9</ele>
        <time>2015-09-18T12:26:34Z</time>
      </trkpt>
      <trkpt lat="44.70294" lon="3.26833">
        <ele>1048.6</ele>
        <time>2015-09-18T12:26:36Z</time>
      </trkpt>
      <trkpt lat="44.7028" lon="3.26831">
        <ele>1048.2</ele>
        <time>2015-09-18T12:26:38Z</time>
      </trkpt>
      <trkpt lat="44.70267" lon="3.2683">
        <ele>1047.9</ele>
        <time>2015-09-18T12:26:40Z</time>
      </trkpt>
      <trkpt lat="44.70254" lon="3.26828">
        <ele>1047.7</ele>
        <time>2015-09-18T12:26:42Z</time>
      </trkpt>
      <trkpt lat="44.70241" lon="3.26826">
        <ele>1047.4</ele>
        <time>2015-09-18T12:26:44Z</time>
      </trkpt>
      <trkpt lat="44.70228" lon="3.26825">
        <ele>1047.1</ele>
        <time>2015-09-18T12:26:46Z</time>
      </trkpt>
      <trkpt lat="44.70215" lon="3.26822">
        <ele>1046.8</ele>
        <time>2015-09-18T12:26:48Z</time>
      </trkpt>
      <trkpt lat="44.70203" lon="3.26817">
        <ele>1046.6</ele>
        <time>2015-09-18T12:26:50Z</time>
      </trkpt>
      <trkpt lat="44.7019" lon="3.26814">
        <ele>1046.4</ele>
        <time>2015-09-18T12:26:52Z</time>
      </trkpt>
      <trkpt lat="44.70178" lon="3.26811">
        <ele>1046.2</ele>
        <time>2015-09-18T12:26:54Z</time>
      </trkpt>
      <trkpt lat="44.70167" lon="3.26808">
        <ele>1046</ele>
        <time>2015-09-18T12:26:56Z</time>
      </trkpt>
      <trkpt lat="44.70156" lon="3.26806">
        <ele>1045.8</ele>
        <time>2015-09-18T12:26:58Z</time>
      </trkpt>
      <trkpt lat="44.70145" lon="3.26804">
        <ele>1045.7</ele>
        <time>2015-09-18T12:27:00Z</time>
      </trkpt>
      <trkpt lat="44.70135" lon="3.268">
        <ele>1045.5</ele>
        <time>2015-09-18T12:27:02Z</time>
      </trkpt>
      <trkpt lat="44.70127" lon="3.26792">
        <ele>1045.4</ele>
        <time>2015-09-18T12:27:04Z</time>
      </trkpt>
      <trkpt lat="44.70123" lon="3.26777">
        <ele>1045.2</ele>
        <time>2015-09-18T12:27:07Z</time>
      </trkpt>
      <trkpt lat="44.70119" lon="3.26761">
        <ele>1045.1</ele>
        <time>2015-09-18T12:27:10Z</time>
      </trkpt>
      <trkpt lat="44.70114" lon="3.26747">
        <ele>1045</ele>
        <time>2015-09-18T12:27:13Z</time>
      </trkpt>
      <trkpt lat="44.70107" lon="3.26733">
        <ele>1044.9</ele>
        <time>2015-09-18T12:27:16Z</time>
      </trkpt>
      <trkpt lat="44.70099" lon="3.26719">
        <ele>1044.7</ele>
        <time>2015-09-18T12:27:19Z</time>
      </trkpt>
      <trkpt lat="44.70092" lon="3.26707">
        <ele>1044.4</ele>
        <time>2015-09-18T12:27:23Z</time>
      </trkpt>
      <trkpt lat="44.70085" lon="3.26696">
        <ele>1044.1</ele>
        <time>2015-09-18T12:27:27Z</time>
      </trkpt>
      <trkpt lat="44.70078" lon="3.26684">
        <ele>1043.7</ele>
        <time>2015-09-18T12:27:31Z</time>
      </trkpt>
      <trkpt lat="44.7007" lon="3.26672">
        <ele>1043.4</ele>
        <time>2015-09-18T12:27:34Z</time>
      </trkpt>
      <trkpt lat="44.70062" lon="3.26658">
        <ele>1043</ele>
        <time>2015-09-18T12:27:37Z</time>
      </trkpt>
      <trkpt lat="44.70057" lon="3.26647">
        <ele>1042.8</ele>
        <time>2015-09-18T12:27:39Z</time>
      </trkpt>
      <trkpt lat="44.70051" lon="3.26634">
        <ele>1042.4</ele>
        <time>2015-09-18T12:27:41Z</time>
      </trkpt>
      <trkpt lat="44.70043" lon="3.26618">
        <ele>1042</ele>
        <time>2015-09-18T12:27:43Z</time>
      </trkpt>
      <trkpt lat="44.70035" lon="3.26599">
        <ele>1041.4</ele>
        <time>2015-09-18T12:27:45Z</time>
      </trkpt>
      <trkpt lat="44.70026" lon="3.26578">
        <ele>1040.8</ele>
        <time>2015-09-18T12:27:47Z</time>
      </trkpt>
      <trkpt lat="44.70022" lon="3.26566">
        <ele>1040.5</ele>
        <time>2015-09-18T12:27:48Z</time>
      </trkpt>
      <trkpt lat="44.70018" lon="3.26555">
        <ele>1040.1</ele>
        <time>2015-09-18T12:27:49Z</time>
      </trkpt>
      <trkpt lat="44.70009" lon="3.26533">
        <ele>1039.6</ele>
        <time>2015-09-18T12:27:51Z</time>
      </trkpt>
      <trkpt lat="44.7" lon="3.26512">
        <ele>1038.9</ele>
        <time>2015-09-18T12:27:53Z</time>
      </trkpt>
      <trkpt lat="44.69992" lon="3.2649">
        <ele>1038.1</ele>
        <time>2015-09-18T12:27:55Z</time>
      </trkpt>
      <trkpt lat="44.69983" lon="3.26469">
        <ele>1037.3</ele>
        <time>2015-09-18T12:27:57Z</time>
      </trkpt>
      <trkpt lat="44.69975" lon="3.26449">
        <ele>1036.5</ele>
        <time>2015-09-18T12:27:59Z</time>
      </trkpt>
      <trkpt lat="44.69968" lon="3.26429">
        <ele>1035.7</ele>
        <time>2015-09-18T12:28:01Z</time>
      </trkpt>
      <trkpt lat="44.69962" lon="3.2641">
        <ele>1034.9</ele>
        <time>2015-09-18T12:28:03Z</time>
      </trkpt>
      <trkpt lat="44.69955" lon="3.26392">
        <ele>1034.1</ele>
        <time>2015-09-18T12:28:05Z</time>
      </trkpt>
      <trkpt lat="44.69948" lon="3.26375">
        <ele>1033.2</ele>
        <time>2015-09-18T12:28:07Z</time>
      </trkpt>
      <trkpt lat="44.6994" lon="3.26356">
        <ele>1032.4</ele>
        <time>2015-09-18T12:28:09Z</time>
      </trkpt>
      <trkpt lat="44.69931" lon="3.26337">
        <ele>1031.4</ele>
        <time>2015-09-18T12:28:11Z</time>
      </trkpt>
      <trkpt lat="44.69921" lon="3.26319">
        <ele>1030.5</ele>
        <time>2015-09-18T12:28:13Z</time>
      </trkpt>
      <trkpt lat="44.6991" lon="3.26305">
        <ele>1029.5</ele>
        <time>2015-09-18T12:28:15Z</time>
      </trkpt>
      <trkpt lat="44.69898" lon="3.26293">
        <ele>1028.5</ele>
        <time>2015-09-18T12:28:17Z</time>
      </trkpt>
      <trkpt lat="44.69886" lon="3.26284">
        <ele>1027.6</ele>
        <time>2015-09-18T12:28:19Z</time>
      </trkpt>
      <trkpt lat="44.69875" lon="3.26276">
        <ele>1026.7</ele>
        <time>2015-09-18T12:28:21Z</time>
      </trkpt>
      <trkpt lat="44.69864" lon="3.26269">
        <ele>1025.9</ele>
        <time>2015-09-18T12:28:23Z</time>
      </trkpt>
      <trkpt lat="44.69866" lon="3.26255">
        <ele>1024.5</ele>
        <time>2015-09-18T12:28:27Z</time>
      </trkpt>
      <trkpt lat="44.69877" lon="3.26252">
        <ele>1023.3</ele>
        <time>2015-09-18T12:28:31Z</time>
      </trkpt>
      <trkpt lat="44.69886" lon="3.26249">
        <ele>1022.5</ele>
        <time>2015-09-18T12:28:34Z</time>
      </trkpt>
      <trkpt lat="44.69897" lon="3.26245">
        <ele>1021.7</ele>
        <time>2015-09-18T12:28:38Z</time>
      </trkpt>
      <trkpt lat="44.69906" lon="3.2624">
        <ele>1021.2</ele>
        <time>2015-09-18T12:28:41Z</time>
      </trkpt>
      <trkpt lat="44.69915" lon="3.26234">
        <ele>1020.8</ele>
        <time>2015-09-18T12:28:44Z</time>
      </trkpt>
      <trkpt lat="44.69924" lon="3.26228">
        <ele>1020.5</ele>
        <time>2015-09-18T12:28:47Z</time>
      </trkpt>
      <trkpt lat="44.69934" lon="3.26224">
        <ele>1020.3</ele>
        <time>2015-09-18T12:28:50Z</time>
      </trkpt>
      <trkpt lat="44.69944" lon="3.26218">
        <ele>1020</ele>
        <time>2015-09-18T12:28:54Z</time>
      </trkpt>
      <trkpt lat="44.69954" lon="3.26212">
        <ele>1019.8</ele>
        <time>2015-09-18T12:28:58Z</time>
      </trkpt>
      <trkpt lat="44.69963" lon="3.26206">
        <ele>1019.6</ele>
        <time>2015-09-18T12:29:02Z</time>
      </trkpt>
      <trkpt lat="44.69972" lon="3.26195">
        <ele>1019.4</ele>
        <time>2015-09-18T12:29:06Z</time>
      </trkpt>
      <trkpt lat="44.69979" lon="3.26185">
        <ele>1019.3</ele>
        <time>2015-09-18T12:29:09Z</time>
      </trkpt>
      <trkpt lat="44.69985" lon="3.26174">
        <ele>1019.3</ele>
        <time>2015-09-18T12:29:12Z</time>
      </trkpt>
      <trkpt lat="44.6999" lon="3.26161">
        <ele>1019.2</ele>
        <time>2015-09-18T12:29:15Z</time>
      </trkpt>
      <trkpt lat="44.69994" lon="3.26144">
        <ele>1019.2</ele>
        <time>2015-09-18T12:29:18Z</time>
      </trkpt>
      <trkpt lat="44.69994" lon="3.26126">
        <ele>1019.1</ele>
        <time>2015-09-18T12:29:21Z</time>
      </trkpt>
      <trkpt lat="44.69994" lon="3.26111">
        <ele>1019.1</ele>
        <time>2015-09-18T12:29:24Z</time>
      </trkpt>
      <trkpt lat="44.69993" lon="3.26096">
        <ele>1019.1</ele>
        <time>2015-09-18T12:29:27Z</time>
      </trkpt>
      <trkpt lat="44.69992" lon="3.26079">
        <ele>1019</ele>
        <time>2015-09-18T12:29:30Z</time>
      </trkpt>
      <trkpt lat="44.69991" lon="3.26063">
        <ele>1019</ele>
        <time>2015-09-18T12:29:33Z</time>
      </trkpt>
      <trkpt lat="44.69991" lon="3.26048">
        <ele>1019</ele>
        <time>2015-09-18T12:29:36Z</time>
      </trkpt>
      <trkpt lat="44.69994" lon="3.26032">
        <ele>1019</ele>
        <time>2015-09-18T12:29:40Z</time>
      </trkpt>
      <trkpt lat="44.69999" lon="3.26019">
        <ele>1019</ele>
        <time>2015-09-18T12:29:44Z</time>
      </trkpt>
      <trkpt lat="44.70005" lon="3.26005">
        <ele>1019</ele>
        <time>2015-09-18T12:29:48Z</time>
      </trkpt>
      <trkpt lat="44.7001" lon="3.25993">
        <ele>1019</ele>
        <time>2015-09-18T12:29:51Z</time>
      </trkpt>
      <trkpt lat="44.70015" lon="3.2598">
        <ele>1019</ele>
        <time>2015-09-18T12:29:54Z</time>
      </trkpt>
      <trkpt lat="44.70021" lon="3.25967">
        <ele>1019</ele>
        <time>2015-09-18T12:29:57Z</time>
      </trkpt>
      <trkpt lat="44.70024" lon="3.25953">
        <ele>1019.2</ele>
        <time>2015-09-18T12:30:00Z</time>
      </trkpt>
      <trkpt lat="44.70027" lon="3.25938">
        <ele>1019.3</ele>
        <time>2015-09-18T12:30:03Z</time>
      </trkpt>
      <trkpt lat="44.7003" lon="3.25923">
        <ele>1019.5</ele>
        <time>2015-09-18T12:30:06Z</time>
      </trkpt>
      <trkpt lat="44.70032" lon="3.25908">
        <ele>1019.7</ele>
        <time>2015-09-18T12:30:09Z</time>
      </trkpt>
      <trkpt lat="44.70034" lon="3.25893">
        <ele>1019.9</ele>
        <time>2015-09-18T12:30:12Z</time>
      </trkpt>
      <trkpt lat="44.70036" lon="3.2588">
        <ele>1020.1</ele>
        <time>2015-09-18T12:30:15Z</time>
      </trkpt>
      <trkpt lat="44.70039" lon="3.25866">
        <ele>1020.3</ele>
        <time>2015-09-18T12:30:18Z</time>
      </trkpt>
      <trkpt lat="44.70041" lon="3.25852">
        <ele>1020.5</ele>
        <time>2015-09-18T12:30:21Z</time>
      </trkpt>
      <trkpt lat="44.70043" lon="3.25839">
        <ele>1020.9</ele>
        <time>2015-09-18T12:30:24Z</time>
      </trkpt>
      <trkpt lat="44.70046" lon="3.25826">
        <ele>1021.1</ele>
        <time>2015-09-18T12:30:27Z</time>
      </trkpt>
      <trkpt lat="44.70048" lon="3.25813">
        <ele>1021.4</ele>
        <time>2015-09-18T12:30:30Z</time>
      </trkpt>
      <trkpt lat="44.7005" lon="3.25799">
        <ele>1021.7</ele>
        <time>2015-09-18T12:30:33Z</time>
      </trkpt>
      <trkpt lat="44.70054" lon="3.25783">
        <ele>1022.1</ele>
        <time>2015-09-18T12:30:37Z</time>
      </trkpt>
      <trkpt lat="44.70057" lon="3.25771">
        <ele>1022.3</ele>
        <time>2015-09-18T12:30:40Z</time>
      </trkpt>
      <trkpt lat="44.70061" lon="3.25759">
        <ele>1022.7</ele>
        <time>2015-09-18T12:30:43Z</time>
      </trkpt>
      <trkpt lat="44.70064" lon="3.25747">
        <ele>1023</ele>
        <time>2015-09-18T12:30:46Z</time>
      </trkpt>
      <trkpt lat="44.70068" lon="3.25734">
        <ele>1023.3</ele>
        <time>2015-09-18T12:30:49Z</time>
      </trkpt>
      <trkpt lat="44.70072" lon="3.25723">
        <ele>1023.5</ele>
        <time>2015-09-18T12:30:52Z</time>
      </trkpt>
      <trkpt lat="44.70078" lon="3.25708">
        <ele>1023.8</ele>
        <time>2015-09-18T12:30:56Z</time>
      </trkpt>
      <trkpt lat="44.70082" lon="3.25696">
        <ele>1024.1</ele>
        <time>2015-09-18T12:30:59Z</time>
      </trkpt>
      <trkpt lat="44.70087" lon="3.25682">
        <ele>1024.3</ele>
        <time>2015-09-18T12:31:03Z</time>
      </trkpt>
      <trkpt lat="44.70093" lon="3.25668">
        <ele>1024.5</ele>
        <time>2015-09-18T12:31:07Z</time>
      </trkpt>
      <trkpt lat="44.70099" lon="3.25656">
        <ele>1024.8</ele>
        <time>2015-09-18T12:31:11Z</time>
      </trkpt>
      <trkpt lat="44.70106" lon="3.25644">
        <ele>1025.3</ele>
        <time>2015-09-18T12:31:15Z</time>
      </trkpt>
      <trkpt lat="44.70112" lon="3.25632">
        <ele>1025.7</ele>
        <time>2015-09-18T12:31:19Z</time>
      </trkpt>
      <trkpt lat="44.70118" lon="3.25621">
        <ele>1026.2</ele>
        <time>2015-09-18T12:31:23Z</time>
      </trkpt>
      <trkpt lat="44.70124" lon="3.2561">
        <ele>1026.6</ele>
        <time>2015-09-18T12:31:27Z</time>
      </trkpt>
      <trkpt lat="44.7013" lon="3.25599">
        <ele>1027</ele>
        <time>2015-09-18T12:31:31Z</time>
      </trkpt>
      <trkpt lat="44.70136" lon="3.25588">
        <ele>1027.4</ele>
        <time>2015-09-18T12:31:35Z</time>
      </trkpt>
      <trkpt lat="44.70143" lon="3.25576">
        <ele>1027.8</ele>
        <time>2015-09-18T12:31:39Z</time>
      </trkpt>
      <trkpt lat="44.7015" lon="3.25566">
        <ele>1028.2</ele>
        <time>2015-09-18T12:31:43Z</time>
      </trkpt>
      <trkpt lat="44.70156" lon="3.25556">
        <ele>1028.5</ele>
        <time>2015-09-18T12:31:47Z</time>
      </trkpt>
      <trkpt lat="44.70163" lon="3.25547">
        <ele>1028.8</ele>
        <time>2015-09-18T12:31:51Z</time>
      </trkpt>
      <trkpt lat="44.70171" lon="3.25537">
        <ele>1029.4</ele>
        <time>2015-09-18T12:31:56Z</time>
      </trkpt>
      <trkpt lat="44.70178" lon="3.25527">
        <ele>1029.9</ele>
        <time>2015-09-18T12:32:01Z</time>
      </trkpt>
      <trkpt lat="44.70185" lon="3.25518">
        <ele>1030.5</ele>
        <time>2015-09-18T12:32:06Z</time>
      </trkpt>
      <trkpt lat="44.70192" lon="3.25507">
        <ele>1031.3</ele>
        <time>2015-09-18T12:32:12Z</time>
      </trkpt>
      <trkpt lat="44.702" lon="3.25498">
        <ele>1032.1</ele>
        <time>2015-09-18T12:32:18Z</time>
      </trkpt>
      <trkpt lat="44.70207" lon="3.2549">
        <ele>1032.9</ele>
        <time>2015-09-18T12:32:23Z</time>
      </trkpt>
      <trkpt lat="44.70216" lon="3.25483">
        <ele>1033.7</ele>
        <time>2015-09-18T12:32:29Z</time>
      </trkpt>
      <trkpt lat="44.70226" lon="3.25477">
        <ele>1034.6</ele>
        <time>2015-09-18T12:32:35Z</time>
      </trkpt>
      <trkpt lat="44.70235" lon="3.25472">
        <ele>1035.1</ele>
        <time>2015-09-18T12:32:40Z</time>
      </trkpt>
      <trkpt lat="44.70243" lon="3.25464">
        <ele>1035.6</ele>
        <time>2015-09-18T12:32:45Z</time>
      </trkpt>
      <trkpt lat="44.70252" lon="3.25456">
        <ele>1036.1</ele>
        <time>2015-09-18T12:32:50Z</time>
      </trkpt>
      <trkpt lat="44.70259" lon="3.25446">
        <ele>1036.8</ele>
        <time>2015-09-18T12:32:56Z</time>
      </trkpt>
      <trkpt lat="44.70264" lon="3.25435">
        <ele>1037.7</ele>
        <time>2015-09-18T12:33:02Z</time>
      </trkpt>
      <trkpt lat="44.70264" lon="3.2542">
        <ele>1038.7</ele>
        <time>2015-09-18T12:33:08Z</time>
      </trkpt>
      <trkpt lat="44.70265" lon="3.25405">
        <ele>1039.6</ele>
        <time>2015-09-18T12:33:14Z</time>
      </trkpt>
      <trkpt lat="44.70264" lon="3.2539">
        <ele>1040.4</ele>
        <time>2015-09-18T12:33:19Z</time>
      </trkpt>
      <trkpt lat="44.70262" lon="3.25375">
        <ele>1040.9</ele>
        <time>2015-09-18T12:33:23Z</time>
      </trkpt>
      <trkpt lat="44.70262" lon="3.25361">
        <ele>1041.1</ele>
        <time>2015-09-18T12:33:26Z</time>
      </trkpt>
      <trkpt lat="44.70266" lon="3.25346">
        <ele>1041.5</ele>
        <time>2015-09-18T12:33:30Z</time>
      </trkpt>
      <trkpt lat="44.70271" lon="3.25335">
        <ele>1041.7</ele>
        <time>2015-09-18T12:33:34Z</time>
      </trkpt>
      <trkpt lat="44.70275" lon="3.25321">
        <ele>1042.1</ele>
        <time>2015-09-18T12:33:39Z</time>
      </trkpt>
      <trkpt lat="44.70281" lon="3.25307">
        <ele>1042.7</ele>
        <time>2015-09-18T12:33:44Z</time>
      </trkpt>
      <trkpt lat="44.70286" lon="3.25296">
        <ele>1043.1</ele>
        <time>2015-09-18T12:33:48Z</time>
      </trkpt>
      <trkpt lat="44.70292" lon="3.25283">
        <ele>1043.5</ele>
        <time>2015-09-18T12:33:52Z</time>
      </trkpt>
      <trkpt lat="44.70301" lon="3.25274">
        <ele>1043.9</ele>
        <time>2015-09-18T12:33:56Z</time>
      </trkpt>
      <trkpt lat="44.7031" lon="3.25273">
        <ele>1044.2</ele>
        <time>2015-09-18T12:34:00Z</time>
      </trkpt>
      <trkpt lat="44.70321" lon="3.25275">
        <ele>1044.7</ele>
        <time>2015-09-18T12:34:05Z</time>
      </trkpt>
      <trkpt lat="44.70331" lon="3.2528">
        <ele>1045.3</ele>
        <time>2015-09-18T12:34:10Z</time>
      </trkpt>
      <trkpt lat="44.70342" lon="3.25284">
        <ele>1045.9</ele>
        <time>2015-09-18T12:34:15Z</time>
      </trkpt>
      <trkpt lat="44.7035" lon="3.25287">
        <ele>1046.4</ele>
        <time>2015-09-18T12:34:19Z</time>
      </trkpt>
      <trkpt lat="44.70359" lon="3.2529">
        <ele>1046.9</ele>
        <time>2015-09-18T12:34:23Z</time>
      </trkpt>
      <trkpt lat="44.7037" lon="3.25288">
        <ele>1047.6</ele>
        <time>2015-09-18T12:34:28Z</time>
      </trkpt>
      <trkpt lat="44.70379" lon="3.25285">
        <ele>1048.2</ele>
        <time>2015-09-18T12:34:33Z</time>
      </trkpt>
      <trkpt lat="44.70386" lon="3.25274">
        <ele>1050.6</ele>
        <time>2015-09-18T12:36:01Z</time>
      </trkpt>
      <trkpt lat="44.70396" lon="3.25269">
        <ele>1050.7</ele>
        <time>2015-09-18T12:36:05Z</time>
      </trkpt>
      <trkpt lat="44.70407" lon="3.25264">
        <ele>1050.7</ele>
        <time>2015-09-18T12:36:09Z</time>
      </trkpt>
      <trkpt lat="44.70416" lon="3.2526">
        <ele>1050.7</ele>
        <time>2015-09-18T12:36:12Z</time>
      </trkpt>
      <trkpt lat="44.70425" lon="3.25255">
        <ele>1050.7</ele>
        <time>2015-09-18T12:36:15Z</time>
      </trkpt>
      <trkpt lat="44.70433" lon="3.25248">
        <ele>1050.8</ele>
        <time>2015-09-18T12:36:18Z</time>
      </trkpt>
      <trkpt lat="44.70441" lon="3.25239">
        <ele>1050.8</ele>
        <time>2015-09-18T12:36:21Z</time>
      </trkpt>
      <trkpt lat="44.70448" lon="3.25229">
        <ele>1050.8</ele>
        <time>2015-09-18T12:36:24Z</time>
      </trkpt>
      <trkpt lat="44.70457" lon="3.25221">
        <ele>1050.9</ele>
        <time>2015-09-18T12:36:27Z</time>
      </trkpt>
      <trkpt lat="44.70465" lon="3.25215">
        <ele>1050.9</ele>
        <time>2015-09-18T12:36:30Z</time>
      </trkpt>
      <trkpt lat="44.70474" lon="3.2521">
        <ele>1050.9</ele>
        <time>2015-09-18T12:36:33Z</time>
      </trkpt>
      <trkpt lat="44.70483" lon="3.25207">
        <ele>1051</ele>
        <time>2015-09-18T12:36:36Z</time>
      </trkpt>
      <trkpt lat="44.70492" lon="3.25204">
        <ele>1051.1</ele>
        <time>2015-09-18T12:36:39Z</time>
      </trkpt>
      <trkpt lat="44.70501" lon="3.25199">
        <ele>1051.3</ele>
        <time>2015-09-18T12:36:42Z</time>
      </trkpt>
      <trkpt lat="44.70511" lon="3.25191">
        <ele>1051.4</ele>
        <time>2015-09-18T12:36:46Z</time>
      </trkpt>
      <trkpt lat="44.70521" lon="3.25182">
        <ele>1051.5</ele>
        <time>2015-09-18T12:36:50Z</time>
      </trkpt>
      <trkpt lat="44.7053" lon="3.25172">
        <ele>1051.7</ele>
        <time>2015-09-18T12:36:54Z</time>
      </trkpt>
      <trkpt lat="44.70538" lon="3.25162">
        <ele>1051.8</ele>
        <time>2015-09-18T12:36:58Z</time>
      </trkpt>
      <trkpt lat="44.70546" lon="3.25152">
        <ele>1052.1</ele>
        <time>2015-09-18T12:37:02Z</time>
      </trkpt>
      <trkpt lat="44.70553" lon="3.25143">
        <ele>1052.3</ele>
        <time>2015-09-18T12:37:06Z</time>
      </trkpt>
      <trkpt lat="44.7056" lon="3.25134">
        <ele>1052.6</ele>
        <time>2015-09-18T12:37:11Z</time>
      </trkpt>
      <trkpt lat="44.70568" lon="3.25124">
        <ele>1053</ele>
        <time>2015-09-18T12:37:16Z</time>
      </trkpt>
      <trkpt lat="44.70575" lon="3.25114">
        <ele>1053.6</ele>
        <time>2015-09-18T12:37:21Z</time>
      </trkpt>
      <trkpt lat="44.70582" lon="3.25104">
        <ele>1054.2</ele>
        <time>2015-09-18T12:37:26Z</time>
      </trkpt>
      <trkpt lat="44.7059" lon="3.25094">
        <ele>1055</ele>
        <time>2015-09-18T12:37:31Z</time>
      </trkpt>
      <trkpt lat="44.70598" lon="3.25084">
        <ele>1055.5</ele>
        <time>2015-09-18T12:37:36Z</time>
      </trkpt>
      <trkpt lat="44.70606" lon="3.25074">
        <ele>1056</ele>
        <time>2015-09-18T12:37:41Z</time>
      </trkpt>
      <trkpt lat="44.70614" lon="3.25065">
        <ele>1056.7</ele>
        <time>2015-09-18T12:37:46Z</time>
      </trkpt>
      <trkpt lat="44.70621" lon="3.25056">
        <ele>1057.4</ele>
        <time>2015-09-18T12:37:51Z</time>
      </trkpt>
      <trkpt lat="44.70629" lon="3.25047">
        <ele>1058</ele>
        <time>2015-09-18T12:37:56Z</time>
      </trkpt>
      <trkpt lat="44.70637" lon="3.25039">
        <ele>1058.5</ele>
        <time>2015-09-18T12:38:01Z</time>
      </trkpt>
      <trkpt lat="44.70645" lon="3.2503">
        <ele>1059.2</ele>
        <time>2015-09-18T12:38:06Z</time>
      </trkpt>
      <trkpt lat="44.70653" lon="3.25019">
        <ele>1059.9</ele>
        <time>2015-09-18T12:38:11Z</time>
      </trkpt>
      <trkpt lat="44.7066" lon="3.25011">
        <ele>1060.6</ele>
        <time>2015-09-18T12:38:15Z</time>
      </trkpt>
      <trkpt lat="44.70668" lon="3.25003">
        <ele>1061.2</ele>
        <time>2015-09-18T12:38:19Z</time>
      </trkpt>
      <trkpt lat="44.70676" lon="3.24993">
        <ele>1061.9</ele>
        <time>2015-09-18T12:38:24Z</time>
      </trkpt>
      <trkpt lat="44.70683" lon="3.24983">
        <ele>1062.4</ele>
        <time>2015-09-18T12:38:29Z</time>
      </trkpt>
      <trkpt lat="44.7069" lon="3.24974">
        <ele>1063.1</ele>
        <time>2015-09-18T12:38:37Z</time>
      </trkpt>
      <trkpt lat="44.70697" lon="3.24966">
        <ele>1063.4</ele>
        <time>2015-09-18T12:38:42Z</time>
      </trkpt>
      <trkpt lat="44.70704" lon="3.24955">
        <ele>1063.8</ele>
        <time>2015-09-18T12:38:47Z</time>
      </trkpt>
      <trkpt lat="44.70712" lon="3.24945">
        <ele>1064.1</ele>
        <time>2015-09-18T12:38:52Z</time>
      </trkpt>
      <trkpt lat="44.7072" lon="3.24934">
        <ele>1064.4</ele>
        <time>2015-09-18T12:38:57Z</time>
      </trkpt>
      <trkpt lat="44.70726" lon="3.24924">
        <ele>1064.7</ele>
        <time>2015-09-18T12:39:01Z</time>
      </trkpt>
      <trkpt lat="44.70731" lon="3.24913">
        <ele>1065</ele>
        <time>2015-09-18T12:39:05Z</time>
      </trkpt>
      <trkpt lat="44.70737" lon="3.24903">
        <ele>1065.2</ele>
        <time>2015-09-18T12:39:09Z</time>
      </trkpt>
      <trkpt lat="44.70743" lon="3.24893">
        <ele>1065.5</ele>
        <time>2015-09-18T12:39:13Z</time>
      </trkpt>
      <trkpt lat="44.70748" lon="3.2488">
        <ele>1065.8</ele>
        <time>2015-09-18T12:39:18Z</time>
      </trkpt>
      <trkpt lat="44.70754" lon="3.24868">
        <ele>1066.2</ele>
        <time>2015-09-18T12:39:23Z</time>
      </trkpt>
      <trkpt lat="44.70761" lon="3.24856">
        <ele>1066.6</ele>
        <time>2015-09-18T12:39:28Z</time>
      </trkpt>
      <trkpt lat="44.70767" lon="3.24844">
        <ele>1067.2</ele>
        <time>2015-09-18T12:39:33Z</time>
      </trkpt>
      <trkpt lat="44.70773" lon="3.24832">
        <ele>1067.7</ele>
        <time>2015-09-18T12:39:38Z</time>
      </trkpt>
      <trkpt lat="44.70779" lon="3.24819">
        <ele>1068.1</ele>
        <time>2015-09-18T12:39:43Z</time>
      </trkpt>
      <trkpt lat="44.70785" lon="3.24808">
        <ele>1068.7</ele>
        <time>2015-09-18T12:39:48Z</time>
      </trkpt>
      <trkpt lat="44.70791" lon="3.24796">
        <ele>1069.3</ele>
        <time>2015-09-18T12:39:53Z</time>
      </trkpt>
      <trkpt lat="44.70798" lon="3.24786">
        <ele>1070</ele>
        <time>2015-09-18T12:39:58Z</time>
      </trkpt>
      <trkpt lat="44.70805" lon="3.24774">
        <ele>1070.7</ele>
        <time>2015-09-18T12:40:03Z</time>
      </trkpt>
      <trkpt lat="44.70811" lon="3.24763">
        <ele>1071.4</ele>
        <time>2015-09-18T12:40:08Z</time>
      </trkpt>
      <trkpt lat="44.70816" lon="3.24753">
        <ele>1072</ele>
        <time>2015-09-18T12:40:12Z</time>
      </trkpt>
      <trkpt lat="44.70823" lon="3.24743">
        <ele>1072.6</ele>
        <time>2015-09-18T12:40:16Z</time>
      </trkpt>
      <trkpt lat="44.70831" lon="3.24731">
        <ele>1073</ele>
        <time>2015-09-18T12:40:20Z</time>
      </trkpt>
      <trkpt lat="44.70838" lon="3.2472">
        <ele>1073.2</ele>
        <time>2015-09-18T12:40:23Z</time>
      </trkpt>
      <trkpt lat="44.70847" lon="3.24708">
        <ele>1073.4</ele>
        <time>2015-09-18T12:40:26Z</time>
      </trkpt>
      <trkpt lat="44.70856" lon="3.24697">
        <ele>1073.5</ele>
        <time>2015-09-18T12:40:29Z</time>
      </trkpt>
      <trkpt lat="44.70866" lon="3.24685">
        <ele>1073.5</ele>
        <time>2015-09-18T12:40:32Z</time>
      </trkpt>
      <trkpt lat="44.70877" lon="3.24674">
        <ele>1073.5</ele>
        <time>2015-09-18T12:40:35Z</time>
      </trkpt>
      <trkpt lat="44.70885" lon="3.24666">
        <ele>1073.5</ele>
        <time>2015-09-18T12:40:37Z</time>
      </trkpt>
      <trkpt lat="44.70893" lon="3.24659">
        <ele>1073.4</ele>
        <time>2015-09-18T12:40:39Z</time>
      </trkpt>
      <trkpt lat="44.70901" lon="3.24652">
        <ele>1073.3</ele>
        <time>2015-09-18T12:40:41Z</time>
      </trkpt>
      <trkpt lat="44.7091" lon="3.24645">
        <ele>1073.2</ele>
        <time>2015-09-18T12:40:43Z</time>
      </trkpt>
      <trkpt lat="44.70919" lon="3.24638">
        <ele>1073</ele>
        <time>2015-09-18T12:40:45Z</time>
      </trkpt>
      <trkpt lat="44.70927" lon="3.24632">
        <ele>1072.9</ele>
        <time>2015-09-18T12:40:47Z</time>
      </trkpt>
      <trkpt lat="44.70936" lon="3.24625">
        <ele>1072.7</ele>
        <time>2015-09-18T12:40:49Z</time>
      </trkpt>
      <trkpt lat="44.70944" lon="3.24618">
        <ele>1072.5</ele>
        <time>2015-09-18T12:40:51Z</time>
      </trkpt>
      <trkpt lat="44.70951" lon="3.24611">
        <ele>1072.4</ele>
        <time>2015-09-18T12:40:53Z</time>
      </trkpt>
      <trkpt lat="44.70959" lon="3.24603">
        <ele>1072.2</ele>
        <time>2015-09-18T12:40:55Z</time>
      </trkpt>
      <trkpt lat="44.7097" lon="3.24592">
        <ele>1072</ele>
        <time>2015-09-18T12:40:58Z</time>
      </trkpt>
      <trkpt lat="44.70977" lon="3.24584">
        <ele>1071.9</ele>
        <time>2015-09-18T12:41:00Z</time>
      </trkpt>
      <trkpt lat="44.70983" lon="3.24575">
        <ele>1071.7</ele>
        <time>2015-09-18T12:41:02Z</time>
      </trkpt>
      <trkpt lat="44.70993" lon="3.24562">
        <ele>1071.6</ele>
        <time>2015-09-18T12:41:05Z</time>
      </trkpt>
      <trkpt lat="44.71001" lon="3.24549">
        <ele>1071.4</ele>
        <time>2015-09-18T12:41:08Z</time>
      </trkpt>
      <trkpt lat="44.71009" lon="3.24536">
        <ele>1071.2</ele>
        <time>2015-09-18T12:41:11Z</time>
      </trkpt>
      <trkpt lat="44.71018" lon="3.24522">
        <ele>1071.1</ele>
        <time>2015-09-18T12:41:14Z</time>
      </trkpt>
      <trkpt lat="44.71026" lon="3.24509">
        <ele>1071</ele>
        <time>2015-09-18T12:41:17Z</time>
      </trkpt>
      <trkpt lat="44.71034" lon="3.24497">
        <ele>1070.9</ele>
        <time>2015-09-18T12:41:20Z</time>
      </trkpt>
      <trkpt lat="44.71041" lon="3.24487">
        <ele>1070.8</ele>
        <time>2015-09-18T12:41:23Z</time>
      </trkpt>
      <trkpt lat="44.71048" lon="3.24479">
        <ele>1070.7</ele>
        <time>2015-09-18T12:41:27Z</time>
      </trkpt>
      <trkpt lat="44.71055" lon="3.24469">
        <ele>1071.4</ele>
        <time>2015-09-18T12:43:55Z</time>
      </trkpt>
      <trkpt lat="44.7106" lon="3.24456">
        <ele>1071.4</ele>
        <time>2015-09-18T12:43:59Z</time>
      </trkpt>
      <trkpt lat="44.71068" lon="3.24446">
        <ele>1071.4</ele>
        <time>2015-09-18T12:44:03Z</time>
      </trkpt>
      <trkpt lat="44.71074" lon="3.24431">
        <ele>1071.4</ele>
        <time>2015-09-18T12:44:07Z</time>
      </trkpt>
      <trkpt lat="44.71078" lon="3.24416">
        <ele>1071.4</ele>
        <time>2015-09-18T12:44:11Z</time>
      </trkpt>
      <trkpt lat="44.71081" lon="3.24401">
        <ele>1071.4</ele>
        <time>2015-09-18T12:44:15Z</time>
      </trkpt>
      <trkpt lat="44.71085" lon="3.24386">
        <ele>1071.5</ele>
        <time>2015-09-18T12:44:19Z</time>
      </trkpt>
      <trkpt lat="44.71089" lon="3.24371">
        <ele>1071.7</ele>
        <time>2015-09-18T12:44:23Z</time>
      </trkpt>
      <trkpt lat="44.71093" lon="3.24359">
        <ele>1071.9</ele>
        <time>2015-09-18T12:44:26Z</time>
      </trkpt>
      <trkpt lat="44.71096" lon="3.24346">
        <ele>1072.1</ele>
        <time>2015-09-18T12:44:29Z</time>
      </trkpt>
      <trkpt lat="44.711" lon="3.24334">
        <ele>1072.3</ele>
        <time>2015-09-18T12:44:32Z</time>
      </trkpt>
      <trkpt lat="44.71103" lon="3.24322">
        <ele>1072.5</ele>
        <time>2015-09-18T12:44:35Z</time>
      </trkpt>
      <trkpt lat="44.71108" lon="3.24307">
        <ele>1072.8</ele>
        <time>2015-09-18T12:44:39Z</time>
      </trkpt>
      <trkpt lat="44.71112" lon="3.24292">
        <ele>1073.1</ele>
        <time>2015-09-18T12:44:43Z</time>
      </trkpt>
      <trkpt lat="44.71117" lon="3.24279">
        <ele>1073.4</ele>
        <time>2015-09-18T12:44:47Z</time>
      </trkpt>
      <trkpt lat="44.71122" lon="3.24267">
        <ele>1073.7</ele>
        <time>2015-09-18T12:44:51Z</time>
      </trkpt>
      <trkpt lat="44.71127" lon="3.24256">
        <ele>1074</ele>
        <time>2015-09-18T12:44:55Z</time>
      </trkpt>
      <trkpt lat="44.71133" lon="3.24244">
        <ele>1074.4</ele>
        <time>2015-09-18T12:44:59Z</time>
      </trkpt>
      <trkpt lat="44.71138" lon="3.24233">
        <ele>1074.8</ele>
        <time>2015-09-18T12:45:03Z</time>
      </trkpt>
      <trkpt lat="44.71143" lon="3.24222">
        <ele>1075.2</ele>
        <time>2015-09-18T12:45:07Z</time>
      </trkpt>
      <trkpt lat="44.71149" lon="3.24212">
        <ele>1075.6</ele>
        <time>2015-09-18T12:45:11Z</time>
      </trkpt>
      <trkpt lat="44.71155" lon="3.242">
        <ele>1076.2</ele>
        <time>2015-09-18T12:45:16Z</time>
      </trkpt>
      <trkpt lat="44.71161" lon="3.24187">
        <ele>1076.7</ele>
        <time>2015-09-18T12:45:21Z</time>
      </trkpt>
      <trkpt lat="44.71164" lon="3.24174">
        <ele>1077</ele>
        <time>2015-09-18T12:45:25Z</time>
      </trkpt>
      <trkpt lat="44.71168" lon="3.24161">
        <ele>1077.5</ele>
        <time>2015-09-18T12:45:29Z</time>
      </trkpt>
      <trkpt lat="44.71171" lon="3.24147">
        <ele>1078</ele>
        <time>2015-09-18T12:45:33Z</time>
      </trkpt>
      <trkpt lat="44.71174" lon="3.24134">
        <ele>1078.5</ele>
        <time>2015-09-18T12:45:37Z</time>
      </trkpt>
      <trkpt lat="44.71177" lon="3.24122">
        <ele>1078.9</ele>
        <time>2015-09-18T12:45:41Z</time>
      </trkpt>
      <trkpt lat="44.7118" lon="3.2411">
        <ele>1079.4</ele>
        <time>2015-09-18T12:45:45Z</time>
      </trkpt>
      <trkpt lat="44.71183" lon="3.24096">
        <ele>1080</ele>
        <time>2015-09-18T12:45:50Z</time>
      </trkpt>
      <trkpt lat="44.71187" lon="3.24082">
        <ele>1080.6</ele>
        <time>2015-09-18T12:45:55Z</time>
      </trkpt>
      <trkpt lat="44.7119" lon="3.24068">
        <ele>1081.2</ele>
        <time>2015-09-18T12:46:00Z</time>
      </trkpt>
      <trkpt lat="44.71194" lon="3.24054">
        <ele>1081.8</ele>
        <time>2015-09-18T12:46:05Z</time>
      </trkpt>
      <trkpt lat="44.71197" lon="3.2404">
        <ele>1082.3</ele>
        <time>2015-09-18T12:46:10Z</time>
      </trkpt>
      <trkpt lat="44.71201" lon="3.24025">
        <ele>1082.9</ele>
        <time>2015-09-18T12:46:15Z</time>
      </trkpt>
      <trkpt lat="44.71205" lon="3.24011">
        <ele>1083.5</ele>
        <time>2015-09-18T12:46:20Z</time>
      </trkpt>
      <trkpt lat="44.71208" lon="3.23999">
        <ele>1083.9</ele>
        <time>2015-09-18T12:46:24Z</time>
      </trkpt>
      <trkpt lat="44.71212" lon="3.23984">
        <ele>1084.4</ele>
        <time>2015-09-18T12:46:29Z</time>
      </trkpt>
      <trkpt lat="44.71216" lon="3.23969">
        <ele>1085</ele>
        <time>2015-09-18T12:46:34Z</time>
      </trkpt>
      <trkpt lat="44.71219" lon="3.23955">
        <ele>1085.5</ele>
        <time>2015-09-18T12:46:39Z</time>
      </trkpt>
      <trkpt lat="44.71222" lon="3.23941">
        <ele>1086</ele>
        <time>2015-09-18T12:46:44Z</time>
      </trkpt>
      <trkpt lat="44.71226" lon="3.2393">
        <ele>1086.4</ele>
        <time>2015-09-18T12:46:49Z</time>
      </trkpt>
      <trkpt lat="44.7123" lon="3.23915">
        <ele>1087</ele>
        <time>2015-09-18T12:46:54Z</time>
      </trkpt>
      <trkpt lat="44.71234" lon="3.23901">
        <ele>1087.7</ele>
        <time>2015-09-18T12:46:59Z</time>
      </trkpt>
      <trkpt lat="44.71237" lon="3.23888">
        <ele>1088.4</ele>
        <time>2015-09-18T12:47:04Z</time>
      </trkpt>
      <trkpt lat="44.71241" lon="3.23876">
        <ele>1088.8</ele>
        <time>2015-09-18T12:47:08Z</time>
      </trkpt>
      <trkpt lat="44.71244" lon="3.23863">
        <ele>1089.3</ele>
        <time>2015-09-18T12:47:12Z</time>
      </trkpt>
      <trkpt lat="44.71247" lon="3.23848">
        <ele>1089.7</ele>
        <time>2015-09-18T12:47:16Z</time>
      </trkpt>
      <trkpt lat="44.71251" lon="3.23834">
        <ele>1090</ele>
        <time>2015-09-18T12:47:20Z</time>
      </trkpt>
      <trkpt lat="44.71256" lon="3.2382">
        <ele>1090.3</ele>
        <time>2015-09-18T12:47:24Z</time>
      </trkpt>
      <trkpt lat="44.71261" lon="3.23806">
        <ele>1090.5</ele>
        <time>2015-09-18T12:47:28Z</time>
      </trkpt>
      <trkpt lat="44.71267" lon="3.23793">
        <ele>1090.6</ele>
        <time>2015-09-18T12:47:32Z</time>
      </trkpt>
      <trkpt lat="44.71275" lon="3.23782">
        <ele>1090.7</ele>
        <time>2015-09-18T12:47:36Z</time>
      </trkpt>
      <trkpt lat="44.71283" lon="3.23772">
        <ele>1090.8</ele>
        <time>2015-09-18T12:47:40Z</time>
      </trkpt>
      <trkpt lat="44.71292" lon="3.23763">
        <ele>1090.9</ele>
        <time>2015-09-18T12:47:44Z</time>
      </trkpt>
      <trkpt lat="44.71299" lon="3.23754">
        <ele>1091.1</ele>
        <time>2015-09-18T12:47:48Z</time>
      </trkpt>
      <trkpt lat="44.71307" lon="3.23743">
        <ele>1091.3</ele>
        <time>2015-09-18T12:47:52Z</time>
      </trkpt>
      <trkpt lat="44.71314" lon="3.23732">
        <ele>1091.5</ele>
        <time>2015-09-18T12:47:56Z</time>
      </trkpt>
      <trkpt lat="44.71319" lon="3.23718">
        <ele>1091.7</ele>
        <time>2015-09-18T12:48:00Z</time>
      </trkpt>
      <trkpt lat="44.7132" lon="3.23702">
        <ele>1091.8</ele>
        <time>2015-09-18T12:48:04Z</time>
      </trkpt>
      <trkpt lat="44.71319" lon="3.23687">
        <ele>1092</ele>
        <time>2015-09-18T12:48:08Z</time>
      </trkpt>
      <trkpt lat="44.71318" lon="3.23673">
        <ele>1092.1</ele>
        <time>2015-09-18T12:48:12Z</time>
      </trkpt>
      <trkpt lat="44.71313" lon="3.23659">
        <ele>1092.3</ele>
        <time>2015-09-18T12:48:16Z</time>
      </trkpt>
      <trkpt lat="44.71309" lon="3.23647">
        <ele>1092.3</ele>
        <time>2015-09-18T12:48:19Z</time>
      </trkpt>
      <trkpt lat="44.71304" lon="3.23636">
        <ele>1092.5</ele>
        <time>2015-09-18T12:48:22Z</time>
      </trkpt>
      <trkpt lat="44.71299" lon="3.23625">
        <ele>1092.7</ele>
        <time>2015-09-18T12:48:25Z</time>
      </trkpt>
      <trkpt lat="44.71292" lon="3.23613">
        <ele>1093</ele>
        <time>2015-09-18T12:48:29Z</time>
      </trkpt>
      <trkpt lat="44.71285" lon="3.23603">
        <ele>1093.2</ele>
        <time>2015-09-18T12:48:33Z</time>
      </trkpt>
      <trkpt lat="44.71279" lon="3.23592">
        <ele>1093.5</ele>
        <time>2015-09-18T12:48:37Z</time>
      </trkpt>
      <trkpt lat="44.71273" lon="3.2358">
        <ele>1093.7</ele>
        <time>2015-09-18T12:48:41Z</time>
      </trkpt>
      <trkpt lat="44.71267" lon="3.23566">
        <ele>1094</ele>
        <time>2015-09-18T12:48:45Z</time>
      </trkpt>
      <trkpt lat="44.71263" lon="3.23555">
        <ele>1094.2</ele>
        <time>2015-09-18T12:48:48Z</time>
      </trkpt>
      <trkpt lat="44.71258" lon="3.23542">
        <ele>1094.3</ele>
        <time>2015-09-18T12:48:51Z</time>
      </trkpt>
      <trkpt lat="44.71253" lon="3.23529">
        <ele>1094.5</ele>
        <time>2015-09-18T12:48:54Z</time>
      </trkpt>
      <trkpt lat="44.71249" lon="3.23513">
        <ele>1094.6</ele>
        <time>2015-09-18T12:48:57Z</time>
      </trkpt>
      <trkpt lat="44.71245" lon="3.23498">
        <ele>1094.6</ele>
        <time>2015-09-18T12:49:00Z</time>
      </trkpt>
      <trkpt lat="44.71245" lon="3.23485">
        <ele>1094.7</ele>
        <time>2015-09-18T12:49:03Z</time>
      </trkpt>
      <trkpt lat="44.71242" lon="3.23472">
        <ele>1094.8</ele>
        <time>2015-09-18T12:49:09Z</time>
      </trkpt>
      <trkpt lat="44.7124" lon="3.23459">
        <ele>1094.9</ele>
        <time>2015-09-18T12:49:12Z</time>
      </trkpt>
      <trkpt lat="44.7124" lon="3.23442">
        <ele>1094.9</ele>
        <time>2015-09-18T12:49:15Z</time>
      </trkpt>
      <trkpt lat="44.71239" lon="3.23425">
        <ele>1094.9</ele>
        <time>2015-09-18T12:49:18Z</time>
      </trkpt>
      <trkpt lat="44.71239" lon="3.23408">
        <ele>1095</ele>
        <time>2015-09-18T12:49:21Z</time>
      </trkpt>
      <trkpt lat="44.71239" lon="3.23392">
        <ele>1095</ele>
        <time>2015-09-18T12:49:24Z</time>
      </trkpt>
      <trkpt lat="44.71239" lon="3.23375">
        <ele>1095.1</ele>
        <time>2015-09-18T12:49:27Z</time>
      </trkpt>
      <trkpt lat="44.7124" lon="3.23359">
        <ele>1095.3</ele>
        <time>2015-09-18T12:49:30Z</time>
      </trkpt>
      <trkpt lat="44.71241" lon="3.23344">
        <ele>1095.4</ele>
        <time>2015-09-18T12:49:33Z</time>
      </trkpt>
      <trkpt lat="44.71243" lon="3.23328">
        <ele>1095.6</ele>
        <time>2015-09-18T12:49:36Z</time>
      </trkpt>
      <trkpt lat="44.71245" lon="3.23312">
        <ele>1095.7</ele>
        <time>2015-09-18T12:49:39Z</time>
      </trkpt>
      <trkpt lat="44.71248" lon="3.23295">
        <ele>1095.8</ele>
        <time>2015-09-18T12:49:42Z</time>
      </trkpt>
      <trkpt lat="44.71251" lon="3.23278">
        <ele>1095.8</ele>
        <time>2015-09-18T12:49:45Z</time>
      </trkpt>
      <trkpt lat="44.71254" lon="3.23261">
        <ele>1095.9</ele>
        <time>2015-09-18T12:49:48Z</time>
      </trkpt>
      <trkpt lat="44.71254" lon="3.23245">
        <ele>1095.8</ele>
        <time>2015-09-18T12:49:51Z</time>
      </trkpt>
      <trkpt lat="44.71252" lon="3.2323">
        <ele>1095.8</ele>
        <time>2015-09-18T12:49:54Z</time>
      </trkpt>
      <trkpt lat="44.71253" lon="3.23217">
        <ele>1095.5</ele>
        <time>2015-09-18T12:49:56Z</time>
      </trkpt>
      <trkpt lat="44.71255" lon="3.23202">
        <ele>1095.3</ele>
        <time>2015-09-18T12:49:58Z</time>
      </trkpt>
      <trkpt lat="44.71254" lon="3.23187">
        <ele>1095</ele>
        <time>2015-09-18T12:50:00Z</time>
      </trkpt>
      <trkpt lat="44.71251" lon="3.23172">
        <ele>1094.7</ele>
        <time>2015-09-18T12:50:02Z</time>
      </trkpt>
      <trkpt lat="44.71246" lon="3.23157">
        <ele>1094.3</ele>
        <time>2015-09-18T12:50:04Z</time>
      </trkpt>
      <trkpt lat="44.71238" lon="3.2314">
        <ele>1093.8</ele>
        <time>2015-09-18T12:50:06Z</time>
      </trkpt>
      <trkpt lat="44.71231" lon="3.23119">
        <ele>1093</ele>
        <time>2015-09-18T12:50:08Z</time>
      </trkpt>
      <trkpt lat="44.71228" lon="3.23107">
        <ele>1092.5</ele>
        <time>2015-09-18T12:50:09Z</time>
      </trkpt>
      <trkpt lat="44.71225" lon="3.23094">
        <ele>1092.1</ele>
        <time>2015-09-18T12:50:10Z</time>
      </trkpt>
      <trkpt lat="44.71222" lon="3.2308">
        <ele>1091.6</ele>
        <time>2015-09-18T12:50:11Z</time>
      </trkpt>
      <trkpt lat="44.71219" lon="3.23066">
        <ele>1091</ele>
        <time>2015-09-18T12:50:12Z</time>
      </trkpt>
      <trkpt lat="44.71214" lon="3.23052">
        <ele>1090.4</ele>
        <time>2015-09-18T12:50:13Z</time>
      </trkpt>
      <trkpt lat="44.71208" lon="3.23039">
        <ele>1089.7</ele>
        <time>2015-09-18T12:50:14Z</time>
      </trkpt>
      <trkpt lat="44.71202" lon="3.23027">
        <ele>1089</ele>
        <time>2015-09-18T12:50:15Z</time>
      </trkpt>
      <trkpt lat="44.71194" lon="3.23016">
        <ele>1088.4</ele>
        <time>2015-09-18T12:50:16Z</time>
      </trkpt>
      <trkpt lat="44.71185" lon="3.23008">
        <ele>1087.8</ele>
        <time>2015-09-18T12:50:17Z</time>
      </trkpt>
      <trkpt lat="44.71177" lon="3.22998">
        <ele>1087.1</ele>
        <time>2015-09-18T12:50:18Z</time>
      </trkpt>
      <trkpt lat="44.71169" lon="3.22988">
        <ele>1086.5</ele>
        <time>2015-09-18T12:50:19Z</time>
      </trkpt>
      <trkpt lat="44.71163" lon="3.22977">
        <ele>1086</ele>
        <time>2015-09-18T12:50:20Z</time>
      </trkpt>
      <trkpt lat="44.71158" lon="3.22955">
        <ele>1085</ele>
        <time>2015-09-18T12:50:22Z</time>
      </trkpt>
      <trkpt lat="44.71158" lon="3.22936">
        <ele>1084.1</ele>
        <time>2015-09-18T12:50:24Z</time>
      </trkpt>
      <trkpt lat="44.71161" lon="3.2292">
        <ele>1083.2</ele>
        <time>2015-09-18T12:50:27Z</time>
      </trkpt>
      <trkpt lat="44.71163" lon="3.22907">
        <ele>1082.5</ele>
        <time>2015-09-18T12:50:32Z</time>
      </trkpt>
      <trkpt lat="44.71164" lon="3.22894">
        <ele>1082.4</ele>
        <time>2015-09-18T12:50:39Z</time>
      </trkpt>
      <trkpt lat="44.71164" lon="3.2288">
        <ele>1082.8</ele>
        <time>2015-09-18T12:50:47Z</time>
      </trkpt>
      <trkpt lat="44.71165" lon="3.22866">
        <ele>1083.4</ele>
        <time>2015-09-18T12:50:55Z</time>
      </trkpt>
      <trkpt lat="44.71166" lon="3.22853">
        <ele>1084.4</ele>
        <time>2015-09-18T12:51:04Z</time>
      </trkpt>
      <trkpt lat="44.71166" lon="3.2284">
        <ele>1085.6</ele>
        <time>2015-09-18T12:51:12Z</time>
      </trkpt>
      <trkpt lat="44.71165" lon="3.22826">
        <ele>1086.7</ele>
        <time>2015-09-18T12:51:21Z</time>
      </trkpt>
      <trkpt lat="44.71161" lon="3.22814">
        <ele>1087.9</ele>
        <time>2015-09-18T12:51:30Z</time>
      </trkpt>
      <trkpt lat="44.71157" lon="3.22802">
        <ele>1089.5</ele>
        <time>2015-09-18T12:51:39Z</time>
      </trkpt>
      <trkpt lat="44.71153" lon="3.2279">
        <ele>1090.9</ele>
        <time>2015-09-18T12:51:47Z</time>
      </trkpt>
      <trkpt lat="44.71149" lon="3.22777">
        <ele>1092</ele>
        <time>2015-09-18T12:51:55Z</time>
      </trkpt>
      <trkpt lat="44.71146" lon="3.22765">
        <ele>1092.8</ele>
        <time>2015-09-18T12:52:02Z</time>
      </trkpt>
      <trkpt lat="44.71142" lon="3.22753">
        <ele>1093.4</ele>
        <time>2015-09-18T12:52:09Z</time>
      </trkpt>
      <trkpt lat="44.71138" lon="3.2274">
        <ele>1094.1</ele>
        <time>2015-09-18T12:52:17Z</time>
      </trkpt>
      <trkpt lat="44.71135" lon="3.22726">
        <ele>1095.1</ele>
        <time>2015-09-18T12:52:25Z</time>
      </trkpt>
      <trkpt lat="44.71131" lon="3.22714">
        <ele>1096.1</ele>
        <time>2015-09-18T12:52:33Z</time>
      </trkpt>
      <trkpt lat="44.71129" lon="3.227">
        <ele>1097.2</ele>
        <time>2015-09-18T12:52:41Z</time>
      </trkpt>
      <trkpt lat="44.71127" lon="3.22687">
        <ele>1098</ele>
        <time>2015-09-18T12:52:48Z</time>
      </trkpt>
      <trkpt lat="44.71124" lon="3.22674">
        <ele>1098.5</ele>
        <time>2015-09-18T12:52:54Z</time>
      </trkpt>
      <trkpt lat="44.71121" lon="3.22661">
        <ele>1099.1</ele>
        <time>2015-09-18T12:53:00Z</time>
      </trkpt>
      <trkpt lat="44.71118" lon="3.22648">
        <ele>1099.6</ele>
        <time>2015-09-18T12:53:06Z</time>
      </trkpt>
      <trkpt lat="44.71115" lon="3.22635">
        <ele>1100.1</ele>
        <time>2015-09-18T12:53:12Z</time>
      </trkpt>
      <trkpt lat="44.71112" lon="3.22622">
        <ele>1100.9</ele>
        <time>2015-09-18T12:53:21Z</time>
      </trkpt>
      <trkpt lat="44.71109" lon="3.2261">
        <ele>1101.3</ele>
        <time>2015-09-18T12:53:27Z</time>
      </trkpt>
      <trkpt lat="44.71106" lon="3.22598">
        <ele>1101.6</ele>
        <time>2015-09-18T12:53:33Z</time>
      </trkpt>
      <trkpt lat="44.71102" lon="3.22585">
        <ele>1102</ele>
        <time>2015-09-18T12:53:39Z</time>
      </trkpt>
      <trkpt lat="44.71098" lon="3.22571">
        <ele>1102.5</ele>
        <time>2015-09-18T12:53:45Z</time>
      </trkpt>
      <trkpt lat="44.71094" lon="3.22558">
        <ele>1102.9</ele>
        <time>2015-09-18T12:53:50Z</time>
      </trkpt>
      <trkpt lat="44.7109" lon="3.22545">
        <ele>1103.3</ele>
        <time>2015-09-18T12:53:55Z</time>
      </trkpt>
      <trkpt lat="44.71087" lon="3.22531">
        <ele>1103.6</ele>
        <time>2015-09-18T12:54:00Z</time>
      </trkpt>
      <trkpt lat="44.71085" lon="3.22518">
        <ele>1103.9</ele>
        <time>2015-09-18T12:54:05Z</time>
      </trkpt>
      <trkpt lat="44.71084" lon="3.22505">
        <ele>1104.1</ele>
        <time>2015-09-18T12:54:10Z</time>
      </trkpt>
      <trkpt lat="44.71082" lon="3.22492">
        <ele>1104.2</ele>
        <time>2015-09-18T12:54:15Z</time>
      </trkpt>
      <trkpt lat="44.71081" lon="3.22479">
        <ele>1104.4</ele>
        <time>2015-09-18T12:54:20Z</time>
      </trkpt>
      <trkpt lat="44.71079" lon="3.22466">
        <ele>1104.6</ele>
        <time>2015-09-18T12:54:26Z</time>
      </trkpt>
      <trkpt lat="44.71077" lon="3.22453">
        <ele>1106.4</ele>
        <time>2015-09-18T12:55:31Z</time>
      </trkpt>
      <trkpt lat="44.71079" lon="3.2244">
        <ele>1106.5</ele>
        <time>2015-09-18T12:55:37Z</time>
      </trkpt>
      <trkpt lat="44.71082" lon="3.22426">
        <ele>1106.5</ele>
        <time>2015-09-18T12:55:43Z</time>
      </trkpt>
      <trkpt lat="44.7109" lon="3.22414">
        <ele>1106.6</ele>
        <time>2015-09-18T12:55:48Z</time>
      </trkpt>
      <trkpt lat="44.71098" lon="3.22404">
        <ele>1106.6</ele>
        <time>2015-09-18T12:55:53Z</time>
      </trkpt>
      <trkpt lat="44.71108" lon="3.224">
        <ele>1106.6</ele>
        <time>2015-09-18T12:55:59Z</time>
      </trkpt>
      <trkpt lat="44.71117" lon="3.22397">
        <ele>1106.6</ele>
        <time>2015-09-18T12:56:03Z</time>
      </trkpt>
      <trkpt lat="44.71126" lon="3.22393">
        <ele>1106.7</ele>
        <time>2015-09-18T12:56:08Z</time>
      </trkpt>
      <trkpt lat="44.71135" lon="3.2239">
        <ele>1107.1</ele>
        <time>2015-09-18T12:56:13Z</time>
      </trkpt>
      <trkpt lat="44.71144" lon="3.22384">
        <ele>1108.1</ele>
        <time>2015-09-18T12:56:22Z</time>
      </trkpt>
      <trkpt lat="44.71153" lon="3.2238">
        <ele>1108.9</ele>
        <time>2015-09-18T12:56:37Z</time>
      </trkpt>
      <trkpt lat="44.71162" lon="3.22378">
        <ele>1109.2</ele>
        <time>2015-09-18T12:56:43Z</time>
      </trkpt>
      <trkpt lat="44.71172" lon="3.22378">
        <ele>1109.5</ele>
        <time>2015-09-18T12:56:49Z</time>
      </trkpt>
      <trkpt lat="44.71181" lon="3.22379">
        <ele>1109.8</ele>
        <time>2015-09-18T12:56:54Z</time>
      </trkpt>
      <trkpt lat="44.71191" lon="3.2238">
        <ele>1110.2</ele>
        <time>2015-09-18T12:56:59Z</time>
      </trkpt>
      <trkpt lat="44.71201" lon="3.22381">
        <ele>1110.7</ele>
        <time>2015-09-18T12:57:04Z</time>
      </trkpt>
      <trkpt lat="44.71211" lon="3.22379">
        <ele>1111.2</ele>
        <time>2015-09-18T12:57:09Z</time>
      </trkpt>
      <trkpt lat="44.71221" lon="3.22376">
        <ele>1111.7</ele>
        <time>2015-09-18T12:57:14Z</time>
      </trkpt>
      <trkpt lat="44.7123" lon="3.22372">
        <ele>1112</ele>
        <time>2015-09-18T12:57:18Z</time>
      </trkpt>
      <trkpt lat="44.71239" lon="3.22367">
        <ele>1112.3</ele>
        <time>2015-09-18T12:57:22Z</time>
      </trkpt>
      <trkpt lat="44.71249" lon="3.22363">
        <ele>1112.5</ele>
        <time>2015-09-18T12:57:26Z</time>
      </trkpt>
      <trkpt lat="44.71259" lon="3.22359">
        <ele>1112.7</ele>
        <time>2015-09-18T12:57:30Z</time>
      </trkpt>
      <trkpt lat="44.7127" lon="3.22355">
        <ele>1112.9</ele>
        <time>2015-09-18T12:57:34Z</time>
      </trkpt>
      <trkpt lat="44.71281" lon="3.2235">
        <ele>1113</ele>
        <time>2015-09-18T12:57:38Z</time>
      </trkpt>
      <trkpt lat="44.71291" lon="3.22342">
        <ele>1113.1</ele>
        <time>2015-09-18T12:57:42Z</time>
      </trkpt>
      <trkpt lat="44.71302" lon="3.22335">
        <ele>1113.2</ele>
        <time>2015-09-18T12:57:46Z</time>
      </trkpt>
      <trkpt lat="44.71311" lon="3.22326">
        <ele>1113.2</ele>
        <time>2015-09-18T12:57:50Z</time>
      </trkpt>
      <trkpt lat="44.71318" lon="3.22316">
        <ele>1113.2</ele>
        <time>2015-09-18T12:57:53Z</time>
      </trkpt>
      <trkpt lat="44.71319" lon="3.22301">
        <ele>1113.3</ele>
        <time>2015-09-18T12:57:56Z</time>
      </trkpt>
      <trkpt lat="44.71314" lon="3.22289">
        <ele>1113.3</ele>
        <time>2015-09-18T12:58:00Z</time>
      </trkpt>
      <trkpt lat="44.7131" lon="3.22278">
        <ele>1113.3</ele>
        <time>2015-09-18T12:58:04Z</time>
      </trkpt>
      <trkpt lat="44.71307" lon="3.22263">
        <ele>1113.5</ele>
        <time>2015-09-18T12:58:09Z</time>
      </trkpt>
      <trkpt lat="44.71304" lon="3.22248">
        <ele>1113.9</ele>
        <time>2015-09-18T12:58:14Z</time>
      </trkpt>
      <trkpt lat="44.713" lon="3.22233">
        <ele>1114.7</ele>
        <time>2015-09-18T12:58:19Z</time>
      </trkpt>
      <trkpt lat="44.71298" lon="3.2222">
        <ele>1115.3</ele>
        <time>2015-09-18T12:58:23Z</time>
      </trkpt>
      <trkpt lat="44.71293" lon="3.22206">
        <ele>1116.1</ele>
        <time>2015-09-18T12:58:28Z</time>
      </trkpt>
      <trkpt lat="44.71292" lon="3.22191">
        <ele>1116.9</ele>
        <time>2015-09-18T12:58:33Z</time>
      </trkpt>
      <trkpt lat="44.7129" lon="3.22177">
        <ele>1117.7</ele>
        <time>2015-09-18T12:58:38Z</time>
      </trkpt>
      <trkpt lat="44.71288" lon="3.22163">
        <ele>1118.5</ele>
        <time>2015-09-18T12:58:43Z</time>
      </trkpt>
      <trkpt lat="44.71285" lon="3.2215">
        <ele>1119.2</ele>
        <time>2015-09-18T12:58:48Z</time>
      </trkpt>
      <trkpt lat="44.71283" lon="3.22137">
        <ele>1119.9</ele>
        <time>2015-09-18T12:58:53Z</time>
      </trkpt>
      <trkpt lat="44.7128" lon="3.22125">
        <ele>1120.6</ele>
        <time>2015-09-18T12:58:58Z</time>
      </trkpt>
      <trkpt lat="44.71277" lon="3.22111">
        <ele>1121.3</ele>
        <time>2015-09-18T12:59:04Z</time>
      </trkpt>
      <trkpt lat="44.71274" lon="3.22096">
        <ele>1122</ele>
        <time>2015-09-18T12:59:10Z</time>
      </trkpt>
      <trkpt lat="44.71272" lon="3.22084">
        <ele>1122.5</ele>
        <time>2015-09-18T12:59:15Z</time>
      </trkpt>
      <trkpt lat="44.71268" lon="3.22071">
        <ele>1123</ele>
        <time>2015-09-18T12:59:20Z</time>
      </trkpt>
      <trkpt lat="44.71265" lon="3.22057">
        <ele>1123.5</ele>
        <time>2015-09-18T12:59:25Z</time>
      </trkpt>
      <trkpt lat="44.71263" lon="3.22044">
        <ele>1124</ele>
        <time>2015-09-18T12:59:30Z</time>
      </trkpt>
      <trkpt lat="44.7126" lon="3.22031">
        <ele>1124.5</ele>
        <time>2015-09-18T12:59:35Z</time>
      </trkpt>
      <trkpt lat="44.71256" lon="3.22016">
        <ele>1125</ele>
        <time>2015-09-18T12:59:41Z</time>
      </trkpt>
      <trkpt lat="44.71252" lon="3.22003">
        <ele>1125.5</ele>
        <time>2015-09-18T12:59:46Z</time>
      </trkpt>
      <trkpt lat="44.71248" lon="3.21989">
        <ele>1126</ele>
        <time>2015-09-18T12:59:51Z</time>
      </trkpt>
      <trkpt lat="44.71245" lon="3.21975">
        <ele>1126.5</ele>
        <time>2015-09-18T12:59:56Z</time>
      </trkpt>
      <trkpt lat="44.71241" lon="3.21962">
        <ele>1126.9</ele>
        <time>2015-09-18T13:00:01Z</time>
      </trkpt>
      <trkpt lat="44.71238" lon="3.2195">
        <ele>1127.5</ele>
        <time>2015-09-18T13:00:06Z</time>
      </trkpt>
      <trkpt lat="44.71236" lon="3.21937">
        <ele>1128.3</ele>
        <time>2015-09-18T13:00:11Z</time>
      </trkpt>
      <trkpt lat="44.71231" lon="3.21924">
        <ele>1129.1</ele>
        <time>2015-09-18T13:00:17Z</time>
      </trkpt>
      <trkpt lat="44.71225" lon="3.21913">
        <ele>1130.2</ele>
        <time>2015-09-18T13:00:26Z</time>
      </trkpt>
      <trkpt lat="44.71221" lon="3.21902">
        <ele>1131.1</ele>
        <time>2015-09-18T13:00:35Z</time>
      </trkpt>
      <trkpt lat="44.71217" lon="3.21888">
        <ele>1131.6</ele>
        <time>2015-09-18T13:00:42Z</time>
      </trkpt>
      <trkpt lat="44.71212" lon="3.21875">
        <ele>1131.8</ele>
        <time>2015-09-18T13:00:46Z</time>
      </trkpt>
      <trkpt lat="44.71207" lon="3.21864">
        <ele>1132</ele>
        <time>2015-09-18T13:00:50Z</time>
      </trkpt>
      <trkpt lat="44.71201" lon="3.21854">
        <ele>1132.2</ele>
        <time>2015-09-18T13:00:54Z</time>
      </trkpt>
      <trkpt lat="44.71194" lon="3.21844">
        <ele>1132.6</ele>
        <time>2015-09-18T13:00:59Z</time>
      </trkpt>
      <trkpt lat="44.7119" lon="3.21833">
        <ele>1132.9</ele>
        <time>2015-09-18T13:01:04Z</time>
      </trkpt>
      <trkpt lat="44.71186" lon="3.21821">
        <ele>1134.3</ele>
        <time>2015-09-18T13:01:57Z</time>
      </trkpt>
      <trkpt lat="44.71186" lon="3.21807">
        <ele>1134.4</ele>
        <time>2015-09-18T13:02:02Z</time>
      </trkpt>
      <trkpt lat="44.71187" lon="3.21794">
        <ele>1134.5</ele>
        <time>2015-09-18T13:02:07Z</time>
      </trkpt>
      <trkpt lat="44.71187" lon="3.2178">
        <ele>1134.6</ele>
        <time>2015-09-18T13:02:12Z</time>
      </trkpt>
      <trkpt lat="44.71188" lon="3.21766">
        <ele>1134.7</ele>
        <time>2015-09-18T13:02:17Z</time>
      </trkpt>
      <trkpt lat="44.71188" lon="3.2175">
        <ele>1134.9</ele>
        <time>2015-09-18T13:02:22Z</time>
      </trkpt>
      <trkpt lat="44.7119" lon="3.21736">
        <ele>1135.2</ele>
        <time>2015-09-18T13:02:27Z</time>
      </trkpt>
      <trkpt lat="44.7119" lon="3.21723">
        <ele>1135.7</ele>
        <time>2015-09-18T13:02:32Z</time>
      </trkpt>
      <trkpt lat="44.71192" lon="3.21709">
        <ele>1136.2</ele>
        <time>2015-09-18T13:02:37Z</time>
      </trkpt>
      <trkpt lat="44.71192" lon="3.21695">
        <ele>1136.8</ele>
        <time>2015-09-18T13:02:42Z</time>
      </trkpt>
      <trkpt lat="44.71192" lon="3.21681">
        <ele>1137.4</ele>
        <time>2015-09-18T13:02:47Z</time>
      </trkpt>
      <trkpt lat="44.71192" lon="3.21668">
        <ele>1138</ele>
        <time>2015-09-18T13:02:52Z</time>
      </trkpt>
      <trkpt lat="44.71191" lon="3.21655">
        <ele>1138.7</ele>
        <time>2015-09-18T13:02:57Z</time>
      </trkpt>
      <trkpt lat="44.7119" lon="3.21642">
        <ele>1139.3</ele>
        <time>2015-09-18T13:03:02Z</time>
      </trkpt>
      <trkpt lat="44.71188" lon="3.21629">
        <ele>1140</ele>
        <time>2015-09-18T13:03:08Z</time>
      </trkpt>
      <trkpt lat="44.71183" lon="3.21614">
        <ele>1140.7</ele>
        <time>2015-09-18T13:03:13Z</time>
      </trkpt>
      <trkpt lat="44.71179" lon="3.21602">
        <ele>1141.4</ele>
        <time>2015-09-18T13:03:17Z</time>
      </trkpt>
      <trkpt lat="44.71174" lon="3.2159">
        <ele>1142.1</ele>
        <time>2015-09-18T13:03:21Z</time>
      </trkpt>
      <trkpt lat="44.71169" lon="3.21579">
        <ele>1142.7</ele>
        <time>2015-09-18T13:03:25Z</time>
      </trkpt>
      <trkpt lat="44.71164" lon="3.21568">
        <ele>1143.4</ele>
        <time>2015-09-18T13:03:30Z</time>
      </trkpt>
      <trkpt lat="44.71158" lon="3.21556">
        <ele>1143.7</ele>
        <time>2015-09-18T13:03:34Z</time>
      </trkpt>
      <trkpt lat="44.71152" lon="3.21544">
        <ele>1144</ele>
        <time>2015-09-18T13:03:38Z</time>
      </trkpt>
      <trkpt lat="44.71146" lon="3.21533">
        <ele>1144.2</ele>
        <time>2015-09-18T13:03:41Z</time>
      </trkpt>
      <trkpt lat="44.71139" lon="3.21521">
        <ele>1144.4</ele>
        <time>2015-09-18T13:03:45Z</time>
      </trkpt>
      <trkpt lat="44.71133" lon="3.21511">
        <ele>1144.5</ele>
        <time>2015-09-18T13:03:48Z</time>
      </trkpt>
      <trkpt lat="44.71126" lon="3.21498">
        <ele>1144.6</ele>
        <time>2015-09-18T13:03:51Z</time>
      </trkpt>
      <trkpt lat="44.71119" lon="3.21487">
        <ele>1144.7</ele>
        <time>2015-09-18T13:03:54Z</time>
      </trkpt>
      <trkpt lat="44.7111" lon="3.21478">
        <ele>1144.7</ele>
        <time>2015-09-18T13:03:57Z</time>
      </trkpt>
      <trkpt lat="44.71102" lon="3.21469">
        <ele>1144.8</ele>
        <time>2015-09-18T13:04:00Z</time>
      </trkpt>
      <trkpt lat="44.71094" lon="3.21458">
        <ele>1144.8</ele>
        <time>2015-09-18T13:04:03Z</time>
      </trkpt>
      <trkpt lat="44.71086" lon="3.21447">
        <ele>1144.9</ele>
        <time>2015-09-18T13:04:06Z</time>
      </trkpt>
      <trkpt lat="44.71079" lon="3.21436">
        <ele>1144.9</ele>
        <time>2015-09-18T13:04:09Z</time>
      </trkpt>
      <trkpt lat="44.71074" lon="3.21425">
        <ele>1144.9</ele>
        <time>2015-09-18T13:04:12Z</time>
      </trkpt>
      <trkpt lat="44.71068" lon="3.21411">
        <ele>1144.9</ele>
        <time>2015-09-18T13:04:15Z</time>
      </trkpt>
      <trkpt lat="44.71062" lon="3.21401">
        <ele>1145</ele>
        <time>2015-09-18T13:04:18Z</time>
      </trkpt>
      <trkpt lat="44.71057" lon="3.21388">
        <ele>1145</ele>
        <time>2015-09-18T13:04:21Z</time>
      </trkpt>
      <trkpt lat="44.71051" lon="3.21371">
        <ele>1145</ele>
        <time>2015-09-18T13:04:24Z</time>
      </trkpt>
      <trkpt lat="44.71045" lon="3.21355">
        <ele>1145</ele>
        <time>2015-09-18T13:04:27Z</time>
      </trkpt>
      <trkpt lat="44.71042" lon="3.21339">
        <ele>1145</ele>
        <time>2015-09-18T13:04:30Z</time>
      </trkpt>
      <trkpt lat="44.71039" lon="3.21324">
        <ele>1145</ele>
        <time>2015-09-18T13:04:33Z</time>
      </trkpt>
      <trkpt lat="44.71037" lon="3.2131">
        <ele>1145</ele>
        <time>2015-09-18T13:04:36Z</time>
      </trkpt>
      <trkpt lat="44.71035" lon="3.21297">
        <ele>1145</ele>
        <time>2015-09-18T13:04:39Z</time>
      </trkpt>
      <trkpt lat="44.71032" lon="3.21283">
        <ele>1144.9</ele>
        <time>2015-09-18T13:04:42Z</time>
      </trkpt>
      <trkpt lat="44.71028" lon="3.21268">
        <ele>1144.8</ele>
        <time>2015-09-18T13:04:45Z</time>
      </trkpt>
      <trkpt lat="44.71024" lon="3.21253">
        <ele>1144.7</ele>
        <time>2015-09-18T13:04:48Z</time>
      </trkpt>
      <trkpt lat="44.7102" lon="3.21238">
        <ele>1144.5</ele>
        <time>2015-09-18T13:04:51Z</time>
      </trkpt>
      <trkpt lat="44.71014" lon="3.21222">
        <ele>1144.3</ele>
        <time>2015-09-18T13:04:54Z</time>
      </trkpt>
      <trkpt lat="44.71011" lon="3.2121">
        <ele>1144.1</ele>
        <time>2015-09-18T13:04:56Z</time>
      </trkpt>
      <trkpt lat="44.71007" lon="3.21198">
        <ele>1143.9</ele>
        <time>2015-09-18T13:04:58Z</time>
      </trkpt>
      <trkpt lat="44.71004" lon="3.21183">
        <ele>1143.7</ele>
        <time>2015-09-18T13:05:00Z</time>
      </trkpt>
      <trkpt lat="44.71002" lon="3.21168">
        <ele>1143.4</ele>
        <time>2015-09-18T13:05:02Z</time>
      </trkpt>
      <trkpt lat="44.71" lon="3.21154">
        <ele>1143.2</ele>
        <time>2015-09-18T13:05:04Z</time>
      </trkpt>
      <trkpt lat="44.70998" lon="3.21139">
        <ele>1142.9</ele>
        <time>2015-09-18T13:05:06Z</time>
      </trkpt>
      <trkpt lat="44.70997" lon="3.21125">
        <ele>1142.6</ele>
        <time>2015-09-18T13:05:08Z</time>
      </trkpt>
      <trkpt lat="44.70994" lon="3.2111">
        <ele>1142.3</ele>
        <time>2015-09-18T13:05:10Z</time>
      </trkpt>
      <trkpt lat="44.70991" lon="3.21096">
        <ele>1142</ele>
        <time>2015-09-18T13:05:12Z</time>
      </trkpt>
      <trkpt lat="44.70987" lon="3.21082">
        <ele>1141.7</ele>
        <time>2015-09-18T13:05:14Z</time>
      </trkpt>
      <trkpt lat="44.70981" lon="3.21068">
        <ele>1141.3</ele>
        <time>2015-09-18T13:05:16Z</time>
      </trkpt>
      <trkpt lat="44.70978" lon="3.21053">
        <ele>1141</ele>
        <time>2015-09-18T13:05:18Z</time>
      </trkpt>
      <trkpt lat="44.70974" lon="3.21039">
        <ele>1140.7</ele>
        <time>2015-09-18T13:05:20Z</time>
      </trkpt>
      <trkpt lat="44.7097" lon="3.21025">
        <ele>1140.3</ele>
        <time>2015-09-18T13:05:22Z</time>
      </trkpt>
      <trkpt lat="44.70965" lon="3.21012">
        <ele>1140</ele>
        <time>2015-09-18T13:05:24Z</time>
      </trkpt>
      <trkpt lat="44.70963" lon="3.20997">
        <ele>1139.8</ele>
        <time>2015-09-18T13:05:26Z</time>
      </trkpt>
      <trkpt lat="44.70961" lon="3.20982">
        <ele>1139.6</ele>
        <time>2015-09-18T13:05:28Z</time>
      </trkpt>
      <trkpt lat="44.70959" lon="3.20968">
        <ele>1139.4</ele>
        <time>2015-09-18T13:05:30Z</time>
      </trkpt>
      <trkpt lat="44.70958" lon="3.20949">
        <ele>1139.1</ele>
        <time>2015-09-18T13:05:33Z</time>
      </trkpt>
      <trkpt lat="44.70956" lon="3.20936">
        <ele>1139</ele>
        <time>2015-09-18T13:05:35Z</time>
      </trkpt>
      <trkpt lat="44.70953" lon="3.20919">
        <ele>1138.8</ele>
        <time>2015-09-18T13:05:38Z</time>
      </trkpt>
      <trkpt lat="44.70952" lon="3.20904">
        <ele>1138.7</ele>
        <time>2015-09-18T13:05:41Z</time>
      </trkpt>
      <trkpt lat="44.70951" lon="3.2089">
        <ele>1138.6</ele>
        <time>2015-09-18T13:05:44Z</time>
      </trkpt>
      <trkpt lat="44.70951" lon="3.20875">
        <ele>1138.7</ele>
        <time>2015-09-18T13:05:47Z</time>
      </trkpt>
      <trkpt lat="44.70949" lon="3.20859">
        <ele>1138.7</ele>
        <time>2015-09-18T13:05:50Z</time>
      </trkpt>
      <trkpt lat="44.70948" lon="3.20845">
        <ele>1138.8</ele>
        <time>2015-09-18T13:05:53Z</time>
      </trkpt>
      <trkpt lat="44.70946" lon="3.20831">
        <ele>1138.8</ele>
        <time>2015-09-18T13:05:56Z</time>
      </trkpt>
      <trkpt lat="44.70944" lon="3.20814">
        <ele>1138.8</ele>
        <time>2015-09-18T13:05:59Z</time>
      </trkpt>
      <trkpt lat="44.70942" lon="3.20802">
        <ele>1138.6</ele>
        <time>2015-09-18T13:06:01Z</time>
      </trkpt>
      <trkpt lat="44.7094" lon="3.20787">
        <ele>1138.5</ele>
        <time>2015-09-18T13:06:03Z</time>
      </trkpt>
      <trkpt lat="44.70938" lon="3.20773">
        <ele>1138.3</ele>
        <time>2015-09-18T13:06:05Z</time>
      </trkpt>
      <trkpt lat="44.70935" lon="3.20758">
        <ele>1138.1</ele>
        <time>2015-09-18T13:06:07Z</time>
      </trkpt>
      <trkpt lat="44.70933" lon="3.20742">
        <ele>1137.8</ele>
        <time>2015-09-18T13:06:09Z</time>
      </trkpt>
      <trkpt lat="44.7093" lon="3.20727">
        <ele>1137.5</ele>
        <time>2015-09-18T13:06:11Z</time>
      </trkpt>
      <trkpt lat="44.70927" lon="3.20712">
        <ele>1137.1</ele>
        <time>2015-09-18T13:06:13Z</time>
      </trkpt>
      <trkpt lat="44.70924" lon="3.20695">
        <ele>1136.7</ele>
        <time>2015-09-18T13:06:15Z</time>
      </trkpt>
      <trkpt lat="44.70921" lon="3.20677">
        <ele>1136.3</ele>
        <time>2015-09-18T13:06:17Z</time>
      </trkpt>
      <trkpt lat="44.70917" lon="3.20657">
        <ele>1135.7</ele>
        <time>2015-09-18T13:06:19Z</time>
      </trkpt>
      <trkpt lat="44.70909" lon="3.2064">
        <ele>1135</ele>
        <time>2015-09-18T13:06:21Z</time>
      </trkpt>
      <trkpt lat="44.709" lon="3.20621">
        <ele>1134.3</ele>
        <time>2015-09-18T13:06:23Z</time>
      </trkpt>
      <trkpt lat="44.70891" lon="3.20604">
        <ele>1133.6</ele>
        <time>2015-09-18T13:06:25Z</time>
      </trkpt>
      <trkpt lat="44.70883" lon="3.20588">
        <ele>1132.8</ele>
        <time>2015-09-18T13:06:27Z</time>
      </trkpt>
      <trkpt lat="44.70875" lon="3.20571">
        <ele>1132.1</ele>
        <time>2015-09-18T13:06:29Z</time>
      </trkpt>
      <trkpt lat="44.70867" lon="3.20553">
        <ele>1131.5</ele>
        <time>2015-09-18T13:06:31Z</time>
      </trkpt>
      <trkpt lat="44.70861" lon="3.20536">
        <ele>1130.9</ele>
        <time>2015-09-18T13:06:33Z</time>
      </trkpt>
      <trkpt lat="44.70859" lon="3.20519">
        <ele>1130.3</ele>
        <time>2015-09-18T13:06:35Z</time>
      </trkpt>
      <trkpt lat="44.70859" lon="3.20502">
        <ele>1129.8</ele>
        <time>2015-09-18T13:06:37Z</time>
      </trkpt>
      <trkpt lat="44.7086" lon="3.20487">
        <ele>1129.3</ele>
        <time>2015-09-18T13:06:39Z</time>
      </trkpt>
      <trkpt lat="44.7086" lon="3.20473">
        <ele>1128.8</ele>
        <time>2015-09-18T13:06:41Z</time>
      </trkpt>
      <trkpt lat="44.7086" lon="3.20461">
        <ele>1128.5</ele>
        <time>2015-09-18T13:06:43Z</time>
      </trkpt>
      <trkpt lat="44.70859" lon="3.20442">
        <ele>1128</ele>
        <time>2015-09-18T13:06:46Z</time>
      </trkpt>
      <trkpt lat="44.70855" lon="3.20428">
        <ele>1127.7</ele>
        <time>2015-09-18T13:06:49Z</time>
      </trkpt>
      <trkpt lat="44.70851" lon="3.20415">
        <ele>1127.5</ele>
        <time>2015-09-18T13:06:52Z</time>
      </trkpt>
      <trkpt lat="44.70846" lon="3.20404">
        <ele>1127.4</ele>
        <time>2015-09-18T13:06:55Z</time>
      </trkpt>
      <trkpt lat="44.70841" lon="3.20392">
        <ele>1127.4</ele>
        <time>2015-09-18T13:06:59Z</time>
      </trkpt>
      <trkpt lat="44.70836" lon="3.2038">
        <ele>1127.5</ele>
        <time>2015-09-18T13:07:03Z</time>
      </trkpt>
      <trkpt lat="44.7083" lon="3.20369">
        <ele>1127.7</ele>
        <time>2015-09-18T13:07:07Z</time>
      </trkpt>
      <trkpt lat="44.70825" lon="3.20356">
        <ele>1128.2</ele>
        <time>2015-09-18T13:07:12Z</time>
      </trkpt>
      <trkpt lat="44.70817" lon="3.20344">
        <ele>1128.6</ele>
        <time>2015-09-18T13:07:17Z</time>
      </trkpt>
      <trkpt lat="44.70811" lon="3.20332">
        <ele>1129</ele>
        <time>2015-09-18T13:07:22Z</time>
      </trkpt>
      <trkpt lat="44.70804" lon="3.20323">
        <ele>1129.4</ele>
        <time>2015-09-18T13:07:26Z</time>
      </trkpt>
      <trkpt lat="44.70796" lon="3.20313">
        <ele>1129.9</ele>
        <time>2015-09-18T13:07:31Z</time>
      </trkpt>
      <trkpt lat="44.70788" lon="3.20305">
        <ele>1130.3</ele>
        <time>2015-09-18T13:07:36Z</time>
      </trkpt>
      <trkpt lat="44.7078" lon="3.20298">
        <ele>1130.8</ele>
        <time>2015-09-18T13:07:41Z</time>
      </trkpt>
      <trkpt lat="44.70772" lon="3.20291">
        <ele>1131.2</ele>
        <time>2015-09-18T13:07:46Z</time>
      </trkpt>
      <trkpt lat="44.70763" lon="3.20282">
        <ele>1131.6</ele>
        <time>2015-09-18T13:07:51Z</time>
      </trkpt>
      <trkpt lat="44.70756" lon="3.20275">
        <ele>1131.9</ele>
        <time>2015-09-18T13:07:56Z</time>
      </trkpt>
      <trkpt lat="44.70748" lon="3.20266">
        <ele>1132.2</ele>
        <time>2015-09-18T13:08:01Z</time>
      </trkpt>
      <trkpt lat="44.70744" lon="3.20255">
        <ele>1132.6</ele>
        <time>2015-09-18T13:08:06Z</time>
      </trkpt>
      <trkpt lat="44.70739" lon="3.20243">
        <ele>1133.1</ele>
        <time>2015-09-18T13:08:12Z</time>
      </trkpt>
      <trkpt lat="44.70737" lon="3.20229">
        <ele>1133.7</ele>
        <time>2015-09-18T13:08:18Z</time>
      </trkpt>
      <trkpt lat="44.70736" lon="3.20215">
        <ele>1134.4</ele>
        <time>2015-09-18T13:08:24Z</time>
      </trkpt>
      <trkpt lat="44.70737" lon="3.20201">
        <ele>1135.4</ele>
        <time>2015-09-18T13:08:31Z</time>
      </trkpt>
      <trkpt lat="44.70738" lon="3.20187">
        <ele>1136.4</ele>
        <time>2015-09-18T13:08:38Z</time>
      </trkpt>
      <trkpt lat="44.70739" lon="3.20174">
        <ele>1137.4</ele>
        <time>2015-09-18T13:08:44Z</time>
      </trkpt>
      <trkpt lat="44.70737" lon="3.20161">
        <ele>1138.1</ele>
        <time>2015-09-18T13:08:49Z</time>
      </trkpt>
      <trkpt lat="44.70735" lon="3.20149">
        <ele>1138.7</ele>
        <time>2015-09-18T13:08:54Z</time>
      </trkpt>
      <trkpt lat="44.70731" lon="3.20136">
        <ele>1139.3</ele>
        <time>2015-09-18T13:09:00Z</time>
      </trkpt>
      <trkpt lat="44.70726" lon="3.20125">
        <ele>1140</ele>
        <time>2015-09-18T13:09:06Z</time>
      </trkpt>
      <trkpt lat="44.70721" lon="3.20113">
        <ele>1140.8</ele>
        <time>2015-09-18T13:09:13Z</time>
      </trkpt>
      <trkpt lat="44.70715" lon="3.20102">
        <ele>1141.4</ele>
        <time>2015-09-18T13:09:19Z</time>
      </trkpt>
      <trkpt lat="44.70712" lon="3.2009">
        <ele>1142.1</ele>
        <time>2015-09-18T13:09:25Z</time>
      </trkpt>
      <trkpt lat="44.70708" lon="3.20077">
        <ele>1142.7</ele>
        <time>2015-09-18T13:09:31Z</time>
      </trkpt>
      <trkpt lat="44.70707" lon="3.20065">
        <ele>1143.2</ele>
        <time>2015-09-18T13:09:37Z</time>
      </trkpt>
      <trkpt lat="44.70705" lon="3.20051">
        <ele>1144</ele>
        <time>2015-09-18T13:09:44Z</time>
      </trkpt>
      <trkpt lat="44.70702" lon="3.20038">
        <ele>1144.7</ele>
        <time>2015-09-18T13:09:50Z</time>
      </trkpt>
      <trkpt lat="44.70699" lon="3.20024">
        <ele>1145.6</ele>
        <time>2015-09-18T13:09:57Z</time>
      </trkpt>
      <trkpt lat="44.70695" lon="3.20011">
        <ele>1146.5</ele>
        <time>2015-09-18T13:10:04Z</time>
      </trkpt>
      <trkpt lat="44.70691" lon="3.19999">
        <ele>1147.3</ele>
        <time>2015-09-18T13:10:11Z</time>
      </trkpt>
      <trkpt lat="44.70686" lon="3.19986">
        <ele>1148.2</ele>
        <time>2015-09-18T13:10:18Z</time>
      </trkpt>
      <trkpt lat="44.70681" lon="3.19975">
        <ele>1149.1</ele>
        <time>2015-09-18T13:10:24Z</time>
      </trkpt>
      <trkpt lat="44.70677" lon="3.1996">
        <ele>1149.9</ele>
        <time>2015-09-18T13:10:31Z</time>
      </trkpt>
      <trkpt lat="44.70673" lon="3.19948">
        <ele>1150.6</ele>
        <time>2015-09-18T13:10:37Z</time>
      </trkpt>
      <trkpt lat="44.70668" lon="3.19934">
        <ele>1151.3</ele>
        <time>2015-09-18T13:10:43Z</time>
      </trkpt>
      <trkpt lat="44.70665" lon="3.19922">
        <ele>1152.4</ele>
        <time>2015-09-18T13:10:49Z</time>
      </trkpt>
      <trkpt lat="44.70663" lon="3.19908">
        <ele>1153.4</ele>
        <time>2015-09-18T13:10:55Z</time>
      </trkpt>
      <trkpt lat="44.70661" lon="3.19895">
        <ele>1154.6</ele>
        <time>2015-09-18T13:11:02Z</time>
      </trkpt>
      <trkpt lat="44.70662" lon="3.1988">
        <ele>1155.6</ele>
        <time>2015-09-18T13:11:10Z</time>
      </trkpt>
      <trkpt lat="44.70666" lon="3.19867">
        <ele>1156.4</ele>
        <time>2015-09-18T13:11:16Z</time>
      </trkpt>
      <trkpt lat="44.70667" lon="3.19854">
        <ele>1157.4</ele>
        <time>2015-09-18T13:11:22Z</time>
      </trkpt>
      <trkpt lat="44.70672" lon="3.19841">
        <ele>1158.2</ele>
        <time>2015-09-18T13:11:28Z</time>
      </trkpt>
      <trkpt lat="44.70674" lon="3.19827">
        <ele>1159</ele>
        <time>2015-09-18T13:11:34Z</time>
      </trkpt>
      <trkpt lat="44.70674" lon="3.19812">
        <ele>1159.9</ele>
        <time>2015-09-18T13:11:40Z</time>
      </trkpt>
      <trkpt lat="44.70676" lon="3.19799">
        <ele>1160.8</ele>
        <time>2015-09-18T13:11:46Z</time>
      </trkpt>
      <trkpt lat="44.70678" lon="3.19785">
        <ele>1161.5</ele>
        <time>2015-09-18T13:11:52Z</time>
      </trkpt>
      <trkpt lat="44.70679" lon="3.19771">
        <ele>1162.1</ele>
        <time>2015-09-18T13:11:58Z</time>
      </trkpt>
      <trkpt lat="44.70682" lon="3.19757">
        <ele>1162.8</ele>
        <time>2015-09-18T13:12:04Z</time>
      </trkpt>
      <trkpt lat="44.70684" lon="3.19744">
        <ele>1163.5</ele>
        <time>2015-09-18T13:12:10Z</time>
      </trkpt>
      <trkpt lat="44.70686" lon="3.19731">
        <ele>1164.1</ele>
        <time>2015-09-18T13:12:16Z</time>
      </trkpt>
      <trkpt lat="44.70687" lon="3.19718">
        <ele>1164.9</ele>
        <time>2015-09-18T13:12:23Z</time>
      </trkpt>
      <trkpt lat="44.7069" lon="3.19705">
        <ele>1165.6</ele>
        <time>2015-09-18T13:12:30Z</time>
      </trkpt>
      <trkpt lat="44.70692" lon="3.19691">
        <ele>1166.3</ele>
        <time>2015-09-18T13:12:37Z</time>
      </trkpt>
      <trkpt lat="44.70693" lon="3.19676">
        <ele>1166.9</ele>
        <time>2015-09-18T13:12:44Z</time>
      </trkpt>
      <trkpt lat="44.70694" lon="3.19662">
        <ele>1167.5</ele>
        <time>2015-09-18T13:12:51Z</time>
      </trkpt>
      <trkpt lat="44.70695" lon="3.1965">
        <ele>1167.9</ele>
        <time>2015-09-18T13:12:57Z</time>
      </trkpt>
      <trkpt lat="44.70697" lon="3.19636">
        <ele>1168.4</ele>
        <time>2015-09-18T13:13:04Z</time>
      </trkpt>
      <trkpt lat="44.70699" lon="3.19622">
        <ele>1168.9</ele>
        <time>2015-09-18T13:13:10Z</time>
      </trkpt>
      <trkpt lat="44.707" lon="3.19609">
        <ele>1169.3</ele>
        <time>2015-09-18T13:13:16Z</time>
      </trkpt>
      <trkpt lat="44.707" lon="3.19596">
        <ele>1170</ele>
        <time>2015-09-18T13:13:22Z</time>
      </trkpt>
      <trkpt lat="44.70702" lon="3.19581">
        <ele>1170.7</ele>
        <time>2015-09-18T13:13:29Z</time>
      </trkpt>
      <trkpt lat="44.70702" lon="3.19568">
        <ele>1171.3</ele>
        <time>2015-09-18T13:13:35Z</time>
      </trkpt>
      <trkpt lat="44.70703" lon="3.19553">
        <ele>1171.9</ele>
        <time>2015-09-18T13:13:42Z</time>
      </trkpt>
      <trkpt lat="44.70703" lon="3.19539">
        <ele>1172.7</ele>
        <time>2015-09-18T13:13:49Z</time>
      </trkpt>
      <trkpt lat="44.70703" lon="3.19525">
        <ele>1173.4</ele>
        <time>2015-09-18T13:13:56Z</time>
      </trkpt>
      <trkpt lat="44.70701" lon="3.19511">
        <ele>1173.8</ele>
        <time>2015-09-18T13:14:02Z</time>
      </trkpt>
      <trkpt lat="44.70701" lon="3.19499">
        <ele>1174.2</ele>
        <time>2015-09-18T13:14:08Z</time>
      </trkpt>
      <trkpt lat="44.70701" lon="3.19485">
        <ele>1174.6</ele>
        <time>2015-09-18T13:14:14Z</time>
      </trkpt>
      <trkpt lat="44.70701" lon="3.19472">
        <ele>1174.8</ele>
        <time>2015-09-18T13:14:19Z</time>
      </trkpt>
      <trkpt lat="44.70699" lon="3.19459">
        <ele>1175</ele>
        <time>2015-09-18T13:14:24Z</time>
      </trkpt>
      <trkpt lat="44.70699" lon="3.19446">
        <ele>1175.2</ele>
        <time>2015-09-18T13:14:29Z</time>
      </trkpt>
      <trkpt lat="44.70699" lon="3.19431">
        <ele>1175.4</ele>
        <time>2015-09-18T13:14:34Z</time>
      </trkpt>
      <trkpt lat="44.70696" lon="3.19418">
        <ele>1175.7</ele>
        <time>2015-09-18T13:14:39Z</time>
      </trkpt>
      <trkpt lat="44.70694" lon="3.19403">
        <ele>1176</ele>
        <time>2015-09-18T13:14:44Z</time>
      </trkpt>
      <trkpt lat="44.70692" lon="3.19388">
        <ele>1176.3</ele>
        <time>2015-09-18T13:14:49Z</time>
      </trkpt>
      <trkpt lat="44.70689" lon="3.19372">
        <ele>1176.5</ele>
        <time>2015-09-18T13:14:54Z</time>
      </trkpt>
      <trkpt lat="44.70688" lon="3.19358">
        <ele>1176.7</ele>
        <time>2015-09-18T13:14:58Z</time>
      </trkpt>
      <trkpt lat="44.70688" lon="3.19343">
        <ele>1176.8</ele>
        <time>2015-09-18T13:15:02Z</time>
      </trkpt>
      <trkpt lat="44.70688" lon="3.19329">
        <ele>1176.9</ele>
        <time>2015-09-18T13:15:06Z</time>
      </trkpt>
      <trkpt lat="44.70688" lon="3.19314">
        <ele>1177</ele>
        <time>2015-09-18T13:15:10Z</time>
      </trkpt>
      <trkpt lat="44.70689" lon="3.19301">
        <ele>1176.9</ele>
        <time>2015-09-18T13:15:14Z</time>
      </trkpt>
      <trkpt lat="44.7069" lon="3.19286">
        <ele>1176.9</ele>
        <time>2015-09-18T13:15:19Z</time>
      </trkpt>
      <trkpt lat="44.70688" lon="3.19273">
        <ele>1176.7</ele>
        <time>2015-09-18T13:15:23Z</time>
      </trkpt>
      <trkpt lat="44.7069" lon="3.1926">
        <ele>1176.5</ele>
        <time>2015-09-18T13:15:27Z</time>
      </trkpt>
      <trkpt lat="44.707" lon="3.1926">
        <ele>1175.9</ele>
        <time>2015-09-18T13:16:02Z</time>
      </trkpt>
      <trkpt lat="44.70709" lon="3.19259">
        <ele>1175.9</ele>
        <time>2015-09-18T13:16:06Z</time>
      </trkpt>
      <trkpt lat="44.7072" lon="3.19258">
        <ele>1175.9</ele>
        <time>2015-09-18T13:16:11Z</time>
      </trkpt>
      <trkpt lat="44.70711" lon="3.19254">
        <ele>1175.8</ele>
        <time>2015-09-18T13:16:26Z</time>
      </trkpt>
      <trkpt lat="44.707" lon="3.19255">
        <ele>1175.8</ele>
        <time>2015-09-18T13:16:32Z</time>
      </trkpt>
      <trkpt lat="44.70691" lon="3.19254">
        <ele>1175.8</ele>
        <time>2015-09-18T13:16:43Z</time>
      </trkpt>
      <trkpt lat="44.7069" lon="3.19241">
        <ele>1175.9</ele>
        <time>2015-09-18T13:25:25Z</time>
      </trkpt>
      <trkpt lat="44.7069" lon="3.19226">
        <ele>1175.9</ele>
        <time>2015-09-18T13:25:28Z</time>
      </trkpt>
      <trkpt lat="44.7069" lon="3.1921">
        <ele>1175.8</ele>
        <time>2015-09-18T13:25:31Z</time>
      </trkpt>
      <trkpt lat="44.70691" lon="3.19195">
        <ele>1175.7</ele>
        <time>2015-09-18T13:25:34Z</time>
      </trkpt>
      <trkpt lat="44.70691" lon="3.19182">
        <ele>1175.6</ele>
        <time>2015-09-18T13:25:37Z</time>
      </trkpt>
      <trkpt lat="44.70691" lon="3.19167">
        <ele>1175.5</ele>
        <time>2015-09-18T13:25:40Z</time>
      </trkpt>
      <trkpt lat="44.70692" lon="3.1915">
        <ele>1175.5</ele>
        <time>2015-09-18T13:25:43Z</time>
      </trkpt>
      <trkpt lat="44.70692" lon="3.19135">
        <ele>1175.4</ele>
        <time>2015-09-18T13:25:46Z</time>
      </trkpt>
      <trkpt lat="44.70692" lon="3.1912">
        <ele>1175.3</ele>
        <time>2015-09-18T13:25:49Z</time>
      </trkpt>
      <trkpt lat="44.70692" lon="3.19105">
        <ele>1175.3</ele>
        <time>2015-09-18T13:25:52Z</time>
      </trkpt>
      <trkpt lat="44.70693" lon="3.19091">
        <ele>1175.2</ele>
        <time>2015-09-18T13:25:55Z</time>
      </trkpt>
      <trkpt lat="44.70697" lon="3.19078">
        <ele>1175.1</ele>
        <time>2015-09-18T13:25:58Z</time>
      </trkpt>
      <trkpt lat="44.70698" lon="3.19062">
        <ele>1175</ele>
        <time>2015-09-18T13:26:01Z</time>
      </trkpt>
      <trkpt lat="44.70698" lon="3.19047">
        <ele>1175</ele>
        <time>2015-09-18T13:26:04Z</time>
      </trkpt>
      <trkpt lat="44.70698" lon="3.19033">
        <ele>1174.9</ele>
        <time>2015-09-18T13:26:07Z</time>
      </trkpt>
      <trkpt lat="44.70697" lon="3.19019">
        <ele>1174.8</ele>
        <time>2015-09-18T13:26:10Z</time>
      </trkpt>
      <trkpt lat="44.70696" lon="3.19005">
        <ele>1174.7</ele>
        <time>2015-09-18T13:26:13Z</time>
      </trkpt>
      <trkpt lat="44.70692" lon="3.1899">
        <ele>1174.6</ele>
        <time>2015-09-18T13:26:17Z</time>
      </trkpt>
      <trkpt lat="44.7069" lon="3.18974">
        <ele>1174.5</ele>
        <time>2015-09-18T13:26:21Z</time>
      </trkpt>
      <trkpt lat="44.70691" lon="3.18961">
        <ele>1174.5</ele>
        <time>2015-09-18T13:26:24Z</time>
      </trkpt>
      <trkpt lat="44.70692" lon="3.18948">
        <ele>1174.4</ele>
        <time>2015-09-18T13:26:27Z</time>
      </trkpt>
      <trkpt lat="44.70692" lon="3.18935">
        <ele>1174.4</ele>
        <time>2015-09-18T13:26:30Z</time>
      </trkpt>
      <trkpt lat="44.70693" lon="3.18921">
        <ele>1174.5</ele>
        <time>2015-09-18T13:26:33Z</time>
      </trkpt>
      <trkpt lat="44.70695" lon="3.18908">
        <ele>1174.5</ele>
        <time>2015-09-18T13:26:36Z</time>
      </trkpt>
      <trkpt lat="44.70697" lon="3.18896">
        <ele>1174.5</ele>
        <time>2015-09-18T13:26:39Z</time>
      </trkpt>
      <trkpt lat="44.70699" lon="3.18883">
        <ele>1174.7</ele>
        <time>2015-09-18T13:26:44Z</time>
      </trkpt>
      <trkpt lat="44.70692" lon="3.18872">
        <ele>1174.9</ele>
        <time>2015-09-18T13:26:51Z</time>
      </trkpt>
      <trkpt lat="44.70687" lon="3.18858">
        <ele>1175.2</ele>
        <time>2015-09-18T13:26:56Z</time>
      </trkpt>
      <trkpt lat="44.70683" lon="3.18844">
        <ele>1175.5</ele>
        <time>2015-09-18T13:27:01Z</time>
      </trkpt>
      <trkpt lat="44.70677" lon="3.18833">
        <ele>1175.7</ele>
        <time>2015-09-18T13:27:05Z</time>
      </trkpt>
      <trkpt lat="44.70671" lon="3.1882">
        <ele>1176</ele>
        <time>2015-09-18T13:27:10Z</time>
      </trkpt>
      <trkpt lat="44.70666" lon="3.18808">
        <ele>1176.2</ele>
        <time>2015-09-18T13:27:14Z</time>
      </trkpt>
      <trkpt lat="44.70659" lon="3.18799">
        <ele>1176.4</ele>
        <time>2015-09-18T13:27:18Z</time>
      </trkpt>
      <trkpt lat="44.70652" lon="3.1879">
        <ele>1176.7</ele>
        <time>2015-09-18T13:27:24Z</time>
      </trkpt>
      <trkpt lat="44.70645" lon="3.18776">
        <ele>1176.9</ele>
        <time>2015-09-18T13:27:29Z</time>
      </trkpt>
      <trkpt lat="44.70638" lon="3.18762">
        <ele>1177</ele>
        <time>2015-09-18T13:27:32Z</time>
      </trkpt>
      <trkpt lat="44.70634" lon="3.18751">
        <ele>1177.1</ele>
        <time>2015-09-18T13:27:34Z</time>
      </trkpt>
      <trkpt lat="44.70629" lon="3.1874">
        <ele>1177.1</ele>
        <time>2015-09-18T13:27:36Z</time>
      </trkpt>
      <trkpt lat="44.70624" lon="3.18724">
        <ele>1177.2</ele>
        <time>2015-09-18T13:27:39Z</time>
      </trkpt>
      <trkpt lat="44.70619" lon="3.18706">
        <ele>1177.2</ele>
        <time>2015-09-18T13:27:42Z</time>
      </trkpt>
      <trkpt lat="44.70617" lon="3.18694">
        <ele>1177.2</ele>
        <time>2015-09-18T13:27:44Z</time>
      </trkpt>
      <trkpt lat="44.70612" lon="3.18682">
        <ele>1177.2</ele>
        <time>2015-09-18T13:27:46Z</time>
      </trkpt>
      <trkpt lat="44.70608" lon="3.1867">
        <ele>1177.2</ele>
        <time>2015-09-18T13:27:48Z</time>
      </trkpt>
      <trkpt lat="44.70604" lon="3.18658">
        <ele>1177</ele>
        <time>2015-09-18T13:27:50Z</time>
      </trkpt>
      <trkpt lat="44.70599" lon="3.18646">
        <ele>1176.6</ele>
        <time>2015-09-18T13:27:52Z</time>
      </trkpt>
      <trkpt lat="44.70595" lon="3.18634">
        <ele>1176.3</ele>
        <time>2015-09-18T13:27:54Z</time>
      </trkpt>
      <trkpt lat="44.70589" lon="3.1862">
        <ele>1176</ele>
        <time>2015-09-18T13:27:56Z</time>
      </trkpt>
      <trkpt lat="44.70584" lon="3.18607">
        <ele>1175.7</ele>
        <time>2015-09-18T13:27:58Z</time>
      </trkpt>
      <trkpt lat="44.7058" lon="3.18594">
        <ele>1175.4</ele>
        <time>2015-09-18T13:28:00Z</time>
      </trkpt>
      <trkpt lat="44.70576" lon="3.18582">
        <ele>1175.1</ele>
        <time>2015-09-18T13:28:03Z</time>
      </trkpt>
      <trkpt lat="44.7057" lon="3.18565">
        <ele>1174.6</ele>
        <time>2015-09-18T13:28:07Z</time>
      </trkpt>
      <trkpt lat="44.70566" lon="3.18554">
        <ele>1174.3</ele>
        <time>2015-09-18T13:28:09Z</time>
      </trkpt>
      <trkpt lat="44.70562" lon="3.18542">
        <ele>1174.1</ele>
        <time>2015-09-18T13:28:11Z</time>
      </trkpt>
      <trkpt lat="44.70557" lon="3.1853">
        <ele>1173.5</ele>
        <time>2015-09-18T13:28:15Z</time>
      </trkpt>
      <trkpt lat="44.70553" lon="3.18518">
        <ele>1171.9</ele>
        <time>2015-09-18T13:28:34Z</time>
      </trkpt>
      <trkpt lat="44.70548" lon="3.18507">
        <ele>1171.8</ele>
        <time>2015-09-18T13:28:37Z</time>
      </trkpt>
      <trkpt lat="44.70544" lon="3.18494">
        <ele>1171.6</ele>
        <time>2015-09-18T13:28:40Z</time>
      </trkpt>
      <trkpt lat="44.70538" lon="3.18479">
        <ele>1171.4</ele>
        <time>2015-09-18T13:28:43Z</time>
      </trkpt>
      <trkpt lat="44.70533" lon="3.18463">
        <ele>1171.1</ele>
        <time>2015-09-18T13:28:46Z</time>
      </trkpt>
      <trkpt lat="44.70528" lon="3.18448">
        <ele>1170.9</ele>
        <time>2015-09-18T13:28:49Z</time>
      </trkpt>
      <trkpt lat="44.70523" lon="3.18434">
        <ele>1170.7</ele>
        <time>2015-09-18T13:28:52Z</time>
      </trkpt>
      <trkpt lat="44.7052" lon="3.18422">
        <ele>1170.6</ele>
        <time>2015-09-18T13:28:56Z</time>
      </trkpt>
      <trkpt lat="44.70514" lon="3.18408">
        <ele>1170.3</ele>
        <time>2015-09-18T13:29:00Z</time>
      </trkpt>
      <trkpt lat="44.7051" lon="3.18395">
        <ele>1170.1</ele>
        <time>2015-09-18T13:29:03Z</time>
      </trkpt>
      <trkpt lat="44.70506" lon="3.18383">
        <ele>1170</ele>
        <time>2015-09-18T13:29:06Z</time>
      </trkpt>
      <trkpt lat="44.70502" lon="3.18372">
        <ele>1169.8</ele>
        <time>2015-09-18T13:29:09Z</time>
      </trkpt>
      <trkpt lat="44.70497" lon="3.18361">
        <ele>1169.6</ele>
        <time>2015-09-18T13:29:12Z</time>
      </trkpt>
      <trkpt lat="44.70493" lon="3.18347">
        <ele>1169.3</ele>
        <time>2015-09-18T13:29:16Z</time>
      </trkpt>
      <trkpt lat="44.70489" lon="3.18335">
        <ele>1169.1</ele>
        <time>2015-09-18T13:29:19Z</time>
      </trkpt>
      <trkpt lat="44.70485" lon="3.18322">
        <ele>1168.9</ele>
        <time>2015-09-18T13:29:22Z</time>
      </trkpt>
      <trkpt lat="44.7048" lon="3.18308">
        <ele>1168.8</ele>
        <time>2015-09-18T13:29:25Z</time>
      </trkpt>
      <trkpt lat="44.70475" lon="3.18295">
        <ele>1168.7</ele>
        <time>2015-09-18T13:29:28Z</time>
      </trkpt>
      <trkpt lat="44.70471" lon="3.18283">
        <ele>1168.6</ele>
        <time>2015-09-18T13:29:31Z</time>
      </trkpt>
      <trkpt lat="44.70467" lon="3.18269">
        <ele>1168.5</ele>
        <time>2015-09-18T13:29:34Z</time>
      </trkpt>
      <trkpt lat="44.70461" lon="3.18255">
        <ele>1168.4</ele>
        <time>2015-09-18T13:29:37Z</time>
      </trkpt>
      <trkpt lat="44.70456" lon="3.18241">
        <ele>1168.3</ele>
        <time>2015-09-18T13:29:40Z</time>
      </trkpt>
      <trkpt lat="44.70451" lon="3.18225">
        <ele>1168.2</ele>
        <time>2015-09-18T13:29:43Z</time>
      </trkpt>
      <trkpt lat="44.70446" lon="3.18209">
        <ele>1168.1</ele>
        <time>2015-09-18T13:29:46Z</time>
      </trkpt>
      <trkpt lat="44.70442" lon="3.18195">
        <ele>1168</ele>
        <time>2015-09-18T13:29:49Z</time>
      </trkpt>
      <trkpt lat="44.70438" lon="3.1818">
        <ele>1167.8</ele>
        <time>2015-09-18T13:29:52Z</time>
      </trkpt>
      <trkpt lat="44.70433" lon="3.18166">
        <ele>1167.7</ele>
        <time>2015-09-18T13:29:55Z</time>
      </trkpt>
      <trkpt lat="44.70427" lon="3.18153">
        <ele>1167.5</ele>
        <time>2015-09-18T13:29:58Z</time>
      </trkpt>
      <trkpt lat="44.70425" lon="3.18139">
        <ele>1167.3</ele>
        <time>2015-09-18T13:30:01Z</time>
      </trkpt>
      <trkpt lat="44.70423" lon="3.18124">
        <ele>1167.1</ele>
        <time>2015-09-18T13:30:04Z</time>
      </trkpt>
      <trkpt lat="44.70421" lon="3.18105">
        <ele>1166.8</ele>
        <time>2015-09-18T13:30:07Z</time>
      </trkpt>
      <trkpt lat="44.7042" lon="3.1809">
        <ele>1166.6</ele>
        <time>2015-09-18T13:30:09Z</time>
      </trkpt>
      <trkpt lat="44.70418" lon="3.18076">
        <ele>1166.4</ele>
        <time>2015-09-18T13:30:11Z</time>
      </trkpt>
      <trkpt lat="44.70417" lon="3.18061">
        <ele>1166.1</ele>
        <time>2015-09-18T13:30:13Z</time>
      </trkpt>
      <trkpt lat="44.70416" lon="3.18048">
        <ele>1165.8</ele>
        <time>2015-09-18T13:30:15Z</time>
      </trkpt>
      <trkpt lat="44.70414" lon="3.18033">
        <ele>1165.2</ele>
        <time>2015-09-18T13:30:18Z</time>
      </trkpt>
      <trkpt lat="44.70413" lon="3.18017">
        <ele>1164.4</ele>
        <time>2015-09-18T13:30:21Z</time>
      </trkpt>
      <trkpt lat="44.70411" lon="3.17999">
        <ele>1163.7</ele>
        <time>2015-09-18T13:30:24Z</time>
      </trkpt>
      <trkpt lat="44.7041" lon="3.17986">
        <ele>1163.2</ele>
        <time>2015-09-18T13:30:26Z</time>
      </trkpt>
      <trkpt lat="44.70409" lon="3.17973">
        <ele>1162.7</ele>
        <time>2015-09-18T13:30:28Z</time>
      </trkpt>
      <trkpt lat="44.70407" lon="3.17957">
        <ele>1162</ele>
        <time>2015-09-18T13:30:31Z</time>
      </trkpt>
      <trkpt lat="44.70405" lon="3.17939">
        <ele>1161.4</ele>
        <time>2015-09-18T13:30:34Z</time>
      </trkpt>
      <trkpt lat="44.70404" lon="3.17927">
        <ele>1160.4</ele>
        <time>2015-09-18T13:30:38Z</time>
      </trkpt>
      <trkpt lat="44.70402" lon="3.17914">
        <ele>1157.8</ele>
        <time>2015-09-18T13:30:57Z</time>
      </trkpt>
      <trkpt lat="44.70398" lon="3.17902">
        <ele>1157.3</ele>
        <time>2015-09-18T13:31:07Z</time>
      </trkpt>
      <trkpt lat="44.70391" lon="3.17891">
        <ele>1157.3</ele>
        <time>2015-09-18T13:31:12Z</time>
      </trkpt>
      <trkpt lat="44.70385" lon="3.17878">
        <ele>1157.2</ele>
        <time>2015-09-18T13:31:17Z</time>
      </trkpt>
      <trkpt lat="44.70379" lon="3.17866">
        <ele>1157.2</ele>
        <time>2015-09-18T13:31:24Z</time>
      </trkpt>
      <trkpt lat="44.70374" lon="3.17854">
        <ele>1157.4</ele>
        <time>2015-09-18T13:31:33Z</time>
      </trkpt>
      <trkpt lat="44.70366" lon="3.17846">
        <ele>1157.5</ele>
        <time>2015-09-18T13:31:45Z</time>
      </trkpt>
      <trkpt lat="44.70359" lon="3.17836">
        <ele>1157.6</ele>
        <time>2015-09-18T13:31:53Z</time>
      </trkpt>
      <trkpt lat="44.70354" lon="3.17825">
        <ele>1157.6</ele>
        <time>2015-09-18T13:31:58Z</time>
      </trkpt>
      <trkpt lat="44.7035" lon="3.17811">
        <ele>1157.6</ele>
        <time>2015-09-18T13:32:03Z</time>
      </trkpt>
      <trkpt lat="44.70346" lon="3.17799">
        <ele>1157.6</ele>
        <time>2015-09-18T13:32:07Z</time>
      </trkpt>
      <trkpt lat="44.70341" lon="3.17787">
        <ele>1157.7</ele>
        <time>2015-09-18T13:32:11Z</time>
      </trkpt>
      <trkpt lat="44.70333" lon="3.17777">
        <ele>1157.9</ele>
        <time>2015-09-18T13:32:15Z</time>
      </trkpt>
      <trkpt lat="44.70327" lon="3.17766">
        <ele>1158.1</ele>
        <time>2015-09-18T13:32:19Z</time>
      </trkpt>
      <trkpt lat="44.70322" lon="3.17754">
        <ele>1158.3</ele>
        <time>2015-09-18T13:32:23Z</time>
      </trkpt>
      <trkpt lat="44.70317" lon="3.17743">
        <ele>1158.5</ele>
        <time>2015-09-18T13:32:27Z</time>
      </trkpt>
      <trkpt lat="44.70312" lon="3.1773">
        <ele>1159</ele>
        <time>2015-09-18T13:32:32Z</time>
      </trkpt>
      <trkpt lat="44.70306" lon="3.17719">
        <ele>1159.4</ele>
        <time>2015-09-18T13:32:37Z</time>
      </trkpt>
      <trkpt lat="44.703" lon="3.17707">
        <ele>1159.9</ele>
        <time>2015-09-18T13:32:45Z</time>
      </trkpt>
      <trkpt lat="44.70294" lon="3.17696">
        <ele>1160.6</ele>
        <time>2015-09-18T13:32:51Z</time>
      </trkpt>
      <trkpt lat="44.7029" lon="3.17685">
        <ele>1161.3</ele>
        <time>2015-09-18T13:32:56Z</time>
      </trkpt>
      <trkpt lat="44.70287" lon="3.17672">
        <ele>1161.9</ele>
        <time>2015-09-18T13:33:02Z</time>
      </trkpt>
      <trkpt lat="44.70283" lon="3.17659">
        <ele>1162.3</ele>
        <time>2015-09-18T13:33:08Z</time>
      </trkpt>
      <trkpt lat="44.70279" lon="3.17646">
        <ele>1162.8</ele>
        <time>2015-09-18T13:33:14Z</time>
      </trkpt>
      <trkpt lat="44.70276" lon="3.17634">
        <ele>1163.1</ele>
        <time>2015-09-18T13:33:19Z</time>
      </trkpt>
      <trkpt lat="44.70272" lon="3.1762">
        <ele>1163.6</ele>
        <time>2015-09-18T13:33:25Z</time>
      </trkpt>
      <trkpt lat="44.70268" lon="3.17607">
        <ele>1164.1</ele>
        <time>2015-09-18T13:33:31Z</time>
      </trkpt>
      <trkpt lat="44.70262" lon="3.17595">
        <ele>1164.6</ele>
        <time>2015-09-18T13:33:36Z</time>
      </trkpt>
      <trkpt lat="44.70257" lon="3.17584">
        <ele>1165.2</ele>
        <time>2015-09-18T13:33:41Z</time>
      </trkpt>
      <trkpt lat="44.70251" lon="3.17573">
        <ele>1165.7</ele>
        <time>2015-09-18T13:33:46Z</time>
      </trkpt>
      <trkpt lat="44.70247" lon="3.1756">
        <ele>1166.2</ele>
        <time>2015-09-18T13:33:52Z</time>
      </trkpt>
      <trkpt lat="44.70244" lon="3.17548">
        <ele>1166.6</ele>
        <time>2015-09-18T13:33:58Z</time>
      </trkpt>
      <trkpt lat="44.70242" lon="3.17534">
        <ele>1167.1</ele>
        <time>2015-09-18T13:34:04Z</time>
      </trkpt>
      <trkpt lat="44.7024" lon="3.17521">
        <ele>1167.3</ele>
        <time>2015-09-18T13:34:09Z</time>
      </trkpt>
      <trkpt lat="44.70238" lon="3.17508">
        <ele>1167.5</ele>
        <time>2015-09-18T13:34:14Z</time>
      </trkpt>
      <trkpt lat="44.70236" lon="3.17495">
        <ele>1167.7</ele>
        <time>2015-09-18T13:34:18Z</time>
      </trkpt>
      <trkpt lat="44.70235" lon="3.17479">
        <ele>1167.8</ele>
        <time>2015-09-18T13:34:22Z</time>
      </trkpt>
      <trkpt lat="44.70235" lon="3.17461">
        <ele>1167.7</ele>
        <time>2015-09-18T13:34:25Z</time>
      </trkpt>
      <trkpt lat="44.70236" lon="3.17447">
        <ele>1167.7</ele>
        <time>2015-09-18T13:34:27Z</time>
      </trkpt>
      <trkpt lat="44.70237" lon="3.17431">
        <ele>1167.5</ele>
        <time>2015-09-18T13:34:29Z</time>
      </trkpt>
      <trkpt lat="44.70238" lon="3.17415">
        <ele>1167.4</ele>
        <time>2015-09-18T13:34:31Z</time>
      </trkpt>
      <trkpt lat="44.70239" lon="3.17399">
        <ele>1167.2</ele>
        <time>2015-09-18T13:34:33Z</time>
      </trkpt>
      <trkpt lat="44.7024" lon="3.17382">
        <ele>1166.9</ele>
        <time>2015-09-18T13:34:35Z</time>
      </trkpt>
      <trkpt lat="44.70241" lon="3.17365">
        <ele>1166.6</ele>
        <time>2015-09-18T13:34:37Z</time>
      </trkpt>
      <trkpt lat="44.70244" lon="3.1735">
        <ele>1166.1</ele>
        <time>2015-09-18T13:34:39Z</time>
      </trkpt>
      <trkpt lat="44.70247" lon="3.17335">
        <ele>1165.7</ele>
        <time>2015-09-18T13:34:41Z</time>
      </trkpt>
      <trkpt lat="44.70251" lon="3.17321">
        <ele>1165.3</ele>
        <time>2015-09-18T13:34:43Z</time>
      </trkpt>
      <trkpt lat="44.70255" lon="3.17307">
        <ele>1165</ele>
        <time>2015-09-18T13:34:45Z</time>
      </trkpt>
      <trkpt lat="44.70257" lon="3.17293">
        <ele>1164.6</ele>
        <time>2015-09-18T13:34:47Z</time>
      </trkpt>
      <trkpt lat="44.70257" lon="3.17279">
        <ele>1164.2</ele>
        <time>2015-09-18T13:34:49Z</time>
      </trkpt>
      <trkpt lat="44.70257" lon="3.17262">
        <ele>1163.7</ele>
        <time>2015-09-18T13:34:52Z</time>
      </trkpt>
      <trkpt lat="44.70262" lon="3.17247">
        <ele>1163.2</ele>
        <time>2015-09-18T13:34:55Z</time>
      </trkpt>
      <trkpt lat="44.70266" lon="3.17236">
        <ele>1163</ele>
        <time>2015-09-18T13:34:57Z</time>
      </trkpt>
      <trkpt lat="44.70272" lon="3.17224">
        <ele>1162.7</ele>
        <time>2015-09-18T13:34:59Z</time>
      </trkpt>
      <trkpt lat="44.70277" lon="3.17212">
        <ele>1162.5</ele>
        <time>2015-09-18T13:35:01Z</time>
      </trkpt>
      <trkpt lat="44.70282" lon="3.172">
        <ele>1162.3</ele>
        <time>2015-09-18T13:35:03Z</time>
      </trkpt>
      <trkpt lat="44.70288" lon="3.17188">
        <ele>1162.2</ele>
        <time>2015-09-18T13:35:05Z</time>
      </trkpt>
      <trkpt lat="44.70292" lon="3.17176">
        <ele>1162.1</ele>
        <time>2015-09-18T13:35:07Z</time>
      </trkpt>
      <trkpt lat="44.70296" lon="3.17164">
        <ele>1162.1</ele>
        <time>2015-09-18T13:35:09Z</time>
      </trkpt>
      <trkpt lat="44.703" lon="3.17152">
        <ele>1162.1</ele>
        <time>2015-09-18T13:35:11Z</time>
      </trkpt>
      <trkpt lat="44.70304" lon="3.17137">
        <ele>1162.1</ele>
        <time>2015-09-18T13:35:14Z</time>
      </trkpt>
      <trkpt lat="44.70309" lon="3.17123">
        <ele>1162.1</ele>
        <time>2015-09-18T13:35:17Z</time>
      </trkpt>
      <trkpt lat="44.70313" lon="3.17107">
        <ele>1162.1</ele>
        <time>2015-09-18T13:35:20Z</time>
      </trkpt>
      <trkpt lat="44.70317" lon="3.17092">
        <ele>1162.1</ele>
        <time>2015-09-18T13:35:23Z</time>
      </trkpt>
      <trkpt lat="44.7032" lon="3.17077">
        <ele>1162.2</ele>
        <time>2015-09-18T13:35:26Z</time>
      </trkpt>
      <trkpt lat="44.70322" lon="3.17062">
        <ele>1162.2</ele>
        <time>2015-09-18T13:35:30Z</time>
      </trkpt>
      <trkpt lat="44.70325" lon="3.17046">
        <ele>1162.2</ele>
        <time>2015-09-18T13:35:34Z</time>
      </trkpt>
      <trkpt lat="44.70328" lon="3.17031">
        <ele>1162.2</ele>
        <time>2015-09-18T13:35:37Z</time>
      </trkpt>
      <trkpt lat="44.70331" lon="3.17014">
        <ele>1162.2</ele>
        <time>2015-09-18T13:35:40Z</time>
      </trkpt>
      <trkpt lat="44.70334" lon="3.17002">
        <ele>1162.1</ele>
        <time>2015-09-18T13:35:42Z</time>
      </trkpt>
      <trkpt lat="44.70337" lon="3.16989">
        <ele>1162</ele>
        <time>2015-09-18T13:35:44Z</time>
      </trkpt>
      <trkpt lat="44.70341" lon="3.16975">
        <ele>1161.9</ele>
        <time>2015-09-18T13:35:46Z</time>
      </trkpt>
      <trkpt lat="44.70344" lon="3.16962">
        <ele>1161.8</ele>
        <time>2015-09-18T13:35:48Z</time>
      </trkpt>
      <trkpt lat="44.70346" lon="3.16949">
        <ele>1161.6</ele>
        <time>2015-09-18T13:35:50Z</time>
      </trkpt>
      <trkpt lat="44.70348" lon="3.16937">
        <ele>1161.4</ele>
        <time>2015-09-18T13:35:52Z</time>
      </trkpt>
      <trkpt lat="44.70349" lon="3.16917">
        <ele>1161.2</ele>
        <time>2015-09-18T13:35:55Z</time>
      </trkpt>
      <trkpt lat="44.7035" lon="3.16904">
        <ele>1161.1</ele>
        <time>2015-09-18T13:35:57Z</time>
      </trkpt>
      <trkpt lat="44.70351" lon="3.1689">
        <ele>1160.9</ele>
        <time>2015-09-18T13:35:59Z</time>
      </trkpt>
      <trkpt lat="44.70351" lon="3.16872">
        <ele>1160.7</ele>
        <time>2015-09-18T13:36:02Z</time>
      </trkpt>
      <trkpt lat="44.7035" lon="3.16859">
        <ele>1160.5</ele>
        <time>2015-09-18T13:36:05Z</time>
      </trkpt>
      <trkpt lat="44.70348" lon="3.16844">
        <ele>1160.1</ele>
        <time>2015-09-18T13:36:12Z</time>
      </trkpt>
      <trkpt lat="44.70346" lon="3.16828">
        <ele>1159.9</ele>
        <time>2015-09-18T13:36:16Z</time>
      </trkpt>
      <trkpt lat="44.70345" lon="3.16815">
        <ele>1159.6</ele>
        <time>2015-09-18T13:36:20Z</time>
      </trkpt>
      <trkpt lat="44.70342" lon="3.168">
        <ele>1159.4</ele>
        <time>2015-09-18T13:36:24Z</time>
      </trkpt>
      <trkpt lat="44.70338" lon="3.16785">
        <ele>1159.1</ele>
        <time>2015-09-18T13:36:28Z</time>
      </trkpt>
      <trkpt lat="44.70334" lon="3.16771">
        <ele>1158.9</ele>
        <time>2015-09-18T13:36:32Z</time>
      </trkpt>
      <trkpt lat="44.70329" lon="3.16758">
        <ele>1158.7</ele>
        <time>2015-09-18T13:36:36Z</time>
      </trkpt>
      <trkpt lat="44.70325" lon="3.16746">
        <ele>1158.6</ele>
        <time>2015-09-18T13:36:42Z</time>
      </trkpt>
      <trkpt lat="44.7032" lon="3.16735">
        <ele>1158.4</ele>
        <time>2015-09-18T13:36:52Z</time>
      </trkpt>
      <trkpt lat="44.70315" lon="3.16721">
        <ele>1158.4</ele>
        <time>2015-09-18T13:37:05Z</time>
      </trkpt>
      <trkpt lat="44.7031" lon="3.1671">
        <ele>1158.3</ele>
        <time>2015-09-18T13:37:09Z</time>
      </trkpt>
      <trkpt lat="44.70302" lon="3.16699">
        <ele>1158.3</ele>
        <time>2015-09-18T13:37:13Z</time>
      </trkpt>
      <trkpt lat="44.70293" lon="3.16689">
        <ele>1158.3</ele>
        <time>2015-09-18T13:37:17Z</time>
      </trkpt>
      <trkpt lat="44.70286" lon="3.16681">
        <ele>1158.3</ele>
        <time>2015-09-18T13:37:20Z</time>
      </trkpt>
      <trkpt lat="44.70277" lon="3.16672">
        <ele>1158.3</ele>
        <time>2015-09-18T13:37:24Z</time>
      </trkpt>
      <trkpt lat="44.70266" lon="3.16664">
        <ele>1158.3</ele>
        <time>2015-09-18T13:37:28Z</time>
      </trkpt>
      <trkpt lat="44.70257" lon="3.16657">
        <ele>1158.3</ele>
        <time>2015-09-18T13:37:31Z</time>
      </trkpt>
      <trkpt lat="44.70249" lon="3.16648">
        <ele>1158.2</ele>
        <time>2015-09-18T13:37:34Z</time>
      </trkpt>
      <trkpt lat="44.70242" lon="3.16636">
        <ele>1158</ele>
        <time>2015-09-18T13:37:37Z</time>
      </trkpt>
      <trkpt lat="44.70237" lon="3.16623">
        <ele>1157.9</ele>
        <time>2015-09-18T13:37:40Z</time>
      </trkpt>
      <trkpt lat="44.70234" lon="3.1661">
        <ele>1157.8</ele>
        <time>2015-09-18T13:37:44Z</time>
      </trkpt>
      <trkpt lat="44.70234" lon="3.16597">
        <ele>1157.6</ele>
        <time>2015-09-18T13:37:53Z</time>
      </trkpt>
      <trkpt lat="44.70235" lon="3.16584">
        <ele>1157.5</ele>
        <time>2015-09-18T13:38:00Z</time>
      </trkpt>
      <trkpt lat="44.70229" lon="3.16574">
        <ele>1157.3</ele>
        <time>2015-09-18T13:38:21Z</time>
      </trkpt>
      <trkpt lat="44.70223" lon="3.16564">
        <ele>1157.2</ele>
        <time>2015-09-18T13:38:31Z</time>
      </trkpt>
      <trkpt lat="44.70218" lon="3.16552">
        <ele>1157.3</ele>
        <time>2015-09-18T13:39:05Z</time>
      </trkpt>
      <trkpt lat="44.70213" lon="3.1654">
        <ele>1157.3</ele>
        <time>2015-09-18T13:39:11Z</time>
      </trkpt>
      <trkpt lat="44.70206" lon="3.16531">
        <ele>1157.7</ele>
        <time>2015-09-18T13:39:18Z</time>
      </trkpt>
      <trkpt lat="44.702" lon="3.1652">
        <ele>1158.3</ele>
        <time>2015-09-18T13:39:25Z</time>
      </trkpt>
      <trkpt lat="44.70194" lon="3.1651">
        <ele>1158.9</ele>
        <time>2015-09-18T13:39:31Z</time>
      </trkpt>
      <trkpt lat="44.70186" lon="3.165">
        <ele>1159.2</ele>
        <time>2015-09-18T13:39:36Z</time>
      </trkpt>
      <trkpt lat="44.70179" lon="3.16491">
        <ele>1159.5</ele>
        <time>2015-09-18T13:39:41Z</time>
      </trkpt>
      <trkpt lat="44.70173" lon="3.16479">
        <ele>1159.9</ele>
        <time>2015-09-18T13:39:47Z</time>
      </trkpt>
      <trkpt lat="44.70168" lon="3.16468">
        <ele>1160.1</ele>
        <time>2015-09-18T13:39:52Z</time>
      </trkpt>
      <trkpt lat="44.70164" lon="3.16454">
        <ele>1160.4</ele>
        <time>2015-09-18T13:39:58Z</time>
      </trkpt>
      <trkpt lat="44.70161" lon="3.1644">
        <ele>1160.7</ele>
        <time>2015-09-18T13:40:03Z</time>
      </trkpt>
      <trkpt lat="44.70158" lon="3.16428">
        <ele>1160.8</ele>
        <time>2015-09-18T13:40:07Z</time>
      </trkpt>
      <trkpt lat="44.70154" lon="3.16415">
        <ele>1161</ele>
        <time>2015-09-18T13:40:11Z</time>
      </trkpt>
      <trkpt lat="44.70151" lon="3.16401">
        <ele>1161.1</ele>
        <time>2015-09-18T13:40:15Z</time>
      </trkpt>
      <trkpt lat="44.70149" lon="3.16388">
        <ele>1161.5</ele>
        <time>2015-09-18T13:40:19Z</time>
      </trkpt>
      <trkpt lat="44.70146" lon="3.16374">
        <ele>1161.9</ele>
        <time>2015-09-18T13:40:24Z</time>
      </trkpt>
      <trkpt lat="44.70139" lon="3.16365">
        <ele>1165.2</ele>
        <time>2015-09-18T13:41:04Z</time>
      </trkpt>
      <trkpt lat="44.70134" lon="3.16354">
        <ele>1165.2</ele>
        <time>2015-09-18T13:41:10Z</time>
      </trkpt>
      <trkpt lat="44.70125" lon="3.16346">
        <ele>1164.9</ele>
        <time>2015-09-18T13:43:27Z</time>
      </trkpt>
      <trkpt lat="44.70117" lon="3.16335">
        <ele>1164.9</ele>
        <time>2015-09-18T13:43:31Z</time>
      </trkpt>
      <trkpt lat="44.70109" lon="3.16324">
        <ele>1164.9</ele>
        <time>2015-09-18T13:43:35Z</time>
      </trkpt>
      <trkpt lat="44.701" lon="3.16312">
        <ele>1164.9</ele>
        <time>2015-09-18T13:43:39Z</time>
      </trkpt>
      <trkpt lat="44.70093" lon="3.16301">
        <ele>1165</ele>
        <time>2015-09-18T13:43:44Z</time>
      </trkpt>
      <trkpt lat="44.70087" lon="3.1629">
        <ele>1165.2</ele>
        <time>2015-09-18T13:43:48Z</time>
      </trkpt>
      <trkpt lat="44.7008" lon="3.16278">
        <ele>1165.4</ele>
        <time>2015-09-18T13:43:52Z</time>
      </trkpt>
      <trkpt lat="44.70074" lon="3.16266">
        <ele>1165.6</ele>
        <time>2015-09-18T13:43:56Z</time>
      </trkpt>
      <trkpt lat="44.70069" lon="3.16253">
        <ele>1165.8</ele>
        <time>2015-09-18T13:44:00Z</time>
      </trkpt>
      <trkpt lat="44.70063" lon="3.1624">
        <ele>1166</ele>
        <time>2015-09-18T13:44:04Z</time>
      </trkpt>
      <trkpt lat="44.70057" lon="3.16229">
        <ele>1166.3</ele>
        <time>2015-09-18T13:44:08Z</time>
      </trkpt>
      <trkpt lat="44.70052" lon="3.16217">
        <ele>1166.6</ele>
        <time>2015-09-18T13:44:12Z</time>
      </trkpt>
      <trkpt lat="44.70046" lon="3.16207">
        <ele>1166.8</ele>
        <time>2015-09-18T13:44:16Z</time>
      </trkpt>
      <trkpt lat="44.7004" lon="3.16195">
        <ele>1167</ele>
        <time>2015-09-18T13:44:21Z</time>
      </trkpt>
      <trkpt lat="44.70033" lon="3.16183">
        <ele>1167.1</ele>
        <time>2015-09-18T13:44:24Z</time>
      </trkpt>
      <trkpt lat="44.70027" lon="3.16172">
        <ele>1167.2</ele>
        <time>2015-09-18T13:44:27Z</time>
      </trkpt>
      <trkpt lat="44.7002" lon="3.16162">
        <ele>1167.2</ele>
        <time>2015-09-18T13:44:31Z</time>
      </trkpt>
      <trkpt lat="44.70011" lon="3.16153">
        <ele>1167.3</ele>
        <time>2015-09-18T13:44:34Z</time>
      </trkpt>
      <trkpt lat="44.70001" lon="3.16145">
        <ele>1167.3</ele>
        <time>2015-09-18T13:44:37Z</time>
      </trkpt>
      <trkpt lat="44.69993" lon="3.16138">
        <ele>1167.4</ele>
        <time>2015-09-18T13:44:39Z</time>
      </trkpt>
      <trkpt lat="44.69984" lon="3.16131">
        <ele>1167.4</ele>
        <time>2015-09-18T13:44:41Z</time>
      </trkpt>
      <trkpt lat="44.69975" lon="3.16125">
        <ele>1167.4</ele>
        <time>2015-09-18T13:44:43Z</time>
      </trkpt>
      <trkpt lat="44.69967" lon="3.16119">
        <ele>1167.4</ele>
        <time>2015-09-18T13:44:45Z</time>
      </trkpt>
      <trkpt lat="44.69958" lon="3.16113">
        <ele>1167.4</ele>
        <time>2015-09-18T13:44:47Z</time>
      </trkpt>
      <trkpt lat="44.69947" lon="3.16104">
        <ele>1167.4</ele>
        <time>2015-09-18T13:44:50Z</time>
      </trkpt>
      <trkpt lat="44.69935" lon="3.16096">
        <ele>1167.5</ele>
        <time>2015-09-18T13:44:53Z</time>
      </trkpt>
      <trkpt lat="44.69927" lon="3.1609">
        <ele>1167.5</ele>
        <time>2015-09-18T13:44:55Z</time>
      </trkpt>
      <trkpt lat="44.69918" lon="3.16084">
        <ele>1167.5</ele>
        <time>2015-09-18T13:44:57Z</time>
      </trkpt>
      <trkpt lat="44.6991" lon="3.16079">
        <ele>1167.5</ele>
        <time>2015-09-18T13:44:59Z</time>
      </trkpt>
      <trkpt lat="44.69898" lon="3.16072">
        <ele>1167.5</ele>
        <time>2015-09-18T13:45:02Z</time>
      </trkpt>
      <trkpt lat="44.69889" lon="3.16067">
        <ele>1167.5</ele>
        <time>2015-09-18T13:45:06Z</time>
      </trkpt>
      <trkpt lat="44.69879" lon="3.16059">
        <ele>1167.5</ele>
        <time>2015-09-18T13:45:09Z</time>
      </trkpt>
      <trkpt lat="44.69871" lon="3.16054">
        <ele>1167.5</ele>
        <time>2015-09-18T13:45:11Z</time>
      </trkpt>
      <trkpt lat="44.69862" lon="3.16049">
        <ele>1167.5</ele>
        <time>2015-09-18T13:45:13Z</time>
      </trkpt>
      <trkpt lat="44.6985" lon="3.16042">
        <ele>1167.5</ele>
        <time>2015-09-18T13:45:16Z</time>
      </trkpt>
      <trkpt lat="44.69838" lon="3.16039">
        <ele>1167.5</ele>
        <time>2015-09-18T13:45:19Z</time>
      </trkpt>
      <trkpt lat="44.69828" lon="3.16037">
        <ele>1167.5</ele>
        <time>2015-09-18T13:45:22Z</time>
      </trkpt>
      <trkpt lat="44.69816" lon="3.16032">
        <ele>1167.4</ele>
        <time>2015-09-18T13:45:26Z</time>
      </trkpt>
      <trkpt lat="44.69807" lon="3.1603">
        <ele>1167.4</ele>
        <time>2015-09-18T13:45:29Z</time>
      </trkpt>
      <trkpt lat="44.69797" lon="3.16033">
        <ele>1167.4</ele>
        <time>2015-09-18T13:45:33Z</time>
      </trkpt>
      <trkpt lat="44.69787" lon="3.16037">
        <ele>1167.4</ele>
        <time>2015-09-18T13:45:39Z</time>
      </trkpt>
      <trkpt lat="44.69778" lon="3.16042">
        <ele>1167.4</ele>
        <time>2015-09-18T13:45:46Z</time>
      </trkpt>
      <trkpt lat="44.69769" lon="3.16046">
        <ele>1167.4</ele>
        <time>2015-09-18T13:45:51Z</time>
      </trkpt>
      <trkpt lat="44.69759" lon="3.16048">
        <ele>1167.4</ele>
        <time>2015-09-18T13:45:55Z</time>
      </trkpt>
      <trkpt lat="44.69749" lon="3.16048">
        <ele>1167.4</ele>
        <time>2015-09-18T13:45:59Z</time>
      </trkpt>
      <trkpt lat="44.6974" lon="3.16042">
        <ele>1167.4</ele>
        <time>2015-09-18T13:46:03Z</time>
      </trkpt>
      <trkpt lat="44.69732" lon="3.16033">
        <ele>1167.5</ele>
        <time>2015-09-18T13:46:07Z</time>
      </trkpt>
      <trkpt lat="44.69724" lon="3.16022">
        <ele>1167.6</ele>
        <time>2015-09-18T13:46:11Z</time>
      </trkpt>
      <trkpt lat="44.69717" lon="3.16013">
        <ele>1167.9</ele>
        <time>2015-09-18T13:46:15Z</time>
      </trkpt>
      <trkpt lat="44.69709" lon="3.16004">
        <ele>1168.3</ele>
        <time>2015-09-18T13:46:19Z</time>
      </trkpt>
      <trkpt lat="44.69701" lon="3.15994">
        <ele>1168.7</ele>
        <time>2015-09-18T13:46:23Z</time>
      </trkpt>
      <trkpt lat="44.69694" lon="3.15985">
        <ele>1168.9</ele>
        <time>2015-09-18T13:46:26Z</time>
      </trkpt>
      <trkpt lat="44.69685" lon="3.15977">
        <ele>1169</ele>
        <time>2015-09-18T13:46:29Z</time>
      </trkpt>
      <trkpt lat="44.69677" lon="3.15969">
        <ele>1169.2</ele>
        <time>2015-09-18T13:46:32Z</time>
      </trkpt>
      <trkpt lat="44.69669" lon="3.15961">
        <ele>1169.3</ele>
        <time>2015-09-18T13:46:35Z</time>
      </trkpt>
      <trkpt lat="44.69662" lon="3.15953">
        <ele>1169.4</ele>
        <time>2015-09-18T13:46:38Z</time>
      </trkpt>
      <trkpt lat="44.69656" lon="3.15942">
        <ele>1169.5</ele>
        <time>2015-09-18T13:46:41Z</time>
      </trkpt>
      <trkpt lat="44.6965" lon="3.15932">
        <ele>1169.5</ele>
        <time>2015-09-18T13:46:44Z</time>
      </trkpt>
      <trkpt lat="44.69645" lon="3.1592">
        <ele>1169.6</ele>
        <time>2015-09-18T13:46:47Z</time>
      </trkpt>
      <trkpt lat="44.69639" lon="3.15907">
        <ele>1169.6</ele>
        <time>2015-09-18T13:46:51Z</time>
      </trkpt>
      <trkpt lat="44.69633" lon="3.15897">
        <ele>1169.7</ele>
        <time>2015-09-18T13:46:54Z</time>
      </trkpt>
      <trkpt lat="44.69624" lon="3.15886">
        <ele>1169.7</ele>
        <time>2015-09-18T13:46:57Z</time>
      </trkpt>
      <trkpt lat="44.69615" lon="3.15873">
        <ele>1169.6</ele>
        <time>2015-09-18T13:47:00Z</time>
      </trkpt>
      <trkpt lat="44.69608" lon="3.15864">
        <ele>1169.4</ele>
        <time>2015-09-18T13:47:02Z</time>
      </trkpt>
      <trkpt lat="44.696" lon="3.15855">
        <ele>1169.2</ele>
        <time>2015-09-18T13:47:04Z</time>
      </trkpt>
      <trkpt lat="44.69591" lon="3.15846">
        <ele>1169</ele>
        <time>2015-09-18T13:47:06Z</time>
      </trkpt>
      <trkpt lat="44.69581" lon="3.15839">
        <ele>1168.6</ele>
        <time>2015-09-18T13:47:08Z</time>
      </trkpt>
      <trkpt lat="44.69571" lon="3.15834">
        <ele>1168.3</ele>
        <time>2015-09-18T13:47:10Z</time>
      </trkpt>
      <trkpt lat="44.69562" lon="3.15829">
        <ele>1167.9</ele>
        <time>2015-09-18T13:47:12Z</time>
      </trkpt>
      <trkpt lat="44.69553" lon="3.15823">
        <ele>1167.7</ele>
        <time>2015-09-18T13:47:14Z</time>
      </trkpt>
      <trkpt lat="44.69546" lon="3.15816">
        <ele>1167.4</ele>
        <time>2015-09-18T13:47:16Z</time>
      </trkpt>
      <trkpt lat="44.69535" lon="3.15806">
        <ele>1167</ele>
        <time>2015-09-18T13:47:19Z</time>
      </trkpt>
      <trkpt lat="44.69525" lon="3.15795">
        <ele>1166.7</ele>
        <time>2015-09-18T13:47:22Z</time>
      </trkpt>
      <trkpt lat="44.69514" lon="3.15785">
        <ele>1166.4</ele>
        <time>2015-09-18T13:47:25Z</time>
      </trkpt>
      <trkpt lat="44.69506" lon="3.15777">
        <ele>1166.2</ele>
        <time>2015-09-18T13:47:27Z</time>
      </trkpt>
      <trkpt lat="44.69498" lon="3.15769">
        <ele>1166.1</ele>
        <time>2015-09-18T13:47:29Z</time>
      </trkpt>
      <trkpt lat="44.6949" lon="3.15761">
        <ele>1166</ele>
        <time>2015-09-18T13:47:31Z</time>
      </trkpt>
      <trkpt lat="44.69482" lon="3.15754">
        <ele>1165.9</ele>
        <time>2015-09-18T13:47:33Z</time>
      </trkpt>
      <trkpt lat="44.69475" lon="3.15747">
        <ele>1165.8</ele>
        <time>2015-09-18T13:47:35Z</time>
      </trkpt>
      <trkpt lat="44.69465" lon="3.15736">
        <ele>1165.6</ele>
        <time>2015-09-18T13:47:38Z</time>
      </trkpt>
      <trkpt lat="44.69456" lon="3.15728">
        <ele>1165.5</ele>
        <time>2015-09-18T13:47:41Z</time>
      </trkpt>
      <trkpt lat="44.69449" lon="3.15719">
        <ele>1165.2</ele>
        <time>2015-09-18T13:47:44Z</time>
      </trkpt>
      <trkpt lat="44.69442" lon="3.15708">
        <ele>1164.9</ele>
        <time>2015-09-18T13:47:47Z</time>
      </trkpt>
      <trkpt lat="44.69435" lon="3.15698">
        <ele>1164.7</ele>
        <time>2015-09-18T13:47:50Z</time>
      </trkpt>
      <trkpt lat="44.69427" lon="3.15687">
        <ele>1164.6</ele>
        <time>2015-09-18T13:47:53Z</time>
      </trkpt>
      <trkpt lat="44.69419" lon="3.15678">
        <ele>1164.5</ele>
        <time>2015-09-18T13:47:56Z</time>
      </trkpt>
      <trkpt lat="44.6941" lon="3.15669">
        <ele>1164.4</ele>
        <time>2015-09-18T13:47:59Z</time>
      </trkpt>
      <trkpt lat="44.69402" lon="3.1566">
        <ele>1164.4</ele>
        <time>2015-09-18T13:48:02Z</time>
      </trkpt>
      <trkpt lat="44.69393" lon="3.15652">
        <ele>1164.4</ele>
        <time>2015-09-18T13:48:05Z</time>
      </trkpt>
      <trkpt lat="44.69383" lon="3.15645">
        <ele>1164.5</ele>
        <time>2015-09-18T13:48:08Z</time>
      </trkpt>
      <trkpt lat="44.69374" lon="3.15641">
        <ele>1164.5</ele>
        <time>2015-09-18T13:48:11Z</time>
      </trkpt>
      <trkpt lat="44.69363" lon="3.15637">
        <ele>1164.5</ele>
        <time>2015-09-18T13:48:15Z</time>
      </trkpt>
      <trkpt lat="44.69353" lon="3.15633">
        <ele>1164.6</ele>
        <time>2015-09-18T13:48:20Z</time>
      </trkpt>
      <trkpt lat="44.69344" lon="3.15624">
        <ele>1164.6</ele>
        <time>2015-09-18T13:48:25Z</time>
      </trkpt>
      <trkpt lat="44.69336" lon="3.15614">
        <ele>1164.6</ele>
        <time>2015-09-18T13:48:29Z</time>
      </trkpt>
      <trkpt lat="44.6933" lon="3.15602">
        <ele>1164.6</ele>
        <time>2015-09-18T13:48:33Z</time>
      </trkpt>
      <trkpt lat="44.69327" lon="3.15588">
        <ele>1164.6</ele>
        <time>2015-09-18T13:48:37Z</time>
      </trkpt>
      <trkpt lat="44.69322" lon="3.15574">
        <ele>1164.6</ele>
        <time>2015-09-18T13:48:41Z</time>
      </trkpt>
      <trkpt lat="44.69316" lon="3.15561">
        <ele>1164.6</ele>
        <time>2015-09-18T13:48:45Z</time>
      </trkpt>
      <trkpt lat="44.69312" lon="3.15549">
        <ele>1164.7</ele>
        <time>2015-09-18T13:48:49Z</time>
      </trkpt>
      <trkpt lat="44.69305" lon="3.15537">
        <ele>1165</ele>
        <time>2015-09-18T13:48:54Z</time>
      </trkpt>
      <trkpt lat="44.69298" lon="3.15526">
        <ele>1165.5</ele>
        <time>2015-09-18T13:48:59Z</time>
      </trkpt>
      <trkpt lat="44.69292" lon="3.15516">
        <ele>1166</ele>
        <time>2015-09-18T13:49:04Z</time>
      </trkpt>
      <trkpt lat="44.69285" lon="3.15505">
        <ele>1166.8</ele>
        <time>2015-09-18T13:49:09Z</time>
      </trkpt>
      <trkpt lat="44.69277" lon="3.15495">
        <ele>1167.5</ele>
        <time>2015-09-18T13:49:14Z</time>
      </trkpt>
      <trkpt lat="44.6927" lon="3.15486">
        <ele>1168.3</ele>
        <time>2015-09-18T13:49:19Z</time>
      </trkpt>
      <trkpt lat="44.69262" lon="3.15477">
        <ele>1169</ele>
        <time>2015-09-18T13:49:24Z</time>
      </trkpt>
      <trkpt lat="44.69254" lon="3.15468">
        <ele>1169.9</ele>
        <time>2015-09-18T13:49:30Z</time>
      </trkpt>
      <trkpt lat="44.69245" lon="3.1546">
        <ele>1170.8</ele>
        <time>2015-09-18T13:49:36Z</time>
      </trkpt>
      <trkpt lat="44.69237" lon="3.15451">
        <ele>1171.7</ele>
        <time>2015-09-18T13:49:43Z</time>
      </trkpt>
      <trkpt lat="44.69229" lon="3.15442">
        <ele>1172.4</ele>
        <time>2015-09-18T13:49:50Z</time>
      </trkpt>
      <trkpt lat="44.6922" lon="3.15436">
        <ele>1173.2</ele>
        <time>2015-09-18T13:49:57Z</time>
      </trkpt>
      <trkpt lat="44.69213" lon="3.15429">
        <ele>1173.7</ele>
        <time>2015-09-18T13:50:02Z</time>
      </trkpt>
      <trkpt lat="44.69203" lon="3.15423">
        <ele>1174.2</ele>
        <time>2015-09-18T13:50:07Z</time>
      </trkpt>
      <trkpt lat="44.69194" lon="3.15421">
        <ele>1174.7</ele>
        <time>2015-09-18T13:50:12Z</time>
      </trkpt>
      <trkpt lat="44.69184" lon="3.15419">
        <ele>1175.2</ele>
        <time>2015-09-18T13:50:17Z</time>
      </trkpt>
      <trkpt lat="44.69174" lon="3.15419">
        <ele>1175.6</ele>
        <time>2015-09-18T13:50:21Z</time>
      </trkpt>
      <trkpt lat="44.69163" lon="3.15418">
        <ele>1175.9</ele>
        <time>2015-09-18T13:50:25Z</time>
      </trkpt>
      <trkpt lat="44.69152" lon="3.15419">
        <ele>1176.2</ele>
        <time>2015-09-18T13:50:29Z</time>
      </trkpt>
      <trkpt lat="44.69142" lon="3.1542">
        <ele>1176.4</ele>
        <time>2015-09-18T13:50:32Z</time>
      </trkpt>
      <trkpt lat="44.69132" lon="3.15419">
        <ele>1176.6</ele>
        <time>2015-09-18T13:50:35Z</time>
      </trkpt>
      <trkpt lat="44.69122" lon="3.15416">
        <ele>1176.7</ele>
        <time>2015-09-18T13:50:38Z</time>
      </trkpt>
      <trkpt lat="44.69111" lon="3.15414">
        <ele>1176.8</ele>
        <time>2015-09-18T13:50:41Z</time>
      </trkpt>
      <trkpt lat="44.69102" lon="3.15412">
        <ele>1176.9</ele>
        <time>2015-09-18T13:50:44Z</time>
      </trkpt>
      <trkpt lat="44.69091" lon="3.15411">
        <ele>1177</ele>
        <time>2015-09-18T13:50:47Z</time>
      </trkpt>
      <trkpt lat="44.69081" lon="3.1541">
        <ele>1177.1</ele>
        <time>2015-09-18T13:50:50Z</time>
      </trkpt>
      <trkpt lat="44.6907" lon="3.15409">
        <ele>1177.1</ele>
        <time>2015-09-18T13:50:53Z</time>
      </trkpt>
      <trkpt lat="44.69061" lon="3.15409">
        <ele>1177.2</ele>
        <time>2015-09-18T13:50:56Z</time>
      </trkpt>
      <trkpt lat="44.69052" lon="3.15408">
        <ele>1177.2</ele>
        <time>2015-09-18T13:51:00Z</time>
      </trkpt>
      <trkpt lat="44.69042" lon="3.15407">
        <ele>1177.3</ele>
        <time>2015-09-18T13:51:04Z</time>
      </trkpt>
      <trkpt lat="44.69031" lon="3.15406">
        <ele>1177.3</ele>
        <time>2015-09-18T13:51:09Z</time>
      </trkpt>
      <trkpt lat="44.69021" lon="3.15405">
        <ele>1177.3</ele>
        <time>2015-09-18T13:51:13Z</time>
      </trkpt>
      <trkpt lat="44.69011" lon="3.15404">
        <ele>1177.4</ele>
        <time>2015-09-18T13:51:17Z</time>
      </trkpt>
      <trkpt lat="44.69001" lon="3.15403">
        <ele>1177.5</ele>
        <time>2015-09-18T13:51:21Z</time>
      </trkpt>
      <trkpt lat="44.6899" lon="3.15402">
        <ele>1177.7</ele>
        <time>2015-09-18T13:51:25Z</time>
      </trkpt>
      <trkpt lat="44.68978" lon="3.15401">
        <ele>1177.9</ele>
        <time>2015-09-18T13:51:29Z</time>
      </trkpt>
      <trkpt lat="44.68968" lon="3.154">
        <ele>1178.1</ele>
        <time>2015-09-18T13:51:33Z</time>
      </trkpt>
      <trkpt lat="44.68958" lon="3.15401">
        <ele>1178.3</ele>
        <time>2015-09-18T13:51:37Z</time>
      </trkpt>
      <trkpt lat="44.68948" lon="3.154">
        <ele>1178.7</ele>
        <time>2015-09-18T13:51:42Z</time>
      </trkpt>
      <trkpt lat="44.68938" lon="3.15396">
        <ele>1179</ele>
        <time>2015-09-18T13:51:47Z</time>
      </trkpt>
      <trkpt lat="44.68933" lon="3.15385">
        <ele>1181.7</ele>
        <time>2015-09-18T13:57:36Z</time>
      </trkpt>
      <trkpt lat="44.68928" lon="3.15374">
        <ele>1181.7</ele>
        <time>2015-09-18T13:57:42Z</time>
      </trkpt>
      <trkpt lat="44.68923" lon="3.15362">
        <ele>1181.7</ele>
        <time>2015-09-18T13:57:47Z</time>
      </trkpt>
      <trkpt lat="44.68917" lon="3.15349">
        <ele>1181.7</ele>
        <time>2015-09-18T13:57:52Z</time>
      </trkpt>
      <trkpt lat="44.68912" lon="3.15337">
        <ele>1181.8</ele>
        <time>2015-09-18T13:57:56Z</time>
      </trkpt>
      <trkpt lat="44.68907" lon="3.15324">
        <ele>1181.9</ele>
        <time>2015-09-18T13:58:00Z</time>
      </trkpt>
      <trkpt lat="44.68902" lon="3.15311">
        <ele>1181.9</ele>
        <time>2015-09-18T13:58:04Z</time>
      </trkpt>
      <trkpt lat="44.68898" lon="3.15298">
        <ele>1182</ele>
        <time>2015-09-18T13:58:08Z</time>
      </trkpt>
      <trkpt lat="44.68895" lon="3.15285">
        <ele>1182</ele>
        <time>2015-09-18T13:58:11Z</time>
      </trkpt>
      <trkpt lat="44.68894" lon="3.15272">
        <ele>1182.1</ele>
        <time>2015-09-18T13:58:14Z</time>
      </trkpt>
      <trkpt lat="44.68896" lon="3.15256">
        <ele>1182.2</ele>
        <time>2015-09-18T13:58:18Z</time>
      </trkpt>
      <trkpt lat="44.68897" lon="3.15243">
        <ele>1182.2</ele>
        <time>2015-09-18T13:58:21Z</time>
      </trkpt>
      <trkpt lat="44.68898" lon="3.15229">
        <ele>1182.2</ele>
        <time>2015-09-18T13:58:24Z</time>
      </trkpt>
      <trkpt lat="44.68895" lon="3.15213">
        <ele>1182.3</ele>
        <time>2015-09-18T13:58:28Z</time>
      </trkpt>
      <trkpt lat="44.68889" lon="3.152">
        <ele>1182.3</ele>
        <time>2015-09-18T13:58:32Z</time>
      </trkpt>
      <trkpt lat="44.68882" lon="3.15189">
        <ele>1182.4</ele>
        <time>2015-09-18T13:58:36Z</time>
      </trkpt>
      <trkpt lat="44.68875" lon="3.15178">
        <ele>1182.4</ele>
        <time>2015-09-18T13:58:40Z</time>
      </trkpt>
      <trkpt lat="44.68867" lon="3.15166">
        <ele>1182.5</ele>
        <time>2015-09-18T13:58:44Z</time>
      </trkpt>
      <trkpt lat="44.6886" lon="3.15159">
        <ele>1182.5</ele>
        <time>2015-09-18T13:58:47Z</time>
      </trkpt>
      <trkpt lat="44.6885" lon="3.15152">
        <ele>1182.6</ele>
        <time>2015-09-18T13:58:51Z</time>
      </trkpt>
      <trkpt lat="44.6884" lon="3.15143">
        <ele>1182.7</ele>
        <time>2015-09-18T13:58:55Z</time>
      </trkpt>
      <trkpt lat="44.68832" lon="3.15133">
        <ele>1182.8</ele>
        <time>2015-09-18T13:58:59Z</time>
      </trkpt>
      <trkpt lat="44.68824" lon="3.15122">
        <ele>1183</ele>
        <time>2015-09-18T13:59:03Z</time>
      </trkpt>
      <trkpt lat="44.68816" lon="3.15111">
        <ele>1183.2</ele>
        <time>2015-09-18T13:59:07Z</time>
      </trkpt>
      <trkpt lat="44.6881" lon="3.151">
        <ele>1183.3</ele>
        <time>2015-09-18T13:59:11Z</time>
      </trkpt>
      <trkpt lat="44.68802" lon="3.15089">
        <ele>1183.5</ele>
        <time>2015-09-18T13:59:15Z</time>
      </trkpt>
      <trkpt lat="44.68796" lon="3.15078">
        <ele>1183.7</ele>
        <time>2015-09-18T13:59:19Z</time>
      </trkpt>
      <trkpt lat="44.68789" lon="3.15068">
        <ele>1184.1</ele>
        <time>2015-09-18T13:59:23Z</time>
      </trkpt>
      <trkpt lat="44.68783" lon="3.15058">
        <ele>1184.5</ele>
        <time>2015-09-18T13:59:27Z</time>
      </trkpt>
      <trkpt lat="44.68777" lon="3.15048">
        <ele>1184.9</ele>
        <time>2015-09-18T13:59:31Z</time>
      </trkpt>
      <trkpt lat="44.68771" lon="3.15038">
        <ele>1185.4</ele>
        <time>2015-09-18T13:59:35Z</time>
      </trkpt>
      <trkpt lat="44.68766" lon="3.15027">
        <ele>1185.8</ele>
        <time>2015-09-18T13:59:39Z</time>
      </trkpt>
      <trkpt lat="44.68764" lon="3.15013">
        <ele>1186.4</ele>
        <time>2015-09-18T13:59:44Z</time>
      </trkpt>
      <trkpt lat="44.68763" lon="3.14998">
        <ele>1186.9</ele>
        <time>2015-09-18T13:59:49Z</time>
      </trkpt>
      <trkpt lat="44.68765" lon="3.14984">
        <ele>1187.5</ele>
        <time>2015-09-18T13:59:53Z</time>
      </trkpt>
      <trkpt lat="44.68766" lon="3.14971">
        <ele>1188</ele>
        <time>2015-09-18T13:59:57Z</time>
      </trkpt>
      <trkpt lat="44.68767" lon="3.14957">
        <ele>1188.6</ele>
        <time>2015-09-18T14:00:01Z</time>
      </trkpt>
      <trkpt lat="44.68768" lon="3.14944">
        <ele>1189.1</ele>
        <time>2015-09-18T14:00:05Z</time>
      </trkpt>
      <trkpt lat="44.68768" lon="3.14932">
        <ele>1189.6</ele>
        <time>2015-09-18T14:00:09Z</time>
      </trkpt>
      <trkpt lat="44.68768" lon="3.14916">
        <ele>1190.2</ele>
        <time>2015-09-18T14:00:14Z</time>
      </trkpt>
      <trkpt lat="44.68766" lon="3.14903">
        <ele>1190.6</ele>
        <time>2015-09-18T14:00:18Z</time>
      </trkpt>
      <trkpt lat="44.68762" lon="3.14891">
        <ele>1190.9</ele>
        <time>2015-09-18T14:00:22Z</time>
      </trkpt>
      <trkpt lat="44.68758" lon="3.14878">
        <ele>1191.2</ele>
        <time>2015-09-18T14:00:26Z</time>
      </trkpt>
      <trkpt lat="44.68755" lon="3.14864">
        <ele>1191.6</ele>
        <time>2015-09-18T14:00:31Z</time>
      </trkpt>
      <trkpt lat="44.68753" lon="3.14848">
        <ele>1192.1</ele>
        <time>2015-09-18T14:00:36Z</time>
      </trkpt>
      <trkpt lat="44.68754" lon="3.14835">
        <ele>1192.5</ele>
        <time>2015-09-18T14:00:41Z</time>
      </trkpt>
      <trkpt lat="44.68753" lon="3.1482">
        <ele>1193</ele>
        <time>2015-09-18T14:00:47Z</time>
      </trkpt>
      <trkpt lat="44.68752" lon="3.14807">
        <ele>1193.4</ele>
        <time>2015-09-18T14:00:51Z</time>
      </trkpt>
      <trkpt lat="44.68753" lon="3.14793">
        <ele>1193.9</ele>
        <time>2015-09-18T14:00:56Z</time>
      </trkpt>
      <trkpt lat="44.6875" lon="3.1478">
        <ele>1194.3</ele>
        <time>2015-09-18T14:01:01Z</time>
      </trkpt>
      <trkpt lat="44.68747" lon="3.14768">
        <ele>1194.9</ele>
        <time>2015-09-18T14:01:06Z</time>
      </trkpt>
      <trkpt lat="44.68741" lon="3.14758">
        <ele>1195.4</ele>
        <time>2015-09-18T14:01:11Z</time>
      </trkpt>
      <trkpt lat="44.68736" lon="3.14747">
        <ele>1196</ele>
        <time>2015-09-18T14:01:16Z</time>
      </trkpt>
      <trkpt lat="44.68733" lon="3.14735">
        <ele>1196.4</ele>
        <time>2015-09-18T14:01:21Z</time>
      </trkpt>
      <trkpt lat="44.68727" lon="3.14723">
        <ele>1196.7</ele>
        <time>2015-09-18T14:01:25Z</time>
      </trkpt>
      <trkpt lat="44.68722" lon="3.1471">
        <ele>1196.9</ele>
        <time>2015-09-18T14:01:29Z</time>
      </trkpt>
      <trkpt lat="44.68717" lon="3.14698">
        <ele>1197</ele>
        <time>2015-09-18T14:01:33Z</time>
      </trkpt>
      <trkpt lat="44.68711" lon="3.14687">
        <ele>1197.2</ele>
        <time>2015-09-18T14:01:37Z</time>
      </trkpt>
      <trkpt lat="44.68703" lon="3.14676">
        <ele>1197.3</ele>
        <time>2015-09-18T14:01:41Z</time>
      </trkpt>
      <trkpt lat="44.68694" lon="3.14665">
        <ele>1197.3</ele>
        <time>2015-09-18T14:01:45Z</time>
      </trkpt>
      <trkpt lat="44.68688" lon="3.14655">
        <ele>1197.4</ele>
        <time>2015-09-18T14:01:48Z</time>
      </trkpt>
      <trkpt lat="44.68681" lon="3.14646">
        <ele>1197.5</ele>
        <time>2015-09-18T14:01:51Z</time>
      </trkpt>
      <trkpt lat="44.68672" lon="3.14635">
        <ele>1197.6</ele>
        <time>2015-09-18T14:01:55Z</time>
      </trkpt>
      <trkpt lat="44.68665" lon="3.14622">
        <ele>1197.7</ele>
        <time>2015-09-18T14:01:59Z</time>
      </trkpt>
      <trkpt lat="44.68658" lon="3.1461">
        <ele>1197.7</ele>
        <time>2015-09-18T14:02:03Z</time>
      </trkpt>
      <trkpt lat="44.68651" lon="3.14598">
        <ele>1197.8</ele>
        <time>2015-09-18T14:02:07Z</time>
      </trkpt>
      <trkpt lat="44.68644" lon="3.14584">
        <ele>1197.8</ele>
        <time>2015-09-18T14:02:11Z</time>
      </trkpt>
      <trkpt lat="44.68639" lon="3.14572">
        <ele>1197.8</ele>
        <time>2015-09-18T14:02:14Z</time>
      </trkpt>
      <trkpt lat="44.68632" lon="3.1456">
        <ele>1197.7</ele>
        <time>2015-09-18T14:02:17Z</time>
      </trkpt>
      <trkpt lat="44.68628" lon="3.14548">
        <ele>1197.4</ele>
        <time>2015-09-18T14:02:20Z</time>
      </trkpt>
      <trkpt lat="44.68626" lon="3.14535">
        <ele>1197</ele>
        <time>2015-09-18T14:02:23Z</time>
      </trkpt>
      <trkpt lat="44.68629" lon="3.14523">
        <ele>1196.2</ele>
        <time>2015-09-18T14:02:29Z</time>
      </trkpt>
      <trkpt lat="44.68627" lon="3.1451">
        <ele>1195.4</ele>
        <time>2015-09-18T14:02:36Z</time>
      </trkpt>
      <trkpt lat="44.68627" lon="3.14496">
        <ele>1195</ele>
        <time>2015-09-18T14:02:39Z</time>
      </trkpt>
      <trkpt lat="44.68628" lon="3.14478">
        <ele>1194.5</ele>
        <time>2015-09-18T14:02:42Z</time>
      </trkpt>
      <trkpt lat="44.68629" lon="3.14459">
        <ele>1194</ele>
        <time>2015-09-18T14:02:45Z</time>
      </trkpt>
      <trkpt lat="44.6863" lon="3.14445">
        <ele>1193.6</ele>
        <time>2015-09-18T14:02:47Z</time>
      </trkpt>
      <trkpt lat="44.68631" lon="3.14429">
        <ele>1193.2</ele>
        <time>2015-09-18T14:02:49Z</time>
      </trkpt>
      <trkpt lat="44.68631" lon="3.14412">
        <ele>1192.8</ele>
        <time>2015-09-18T14:02:51Z</time>
      </trkpt>
      <trkpt lat="44.68632" lon="3.14395">
        <ele>1192.3</ele>
        <time>2015-09-18T14:02:53Z</time>
      </trkpt>
      <trkpt lat="44.68633" lon="3.14377">
        <ele>1191.9</ele>
        <time>2015-09-18T14:02:55Z</time>
      </trkpt>
      <trkpt lat="44.68634" lon="3.14361">
        <ele>1191.5</ele>
        <time>2015-09-18T14:02:57Z</time>
      </trkpt>
      <trkpt lat="44.68635" lon="3.14345">
        <ele>1191.1</ele>
        <time>2015-09-18T14:02:59Z</time>
      </trkpt>
      <trkpt lat="44.68635" lon="3.14331">
        <ele>1190.8</ele>
        <time>2015-09-18T14:03:01Z</time>
      </trkpt>
      <trkpt lat="44.68635" lon="3.14317">
        <ele>1190.4</ele>
        <time>2015-09-18T14:03:03Z</time>
      </trkpt>
      <trkpt lat="44.68633" lon="3.14301">
        <ele>1190</ele>
        <time>2015-09-18T14:03:06Z</time>
      </trkpt>
      <trkpt lat="44.68631" lon="3.14286">
        <ele>1189.6</ele>
        <time>2015-09-18T14:03:10Z</time>
      </trkpt>
      <trkpt lat="44.68629" lon="3.14271">
        <ele>1189.3</ele>
        <time>2015-09-18T14:03:14Z</time>
      </trkpt>
      <trkpt lat="44.68627" lon="3.14257">
        <ele>1189</ele>
        <time>2015-09-18T14:03:18Z</time>
      </trkpt>
      <trkpt lat="44.68625" lon="3.14241">
        <ele>1188.8</ele>
        <time>2015-09-18T14:03:22Z</time>
      </trkpt>
      <trkpt lat="44.68621" lon="3.14227">
        <ele>1188.7</ele>
        <time>2015-09-18T14:03:25Z</time>
      </trkpt>
      <trkpt lat="44.68619" lon="3.14215">
        <ele>1188.6</ele>
        <time>2015-09-18T14:03:28Z</time>
      </trkpt>
      <trkpt lat="44.68616" lon="3.14201">
        <ele>1188.5</ele>
        <time>2015-09-18T14:03:32Z</time>
      </trkpt>
      <trkpt lat="44.6861" lon="3.14189">
        <ele>1188.4</ele>
        <time>2015-09-18T14:03:36Z</time>
      </trkpt>
      <trkpt lat="44.68603" lon="3.1418">
        <ele>1188.5</ele>
        <time>2015-09-18T14:03:40Z</time>
      </trkpt>
      <trkpt lat="44.68594" lon="3.14171">
        <ele>1188.8</ele>
        <time>2015-09-18T14:03:45Z</time>
      </trkpt>
      <trkpt lat="44.68585" lon="3.14165">
        <ele>1189.3</ele>
        <time>2015-09-18T14:03:50Z</time>
      </trkpt>
      <trkpt lat="44.68577" lon="3.14159">
        <ele>1189.7</ele>
        <time>2015-09-18T14:03:55Z</time>
      </trkpt>
      <trkpt lat="44.68569" lon="3.1415">
        <ele>1190.6</ele>
        <time>2015-09-18T14:04:01Z</time>
      </trkpt>
      <trkpt lat="44.6856" lon="3.14143">
        <ele>1191.5</ele>
        <time>2015-09-18T14:04:07Z</time>
      </trkpt>
      <trkpt lat="44.68552" lon="3.14135">
        <ele>1192.4</ele>
        <time>2015-09-18T14:04:13Z</time>
      </trkpt>
      <trkpt lat="44.68543" lon="3.14128">
        <ele>1193.3</ele>
        <time>2015-09-18T14:04:19Z</time>
      </trkpt>
      <trkpt lat="44.68535" lon="3.1412">
        <ele>1194.4</ele>
        <time>2015-09-18T14:04:25Z</time>
      </trkpt>
      <trkpt lat="44.68528" lon="3.14109">
        <ele>1195.4</ele>
        <time>2015-09-18T14:04:31Z</time>
      </trkpt>
      <trkpt lat="44.68522" lon="3.14099">
        <ele>1196.3</ele>
        <time>2015-09-18T14:04:36Z</time>
      </trkpt>
      <trkpt lat="44.68514" lon="3.14092">
        <ele>1196.9</ele>
        <time>2015-09-18T14:04:41Z</time>
      </trkpt>
      <trkpt lat="44.68505" lon="3.14086">
        <ele>1197.4</ele>
        <time>2015-09-18T14:04:46Z</time>
      </trkpt>
      <trkpt lat="44.68495" lon="3.14081">
        <ele>1197.8</ele>
        <time>2015-09-18T14:04:51Z</time>
      </trkpt>
      <trkpt lat="44.68487" lon="3.14073">
        <ele>1198.1</ele>
        <time>2015-09-18T14:04:55Z</time>
      </trkpt>
      <trkpt lat="44.68479" lon="3.14064">
        <ele>1198.3</ele>
        <time>2015-09-18T14:04:59Z</time>
      </trkpt>
      <trkpt lat="44.68469" lon="3.14057">
        <ele>1198.5</ele>
        <time>2015-09-18T14:05:04Z</time>
      </trkpt>
      <trkpt lat="44.68462" lon="3.14049">
        <ele>1198.7</ele>
        <time>2015-09-18T14:05:08Z</time>
      </trkpt>
      <trkpt lat="44.68456" lon="3.14039">
        <ele>1198.9</ele>
        <time>2015-09-18T14:05:12Z</time>
      </trkpt>
      <trkpt lat="44.6845" lon="3.14027">
        <ele>1199.5</ele>
        <time>2015-09-18T14:05:17Z</time>
      </trkpt>
      <trkpt lat="44.68447" lon="3.14014">
        <ele>1200</ele>
        <time>2015-09-18T14:05:22Z</time>
      </trkpt>
      <trkpt lat="44.68442" lon="3.14001">
        <ele>1200.6</ele>
        <time>2015-09-18T14:05:27Z</time>
      </trkpt>
      <trkpt lat="44.68437" lon="3.13989">
        <ele>1200.9</ele>
        <time>2015-09-18T14:05:31Z</time>
      </trkpt>
      <trkpt lat="44.68432" lon="3.13976">
        <ele>1201.3</ele>
        <time>2015-09-18T14:05:36Z</time>
      </trkpt>
      <trkpt lat="44.68427" lon="3.13963">
        <ele>1201.9</ele>
        <time>2015-09-18T14:05:41Z</time>
      </trkpt>
      <trkpt lat="44.68422" lon="3.1395">
        <ele>1202.4</ele>
        <time>2015-09-18T14:05:46Z</time>
      </trkpt>
      <trkpt lat="44.6842" lon="3.13935">
        <ele>1202.8</ele>
        <time>2015-09-18T14:05:51Z</time>
      </trkpt>
      <trkpt lat="44.68418" lon="3.13921">
        <ele>1203.2</ele>
        <time>2015-09-18T14:05:56Z</time>
      </trkpt>
      <trkpt lat="44.68415" lon="3.13909">
        <ele>1203.7</ele>
        <time>2015-09-18T14:06:01Z</time>
      </trkpt>
      <trkpt lat="44.68413" lon="3.13896">
        <ele>1204.4</ele>
        <time>2015-09-18T14:06:10Z</time>
      </trkpt>
      <trkpt lat="44.68419" lon="3.13886">
        <ele>1205.2</ele>
        <time>2015-09-18T14:06:23Z</time>
      </trkpt>
      <trkpt lat="44.68424" lon="3.13875">
        <ele>1205.7</ele>
        <time>2015-09-18T14:06:30Z</time>
      </trkpt>
      <trkpt lat="44.68428" lon="3.13863">
        <ele>1206.4</ele>
        <time>2015-09-18T14:06:38Z</time>
      </trkpt>
      <trkpt lat="44.68432" lon="3.13852">
        <ele>1207.1</ele>
        <time>2015-09-18T14:06:45Z</time>
      </trkpt>
      <trkpt lat="44.68436" lon="3.1384">
        <ele>1208</ele>
        <time>2015-09-18T14:06:52Z</time>
      </trkpt>
      <trkpt lat="44.6844" lon="3.13827">
        <ele>1209.1</ele>
        <time>2015-09-18T14:07:00Z</time>
      </trkpt>
      <trkpt lat="44.68442" lon="3.13813">
        <ele>1210</ele>
        <time>2015-09-18T14:07:08Z</time>
      </trkpt>
      <trkpt lat="44.68443" lon="3.138">
        <ele>1210.8</ele>
        <time>2015-09-18T14:07:16Z</time>
      </trkpt>
      <trkpt lat="44.6844" lon="3.13787">
        <ele>1211.7</ele>
        <time>2015-09-18T14:07:25Z</time>
      </trkpt>
      <trkpt lat="44.68436" lon="3.13775">
        <ele>1212.3</ele>
        <time>2015-09-18T14:07:33Z</time>
      </trkpt>
      <trkpt lat="44.68433" lon="3.13763">
        <ele>1213.4</ele>
        <time>2015-09-18T14:07:45Z</time>
      </trkpt>
      <trkpt lat="44.6843" lon="3.1375">
        <ele>1214.5</ele>
        <time>2015-09-18T14:07:55Z</time>
      </trkpt>
      <trkpt lat="44.68427" lon="3.13737">
        <ele>1215.5</ele>
        <time>2015-09-18T14:08:04Z</time>
      </trkpt>
      <trkpt lat="44.68423" lon="3.13725">
        <ele>1216.5</ele>
        <time>2015-09-18T14:08:13Z</time>
      </trkpt>
      <trkpt lat="44.68419" lon="3.13714">
        <ele>1217.6</ele>
        <time>2015-09-18T14:08:22Z</time>
      </trkpt>
      <trkpt lat="44.68414" lon="3.13701">
        <ele>1218.6</ele>
        <time>2015-09-18T14:08:32Z</time>
      </trkpt>
      <trkpt lat="44.6841" lon="3.1369">
        <ele>1219.4</ele>
        <time>2015-09-18T14:08:41Z</time>
      </trkpt>
      <trkpt lat="44.68404" lon="3.13678">
        <ele>1220</ele>
        <time>2015-09-18T14:08:50Z</time>
      </trkpt>
      <trkpt lat="44.68399" lon="3.13666">
        <ele>1220.5</ele>
        <time>2015-09-18T14:08:59Z</time>
      </trkpt>
      <trkpt lat="44.68396" lon="3.13653">
        <ele>1221</ele>
        <time>2015-09-18T14:09:08Z</time>
      </trkpt>
      <trkpt lat="44.68393" lon="3.1364">
        <ele>1221.5</ele>
        <time>2015-09-18T14:09:16Z</time>
      </trkpt>
      <trkpt lat="44.6839" lon="3.13628">
        <ele>1222.1</ele>
        <time>2015-09-18T14:09:25Z</time>
      </trkpt>
      <trkpt lat="44.68389" lon="3.13614">
        <ele>1222.6</ele>
        <time>2015-09-18T14:09:34Z</time>
      </trkpt>
      <trkpt lat="44.68388" lon="3.13599">
        <ele>1223.1</ele>
        <time>2015-09-18T14:09:47Z</time>
      </trkpt>
      <trkpt lat="44.68387" lon="3.13585">
        <ele>1223.1</ele>
        <time>2015-09-18T14:09:51Z</time>
      </trkpt>
      <trkpt lat="44.68386" lon="3.1357">
        <ele>1223.2</ele>
        <time>2015-09-18T14:09:55Z</time>
      </trkpt>
      <trkpt lat="44.68385" lon="3.13555">
        <ele>1223.2</ele>
        <time>2015-09-18T14:09:59Z</time>
      </trkpt>
      <trkpt lat="44.68384" lon="3.13542">
        <ele>1223.2</ele>
        <time>2015-09-18T14:10:02Z</time>
      </trkpt>
      <trkpt lat="44.68383" lon="3.13527">
        <ele>1223.1</ele>
        <time>2015-09-18T14:10:05Z</time>
      </trkpt>
      <trkpt lat="44.68382" lon="3.13512">
        <ele>1222.9</ele>
        <time>2015-09-18T14:10:08Z</time>
      </trkpt>
      <trkpt lat="44.68382" lon="3.13494">
        <ele>1222.5</ele>
        <time>2015-09-18T14:10:11Z</time>
      </trkpt>
      <trkpt lat="44.68382" lon="3.13481">
        <ele>1222.2</ele>
        <time>2015-09-18T14:10:13Z</time>
      </trkpt>
      <trkpt lat="44.68382" lon="3.13468">
        <ele>1221.9</ele>
        <time>2015-09-18T14:10:15Z</time>
      </trkpt>
      <trkpt lat="44.68383" lon="3.13454">
        <ele>1221.6</ele>
        <time>2015-09-18T14:10:17Z</time>
      </trkpt>
      <trkpt lat="44.68384" lon="3.13439">
        <ele>1221.2</ele>
        <time>2015-09-18T14:10:19Z</time>
      </trkpt>
      <trkpt lat="44.68386" lon="3.13424">
        <ele>1220.8</ele>
        <time>2015-09-18T14:10:21Z</time>
      </trkpt>
      <trkpt lat="44.68388" lon="3.13408">
        <ele>1220.3</ele>
        <time>2015-09-18T14:10:23Z</time>
      </trkpt>
      <trkpt lat="44.68389" lon="3.13392">
        <ele>1219.8</ele>
        <time>2015-09-18T14:10:25Z</time>
      </trkpt>
      <trkpt lat="44.68387" lon="3.13376">
        <ele>1219.3</ele>
        <time>2015-09-18T14:10:27Z</time>
      </trkpt>
      <trkpt lat="44.68385" lon="3.13361">
        <ele>1218.8</ele>
        <time>2015-09-18T14:10:29Z</time>
      </trkpt>
      <trkpt lat="44.68382" lon="3.13346">
        <ele>1218.3</ele>
        <time>2015-09-18T14:10:31Z</time>
      </trkpt>
      <trkpt lat="44.68379" lon="3.13331">
        <ele>1217.9</ele>
        <time>2015-09-18T14:10:33Z</time>
      </trkpt>
      <trkpt lat="44.68378" lon="3.13315">
        <ele>1217.3</ele>
        <time>2015-09-18T14:10:35Z</time>
      </trkpt>
      <trkpt lat="44.68379" lon="3.13296">
        <ele>1216.5</ele>
        <time>2015-09-18T14:10:37Z</time>
      </trkpt>
      <trkpt lat="44.68381" lon="3.13276">
        <ele>1215.6</ele>
        <time>2015-09-18T14:10:39Z</time>
      </trkpt>
      <trkpt lat="44.68382" lon="3.13256">
        <ele>1214.6</ele>
        <time>2015-09-18T14:10:41Z</time>
      </trkpt>
      <trkpt lat="44.6838" lon="3.13238">
        <ele>1213.6</ele>
        <time>2015-09-18T14:10:43Z</time>
      </trkpt>
      <trkpt lat="44.68372" lon="3.13223">
        <ele>1212.5</ele>
        <time>2015-09-18T14:10:45Z</time>
      </trkpt>
      <trkpt lat="44.68361" lon="3.13209">
        <ele>1211.3</ele>
        <time>2015-09-18T14:10:47Z</time>
      </trkpt>
      <trkpt lat="44.68348" lon="3.13197">
        <ele>1210</ele>
        <time>2015-09-18T14:10:49Z</time>
      </trkpt>
      <trkpt lat="44.68337" lon="3.13181">
        <ele>1208.8</ele>
        <time>2015-09-18T14:10:51Z</time>
      </trkpt>
      <trkpt lat="44.68331" lon="3.13164">
        <ele>1207.5</ele>
        <time>2015-09-18T14:10:53Z</time>
      </trkpt>
      <trkpt lat="44.68327" lon="3.13146">
        <ele>1206.4</ele>
        <time>2015-09-18T14:10:55Z</time>
      </trkpt>
      <trkpt lat="44.68326" lon="3.13129">
        <ele>1205.4</ele>
        <time>2015-09-18T14:10:57Z</time>
      </trkpt>
      <trkpt lat="44.68327" lon="3.13115">
        <ele>1204.5</ele>
        <time>2015-09-18T14:10:59Z</time>
      </trkpt>
      <trkpt lat="44.68326" lon="3.13101">
        <ele>1203.3</ele>
        <time>2015-09-18T14:11:02Z</time>
      </trkpt>
      <trkpt lat="44.68328" lon="3.13088">
        <ele>1199.6</ele>
        <time>2015-09-18T14:11:23Z</time>
      </trkpt>
      <trkpt lat="44.6833" lon="3.13075">
        <ele>1199.7</ele>
        <time>2015-09-18T14:11:31Z</time>
      </trkpt>
      <trkpt lat="44.68333" lon="3.13061">
        <ele>1200.4</ele>
        <time>2015-09-18T14:11:40Z</time>
      </trkpt>
      <trkpt lat="44.68337" lon="3.13049">
        <ele>1201.5</ele>
        <time>2015-09-18T14:11:49Z</time>
      </trkpt>
      <trkpt lat="44.68335" lon="3.13036">
        <ele>1202.7</ele>
        <time>2015-09-18T14:11:58Z</time>
      </trkpt>
      <trkpt lat="44.6833" lon="3.13025">
        <ele>1203.9</ele>
        <time>2015-09-18T14:12:07Z</time>
      </trkpt>
      <trkpt lat="44.68329" lon="3.13011">
        <ele>1206.8</ele>
        <time>2015-09-18T14:13:14Z</time>
      </trkpt>
      <trkpt lat="44.68329" lon="3.12998">
        <ele>1207.1</ele>
        <time>2015-09-18T14:13:24Z</time>
      </trkpt>
      <trkpt lat="44.68329" lon="3.12985">
        <ele>1207.6</ele>
        <time>2015-09-18T14:13:31Z</time>
      </trkpt>
      <trkpt lat="44.68331" lon="3.12972">
        <ele>1208.4</ele>
        <time>2015-09-18T14:13:39Z</time>
      </trkpt>
      <trkpt lat="44.68334" lon="3.1296">
        <ele>1209.5</ele>
        <time>2015-09-18T14:13:48Z</time>
      </trkpt>
      <trkpt lat="44.68336" lon="3.12947">
        <ele>1210.7</ele>
        <time>2015-09-18T14:13:58Z</time>
      </trkpt>
      <trkpt lat="44.68337" lon="3.12933">
        <ele>1211.9</ele>
        <time>2015-09-18T14:14:08Z</time>
      </trkpt>
      <trkpt lat="44.68338" lon="3.12921">
        <ele>1212.9</ele>
        <time>2015-09-18T14:14:17Z</time>
      </trkpt>
      <trkpt lat="44.68338" lon="3.12908">
        <ele>1213.6</ele>
        <time>2015-09-18T14:14:26Z</time>
      </trkpt>
      <trkpt lat="44.68336" lon="3.12895">
        <ele>1214.5</ele>
        <time>2015-09-18T14:14:36Z</time>
      </trkpt>
      <trkpt lat="44.68331" lon="3.12882">
        <ele>1217.1</ele>
        <time>2015-09-18T14:15:07Z</time>
      </trkpt>
      <trkpt lat="44.68329" lon="3.1287">
        <ele>1218</ele>
        <time>2015-09-18T14:15:18Z</time>
      </trkpt>
      <trkpt lat="44.68326" lon="3.12857">
        <ele>1219.5</ele>
        <time>2015-09-18T14:15:30Z</time>
      </trkpt>
      <trkpt lat="44.68322" lon="3.12846">
        <ele>1220.8</ele>
        <time>2015-09-18T14:15:40Z</time>
      </trkpt>
      <trkpt lat="44.68315" lon="3.12835">
        <ele>1221.9</ele>
        <time>2015-09-18T14:15:49Z</time>
      </trkpt>
      <trkpt lat="44.68308" lon="3.12825">
        <ele>1223</ele>
        <time>2015-09-18T14:15:58Z</time>
      </trkpt>
      <trkpt lat="44.68303" lon="3.12815">
        <ele>1223.9</ele>
        <time>2015-09-18T14:16:07Z</time>
      </trkpt>
      <trkpt lat="44.68297" lon="3.12805">
        <ele>1224.9</ele>
        <time>2015-09-18T14:16:16Z</time>
      </trkpt>
      <trkpt lat="44.68291" lon="3.12794">
        <ele>1225.9</ele>
        <time>2015-09-18T14:16:27Z</time>
      </trkpt>
      <trkpt lat="44.68288" lon="3.12783">
        <ele>1227</ele>
        <time>2015-09-18T14:16:38Z</time>
      </trkpt>
      <trkpt lat="44.68284" lon="3.1277">
        <ele>1228.2</ele>
        <time>2015-09-18T14:16:49Z</time>
      </trkpt>
      <trkpt lat="44.6828" lon="3.12758">
        <ele>1229.4</ele>
        <time>2015-09-18T14:16:59Z</time>
      </trkpt>
      <trkpt lat="44.68278" lon="3.12746">
        <ele>1230.6</ele>
        <time>2015-09-18T14:17:09Z</time>
      </trkpt>
      <trkpt lat="44.68273" lon="3.12734">
        <ele>1231.9</ele>
        <time>2015-09-18T14:17:19Z</time>
      </trkpt>
      <trkpt lat="44.68271" lon="3.12722">
        <ele>1234.4</ele>
        <time>2015-09-18T14:18:03Z</time>
      </trkpt>
      <trkpt lat="44.68272" lon="3.12708">
        <ele>1235</ele>
        <time>2015-09-18T14:18:16Z</time>
      </trkpt>
      <trkpt lat="44.68268" lon="3.12696">
        <ele>1235.9</ele>
        <time>2015-09-18T14:18:27Z</time>
      </trkpt>
      <trkpt lat="44.68263" lon="3.12686">
        <ele>1237.2</ele>
        <time>2015-09-18T14:18:40Z</time>
      </trkpt>
      <trkpt lat="44.68259" lon="3.12674">
        <ele>1238.7</ele>
        <time>2015-09-18T14:18:55Z</time>
      </trkpt>
      <trkpt lat="44.68253" lon="3.12663">
        <ele>1239.8</ele>
        <time>2015-09-18T14:19:06Z</time>
      </trkpt>
      <trkpt lat="44.6825" lon="3.12651">
        <ele>1240.9</ele>
        <time>2015-09-18T14:19:17Z</time>
      </trkpt>
      <trkpt lat="44.68248" lon="3.12638">
        <ele>1241.8</ele>
        <time>2015-09-18T14:19:27Z</time>
      </trkpt>
      <trkpt lat="44.68246" lon="3.12625">
        <ele>1242.6</ele>
        <time>2015-09-18T14:19:37Z</time>
      </trkpt>
      <trkpt lat="44.68244" lon="3.12612">
        <ele>1243.2</ele>
        <time>2015-09-18T14:19:45Z</time>
      </trkpt>
      <trkpt lat="44.68242" lon="3.12599">
        <ele>1244.3</ele>
        <time>2015-09-18T14:19:55Z</time>
      </trkpt>
      <trkpt lat="44.68241" lon="3.12587">
        <ele>1245.4</ele>
        <time>2015-09-18T14:20:05Z</time>
      </trkpt>
      <trkpt lat="44.68241" lon="3.12573">
        <ele>1246.4</ele>
        <time>2015-09-18T14:20:15Z</time>
      </trkpt>
      <trkpt lat="44.68241" lon="3.12559">
        <ele>1247.2</ele>
        <time>2015-09-18T14:20:25Z</time>
      </trkpt>
      <trkpt lat="44.68241" lon="3.12546">
        <ele>1248.1</ele>
        <time>2015-09-18T14:20:35Z</time>
      </trkpt>
      <trkpt lat="44.6824" lon="3.12533">
        <ele>1248.9</ele>
        <time>2015-09-18T14:20:45Z</time>
      </trkpt>
      <trkpt lat="44.6824" lon="3.1252">
        <ele>1249.4</ele>
        <time>2015-09-18T14:20:54Z</time>
      </trkpt>
      <trkpt lat="44.68238" lon="3.12507">
        <ele>1250.1</ele>
        <time>2015-09-18T14:21:05Z</time>
      </trkpt>
      <trkpt lat="44.68233" lon="3.12495">
        <ele>1250.5</ele>
        <time>2015-09-18T14:21:17Z</time>
      </trkpt>
      <trkpt lat="44.6823" lon="3.12482">
        <ele>1250.7</ele>
        <time>2015-09-18T14:21:23Z</time>
      </trkpt>
      <trkpt lat="44.68227" lon="3.1247">
        <ele>1250.9</ele>
        <time>2015-09-18T14:21:29Z</time>
      </trkpt>
      <trkpt lat="44.68222" lon="3.12458">
        <ele>1251.3</ele>
        <time>2015-09-18T14:21:36Z</time>
      </trkpt>
      <trkpt lat="44.68217" lon="3.12446">
        <ele>1251.7</ele>
        <time>2015-09-18T14:21:43Z</time>
      </trkpt>
      <trkpt lat="44.68212" lon="3.12433">
        <ele>1252.1</ele>
        <time>2015-09-18T14:21:49Z</time>
      </trkpt>
      <trkpt lat="44.68207" lon="3.12422">
        <ele>1252.3</ele>
        <time>2015-09-18T14:21:54Z</time>
      </trkpt>
      <trkpt lat="44.68202" lon="3.1241">
        <ele>1252.8</ele>
        <time>2015-09-18T14:21:59Z</time>
      </trkpt>
      <trkpt lat="44.68197" lon="3.12398">
        <ele>1253.5</ele>
        <time>2015-09-18T14:22:05Z</time>
      </trkpt>
      <trkpt lat="44.68191" lon="3.12387">
        <ele>1254.3</ele>
        <time>2015-09-18T14:22:11Z</time>
      </trkpt>
      <trkpt lat="44.68184" lon="3.12377">
        <ele>1255.1</ele>
        <time>2015-09-18T14:22:17Z</time>
      </trkpt>
      <trkpt lat="44.68176" lon="3.1237">
        <ele>1256.2</ele>
        <time>2015-09-18T14:22:25Z</time>
      </trkpt>
      <trkpt lat="44.68168" lon="3.12364">
        <ele>1257.5</ele>
        <time>2015-09-18T14:22:37Z</time>
      </trkpt>
      <trkpt lat="44.68158" lon="3.12363">
        <ele>1259.7</ele>
        <time>2015-09-18T14:29:50Z</time>
      </trkpt>
      <trkpt lat="44.68149" lon="3.12362">
        <ele>1260</ele>
        <time>2015-09-18T14:30:11Z</time>
      </trkpt>
      <trkpt lat="44.68139" lon="3.12362">
        <ele>1260</ele>
        <time>2015-09-18T14:30:17Z</time>
      </trkpt>
      <trkpt lat="44.6813" lon="3.12361">
        <ele>1260.1</ele>
        <time>2015-09-18T14:30:21Z</time>
      </trkpt>
      <trkpt lat="44.68119" lon="3.12361">
        <ele>1260.1</ele>
        <time>2015-09-18T14:30:24Z</time>
      </trkpt>
      <trkpt lat="44.68111" lon="3.12353">
        <ele>1260.1</ele>
        <time>2015-09-18T14:30:27Z</time>
      </trkpt>
      <trkpt lat="44.68104" lon="3.12341">
        <ele>1259.9</ele>
        <time>2015-09-18T14:30:30Z</time>
      </trkpt>
      <trkpt lat="44.68095" lon="3.12331">
        <ele>1259.6</ele>
        <time>2015-09-18T14:30:33Z</time>
      </trkpt>
      <trkpt lat="44.68087" lon="3.12323">
        <ele>1259.3</ele>
        <time>2015-09-18T14:30:36Z</time>
      </trkpt>
      <trkpt lat="44.68079" lon="3.12314">
        <ele>1258.9</ele>
        <time>2015-09-18T14:30:39Z</time>
      </trkpt>
      <trkpt lat="44.68071" lon="3.12304">
        <ele>1258.3</ele>
        <time>2015-09-18T14:30:43Z</time>
      </trkpt>
      <trkpt lat="44.68062" lon="3.12296">
        <ele>1257.5</ele>
        <time>2015-09-18T14:30:47Z</time>
      </trkpt>
      <trkpt lat="44.68054" lon="3.12287">
        <ele>1257</ele>
        <time>2015-09-18T14:30:50Z</time>
      </trkpt>
      <trkpt lat="44.68045" lon="3.12276">
        <ele>1256.2</ele>
        <time>2015-09-18T14:30:53Z</time>
      </trkpt>
      <trkpt lat="44.68039" lon="3.12266">
        <ele>1255.6</ele>
        <time>2015-09-18T14:30:55Z</time>
      </trkpt>
      <trkpt lat="44.68031" lon="3.12252">
        <ele>1254.7</ele>
        <time>2015-09-18T14:30:58Z</time>
      </trkpt>
      <trkpt lat="44.68025" lon="3.12239">
        <ele>1253.9</ele>
        <time>2015-09-18T14:31:01Z</time>
      </trkpt>
      <trkpt lat="44.68019" lon="3.12226">
        <ele>1253</ele>
        <time>2015-09-18T14:31:04Z</time>
      </trkpt>
      <trkpt lat="44.68013" lon="3.12213">
        <ele>1252.3</ele>
        <time>2015-09-18T14:31:07Z</time>
      </trkpt>
      <trkpt lat="44.68004" lon="3.12205">
        <ele>1251.2</ele>
        <time>2015-09-18T14:31:11Z</time>
      </trkpt>
      <trkpt lat="44.67996" lon="3.12193">
        <ele>1250.3</ele>
        <time>2015-09-18T14:31:15Z</time>
      </trkpt>
      <trkpt lat="44.6799" lon="3.1218">
        <ele>1249.1</ele>
        <time>2015-09-18T14:31:20Z</time>
      </trkpt>
      <trkpt lat="44.67989" lon="3.12164">
        <ele>1247.8</ele>
        <time>2015-09-18T14:31:25Z</time>
      </trkpt>
      <trkpt lat="44.67988" lon="3.12148">
        <ele>1246.8</ele>
        <time>2015-09-18T14:31:29Z</time>
      </trkpt>
      <trkpt lat="44.67988" lon="3.12135">
        <ele>1246</ele>
        <time>2015-09-18T14:31:32Z</time>
      </trkpt>
      <trkpt lat="44.67987" lon="3.12121">
        <ele>1245.2</ele>
        <time>2015-09-18T14:31:35Z</time>
      </trkpt>
      <trkpt lat="44.67988" lon="3.12105">
        <ele>1244.2</ele>
        <time>2015-09-18T14:31:39Z</time>
      </trkpt>
      <trkpt lat="44.67988" lon="3.12091">
        <ele>1243.5</ele>
        <time>2015-09-18T14:31:42Z</time>
      </trkpt>
      <trkpt lat="44.67989" lon="3.12076">
        <ele>1242.8</ele>
        <time>2015-09-18T14:31:45Z</time>
      </trkpt>
      <trkpt lat="44.67994" lon="3.12064">
        <ele>1241.8</ele>
        <time>2015-09-18T14:31:49Z</time>
      </trkpt>
      <trkpt lat="44.68003" lon="3.12059">
        <ele>1240.8</ele>
        <time>2015-09-18T14:31:53Z</time>
      </trkpt>
      <trkpt lat="44.6801" lon="3.12049">
        <ele>1239.7</ele>
        <time>2015-09-18T14:31:58Z</time>
      </trkpt>
      <trkpt lat="44.68017" lon="3.12041">
        <ele>1239</ele>
        <time>2015-09-18T14:32:01Z</time>
      </trkpt>
      <trkpt lat="44.68027" lon="3.12033">
        <ele>1238.2</ele>
        <time>2015-09-18T14:32:04Z</time>
      </trkpt>
      <trkpt lat="44.68036" lon="3.12025">
        <ele>1237.5</ele>
        <time>2015-09-18T14:32:07Z</time>
      </trkpt>
      <trkpt lat="44.68044" lon="3.12018">
        <ele>1237</ele>
        <time>2015-09-18T14:32:10Z</time>
      </trkpt>
      <trkpt lat="44.6805" lon="3.12005">
        <ele>1236.1</ele>
        <time>2015-09-18T14:32:14Z</time>
      </trkpt>
      <trkpt lat="44.68044" lon="3.11992">
        <ele>1235.3</ele>
        <time>2015-09-18T14:32:18Z</time>
      </trkpt>
      <trkpt lat="44.68038" lon="3.11979">
        <ele>1234.7</ele>
        <time>2015-09-18T14:32:21Z</time>
      </trkpt>
      <trkpt lat="44.68031" lon="3.11965">
        <ele>1234.2</ele>
        <time>2015-09-18T14:32:24Z</time>
      </trkpt>
      <trkpt lat="44.68025" lon="3.11955">
        <ele>1233.8</ele>
        <time>2015-09-18T14:32:27Z</time>
      </trkpt>
      <trkpt lat="44.68018" lon="3.11945">
        <ele>1233.3</ele>
        <time>2015-09-18T14:32:31Z</time>
      </trkpt>
      <trkpt lat="44.6801" lon="3.11934">
        <ele>1232.9</ele>
        <time>2015-09-18T14:32:36Z</time>
      </trkpt>
      <trkpt lat="44.68" lon="3.11927">
        <ele>1232.4</ele>
        <time>2015-09-18T14:32:41Z</time>
      </trkpt>
      <trkpt lat="44.67989" lon="3.11921">
        <ele>1231.9</ele>
        <time>2015-09-18T14:32:45Z</time>
      </trkpt>
      <trkpt lat="44.67978" lon="3.11913">
        <ele>1231.5</ele>
        <time>2015-09-18T14:32:48Z</time>
      </trkpt>
      <trkpt lat="44.67971" lon="3.11906">
        <ele>1231.2</ele>
        <time>2015-09-18T14:32:50Z</time>
      </trkpt>
      <trkpt lat="44.6796" lon="3.11898">
        <ele>1231</ele>
        <time>2015-09-18T14:32:53Z</time>
      </trkpt>
      <trkpt lat="44.6795" lon="3.11889">
        <ele>1230.7</ele>
        <time>2015-09-18T14:32:56Z</time>
      </trkpt>
      <trkpt lat="44.6794" lon="3.1188">
        <ele>1230.4</ele>
        <time>2015-09-18T14:32:59Z</time>
      </trkpt>
      <trkpt lat="44.6793" lon="3.11868">
        <ele>1230.1</ele>
        <time>2015-09-18T14:33:02Z</time>
      </trkpt>
      <trkpt lat="44.6792" lon="3.11857">
        <ele>1229.8</ele>
        <time>2015-09-18T14:33:05Z</time>
      </trkpt>
      <trkpt lat="44.67912" lon="3.11847">
        <ele>1229.3</ele>
        <time>2015-09-18T14:33:08Z</time>
      </trkpt>
      <trkpt lat="44.67904" lon="3.11839">
        <ele>1228.8</ele>
        <time>2015-09-18T14:33:11Z</time>
      </trkpt>
      <trkpt lat="44.67895" lon="3.11833">
        <ele>1228.2</ele>
        <time>2015-09-18T14:33:14Z</time>
      </trkpt>
      <trkpt lat="44.67886" lon="3.11825">
        <ele>1227.4</ele>
        <time>2015-09-18T14:33:17Z</time>
      </trkpt>
      <trkpt lat="44.67876" lon="3.11815">
        <ele>1226.5</ele>
        <time>2015-09-18T14:33:20Z</time>
      </trkpt>
      <trkpt lat="44.6787" lon="3.11802">
        <ele>1225.7</ele>
        <time>2015-09-18T14:33:23Z</time>
      </trkpt>
      <trkpt lat="44.67864" lon="3.1179">
        <ele>1224.5</ele>
        <time>2015-09-18T14:33:27Z</time>
      </trkpt>
      <trkpt lat="44.6786" lon="3.11776">
        <ele>1223.3</ele>
        <time>2015-09-18T14:33:31Z</time>
      </trkpt>
      <trkpt lat="44.67855" lon="3.11763">
        <ele>1222.5</ele>
        <time>2015-09-18T14:33:34Z</time>
      </trkpt>
      <trkpt lat="44.6785" lon="3.11751">
        <ele>1221.8</ele>
        <time>2015-09-18T14:33:36Z</time>
      </trkpt>
      <trkpt lat="44.67846" lon="3.11738">
        <ele>1221.1</ele>
        <time>2015-09-18T14:33:38Z</time>
      </trkpt>
      <trkpt lat="44.6784" lon="3.11723">
        <ele>1219.9</ele>
        <time>2015-09-18T14:33:41Z</time>
      </trkpt>
      <trkpt lat="44.67834" lon="3.11706">
        <ele>1218.6</ele>
        <time>2015-09-18T14:33:44Z</time>
      </trkpt>
      <trkpt lat="44.6783" lon="3.11691">
        <ele>1217.6</ele>
        <time>2015-09-18T14:33:46Z</time>
      </trkpt>
      <trkpt lat="44.67828" lon="3.11676">
        <ele>1216.7</ele>
        <time>2015-09-18T14:33:48Z</time>
      </trkpt>
      <trkpt lat="44.67832" lon="3.11662">
        <ele>1215.9</ele>
        <time>2015-09-18T14:33:50Z</time>
      </trkpt>
      <trkpt lat="44.67835" lon="3.11648">
        <ele>1215.2</ele>
        <time>2015-09-18T14:33:52Z</time>
      </trkpt>
      <trkpt lat="44.67839" lon="3.11634">
        <ele>1214.4</ele>
        <time>2015-09-18T14:33:54Z</time>
      </trkpt>
      <trkpt lat="44.67842" lon="3.1162">
        <ele>1213.6</ele>
        <time>2015-09-18T14:33:56Z</time>
      </trkpt>
      <trkpt lat="44.67845" lon="3.11603">
        <ele>1212.8</ele>
        <time>2015-09-18T14:33:58Z</time>
      </trkpt>
      <trkpt lat="44.67847" lon="3.11583">
        <ele>1211.9</ele>
        <time>2015-09-18T14:34:00Z</time>
      </trkpt>
      <trkpt lat="44.67849" lon="3.11561">
        <ele>1210.9</ele>
        <time>2015-09-18T14:34:02Z</time>
      </trkpt>
      <trkpt lat="44.67851" lon="3.11538">
        <ele>1209.8</ele>
        <time>2015-09-18T14:34:04Z</time>
      </trkpt>
      <trkpt lat="44.67848" lon="3.11516">
        <ele>1208.7</ele>
        <time>2015-09-18T14:34:06Z</time>
      </trkpt>
      <trkpt lat="44.67843" lon="3.11495">
        <ele>1207.5</ele>
        <time>2015-09-18T14:34:08Z</time>
      </trkpt>
      <trkpt lat="44.67838" lon="3.11472">
        <ele>1206.5</ele>
        <time>2015-09-18T14:34:10Z</time>
      </trkpt>
      <trkpt lat="44.67833" lon="3.11451">
        <ele>1205.4</ele>
        <time>2015-09-18T14:34:12Z</time>
      </trkpt>
      <trkpt lat="44.67828" lon="3.1143">
        <ele>1204.4</ele>
        <time>2015-09-18T14:34:14Z</time>
      </trkpt>
      <trkpt lat="44.67822" lon="3.11409">
        <ele>1203.4</ele>
        <time>2015-09-18T14:34:16Z</time>
      </trkpt>
      <trkpt lat="44.67817" lon="3.11389">
        <ele>1202.4</ele>
        <time>2015-09-18T14:34:18Z</time>
      </trkpt>
      <trkpt lat="44.67812" lon="3.1137">
        <ele>1201.5</ele>
        <time>2015-09-18T14:34:20Z</time>
      </trkpt>
      <trkpt lat="44.67807" lon="3.11352">
        <ele>1200.7</ele>
        <time>2015-09-18T14:34:22Z</time>
      </trkpt>
      <trkpt lat="44.67801" lon="3.11334">
        <ele>1199.9</ele>
        <time>2015-09-18T14:34:24Z</time>
      </trkpt>
      <trkpt lat="44.67796" lon="3.11315">
        <ele>1199.1</ele>
        <time>2015-09-18T14:34:26Z</time>
      </trkpt>
      <trkpt lat="44.67793" lon="3.11295">
        <ele>1198.4</ele>
        <time>2015-09-18T14:34:28Z</time>
      </trkpt>
      <trkpt lat="44.67792" lon="3.11275">
        <ele>1197.3</ele>
        <time>2015-09-18T14:34:30Z</time>
      </trkpt>
      <trkpt lat="44.6779" lon="3.11254">
        <ele>1196.4</ele>
        <time>2015-09-18T14:34:32Z</time>
      </trkpt>
      <trkpt lat="44.67788" lon="3.11233">
        <ele>1195.4</ele>
        <time>2015-09-18T14:34:34Z</time>
      </trkpt>
      <trkpt lat="44.67785" lon="3.11212">
        <ele>1194.5</ele>
        <time>2015-09-18T14:34:36Z</time>
      </trkpt>
      <trkpt lat="44.67782" lon="3.1119">
        <ele>1193.6</ele>
        <time>2015-09-18T14:34:38Z</time>
      </trkpt>
      <trkpt lat="44.67781" lon="3.11169">
        <ele>1192.6</ele>
        <time>2015-09-18T14:34:40Z</time>
      </trkpt>
      <trkpt lat="44.6778" lon="3.11149">
        <ele>1191.7</ele>
        <time>2015-09-18T14:34:42Z</time>
      </trkpt>
      <trkpt lat="44.67777" lon="3.1113">
        <ele>1191</ele>
        <time>2015-09-18T14:34:44Z</time>
      </trkpt>
      <trkpt lat="44.67772" lon="3.11113">
        <ele>1190.3</ele>
        <time>2015-09-18T14:34:46Z</time>
      </trkpt>
      <trkpt lat="44.67767" lon="3.111">
        <ele>1189.7</ele>
        <time>2015-09-18T14:34:48Z</time>
      </trkpt>
      <trkpt lat="44.67761" lon="3.11088">
        <ele>1189.2</ele>
        <time>2015-09-18T14:34:50Z</time>
      </trkpt>
      <trkpt lat="44.67754" lon="3.11073">
        <ele>1188.5</ele>
        <time>2015-09-18T14:34:53Z</time>
      </trkpt>
      <trkpt lat="44.67747" lon="3.11058">
        <ele>1188</ele>
        <time>2015-09-18T14:34:56Z</time>
      </trkpt>
      <trkpt lat="44.6774" lon="3.11043">
        <ele>1187.5</ele>
        <time>2015-09-18T14:34:59Z</time>
      </trkpt>
      <trkpt lat="44.67737" lon="3.11029">
        <ele>1187.2</ele>
        <time>2015-09-18T14:35:02Z</time>
      </trkpt>
      <trkpt lat="44.67732" lon="3.11018">
        <ele>1186.8</ele>
        <time>2015-09-18T14:35:06Z</time>
      </trkpt>
      <trkpt lat="44.67721" lon="3.11015">
        <ele>1186.5</ele>
        <time>2015-09-18T14:35:10Z</time>
      </trkpt>
      <trkpt lat="44.6771" lon="3.11009">
        <ele>1186.2</ele>
        <time>2015-09-18T14:35:14Z</time>
      </trkpt>
      <trkpt lat="44.67699" lon="3.11003">
        <ele>1186.1</ele>
        <time>2015-09-18T14:35:18Z</time>
      </trkpt>
      <trkpt lat="44.6769" lon="3.10999">
        <ele>1185.9</ele>
        <time>2015-09-18T14:35:21Z</time>
      </trkpt>
      <trkpt lat="44.67679" lon="3.10994">
        <ele>1185.9</ele>
        <time>2015-09-18T14:35:25Z</time>
      </trkpt>
      <trkpt lat="44.67671" lon="3.10988">
        <ele>1186</ele>
        <time>2015-09-18T14:35:29Z</time>
      </trkpt>
      <trkpt lat="44.6766" lon="3.10982">
        <ele>1186.1</ele>
        <time>2015-09-18T14:35:33Z</time>
      </trkpt>
      <trkpt lat="44.6765" lon="3.10977">
        <ele>1186.2</ele>
        <time>2015-09-18T14:35:37Z</time>
      </trkpt>
      <trkpt lat="44.67639" lon="3.10972">
        <ele>1186.3</ele>
        <time>2015-09-18T14:35:41Z</time>
      </trkpt>
      <trkpt lat="44.67628" lon="3.10967">
        <ele>1186.5</ele>
        <time>2015-09-18T14:35:45Z</time>
      </trkpt>
      <trkpt lat="44.67617" lon="3.10963">
        <ele>1186.8</ele>
        <time>2015-09-18T14:35:49Z</time>
      </trkpt>
      <trkpt lat="44.67607" lon="3.10958">
        <ele>1187.3</ele>
        <time>2015-09-18T14:35:53Z</time>
      </trkpt>
      <trkpt lat="44.67596" lon="3.10956">
        <ele>1187.8</ele>
        <time>2015-09-18T14:35:57Z</time>
      </trkpt>
      <trkpt lat="44.67586" lon="3.10954">
        <ele>1188.4</ele>
        <time>2015-09-18T14:36:01Z</time>
      </trkpt>
      <trkpt lat="44.67576" lon="3.10954">
        <ele>1188.9</ele>
        <time>2015-09-18T14:36:05Z</time>
      </trkpt>
      <trkpt lat="44.67565" lon="3.10953">
        <ele>1189.7</ele>
        <time>2015-09-18T14:36:10Z</time>
      </trkpt>
      <trkpt lat="44.67555" lon="3.10952">
        <ele>1190.5</ele>
        <time>2015-09-18T14:36:15Z</time>
      </trkpt>
      <trkpt lat="44.67546" lon="3.10951">
        <ele>1191.2</ele>
        <time>2015-09-18T14:36:20Z</time>
      </trkpt>
      <trkpt lat="44.67537" lon="3.10949">
        <ele>1191.9</ele>
        <time>2015-09-18T14:36:25Z</time>
      </trkpt>
      <trkpt lat="44.67527" lon="3.10946">
        <ele>1192.5</ele>
        <time>2015-09-18T14:36:31Z</time>
      </trkpt>
      <trkpt lat="44.67517" lon="3.10941">
        <ele>1193.5</ele>
        <time>2015-09-18T14:36:38Z</time>
      </trkpt>
      <trkpt lat="44.67508" lon="3.10935">
        <ele>1194.5</ele>
        <time>2015-09-18T14:36:45Z</time>
      </trkpt>
      <trkpt lat="44.675" lon="3.10928">
        <ele>1195.3</ele>
        <time>2015-09-18T14:36:51Z</time>
      </trkpt>
      <trkpt lat="44.67492" lon="3.10921">
        <ele>1196</ele>
        <time>2015-09-18T14:36:57Z</time>
      </trkpt>
      <trkpt lat="44.67485" lon="3.10914">
        <ele>1196.6</ele>
        <time>2015-09-18T14:37:02Z</time>
      </trkpt>
      <trkpt lat="44.67477" lon="3.10907">
        <ele>1197.2</ele>
        <time>2015-09-18T14:37:07Z</time>
      </trkpt>
      <trkpt lat="44.67469" lon="3.109">
        <ele>1197.6</ele>
        <time>2015-09-18T14:37:12Z</time>
      </trkpt>
      <trkpt lat="44.67461" lon="3.10894">
        <ele>1198</ele>
        <time>2015-09-18T14:37:17Z</time>
      </trkpt>
      <trkpt lat="44.67453" lon="3.10888">
        <ele>1198.6</ele>
        <time>2015-09-18T14:37:22Z</time>
      </trkpt>
      <trkpt lat="44.67444" lon="3.1088">
        <ele>1199</ele>
        <time>2015-09-18T14:37:27Z</time>
      </trkpt>
      <trkpt lat="44.67435" lon="3.10873">
        <ele>1199.4</ele>
        <time>2015-09-18T14:37:32Z</time>
      </trkpt>
      <trkpt lat="44.67427" lon="3.10865">
        <ele>1199.7</ele>
        <time>2015-09-18T14:37:36Z</time>
      </trkpt>
      <trkpt lat="44.67417" lon="3.10857">
        <ele>1200</ele>
        <time>2015-09-18T14:37:40Z</time>
      </trkpt>
      <trkpt lat="44.67409" lon="3.1085">
        <ele>1200.3</ele>
        <time>2015-09-18T14:37:43Z</time>
      </trkpt>
      <trkpt lat="44.674" lon="3.10842">
        <ele>1200.5</ele>
        <time>2015-09-18T14:37:46Z</time>
      </trkpt>
      <trkpt lat="44.6739" lon="3.10834">
        <ele>1200.6</ele>
        <time>2015-09-18T14:37:49Z</time>
      </trkpt>
      <trkpt lat="44.6738" lon="3.10826">
        <ele>1200.8</ele>
        <time>2015-09-18T14:37:52Z</time>
      </trkpt>
      <trkpt lat="44.6737" lon="3.10818">
        <ele>1200.9</ele>
        <time>2015-09-18T14:37:55Z</time>
      </trkpt>
      <trkpt lat="44.6736" lon="3.10811">
        <ele>1201</ele>
        <time>2015-09-18T14:37:58Z</time>
      </trkpt>
      <trkpt lat="44.67349" lon="3.10802">
        <ele>1201.1</ele>
        <time>2015-09-18T14:38:01Z</time>
      </trkpt>
      <trkpt lat="44.67341" lon="3.10796">
        <ele>1201.1</ele>
        <time>2015-09-18T14:38:03Z</time>
      </trkpt>
      <trkpt lat="44.67333" lon="3.10789">
        <ele>1201.2</ele>
        <time>2015-09-18T14:38:05Z</time>
      </trkpt>
      <trkpt lat="44.67325" lon="3.10781">
        <ele>1201.1</ele>
        <time>2015-09-18T14:38:07Z</time>
      </trkpt>
      <trkpt lat="44.67316" lon="3.10774">
        <ele>1201</ele>
        <time>2015-09-18T14:38:09Z</time>
      </trkpt>
      <trkpt lat="44.67308" lon="3.10766">
        <ele>1201</ele>
        <time>2015-09-18T14:38:11Z</time>
      </trkpt>
      <trkpt lat="44.673" lon="3.10759">
        <ele>1200.9</ele>
        <time>2015-09-18T14:38:13Z</time>
      </trkpt>
      <trkpt lat="44.67291" lon="3.10751">
        <ele>1200.8</ele>
        <time>2015-09-18T14:38:15Z</time>
      </trkpt>
      <trkpt lat="44.67283" lon="3.10744">
        <ele>1200.7</ele>
        <time>2015-09-18T14:38:17Z</time>
      </trkpt>
      <trkpt lat="44.67274" lon="3.10736">
        <ele>1200.5</ele>
        <time>2015-09-18T14:38:19Z</time>
      </trkpt>
      <trkpt lat="44.67265" lon="3.10728">
        <ele>1200.3</ele>
        <time>2015-09-18T14:38:21Z</time>
      </trkpt>
      <trkpt lat="44.67256" lon="3.10719">
        <ele>1200</ele>
        <time>2015-09-18T14:38:23Z</time>
      </trkpt>
      <trkpt lat="44.67247" lon="3.1071">
        <ele>1199.7</ele>
        <time>2015-09-18T14:38:25Z</time>
      </trkpt>
      <trkpt lat="44.67238" lon="3.10702">
        <ele>1199.4</ele>
        <time>2015-09-18T14:38:27Z</time>
      </trkpt>
      <trkpt lat="44.67229" lon="3.10694">
        <ele>1199.1</ele>
        <time>2015-09-18T14:38:29Z</time>
      </trkpt>
      <trkpt lat="44.6722" lon="3.10687">
        <ele>1198.9</ele>
        <time>2015-09-18T14:38:31Z</time>
      </trkpt>
      <trkpt lat="44.67212" lon="3.10679">
        <ele>1198.7</ele>
        <time>2015-09-18T14:38:33Z</time>
      </trkpt>
      <trkpt lat="44.67204" lon="3.10672">
        <ele>1198.4</ele>
        <time>2015-09-18T14:38:35Z</time>
      </trkpt>
      <trkpt lat="44.67193" lon="3.10662">
        <ele>1198.1</ele>
        <time>2015-09-18T14:38:38Z</time>
      </trkpt>
      <trkpt lat="44.67184" lon="3.10654">
        <ele>1197.7</ele>
        <time>2015-09-18T14:38:41Z</time>
      </trkpt>
      <trkpt lat="44.67174" lon="3.10645">
        <ele>1197.5</ele>
        <time>2015-09-18T14:38:44Z</time>
      </trkpt>
      <trkpt lat="44.67163" lon="3.10636">
        <ele>1197.2</ele>
        <time>2015-09-18T14:38:47Z</time>
      </trkpt>
      <trkpt lat="44.67152" lon="3.10626">
        <ele>1197</ele>
        <time>2015-09-18T14:38:50Z</time>
      </trkpt>
      <trkpt lat="44.67142" lon="3.10615">
        <ele>1196.9</ele>
        <time>2015-09-18T14:38:53Z</time>
      </trkpt>
      <trkpt lat="44.67132" lon="3.10603">
        <ele>1196.8</ele>
        <time>2015-09-18T14:38:56Z</time>
      </trkpt>
      <trkpt lat="44.67123" lon="3.1059">
        <ele>1196.7</ele>
        <time>2015-09-18T14:38:59Z</time>
      </trkpt>
      <trkpt lat="44.67114" lon="3.10577">
        <ele>1196.6</ele>
        <time>2015-09-18T14:39:02Z</time>
      </trkpt>
      <trkpt lat="44.67105" lon="3.10563">
        <ele>1196.7</ele>
        <time>2015-09-18T14:39:05Z</time>
      </trkpt>
      <trkpt lat="44.67097" lon="3.10549">
        <ele>1196.7</ele>
        <time>2015-09-18T14:39:08Z</time>
      </trkpt>
      <trkpt lat="44.67089" lon="3.10535">
        <ele>1196.8</ele>
        <time>2015-09-18T14:39:11Z</time>
      </trkpt>
      <trkpt lat="44.6708" lon="3.10523">
        <ele>1196.9</ele>
        <time>2015-09-18T14:39:14Z</time>
      </trkpt>
      <trkpt lat="44.67071" lon="3.10513">
        <ele>1197.3</ele>
        <time>2015-09-18T14:39:17Z</time>
      </trkpt>
      <trkpt lat="44.67063" lon="3.10504">
        <ele>1197.5</ele>
        <time>2015-09-18T14:39:20Z</time>
      </trkpt>
      <trkpt lat="44.67055" lon="3.10497">
        <ele>1197.7</ele>
        <time>2015-09-18T14:39:23Z</time>
      </trkpt>
      <trkpt lat="44.67047" lon="3.1049">
        <ele>1197.9</ele>
        <time>2015-09-18T14:39:26Z</time>
      </trkpt>
      <trkpt lat="44.67038" lon="3.10481">
        <ele>1198.1</ele>
        <time>2015-09-18T14:39:29Z</time>
      </trkpt>
      <trkpt lat="44.67028" lon="3.1047">
        <ele>1198.2</ele>
        <time>2015-09-18T14:39:32Z</time>
      </trkpt>
      <trkpt lat="44.67018" lon="3.10459">
        <ele>1198.1</ele>
        <time>2015-09-18T14:39:35Z</time>
      </trkpt>
      <trkpt lat="44.67011" lon="3.10451">
        <ele>1198.1</ele>
        <time>2015-09-18T14:39:37Z</time>
      </trkpt>
      <trkpt lat="44.67002" lon="3.10443">
        <ele>1197.8</ele>
        <time>2015-09-18T14:39:40Z</time>
      </trkpt>
      <trkpt lat="44.66994" lon="3.10438">
        <ele>1197.5</ele>
        <time>2015-09-18T14:39:43Z</time>
      </trkpt>
      <trkpt lat="44.66983" lon="3.10434">
        <ele>1197.2</ele>
        <time>2015-09-18T14:39:46Z</time>
      </trkpt>
      <trkpt lat="44.66972" lon="3.10432">
        <ele>1196.9</ele>
        <time>2015-09-18T14:39:49Z</time>
      </trkpt>
      <trkpt lat="44.66963" lon="3.10432">
        <ele>1196.7</ele>
        <time>2015-09-18T14:39:51Z</time>
      </trkpt>
      <trkpt lat="44.66953" lon="3.1043">
        <ele>1196.4</ele>
        <time>2015-09-18T14:39:53Z</time>
      </trkpt>
      <trkpt lat="44.66941" lon="3.10426">
        <ele>1196.1</ele>
        <time>2015-09-18T14:39:55Z</time>
      </trkpt>
      <trkpt lat="44.66929" lon="3.10423">
        <ele>1195.8</ele>
        <time>2015-09-18T14:39:57Z</time>
      </trkpt>
      <trkpt lat="44.66915" lon="3.10418">
        <ele>1195.3</ele>
        <time>2015-09-18T14:39:59Z</time>
      </trkpt>
      <trkpt lat="44.66903" lon="3.10414">
        <ele>1194.8</ele>
        <time>2015-09-18T14:40:01Z</time>
      </trkpt>
      <trkpt lat="44.66893" lon="3.1041">
        <ele>1194.3</ele>
        <time>2015-09-18T14:40:03Z</time>
      </trkpt>
      <trkpt lat="44.66883" lon="3.10404">
        <ele>1193.8</ele>
        <time>2015-09-18T14:40:05Z</time>
      </trkpt>
      <trkpt lat="44.66873" lon="3.10391">
        <ele>1193.1</ele>
        <time>2015-09-18T14:40:07Z</time>
      </trkpt>
      <trkpt lat="44.6687" lon="3.10375">
        <ele>1192.4</ele>
        <time>2015-09-18T14:40:09Z</time>
      </trkpt>
      <trkpt lat="44.66869" lon="3.10358">
        <ele>1191.8</ele>
        <time>2015-09-18T14:40:11Z</time>
      </trkpt>
      <trkpt lat="44.66868" lon="3.10342">
        <ele>1190</ele>
        <time>2015-09-18T14:40:13Z</time>
      </trkpt>
      <trkpt lat="44.66865" lon="3.10318">
        <ele>1190.2</ele>
        <time>2015-09-18T14:40:16Z</time>
      </trkpt>
      <trkpt lat="44.66862" lon="3.10301">
        <ele>1189.7</ele>
        <time>2015-09-18T14:40:18Z</time>
      </trkpt>
      <trkpt lat="44.6686" lon="3.10285">
        <ele>1189.2</ele>
        <time>2015-09-18T14:40:20Z</time>
      </trkpt>
      <trkpt lat="44.66859" lon="3.10269">
        <ele>1188.8</ele>
        <time>2015-09-18T14:40:22Z</time>
      </trkpt>
      <trkpt lat="44.66857" lon="3.10252">
        <ele>1188.4</ele>
        <time>2015-09-18T14:40:24Z</time>
      </trkpt>
      <trkpt lat="44.66856" lon="3.10236">
        <ele>1188.1</ele>
        <time>2015-09-18T14:40:26Z</time>
      </trkpt>
      <trkpt lat="44.66855" lon="3.10223">
        <ele>1187.8</ele>
        <time>2015-09-18T14:40:28Z</time>
      </trkpt>
      <trkpt lat="44.66855" lon="3.10205">
        <ele>1187.5</ele>
        <time>2015-09-18T14:40:31Z</time>
      </trkpt>
      <trkpt lat="44.66855" lon="3.10186">
        <ele>1187.1</ele>
        <time>2015-09-18T14:40:34Z</time>
      </trkpt>
      <trkpt lat="44.66855" lon="3.10173">
        <ele>1186.9</ele>
        <time>2015-09-18T14:40:36Z</time>
      </trkpt>
      <trkpt lat="44.66853" lon="3.1016">
        <ele>1186.6</ele>
        <time>2015-09-18T14:40:38Z</time>
      </trkpt>
      <trkpt lat="44.66851" lon="3.10146">
        <ele>1186.3</ele>
        <time>2015-09-18T14:40:40Z</time>
      </trkpt>
      <trkpt lat="44.66846" lon="3.10133">
        <ele>1185.9</ele>
        <time>2015-09-18T14:40:42Z</time>
      </trkpt>
      <trkpt lat="44.66841" lon="3.1012">
        <ele>1185.6</ele>
        <time>2015-09-18T14:40:44Z</time>
      </trkpt>
      <trkpt lat="44.66833" lon="3.10108">
        <ele>1185.2</ele>
        <time>2015-09-18T14:40:46Z</time>
      </trkpt>
      <trkpt lat="44.66825" lon="3.10095">
        <ele>1184.8</ele>
        <time>2015-09-18T14:40:48Z</time>
      </trkpt>
      <trkpt lat="44.66814" lon="3.10083">
        <ele>1184.2</ele>
        <time>2015-09-18T14:40:50Z</time>
      </trkpt>
      <trkpt lat="44.66801" lon="3.10074">
        <ele>1183.6</ele>
        <time>2015-09-18T14:40:52Z</time>
      </trkpt>
      <trkpt lat="44.66786" lon="3.10065">
        <ele>1182.9</ele>
        <time>2015-09-18T14:40:54Z</time>
      </trkpt>
      <trkpt lat="44.66768" lon="3.1006">
        <ele>1182</ele>
        <time>2015-09-18T14:40:56Z</time>
      </trkpt>
      <trkpt lat="44.66759" lon="3.10058">
        <ele>1181.6</ele>
        <time>2015-09-18T14:40:57Z</time>
      </trkpt>
      <trkpt lat="44.6675" lon="3.10057">
        <ele>1181</ele>
        <time>2015-09-18T14:40:58Z</time>
      </trkpt>
      <trkpt lat="44.6674" lon="3.10056">
        <ele>1180.5</ele>
        <time>2015-09-18T14:40:59Z</time>
      </trkpt>
      <trkpt lat="44.66731" lon="3.10056">
        <ele>1180</ele>
        <time>2015-09-18T14:41:00Z</time>
      </trkpt>
      <trkpt lat="44.66721" lon="3.10056">
        <ele>1179.5</ele>
        <time>2015-09-18T14:41:01Z</time>
      </trkpt>
      <trkpt lat="44.66712" lon="3.10057">
        <ele>1179</ele>
        <time>2015-09-18T14:41:02Z</time>
      </trkpt>
      <trkpt lat="44.66703" lon="3.10058">
        <ele>1178.5</ele>
        <time>2015-09-18T14:41:03Z</time>
      </trkpt>
      <trkpt lat="44.66684" lon="3.10056">
        <ele>1177.6</ele>
        <time>2015-09-18T14:41:05Z</time>
      </trkpt>
      <trkpt lat="44.66675" lon="3.10054">
        <ele>1177.1</ele>
        <time>2015-09-18T14:41:06Z</time>
      </trkpt>
      <trkpt lat="44.66659" lon="3.10049">
        <ele>1176.2</ele>
        <time>2015-09-18T14:41:08Z</time>
      </trkpt>
      <trkpt lat="44.66642" lon="3.10041">
        <ele>1175.3</ele>
        <time>2015-09-18T14:41:10Z</time>
      </trkpt>
      <trkpt lat="44.66626" lon="3.10032">
        <ele>1174.2</ele>
        <time>2015-09-18T14:41:12Z</time>
      </trkpt>
      <trkpt lat="44.66609" lon="3.10022">
        <ele>1173.2</ele>
        <time>2015-09-18T14:41:14Z</time>
      </trkpt>
      <trkpt lat="44.66601" lon="3.10016">
        <ele>1172.7</ele>
        <time>2015-09-18T14:41:15Z</time>
      </trkpt>
      <trkpt lat="44.66593" lon="3.1001">
        <ele>1172.2</ele>
        <time>2015-09-18T14:41:16Z</time>
      </trkpt>
      <trkpt lat="44.66584" lon="3.10004">
        <ele>1171.6</ele>
        <time>2015-09-18T14:41:17Z</time>
      </trkpt>
      <trkpt lat="44.66576" lon="3.09997">
        <ele>1171</ele>
        <time>2015-09-18T14:41:18Z</time>
      </trkpt>
      <trkpt lat="44.66568" lon="3.0999">
        <ele>1170.5</ele>
        <time>2015-09-18T14:41:19Z</time>
      </trkpt>
      <trkpt lat="44.6656" lon="3.09983">
        <ele>1169.9</ele>
        <time>2015-09-18T14:41:20Z</time>
      </trkpt>
      <trkpt lat="44.66552" lon="3.09976">
        <ele>1169.4</ele>
        <time>2015-09-18T14:41:21Z</time>
      </trkpt>
      <trkpt lat="44.66544" lon="3.09969">
        <ele>1168.8</ele>
        <time>2015-09-18T14:41:22Z</time>
      </trkpt>
      <trkpt lat="44.66535" lon="3.09963">
        <ele>1168.3</ele>
        <time>2015-09-18T14:41:23Z</time>
      </trkpt>
      <trkpt lat="44.66528" lon="3.09956">
        <ele>1167.7</ele>
        <time>2015-09-18T14:41:24Z</time>
      </trkpt>
      <trkpt lat="44.6652" lon="3.09949">
        <ele>1167.2</ele>
        <time>2015-09-18T14:41:25Z</time>
      </trkpt>
      <trkpt lat="44.66505" lon="3.09936">
        <ele>1166.2</ele>
        <time>2015-09-18T14:41:27Z</time>
      </trkpt>
      <trkpt lat="44.66491" lon="3.09924">
        <ele>1165.4</ele>
        <time>2015-09-18T14:41:29Z</time>
      </trkpt>
      <trkpt lat="44.66479" lon="3.09913">
        <ele>1164.6</ele>
        <time>2015-09-18T14:41:31Z</time>
      </trkpt>
      <trkpt lat="44.66466" lon="3.09901">
        <ele>1163.9</ele>
        <time>2015-09-18T14:41:33Z</time>
      </trkpt>
      <trkpt lat="44.66455" lon="3.09889">
        <ele>1163.3</ele>
        <time>2015-09-18T14:41:35Z</time>
      </trkpt>
      <trkpt lat="44.66444" lon="3.09879">
        <ele>1162.7</ele>
        <time>2015-09-18T14:41:37Z</time>
      </trkpt>
      <trkpt lat="44.66434" lon="3.09869">
        <ele>1162.2</ele>
        <time>2015-09-18T14:41:39Z</time>
      </trkpt>
      <trkpt lat="44.66426" lon="3.09859">
        <ele>1161.8</ele>
        <time>2015-09-18T14:41:41Z</time>
      </trkpt>
      <trkpt lat="44.66417" lon="3.09848">
        <ele>1161.4</ele>
        <time>2015-09-18T14:41:43Z</time>
      </trkpt>
      <trkpt lat="44.66409" lon="3.09838">
        <ele>1161.1</ele>
        <time>2015-09-18T14:41:45Z</time>
      </trkpt>
      <trkpt lat="44.664" lon="3.09828">
        <ele>1160.8</ele>
        <time>2015-09-18T14:41:47Z</time>
      </trkpt>
      <trkpt lat="44.66392" lon="3.09819">
        <ele>1160.4</ele>
        <time>2015-09-18T14:41:49Z</time>
      </trkpt>
      <trkpt lat="44.66385" lon="3.09809">
        <ele>1160.1</ele>
        <time>2015-09-18T14:41:51Z</time>
      </trkpt>
      <trkpt lat="44.66377" lon="3.098">
        <ele>1159.8</ele>
        <time>2015-09-18T14:41:53Z</time>
      </trkpt>
      <trkpt lat="44.6637" lon="3.09789">
        <ele>1159.6</ele>
        <time>2015-09-18T14:41:55Z</time>
      </trkpt>
      <trkpt lat="44.66363" lon="3.09778">
        <ele>1159.4</ele>
        <time>2015-09-18T14:41:57Z</time>
      </trkpt>
      <trkpt lat="44.66357" lon="3.09767">
        <ele>1159.2</ele>
        <time>2015-09-18T14:41:59Z</time>
      </trkpt>
      <trkpt lat="44.66352" lon="3.09756">
        <ele>1159</ele>
        <time>2015-09-18T14:42:01Z</time>
      </trkpt>
      <trkpt lat="44.66346" lon="3.09741">
        <ele>1158.9</ele>
        <time>2015-09-18T14:42:04Z</time>
      </trkpt>
      <trkpt lat="44.66338" lon="3.09726">
        <ele>1158.8</ele>
        <time>2015-09-18T14:42:07Z</time>
      </trkpt>
      <trkpt lat="44.66333" lon="3.09716">
        <ele>1158.8</ele>
        <time>2015-09-18T14:42:09Z</time>
      </trkpt>
      <trkpt lat="44.66325" lon="3.097">
        <ele>1158.8</ele>
        <time>2015-09-18T14:42:12Z</time>
      </trkpt>
      <trkpt lat="44.66317" lon="3.09687">
        <ele>1158.9</ele>
        <time>2015-09-18T14:42:15Z</time>
      </trkpt>
      <trkpt lat="44.66309" lon="3.09672">
        <ele>1159.2</ele>
        <time>2015-09-18T14:42:18Z</time>
      </trkpt>
      <trkpt lat="44.66301" lon="3.09661">
        <ele>1159.3</ele>
        <time>2015-09-18T14:42:20Z</time>
      </trkpt>
      <trkpt lat="44.66292" lon="3.09648">
        <ele>1159.5</ele>
        <time>2015-09-18T14:42:22Z</time>
      </trkpt>
      <trkpt lat="44.66283" lon="3.09636">
        <ele>1159.4</ele>
        <time>2015-09-18T14:42:24Z</time>
      </trkpt>
      <trkpt lat="44.66275" lon="3.09623">
        <ele>1159.4</ele>
        <time>2015-09-18T14:42:26Z</time>
      </trkpt>
      <trkpt lat="44.66266" lon="3.0961">
        <ele>1159.3</ele>
        <time>2015-09-18T14:42:28Z</time>
      </trkpt>
      <trkpt lat="44.66258" lon="3.09599">
        <ele>1159.2</ele>
        <time>2015-09-18T14:42:30Z</time>
      </trkpt>
      <trkpt lat="44.6625" lon="3.09589">
        <ele>1159.1</ele>
        <time>2015-09-18T14:42:32Z</time>
      </trkpt>
      <trkpt lat="44.66243" lon="3.09579">
        <ele>1158.9</ele>
        <time>2015-09-18T14:42:34Z</time>
      </trkpt>
      <trkpt lat="44.66236" lon="3.09569">
        <ele>1158.8</ele>
        <time>2015-09-18T14:42:36Z</time>
      </trkpt>
      <trkpt lat="44.66229" lon="3.09559">
        <ele>1158.8</ele>
        <time>2015-09-18T14:42:38Z</time>
      </trkpt>
      <trkpt lat="44.66221" lon="3.0955">
        <ele>1158.6</ele>
        <time>2015-09-18T14:42:40Z</time>
      </trkpt>
      <trkpt lat="44.66214" lon="3.09542">
        <ele>1158.5</ele>
        <time>2015-09-18T14:42:42Z</time>
      </trkpt>
      <trkpt lat="44.66207" lon="3.09533">
        <ele>1158.4</ele>
        <time>2015-09-18T14:42:44Z</time>
      </trkpt>
      <trkpt lat="44.66197" lon="3.09521">
        <ele>1158.3</ele>
        <time>2015-09-18T14:42:47Z</time>
      </trkpt>
      <trkpt lat="44.6619" lon="3.09512">
        <ele>1158.2</ele>
        <time>2015-09-18T14:42:50Z</time>
      </trkpt>
      <trkpt lat="44.66183" lon="3.09504">
        <ele>1158.1</ele>
        <time>2015-09-18T14:42:54Z</time>
      </trkpt>
      <trkpt lat="44.66174" lon="3.09496">
        <ele>1158</ele>
        <time>2015-09-18T14:42:59Z</time>
      </trkpt>
      <trkpt lat="44.66167" lon="3.09486">
        <ele>1157.9</ele>
        <time>2015-09-18T14:43:03Z</time>
      </trkpt>
      <trkpt lat="44.6616" lon="3.09478">
        <ele>1157.9</ele>
        <time>2015-09-18T14:43:07Z</time>
      </trkpt>
      <trkpt lat="44.66152" lon="3.0947">
        <ele>1157.9</ele>
        <time>2015-09-18T14:43:11Z</time>
      </trkpt>
      <trkpt lat="44.66143" lon="3.09461">
        <ele>1158</ele>
        <time>2015-09-18T14:43:15Z</time>
      </trkpt>
      <trkpt lat="44.66135" lon="3.09452">
        <ele>1158.2</ele>
        <time>2015-09-18T14:43:19Z</time>
      </trkpt>
      <trkpt lat="44.66127" lon="3.09444">
        <ele>1158.4</ele>
        <time>2015-09-18T14:43:22Z</time>
      </trkpt>
      <trkpt lat="44.66119" lon="3.09437">
        <ele>1158.6</ele>
        <time>2015-09-18T14:43:25Z</time>
      </trkpt>
      <trkpt lat="44.66111" lon="3.09428">
        <ele>1158.7</ele>
        <time>2015-09-18T14:43:28Z</time>
      </trkpt>
      <trkpt lat="44.66101" lon="3.09418">
        <ele>1158.9</ele>
        <time>2015-09-18T14:43:31Z</time>
      </trkpt>
      <trkpt lat="44.66092" lon="3.0941">
        <ele>1159</ele>
        <time>2015-09-18T14:43:34Z</time>
      </trkpt>
      <trkpt lat="44.66083" lon="3.094">
        <ele>1159.1</ele>
        <time>2015-09-18T14:43:37Z</time>
      </trkpt>
      <trkpt lat="44.66072" lon="3.09391">
        <ele>1159.1</ele>
        <time>2015-09-18T14:43:40Z</time>
      </trkpt>
      <trkpt lat="44.66064" lon="3.09384">
        <ele>1159.2</ele>
        <time>2015-09-18T14:43:42Z</time>
      </trkpt>
      <trkpt lat="44.66055" lon="3.09377">
        <ele>1159.2</ele>
        <time>2015-09-18T14:43:44Z</time>
      </trkpt>
      <trkpt lat="44.66043" lon="3.09368">
        <ele>1159.1</ele>
        <time>2015-09-18T14:43:46Z</time>
      </trkpt>
      <trkpt lat="44.66032" lon="3.0936">
        <ele>1158.9</ele>
        <time>2015-09-18T14:43:48Z</time>
      </trkpt>
      <trkpt lat="44.6602" lon="3.09353">
        <ele>1158.7</ele>
        <time>2015-09-18T14:43:50Z</time>
      </trkpt>
      <trkpt lat="44.66008" lon="3.09345">
        <ele>1158.6</ele>
        <time>2015-09-18T14:43:52Z</time>
      </trkpt>
      <trkpt lat="44.65998" lon="3.09339">
        <ele>1158.4</ele>
        <time>2015-09-18T14:43:54Z</time>
      </trkpt>
      <trkpt lat="44.65988" lon="3.09333">
        <ele>1158.3</ele>
        <time>2015-09-18T14:43:56Z</time>
      </trkpt>
      <trkpt lat="44.65979" lon="3.09326">
        <ele>1158.2</ele>
        <time>2015-09-18T14:43:58Z</time>
      </trkpt>
      <trkpt lat="44.6597" lon="3.09319">
        <ele>1158</ele>
        <time>2015-09-18T14:44:00Z</time>
      </trkpt>
      <trkpt lat="44.65961" lon="3.09313">
        <ele>1157.9</ele>
        <time>2015-09-18T14:44:02Z</time>
      </trkpt>
      <trkpt lat="44.65953" lon="3.09306">
        <ele>1157.8</ele>
        <time>2015-09-18T14:44:04Z</time>
      </trkpt>
      <trkpt lat="44.65943" lon="3.09297">
        <ele>1157.7</ele>
        <time>2015-09-18T14:44:07Z</time>
      </trkpt>
      <trkpt lat="44.65934" lon="3.09291">
        <ele>1156.8</ele>
        <time>2015-09-18T14:49:09Z</time>
      </trkpt>
      <trkpt lat="44.65925" lon="3.09285">
        <ele>1156.8</ele>
        <time>2015-09-18T14:49:13Z</time>
      </trkpt>
      <trkpt lat="44.65916" lon="3.09279">
        <ele>1156.8</ele>
        <time>2015-09-18T14:49:16Z</time>
      </trkpt>
      <trkpt lat="44.65907" lon="3.09272">
        <ele>1156.8</ele>
        <time>2015-09-18T14:49:19Z</time>
      </trkpt>
      <trkpt lat="44.65897" lon="3.09264">
        <ele>1156.8</ele>
        <time>2015-09-18T14:49:22Z</time>
      </trkpt>
      <trkpt lat="44.65885" lon="3.09257">
        <ele>1156.8</ele>
        <time>2015-09-18T14:49:25Z</time>
      </trkpt>
      <trkpt lat="44.65873" lon="3.09249">
        <ele>1156.8</ele>
        <time>2015-09-18T14:49:28Z</time>
      </trkpt>
      <trkpt lat="44.65862" lon="3.0924">
        <ele>1156.8</ele>
        <time>2015-09-18T14:49:31Z</time>
      </trkpt>
      <trkpt lat="44.65851" lon="3.09233">
        <ele>1156.9</ele>
        <time>2015-09-18T14:49:34Z</time>
      </trkpt>
      <trkpt lat="44.6584" lon="3.09225">
        <ele>1156.9</ele>
        <time>2015-09-18T14:49:37Z</time>
      </trkpt>
      <trkpt lat="44.65829" lon="3.09217">
        <ele>1156.9</ele>
        <time>2015-09-18T14:49:40Z</time>
      </trkpt>
      <trkpt lat="44.65817" lon="3.09208">
        <ele>1157</ele>
        <time>2015-09-18T14:49:43Z</time>
      </trkpt>
      <trkpt lat="44.65806" lon="3.09199">
        <ele>1157</ele>
        <time>2015-09-18T14:49:46Z</time>
      </trkpt>
      <trkpt lat="44.65798" lon="3.09193">
        <ele>1157</ele>
        <time>2015-09-18T14:49:48Z</time>
      </trkpt>
      <trkpt lat="44.65789" lon="3.09188">
        <ele>1157</ele>
        <time>2015-09-18T14:49:50Z</time>
      </trkpt>
      <trkpt lat="44.65781" lon="3.09182">
        <ele>1157</ele>
        <time>2015-09-18T14:49:52Z</time>
      </trkpt>
      <trkpt lat="44.65773" lon="3.09177">
        <ele>1157</ele>
        <time>2015-09-18T14:49:54Z</time>
      </trkpt>
      <trkpt lat="44.65764" lon="3.09173">
        <ele>1157</ele>
        <time>2015-09-18T14:49:56Z</time>
      </trkpt>
      <trkpt lat="44.65756" lon="3.09168">
        <ele>1157</ele>
        <time>2015-09-18T14:49:58Z</time>
      </trkpt>
      <trkpt lat="44.65747" lon="3.09164">
        <ele>1157.1</ele>
        <time>2015-09-18T14:50:00Z</time>
      </trkpt>
      <trkpt lat="44.65738" lon="3.09159">
        <ele>1157.1</ele>
        <time>2015-09-18T14:50:02Z</time>
      </trkpt>
      <trkpt lat="44.65726" lon="3.09152">
        <ele>1157.1</ele>
        <time>2015-09-18T14:50:05Z</time>
      </trkpt>
      <trkpt lat="44.65718" lon="3.09147">
        <ele>1157.1</ele>
        <time>2015-09-18T14:50:07Z</time>
      </trkpt>
      <trkpt lat="44.65706" lon="3.09138">
        <ele>1157.1</ele>
        <time>2015-09-18T14:50:10Z</time>
      </trkpt>
      <trkpt lat="44.65695" lon="3.09129">
        <ele>1157.1</ele>
        <time>2015-09-18T14:50:13Z</time>
      </trkpt>
      <trkpt lat="44.65685" lon="3.0912">
        <ele>1157.1</ele>
        <time>2015-09-18T14:50:16Z</time>
      </trkpt>
      <trkpt lat="44.65675" lon="3.09112">
        <ele>1157.1</ele>
        <time>2015-09-18T14:50:19Z</time>
      </trkpt>
      <trkpt lat="44.65665" lon="3.09104">
        <ele>1157.1</ele>
        <time>2015-09-18T14:50:22Z</time>
      </trkpt>
      <trkpt lat="44.65655" lon="3.09097">
        <ele>1157.2</ele>
        <time>2015-09-18T14:50:25Z</time>
      </trkpt>
      <trkpt lat="44.65645" lon="3.09091">
        <ele>1157.3</ele>
        <time>2015-09-18T14:50:28Z</time>
      </trkpt>
      <trkpt lat="44.65636" lon="3.09086">
        <ele>1157.5</ele>
        <time>2015-09-18T14:50:31Z</time>
      </trkpt>
      <trkpt lat="44.65627" lon="3.0908">
        <ele>1157.7</ele>
        <time>2015-09-18T14:50:34Z</time>
      </trkpt>
      <trkpt lat="44.65618" lon="3.09077">
        <ele>1157.9</ele>
        <time>2015-09-18T14:50:37Z</time>
      </trkpt>
      <trkpt lat="44.65609" lon="3.09074">
        <ele>1158.2</ele>
        <time>2015-09-18T14:50:40Z</time>
      </trkpt>
      <trkpt lat="44.656" lon="3.09073">
        <ele>1158.4</ele>
        <time>2015-09-18T14:50:43Z</time>
      </trkpt>
      <trkpt lat="44.65591" lon="3.09072">
        <ele>1158.7</ele>
        <time>2015-09-18T14:50:46Z</time>
      </trkpt>
      <trkpt lat="44.6558" lon="3.0907">
        <ele>1158.9</ele>
        <time>2015-09-18T14:50:49Z</time>
      </trkpt>
      <trkpt lat="44.65568" lon="3.09068">
        <ele>1159.1</ele>
        <time>2015-09-18T14:50:52Z</time>
      </trkpt>
      <trkpt lat="44.65555" lon="3.09065">
        <ele>1159.2</ele>
        <time>2015-09-18T14:50:55Z</time>
      </trkpt>
      <trkpt lat="44.65545" lon="3.09061">
        <ele>1159.3</ele>
        <time>2015-09-18T14:50:57Z</time>
      </trkpt>
      <trkpt lat="44.65535" lon="3.09054">
        <ele>1159.4</ele>
        <time>2015-09-18T14:50:59Z</time>
      </trkpt>
      <trkpt lat="44.65526" lon="3.09047">
        <ele>1159.4</ele>
        <time>2015-09-18T14:51:01Z</time>
      </trkpt>
      <trkpt lat="44.65516" lon="3.09041">
        <ele>1159.3</ele>
        <time>2015-09-18T14:51:03Z</time>
      </trkpt>
      <trkpt lat="44.6551" lon="3.0903">
        <ele>1159.1</ele>
        <time>2015-09-18T14:51:05Z</time>
      </trkpt>
      <trkpt lat="44.6551" lon="3.09013">
        <ele>1158.8</ele>
        <time>2015-09-18T14:51:08Z</time>
      </trkpt>
      <trkpt lat="44.65511" lon="3.09">
        <ele>1158.6</ele>
        <time>2015-09-18T14:51:11Z</time>
      </trkpt>
      <trkpt lat="44.65513" lon="3.08984">
        <ele>1158.3</ele>
        <time>2015-09-18T14:51:15Z</time>
      </trkpt>
      <trkpt lat="44.65515" lon="3.08969">
        <ele>1158.1</ele>
        <time>2015-09-18T14:51:19Z</time>
      </trkpt>
      <trkpt lat="44.65517" lon="3.08956">
        <ele>1157.9</ele>
        <time>2015-09-18T14:51:22Z</time>
      </trkpt>
      <trkpt lat="44.65517" lon="3.08943">
        <ele>1157.8</ele>
        <time>2015-09-18T14:51:25Z</time>
      </trkpt>
      <trkpt lat="44.65516" lon="3.08929">
        <ele>1157.6</ele>
        <time>2015-09-18T14:51:28Z</time>
      </trkpt>
      <trkpt lat="44.65513" lon="3.08915">
        <ele>1157.5</ele>
        <time>2015-09-18T14:51:31Z</time>
      </trkpt>
      <trkpt lat="44.65509" lon="3.08903">
        <ele>1157.4</ele>
        <time>2015-09-18T14:51:34Z</time>
      </trkpt>
      <trkpt lat="44.65504" lon="3.08891">
        <ele>1157.3</ele>
        <time>2015-09-18T14:51:37Z</time>
      </trkpt>
      <trkpt lat="44.65498" lon="3.08877">
        <ele>1157.2</ele>
        <time>2015-09-18T14:51:41Z</time>
      </trkpt>
      <trkpt lat="44.65492" lon="3.08865">
        <ele>1157.1</ele>
        <time>2015-09-18T14:51:45Z</time>
      </trkpt>
      <trkpt lat="44.65486" lon="3.08854">
        <ele>1157.1</ele>
        <time>2015-09-18T14:51:50Z</time>
      </trkpt>
      <trkpt lat="44.65482" lon="3.08842">
        <ele>1157.1</ele>
        <time>2015-09-18T14:51:55Z</time>
      </trkpt>
      <trkpt lat="44.65486" lon="3.0883">
        <ele>1157.7</ele>
        <time>2015-09-18T14:52:02Z</time>
      </trkpt>
      <trkpt lat="44.65492" lon="3.08819">
        <ele>1158.8</ele>
        <time>2015-09-18T14:52:10Z</time>
      </trkpt>
      <trkpt lat="44.65497" lon="3.08808">
        <ele>1160</ele>
        <time>2015-09-18T14:52:19Z</time>
      </trkpt>
      <trkpt lat="44.65505" lon="3.08799">
        <ele>1161.6</ele>
        <time>2015-09-18T14:52:28Z</time>
      </trkpt>
      <trkpt lat="44.65513" lon="3.08794">
        <ele>1163.2</ele>
        <time>2015-09-18T14:52:38Z</time>
      </trkpt>
      <trkpt lat="44.6552" lon="3.08784">
        <ele>1164.6</ele>
        <time>2015-09-18T14:52:47Z</time>
      </trkpt>
      <trkpt lat="44.65519" lon="3.0877">
        <ele>1165.8</ele>
        <time>2015-09-18T14:52:57Z</time>
      </trkpt>
      <trkpt lat="44.65521" lon="3.08757">
        <ele>1166.8</ele>
        <time>2015-09-18T14:53:05Z</time>
      </trkpt>
      <trkpt lat="44.65526" lon="3.08746">
        <ele>1167.6</ele>
        <time>2015-09-18T14:53:13Z</time>
      </trkpt>
      <trkpt lat="44.65532" lon="3.08734">
        <ele>1168.5</ele>
        <time>2015-09-18T14:53:22Z</time>
      </trkpt>
      <trkpt lat="44.65537" lon="3.08722">
        <ele>1169.2</ele>
        <time>2015-09-18T14:53:30Z</time>
      </trkpt>
      <trkpt lat="44.65541" lon="3.08709">
        <ele>1169.8</ele>
        <time>2015-09-18T14:53:38Z</time>
      </trkpt>
      <trkpt lat="44.65545" lon="3.08697">
        <ele>1170.6</ele>
        <time>2015-09-18T14:53:46Z</time>
      </trkpt>
      <trkpt lat="44.6555" lon="3.08684">
        <ele>1171.3</ele>
        <time>2015-09-18T14:53:53Z</time>
      </trkpt>
      <trkpt lat="44.65554" lon="3.08672">
        <ele>1171.9</ele>
        <time>2015-09-18T14:54:00Z</time>
      </trkpt>
      <trkpt lat="44.65559" lon="3.08659">
        <ele>1172.4</ele>
        <time>2015-09-18T14:54:07Z</time>
      </trkpt>
      <trkpt lat="44.65562" lon="3.08647">
        <ele>1172.9</ele>
        <time>2015-09-18T14:54:13Z</time>
      </trkpt>
      <trkpt lat="44.65566" lon="3.08633">
        <ele>1173.4</ele>
        <time>2015-09-18T14:54:19Z</time>
      </trkpt>
      <trkpt lat="44.65569" lon="3.08621">
        <ele>1173.7</ele>
        <time>2015-09-18T14:54:24Z</time>
      </trkpt>
      <trkpt lat="44.65573" lon="3.08609">
        <ele>1173.9</ele>
        <time>2015-09-18T14:54:29Z</time>
      </trkpt>
      <trkpt lat="44.65577" lon="3.08596">
        <ele>1174.1</ele>
        <time>2015-09-18T14:54:35Z</time>
      </trkpt>
      <trkpt lat="44.6558" lon="3.08583">
        <ele>1174.2</ele>
        <time>2015-09-18T14:54:40Z</time>
      </trkpt>
      <trkpt lat="44.65583" lon="3.08571">
        <ele>1174.3</ele>
        <time>2015-09-18T14:54:44Z</time>
      </trkpt>
      <trkpt lat="44.65587" lon="3.08558">
        <ele>1174.4</ele>
        <time>2015-09-18T14:54:48Z</time>
      </trkpt>
      <trkpt lat="44.6559" lon="3.08545">
        <ele>1174.4</ele>
        <time>2015-09-18T14:54:52Z</time>
      </trkpt>
      <trkpt lat="44.65593" lon="3.08532">
        <ele>1174.7</ele>
        <time>2015-09-18T14:54:57Z</time>
      </trkpt>
      <trkpt lat="44.65595" lon="3.08518">
        <ele>1175.1</ele>
        <time>2015-09-18T14:55:02Z</time>
      </trkpt>
      <trkpt lat="44.65598" lon="3.08503">
        <ele>1175.7</ele>
        <time>2015-09-18T14:55:07Z</time>
      </trkpt>
      <trkpt lat="44.65601" lon="3.08488">
        <ele>1176.1</ele>
        <time>2015-09-18T14:55:12Z</time>
      </trkpt>
      <trkpt lat="44.65603" lon="3.08475">
        <ele>1176.4</ele>
        <time>2015-09-18T14:55:16Z</time>
      </trkpt>
      <trkpt lat="44.65606" lon="3.08463">
        <ele>1176.5</ele>
        <time>2015-09-18T14:55:20Z</time>
      </trkpt>
      <trkpt lat="44.65608" lon="3.08448">
        <ele>1176.8</ele>
        <time>2015-09-18T14:55:26Z</time>
      </trkpt>
      <trkpt lat="44.6561" lon="3.08434">
        <ele>1176.9</ele>
        <time>2015-09-18T14:55:30Z</time>
      </trkpt>
      <trkpt lat="44.65612" lon="3.0842">
        <ele>1177</ele>
        <time>2015-09-18T14:55:34Z</time>
      </trkpt>
      <trkpt lat="44.65614" lon="3.08406">
        <ele>1177.1</ele>
        <time>2015-09-18T14:55:38Z</time>
      </trkpt>
      <trkpt lat="44.65616" lon="3.08393">
        <ele>1177.2</ele>
        <time>2015-09-18T14:55:43Z</time>
      </trkpt>
      <trkpt lat="44.65617" lon="3.08379">
        <ele>1177.3</ele>
        <time>2015-09-18T14:55:48Z</time>
      </trkpt>
      <trkpt lat="44.65619" lon="3.08366">
        <ele>1177.4</ele>
        <time>2015-09-18T14:55:52Z</time>
      </trkpt>
      <trkpt lat="44.65621" lon="3.08351">
        <ele>1177.8</ele>
        <time>2015-09-18T14:55:57Z</time>
      </trkpt>
      <trkpt lat="44.65623" lon="3.08336">
        <ele>1178.1</ele>
        <time>2015-09-18T14:56:02Z</time>
      </trkpt>
      <trkpt lat="44.65624" lon="3.08323">
        <ele>1178.5</ele>
        <time>2015-09-18T14:56:09Z</time>
      </trkpt>
      <trkpt lat="44.65626" lon="3.08308">
        <ele>1178.8</ele>
        <time>2015-09-18T14:56:15Z</time>
      </trkpt>
      <trkpt lat="44.65627" lon="3.08294">
        <ele>1178.9</ele>
        <time>2015-09-18T14:56:20Z</time>
      </trkpt>
      <trkpt lat="44.65629" lon="3.08279">
        <ele>1179.1</ele>
        <time>2015-09-18T14:56:25Z</time>
      </trkpt>
      <trkpt lat="44.65631" lon="3.08265">
        <ele>1179.2</ele>
        <time>2015-09-18T14:56:30Z</time>
      </trkpt>
      <trkpt lat="44.65634" lon="3.0825">
        <ele>1179.3</ele>
        <time>2015-09-18T14:56:35Z</time>
      </trkpt>
      <trkpt lat="44.65636" lon="3.08238">
        <ele>1179.4</ele>
        <time>2015-09-18T14:56:39Z</time>
      </trkpt>
      <trkpt lat="44.65639" lon="3.08223">
        <ele>1179.6</ele>
        <time>2015-09-18T14:56:44Z</time>
      </trkpt>
      <trkpt lat="44.65643" lon="3.08209">
        <ele>1179.9</ele>
        <time>2015-09-18T14:56:49Z</time>
      </trkpt>
      <trkpt lat="44.65646" lon="3.08197">
        <ele>1180.1</ele>
        <time>2015-09-18T14:56:53Z</time>
      </trkpt>
      <trkpt lat="44.65647" lon="3.08184">
        <ele>1180.3</ele>
        <time>2015-09-18T14:56:57Z</time>
      </trkpt>
      <trkpt lat="44.65649" lon="3.08171">
        <ele>1180.5</ele>
        <time>2015-09-18T14:57:01Z</time>
      </trkpt>
      <trkpt lat="44.65649" lon="3.08158">
        <ele>1180.7</ele>
        <time>2015-09-18T14:57:05Z</time>
      </trkpt>
      <trkpt lat="44.65649" lon="3.08142">
        <ele>1181.1</ele>
        <time>2015-09-18T14:57:10Z</time>
      </trkpt>
      <trkpt lat="44.6565" lon="3.08129">
        <ele>1181.5</ele>
        <time>2015-09-18T14:57:14Z</time>
      </trkpt>
      <trkpt lat="44.65653" lon="3.08116">
        <ele>1181.9</ele>
        <time>2015-09-18T14:57:19Z</time>
      </trkpt>
      <trkpt lat="44.65658" lon="3.08102">
        <ele>1182.4</ele>
        <time>2015-09-18T14:57:24Z</time>
      </trkpt>
      <trkpt lat="44.65661" lon="3.08089">
        <ele>1182.7</ele>
        <time>2015-09-18T14:57:28Z</time>
      </trkpt>
      <trkpt lat="44.65664" lon="3.08075">
        <ele>1183</ele>
        <time>2015-09-18T14:57:32Z</time>
      </trkpt>
      <trkpt lat="44.65667" lon="3.0806">
        <ele>1183.2</ele>
        <time>2015-09-18T14:57:36Z</time>
      </trkpt>
      <trkpt lat="44.6567" lon="3.08044">
        <ele>1183.4</ele>
        <time>2015-09-18T14:57:40Z</time>
      </trkpt>
      <trkpt lat="44.65674" lon="3.0803">
        <ele>1183.5</ele>
        <time>2015-09-18T14:57:44Z</time>
      </trkpt>
      <trkpt lat="44.65677" lon="3.08016">
        <ele>1183.6</ele>
        <time>2015-09-18T14:57:48Z</time>
      </trkpt>
      <trkpt lat="44.65677" lon="3.08003">
        <ele>1183.7</ele>
        <time>2015-09-18T14:57:52Z</time>
      </trkpt>
      <trkpt lat="44.65675" lon="3.0799">
        <ele>1183.8</ele>
        <time>2015-09-18T14:57:56Z</time>
      </trkpt>
      <trkpt lat="44.65674" lon="3.07976">
        <ele>1183.8</ele>
        <time>2015-09-18T14:58:00Z</time>
      </trkpt>
      <trkpt lat="44.65673" lon="3.07962">
        <ele>1183.8</ele>
        <time>2015-09-18T14:58:04Z</time>
      </trkpt>
      <trkpt lat="44.65672" lon="3.07949">
        <ele>1183.9</ele>
        <time>2015-09-18T14:58:08Z</time>
      </trkpt>
      <trkpt lat="44.65671" lon="3.07936">
        <ele>1183.9</ele>
        <time>2015-09-18T14:58:12Z</time>
      </trkpt>
      <trkpt lat="44.65668" lon="3.07923">
        <ele>1183.9</ele>
        <time>2015-09-18T14:58:16Z</time>
      </trkpt>
      <trkpt lat="44.65664" lon="3.07912">
        <ele>1183.9</ele>
        <time>2015-09-18T14:58:20Z</time>
      </trkpt>
      <trkpt lat="44.65658" lon="3.07898">
        <ele>1183.9</ele>
        <time>2015-09-18T14:58:25Z</time>
      </trkpt>
      <trkpt lat="44.65655" lon="3.07884">
        <ele>1183.9</ele>
        <time>2015-09-18T14:58:30Z</time>
      </trkpt>
      <trkpt lat="44.65653" lon="3.07871">
        <ele>1184.2</ele>
        <time>2015-09-18T14:58:37Z</time>
      </trkpt>
      <trkpt lat="44.65654" lon="3.07858">
        <ele>1184.4</ele>
        <time>2015-09-18T14:58:44Z</time>
      </trkpt>
      <trkpt lat="44.65655" lon="3.07845">
        <ele>1184.8</ele>
        <time>2015-09-18T14:58:50Z</time>
      </trkpt>
      <trkpt lat="44.65656" lon="3.07831">
        <ele>1185.4</ele>
        <time>2015-09-18T14:58:57Z</time>
      </trkpt>
      <trkpt lat="44.65657" lon="3.07817">
        <ele>1185.9</ele>
        <time>2015-09-18T14:59:03Z</time>
      </trkpt>
      <trkpt lat="44.65657" lon="3.07804">
        <ele>1186.3</ele>
        <time>2015-09-18T14:59:08Z</time>
      </trkpt>
      <trkpt lat="44.65657" lon="3.0779">
        <ele>1186.6</ele>
        <time>2015-09-18T14:59:13Z</time>
      </trkpt>
      <trkpt lat="44.65657" lon="3.07777">
        <ele>1186.9</ele>
        <time>2015-09-18T14:59:18Z</time>
      </trkpt>
      <trkpt lat="44.65657" lon="3.07762">
        <ele>1187.1</ele>
        <time>2015-09-18T14:59:23Z</time>
      </trkpt>
      <trkpt lat="44.65657" lon="3.07747">
        <ele>1187.3</ele>
        <time>2015-09-18T14:59:28Z</time>
      </trkpt>
      <trkpt lat="44.65657" lon="3.07732">
        <ele>1187.5</ele>
        <time>2015-09-18T14:59:33Z</time>
      </trkpt>
      <trkpt lat="44.6566" lon="3.07718">
        <ele>1187.6</ele>
        <time>2015-09-18T14:59:38Z</time>
      </trkpt>
      <trkpt lat="44.65663" lon="3.07704">
        <ele>1187.7</ele>
        <time>2015-09-18T14:59:43Z</time>
      </trkpt>
      <trkpt lat="44.65667" lon="3.07691">
        <ele>1187.8</ele>
        <time>2015-09-18T14:59:48Z</time>
      </trkpt>
      <trkpt lat="44.65671" lon="3.07678">
        <ele>1188</ele>
        <time>2015-09-18T14:59:53Z</time>
      </trkpt>
      <trkpt lat="44.65675" lon="3.07666">
        <ele>1188.5</ele>
        <time>2015-09-18T15:00:01Z</time>
      </trkpt>
      <trkpt lat="44.65676" lon="3.07653">
        <ele>1189</ele>
        <time>2015-09-18T15:00:08Z</time>
      </trkpt>
      <trkpt lat="44.6568" lon="3.0764">
        <ele>1189.5</ele>
        <time>2015-09-18T15:00:15Z</time>
      </trkpt>
      <trkpt lat="44.65684" lon="3.07628">
        <ele>1190</ele>
        <time>2015-09-18T15:00:22Z</time>
      </trkpt>
      <trkpt lat="44.65689" lon="3.07617">
        <ele>1190.7</ele>
        <time>2015-09-18T15:00:29Z</time>
      </trkpt>
      <trkpt lat="44.65694" lon="3.07604">
        <ele>1191.5</ele>
        <time>2015-09-18T15:00:36Z</time>
      </trkpt>
      <trkpt lat="44.65698" lon="3.07592">
        <ele>1192.2</ele>
        <time>2015-09-18T15:00:42Z</time>
      </trkpt>
      <trkpt lat="44.65703" lon="3.07581">
        <ele>1192.9</ele>
        <time>2015-09-18T15:00:48Z</time>
      </trkpt>
      <trkpt lat="44.65709" lon="3.0757">
        <ele>1193.6</ele>
        <time>2015-09-18T15:00:54Z</time>
      </trkpt>
      <trkpt lat="44.65715" lon="3.0756">
        <ele>1194.2</ele>
        <time>2015-09-18T15:01:00Z</time>
      </trkpt>
      <trkpt lat="44.65722" lon="3.0755">
        <ele>1194.8</ele>
        <time>2015-09-18T15:01:06Z</time>
      </trkpt>
      <trkpt lat="44.65727" lon="3.07539">
        <ele>1195.5</ele>
        <time>2015-09-18T15:01:12Z</time>
      </trkpt>
      <trkpt lat="44.65732" lon="3.07528">
        <ele>1196.3</ele>
        <time>2015-09-18T15:01:18Z</time>
      </trkpt>
      <trkpt lat="44.65738" lon="3.07516">
        <ele>1197.1</ele>
        <time>2015-09-18T15:01:25Z</time>
      </trkpt>
      <trkpt lat="44.65742" lon="3.07504">
        <ele>1198.1</ele>
        <time>2015-09-18T15:01:32Z</time>
      </trkpt>
      <trkpt lat="44.65747" lon="3.07492">
        <ele>1198.9</ele>
        <time>2015-09-18T15:01:40Z</time>
      </trkpt>
      <trkpt lat="44.6575" lon="3.07479">
        <ele>1199.5</ele>
        <time>2015-09-18T15:01:46Z</time>
      </trkpt>
      <trkpt lat="44.65753" lon="3.07466">
        <ele>1200.2</ele>
        <time>2015-09-18T15:01:52Z</time>
      </trkpt>
      <trkpt lat="44.65756" lon="3.07453">
        <ele>1201.2</ele>
        <time>2015-09-18T15:01:59Z</time>
      </trkpt>
      <trkpt lat="44.65758" lon="3.0744">
        <ele>1201.9</ele>
        <time>2015-09-18T15:02:06Z</time>
      </trkpt>
      <trkpt lat="44.65759" lon="3.07426">
        <ele>1202.8</ele>
        <time>2015-09-18T15:02:14Z</time>
      </trkpt>
      <trkpt lat="44.65761" lon="3.07413">
        <ele>1203.7</ele>
        <time>2015-09-18T15:02:22Z</time>
      </trkpt>
      <trkpt lat="44.65762" lon="3.07399">
        <ele>1204.7</ele>
        <time>2015-09-18T15:02:30Z</time>
      </trkpt>
      <trkpt lat="44.65765" lon="3.07386">
        <ele>1205.6</ele>
        <time>2015-09-18T15:02:38Z</time>
      </trkpt>
      <trkpt lat="44.65767" lon="3.07372">
        <ele>1206.5</ele>
        <time>2015-09-18T15:02:46Z</time>
      </trkpt>
      <trkpt lat="44.65768" lon="3.07359">
        <ele>1207.1</ele>
        <time>2015-09-18T15:02:53Z</time>
      </trkpt>
      <trkpt lat="44.65772" lon="3.07348">
        <ele>1208.1</ele>
        <time>2015-09-18T15:03:01Z</time>
      </trkpt>
      <trkpt lat="44.65778" lon="3.07337">
        <ele>1209.2</ele>
        <time>2015-09-18T15:03:09Z</time>
      </trkpt>
      <trkpt lat="44.65784" lon="3.07326">
        <ele>1210.4</ele>
        <time>2015-09-18T15:03:17Z</time>
      </trkpt>
      <trkpt lat="44.65788" lon="3.07314">
        <ele>1211.1</ele>
        <time>2015-09-18T15:03:24Z</time>
      </trkpt>
      <trkpt lat="44.65789" lon="3.073">
        <ele>1211.8</ele>
        <time>2015-09-18T15:03:33Z</time>
      </trkpt>
      <trkpt lat="44.65788" lon="3.07286">
        <ele>1212.4</ele>
        <time>2015-09-18T15:03:40Z</time>
      </trkpt>
      <trkpt lat="44.65783" lon="3.07273">
        <ele>1213</ele>
        <time>2015-09-18T15:03:47Z</time>
      </trkpt>
      <trkpt lat="44.65785" lon="3.07258">
        <ele>1215.5</ele>
        <time>2015-09-18T15:08:35Z</time>
      </trkpt>
      <trkpt lat="44.65785" lon="3.07244">
        <ele>1215.5</ele>
        <time>2015-09-18T15:08:39Z</time>
      </trkpt>
      <trkpt lat="44.6578" lon="3.07229">
        <ele>1215.5</ele>
        <time>2015-09-18T15:08:43Z</time>
      </trkpt>
      <trkpt lat="44.65777" lon="3.07216">
        <ele>1215.5</ele>
        <time>2015-09-18T15:08:46Z</time>
      </trkpt>
      <trkpt lat="44.65772" lon="3.07201">
        <ele>1215.5</ele>
        <time>2015-09-18T15:08:49Z</time>
      </trkpt>
      <trkpt lat="44.65767" lon="3.07186">
        <ele>1215.5</ele>
        <time>2015-09-18T15:08:52Z</time>
      </trkpt>
      <trkpt lat="44.65762" lon="3.0717">
        <ele>1215.5</ele>
        <time>2015-09-18T15:08:55Z</time>
      </trkpt>
      <trkpt lat="44.65757" lon="3.07156">
        <ele>1215.5</ele>
        <time>2015-09-18T15:08:58Z</time>
      </trkpt>
      <trkpt lat="44.65752" lon="3.0714">
        <ele>1215.8</ele>
        <time>2015-09-18T15:09:01Z</time>
      </trkpt>
      <trkpt lat="44.65747" lon="3.07125">
        <ele>1215.9</ele>
        <time>2015-09-18T15:09:04Z</time>
      </trkpt>
      <trkpt lat="44.65742" lon="3.0711">
        <ele>1216.1</ele>
        <time>2015-09-18T15:09:07Z</time>
      </trkpt>
      <trkpt lat="44.65739" lon="3.07095">
        <ele>1216.2</ele>
        <time>2015-09-18T15:09:10Z</time>
      </trkpt>
      <trkpt lat="44.65737" lon="3.07079">
        <ele>1216.3</ele>
        <time>2015-09-18T15:09:13Z</time>
      </trkpt>
      <trkpt lat="44.65735" lon="3.07062">
        <ele>1216.4</ele>
        <time>2015-09-18T15:09:16Z</time>
      </trkpt>
      <trkpt lat="44.65735" lon="3.07049">
        <ele>1216.5</ele>
        <time>2015-09-18T15:09:18Z</time>
      </trkpt>
      <trkpt lat="44.65735" lon="3.07032">
        <ele>1216.5</ele>
        <time>2015-09-18T15:09:21Z</time>
      </trkpt>
      <trkpt lat="44.65733" lon="3.07017">
        <ele>1216.3</ele>
        <time>2015-09-18T15:09:25Z</time>
      </trkpt>
      <trkpt lat="44.65728" lon="3.07006">
        <ele>1216.2</ele>
        <time>2015-09-18T15:09:29Z</time>
      </trkpt>
      <trkpt lat="44.65734" lon="3.06993">
        <ele>1215.8</ele>
        <time>2015-09-18T15:09:36Z</time>
      </trkpt>
      <trkpt lat="44.65742" lon="3.06986">
        <ele>1215.7</ele>
        <time>2015-09-18T15:09:39Z</time>
      </trkpt>
      <trkpt lat="44.65749" lon="3.06973">
        <ele>1215.5</ele>
        <time>2015-09-18T15:09:42Z</time>
      </trkpt>
      <trkpt lat="44.65751" lon="3.06956">
        <ele>1215.3</ele>
        <time>2015-09-18T15:09:45Z</time>
      </trkpt>
      <trkpt lat="44.65754" lon="3.06941">
        <ele>1214.9</ele>
        <time>2015-09-18T15:09:48Z</time>
      </trkpt>
      <trkpt lat="44.65759" lon="3.06929">
        <ele>1214.5</ele>
        <time>2015-09-18T15:09:51Z</time>
      </trkpt>
      <trkpt lat="44.65764" lon="3.06915">
        <ele>1213</ele>
        <time>2015-09-18T15:10:16Z</time>
      </trkpt>
      <trkpt lat="44.65767" lon="3.06903">
        <ele>1212.9</ele>
        <time>2015-09-18T15:10:20Z</time>
      </trkpt>
      <trkpt lat="44.65769" lon="3.06887">
        <ele>1212.8</ele>
        <time>2015-09-18T15:10:23Z</time>
      </trkpt>
      <trkpt lat="44.65771" lon="3.06873">
        <ele>1212.8</ele>
        <time>2015-09-18T15:10:25Z</time>
      </trkpt>
      <trkpt lat="44.65773" lon="3.06856">
        <ele>1212.7</ele>
        <time>2015-09-18T15:10:27Z</time>
      </trkpt>
      <trkpt lat="44.65775" lon="3.06839">
        <ele>1212.6</ele>
        <time>2015-09-18T15:10:29Z</time>
      </trkpt>
      <trkpt lat="44.65778" lon="3.06823">
        <ele>1212.4</ele>
        <time>2015-09-18T15:10:31Z</time>
      </trkpt>
      <trkpt lat="44.65781" lon="3.06808">
        <ele>1212.3</ele>
        <time>2015-09-18T15:10:33Z</time>
      </trkpt>
      <trkpt lat="44.65787" lon="3.06794">
        <ele>1212</ele>
        <time>2015-09-18T15:10:35Z</time>
      </trkpt>
      <trkpt lat="44.65796" lon="3.06781">
        <ele>1211.7</ele>
        <time>2015-09-18T15:10:37Z</time>
      </trkpt>
      <trkpt lat="44.65807" lon="3.06768">
        <ele>1211.1</ele>
        <time>2015-09-18T15:10:39Z</time>
      </trkpt>
      <trkpt lat="44.65819" lon="3.06755">
        <ele>1210.2</ele>
        <time>2015-09-18T15:10:41Z</time>
      </trkpt>
      <trkpt lat="44.65831" lon="3.0674">
        <ele>1209.4</ele>
        <time>2015-09-18T15:10:43Z</time>
      </trkpt>
      <trkpt lat="44.65843" lon="3.06729">
        <ele>1208.5</ele>
        <time>2015-09-18T15:10:45Z</time>
      </trkpt>
      <trkpt lat="44.65857" lon="3.0672">
        <ele>1207.4</ele>
        <time>2015-09-18T15:10:47Z</time>
      </trkpt>
      <trkpt lat="44.65872" lon="3.06712">
        <ele>1206.1</ele>
        <time>2015-09-18T15:10:49Z</time>
      </trkpt>
      <trkpt lat="44.65888" lon="3.06704">
        <ele>1204.8</ele>
        <time>2015-09-18T15:10:51Z</time>
      </trkpt>
      <trkpt lat="44.65898" lon="3.06691">
        <ele>1203.6</ele>
        <time>2015-09-18T15:10:53Z</time>
      </trkpt>
      <trkpt lat="44.659" lon="3.06676">
        <ele>1202.3</ele>
        <time>2015-09-18T15:10:55Z</time>
      </trkpt>
      <trkpt lat="44.65897" lon="3.06661">
        <ele>1200.2</ele>
        <time>2015-09-18T15:10:59Z</time>
      </trkpt>
      <trkpt lat="44.65897" lon="3.06648">
        <ele>1198.9</ele>
        <time>2015-09-18T15:11:02Z</time>
      </trkpt>
      <trkpt lat="44.65896" lon="3.06633">
        <ele>1197.9</ele>
        <time>2015-09-18T15:11:05Z</time>
      </trkpt>
      <trkpt lat="44.65897" lon="3.06618">
        <ele>1197</ele>
        <time>2015-09-18T15:11:08Z</time>
      </trkpt>
      <trkpt lat="44.65898" lon="3.06603">
        <ele>1196.3</ele>
        <time>2015-09-18T15:11:11Z</time>
      </trkpt>
      <trkpt lat="44.65902" lon="3.06589">
        <ele>1195.8</ele>
        <time>2015-09-18T15:11:14Z</time>
      </trkpt>
      <trkpt lat="44.65903" lon="3.06574">
        <ele>1195.4</ele>
        <time>2015-09-18T15:11:17Z</time>
      </trkpt>
      <trkpt lat="44.65905" lon="3.0656">
        <ele>1195.1</ele>
        <time>2015-09-18T15:11:20Z</time>
      </trkpt>
      <trkpt lat="44.65906" lon="3.06547">
        <ele>1194.9</ele>
        <time>2015-09-18T15:11:23Z</time>
      </trkpt>
      <trkpt lat="44.65906" lon="3.06533">
        <ele>1195.1</ele>
        <time>2015-09-18T15:11:27Z</time>
      </trkpt>
      <trkpt lat="44.65906" lon="3.06519">
        <ele>1195.2</ele>
        <time>2015-09-18T15:11:31Z</time>
      </trkpt>
      <trkpt lat="44.65905" lon="3.06506">
        <ele>1195.4</ele>
        <time>2015-09-18T15:11:35Z</time>
      </trkpt>
      <trkpt lat="44.65904" lon="3.06492">
        <ele>1195.6</ele>
        <time>2015-09-18T15:11:39Z</time>
      </trkpt>
      <trkpt lat="44.65903" lon="3.06478">
        <ele>1195.7</ele>
        <time>2015-09-18T15:11:43Z</time>
      </trkpt>
      <trkpt lat="44.65902" lon="3.06464">
        <ele>1195.8</ele>
        <time>2015-09-18T15:11:47Z</time>
      </trkpt>
      <trkpt lat="44.65901" lon="3.0645">
        <ele>1195.9</ele>
        <time>2015-09-18T15:11:51Z</time>
      </trkpt>
      <trkpt lat="44.65901" lon="3.06437">
        <ele>1196.2</ele>
        <time>2015-09-18T15:11:55Z</time>
      </trkpt>
      <trkpt lat="44.659" lon="3.06423">
        <ele>1196.5</ele>
        <time>2015-09-18T15:11:59Z</time>
      </trkpt>
      <trkpt lat="44.65899" lon="3.0641">
        <ele>1196.8</ele>
        <time>2015-09-18T15:12:03Z</time>
      </trkpt>
      <trkpt lat="44.65898" lon="3.06397">
        <ele>1197.2</ele>
        <time>2015-09-18T15:12:07Z</time>
      </trkpt>
      <trkpt lat="44.65896" lon="3.06382">
        <ele>1197.7</ele>
        <time>2015-09-18T15:12:12Z</time>
      </trkpt>
      <trkpt lat="44.65895" lon="3.06367">
        <ele>1198.4</ele>
        <time>2015-09-18T15:12:17Z</time>
      </trkpt>
      <trkpt lat="44.65894" lon="3.06353">
        <ele>1198.9</ele>
        <time>2015-09-18T15:12:22Z</time>
      </trkpt>
      <trkpt lat="44.65893" lon="3.0634">
        <ele>1199.7</ele>
        <time>2015-09-18T15:12:28Z</time>
      </trkpt>
      <trkpt lat="44.65894" lon="3.06327">
        <ele>1200.6</ele>
        <time>2015-09-18T15:12:36Z</time>
      </trkpt>
      <trkpt lat="44.65892" lon="3.06314">
        <ele>1201.3</ele>
        <time>2015-09-18T15:12:43Z</time>
      </trkpt>
      <trkpt lat="44.6589" lon="3.063">
        <ele>1202.3</ele>
        <time>2015-09-18T15:12:51Z</time>
      </trkpt>
      <trkpt lat="44.65886" lon="3.06287">
        <ele>1203.1</ele>
        <time>2015-09-18T15:12:59Z</time>
      </trkpt>
      <trkpt lat="44.65881" lon="3.06275">
        <ele>1203.8</ele>
        <time>2015-09-18T15:13:06Z</time>
      </trkpt>
      <trkpt lat="44.65877" lon="3.06264">
        <ele>1204.5</ele>
        <time>2015-09-18T15:13:13Z</time>
      </trkpt>
      <trkpt lat="44.65871" lon="3.06253">
        <ele>1205.2</ele>
        <time>2015-09-18T15:13:23Z</time>
      </trkpt>
      <trkpt lat="44.65866" lon="3.0624">
        <ele>1205.5</ele>
        <time>2015-09-18T15:13:28Z</time>
      </trkpt>
      <trkpt lat="44.65862" lon="3.06227">
        <ele>1206</ele>
        <time>2015-09-18T15:13:33Z</time>
      </trkpt>
      <trkpt lat="44.65858" lon="3.06215">
        <ele>1206.4</ele>
        <time>2015-09-18T15:13:38Z</time>
      </trkpt>
      <trkpt lat="44.65855" lon="3.06203">
        <ele>1206.8</ele>
        <time>2015-09-18T15:13:43Z</time>
      </trkpt>
      <trkpt lat="44.65852" lon="3.0619">
        <ele>1207.2</ele>
        <time>2015-09-18T15:13:48Z</time>
      </trkpt>
      <trkpt lat="44.6585" lon="3.06178">
        <ele>1207.8</ele>
        <time>2015-09-18T15:13:53Z</time>
      </trkpt>
      <trkpt lat="44.65846" lon="3.06164">
        <ele>1208.5</ele>
        <time>2015-09-18T15:13:59Z</time>
      </trkpt>
      <trkpt lat="44.65842" lon="3.06153">
        <ele>1209.1</ele>
        <time>2015-09-18T15:14:05Z</time>
      </trkpt>
      <trkpt lat="44.65838" lon="3.06141">
        <ele>1209.7</ele>
        <time>2015-09-18T15:14:10Z</time>
      </trkpt>
      <trkpt lat="44.65835" lon="3.06127">
        <ele>1210.3</ele>
        <time>2015-09-18T15:14:16Z</time>
      </trkpt>
      <trkpt lat="44.65831" lon="3.06115">
        <ele>1210.9</ele>
        <time>2015-09-18T15:14:21Z</time>
      </trkpt>
      <trkpt lat="44.65827" lon="3.06103">
        <ele>1211.6</ele>
        <time>2015-09-18T15:14:27Z</time>
      </trkpt>
      <trkpt lat="44.65821" lon="3.06092">
        <ele>1212.5</ele>
        <time>2015-09-18T15:14:35Z</time>
      </trkpt>
      <trkpt lat="44.65816" lon="3.0608">
        <ele>1213.5</ele>
        <time>2015-09-18T15:14:43Z</time>
      </trkpt>
      <trkpt lat="44.65809" lon="3.06073">
        <ele>1214.4</ele>
        <time>2015-09-18T15:14:54Z</time>
      </trkpt>
      <trkpt lat="44.65807" lon="3.06059">
        <ele>1216.5</ele>
        <time>2015-09-18T15:16:00Z</time>
      </trkpt>
      <trkpt lat="44.65802" lon="3.06048">
        <ele>1216.5</ele>
        <time>2015-09-18T15:16:05Z</time>
      </trkpt>
      <trkpt lat="44.65797" lon="3.06037">
        <ele>1216.5</ele>
        <time>2015-09-18T15:16:11Z</time>
      </trkpt>
      <trkpt lat="44.65792" lon="3.06025">
        <ele>1216.5</ele>
        <time>2015-09-18T15:16:16Z</time>
      </trkpt>
      <trkpt lat="44.65787" lon="3.06013">
        <ele>1216.5</ele>
        <time>2015-09-18T15:16:21Z</time>
      </trkpt>
      <trkpt lat="44.65783" lon="3.06001">
        <ele>1216.7</ele>
        <time>2015-09-18T15:16:26Z</time>
      </trkpt>
      <trkpt lat="44.65778" lon="3.05989">
        <ele>1217.1</ele>
        <time>2015-09-18T15:16:31Z</time>
      </trkpt>
      <trkpt lat="44.65774" lon="3.05977">
        <ele>1217.5</ele>
        <time>2015-09-18T15:16:36Z</time>
      </trkpt>
      <trkpt lat="44.65769" lon="3.05964">
        <ele>1218.2</ele>
        <time>2015-09-18T15:16:41Z</time>
      </trkpt>
      <trkpt lat="44.65765" lon="3.05952">
        <ele>1218.9</ele>
        <time>2015-09-18T15:16:46Z</time>
      </trkpt>
      <trkpt lat="44.65762" lon="3.05938">
        <ele>1219.7</ele>
        <time>2015-09-18T15:16:52Z</time>
      </trkpt>
      <trkpt lat="44.65758" lon="3.05925">
        <ele>1220.6</ele>
        <time>2015-09-18T15:16:58Z</time>
      </trkpt>
      <trkpt lat="44.65754" lon="3.05913">
        <ele>1221.2</ele>
        <time>2015-09-18T15:17:03Z</time>
      </trkpt>
      <trkpt lat="44.65748" lon="3.059">
        <ele>1221.8</ele>
        <time>2015-09-18T15:17:08Z</time>
      </trkpt>
      <trkpt lat="44.65744" lon="3.05887">
        <ele>1222.3</ele>
        <time>2015-09-18T15:17:13Z</time>
      </trkpt>
      <trkpt lat="44.65741" lon="3.05871">
        <ele>1222.7</ele>
        <time>2015-09-18T15:17:18Z</time>
      </trkpt>
      <trkpt lat="44.65742" lon="3.05856">
        <ele>1223.1</ele>
        <time>2015-09-18T15:17:23Z</time>
      </trkpt>
      <trkpt lat="44.65741" lon="3.05843">
        <ele>1223.5</ele>
        <time>2015-09-18T15:17:27Z</time>
      </trkpt>
      <trkpt lat="44.6574" lon="3.05828">
        <ele>1224</ele>
        <time>2015-09-18T15:17:32Z</time>
      </trkpt>
      <trkpt lat="44.65741" lon="3.05813">
        <ele>1224.4</ele>
        <time>2015-09-18T15:17:37Z</time>
      </trkpt>
      <trkpt lat="44.65743" lon="3.05798">
        <ele>1224.8</ele>
        <time>2015-09-18T15:17:42Z</time>
      </trkpt>
      <trkpt lat="44.65748" lon="3.05787">
        <ele>1224.9</ele>
        <time>2015-09-18T15:17:46Z</time>
      </trkpt>
      <trkpt lat="44.65754" lon="3.05777">
        <ele>1225</ele>
        <time>2015-09-18T15:17:49Z</time>
      </trkpt>
      <trkpt lat="44.65762" lon="3.05765">
        <ele>1225.1</ele>
        <time>2015-09-18T15:17:52Z</time>
      </trkpt>
      <trkpt lat="44.65772" lon="3.05753">
        <ele>1224.8</ele>
        <time>2015-09-18T15:17:55Z</time>
      </trkpt>
      <trkpt lat="44.65781" lon="3.05745">
        <ele>1224.5</ele>
        <time>2015-09-18T15:17:57Z</time>
      </trkpt>
      <trkpt lat="44.65789" lon="3.05733">
        <ele>1224.2</ele>
        <time>2015-09-18T15:17:59Z</time>
      </trkpt>
      <trkpt lat="44.65797" lon="3.0572">
        <ele>1223.9</ele>
        <time>2015-09-18T15:18:01Z</time>
      </trkpt>
      <trkpt lat="44.65807" lon="3.05705">
        <ele>1223.4</ele>
        <time>2015-09-18T15:18:03Z</time>
      </trkpt>
      <trkpt lat="44.65819" lon="3.05688">
        <ele>1222.6</ele>
        <time>2015-09-18T15:18:05Z</time>
      </trkpt>
      <trkpt lat="44.65832" lon="3.05671">
        <ele>1221.5</ele>
        <time>2015-09-18T15:18:07Z</time>
      </trkpt>
      <trkpt lat="44.65843" lon="3.05656">
        <ele>1220.5</ele>
        <time>2015-09-18T15:18:09Z</time>
      </trkpt>
      <trkpt lat="44.6585" lon="3.0564">
        <ele>1219.5</ele>
        <time>2015-09-18T15:18:11Z</time>
      </trkpt>
      <trkpt lat="44.65851" lon="3.05621">
        <ele>1218.4</ele>
        <time>2015-09-18T15:18:13Z</time>
      </trkpt>
      <trkpt lat="44.65851" lon="3.05604">
        <ele>1217.3</ele>
        <time>2015-09-18T15:18:15Z</time>
      </trkpt>
      <trkpt lat="44.65852" lon="3.05588">
        <ele>1216.2</ele>
        <time>2015-09-18T15:18:17Z</time>
      </trkpt>
      <trkpt lat="44.65853" lon="3.05575">
        <ele>1215.3</ele>
        <time>2015-09-18T15:18:19Z</time>
      </trkpt>
      <trkpt lat="44.65856" lon="3.05557">
        <ele>1214.1</ele>
        <time>2015-09-18T15:18:22Z</time>
      </trkpt>
      <trkpt lat="44.65859" lon="3.05541">
        <ele>1213.1</ele>
        <time>2015-09-18T15:18:25Z</time>
      </trkpt>
      <trkpt lat="44.65863" lon="3.05524">
        <ele>1212.3</ele>
        <time>2015-09-18T15:18:28Z</time>
      </trkpt>
      <trkpt lat="44.65867" lon="3.05511">
        <ele>1211.7</ele>
        <time>2015-09-18T15:18:30Z</time>
      </trkpt>
      <trkpt lat="44.65873" lon="3.055">
        <ele>1211.2</ele>
        <time>2015-09-18T15:18:32Z</time>
      </trkpt>
      <trkpt lat="44.6588" lon="3.05487">
        <ele>1210.7</ele>
        <time>2015-09-18T15:18:34Z</time>
      </trkpt>
      <trkpt lat="44.65884" lon="3.05471">
        <ele>1210.2</ele>
        <time>2015-09-18T15:18:36Z</time>
      </trkpt>
      <trkpt lat="44.6589" lon="3.05455">
        <ele>1209.5</ele>
        <time>2015-09-18T15:18:38Z</time>
      </trkpt>
      <trkpt lat="44.65895" lon="3.05438">
        <ele>1208.8</ele>
        <time>2015-09-18T15:18:40Z</time>
      </trkpt>
      <trkpt lat="44.659" lon="3.0542">
        <ele>1208.1</ele>
        <time>2015-09-18T15:18:42Z</time>
      </trkpt>
      <trkpt lat="44.65908" lon="3.05404">
        <ele>1207.4</ele>
        <time>2015-09-18T15:18:44Z</time>
      </trkpt>
      <trkpt lat="44.65919" lon="3.05389">
        <ele>1206.5</ele>
        <time>2015-09-18T15:18:46Z</time>
      </trkpt>
      <trkpt lat="44.65928" lon="3.05371">
        <ele>1205.5</ele>
        <time>2015-09-18T15:18:48Z</time>
      </trkpt>
      <trkpt lat="44.65936" lon="3.0535">
        <ele>1204.6</ele>
        <time>2015-09-18T15:18:50Z</time>
      </trkpt>
      <trkpt lat="44.65941" lon="3.05327">
        <ele>1203.6</ele>
        <time>2015-09-18T15:18:52Z</time>
      </trkpt>
      <trkpt lat="44.65942" lon="3.05305">
        <ele>1202.6</ele>
        <time>2015-09-18T15:18:54Z</time>
      </trkpt>
      <trkpt lat="44.65941" lon="3.05286">
        <ele>1201.8</ele>
        <time>2015-09-18T15:18:56Z</time>
      </trkpt>
      <trkpt lat="44.65938" lon="3.05268">
        <ele>1201</ele>
        <time>2015-09-18T15:18:58Z</time>
      </trkpt>
      <trkpt lat="44.65932" lon="3.05253">
        <ele>1200.3</ele>
        <time>2015-09-18T15:19:00Z</time>
      </trkpt>
      <trkpt lat="44.65925" lon="3.05236">
        <ele>1199.5</ele>
        <time>2015-09-18T15:19:02Z</time>
      </trkpt>
      <trkpt lat="44.65923" lon="3.05221">
        <ele>1198.7</ele>
        <time>2015-09-18T15:19:04Z</time>
      </trkpt>
      <trkpt lat="44.65922" lon="3.05207">
        <ele>1197.4</ele>
        <time>2015-09-18T15:19:08Z</time>
      </trkpt>
      <trkpt lat="44.65922" lon="3.05193">
        <ele>1196.5</ele>
        <time>2015-09-18T15:19:11Z</time>
      </trkpt>
      <trkpt lat="44.65922" lon="3.05176">
        <ele>1195.6</ele>
        <time>2015-09-18T15:19:14Z</time>
      </trkpt>
      <trkpt lat="44.65923" lon="3.05162">
        <ele>1195.2</ele>
        <time>2015-09-18T15:19:16Z</time>
      </trkpt>
      <trkpt lat="44.65927" lon="3.0515">
        <ele>1194.7</ele>
        <time>2015-09-18T15:19:18Z</time>
      </trkpt>
      <trkpt lat="44.65934" lon="3.05141">
        <ele>1194.2</ele>
        <time>2015-09-18T15:19:20Z</time>
      </trkpt>
      <trkpt lat="44.65943" lon="3.05135">
        <ele>1193.7</ele>
        <time>2015-09-18T15:19:22Z</time>
      </trkpt>
      <trkpt lat="44.65952" lon="3.0513">
        <ele>1193.2</ele>
        <time>2015-09-18T15:19:24Z</time>
      </trkpt>
      <trkpt lat="44.65965" lon="3.05126">
        <ele>1192.7</ele>
        <time>2015-09-18T15:19:27Z</time>
      </trkpt>
      <trkpt lat="44.65976" lon="3.05124">
        <ele>1192.2</ele>
        <time>2015-09-18T15:19:30Z</time>
      </trkpt>
      <trkpt lat="44.65986" lon="3.05123">
        <ele>1191.8</ele>
        <time>2015-09-18T15:19:33Z</time>
      </trkpt>
      <trkpt lat="44.65995" lon="3.05122">
        <ele>1191.3</ele>
        <time>2015-09-18T15:19:38Z</time>
      </trkpt>
      <trkpt lat="44.66004" lon="3.05123">
        <ele>1190.8</ele>
        <time>2015-09-18T15:19:45Z</time>
      </trkpt>
      <trkpt lat="44.66013" lon="3.05115">
        <ele>1190.5</ele>
        <time>2015-09-18T15:19:50Z</time>
      </trkpt>
      <trkpt lat="44.66021" lon="3.05109">
        <ele>1190.3</ele>
        <time>2015-09-18T15:19:55Z</time>
      </trkpt>
      <trkpt lat="44.66028" lon="3.05099">
        <ele>1190</ele>
        <time>2015-09-18T15:20:11Z</time>
      </trkpt>
      <trkpt lat="44.66034" lon="3.05089">
        <ele>1190</ele>
        <time>2015-09-18T15:20:14Z</time>
      </trkpt>
      <trkpt lat="44.66043" lon="3.05078">
        <ele>1189.9</ele>
        <time>2015-09-18T15:20:17Z</time>
      </trkpt>
      <trkpt lat="44.6605" lon="3.05068">
        <ele>1189.8</ele>
        <time>2015-09-18T15:20:20Z</time>
      </trkpt>
      <trkpt lat="44.66057" lon="3.05058">
        <ele>1189.6</ele>
        <time>2015-09-18T15:20:25Z</time>
      </trkpt>
      <trkpt lat="44.66065" lon="3.05048">
        <ele>1188.9</ele>
        <time>2015-09-18T15:20:31Z</time>
      </trkpt>
      <trkpt lat="44.66073" lon="3.0504">
        <ele>1188.4</ele>
        <time>2015-09-18T15:20:35Z</time>
      </trkpt>
      <trkpt lat="44.66081" lon="3.05033">
        <ele>1186.7</ele>
        <time>2015-09-18T15:21:36Z</time>
      </trkpt>
      <trkpt lat="44.66091" lon="3.05024">
        <ele>1186.7</ele>
        <time>2015-09-18T15:21:40Z</time>
      </trkpt>
      <trkpt lat="44.66098" lon="3.05017">
        <ele>1186.6</ele>
        <time>2015-09-18T15:21:42Z</time>
      </trkpt>
      <trkpt lat="44.66107" lon="3.05009">
        <ele>1186.5</ele>
        <time>2015-09-18T15:21:44Z</time>
      </trkpt>
      <trkpt lat="44.66116" lon="3.05">
        <ele>1186.4</ele>
        <time>2015-09-18T15:21:46Z</time>
      </trkpt>
      <trkpt lat="44.66126" lon="3.04988">
        <ele>1186.2</ele>
        <time>2015-09-18T15:21:48Z</time>
      </trkpt>
      <trkpt lat="44.66136" lon="3.04976">
        <ele>1185.9</ele>
        <time>2015-09-18T15:21:50Z</time>
      </trkpt>
      <trkpt lat="44.66146" lon="3.04962">
        <ele>1185.6</ele>
        <time>2015-09-18T15:21:52Z</time>
      </trkpt>
      <trkpt lat="44.66156" lon="3.04948">
        <ele>1185.1</ele>
        <time>2015-09-18T15:21:54Z</time>
      </trkpt>
      <trkpt lat="44.66164" lon="3.04932">
        <ele>1184.7</ele>
        <time>2015-09-18T15:21:56Z</time>
      </trkpt>
      <trkpt lat="44.66167" lon="3.04915">
        <ele>1184.3</ele>
        <time>2015-09-18T15:21:58Z</time>
      </trkpt>
      <trkpt lat="44.66167" lon="3.04897">
        <ele>1183.8</ele>
        <time>2015-09-18T15:22:00Z</time>
      </trkpt>
      <trkpt lat="44.66167" lon="3.04881">
        <ele>1183.3</ele>
        <time>2015-09-18T15:22:02Z</time>
      </trkpt>
      <trkpt lat="44.6617" lon="3.04865">
        <ele>1182.5</ele>
        <time>2015-09-18T15:22:05Z</time>
      </trkpt>
      <trkpt lat="44.66175" lon="3.04852">
        <ele>1181.8</ele>
        <time>2015-09-18T15:22:08Z</time>
      </trkpt>
      <trkpt lat="44.66179" lon="3.04837">
        <ele>1181.1</ele>
        <time>2015-09-18T15:22:11Z</time>
      </trkpt>
      <trkpt lat="44.66183" lon="3.04823">
        <ele>1180.5</ele>
        <time>2015-09-18T15:22:13Z</time>
      </trkpt>
      <trkpt lat="44.66185" lon="3.04806">
        <ele>1180</ele>
        <time>2015-09-18T15:22:15Z</time>
      </trkpt>
      <trkpt lat="44.66187" lon="3.04789">
        <ele>1179.5</ele>
        <time>2015-09-18T15:22:17Z</time>
      </trkpt>
      <trkpt lat="44.66188" lon="3.04772">
        <ele>1179</ele>
        <time>2015-09-18T15:22:19Z</time>
      </trkpt>
      <trkpt lat="44.66189" lon="3.04755">
        <ele>1178.5</ele>
        <time>2015-09-18T15:22:21Z</time>
      </trkpt>
      <trkpt lat="44.66191" lon="3.04738">
        <ele>1178</ele>
        <time>2015-09-18T15:22:23Z</time>
      </trkpt>
      <trkpt lat="44.66194" lon="3.04722">
        <ele>1177.5</ele>
        <time>2015-09-18T15:22:25Z</time>
      </trkpt>
      <trkpt lat="44.66197" lon="3.04709">
        <ele>1177.1</ele>
        <time>2015-09-18T15:22:27Z</time>
      </trkpt>
      <trkpt lat="44.66203" lon="3.04693">
        <ele>1176.6</ele>
        <time>2015-09-18T15:22:30Z</time>
      </trkpt>
      <trkpt lat="44.66208" lon="3.04679">
        <ele>1176.2</ele>
        <time>2015-09-18T15:22:33Z</time>
      </trkpt>
      <trkpt lat="44.66213" lon="3.04668">
        <ele>1176</ele>
        <time>2015-09-18T15:22:36Z</time>
      </trkpt>
      <trkpt lat="44.66221" lon="3.0466">
        <ele>1176.1</ele>
        <time>2015-09-18T15:22:40Z</time>
      </trkpt>
      <trkpt lat="44.66227" lon="3.0465">
        <ele>1176.8</ele>
        <time>2015-09-18T15:22:49Z</time>
      </trkpt>
      <trkpt lat="44.66228" lon="3.04663">
        <ele>1178.5</ele>
        <time>2015-09-18T15:29:34Z</time>
      </trkpt>
      <trkpt lat="44.66235" lon="3.04674">
        <ele>1178.5</ele>
        <time>2015-09-18T15:29:39Z</time>
      </trkpt>
      <trkpt lat="44.66243" lon="3.04679">
        <ele>1178.5</ele>
        <time>2015-09-18T15:29:43Z</time>
      </trkpt>
      <trkpt lat="44.66253" lon="3.04676">
        <ele>1178.6</ele>
        <time>2015-09-18T15:29:47Z</time>
      </trkpt>
      <trkpt lat="44.66259" lon="3.04664">
        <ele>1178.9</ele>
        <time>2015-09-18T15:29:51Z</time>
      </trkpt>
      <trkpt lat="44.66263" lon="3.0465">
        <ele>1179.4</ele>
        <time>2015-09-18T15:29:55Z</time>
      </trkpt>
      <trkpt lat="44.66265" lon="3.04634">
        <ele>1180.1</ele>
        <time>2015-09-18T15:29:59Z</time>
      </trkpt>
      <trkpt lat="44.66266" lon="3.04619">
        <ele>1181</ele>
        <time>2015-09-18T15:30:03Z</time>
      </trkpt>
      <trkpt lat="44.66267" lon="3.04604">
        <ele>1181.7</ele>
        <time>2015-09-18T15:30:07Z</time>
      </trkpt>
      <trkpt lat="44.66266" lon="3.04588">
        <ele>1182.5</ele>
        <time>2015-09-18T15:30:11Z</time>
      </trkpt>
      <trkpt lat="44.66266" lon="3.04571">
        <ele>1183.2</ele>
        <time>2015-09-18T15:30:15Z</time>
      </trkpt>
      <trkpt lat="44.66267" lon="3.04558">
        <ele>1183.7</ele>
        <time>2015-09-18T15:30:18Z</time>
      </trkpt>
      <trkpt lat="44.66267" lon="3.04545">
        <ele>1184.2</ele>
        <time>2015-09-18T15:30:21Z</time>
      </trkpt>
      <trkpt lat="44.66266" lon="3.0453">
        <ele>1184.5</ele>
        <time>2015-09-18T15:30:24Z</time>
      </trkpt>
      <trkpt lat="44.66267" lon="3.04515">
        <ele>1184.8</ele>
        <time>2015-09-18T15:30:27Z</time>
      </trkpt>
      <trkpt lat="44.66268" lon="3.04498">
        <ele>1185</ele>
        <time>2015-09-18T15:30:30Z</time>
      </trkpt>
      <trkpt lat="44.66268" lon="3.0448">
        <ele>1185.2</ele>
        <time>2015-09-18T15:30:33Z</time>
      </trkpt>
      <trkpt lat="44.66268" lon="3.04462">
        <ele>1185.2</ele>
        <time>2015-09-18T15:30:36Z</time>
      </trkpt>
      <trkpt lat="44.66267" lon="3.04449">
        <ele>1185.2</ele>
        <time>2015-09-18T15:30:38Z</time>
      </trkpt>
      <trkpt lat="44.66266" lon="3.04436">
        <ele>1185.2</ele>
        <time>2015-09-18T15:30:40Z</time>
      </trkpt>
      <trkpt lat="44.66265" lon="3.04421">
        <ele>1185.1</ele>
        <time>2015-09-18T15:30:42Z</time>
      </trkpt>
      <trkpt lat="44.66264" lon="3.04407">
        <ele>1185</ele>
        <time>2015-09-18T15:30:44Z</time>
      </trkpt>
      <trkpt lat="44.66263" lon="3.04394">
        <ele>1184.8</ele>
        <time>2015-09-18T15:30:46Z</time>
      </trkpt>
      <trkpt lat="44.66262" lon="3.04377">
        <ele>1184.6</ele>
        <time>2015-09-18T15:30:49Z</time>
      </trkpt>
      <trkpt lat="44.66259" lon="3.04361">
        <ele>1184.5</ele>
        <time>2015-09-18T15:30:52Z</time>
      </trkpt>
      <trkpt lat="44.66254" lon="3.04344">
        <ele>1184.4</ele>
        <time>2015-09-18T15:30:55Z</time>
      </trkpt>
      <trkpt lat="44.66248" lon="3.0433">
        <ele>1184.3</ele>
        <time>2015-09-18T15:30:58Z</time>
      </trkpt>
      <trkpt lat="44.6624" lon="3.04318">
        <ele>1184.3</ele>
        <time>2015-09-18T15:31:01Z</time>
      </trkpt>
      <trkpt lat="44.66233" lon="3.04306">
        <ele>1184.2</ele>
        <time>2015-09-18T15:31:04Z</time>
      </trkpt>
      <trkpt lat="44.66225" lon="3.04293">
        <ele>1184.2</ele>
        <time>2015-09-18T15:31:07Z</time>
      </trkpt>
      <trkpt lat="44.66217" lon="3.0428">
        <ele>1184.3</ele>
        <time>2015-09-18T15:31:10Z</time>
      </trkpt>
      <trkpt lat="44.66208" lon="3.04266">
        <ele>1184.3</ele>
        <time>2015-09-18T15:31:13Z</time>
      </trkpt>
      <trkpt lat="44.66199" lon="3.04253">
        <ele>1184.4</ele>
        <time>2015-09-18T15:31:16Z</time>
      </trkpt>
      <trkpt lat="44.66191" lon="3.04239">
        <ele>1184.4</ele>
        <time>2015-09-18T15:31:19Z</time>
      </trkpt>
      <trkpt lat="44.66183" lon="3.04225">
        <ele>1184.5</ele>
        <time>2015-09-18T15:31:22Z</time>
      </trkpt>
      <trkpt lat="44.66177" lon="3.04215">
        <ele>1184.6</ele>
        <time>2015-09-18T15:31:24Z</time>
      </trkpt>
      <trkpt lat="44.66168" lon="3.04201">
        <ele>1184.6</ele>
        <time>2015-09-18T15:31:27Z</time>
      </trkpt>
      <trkpt lat="44.6616" lon="3.04188">
        <ele>1184.7</ele>
        <time>2015-09-18T15:31:30Z</time>
      </trkpt>
      <trkpt lat="44.66152" lon="3.04175">
        <ele>1184.7</ele>
        <time>2015-09-18T15:31:33Z</time>
      </trkpt>
      <trkpt lat="44.66144" lon="3.04164">
        <ele>1184.8</ele>
        <time>2015-09-18T15:31:36Z</time>
      </trkpt>
      <trkpt lat="44.66135" lon="3.04151">
        <ele>1184.8</ele>
        <time>2015-09-18T15:31:39Z</time>
      </trkpt>
      <trkpt lat="44.66126" lon="3.04138">
        <ele>1184.8</ele>
        <time>2015-09-18T15:31:42Z</time>
      </trkpt>
      <trkpt lat="44.66119" lon="3.04129">
        <ele>1184.9</ele>
        <time>2015-09-18T15:31:44Z</time>
      </trkpt>
      <trkpt lat="44.66112" lon="3.0412">
        <ele>1184.9</ele>
        <time>2015-09-18T15:31:46Z</time>
      </trkpt>
      <trkpt lat="44.66105" lon="3.0411">
        <ele>1184.9</ele>
        <time>2015-09-18T15:31:48Z</time>
      </trkpt>
      <trkpt lat="44.66098" lon="3.04101">
        <ele>1184.9</ele>
        <time>2015-09-18T15:31:50Z</time>
      </trkpt>
      <trkpt lat="44.66092" lon="3.04091">
        <ele>1184.9</ele>
        <time>2015-09-18T15:31:52Z</time>
      </trkpt>
      <trkpt lat="44.66085" lon="3.04082">
        <ele>1184.9</ele>
        <time>2015-09-18T15:31:54Z</time>
      </trkpt>
      <trkpt lat="44.66079" lon="3.04073">
        <ele>1184.9</ele>
        <time>2015-09-18T15:31:56Z</time>
      </trkpt>
      <trkpt lat="44.66069" lon="3.0406">
        <ele>1184.9</ele>
        <time>2015-09-18T15:31:59Z</time>
      </trkpt>
      <trkpt lat="44.66061" lon="3.04048">
        <ele>1184.9</ele>
        <time>2015-09-18T15:32:02Z</time>
      </trkpt>
      <trkpt lat="44.66052" lon="3.04036">
        <ele>1184.9</ele>
        <time>2015-09-18T15:32:05Z</time>
      </trkpt>
      <trkpt lat="44.66044" lon="3.04026">
        <ele>1185.1</ele>
        <time>2015-09-18T15:32:08Z</time>
      </trkpt>
      <trkpt lat="44.66037" lon="3.04016">
        <ele>1185.3</ele>
        <time>2015-09-18T15:32:11Z</time>
      </trkpt>
      <trkpt lat="44.6603" lon="3.04008">
        <ele>1185.6</ele>
        <time>2015-09-18T15:32:14Z</time>
      </trkpt>
      <trkpt lat="44.66021" lon="3.03999">
        <ele>1186</ele>
        <time>2015-09-18T15:32:18Z</time>
      </trkpt>
      <trkpt lat="44.66013" lon="3.03992">
        <ele>1188.4</ele>
        <time>2015-09-18T15:32:50Z</time>
      </trkpt>
      <trkpt lat="44.66005" lon="3.03985">
        <ele>1188.6</ele>
        <time>2015-09-18T15:32:55Z</time>
      </trkpt>
      <trkpt lat="44.65996" lon="3.0398">
        <ele>1188.8</ele>
        <time>2015-09-18T15:32:59Z</time>
      </trkpt>
      <trkpt lat="44.65985" lon="3.03975">
        <ele>1189</ele>
        <time>2015-09-18T15:33:03Z</time>
      </trkpt>
      <trkpt lat="44.65974" lon="3.03971">
        <ele>1189.2</ele>
        <time>2015-09-18T15:33:07Z</time>
      </trkpt>
      <trkpt lat="44.65962" lon="3.03967">
        <ele>1189.5</ele>
        <time>2015-09-18T15:33:11Z</time>
      </trkpt>
      <trkpt lat="44.65953" lon="3.03963">
        <ele>1189.7</ele>
        <time>2015-09-18T15:33:14Z</time>
      </trkpt>
      <trkpt lat="44.65942" lon="3.03958">
        <ele>1190</ele>
        <time>2015-09-18T15:33:18Z</time>
      </trkpt>
      <trkpt lat="44.65931" lon="3.03955">
        <ele>1190.5</ele>
        <time>2015-09-18T15:33:22Z</time>
      </trkpt>
      <trkpt lat="44.6592" lon="3.0395">
        <ele>1190.9</ele>
        <time>2015-09-18T15:33:26Z</time>
      </trkpt>
      <trkpt lat="44.65909" lon="3.03947">
        <ele>1191.4</ele>
        <time>2015-09-18T15:33:30Z</time>
      </trkpt>
      <trkpt lat="44.65898" lon="3.03942">
        <ele>1191.9</ele>
        <time>2015-09-18T15:33:34Z</time>
      </trkpt>
      <trkpt lat="44.65887" lon="3.03939">
        <ele>1192.4</ele>
        <time>2015-09-18T15:33:38Z</time>
      </trkpt>
      <trkpt lat="44.65876" lon="3.03935">
        <ele>1192.9</ele>
        <time>2015-09-18T15:33:42Z</time>
      </trkpt>
      <trkpt lat="44.65865" lon="3.03931">
        <ele>1193.4</ele>
        <time>2015-09-18T15:33:46Z</time>
      </trkpt>
      <trkpt lat="44.65854" lon="3.03927">
        <ele>1194</ele>
        <time>2015-09-18T15:33:50Z</time>
      </trkpt>
      <trkpt lat="44.65843" lon="3.03923">
        <ele>1194.6</ele>
        <time>2015-09-18T15:33:54Z</time>
      </trkpt>
      <trkpt lat="44.65833" lon="3.03919">
        <ele>1195.2</ele>
        <time>2015-09-18T15:33:58Z</time>
      </trkpt>
      <trkpt lat="44.65822" lon="3.03917">
        <ele>1195.8</ele>
        <time>2015-09-18T15:34:02Z</time>
      </trkpt>
      <trkpt lat="44.6581" lon="3.03917">
        <ele>1196.5</ele>
        <time>2015-09-18T15:34:06Z</time>
      </trkpt>
      <trkpt lat="44.65799" lon="3.03917">
        <ele>1197.3</ele>
        <time>2015-09-18T15:34:10Z</time>
      </trkpt>
      <trkpt lat="44.65787" lon="3.03918">
        <ele>1198</ele>
        <time>2015-09-18T15:34:14Z</time>
      </trkpt>
      <trkpt lat="44.65776" lon="3.0392">
        <ele>1198.5</ele>
        <time>2015-09-18T15:34:18Z</time>
      </trkpt>
      <trkpt lat="44.65765" lon="3.03921">
        <ele>1199</ele>
        <time>2015-09-18T15:34:22Z</time>
      </trkpt>
      <trkpt lat="44.65756" lon="3.03922">
        <ele>1199.5</ele>
        <time>2015-09-18T15:34:26Z</time>
      </trkpt>
      <trkpt lat="44.65746" lon="3.03924">
        <ele>1200.3</ele>
        <time>2015-09-18T15:34:32Z</time>
      </trkpt>
      <trkpt lat="44.65735" lon="3.03926">
        <ele>1200.9</ele>
        <time>2015-09-18T15:34:37Z</time>
      </trkpt>
      <trkpt lat="44.65726" lon="3.03927">
        <ele>1201.3</ele>
        <time>2015-09-18T15:34:41Z</time>
      </trkpt>
      <trkpt lat="44.65716" lon="3.03927">
        <ele>1201.8</ele>
        <time>2015-09-18T15:34:45Z</time>
      </trkpt>
      <trkpt lat="44.65706" lon="3.03928">
        <ele>1202.2</ele>
        <time>2015-09-18T15:34:49Z</time>
      </trkpt>
      <trkpt lat="44.65697" lon="3.03929">
        <ele>1202.7</ele>
        <time>2015-09-18T15:34:53Z</time>
      </trkpt>
      <trkpt lat="44.65687" lon="3.03928">
        <ele>1203.2</ele>
        <time>2015-09-18T15:34:57Z</time>
      </trkpt>
      <trkpt lat="44.65678" lon="3.03926">
        <ele>1203.6</ele>
        <time>2015-09-18T15:35:01Z</time>
      </trkpt>
      <trkpt lat="44.65669" lon="3.03924">
        <ele>1204</ele>
        <time>2015-09-18T15:35:05Z</time>
      </trkpt>
      <trkpt lat="44.6566" lon="3.0392">
        <ele>1204.4</ele>
        <time>2015-09-18T15:35:09Z</time>
      </trkpt>
      <trkpt lat="44.65651" lon="3.03917">
        <ele>1204.8</ele>
        <time>2015-09-18T15:35:13Z</time>
      </trkpt>
      <trkpt lat="44.65641" lon="3.03911">
        <ele>1205.2</ele>
        <time>2015-09-18T15:35:18Z</time>
      </trkpt>
      <trkpt lat="44.65631" lon="3.03904">
        <ele>1205.8</ele>
        <time>2015-09-18T15:35:23Z</time>
      </trkpt>
      <trkpt lat="44.65622" lon="3.03897">
        <ele>1206.4</ele>
        <time>2015-09-18T15:35:28Z</time>
      </trkpt>
      <trkpt lat="44.65612" lon="3.03889">
        <ele>1207</ele>
        <time>2015-09-18T15:35:33Z</time>
      </trkpt>
      <trkpt lat="44.65604" lon="3.03882">
        <ele>1207.8</ele>
        <time>2015-09-18T15:35:38Z</time>
      </trkpt>
      <trkpt lat="44.65595" lon="3.03873">
        <ele>1208.7</ele>
        <time>2015-09-18T15:35:43Z</time>
      </trkpt>
      <trkpt lat="44.65587" lon="3.03865">
        <ele>1209.4</ele>
        <time>2015-09-18T15:35:48Z</time>
      </trkpt>
      <trkpt lat="44.65579" lon="3.03857">
        <ele>1210.1</ele>
        <time>2015-09-18T15:35:53Z</time>
      </trkpt>
      <trkpt lat="44.6557" lon="3.03849">
        <ele>1210.7</ele>
        <time>2015-09-18T15:35:58Z</time>
      </trkpt>
      <trkpt lat="44.65562" lon="3.03842">
        <ele>1211.4</ele>
        <time>2015-09-18T15:36:03Z</time>
      </trkpt>
      <trkpt lat="44.65553" lon="3.03834">
        <ele>1212.1</ele>
        <time>2015-09-18T15:36:08Z</time>
      </trkpt>
      <trkpt lat="44.65545" lon="3.03826">
        <ele>1212.7</ele>
        <time>2015-09-18T15:36:13Z</time>
      </trkpt>
      <trkpt lat="44.65536" lon="3.03819">
        <ele>1213.2</ele>
        <time>2015-09-18T15:36:18Z</time>
      </trkpt>
      <trkpt lat="44.65528" lon="3.0381">
        <ele>1213.7</ele>
        <time>2015-09-18T15:36:23Z</time>
      </trkpt>
      <trkpt lat="44.6552" lon="3.03801">
        <ele>1214.1</ele>
        <time>2015-09-18T15:36:28Z</time>
      </trkpt>
      <trkpt lat="44.65514" lon="3.0379">
        <ele>1214.7</ele>
        <time>2015-09-18T15:36:33Z</time>
      </trkpt>
      <trkpt lat="44.65508" lon="3.03779">
        <ele>1215.2</ele>
        <time>2015-09-18T15:36:38Z</time>
      </trkpt>
      <trkpt lat="44.65502" lon="3.03767">
        <ele>1215.8</ele>
        <time>2015-09-18T15:36:43Z</time>
      </trkpt>
      <trkpt lat="44.65497" lon="3.03756">
        <ele>1216.3</ele>
        <time>2015-09-18T15:36:48Z</time>
      </trkpt>
      <trkpt lat="44.6549" lon="3.03744">
        <ele>1216.8</ele>
        <time>2015-09-18T15:36:53Z</time>
      </trkpt>
      <trkpt lat="44.65484" lon="3.03733">
        <ele>1217.3</ele>
        <time>2015-09-18T15:36:58Z</time>
      </trkpt>
      <trkpt lat="44.65477" lon="3.03722">
        <ele>1217.9</ele>
        <time>2015-09-18T15:37:03Z</time>
      </trkpt>
      <trkpt lat="44.6547" lon="3.03713">
        <ele>1218.4</ele>
        <time>2015-09-18T15:37:08Z</time>
      </trkpt>
      <trkpt lat="44.65463" lon="3.03704">
        <ele>1219.1</ele>
        <time>2015-09-18T15:37:13Z</time>
      </trkpt>
      <trkpt lat="44.65455" lon="3.03696">
        <ele>1219.8</ele>
        <time>2015-09-18T15:37:18Z</time>
      </trkpt>
      <trkpt lat="44.65447" lon="3.03687">
        <ele>1220.4</ele>
        <time>2015-09-18T15:37:23Z</time>
      </trkpt>
      <trkpt lat="44.65439" lon="3.03678">
        <ele>1221.1</ele>
        <time>2015-09-18T15:37:28Z</time>
      </trkpt>
      <trkpt lat="44.65432" lon="3.0367">
        <ele>1221.7</ele>
        <time>2015-09-18T15:37:33Z</time>
      </trkpt>
      <trkpt lat="44.65423" lon="3.03661">
        <ele>1222.3</ele>
        <time>2015-09-18T15:37:38Z</time>
      </trkpt>
      <trkpt lat="44.65415" lon="3.03652">
        <ele>1222.8</ele>
        <time>2015-09-18T15:37:43Z</time>
      </trkpt>
      <trkpt lat="44.65407" lon="3.03643">
        <ele>1223.4</ele>
        <time>2015-09-18T15:37:48Z</time>
      </trkpt>
      <trkpt lat="44.65399" lon="3.03633">
        <ele>1224.1</ele>
        <time>2015-09-18T15:37:53Z</time>
      </trkpt>
      <trkpt lat="44.65391" lon="3.03624">
        <ele>1224.9</ele>
        <time>2015-09-18T15:37:58Z</time>
      </trkpt>
      <trkpt lat="44.65383" lon="3.03614">
        <ele>1225.5</ele>
        <time>2015-09-18T15:38:03Z</time>
      </trkpt>
      <trkpt lat="44.65376" lon="3.03604">
        <ele>1226.1</ele>
        <time>2015-09-18T15:38:08Z</time>
      </trkpt>
      <trkpt lat="44.65369" lon="3.03594">
        <ele>1226.6</ele>
        <time>2015-09-18T15:38:13Z</time>
      </trkpt>
      <trkpt lat="44.65364" lon="3.03582">
        <ele>1227.2</ele>
        <time>2015-09-18T15:38:18Z</time>
      </trkpt>
      <trkpt lat="44.65358" lon="3.0357">
        <ele>1228</ele>
        <time>2015-09-18T15:38:25Z</time>
      </trkpt>
      <trkpt lat="44.65353" lon="3.03558">
        <ele>1228.7</ele>
        <time>2015-09-18T15:38:32Z</time>
      </trkpt>
      <trkpt lat="44.65348" lon="3.03547">
        <ele>1229.4</ele>
        <time>2015-09-18T15:38:39Z</time>
      </trkpt>
      <trkpt lat="44.65342" lon="3.03536">
        <ele>1230.1</ele>
        <time>2015-09-18T15:38:46Z</time>
      </trkpt>
      <trkpt lat="44.65336" lon="3.03525">
        <ele>1230.7</ele>
        <time>2015-09-18T15:38:52Z</time>
      </trkpt>
      <trkpt lat="44.6533" lon="3.03516">
        <ele>1231.2</ele>
        <time>2015-09-18T15:38:57Z</time>
      </trkpt>
      <trkpt lat="44.65323" lon="3.03507">
        <ele>1231.7</ele>
        <time>2015-09-18T15:39:02Z</time>
      </trkpt>
      <trkpt lat="44.65315" lon="3.03498">
        <ele>1232.3</ele>
        <time>2015-09-18T15:39:07Z</time>
      </trkpt>
      <trkpt lat="44.65308" lon="3.0349">
        <ele>1232.9</ele>
        <time>2015-09-18T15:39:12Z</time>
      </trkpt>
      <trkpt lat="44.65301" lon="3.03479">
        <ele>1233.4</ele>
        <time>2015-09-18T15:39:18Z</time>
      </trkpt>
      <trkpt lat="44.65294" lon="3.03467">
        <ele>1234.2</ele>
        <time>2015-09-18T15:39:24Z</time>
      </trkpt>
      <trkpt lat="44.65289" lon="3.03456">
        <ele>1234.6</ele>
        <time>2015-09-18T15:39:29Z</time>
      </trkpt>
      <trkpt lat="44.65285" lon="3.03443">
        <ele>1235.1</ele>
        <time>2015-09-18T15:39:34Z</time>
      </trkpt>
      <trkpt lat="44.65283" lon="3.0343">
        <ele>1235.7</ele>
        <time>2015-09-18T15:39:39Z</time>
      </trkpt>
      <trkpt lat="44.65282" lon="3.03415">
        <ele>1236.3</ele>
        <time>2015-09-18T15:39:45Z</time>
      </trkpt>
      <trkpt lat="44.65284" lon="3.034">
        <ele>1238.8</ele>
        <time>2015-09-18T15:41:12Z</time>
      </trkpt>
      <trkpt lat="44.65285" lon="3.03386">
        <ele>1238.9</ele>
        <time>2015-09-18T15:41:18Z</time>
      </trkpt>
      <trkpt lat="44.65286" lon="3.03373">
        <ele>1239</ele>
        <time>2015-09-18T15:41:23Z</time>
      </trkpt>
      <trkpt lat="44.65287" lon="3.03359">
        <ele>1239.2</ele>
        <time>2015-09-18T15:41:28Z</time>
      </trkpt>
      <trkpt lat="44.65289" lon="3.03346">
        <ele>1239.5</ele>
        <time>2015-09-18T15:41:33Z</time>
      </trkpt>
      <trkpt lat="44.6529" lon="3.03333">
        <ele>1240</ele>
        <time>2015-09-18T15:41:38Z</time>
      </trkpt>
      <trkpt lat="44.65291" lon="3.03319">
        <ele>1240.5</ele>
        <time>2015-09-18T15:41:44Z</time>
      </trkpt>
      <trkpt lat="44.65291" lon="3.03306">
        <ele>1241.1</ele>
        <time>2015-09-18T15:41:49Z</time>
      </trkpt>
      <trkpt lat="44.6529" lon="3.03292">
        <ele>1241.5</ele>
        <time>2015-09-18T15:41:54Z</time>
      </trkpt>
      <trkpt lat="44.65289" lon="3.03278">
        <ele>1242</ele>
        <time>2015-09-18T15:41:59Z</time>
      </trkpt>
      <trkpt lat="44.65287" lon="3.03264">
        <ele>1242.5</ele>
        <time>2015-09-18T15:42:04Z</time>
      </trkpt>
      <trkpt lat="44.65285" lon="3.0325">
        <ele>1243.1</ele>
        <time>2015-09-18T15:42:09Z</time>
      </trkpt>
      <trkpt lat="44.65282" lon="3.03236">
        <ele>1243.7</ele>
        <time>2015-09-18T15:42:14Z</time>
      </trkpt>
      <trkpt lat="44.65278" lon="3.03224">
        <ele>1244.3</ele>
        <time>2015-09-18T15:42:19Z</time>
      </trkpt>
      <trkpt lat="44.65273" lon="3.03211">
        <ele>1244.9</ele>
        <time>2015-09-18T15:42:24Z</time>
      </trkpt>
      <trkpt lat="44.65267" lon="3.03198">
        <ele>1245.4</ele>
        <time>2015-09-18T15:42:29Z</time>
      </trkpt>
      <trkpt lat="44.6526" lon="3.03186">
        <ele>1245.9</ele>
        <time>2015-09-18T15:42:34Z</time>
      </trkpt>
      <trkpt lat="44.65254" lon="3.03176">
        <ele>1246.4</ele>
        <time>2015-09-18T15:42:39Z</time>
      </trkpt>
      <trkpt lat="44.65247" lon="3.03165">
        <ele>1246.8</ele>
        <time>2015-09-18T15:42:44Z</time>
      </trkpt>
      <trkpt lat="44.6524" lon="3.03154">
        <ele>1247.3</ele>
        <time>2015-09-18T15:42:49Z</time>
      </trkpt>
      <trkpt lat="44.65234" lon="3.03143">
        <ele>1247.9</ele>
        <time>2015-09-18T15:42:54Z</time>
      </trkpt>
      <trkpt lat="44.65227" lon="3.03132">
        <ele>1248.5</ele>
        <time>2015-09-18T15:42:59Z</time>
      </trkpt>
      <trkpt lat="44.6522" lon="3.03121">
        <ele>1249</ele>
        <time>2015-09-18T15:43:04Z</time>
      </trkpt>
      <trkpt lat="44.65214" lon="3.03111">
        <ele>1249.5</ele>
        <time>2015-09-18T15:43:09Z</time>
      </trkpt>
      <trkpt lat="44.65208" lon="3.03099">
        <ele>1249.9</ele>
        <time>2015-09-18T15:43:14Z</time>
      </trkpt>
      <trkpt lat="44.65202" lon="3.03087">
        <ele>1250.4</ele>
        <time>2015-09-18T15:43:19Z</time>
      </trkpt>
      <trkpt lat="44.65197" lon="3.03075">
        <ele>1251</ele>
        <time>2015-09-18T15:43:24Z</time>
      </trkpt>
      <trkpt lat="44.65191" lon="3.03063">
        <ele>1251.5</ele>
        <time>2015-09-18T15:43:29Z</time>
      </trkpt>
      <trkpt lat="44.65185" lon="3.0305">
        <ele>1252.3</ele>
        <time>2015-09-18T15:43:34Z</time>
      </trkpt>
      <trkpt lat="44.65179" lon="3.03039">
        <ele>1253</ele>
        <time>2015-09-18T15:43:39Z</time>
      </trkpt>
      <trkpt lat="44.65174" lon="3.03027">
        <ele>1253.5</ele>
        <time>2015-09-18T15:43:44Z</time>
      </trkpt>
      <trkpt lat="44.65169" lon="3.03015">
        <ele>1254.1</ele>
        <time>2015-09-18T15:43:49Z</time>
      </trkpt>
      <trkpt lat="44.65163" lon="3.03004">
        <ele>1254.6</ele>
        <time>2015-09-18T15:43:54Z</time>
      </trkpt>
      <trkpt lat="44.65156" lon="3.02994">
        <ele>1255.3</ele>
        <time>2015-09-18T15:43:59Z</time>
      </trkpt>
      <trkpt lat="44.65148" lon="3.02986">
        <ele>1256</ele>
        <time>2015-09-18T15:44:06Z</time>
      </trkpt>
      <trkpt lat="44.65142" lon="3.02976">
        <ele>1256.5</ele>
        <time>2015-09-18T15:44:11Z</time>
      </trkpt>
      <trkpt lat="44.65134" lon="3.02967">
        <ele>1257</ele>
        <time>2015-09-18T15:44:18Z</time>
      </trkpt>
      <trkpt lat="44.65127" lon="3.02959">
        <ele>1257.4</ele>
        <time>2015-09-18T15:44:23Z</time>
      </trkpt>
      <trkpt lat="44.6512" lon="3.0295">
        <ele>1257.9</ele>
        <time>2015-09-18T15:44:28Z</time>
      </trkpt>
      <trkpt lat="44.65113" lon="3.0294">
        <ele>1258.3</ele>
        <time>2015-09-18T15:44:33Z</time>
      </trkpt>
      <trkpt lat="44.65106" lon="3.0293">
        <ele>1258.9</ele>
        <time>2015-09-18T15:44:38Z</time>
      </trkpt>
      <trkpt lat="44.651" lon="3.02919">
        <ele>1259.5</ele>
        <time>2015-09-18T15:44:43Z</time>
      </trkpt>
      <trkpt lat="44.65095" lon="3.02907">
        <ele>1260</ele>
        <time>2015-09-18T15:44:48Z</time>
      </trkpt>
      <trkpt lat="44.6509" lon="3.02894">
        <ele>1260.6</ele>
        <time>2015-09-18T15:44:53Z</time>
      </trkpt>
      <trkpt lat="44.65086" lon="3.02881">
        <ele>1261.1</ele>
        <time>2015-09-18T15:44:58Z</time>
      </trkpt>
      <trkpt lat="44.65083" lon="3.02868">
        <ele>1261.5</ele>
        <time>2015-09-18T15:45:03Z</time>
      </trkpt>
      <trkpt lat="44.6508" lon="3.02854">
        <ele>1262</ele>
        <time>2015-09-18T15:45:08Z</time>
      </trkpt>
      <trkpt lat="44.65077" lon="3.02841">
        <ele>1262.6</ele>
        <time>2015-09-18T15:45:13Z</time>
      </trkpt>
      <trkpt lat="44.65075" lon="3.02828">
        <ele>1263.2</ele>
        <time>2015-09-18T15:45:18Z</time>
      </trkpt>
      <trkpt lat="44.65073" lon="3.02815">
        <ele>1263.8</ele>
        <time>2015-09-18T15:45:23Z</time>
      </trkpt>
      <trkpt lat="44.65071" lon="3.02802">
        <ele>1264.3</ele>
        <time>2015-09-18T15:45:28Z</time>
      </trkpt>
      <trkpt lat="44.6507" lon="3.02788">
        <ele>1264.9</ele>
        <time>2015-09-18T15:45:33Z</time>
      </trkpt>
      <trkpt lat="44.65069" lon="3.02774">
        <ele>1265.4</ele>
        <time>2015-09-18T15:45:38Z</time>
      </trkpt>
      <trkpt lat="44.65069" lon="3.0276">
        <ele>1266</ele>
        <time>2015-09-18T15:45:43Z</time>
      </trkpt>
      <trkpt lat="44.6507" lon="3.02747">
        <ele>1266.4</ele>
        <time>2015-09-18T15:45:48Z</time>
      </trkpt>
      <trkpt lat="44.65071" lon="3.02733">
        <ele>1267</ele>
        <time>2015-09-18T15:45:53Z</time>
      </trkpt>
      <trkpt lat="44.65073" lon="3.02719">
        <ele>1267.5</ele>
        <time>2015-09-18T15:45:58Z</time>
      </trkpt>
      <trkpt lat="44.65075" lon="3.02705">
        <ele>1267.9</ele>
        <time>2015-09-18T15:46:03Z</time>
      </trkpt>
      <trkpt lat="44.65078" lon="3.02693">
        <ele>1268.3</ele>
        <time>2015-09-18T15:46:08Z</time>
      </trkpt>
      <trkpt lat="44.65082" lon="3.0268">
        <ele>1268.8</ele>
        <time>2015-09-18T15:46:13Z</time>
      </trkpt>
      <trkpt lat="44.65087" lon="3.02669">
        <ele>1269.2</ele>
        <time>2015-09-18T15:46:18Z</time>
      </trkpt>
      <trkpt lat="44.65092" lon="3.02656">
        <ele>1269.7</ele>
        <time>2015-09-18T15:46:23Z</time>
      </trkpt>
      <trkpt lat="44.65097" lon="3.02644">
        <ele>1270.2</ele>
        <time>2015-09-18T15:46:28Z</time>
      </trkpt>
      <trkpt lat="44.65102" lon="3.02631">
        <ele>1270.8</ele>
        <time>2015-09-18T15:46:33Z</time>
      </trkpt>
      <trkpt lat="44.65107" lon="3.02618">
        <ele>1271.3</ele>
        <time>2015-09-18T15:46:38Z</time>
      </trkpt>
      <trkpt lat="44.65111" lon="3.02605">
        <ele>1271.9</ele>
        <time>2015-09-18T15:46:43Z</time>
      </trkpt>
      <trkpt lat="44.65115" lon="3.02593">
        <ele>1272.3</ele>
        <time>2015-09-18T15:46:48Z</time>
      </trkpt>
      <trkpt lat="44.65119" lon="3.02581">
        <ele>1272.7</ele>
        <time>2015-09-18T15:46:53Z</time>
      </trkpt>
      <trkpt lat="44.65121" lon="3.02568">
        <ele>1273.1</ele>
        <time>2015-09-18T15:46:58Z</time>
      </trkpt>
      <trkpt lat="44.65124" lon="3.02554">
        <ele>1273.5</ele>
        <time>2015-09-18T15:47:03Z</time>
      </trkpt>
      <trkpt lat="44.65126" lon="3.02541">
        <ele>1274.3</ele>
        <time>2015-09-18T15:47:10Z</time>
      </trkpt>
      <trkpt lat="44.65128" lon="3.02527">
        <ele>1274.8</ele>
        <time>2015-09-18T15:47:16Z</time>
      </trkpt>
      <trkpt lat="44.65129" lon="3.02514">
        <ele>1275.3</ele>
        <time>2015-09-18T15:47:21Z</time>
      </trkpt>
      <trkpt lat="44.6513" lon="3.02501">
        <ele>1275.8</ele>
        <time>2015-09-18T15:47:26Z</time>
      </trkpt>
      <trkpt lat="44.65131" lon="3.02487">
        <ele>1276.3</ele>
        <time>2015-09-18T15:47:31Z</time>
      </trkpt>
      <trkpt lat="44.65133" lon="3.02473">
        <ele>1276.8</ele>
        <time>2015-09-18T15:47:36Z</time>
      </trkpt>
      <trkpt lat="44.65133" lon="3.02459">
        <ele>1277.2</ele>
        <time>2015-09-18T15:47:41Z</time>
      </trkpt>
      <trkpt lat="44.65134" lon="3.02445">
        <ele>1277.6</ele>
        <time>2015-09-18T15:47:46Z</time>
      </trkpt>
      <trkpt lat="44.65134" lon="3.02431">
        <ele>1278.1</ele>
        <time>2015-09-18T15:47:51Z</time>
      </trkpt>
      <trkpt lat="44.65132" lon="3.02416">
        <ele>1278.5</ele>
        <time>2015-09-18T15:47:56Z</time>
      </trkpt>
      <trkpt lat="44.65131" lon="3.02402">
        <ele>1278.8</ele>
        <time>2015-09-18T15:48:01Z</time>
      </trkpt>
      <trkpt lat="44.65128" lon="3.02388">
        <ele>1279</ele>
        <time>2015-09-18T15:48:06Z</time>
      </trkpt>
      <trkpt lat="44.65124" lon="3.02374">
        <ele>1279.3</ele>
        <time>2015-09-18T15:48:11Z</time>
      </trkpt>
      <trkpt lat="44.65118" lon="3.02362">
        <ele>1279.6</ele>
        <time>2015-09-18T15:48:16Z</time>
      </trkpt>
      <trkpt lat="44.65112" lon="3.0235">
        <ele>1279.8</ele>
        <time>2015-09-18T15:48:21Z</time>
      </trkpt>
      <trkpt lat="44.65106" lon="3.02339">
        <ele>1280.1</ele>
        <time>2015-09-18T15:48:26Z</time>
      </trkpt>
      <trkpt lat="44.65099" lon="3.02329">
        <ele>1280.3</ele>
        <time>2015-09-18T15:48:31Z</time>
      </trkpt>
      <trkpt lat="44.65091" lon="3.02319">
        <ele>1280.6</ele>
        <time>2015-09-18T15:48:36Z</time>
      </trkpt>
      <trkpt lat="44.65082" lon="3.0231">
        <ele>1280.8</ele>
        <time>2015-09-18T15:48:41Z</time>
      </trkpt>
      <trkpt lat="44.65074" lon="3.02301">
        <ele>1281.2</ele>
        <time>2015-09-18T15:48:46Z</time>
      </trkpt>
      <trkpt lat="44.65066" lon="3.02295">
        <ele>1281.6</ele>
        <time>2015-09-18T15:48:51Z</time>
      </trkpt>
      <trkpt lat="44.65057" lon="3.02288">
        <ele>1282.2</ele>
        <time>2015-09-18T15:48:56Z</time>
      </trkpt>
      <trkpt lat="44.65049" lon="3.02282">
        <ele>1282.8</ele>
        <time>2015-09-18T15:49:01Z</time>
      </trkpt>
      <trkpt lat="44.6504" lon="3.02275">
        <ele>1283.2</ele>
        <time>2015-09-18T15:49:06Z</time>
      </trkpt>
      <trkpt lat="44.65032" lon="3.02268">
        <ele>1283.5</ele>
        <time>2015-09-18T15:49:11Z</time>
      </trkpt>
      <trkpt lat="44.65023" lon="3.02261">
        <ele>1283.8</ele>
        <time>2015-09-18T15:49:16Z</time>
      </trkpt>
      <trkpt lat="44.65015" lon="3.02254">
        <ele>1284.2</ele>
        <time>2015-09-18T15:49:21Z</time>
      </trkpt>
      <trkpt lat="44.65006" lon="3.02247">
        <ele>1284.5</ele>
        <time>2015-09-18T15:49:26Z</time>
      </trkpt>
      <trkpt lat="44.64997" lon="3.02241">
        <ele>1284.9</ele>
        <time>2015-09-18T15:49:31Z</time>
      </trkpt>
      <trkpt lat="44.64988" lon="3.02235">
        <ele>1285.4</ele>
        <time>2015-09-18T15:49:36Z</time>
      </trkpt>
      <trkpt lat="44.64979" lon="3.02229">
        <ele>1285.8</ele>
        <time>2015-09-18T15:49:41Z</time>
      </trkpt>
      <trkpt lat="44.64971" lon="3.02223">
        <ele>1286.3</ele>
        <time>2015-09-18T15:49:46Z</time>
      </trkpt>
      <trkpt lat="44.64962" lon="3.02216">
        <ele>1286.9</ele>
        <time>2015-09-18T15:49:51Z</time>
      </trkpt>
      <trkpt lat="44.64954" lon="3.0221">
        <ele>1287.4</ele>
        <time>2015-09-18T15:49:56Z</time>
      </trkpt>
      <trkpt lat="44.64945" lon="3.02203">
        <ele>1287.9</ele>
        <time>2015-09-18T15:50:01Z</time>
      </trkpt>
      <trkpt lat="44.64937" lon="3.02196">
        <ele>1288.3</ele>
        <time>2015-09-18T15:50:06Z</time>
      </trkpt>
      <trkpt lat="44.64929" lon="3.02189">
        <ele>1288.7</ele>
        <time>2015-09-18T15:50:11Z</time>
      </trkpt>
      <trkpt lat="44.64921" lon="3.02181">
        <ele>1289.3</ele>
        <time>2015-09-18T15:50:16Z</time>
      </trkpt>
      <trkpt lat="44.64915" lon="3.02171">
        <ele>1289.8</ele>
        <time>2015-09-18T15:50:21Z</time>
      </trkpt>
      <trkpt lat="44.64909" lon="3.0216">
        <ele>1290.3</ele>
        <time>2015-09-18T15:50:26Z</time>
      </trkpt>
      <trkpt lat="44.64903" lon="3.0215">
        <ele>1290.8</ele>
        <time>2015-09-18T15:50:31Z</time>
      </trkpt>
      <trkpt lat="44.64898" lon="3.02136">
        <ele>1291.4</ele>
        <time>2015-09-18T15:50:37Z</time>
      </trkpt>
      <trkpt lat="44.64894" lon="3.02123">
        <ele>1292</ele>
        <time>2015-09-18T15:50:43Z</time>
      </trkpt>
      <trkpt lat="44.64891" lon="3.0211">
        <ele>1292.7</ele>
        <time>2015-09-18T15:50:50Z</time>
      </trkpt>
      <trkpt lat="44.64888" lon="3.02097">
        <ele>1293.4</ele>
        <time>2015-09-18T15:50:56Z</time>
      </trkpt>
      <trkpt lat="44.64883" lon="3.02086">
        <ele>1295.3</ele>
        <time>2015-09-18T15:54:33Z</time>
      </trkpt>
      <trkpt lat="44.6488" lon="3.02072">
        <ele>1295.4</ele>
        <time>2015-09-18T15:54:38Z</time>
      </trkpt>
      <trkpt lat="44.64878" lon="3.02057">
        <ele>1295.5</ele>
        <time>2015-09-18T15:54:43Z</time>
      </trkpt>
      <trkpt lat="44.64875" lon="3.02042">
        <ele>1295.8</ele>
        <time>2015-09-18T15:54:48Z</time>
      </trkpt>
      <trkpt lat="44.64873" lon="3.0203">
        <ele>1296.1</ele>
        <time>2015-09-18T15:54:53Z</time>
      </trkpt>
      <trkpt lat="44.6487" lon="3.02017">
        <ele>1296.6</ele>
        <time>2015-09-18T15:54:58Z</time>
      </trkpt>
      <trkpt lat="44.64867" lon="3.02004">
        <ele>1297.1</ele>
        <time>2015-09-18T15:55:03Z</time>
      </trkpt>
      <trkpt lat="44.64864" lon="3.0199">
        <ele>1297.6</ele>
        <time>2015-09-18T15:55:08Z</time>
      </trkpt>
      <trkpt lat="44.64861" lon="3.01976">
        <ele>1298.1</ele>
        <time>2015-09-18T15:55:13Z</time>
      </trkpt>
      <trkpt lat="44.64859" lon="3.01962">
        <ele>1298.8</ele>
        <time>2015-09-18T15:55:18Z</time>
      </trkpt>
      <trkpt lat="44.64858" lon="3.01948">
        <ele>1299.3</ele>
        <time>2015-09-18T15:55:23Z</time>
      </trkpt>
      <trkpt lat="44.64857" lon="3.01934">
        <ele>1299.9</ele>
        <time>2015-09-18T15:55:28Z</time>
      </trkpt>
      <trkpt lat="44.64858" lon="3.0192">
        <ele>1300.4</ele>
        <time>2015-09-18T15:55:33Z</time>
      </trkpt>
      <trkpt lat="44.64858" lon="3.01906">
        <ele>1300.8</ele>
        <time>2015-09-18T15:55:38Z</time>
      </trkpt>
      <trkpt lat="44.64859" lon="3.01892">
        <ele>1301.3</ele>
        <time>2015-09-18T15:55:43Z</time>
      </trkpt>
      <trkpt lat="44.64859" lon="3.01877">
        <ele>1301.8</ele>
        <time>2015-09-18T15:55:48Z</time>
      </trkpt>
      <trkpt lat="44.64859" lon="3.01863">
        <ele>1302.3</ele>
        <time>2015-09-18T15:55:53Z</time>
      </trkpt>
      <trkpt lat="44.6486" lon="3.0185">
        <ele>1302.8</ele>
        <time>2015-09-18T15:55:58Z</time>
      </trkpt>
      <trkpt lat="44.6486" lon="3.01835">
        <ele>1303.2</ele>
        <time>2015-09-18T15:56:03Z</time>
      </trkpt>
      <trkpt lat="44.6486" lon="3.0182">
        <ele>1303.6</ele>
        <time>2015-09-18T15:56:08Z</time>
      </trkpt>
      <trkpt lat="44.64859" lon="3.01805">
        <ele>1304.1</ele>
        <time>2015-09-18T15:56:13Z</time>
      </trkpt>
      <trkpt lat="44.64857" lon="3.01791">
        <ele>1304.6</ele>
        <time>2015-09-18T15:56:18Z</time>
      </trkpt>
      <trkpt lat="44.64854" lon="3.01778">
        <ele>1305</ele>
        <time>2015-09-18T15:56:22Z</time>
      </trkpt>
      <trkpt lat="44.64849" lon="3.01765">
        <ele>1305.4</ele>
        <time>2015-09-18T15:56:26Z</time>
      </trkpt>
      <trkpt lat="44.64844" lon="3.01754">
        <ele>1305.6</ele>
        <time>2015-09-18T15:56:29Z</time>
      </trkpt>
      <trkpt lat="44.64838" lon="3.01742">
        <ele>1305.7</ele>
        <time>2015-09-18T15:56:32Z</time>
      </trkpt>
      <trkpt lat="44.64832" lon="3.01731">
        <ele>1305.8</ele>
        <time>2015-09-18T15:56:35Z</time>
      </trkpt>
      <trkpt lat="44.64824" lon="3.01721">
        <ele>1305.9</ele>
        <time>2015-09-18T15:56:38Z</time>
      </trkpt>
      <trkpt lat="44.64817" lon="3.0171">
        <ele>1306.1</ele>
        <time>2015-09-18T15:56:42Z</time>
      </trkpt>
      <trkpt lat="44.6481" lon="3.01701">
        <ele>1306.1</ele>
        <time>2015-09-18T15:56:45Z</time>
      </trkpt>
      <trkpt lat="44.64803" lon="3.01691">
        <ele>1306.2</ele>
        <time>2015-09-18T15:56:48Z</time>
      </trkpt>
      <trkpt lat="44.64796" lon="3.01681">
        <ele>1306.2</ele>
        <time>2015-09-18T15:56:51Z</time>
      </trkpt>
      <trkpt lat="44.6479" lon="3.01672">
        <ele>1306.3</ele>
        <time>2015-09-18T15:56:54Z</time>
      </trkpt>
      <trkpt lat="44.64784" lon="3.01662">
        <ele>1306.3</ele>
        <time>2015-09-18T15:56:57Z</time>
      </trkpt>
      <trkpt lat="44.64777" lon="3.0165">
        <ele>1306.3</ele>
        <time>2015-09-18T15:57:00Z</time>
      </trkpt>
      <trkpt lat="44.6477" lon="3.01638">
        <ele>1306.3</ele>
        <time>2015-09-18T15:57:03Z</time>
      </trkpt>
      <trkpt lat="44.64761" lon="3.01623">
        <ele>1306.2</ele>
        <time>2015-09-18T15:57:06Z</time>
      </trkpt>
      <trkpt lat="44.64754" lon="3.01614">
        <ele>1306.1</ele>
        <time>2015-09-18T15:57:08Z</time>
      </trkpt>
      <trkpt lat="44.64747" lon="3.01604">
        <ele>1306</ele>
        <time>2015-09-18T15:57:10Z</time>
      </trkpt>
      <trkpt lat="44.64738" lon="3.01595">
        <ele>1305.8</ele>
        <time>2015-09-18T15:57:12Z</time>
      </trkpt>
      <trkpt lat="44.6473" lon="3.01585">
        <ele>1305.6</ele>
        <time>2015-09-18T15:57:14Z</time>
      </trkpt>
      <trkpt lat="44.64721" lon="3.01575">
        <ele>1305.4</ele>
        <time>2015-09-18T15:57:16Z</time>
      </trkpt>
      <trkpt lat="44.64711" lon="3.01566">
        <ele>1305.2</ele>
        <time>2015-09-18T15:57:18Z</time>
      </trkpt>
      <trkpt lat="44.64701" lon="3.01556">
        <ele>1304.9</ele>
        <time>2015-09-18T15:57:20Z</time>
      </trkpt>
      <trkpt lat="44.64692" lon="3.01546">
        <ele>1304.6</ele>
        <time>2015-09-18T15:57:22Z</time>
      </trkpt>
      <trkpt lat="44.64682" lon="3.01537">
        <ele>1304.3</ele>
        <time>2015-09-18T15:57:24Z</time>
      </trkpt>
      <trkpt lat="44.64673" lon="3.01528">
        <ele>1304</ele>
        <time>2015-09-18T15:57:26Z</time>
      </trkpt>
      <trkpt lat="44.64665" lon="3.0152">
        <ele>1303.6</ele>
        <time>2015-09-18T15:57:28Z</time>
      </trkpt>
      <trkpt lat="44.64657" lon="3.01512">
        <ele>1303.3</ele>
        <time>2015-09-18T15:57:30Z</time>
      </trkpt>
      <trkpt lat="44.64646" lon="3.01501">
        <ele>1302.9</ele>
        <time>2015-09-18T15:57:33Z</time>
      </trkpt>
      <trkpt lat="44.64639" lon="3.01493">
        <ele>1302.7</ele>
        <time>2015-09-18T15:57:35Z</time>
      </trkpt>
      <trkpt lat="44.64632" lon="3.01486">
        <ele>1302.5</ele>
        <time>2015-09-18T15:57:37Z</time>
      </trkpt>
      <trkpt lat="44.64621" lon="3.01475">
        <ele>1302.3</ele>
        <time>2015-09-18T15:57:40Z</time>
      </trkpt>
      <trkpt lat="44.64611" lon="3.01464">
        <ele>1302</ele>
        <time>2015-09-18T15:57:43Z</time>
      </trkpt>
      <trkpt lat="44.64601" lon="3.01453">
        <ele>1301.8</ele>
        <time>2015-09-18T15:57:46Z</time>
      </trkpt>
      <trkpt lat="44.64592" lon="3.01444">
        <ele>1301.6</ele>
        <time>2015-09-18T15:57:49Z</time>
      </trkpt>
      <trkpt lat="44.64585" lon="3.01435">
        <ele>1301.3</ele>
        <time>2015-09-18T15:57:53Z</time>
      </trkpt>
      <trkpt lat="44.64576" lon="3.01428">
        <ele>1300.4</ele>
        <time>2015-09-18T16:10:23Z</time>
      </trkpt>
      <trkpt lat="44.64567" lon="3.01418">
        <ele>1300.4</ele>
        <time>2015-09-18T16:10:26Z</time>
      </trkpt>
      <trkpt lat="44.6456" lon="3.0141">
        <ele>1300.4</ele>
        <time>2015-09-18T16:10:28Z</time>
      </trkpt>
      <trkpt lat="44.64552" lon="3.01401">
        <ele>1300.3</ele>
        <time>2015-09-18T16:10:30Z</time>
      </trkpt>
      <trkpt lat="44.64545" lon="3.01392">
        <ele>1300.3</ele>
        <time>2015-09-18T16:10:32Z</time>
      </trkpt>
      <trkpt lat="44.64537" lon="3.01384">
        <ele>1300.3</ele>
        <time>2015-09-18T16:10:34Z</time>
      </trkpt>
      <trkpt lat="44.64527" lon="3.01372">
        <ele>1300.3</ele>
        <time>2015-09-18T16:10:37Z</time>
      </trkpt>
      <trkpt lat="44.64517" lon="3.01361">
        <ele>1300.3</ele>
        <time>2015-09-18T16:10:40Z</time>
      </trkpt>
      <trkpt lat="44.64509" lon="3.01353">
        <ele>1300.3</ele>
        <time>2015-09-18T16:10:42Z</time>
      </trkpt>
      <trkpt lat="44.64502" lon="3.01344">
        <ele>1300.2</ele>
        <time>2015-09-18T16:10:44Z</time>
      </trkpt>
      <trkpt lat="44.64494" lon="3.01335">
        <ele>1300.2</ele>
        <time>2015-09-18T16:10:46Z</time>
      </trkpt>
      <trkpt lat="44.64486" lon="3.01327">
        <ele>1300.2</ele>
        <time>2015-09-18T16:10:48Z</time>
      </trkpt>
      <trkpt lat="44.64479" lon="3.01319">
        <ele>1300.2</ele>
        <time>2015-09-18T16:10:50Z</time>
      </trkpt>
      <trkpt lat="44.64469" lon="3.01308">
        <ele>1300.1</ele>
        <time>2015-09-18T16:10:53Z</time>
      </trkpt>
      <trkpt lat="44.64461" lon="3.013">
        <ele>1300.1</ele>
        <time>2015-09-18T16:10:55Z</time>
      </trkpt>
      <trkpt lat="44.64454" lon="3.01292">
        <ele>1300</ele>
        <time>2015-09-18T16:10:57Z</time>
      </trkpt>
      <trkpt lat="44.64446" lon="3.01285">
        <ele>1300</ele>
        <time>2015-09-18T16:10:59Z</time>
      </trkpt>
      <trkpt lat="44.64438" lon="3.01277">
        <ele>1300</ele>
        <time>2015-09-18T16:11:01Z</time>
      </trkpt>
      <trkpt lat="44.6443" lon="3.01268">
        <ele>1300</ele>
        <time>2015-09-18T16:11:03Z</time>
      </trkpt>
      <trkpt lat="44.64423" lon="3.0126">
        <ele>1299.9</ele>
        <time>2015-09-18T16:11:05Z</time>
      </trkpt>
      <trkpt lat="44.64415" lon="3.01252">
        <ele>1299.9</ele>
        <time>2015-09-18T16:11:07Z</time>
      </trkpt>
      <trkpt lat="44.64407" lon="3.01244">
        <ele>1299.9</ele>
        <time>2015-09-18T16:11:09Z</time>
      </trkpt>
      <trkpt lat="44.64399" lon="3.01236">
        <ele>1299.9</ele>
        <time>2015-09-18T16:11:11Z</time>
      </trkpt>
      <trkpt lat="44.6439" lon="3.01228">
        <ele>1299.9</ele>
        <time>2015-09-18T16:11:13Z</time>
      </trkpt>
      <trkpt lat="44.64382" lon="3.01219">
        <ele>1299.9</ele>
        <time>2015-09-18T16:11:15Z</time>
      </trkpt>
      <trkpt lat="44.64373" lon="3.01211">
        <ele>1299.9</ele>
        <time>2015-09-18T16:11:17Z</time>
      </trkpt>
      <trkpt lat="44.64365" lon="3.01203">
        <ele>1299.9</ele>
        <time>2015-09-18T16:11:19Z</time>
      </trkpt>
      <trkpt lat="44.64357" lon="3.01195">
        <ele>1299.8</ele>
        <time>2015-09-18T16:11:21Z</time>
      </trkpt>
      <trkpt lat="44.64349" lon="3.01187">
        <ele>1299.8</ele>
        <time>2015-09-18T16:11:23Z</time>
      </trkpt>
      <trkpt lat="44.64342" lon="3.01179">
        <ele>1299.8</ele>
        <time>2015-09-18T16:11:25Z</time>
      </trkpt>
      <trkpt lat="44.64335" lon="3.0117">
        <ele>1299.8</ele>
        <time>2015-09-18T16:11:27Z</time>
      </trkpt>
      <trkpt lat="44.64328" lon="3.01162">
        <ele>1299.8</ele>
        <time>2015-09-18T16:11:29Z</time>
      </trkpt>
      <trkpt lat="44.64321" lon="3.01153">
        <ele>1299.8</ele>
        <time>2015-09-18T16:11:31Z</time>
      </trkpt>
      <trkpt lat="44.64314" lon="3.01145">
        <ele>1299.8</ele>
        <time>2015-09-18T16:11:33Z</time>
      </trkpt>
      <trkpt lat="44.64307" lon="3.01136">
        <ele>1299.8</ele>
        <time>2015-09-18T16:11:35Z</time>
      </trkpt>
      <trkpt lat="44.643" lon="3.01128">
        <ele>1299.8</ele>
        <time>2015-09-18T16:11:37Z</time>
      </trkpt>
      <trkpt lat="44.64293" lon="3.0112">
        <ele>1299.8</ele>
        <time>2015-09-18T16:11:39Z</time>
      </trkpt>
      <trkpt lat="44.64286" lon="3.01112">
        <ele>1299.8</ele>
        <time>2015-09-18T16:11:41Z</time>
      </trkpt>
      <trkpt lat="44.64278" lon="3.01104">
        <ele>1299.7</ele>
        <time>2015-09-18T16:11:43Z</time>
      </trkpt>
      <trkpt lat="44.64271" lon="3.01096">
        <ele>1299.7</ele>
        <time>2015-09-18T16:11:45Z</time>
      </trkpt>
      <trkpt lat="44.64264" lon="3.01088">
        <ele>1299.7</ele>
        <time>2015-09-18T16:11:47Z</time>
      </trkpt>
      <trkpt lat="44.64256" lon="3.01081">
        <ele>1299.7</ele>
        <time>2015-09-18T16:11:49Z</time>
      </trkpt>
      <trkpt lat="44.64249" lon="3.01073">
        <ele>1299.7</ele>
        <time>2015-09-18T16:11:51Z</time>
      </trkpt>
      <trkpt lat="44.64242" lon="3.01066">
        <ele>1299.7</ele>
        <time>2015-09-18T16:11:53Z</time>
      </trkpt>
      <trkpt lat="44.64235" lon="3.01057">
        <ele>1299.7</ele>
        <time>2015-09-18T16:11:55Z</time>
      </trkpt>
      <trkpt lat="44.64228" lon="3.0105">
        <ele>1299.7</ele>
        <time>2015-09-18T16:11:57Z</time>
      </trkpt>
      <trkpt lat="44.64218" lon="3.0104">
        <ele>1299.7</ele>
        <time>2015-09-18T16:12:00Z</time>
      </trkpt>
      <trkpt lat="44.64211" lon="3.01031">
        <ele>1299.6</ele>
        <time>2015-09-18T16:12:03Z</time>
      </trkpt>
      <trkpt lat="44.64203" lon="3.01023">
        <ele>1299.6</ele>
        <time>2015-09-18T16:12:07Z</time>
      </trkpt>
      <trkpt lat="44.64194" lon="3.01013">
        <ele>1299.6</ele>
        <time>2015-09-18T16:12:12Z</time>
      </trkpt>
      <trkpt lat="44.64186" lon="3.01004">
        <ele>1299.7</ele>
        <time>2015-09-18T16:12:16Z</time>
      </trkpt>
      <trkpt lat="44.64179" lon="3.00997">
        <ele>1299.8</ele>
        <time>2015-09-18T16:12:19Z</time>
      </trkpt>
      <trkpt lat="44.64169" lon="3.0099">
        <ele>1299.9</ele>
        <time>2015-09-18T16:12:23Z</time>
      </trkpt>
      <trkpt lat="44.6416" lon="3.00985">
        <ele>1300</ele>
        <time>2015-09-18T16:12:28Z</time>
      </trkpt>
      <trkpt lat="44.6415" lon="3.00983">
        <ele>1300</ele>
        <time>2015-09-18T16:12:31Z</time>
      </trkpt>
      <trkpt lat="44.64136" lon="3.0098">
        <ele>1300.1</ele>
        <time>2015-09-18T16:12:34Z</time>
      </trkpt>
      <trkpt lat="44.64127" lon="3.00979">
        <ele>1300.1</ele>
        <time>2015-09-18T16:12:36Z</time>
      </trkpt>
      <trkpt lat="44.64114" lon="3.00978">
        <ele>1300.2</ele>
        <time>2015-09-18T16:12:39Z</time>
      </trkpt>
      <trkpt lat="44.64101" lon="3.00976">
        <ele>1300.3</ele>
        <time>2015-09-18T16:12:42Z</time>
      </trkpt>
      <trkpt lat="44.64088" lon="3.00973">
        <ele>1300.5</ele>
        <time>2015-09-18T16:12:45Z</time>
      </trkpt>
      <trkpt lat="44.64075" lon="3.00969">
        <ele>1300.6</ele>
        <time>2015-09-18T16:12:48Z</time>
      </trkpt>
      <trkpt lat="44.64062" lon="3.00965">
        <ele>1300.8</ele>
        <time>2015-09-18T16:12:51Z</time>
      </trkpt>
      <trkpt lat="44.64048" lon="3.00961">
        <ele>1300.9</ele>
        <time>2015-09-18T16:12:54Z</time>
      </trkpt>
      <trkpt lat="44.64039" lon="3.00959">
        <ele>1301</ele>
        <time>2015-09-18T16:12:56Z</time>
      </trkpt>
      <trkpt lat="44.6403" lon="3.00957">
        <ele>1301.1</ele>
        <time>2015-09-18T16:12:58Z</time>
      </trkpt>
      <trkpt lat="44.64021" lon="3.00956">
        <ele>1301.2</ele>
        <time>2015-09-18T16:13:00Z</time>
      </trkpt>
      <trkpt lat="44.64012" lon="3.00954">
        <ele>1301.3</ele>
        <time>2015-09-18T16:13:02Z</time>
      </trkpt>
      <trkpt lat="44.64002" lon="3.00953">
        <ele>1301.4</ele>
        <time>2015-09-18T16:13:04Z</time>
      </trkpt>
      <trkpt lat="44.63992" lon="3.00952">
        <ele>1301.5</ele>
        <time>2015-09-18T16:13:06Z</time>
      </trkpt>
      <trkpt lat="44.63982" lon="3.00951">
        <ele>1301.6</ele>
        <time>2015-09-18T16:13:08Z</time>
      </trkpt>
      <trkpt lat="44.63973" lon="3.0095">
        <ele>1301.7</ele>
        <time>2015-09-18T16:13:10Z</time>
      </trkpt>
      <trkpt lat="44.6396" lon="3.00948">
        <ele>1301.9</ele>
        <time>2015-09-18T16:13:13Z</time>
      </trkpt>
      <trkpt lat="44.63947" lon="3.00946">
        <ele>1302.1</ele>
        <time>2015-09-18T16:13:16Z</time>
      </trkpt>
      <trkpt lat="44.63934" lon="3.00943">
        <ele>1302.3</ele>
        <time>2015-09-18T16:13:19Z</time>
      </trkpt>
      <trkpt lat="44.63925" lon="3.00939">
        <ele>1302.4</ele>
        <time>2015-09-18T16:13:21Z</time>
      </trkpt>
      <trkpt lat="44.63916" lon="3.00934">
        <ele>1302.5</ele>
        <time>2015-09-18T16:13:23Z</time>
      </trkpt>
      <trkpt lat="44.63908" lon="3.00928">
        <ele>1302.6</ele>
        <time>2015-09-18T16:13:25Z</time>
      </trkpt>
      <trkpt lat="44.63898" lon="3.00917">
        <ele>1302.7</ele>
        <time>2015-09-18T16:13:28Z</time>
      </trkpt>
      <trkpt lat="44.63889" lon="3.00904">
        <ele>1302.8</ele>
        <time>2015-09-18T16:13:31Z</time>
      </trkpt>
      <trkpt lat="44.63881" lon="3.00891">
        <ele>1303</ele>
        <time>2015-09-18T16:13:34Z</time>
      </trkpt>
      <trkpt lat="44.63874" lon="3.00878">
        <ele>1303.2</ele>
        <time>2015-09-18T16:13:37Z</time>
      </trkpt>
      <trkpt lat="44.63867" lon="3.00866">
        <ele>1303.3</ele>
        <time>2015-09-18T16:13:40Z</time>
      </trkpt>
      <trkpt lat="44.63859" lon="3.00853">
        <ele>1303.5</ele>
        <time>2015-09-18T16:13:43Z</time>
      </trkpt>
      <trkpt lat="44.63852" lon="3.00842">
        <ele>1303.7</ele>
        <time>2015-09-18T16:13:46Z</time>
      </trkpt>
      <trkpt lat="44.63845" lon="3.00831">
        <ele>1303.9</ele>
        <time>2015-09-18T16:13:49Z</time>
      </trkpt>
      <trkpt lat="44.63838" lon="3.0082">
        <ele>1304.2</ele>
        <time>2015-09-18T16:13:52Z</time>
      </trkpt>
      <trkpt lat="44.63831" lon="3.00809">
        <ele>1304.5</ele>
        <time>2015-09-18T16:13:55Z</time>
      </trkpt>
      <trkpt lat="44.63823" lon="3.00799">
        <ele>1304.8</ele>
        <time>2015-09-18T16:13:58Z</time>
      </trkpt>
      <trkpt lat="44.63816" lon="3.0079">
        <ele>1305.1</ele>
        <time>2015-09-18T16:14:01Z</time>
      </trkpt>
      <trkpt lat="44.63809" lon="3.00781">
        <ele>1305.5</ele>
        <time>2015-09-18T16:14:04Z</time>
      </trkpt>
      <trkpt lat="44.63801" lon="3.00772">
        <ele>1305.7</ele>
        <time>2015-09-18T16:14:07Z</time>
      </trkpt>
      <trkpt lat="44.63794" lon="3.00764">
        <ele>1306.1</ele>
        <time>2015-09-18T16:14:10Z</time>
      </trkpt>
      <trkpt lat="44.63786" lon="3.00753">
        <ele>1306.5</ele>
        <time>2015-09-18T16:14:14Z</time>
      </trkpt>
      <trkpt lat="44.63779" lon="3.00744">
        <ele>1306.7</ele>
        <time>2015-09-18T16:14:17Z</time>
      </trkpt>
      <trkpt lat="44.63771" lon="3.00733">
        <ele>1307.1</ele>
        <time>2015-09-18T16:14:21Z</time>
      </trkpt>
      <trkpt lat="44.63762" lon="3.00722">
        <ele>1307.6</ele>
        <time>2015-09-18T16:14:25Z</time>
      </trkpt>
      <trkpt lat="44.63754" lon="3.00714">
        <ele>1308</ele>
        <time>2015-09-18T16:14:28Z</time>
      </trkpt>
      <trkpt lat="44.63747" lon="3.00705">
        <ele>1308.2</ele>
        <time>2015-09-18T16:14:31Z</time>
      </trkpt>
      <trkpt lat="44.63738" lon="3.00695">
        <ele>1308.7</ele>
        <time>2015-09-18T16:14:35Z</time>
      </trkpt>
      <trkpt lat="44.63728" lon="3.00685">
        <ele>1309.2</ele>
        <time>2015-09-18T16:14:39Z</time>
      </trkpt>
      <trkpt lat="44.63719" lon="3.00677">
        <ele>1309.6</ele>
        <time>2015-09-18T16:14:43Z</time>
      </trkpt>
      <trkpt lat="44.63711" lon="3.0067">
        <ele>1310.1</ele>
        <time>2015-09-18T16:14:47Z</time>
      </trkpt>
      <trkpt lat="44.63702" lon="3.00663">
        <ele>1310.7</ele>
        <time>2015-09-18T16:14:51Z</time>
      </trkpt>
      <trkpt lat="44.63693" lon="3.00655">
        <ele>1311.2</ele>
        <time>2015-09-18T16:14:55Z</time>
      </trkpt>
      <trkpt lat="44.63684" lon="3.00648">
        <ele>1311.7</ele>
        <time>2015-09-18T16:14:59Z</time>
      </trkpt>
      <trkpt lat="44.63674" lon="3.00642">
        <ele>1312.3</ele>
        <time>2015-09-18T16:15:03Z</time>
      </trkpt>
      <trkpt lat="44.63664" lon="3.00636">
        <ele>1312.9</ele>
        <time>2015-09-18T16:15:07Z</time>
      </trkpt>
      <trkpt lat="44.63655" lon="3.00631">
        <ele>1313.4</ele>
        <time>2015-09-18T16:15:11Z</time>
      </trkpt>
      <trkpt lat="44.63645" lon="3.00627">
        <ele>1314</ele>
        <time>2015-09-18T16:15:15Z</time>
      </trkpt>
      <trkpt lat="44.63635" lon="3.00622">
        <ele>1314.6</ele>
        <time>2015-09-18T16:15:19Z</time>
      </trkpt>
      <trkpt lat="44.63625" lon="3.00618">
        <ele>1315</ele>
        <time>2015-09-18T16:15:23Z</time>
      </trkpt>
      <trkpt lat="44.63615" lon="3.00615">
        <ele>1315.5</ele>
        <time>2015-09-18T16:15:27Z</time>
      </trkpt>
      <trkpt lat="44.63604" lon="3.00612">
        <ele>1316</ele>
        <time>2015-09-18T16:15:31Z</time>
      </trkpt>
      <trkpt lat="44.63594" lon="3.0061">
        <ele>1316.5</ele>
        <time>2015-09-18T16:15:35Z</time>
      </trkpt>
      <trkpt lat="44.63583" lon="3.00608">
        <ele>1316.9</ele>
        <time>2015-09-18T16:15:39Z</time>
      </trkpt>
      <trkpt lat="44.63573" lon="3.00607">
        <ele>1317.4</ele>
        <time>2015-09-18T16:15:43Z</time>
      </trkpt>
      <trkpt lat="44.63562" lon="3.00606">
        <ele>1317.9</ele>
        <time>2015-09-18T16:15:47Z</time>
      </trkpt>
      <trkpt lat="44.63551" lon="3.00605">
        <ele>1318.2</ele>
        <time>2015-09-18T16:15:51Z</time>
      </trkpt>
      <trkpt lat="44.6354" lon="3.00602">
        <ele>1318.6</ele>
        <time>2015-09-18T16:15:55Z</time>
      </trkpt>
      <trkpt lat="44.6353" lon="3.00598">
        <ele>1319</ele>
        <time>2015-09-18T16:15:59Z</time>
      </trkpt>
      <trkpt lat="44.6352" lon="3.00593">
        <ele>1319.3</ele>
        <time>2015-09-18T16:16:03Z</time>
      </trkpt>
      <trkpt lat="44.63512" lon="3.00587">
        <ele>1319.8</ele>
        <time>2015-09-18T16:16:07Z</time>
      </trkpt>
      <trkpt lat="44.63503" lon="3.0058">
        <ele>1320.5</ele>
        <time>2015-09-18T16:16:11Z</time>
      </trkpt>
      <trkpt lat="44.63495" lon="3.00572">
        <ele>1321</ele>
        <time>2015-09-18T16:16:15Z</time>
      </trkpt>
      <trkpt lat="44.63487" lon="3.00566">
        <ele>1321.6</ele>
        <time>2015-09-18T16:16:20Z</time>
      </trkpt>
      <trkpt lat="44.63479" lon="3.00557">
        <ele>1322.1</ele>
        <time>2015-09-18T16:16:25Z</time>
      </trkpt>
      <trkpt lat="44.63471" lon="3.00549">
        <ele>1322.5</ele>
        <time>2015-09-18T16:16:29Z</time>
      </trkpt>
      <trkpt lat="44.63462" lon="3.0054">
        <ele>1323</ele>
        <time>2015-09-18T16:16:34Z</time>
      </trkpt>
      <trkpt lat="44.63454" lon="3.00533">
        <ele>1323.4</ele>
        <time>2015-09-18T16:16:38Z</time>
      </trkpt>
      <trkpt lat="44.63447" lon="3.00525">
        <ele>1323.7</ele>
        <time>2015-09-18T16:16:42Z</time>
      </trkpt>
      <trkpt lat="44.63439" lon="3.00517">
        <ele>1324</ele>
        <time>2015-09-18T16:16:46Z</time>
      </trkpt>
      <trkpt lat="44.63431" lon="3.00509">
        <ele>1324.2</ele>
        <time>2015-09-18T16:16:50Z</time>
      </trkpt>
      <trkpt lat="44.63423" lon="3.00501">
        <ele>1324.4</ele>
        <time>2015-09-18T16:16:54Z</time>
      </trkpt>
      <trkpt lat="44.63415" lon="3.00493">
        <ele>1324.7</ele>
        <time>2015-09-18T16:16:58Z</time>
      </trkpt>
      <trkpt lat="44.63407" lon="3.00485">
        <ele>1324.9</ele>
        <time>2015-09-18T16:17:02Z</time>
      </trkpt>
      <trkpt lat="44.63399" lon="3.00477">
        <ele>1325.3</ele>
        <time>2015-09-18T16:17:06Z</time>
      </trkpt>
      <trkpt lat="44.63391" lon="3.00469">
        <ele>1325.6</ele>
        <time>2015-09-18T16:17:10Z</time>
      </trkpt>
      <trkpt lat="44.63383" lon="3.00461">
        <ele>1325.8</ele>
        <time>2015-09-18T16:17:14Z</time>
      </trkpt>
      <trkpt lat="44.63376" lon="3.00453">
        <ele>1326.2</ele>
        <time>2015-09-18T16:17:18Z</time>
      </trkpt>
      <trkpt lat="44.63368" lon="3.00445">
        <ele>1326.5</ele>
        <time>2015-09-18T16:17:22Z</time>
      </trkpt>
      <trkpt lat="44.6336" lon="3.00437">
        <ele>1326.9</ele>
        <time>2015-09-18T16:17:26Z</time>
      </trkpt>
      <trkpt lat="44.63352" lon="3.00429">
        <ele>1327.2</ele>
        <time>2015-09-18T16:17:30Z</time>
      </trkpt>
      <trkpt lat="44.63345" lon="3.00422">
        <ele>1327.6</ele>
        <time>2015-09-18T16:17:35Z</time>
      </trkpt>
      <trkpt lat="44.63336" lon="3.00415">
        <ele>1328</ele>
        <time>2015-09-18T16:17:41Z</time>
      </trkpt>
      <trkpt lat="44.63327" lon="3.00407">
        <ele>1328.3</ele>
        <time>2015-09-18T16:17:46Z</time>
      </trkpt>
      <trkpt lat="44.63318" lon="3.004">
        <ele>1328.6</ele>
        <time>2015-09-18T16:17:51Z</time>
      </trkpt>
      <trkpt lat="44.6331" lon="3.00394">
        <ele>1328.8</ele>
        <time>2015-09-18T16:17:55Z</time>
      </trkpt>
      <trkpt lat="44.63302" lon="3.00387">
        <ele>1329</ele>
        <time>2015-09-18T16:17:59Z</time>
      </trkpt>
      <trkpt lat="44.63293" lon="3.00381">
        <ele>1329.1</ele>
        <time>2015-09-18T16:18:03Z</time>
      </trkpt>
      <trkpt lat="44.63284" lon="3.00376">
        <ele>1329.3</ele>
        <time>2015-09-18T16:18:07Z</time>
      </trkpt>
      <trkpt lat="44.63275" lon="3.00371">
        <ele>1329.6</ele>
        <time>2015-09-18T16:18:11Z</time>
      </trkpt>
      <trkpt lat="44.63266" lon="3.00366">
        <ele>1329.8</ele>
        <time>2015-09-18T16:18:15Z</time>
      </trkpt>
      <trkpt lat="44.63257" lon="3.00362">
        <ele>1330</ele>
        <time>2015-09-18T16:18:19Z</time>
      </trkpt>
      <trkpt lat="44.63247" lon="3.00358">
        <ele>1330.3</ele>
        <time>2015-09-18T16:18:23Z</time>
      </trkpt>
      <trkpt lat="44.63237" lon="3.00356">
        <ele>1330.4</ele>
        <time>2015-09-18T16:18:27Z</time>
      </trkpt>
      <trkpt lat="44.63227" lon="3.00355">
        <ele>1330.6</ele>
        <time>2015-09-18T16:18:31Z</time>
      </trkpt>
      <trkpt lat="44.63218" lon="3.00354">
        <ele>1330.9</ele>
        <time>2015-09-18T16:18:35Z</time>
      </trkpt>
      <trkpt lat="44.63208" lon="3.00354">
        <ele>1331.3</ele>
        <time>2015-09-18T16:18:39Z</time>
      </trkpt>
      <trkpt lat="44.63197" lon="3.00355">
        <ele>1331.7</ele>
        <time>2015-09-18T16:18:44Z</time>
      </trkpt>
      <trkpt lat="44.63188" lon="3.00355">
        <ele>1331.9</ele>
        <time>2015-09-18T16:18:48Z</time>
      </trkpt>
      <trkpt lat="44.63179" lon="3.00357">
        <ele>1332.1</ele>
        <time>2015-09-18T16:18:52Z</time>
      </trkpt>
      <trkpt lat="44.63169" lon="3.00359">
        <ele>1332.3</ele>
        <time>2015-09-18T16:18:56Z</time>
      </trkpt>
      <trkpt lat="44.6316" lon="3.00362">
        <ele>1332.4</ele>
        <time>2015-09-18T16:19:00Z</time>
      </trkpt>
      <trkpt lat="44.63151" lon="3.00366">
        <ele>1332.6</ele>
        <time>2015-09-18T16:19:04Z</time>
      </trkpt>
      <trkpt lat="44.63142" lon="3.00372">
        <ele>1332.8</ele>
        <time>2015-09-18T16:19:08Z</time>
      </trkpt>
      <trkpt lat="44.63133" lon="3.00378">
        <ele>1333.1</ele>
        <time>2015-09-18T16:19:12Z</time>
      </trkpt>
      <trkpt lat="44.63125" lon="3.00384">
        <ele>1333.3</ele>
        <time>2015-09-18T16:19:16Z</time>
      </trkpt>
      <trkpt lat="44.63116" lon="3.0039">
        <ele>1333.5</ele>
        <time>2015-09-18T16:19:20Z</time>
      </trkpt>
      <trkpt lat="44.63107" lon="3.00397">
        <ele>1333.7</ele>
        <time>2015-09-18T16:19:24Z</time>
      </trkpt>
      <trkpt lat="44.63098" lon="3.00403">
        <ele>1333.9</ele>
        <time>2015-09-18T16:19:28Z</time>
      </trkpt>
      <trkpt lat="44.63089" lon="3.0041">
        <ele>1334.1</ele>
        <time>2015-09-18T16:19:32Z</time>
      </trkpt>
      <trkpt lat="44.63081" lon="3.00416">
        <ele>1334.3</ele>
        <time>2015-09-18T16:19:36Z</time>
      </trkpt>
      <trkpt lat="44.63072" lon="3.00423">
        <ele>1334.5</ele>
        <time>2015-09-18T16:19:40Z</time>
      </trkpt>
      <trkpt lat="44.63063" lon="3.0043">
        <ele>1334.7</ele>
        <time>2015-09-18T16:19:44Z</time>
      </trkpt>
      <trkpt lat="44.63053" lon="3.00437">
        <ele>1334.9</ele>
        <time>2015-09-18T16:19:48Z</time>
      </trkpt>
      <trkpt lat="44.63043" lon="3.00445">
        <ele>1335.1</ele>
        <time>2015-09-18T16:19:52Z</time>
      </trkpt>
      <trkpt lat="44.63033" lon="3.00452">
        <ele>1335.2</ele>
        <time>2015-09-18T16:19:56Z</time>
      </trkpt>
      <trkpt lat="44.63023" lon="3.00459">
        <ele>1335.5</ele>
        <time>2015-09-18T16:20:00Z</time>
      </trkpt>
      <trkpt lat="44.63013" lon="3.00467">
        <ele>1335.7</ele>
        <time>2015-09-18T16:20:04Z</time>
      </trkpt>
      <trkpt lat="44.63005" lon="3.00474">
        <ele>1335.8</ele>
        <time>2015-09-18T16:20:07Z</time>
      </trkpt>
      <trkpt lat="44.62995" lon="3.00482">
        <ele>1336</ele>
        <time>2015-09-18T16:20:11Z</time>
      </trkpt>
      <trkpt lat="44.62985" lon="3.0049">
        <ele>1336.3</ele>
        <time>2015-09-18T16:20:15Z</time>
      </trkpt>
      <trkpt lat="44.62975" lon="3.00498">
        <ele>1336.6</ele>
        <time>2015-09-18T16:20:19Z</time>
      </trkpt>
      <trkpt lat="44.62966" lon="3.00505">
        <ele>1337</ele>
        <time>2015-09-18T16:20:23Z</time>
      </trkpt>
      <trkpt lat="44.62957" lon="3.00513">
        <ele>1337.2</ele>
        <time>2015-09-18T16:20:27Z</time>
      </trkpt>
      <trkpt lat="44.62947" lon="3.0052">
        <ele>1337.5</ele>
        <time>2015-09-18T16:20:31Z</time>
      </trkpt>
      <trkpt lat="44.62937" lon="3.00526">
        <ele>1337.7</ele>
        <time>2015-09-18T16:20:35Z</time>
      </trkpt>
      <trkpt lat="44.62926" lon="3.0053">
        <ele>1338</ele>
        <time>2015-09-18T16:20:39Z</time>
      </trkpt>
      <trkpt lat="44.62915" lon="3.00535">
        <ele>1338.3</ele>
        <time>2015-09-18T16:20:43Z</time>
      </trkpt>
      <trkpt lat="44.62904" lon="3.00538">
        <ele>1338.5</ele>
        <time>2015-09-18T16:20:47Z</time>
      </trkpt>
      <trkpt lat="44.62893" lon="3.00542">
        <ele>1338.8</ele>
        <time>2015-09-18T16:20:51Z</time>
      </trkpt>
      <trkpt lat="44.62883" lon="3.00545">
        <ele>1339</ele>
        <time>2015-09-18T16:20:55Z</time>
      </trkpt>
      <trkpt lat="44.62872" lon="3.00549">
        <ele>1339.1</ele>
        <time>2015-09-18T16:20:59Z</time>
      </trkpt>
      <trkpt lat="44.62861" lon="3.00553">
        <ele>1339.4</ele>
        <time>2015-09-18T16:21:03Z</time>
      </trkpt>
      <trkpt lat="44.6285" lon="3.00557">
        <ele>1339.7</ele>
        <time>2015-09-18T16:21:07Z</time>
      </trkpt>
      <trkpt lat="44.62838" lon="3.00561">
        <ele>1340</ele>
        <time>2015-09-18T16:21:11Z</time>
      </trkpt>
      <trkpt lat="44.62828" lon="3.00565">
        <ele>1340.3</ele>
        <time>2015-09-18T16:21:15Z</time>
      </trkpt>
      <trkpt lat="44.62819" lon="3.00569">
        <ele>1340.7</ele>
        <time>2015-09-18T16:21:20Z</time>
      </trkpt>
      <trkpt lat="44.62809" lon="3.00574">
        <ele>1341</ele>
        <time>2015-09-18T16:21:25Z</time>
      </trkpt>
      <trkpt lat="44.62799" lon="3.00577">
        <ele>1341.3</ele>
        <time>2015-09-18T16:21:29Z</time>
      </trkpt>
      <trkpt lat="44.6279" lon="3.00581">
        <ele>1341.7</ele>
        <time>2015-09-18T16:21:33Z</time>
      </trkpt>
      <trkpt lat="44.6278" lon="3.00584">
        <ele>1342.1</ele>
        <time>2015-09-18T16:21:37Z</time>
      </trkpt>
      <trkpt lat="44.62771" lon="3.00587">
        <ele>1342.4</ele>
        <time>2015-09-18T16:21:41Z</time>
      </trkpt>
      <trkpt lat="44.62761" lon="3.00591">
        <ele>1342.6</ele>
        <time>2015-09-18T16:21:45Z</time>
      </trkpt>
      <trkpt lat="44.6275" lon="3.00596">
        <ele>1342.9</ele>
        <time>2015-09-18T16:21:49Z</time>
      </trkpt>
      <trkpt lat="44.6274" lon="3.006">
        <ele>1343.1</ele>
        <time>2015-09-18T16:21:53Z</time>
      </trkpt>
      <trkpt lat="44.6273" lon="3.00604">
        <ele>1343.5</ele>
        <time>2015-09-18T16:22:00Z</time>
      </trkpt>
      <trkpt lat="44.6272" lon="3.00608">
        <ele>1343.7</ele>
        <time>2015-09-18T16:22:05Z</time>
      </trkpt>
      <trkpt lat="44.6271" lon="3.00612">
        <ele>1343.9</ele>
        <time>2015-09-18T16:22:10Z</time>
      </trkpt>
      <trkpt lat="44.627" lon="3.00616">
        <ele>1344.1</ele>
        <time>2015-09-18T16:22:16Z</time>
      </trkpt>
      <trkpt lat="44.62691" lon="3.00619">
        <ele>1344.3</ele>
        <time>2015-09-18T16:22:20Z</time>
      </trkpt>
      <trkpt lat="44.62681" lon="3.00623">
        <ele>1344.4</ele>
        <time>2015-09-18T16:22:24Z</time>
      </trkpt>
      <trkpt lat="44.62672" lon="3.00626">
        <ele>1344.4</ele>
        <time>2015-09-18T16:22:28Z</time>
      </trkpt>
      <trkpt lat="44.62663" lon="3.00629">
        <ele>1344.5</ele>
        <time>2015-09-18T16:22:32Z</time>
      </trkpt>
      <trkpt lat="44.62653" lon="3.00633">
        <ele>1344.5</ele>
        <time>2015-09-18T16:22:36Z</time>
      </trkpt>
      <trkpt lat="44.62643" lon="3.00637">
        <ele>1344.6</ele>
        <time>2015-09-18T16:22:40Z</time>
      </trkpt>
      <trkpt lat="44.62631" lon="3.00641">
        <ele>1344.6</ele>
        <time>2015-09-18T16:22:44Z</time>
      </trkpt>
      <trkpt lat="44.6262" lon="3.00643">
        <ele>1344.6</ele>
        <time>2015-09-18T16:22:48Z</time>
      </trkpt>
      <trkpt lat="44.6261" lon="3.00645">
        <ele>1344.5</ele>
        <time>2015-09-18T16:22:51Z</time>
      </trkpt>
      <trkpt lat="44.62622" lon="3.00643">
        <ele>1342.8</ele>
        <time>2015-09-18T16:27:08Z</time>
      </trkpt>
      <trkpt lat="44.62633" lon="3.0064">
        <ele>1342.8</ele>
        <time>2015-09-18T16:27:11Z</time>
      </trkpt>
      <trkpt lat="44.62645" lon="3.00637">
        <ele>1342.9</ele>
        <time>2015-09-18T16:27:14Z</time>
      </trkpt>
      <trkpt lat="44.62657" lon="3.00634">
        <ele>1343</ele>
        <time>2015-09-18T16:27:17Z</time>
      </trkpt>
      <trkpt lat="44.62669" lon="3.0063">
        <ele>1343.3</ele>
        <time>2015-09-18T16:27:20Z</time>
      </trkpt>
      <trkpt lat="44.62681" lon="3.00625">
        <ele>1343.4</ele>
        <time>2015-09-18T16:27:23Z</time>
      </trkpt>
      <trkpt lat="44.62693" lon="3.0062">
        <ele>1343.6</ele>
        <time>2015-09-18T16:27:26Z</time>
      </trkpt>
      <trkpt lat="44.62704" lon="3.00617">
        <ele>1343.7</ele>
        <time>2015-09-18T16:27:29Z</time>
      </trkpt>
      <trkpt lat="44.62714" lon="3.00613">
        <ele>1343.9</ele>
        <time>2015-09-18T16:27:32Z</time>
      </trkpt>
      <trkpt lat="44.62725" lon="3.00609">
        <ele>1344</ele>
        <time>2015-09-18T16:27:36Z</time>
      </trkpt>
      <trkpt lat="44.62734" lon="3.00606">
        <ele>1344.2</ele>
        <time>2015-09-18T16:27:40Z</time>
      </trkpt>
      <trkpt lat="44.62725" lon="3.00609">
        <ele>1344.7</ele>
        <time>2015-09-18T16:28:16Z</time>
      </trkpt>
      <trkpt lat="44.62713" lon="3.00614">
        <ele>1344.8</ele>
        <time>2015-09-18T16:28:20Z</time>
      </trkpt>
      <trkpt lat="44.62703" lon="3.00617">
        <ele>1344.8</ele>
        <time>2015-09-18T16:28:23Z</time>
      </trkpt>
      <trkpt lat="44.62694" lon="3.00622">
        <ele>1344.9</ele>
        <time>2015-09-18T16:28:26Z</time>
      </trkpt>
      <trkpt lat="44.62683" lon="3.00626">
        <ele>1344.9</ele>
        <time>2015-09-18T16:28:30Z</time>
      </trkpt>
      <trkpt lat="44.62671" lon="3.0063">
        <ele>1345</ele>
        <time>2015-09-18T16:28:34Z</time>
      </trkpt>
      <trkpt lat="44.62659" lon="3.00634">
        <ele>1345</ele>
        <time>2015-09-18T16:28:37Z</time>
      </trkpt>
      <trkpt lat="44.62648" lon="3.00637">
        <ele>1345</ele>
        <time>2015-09-18T16:28:40Z</time>
      </trkpt>
      <trkpt lat="44.62636" lon="3.00641">
        <ele>1345</ele>
        <time>2015-09-18T16:28:43Z</time>
      </trkpt>
      <trkpt lat="44.62626" lon="3.00643">
        <ele>1345</ele>
        <time>2015-09-18T16:28:45Z</time>
      </trkpt>
      <trkpt lat="44.62616" lon="3.00645">
        <ele>1344.9</ele>
        <time>2015-09-18T16:28:47Z</time>
      </trkpt>
      <trkpt lat="44.62606" lon="3.00645">
        <ele>1344.8</ele>
        <time>2015-09-18T16:28:49Z</time>
      </trkpt>
      <trkpt lat="44.62596" lon="3.00644">
        <ele>1344.7</ele>
        <time>2015-09-18T16:28:51Z</time>
      </trkpt>
      <trkpt lat="44.62586" lon="3.00641">
        <ele>1344.6</ele>
        <time>2015-09-18T16:28:53Z</time>
      </trkpt>
      <trkpt lat="44.62576" lon="3.00636">
        <ele>1344.4</ele>
        <time>2015-09-18T16:28:55Z</time>
      </trkpt>
      <trkpt lat="44.62568" lon="3.0063">
        <ele>1344.2</ele>
        <time>2015-09-18T16:28:57Z</time>
      </trkpt>
      <trkpt lat="44.6256" lon="3.00623">
        <ele>1344</ele>
        <time>2015-09-18T16:28:59Z</time>
      </trkpt>
      <trkpt lat="44.62552" lon="3.00613">
        <ele>1343.7</ele>
        <time>2015-09-18T16:29:01Z</time>
      </trkpt>
      <trkpt lat="44.62545" lon="3.00603">
        <ele>1343.5</ele>
        <time>2015-09-18T16:29:03Z</time>
      </trkpt>
      <trkpt lat="44.62539" lon="3.00591">
        <ele>1343.2</ele>
        <time>2015-09-18T16:29:05Z</time>
      </trkpt>
      <trkpt lat="44.62533" lon="3.0058">
        <ele>1343</ele>
        <time>2015-09-18T16:29:07Z</time>
      </trkpt>
      <trkpt lat="44.62527" lon="3.00568">
        <ele>1342.8</ele>
        <time>2015-09-18T16:29:09Z</time>
      </trkpt>
      <trkpt lat="44.62521" lon="3.00555">
        <ele>1342.6</ele>
        <time>2015-09-18T16:29:11Z</time>
      </trkpt>
      <trkpt lat="44.62515" lon="3.00543">
        <ele>1342.3</ele>
        <time>2015-09-18T16:29:13Z</time>
      </trkpt>
      <trkpt lat="44.6251" lon="3.00531">
        <ele>1342.1</ele>
        <time>2015-09-18T16:29:15Z</time>
      </trkpt>
      <trkpt lat="44.62504" lon="3.00519">
        <ele>1342</ele>
        <time>2015-09-18T16:29:17Z</time>
      </trkpt>
      <trkpt lat="44.62498" lon="3.00507">
        <ele>1341.8</ele>
        <time>2015-09-18T16:29:19Z</time>
      </trkpt>
      <trkpt lat="44.62493" lon="3.00495">
        <ele>1341.7</ele>
        <time>2015-09-18T16:29:21Z</time>
      </trkpt>
      <trkpt lat="44.62487" lon="3.00483">
        <ele>1341.5</ele>
        <time>2015-09-18T16:29:23Z</time>
      </trkpt>
      <trkpt lat="44.62482" lon="3.00471">
        <ele>1341.4</ele>
        <time>2015-09-18T16:29:25Z</time>
      </trkpt>
      <trkpt lat="44.62476" lon="3.00459">
        <ele>1341.3</ele>
        <time>2015-09-18T16:29:27Z</time>
      </trkpt>
      <trkpt lat="44.62471" lon="3.00448">
        <ele>1341.3</ele>
        <time>2015-09-18T16:29:29Z</time>
      </trkpt>
      <trkpt lat="44.62466" lon="3.00437">
        <ele>1341.2</ele>
        <time>2015-09-18T16:29:31Z</time>
      </trkpt>
      <trkpt lat="44.62459" lon="3.00423">
        <ele>1341.1</ele>
        <time>2015-09-18T16:29:34Z</time>
      </trkpt>
      <trkpt lat="44.62452" lon="3.00408">
        <ele>1341</ele>
        <time>2015-09-18T16:29:37Z</time>
      </trkpt>
      <trkpt lat="44.62445" lon="3.00393">
        <ele>1340.9</ele>
        <time>2015-09-18T16:29:40Z</time>
      </trkpt>
      <trkpt lat="44.62438" lon="3.00377">
        <ele>1340.9</ele>
        <time>2015-09-18T16:29:43Z</time>
      </trkpt>
      <trkpt lat="44.62431" lon="3.00363">
        <ele>1340.9</ele>
        <time>2015-09-18T16:29:46Z</time>
      </trkpt>
      <trkpt lat="44.62426" lon="3.0035">
        <ele>1340.8</ele>
        <time>2015-09-18T16:29:49Z</time>
      </trkpt>
      <trkpt lat="44.62421" lon="3.00334">
        <ele>1340.8</ele>
        <time>2015-09-18T16:29:52Z</time>
      </trkpt>
      <trkpt lat="44.62416" lon="3.00319">
        <ele>1340.8</ele>
        <time>2015-09-18T16:29:55Z</time>
      </trkpt>
      <trkpt lat="44.62412" lon="3.00302">
        <ele>1340.7</ele>
        <time>2015-09-18T16:29:58Z</time>
      </trkpt>
      <trkpt lat="44.62409" lon="3.00286">
        <ele>1340.7</ele>
        <time>2015-09-18T16:30:01Z</time>
      </trkpt>
      <trkpt lat="44.62406" lon="3.00271">
        <ele>1340.7</ele>
        <time>2015-09-18T16:30:04Z</time>
      </trkpt>
      <trkpt lat="44.62405" lon="3.00257">
        <ele>1340.7</ele>
        <time>2015-09-18T16:30:07Z</time>
      </trkpt>
      <trkpt lat="44.62405" lon="3.00243">
        <ele>1340.6</ele>
        <time>2015-09-18T16:30:10Z</time>
      </trkpt>
      <trkpt lat="44.62404" lon="3.00228">
        <ele>1340.5</ele>
        <time>2015-09-18T16:30:13Z</time>
      </trkpt>
      <trkpt lat="44.62405" lon="3.00211">
        <ele>1340.5</ele>
        <time>2015-09-18T16:30:16Z</time>
      </trkpt>
      <trkpt lat="44.62406" lon="3.00194">
        <ele>1340.4</ele>
        <time>2015-09-18T16:30:19Z</time>
      </trkpt>
      <trkpt lat="44.62408" lon="3.00177">
        <ele>1340.3</ele>
        <time>2015-09-18T16:30:22Z</time>
      </trkpt>
      <trkpt lat="44.62411" lon="3.0016">
        <ele>1340.2</ele>
        <time>2015-09-18T16:30:25Z</time>
      </trkpt>
      <trkpt lat="44.62414" lon="3.00146">
        <ele>1340</ele>
        <time>2015-09-18T16:30:28Z</time>
      </trkpt>
      <trkpt lat="44.62416" lon="3.0013">
        <ele>1339.8</ele>
        <time>2015-09-18T16:30:31Z</time>
      </trkpt>
      <trkpt lat="44.62419" lon="3.00113">
        <ele>1339.6</ele>
        <time>2015-09-18T16:30:34Z</time>
      </trkpt>
      <trkpt lat="44.62421" lon="3.00101">
        <ele>1339.4</ele>
        <time>2015-09-18T16:30:36Z</time>
      </trkpt>
      <trkpt lat="44.62423" lon="3.00088">
        <ele>1339.2</ele>
        <time>2015-09-18T16:30:38Z</time>
      </trkpt>
      <trkpt lat="44.62425" lon="3.00074">
        <ele>1339</ele>
        <time>2015-09-18T16:30:40Z</time>
      </trkpt>
      <trkpt lat="44.62428" lon="3.0006">
        <ele>1338.8</ele>
        <time>2015-09-18T16:30:42Z</time>
      </trkpt>
      <trkpt lat="44.6243" lon="3.00045">
        <ele>1338.6</ele>
        <time>2015-09-18T16:30:44Z</time>
      </trkpt>
      <trkpt lat="44.62433" lon="3.0003">
        <ele>1338.5</ele>
        <time>2015-09-18T16:30:46Z</time>
      </trkpt>
      <trkpt lat="44.62434" lon="3.00014">
        <ele>1338.3</ele>
        <time>2015-09-18T16:30:48Z</time>
      </trkpt>
      <trkpt lat="44.62435" lon="2.99997">
        <ele>1338.2</ele>
        <time>2015-09-18T16:30:50Z</time>
      </trkpt>
      <trkpt lat="44.62435" lon="2.99981">
        <ele>1338</ele>
        <time>2015-09-18T16:30:52Z</time>
      </trkpt>
      <trkpt lat="44.62435" lon="2.99964">
        <ele>1337.8</ele>
        <time>2015-09-18T16:30:54Z</time>
      </trkpt>
      <trkpt lat="44.62434" lon="2.99948">
        <ele>1337.5</ele>
        <time>2015-09-18T16:30:56Z</time>
      </trkpt>
      <trkpt lat="44.62434" lon="2.99932">
        <ele>1337.2</ele>
        <time>2015-09-18T16:30:58Z</time>
      </trkpt>
      <trkpt lat="44.62434" lon="2.99916">
        <ele>1336.9</ele>
        <time>2015-09-18T16:31:00Z</time>
      </trkpt>
      <trkpt lat="44.62433" lon="2.999">
        <ele>1336.7</ele>
        <time>2015-09-18T16:31:02Z</time>
      </trkpt>
      <trkpt lat="44.62433" lon="2.99885">
        <ele>1336.4</ele>
        <time>2015-09-18T16:31:04Z</time>
      </trkpt>
      <trkpt lat="44.62432" lon="2.99869">
        <ele>1336.1</ele>
        <time>2015-09-18T16:31:06Z</time>
      </trkpt>
      <trkpt lat="44.62431" lon="2.99854">
        <ele>1335.8</ele>
        <time>2015-09-18T16:31:08Z</time>
      </trkpt>
      <trkpt lat="44.62429" lon="2.99838">
        <ele>1335.5</ele>
        <time>2015-09-18T16:31:10Z</time>
      </trkpt>
      <trkpt lat="44.62427" lon="2.99823">
        <ele>1335.3</ele>
        <time>2015-09-18T16:31:12Z</time>
      </trkpt>
      <trkpt lat="44.62424" lon="2.99807">
        <ele>1335</ele>
        <time>2015-09-18T16:31:14Z</time>
      </trkpt>
      <trkpt lat="44.6242" lon="2.99791">
        <ele>1334.7</ele>
        <time>2015-09-18T16:31:16Z</time>
      </trkpt>
      <trkpt lat="44.62417" lon="2.99775">
        <ele>1334.3</ele>
        <time>2015-09-18T16:31:18Z</time>
      </trkpt>
      <trkpt lat="44.62413" lon="2.99759">
        <ele>1334</ele>
        <time>2015-09-18T16:31:20Z</time>
      </trkpt>
      <trkpt lat="44.62409" lon="2.99743">
        <ele>1333.7</ele>
        <time>2015-09-18T16:31:22Z</time>
      </trkpt>
      <trkpt lat="44.62406" lon="2.99728">
        <ele>1333.5</ele>
        <time>2015-09-18T16:31:24Z</time>
      </trkpt>
      <trkpt lat="44.62402" lon="2.99713">
        <ele>1333.2</ele>
        <time>2015-09-18T16:31:26Z</time>
      </trkpt>
      <trkpt lat="44.62399" lon="2.99699">
        <ele>1333</ele>
        <time>2015-09-18T16:31:28Z</time>
      </trkpt>
      <trkpt lat="44.62397" lon="2.99685">
        <ele>1332.8</ele>
        <time>2015-09-18T16:31:30Z</time>
      </trkpt>
      <trkpt lat="44.62394" lon="2.99672">
        <ele>1332.7</ele>
        <time>2015-09-18T16:31:32Z</time>
      </trkpt>
      <trkpt lat="44.62391" lon="2.99659">
        <ele>1332.5</ele>
        <time>2015-09-18T16:31:34Z</time>
      </trkpt>
      <trkpt lat="44.62389" lon="2.99646">
        <ele>1332.2</ele>
        <time>2015-09-18T16:31:36Z</time>
      </trkpt>
      <trkpt lat="44.62387" lon="2.99632">
        <ele>1332</ele>
        <time>2015-09-18T16:31:38Z</time>
      </trkpt>
      <trkpt lat="44.62386" lon="2.99619">
        <ele>1331.8</ele>
        <time>2015-09-18T16:31:40Z</time>
      </trkpt>
      <trkpt lat="44.62387" lon="2.99606">
        <ele>1331.6</ele>
        <time>2015-09-18T16:31:42Z</time>
      </trkpt>
      <trkpt lat="44.62387" lon="2.99593">
        <ele>1331.4</ele>
        <time>2015-09-18T16:31:44Z</time>
      </trkpt>
      <trkpt lat="44.62388" lon="2.99579">
        <ele>1331.1</ele>
        <time>2015-09-18T16:31:46Z</time>
      </trkpt>
      <trkpt lat="44.6239" lon="2.99566">
        <ele>1330.9</ele>
        <time>2015-09-18T16:31:48Z</time>
      </trkpt>
      <trkpt lat="44.62392" lon="2.99552">
        <ele>1330.6</ele>
        <time>2015-09-18T16:31:50Z</time>
      </trkpt>
      <trkpt lat="44.62393" lon="2.99539">
        <ele>1330.3</ele>
        <time>2015-09-18T16:31:52Z</time>
      </trkpt>
      <trkpt lat="44.62395" lon="2.99522">
        <ele>1329.8</ele>
        <time>2015-09-18T16:31:55Z</time>
      </trkpt>
      <trkpt lat="44.62397" lon="2.99505">
        <ele>1329.5</ele>
        <time>2015-09-18T16:31:58Z</time>
      </trkpt>
      <trkpt lat="44.62398" lon="2.99487">
        <ele>1329.2</ele>
        <time>2015-09-18T16:32:01Z</time>
      </trkpt>
      <trkpt lat="44.624" lon="2.9947">
        <ele>1328.9</ele>
        <time>2015-09-18T16:32:04Z</time>
      </trkpt>
      <trkpt lat="44.62401" lon="2.99453">
        <ele>1328.7</ele>
        <time>2015-09-18T16:32:07Z</time>
      </trkpt>
      <trkpt lat="44.62404" lon="2.99435">
        <ele>1328.5</ele>
        <time>2015-09-18T16:32:10Z</time>
      </trkpt>
      <trkpt lat="44.62407" lon="2.99423">
        <ele>1328.4</ele>
        <time>2015-09-18T16:32:12Z</time>
      </trkpt>
      <trkpt lat="44.6241" lon="2.9941">
        <ele>1328.3</ele>
        <time>2015-09-18T16:32:14Z</time>
      </trkpt>
      <trkpt lat="44.62414" lon="2.99398">
        <ele>1328.1</ele>
        <time>2015-09-18T16:32:16Z</time>
      </trkpt>
      <trkpt lat="44.62419" lon="2.99385">
        <ele>1327.9</ele>
        <time>2015-09-18T16:32:18Z</time>
      </trkpt>
      <trkpt lat="44.62424" lon="2.99373">
        <ele>1327.8</ele>
        <time>2015-09-18T16:32:20Z</time>
      </trkpt>
      <trkpt lat="44.6243" lon="2.99362">
        <ele>1327.7</ele>
        <time>2015-09-18T16:32:22Z</time>
      </trkpt>
      <trkpt lat="44.62436" lon="2.99352">
        <ele>1327.5</ele>
        <time>2015-09-18T16:32:24Z</time>
      </trkpt>
      <trkpt lat="44.62444" lon="2.99342">
        <ele>1327.3</ele>
        <time>2015-09-18T16:32:26Z</time>
      </trkpt>
      <trkpt lat="44.62452" lon="2.99334">
        <ele>1327.1</ele>
        <time>2015-09-18T16:32:28Z</time>
      </trkpt>
      <trkpt lat="44.6246" lon="2.99326">
        <ele>1327</ele>
        <time>2015-09-18T16:32:30Z</time>
      </trkpt>
      <trkpt lat="44.62469" lon="2.9932">
        <ele>1326.9</ele>
        <time>2015-09-18T16:32:32Z</time>
      </trkpt>
      <trkpt lat="44.62478" lon="2.99315">
        <ele>1326.7</ele>
        <time>2015-09-18T16:32:34Z</time>
      </trkpt>
      <trkpt lat="44.62487" lon="2.99309">
        <ele>1326.6</ele>
        <time>2015-09-18T16:32:36Z</time>
      </trkpt>
      <trkpt lat="44.62495" lon="2.99303">
        <ele>1326.6</ele>
        <time>2015-09-18T16:32:38Z</time>
      </trkpt>
      <trkpt lat="44.62504" lon="2.99296">
        <ele>1326.5</ele>
        <time>2015-09-18T16:32:40Z</time>
      </trkpt>
      <trkpt lat="44.62513" lon="2.99289">
        <ele>1326.4</ele>
        <time>2015-09-18T16:32:42Z</time>
      </trkpt>
      <trkpt lat="44.62522" lon="2.99281">
        <ele>1326.3</ele>
        <time>2015-09-18T16:32:44Z</time>
      </trkpt>
      <trkpt lat="44.6253" lon="2.99272">
        <ele>1326.2</ele>
        <time>2015-09-18T16:32:46Z</time>
      </trkpt>
      <trkpt lat="44.62538" lon="2.99262">
        <ele>1326.1</ele>
        <time>2015-09-18T16:32:48Z</time>
      </trkpt>
      <trkpt lat="44.62547" lon="2.99252">
        <ele>1325.9</ele>
        <time>2015-09-18T16:32:50Z</time>
      </trkpt>
      <trkpt lat="44.62555" lon="2.99241">
        <ele>1325.8</ele>
        <time>2015-09-18T16:32:52Z</time>
      </trkpt>
      <trkpt lat="44.62563" lon="2.99231">
        <ele>1325.6</ele>
        <time>2015-09-18T16:32:54Z</time>
      </trkpt>
      <trkpt lat="44.62571" lon="2.99221">
        <ele>1325.4</ele>
        <time>2015-09-18T16:32:56Z</time>
      </trkpt>
      <trkpt lat="44.62578" lon="2.9921">
        <ele>1325.2</ele>
        <time>2015-09-18T16:32:58Z</time>
      </trkpt>
      <trkpt lat="44.62586" lon="2.99201">
        <ele>1325</ele>
        <time>2015-09-18T16:33:00Z</time>
      </trkpt>
      <trkpt lat="44.62593" lon="2.99192">
        <ele>1324.9</ele>
        <time>2015-09-18T16:33:02Z</time>
      </trkpt>
      <trkpt lat="44.626" lon="2.99182">
        <ele>1324.7</ele>
        <time>2015-09-18T16:33:04Z</time>
      </trkpt>
      <trkpt lat="44.62607" lon="2.99172">
        <ele>1324.4</ele>
        <time>2015-09-18T16:33:06Z</time>
      </trkpt>
      <trkpt lat="44.62613" lon="2.9916">
        <ele>1324.2</ele>
        <time>2015-09-18T16:33:08Z</time>
      </trkpt>
      <trkpt lat="44.62618" lon="2.99146">
        <ele>1324</ele>
        <time>2015-09-18T16:33:10Z</time>
      </trkpt>
      <trkpt lat="44.62621" lon="2.99132">
        <ele>1323.7</ele>
        <time>2015-09-18T16:33:12Z</time>
      </trkpt>
      <trkpt lat="44.62623" lon="2.99117">
        <ele>1323.4</ele>
        <time>2015-09-18T16:33:14Z</time>
      </trkpt>
      <trkpt lat="44.62624" lon="2.99102">
        <ele>1323.2</ele>
        <time>2015-09-18T16:33:16Z</time>
      </trkpt>
      <trkpt lat="44.62622" lon="2.99088">
        <ele>1322.9</ele>
        <time>2015-09-18T16:33:18Z</time>
      </trkpt>
      <trkpt lat="44.62619" lon="2.99075">
        <ele>1322.7</ele>
        <time>2015-09-18T16:33:20Z</time>
      </trkpt>
      <trkpt lat="44.62614" lon="2.99062">
        <ele>1322.6</ele>
        <time>2015-09-18T16:33:22Z</time>
      </trkpt>
      <trkpt lat="44.6261" lon="2.99049">
        <ele>1322.3</ele>
        <time>2015-09-18T16:33:24Z</time>
      </trkpt>
      <trkpt lat="44.62605" lon="2.99037">
        <ele>1322.1</ele>
        <time>2015-09-18T16:33:26Z</time>
      </trkpt>
      <trkpt lat="44.62601" lon="2.99025">
        <ele>1321.8</ele>
        <time>2015-09-18T16:33:28Z</time>
      </trkpt>
      <trkpt lat="44.62598" lon="2.99013">
        <ele>1321.6</ele>
        <time>2015-09-18T16:33:30Z</time>
      </trkpt>
      <trkpt lat="44.62595" lon="2.99001">
        <ele>1321.4</ele>
        <time>2015-09-18T16:33:32Z</time>
      </trkpt>
      <trkpt lat="44.62594" lon="2.98987">
        <ele>1321.2</ele>
        <time>2015-09-18T16:33:34Z</time>
      </trkpt>
      <trkpt lat="44.62594" lon="2.98974">
        <ele>1320.9</ele>
        <time>2015-09-18T16:33:36Z</time>
      </trkpt>
      <trkpt lat="44.62596" lon="2.9896">
        <ele>1320.7</ele>
        <time>2015-09-18T16:33:38Z</time>
      </trkpt>
      <trkpt lat="44.62599" lon="2.98948">
        <ele>1320.5</ele>
        <time>2015-09-18T16:33:40Z</time>
      </trkpt>
      <trkpt lat="44.62604" lon="2.98935">
        <ele>1320.3</ele>
        <time>2015-09-18T16:33:42Z</time>
      </trkpt>
      <trkpt lat="44.62608" lon="2.98922">
        <ele>1320</ele>
        <time>2015-09-18T16:33:44Z</time>
      </trkpt>
      <trkpt lat="44.62612" lon="2.98909">
        <ele>1319.8</ele>
        <time>2015-09-18T16:33:46Z</time>
      </trkpt>
      <trkpt lat="44.62616" lon="2.98897">
        <ele>1319.6</ele>
        <time>2015-09-18T16:33:48Z</time>
      </trkpt>
      <trkpt lat="44.62618" lon="2.98884">
        <ele>1319.3</ele>
        <time>2015-09-18T16:33:50Z</time>
      </trkpt>
      <trkpt lat="44.62622" lon="2.98866">
        <ele>1319.1</ele>
        <time>2015-09-18T16:33:53Z</time>
      </trkpt>
      <trkpt lat="44.62623" lon="2.98849">
        <ele>1318.8</ele>
        <time>2015-09-18T16:33:56Z</time>
      </trkpt>
      <trkpt lat="44.62622" lon="2.98831">
        <ele>1318.4</ele>
        <time>2015-09-18T16:33:59Z</time>
      </trkpt>
      <trkpt lat="44.6262" lon="2.98818">
        <ele>1318.2</ele>
        <time>2015-09-18T16:34:01Z</time>
      </trkpt>
      <trkpt lat="44.62618" lon="2.98806">
        <ele>1317.9</ele>
        <time>2015-09-18T16:34:03Z</time>
      </trkpt>
      <trkpt lat="44.62616" lon="2.98792">
        <ele>1317.7</ele>
        <time>2015-09-18T16:34:05Z</time>
      </trkpt>
      <trkpt lat="44.62614" lon="2.98779">
        <ele>1317.4</ele>
        <time>2015-09-18T16:34:07Z</time>
      </trkpt>
      <trkpt lat="44.62612" lon="2.98765">
        <ele>1317.2</ele>
        <time>2015-09-18T16:34:09Z</time>
      </trkpt>
      <trkpt lat="44.62609" lon="2.98752">
        <ele>1317</ele>
        <time>2015-09-18T16:34:11Z</time>
      </trkpt>
      <trkpt lat="44.62605" lon="2.9874">
        <ele>1316.8</ele>
        <time>2015-09-18T16:34:13Z</time>
      </trkpt>
      <trkpt lat="44.62598" lon="2.98725">
        <ele>1316.5</ele>
        <time>2015-09-18T16:34:16Z</time>
      </trkpt>
      <trkpt lat="44.6259" lon="2.9871">
        <ele>1316.3</ele>
        <time>2015-09-18T16:34:19Z</time>
      </trkpt>
      <trkpt lat="44.6258" lon="2.98697">
        <ele>1316</ele>
        <time>2015-09-18T16:34:22Z</time>
      </trkpt>
      <trkpt lat="44.62572" lon="2.98689">
        <ele>1315.9</ele>
        <time>2015-09-18T16:34:24Z</time>
      </trkpt>
      <trkpt lat="44.62562" lon="2.98683">
        <ele>1315.8</ele>
        <time>2015-09-18T16:34:26Z</time>
      </trkpt>
      <trkpt lat="44.62552" lon="2.98678">
        <ele>1315.7</ele>
        <time>2015-09-18T16:34:28Z</time>
      </trkpt>
      <trkpt lat="44.62541" lon="2.98675">
        <ele>1315.6</ele>
        <time>2015-09-18T16:34:30Z</time>
      </trkpt>
      <trkpt lat="44.62529" lon="2.98675">
        <ele>1315.5</ele>
        <time>2015-09-18T16:34:32Z</time>
      </trkpt>
      <trkpt lat="44.62519" lon="2.98677">
        <ele>1315.4</ele>
        <time>2015-09-18T16:34:34Z</time>
      </trkpt>
      <trkpt lat="44.62509" lon="2.98681">
        <ele>1315.3</ele>
        <time>2015-09-18T16:34:36Z</time>
      </trkpt>
      <trkpt lat="44.62499" lon="2.98684">
        <ele>1315.2</ele>
        <time>2015-09-18T16:34:38Z</time>
      </trkpt>
      <trkpt lat="44.6249" lon="2.98686">
        <ele>1315.1</ele>
        <time>2015-09-18T16:34:40Z</time>
      </trkpt>
      <trkpt lat="44.6248" lon="2.98688">
        <ele>1315</ele>
        <time>2015-09-18T16:34:42Z</time>
      </trkpt>
      <trkpt lat="44.62469" lon="2.98689">
        <ele>1314.8</ele>
        <time>2015-09-18T16:34:44Z</time>
      </trkpt>
      <trkpt lat="44.62458" lon="2.98689">
        <ele>1314.6</ele>
        <time>2015-09-18T16:34:46Z</time>
      </trkpt>
      <trkpt lat="44.62446" lon="2.98689">
        <ele>1314.4</ele>
        <time>2015-09-18T16:34:48Z</time>
      </trkpt>
      <trkpt lat="44.62435" lon="2.98687">
        <ele>1314.3</ele>
        <time>2015-09-18T16:34:50Z</time>
      </trkpt>
      <trkpt lat="44.62424" lon="2.98684">
        <ele>1314.1</ele>
        <time>2015-09-18T16:34:52Z</time>
      </trkpt>
      <trkpt lat="44.62412" lon="2.98682">
        <ele>1314</ele>
        <time>2015-09-18T16:34:54Z</time>
      </trkpt>
      <trkpt lat="44.62402" lon="2.9868">
        <ele>1313.9</ele>
        <time>2015-09-18T16:34:56Z</time>
      </trkpt>
      <trkpt lat="44.62391" lon="2.98677">
        <ele>1313.7</ele>
        <time>2015-09-18T16:34:58Z</time>
      </trkpt>
      <trkpt lat="44.62381" lon="2.98676">
        <ele>1313.6</ele>
        <time>2015-09-18T16:35:00Z</time>
      </trkpt>
      <trkpt lat="44.62371" lon="2.98674">
        <ele>1313.5</ele>
        <time>2015-09-18T16:35:02Z</time>
      </trkpt>
      <trkpt lat="44.62361" lon="2.98673">
        <ele>1313.4</ele>
        <time>2015-09-18T16:35:04Z</time>
      </trkpt>
      <trkpt lat="44.62351" lon="2.98672">
        <ele>1313.3</ele>
        <time>2015-09-18T16:35:06Z</time>
      </trkpt>
      <trkpt lat="44.62342" lon="2.98672">
        <ele>1313.2</ele>
        <time>2015-09-18T16:35:08Z</time>
      </trkpt>
      <trkpt lat="44.62333" lon="2.98672">
        <ele>1313</ele>
        <time>2015-09-18T16:35:10Z</time>
      </trkpt>
      <trkpt lat="44.62324" lon="2.98673">
        <ele>1312.9</ele>
        <time>2015-09-18T16:35:12Z</time>
      </trkpt>
      <trkpt lat="44.62314" lon="2.98674">
        <ele>1312.7</ele>
        <time>2015-09-18T16:35:14Z</time>
      </trkpt>
      <trkpt lat="44.62305" lon="2.98675">
        <ele>1312.5</ele>
        <time>2015-09-18T16:35:16Z</time>
      </trkpt>
      <trkpt lat="44.62296" lon="2.98675">
        <ele>1312.3</ele>
        <time>2015-09-18T16:35:18Z</time>
      </trkpt>
      <trkpt lat="44.62286" lon="2.98676">
        <ele>1312.2</ele>
        <time>2015-09-18T16:35:20Z</time>
      </trkpt>
      <trkpt lat="44.62277" lon="2.98677">
        <ele>1312</ele>
        <time>2015-09-18T16:35:22Z</time>
      </trkpt>
      <trkpt lat="44.62268" lon="2.98679">
        <ele>1311.8</ele>
        <time>2015-09-18T16:35:24Z</time>
      </trkpt>
      <trkpt lat="44.62259" lon="2.98681">
        <ele>1311.6</ele>
        <time>2015-09-18T16:35:26Z</time>
      </trkpt>
      <trkpt lat="44.62249" lon="2.98682">
        <ele>1311.4</ele>
        <time>2015-09-18T16:35:28Z</time>
      </trkpt>
      <trkpt lat="44.62239" lon="2.98681">
        <ele>1311.2</ele>
        <time>2015-09-18T16:35:30Z</time>
      </trkpt>
      <trkpt lat="44.6223" lon="2.98678">
        <ele>1311</ele>
        <time>2015-09-18T16:35:32Z</time>
      </trkpt>
      <trkpt lat="44.6222" lon="2.98672">
        <ele>1310.8</ele>
        <time>2015-09-18T16:35:34Z</time>
      </trkpt>
      <trkpt lat="44.62213" lon="2.98664">
        <ele>1310.6</ele>
        <time>2015-09-18T16:35:36Z</time>
      </trkpt>
      <trkpt lat="44.62206" lon="2.98655">
        <ele>1310.4</ele>
        <time>2015-09-18T16:35:38Z</time>
      </trkpt>
      <trkpt lat="44.62198" lon="2.98643">
        <ele>1310.2</ele>
        <time>2015-09-18T16:35:41Z</time>
      </trkpt>
      <trkpt lat="44.62189" lon="2.9864">
        <ele>1310</ele>
        <time>2015-09-18T16:35:44Z</time>
      </trkpt>
      <trkpt lat="44.62181" lon="2.98648">
        <ele>1310</ele>
        <time>2015-09-18T16:35:47Z</time>
      </trkpt>
      <trkpt lat="44.62174" lon="2.98664">
        <ele>1309.9</ele>
        <time>2015-09-18T16:35:50Z</time>
      </trkpt>
      <trkpt lat="44.62167" lon="2.98676">
        <ele>1309.8</ele>
        <time>2015-09-18T16:35:52Z</time>
      </trkpt>
      <trkpt lat="44.62157" lon="2.98687">
        <ele>1309.6</ele>
        <time>2015-09-18T16:35:54Z</time>
      </trkpt>
      <trkpt lat="44.62145" lon="2.98696">
        <ele>1309.2</ele>
        <time>2015-09-18T16:35:56Z</time>
      </trkpt>
      <trkpt lat="44.62131" lon="2.987">
        <ele>1308.8</ele>
        <time>2015-09-18T16:35:58Z</time>
      </trkpt>
      <trkpt lat="44.62115" lon="2.98701">
        <ele>1308.4</ele>
        <time>2015-09-18T16:36:00Z</time>
      </trkpt>
      <trkpt lat="44.621" lon="2.98701">
        <ele>1308</ele>
        <time>2015-09-18T16:36:02Z</time>
      </trkpt>
      <trkpt lat="44.62084" lon="2.987">
        <ele>1307.4</ele>
        <time>2015-09-18T16:36:04Z</time>
      </trkpt>
      <trkpt lat="44.62068" lon="2.98701">
        <ele>1306.9</ele>
        <time>2015-09-18T16:36:06Z</time>
      </trkpt>
      <trkpt lat="44.62052" lon="2.98701">
        <ele>1306.3</ele>
        <time>2015-09-18T16:36:08Z</time>
      </trkpt>
      <trkpt lat="44.62037" lon="2.98703">
        <ele>1305.8</ele>
        <time>2015-09-18T16:36:10Z</time>
      </trkpt>
      <trkpt lat="44.62022" lon="2.98705">
        <ele>1305.2</ele>
        <time>2015-09-18T16:36:12Z</time>
      </trkpt>
      <trkpt lat="44.62008" lon="2.98713">
        <ele>1304.6</ele>
        <time>2015-09-18T16:36:14Z</time>
      </trkpt>
      <trkpt lat="44.61994" lon="2.98723">
        <ele>1303.9</ele>
        <time>2015-09-18T16:36:16Z</time>
      </trkpt>
      <trkpt lat="44.6198" lon="2.98734">
        <ele>1303.3</ele>
        <time>2015-09-18T16:36:18Z</time>
      </trkpt>
      <trkpt lat="44.61965" lon="2.98745">
        <ele>1302.7</ele>
        <time>2015-09-18T16:36:20Z</time>
      </trkpt>
      <trkpt lat="44.6195" lon="2.98758">
        <ele>1302.1</ele>
        <time>2015-09-18T16:36:22Z</time>
      </trkpt>
      <trkpt lat="44.61935" lon="2.9877">
        <ele>1301.4</ele>
        <time>2015-09-18T16:36:24Z</time>
      </trkpt>
      <trkpt lat="44.61927" lon="2.98777">
        <ele>1301.1</ele>
        <time>2015-09-18T16:36:25Z</time>
      </trkpt>
      <trkpt lat="44.6192" lon="2.98785">
        <ele>1300.6</ele>
        <time>2015-09-18T16:36:26Z</time>
      </trkpt>
      <trkpt lat="44.61912" lon="2.98793">
        <ele>1300.2</ele>
        <time>2015-09-18T16:36:27Z</time>
      </trkpt>
      <trkpt lat="44.61904" lon="2.98801">
        <ele>1299.8</ele>
        <time>2015-09-18T16:36:28Z</time>
      </trkpt>
      <trkpt lat="44.61897" lon="2.98811">
        <ele>1299.4</ele>
        <time>2015-09-18T16:36:29Z</time>
      </trkpt>
      <trkpt lat="44.61891" lon="2.98821">
        <ele>1299</ele>
        <time>2015-09-18T16:36:30Z</time>
      </trkpt>
      <trkpt lat="44.61885" lon="2.98833">
        <ele>1298.6</ele>
        <time>2015-09-18T16:36:31Z</time>
      </trkpt>
      <trkpt lat="44.61879" lon="2.98844">
        <ele>1298.2</ele>
        <time>2015-09-18T16:36:32Z</time>
      </trkpt>
      <trkpt lat="44.61873" lon="2.98854">
        <ele>1297.7</ele>
        <time>2015-09-18T16:36:33Z</time>
      </trkpt>
      <trkpt lat="44.61865" lon="2.98864">
        <ele>1297.2</ele>
        <time>2015-09-18T16:36:34Z</time>
      </trkpt>
      <trkpt lat="44.61857" lon="2.98872">
        <ele>1296.8</ele>
        <time>2015-09-18T16:36:35Z</time>
      </trkpt>
      <trkpt lat="44.61848" lon="2.98879">
        <ele>1296.3</ele>
        <time>2015-09-18T16:36:36Z</time>
      </trkpt>
      <trkpt lat="44.61839" lon="2.98885">
        <ele>1295.7</ele>
        <time>2015-09-18T16:36:37Z</time>
      </trkpt>
      <trkpt lat="44.61829" lon="2.9889">
        <ele>1295.2</ele>
        <time>2015-09-18T16:36:38Z</time>
      </trkpt>
      <trkpt lat="44.61819" lon="2.98892">
        <ele>1294.6</ele>
        <time>2015-09-18T16:36:39Z</time>
      </trkpt>
      <trkpt lat="44.61809" lon="2.98891">
        <ele>1293.9</ele>
        <time>2015-09-18T16:36:40Z</time>
      </trkpt>
      <trkpt lat="44.61799" lon="2.98887">
        <ele>1293.3</ele>
        <time>2015-09-18T16:36:41Z</time>
      </trkpt>
      <trkpt lat="44.6179" lon="2.98881">
        <ele>1292.7</ele>
        <time>2015-09-18T16:36:42Z</time>
      </trkpt>
      <trkpt lat="44.61781" lon="2.98873">
        <ele>1292</ele>
        <time>2015-09-18T16:36:43Z</time>
      </trkpt>
      <trkpt lat="44.61774" lon="2.98864">
        <ele>1291.4</ele>
        <time>2015-09-18T16:36:44Z</time>
      </trkpt>
      <trkpt lat="44.61768" lon="2.98852">
        <ele>1290.7</ele>
        <time>2015-09-18T16:36:45Z</time>
      </trkpt>
      <trkpt lat="44.61764" lon="2.98839">
        <ele>1290.1</ele>
        <time>2015-09-18T16:36:46Z</time>
      </trkpt>
      <trkpt lat="44.61762" lon="2.98824">
        <ele>1289.4</ele>
        <time>2015-09-18T16:36:47Z</time>
      </trkpt>
      <trkpt lat="44.61761" lon="2.9881">
        <ele>1288.6</ele>
        <time>2015-09-18T16:36:48Z</time>
      </trkpt>
      <trkpt lat="44.61761" lon="2.98795">
        <ele>1287.9</ele>
        <time>2015-09-18T16:36:49Z</time>
      </trkpt>
      <trkpt lat="44.61761" lon="2.9878">
        <ele>1287.3</ele>
        <time>2015-09-18T16:36:50Z</time>
      </trkpt>
      <trkpt lat="44.6176" lon="2.98766">
        <ele>1286.5</ele>
        <time>2015-09-18T16:36:51Z</time>
      </trkpt>
      <trkpt lat="44.61758" lon="2.98752">
        <ele>1285.8</ele>
        <time>2015-09-18T16:36:52Z</time>
      </trkpt>
      <trkpt lat="44.61754" lon="2.98739">
        <ele>1285.1</ele>
        <time>2015-09-18T16:36:53Z</time>
      </trkpt>
      <trkpt lat="44.61748" lon="2.98727">
        <ele>1284.4</ele>
        <time>2015-09-18T16:36:54Z</time>
      </trkpt>
      <trkpt lat="44.61742" lon="2.98716">
        <ele>1283.8</ele>
        <time>2015-09-18T16:36:55Z</time>
      </trkpt>
      <trkpt lat="44.61736" lon="2.98706">
        <ele>1283.1</ele>
        <time>2015-09-18T16:36:56Z</time>
      </trkpt>
      <trkpt lat="44.61729" lon="2.98695">
        <ele>1282.5</ele>
        <time>2015-09-18T16:36:57Z</time>
      </trkpt>
      <trkpt lat="44.61723" lon="2.98685">
        <ele>1281.8</ele>
        <time>2015-09-18T16:36:58Z</time>
      </trkpt>
      <trkpt lat="44.61716" lon="2.98674">
        <ele>1281.2</ele>
        <time>2015-09-18T16:36:59Z</time>
      </trkpt>
      <trkpt lat="44.61709" lon="2.98665">
        <ele>1280.6</ele>
        <time>2015-09-18T16:37:00Z</time>
      </trkpt>
      <trkpt lat="44.61701" lon="2.98658">
        <ele>1279.9</ele>
        <time>2015-09-18T16:37:01Z</time>
      </trkpt>
      <trkpt lat="44.61691" lon="2.98656">
        <ele>1279.4</ele>
        <time>2015-09-18T16:37:02Z</time>
      </trkpt>
      <trkpt lat="44.61681" lon="2.98656">
        <ele>1278.7</ele>
        <time>2015-09-18T16:37:03Z</time>
      </trkpt>
      <trkpt lat="44.61671" lon="2.98658">
        <ele>1278.1</ele>
        <time>2015-09-18T16:37:04Z</time>
      </trkpt>
      <trkpt lat="44.61662" lon="2.98663">
        <ele>1277.5</ele>
        <time>2015-09-18T16:37:05Z</time>
      </trkpt>
      <trkpt lat="44.61652" lon="2.98669">
        <ele>1276.8</ele>
        <time>2015-09-18T16:37:06Z</time>
      </trkpt>
      <trkpt lat="44.61643" lon="2.98675">
        <ele>1276.1</ele>
        <time>2015-09-18T16:37:07Z</time>
      </trkpt>
      <trkpt lat="44.61633" lon="2.98681">
        <ele>1275.4</ele>
        <time>2015-09-18T16:37:08Z</time>
      </trkpt>
      <trkpt lat="44.61623" lon="2.98687">
        <ele>1274.7</ele>
        <time>2015-09-18T16:37:09Z</time>
      </trkpt>
      <trkpt lat="44.61613" lon="2.98694">
        <ele>1274</ele>
        <time>2015-09-18T16:37:10Z</time>
      </trkpt>
      <trkpt lat="44.61604" lon="2.98702">
        <ele>1273.3</ele>
        <time>2015-09-18T16:37:11Z</time>
      </trkpt>
      <trkpt lat="44.61596" lon="2.98713">
        <ele>1272.6</ele>
        <time>2015-09-18T16:37:12Z</time>
      </trkpt>
      <trkpt lat="44.61588" lon="2.98725">
        <ele>1271.9</ele>
        <time>2015-09-18T16:37:13Z</time>
      </trkpt>
      <trkpt lat="44.6158" lon="2.98737">
        <ele>1271.2</ele>
        <time>2015-09-18T16:37:14Z</time>
      </trkpt>
      <trkpt lat="44.61573" lon="2.9875">
        <ele>1270.5</ele>
        <time>2015-09-18T16:37:15Z</time>
      </trkpt>
      <trkpt lat="44.61566" lon="2.98763">
        <ele>1269.8</ele>
        <time>2015-09-18T16:37:16Z</time>
      </trkpt>
      <trkpt lat="44.61559" lon="2.98776">
        <ele>1269.1</ele>
        <time>2015-09-18T16:37:17Z</time>
      </trkpt>
      <trkpt lat="44.61552" lon="2.98789">
        <ele>1268.3</ele>
        <time>2015-09-18T16:37:18Z</time>
      </trkpt>
      <trkpt lat="44.61544" lon="2.98803">
        <ele>1267.6</ele>
        <time>2015-09-18T16:37:19Z</time>
      </trkpt>
      <trkpt lat="44.61537" lon="2.98815">
        <ele>1266.9</ele>
        <time>2015-09-18T16:37:20Z</time>
      </trkpt>
      <trkpt lat="44.6153" lon="2.98828">
        <ele>1266.1</ele>
        <time>2015-09-18T16:37:21Z</time>
      </trkpt>
      <trkpt lat="44.61522" lon="2.9884">
        <ele>1265.4</ele>
        <time>2015-09-18T16:37:22Z</time>
      </trkpt>
      <trkpt lat="44.61513" lon="2.98851">
        <ele>1264.6</ele>
        <time>2015-09-18T16:37:23Z</time>
      </trkpt>
      <trkpt lat="44.61502" lon="2.98858">
        <ele>1263.9</ele>
        <time>2015-09-18T16:37:24Z</time>
      </trkpt>
      <trkpt lat="44.61491" lon="2.98863">
        <ele>1263.2</ele>
        <time>2015-09-18T16:37:25Z</time>
      </trkpt>
      <trkpt lat="44.61479" lon="2.98863">
        <ele>1262.5</ele>
        <time>2015-09-18T16:37:26Z</time>
      </trkpt>
      <trkpt lat="44.61468" lon="2.98859">
        <ele>1261.7</ele>
        <time>2015-09-18T16:37:27Z</time>
      </trkpt>
      <trkpt lat="44.61457" lon="2.98853">
        <ele>1260.9</ele>
        <time>2015-09-18T16:37:28Z</time>
      </trkpt>
      <trkpt lat="44.61448" lon="2.98845">
        <ele>1260.2</ele>
        <time>2015-09-18T16:37:29Z</time>
      </trkpt>
      <trkpt lat="44.61438" lon="2.98837">
        <ele>1259.4</ele>
        <time>2015-09-18T16:37:30Z</time>
      </trkpt>
      <trkpt lat="44.61429" lon="2.98828">
        <ele>1258.7</ele>
        <time>2015-09-18T16:37:31Z</time>
      </trkpt>
      <trkpt lat="44.61419" lon="2.9882">
        <ele>1258</ele>
        <time>2015-09-18T16:37:32Z</time>
      </trkpt>
      <trkpt lat="44.6141" lon="2.98811">
        <ele>1257.3</ele>
        <time>2015-09-18T16:37:33Z</time>
      </trkpt>
      <trkpt lat="44.61401" lon="2.98803">
        <ele>1256.6</ele>
        <time>2015-09-18T16:37:34Z</time>
      </trkpt>
      <trkpt lat="44.61391" lon="2.98796">
        <ele>1255.8</ele>
        <time>2015-09-18T16:37:35Z</time>
      </trkpt>
      <trkpt lat="44.61381" lon="2.98788">
        <ele>1255.1</ele>
        <time>2015-09-18T16:37:36Z</time>
      </trkpt>
      <trkpt lat="44.61371" lon="2.9878">
        <ele>1254.4</ele>
        <time>2015-09-18T16:37:37Z</time>
      </trkpt>
      <trkpt lat="44.61361" lon="2.98771">
        <ele>1253.6</ele>
        <time>2015-09-18T16:37:38Z</time>
      </trkpt>
      <trkpt lat="44.61352" lon="2.9876">
        <ele>1252.8</ele>
        <time>2015-09-18T16:37:39Z</time>
      </trkpt>
      <trkpt lat="44.61345" lon="2.98747">
        <ele>1252</ele>
        <time>2015-09-18T16:37:40Z</time>
      </trkpt>
      <trkpt lat="44.61339" lon="2.98731">
        <ele>1251.1</ele>
        <time>2015-09-18T16:37:41Z</time>
      </trkpt>
      <trkpt lat="44.61336" lon="2.98716">
        <ele>1250.3</ele>
        <time>2015-09-18T16:37:42Z</time>
      </trkpt>
      <trkpt lat="44.61334" lon="2.98699">
        <ele>1249.4</ele>
        <time>2015-09-18T16:37:43Z</time>
      </trkpt>
      <trkpt lat="44.61332" lon="2.98683">
        <ele>1248.5</ele>
        <time>2015-09-18T16:37:44Z</time>
      </trkpt>
      <trkpt lat="44.61332" lon="2.98666">
        <ele>1247.6</ele>
        <time>2015-09-18T16:37:45Z</time>
      </trkpt>
      <trkpt lat="44.61332" lon="2.9865">
        <ele>1246.7</ele>
        <time>2015-09-18T16:37:46Z</time>
      </trkpt>
      <trkpt lat="44.61333" lon="2.98633">
        <ele>1245.8</ele>
        <time>2015-09-18T16:37:47Z</time>
      </trkpt>
      <trkpt lat="44.61334" lon="2.98617">
        <ele>1245</ele>
        <time>2015-09-18T16:37:48Z</time>
      </trkpt>
      <trkpt lat="44.61337" lon="2.98601">
        <ele>1244.1</ele>
        <time>2015-09-18T16:37:49Z</time>
      </trkpt>
      <trkpt lat="44.61339" lon="2.98586">
        <ele>1243.3</ele>
        <time>2015-09-18T16:37:50Z</time>
      </trkpt>
      <trkpt lat="44.61341" lon="2.9857">
        <ele>1242.4</ele>
        <time>2015-09-18T16:37:51Z</time>
      </trkpt>
      <trkpt lat="44.61343" lon="2.98555">
        <ele>1241.6</ele>
        <time>2015-09-18T16:37:52Z</time>
      </trkpt>
      <trkpt lat="44.61346" lon="2.98541">
        <ele>1240.7</ele>
        <time>2015-09-18T16:37:53Z</time>
      </trkpt>
      <trkpt lat="44.61349" lon="2.98526">
        <ele>1239.9</ele>
        <time>2015-09-18T16:37:54Z</time>
      </trkpt>
      <trkpt lat="44.61351" lon="2.98512">
        <ele>1239.1</ele>
        <time>2015-09-18T16:37:55Z</time>
      </trkpt>
      <trkpt lat="44.61354" lon="2.98498">
        <ele>1238.2</ele>
        <time>2015-09-18T16:37:56Z</time>
      </trkpt>
      <trkpt lat="44.61357" lon="2.98483">
        <ele>1237.4</ele>
        <time>2015-09-18T16:37:57Z</time>
      </trkpt>
      <trkpt lat="44.6136" lon="2.98469">
        <ele>1236.7</ele>
        <time>2015-09-18T16:37:58Z</time>
      </trkpt>
      <trkpt lat="44.61362" lon="2.98455">
        <ele>1235.9</ele>
        <time>2015-09-18T16:37:59Z</time>
      </trkpt>
      <trkpt lat="44.61364" lon="2.9844">
        <ele>1235.1</ele>
        <time>2015-09-18T16:38:00Z</time>
      </trkpt>
      <trkpt lat="44.61366" lon="2.98425">
        <ele>1234.4</ele>
        <time>2015-09-18T16:38:01Z</time>
      </trkpt>
      <trkpt lat="44.61368" lon="2.9841">
        <ele>1233.6</ele>
        <time>2015-09-18T16:38:02Z</time>
      </trkpt>
      <trkpt lat="44.61369" lon="2.98395">
        <ele>1232.9</ele>
        <time>2015-09-18T16:38:03Z</time>
      </trkpt>
      <trkpt lat="44.61369" lon="2.98379">
        <ele>1232.1</ele>
        <time>2015-09-18T16:38:04Z</time>
      </trkpt>
      <trkpt lat="44.6137" lon="2.98364">
        <ele>1231.4</ele>
        <time>2015-09-18T16:38:05Z</time>
      </trkpt>
      <trkpt lat="44.6137" lon="2.98348">
        <ele>1230.6</ele>
        <time>2015-09-18T16:38:06Z</time>
      </trkpt>
      <trkpt lat="44.6137" lon="2.98333">
        <ele>1229.9</ele>
        <time>2015-09-18T16:38:07Z</time>
      </trkpt>
      <trkpt lat="44.61371" lon="2.98317">
        <ele>1229.2</ele>
        <time>2015-09-18T16:38:08Z</time>
      </trkpt>
      <trkpt lat="44.61372" lon="2.98302">
        <ele>1228.4</ele>
        <time>2015-09-18T16:38:09Z</time>
      </trkpt>
      <trkpt lat="44.61373" lon="2.98287">
        <ele>1227.7</ele>
        <time>2015-09-18T16:38:10Z</time>
      </trkpt>
      <trkpt lat="44.61374" lon="2.98272">
        <ele>1227</ele>
        <time>2015-09-18T16:38:11Z</time>
      </trkpt>
      <trkpt lat="44.61374" lon="2.98256">
        <ele>1226.3</ele>
        <time>2015-09-18T16:38:12Z</time>
      </trkpt>
      <trkpt lat="44.61374" lon="2.98241">
        <ele>1225.6</ele>
        <time>2015-09-18T16:38:13Z</time>
      </trkpt>
      <trkpt lat="44.61374" lon="2.98226">
        <ele>1224.9</ele>
        <time>2015-09-18T16:38:14Z</time>
      </trkpt>
      <trkpt lat="44.61373" lon="2.98211">
        <ele>1224.2</ele>
        <time>2015-09-18T16:38:15Z</time>
      </trkpt>
      <trkpt lat="44.61371" lon="2.98195">
        <ele>1223.5</ele>
        <time>2015-09-18T16:38:16Z</time>
      </trkpt>
      <trkpt lat="44.61371" lon="2.98179">
        <ele>1222.8</ele>
        <time>2015-09-18T16:38:17Z</time>
      </trkpt>
      <trkpt lat="44.61369" lon="2.98164">
        <ele>1222</ele>
        <time>2015-09-18T16:38:18Z</time>
      </trkpt>
      <trkpt lat="44.61368" lon="2.98148">
        <ele>1221.2</ele>
        <time>2015-09-18T16:38:19Z</time>
      </trkpt>
      <trkpt lat="44.61367" lon="2.98132">
        <ele>1220.5</ele>
        <time>2015-09-18T16:38:20Z</time>
      </trkpt>
      <trkpt lat="44.61366" lon="2.98116">
        <ele>1219.7</ele>
        <time>2015-09-18T16:38:21Z</time>
      </trkpt>
      <trkpt lat="44.61364" lon="2.981">
        <ele>1219</ele>
        <time>2015-09-18T16:38:22Z</time>
      </trkpt>
      <trkpt lat="44.61363" lon="2.98085">
        <ele>1218.1</ele>
        <time>2015-09-18T16:38:23Z</time>
      </trkpt>
      <trkpt lat="44.61362" lon="2.9807">
        <ele>1217.3</ele>
        <time>2015-09-18T16:38:24Z</time>
      </trkpt>
      <trkpt lat="44.61361" lon="2.98055">
        <ele>1216.6</ele>
        <time>2015-09-18T16:38:25Z</time>
      </trkpt>
      <trkpt lat="44.61359" lon="2.98041">
        <ele>1215.9</ele>
        <time>2015-09-18T16:38:26Z</time>
      </trkpt>
      <trkpt lat="44.61357" lon="2.98026">
        <ele>1215.1</ele>
        <time>2015-09-18T16:38:27Z</time>
      </trkpt>
      <trkpt lat="44.61356" lon="2.98012">
        <ele>1214.4</ele>
        <time>2015-09-18T16:38:28Z</time>
      </trkpt>
      <trkpt lat="44.61353" lon="2.97998">
        <ele>1213.7</ele>
        <time>2015-09-18T16:38:29Z</time>
      </trkpt>
      <trkpt lat="44.61351" lon="2.97983">
        <ele>1212.9</ele>
        <time>2015-09-18T16:38:30Z</time>
      </trkpt>
      <trkpt lat="44.61349" lon="2.97969">
        <ele>1212.2</ele>
        <time>2015-09-18T16:38:31Z</time>
      </trkpt>
      <trkpt lat="44.61347" lon="2.97955">
        <ele>1211.4</ele>
        <time>2015-09-18T16:38:32Z</time>
      </trkpt>
      <trkpt lat="44.61345" lon="2.97941">
        <ele>1210.6</ele>
        <time>2015-09-18T16:38:33Z</time>
      </trkpt>
      <trkpt lat="44.61342" lon="2.97928">
        <ele>1209.9</ele>
        <time>2015-09-18T16:38:34Z</time>
      </trkpt>
      <trkpt lat="44.6134" lon="2.97915">
        <ele>1209.2</ele>
        <time>2015-09-18T16:38:35Z</time>
      </trkpt>
      <trkpt lat="44.61338" lon="2.97901">
        <ele>1208.5</ele>
        <time>2015-09-18T16:38:36Z</time>
      </trkpt>
      <trkpt lat="44.61335" lon="2.97889">
        <ele>1207.8</ele>
        <time>2015-09-18T16:38:37Z</time>
      </trkpt>
      <trkpt lat="44.61332" lon="2.97876">
        <ele>1207.1</ele>
        <time>2015-09-18T16:38:38Z</time>
      </trkpt>
      <trkpt lat="44.61329" lon="2.97863">
        <ele>1206.5</ele>
        <time>2015-09-18T16:38:39Z</time>
      </trkpt>
      <trkpt lat="44.61326" lon="2.9785">
        <ele>1205.7</ele>
        <time>2015-09-18T16:38:40Z</time>
      </trkpt>
      <trkpt lat="44.61322" lon="2.97837">
        <ele>1205</ele>
        <time>2015-09-18T16:38:41Z</time>
      </trkpt>
      <trkpt lat="44.61318" lon="2.97824">
        <ele>1204.3</ele>
        <time>2015-09-18T16:38:42Z</time>
      </trkpt>
      <trkpt lat="44.61314" lon="2.97811">
        <ele>1203.6</ele>
        <time>2015-09-18T16:38:43Z</time>
      </trkpt>
      <trkpt lat="44.61309" lon="2.97798">
        <ele>1202.9</ele>
        <time>2015-09-18T16:38:44Z</time>
      </trkpt>
      <trkpt lat="44.61304" lon="2.97785">
        <ele>1202.2</ele>
        <time>2015-09-18T16:38:45Z</time>
      </trkpt>
      <trkpt lat="44.61299" lon="2.97772">
        <ele>1201.5</ele>
        <time>2015-09-18T16:38:46Z</time>
      </trkpt>
      <trkpt lat="44.61294" lon="2.97759">
        <ele>1200.9</ele>
        <time>2015-09-18T16:38:47Z</time>
      </trkpt>
      <trkpt lat="44.61289" lon="2.97747">
        <ele>1200.2</ele>
        <time>2015-09-18T16:38:48Z</time>
      </trkpt>
      <trkpt lat="44.61282" lon="2.97734">
        <ele>1199.5</ele>
        <time>2015-09-18T16:38:49Z</time>
      </trkpt>
      <trkpt lat="44.61276" lon="2.97722">
        <ele>1198.8</ele>
        <time>2015-09-18T16:38:50Z</time>
      </trkpt>
      <trkpt lat="44.6127" lon="2.9771">
        <ele>1198.1</ele>
        <time>2015-09-18T16:38:51Z</time>
      </trkpt>
      <trkpt lat="44.61263" lon="2.97698">
        <ele>1197.3</ele>
        <time>2015-09-18T16:38:52Z</time>
      </trkpt>
      <trkpt lat="44.61257" lon="2.97686">
        <ele>1196.6</ele>
        <time>2015-09-18T16:38:53Z</time>
      </trkpt>
      <trkpt lat="44.6125" lon="2.97674">
        <ele>1195.9</ele>
        <time>2015-09-18T16:38:54Z</time>
      </trkpt>
      <trkpt lat="44.61244" lon="2.97662">
        <ele>1195.2</ele>
        <time>2015-09-18T16:38:55Z</time>
      </trkpt>
      <trkpt lat="44.61237" lon="2.97651">
        <ele>1194.5</ele>
        <time>2015-09-18T16:38:56Z</time>
      </trkpt>
      <trkpt lat="44.6123" lon="2.97639">
        <ele>1193.8</ele>
        <time>2015-09-18T16:38:57Z</time>
      </trkpt>
      <trkpt lat="44.61224" lon="2.97627">
        <ele>1193.1</ele>
        <time>2015-09-18T16:38:58Z</time>
      </trkpt>
      <trkpt lat="44.61218" lon="2.97615">
        <ele>1192.3</ele>
        <time>2015-09-18T16:38:59Z</time>
      </trkpt>
      <trkpt lat="44.61212" lon="2.97602">
        <ele>1191.6</ele>
        <time>2015-09-18T16:39:00Z</time>
      </trkpt>
      <trkpt lat="44.61206" lon="2.9759">
        <ele>1190.9</ele>
        <time>2015-09-18T16:39:01Z</time>
      </trkpt>
      <trkpt lat="44.612" lon="2.97577">
        <ele>1190.2</ele>
        <time>2015-09-18T16:39:02Z</time>
      </trkpt>
      <trkpt lat="44.61195" lon="2.97565">
        <ele>1189.5</ele>
        <time>2015-09-18T16:39:03Z</time>
      </trkpt>
      <trkpt lat="44.6119" lon="2.97552">
        <ele>1188.8</ele>
        <time>2015-09-18T16:39:04Z</time>
      </trkpt>
      <trkpt lat="44.61184" lon="2.97539">
        <ele>1188.1</ele>
        <time>2015-09-18T16:39:05Z</time>
      </trkpt>
      <trkpt lat="44.61179" lon="2.97526">
        <ele>1187.4</ele>
        <time>2015-09-18T16:39:06Z</time>
      </trkpt>
      <trkpt lat="44.61175" lon="2.97513">
        <ele>1186.7</ele>
        <time>2015-09-18T16:39:07Z</time>
      </trkpt>
      <trkpt lat="44.6117" lon="2.975">
        <ele>1186</ele>
        <time>2015-09-18T16:39:08Z</time>
      </trkpt>
      <trkpt lat="44.61166" lon="2.97485">
        <ele>1185.2</ele>
        <time>2015-09-18T16:39:09Z</time>
      </trkpt>
      <trkpt lat="44.61163" lon="2.97471">
        <ele>1184.5</ele>
        <time>2015-09-18T16:39:10Z</time>
      </trkpt>
      <trkpt lat="44.6116" lon="2.97457">
        <ele>1183.7</ele>
        <time>2015-09-18T16:39:11Z</time>
      </trkpt>
      <trkpt lat="44.61156" lon="2.97444">
        <ele>1183</ele>
        <time>2015-09-18T16:39:12Z</time>
      </trkpt>
      <trkpt lat="44.61152" lon="2.97431">
        <ele>1182.4</ele>
        <time>2015-09-18T16:39:13Z</time>
      </trkpt>
      <trkpt lat="44.61147" lon="2.97418">
        <ele>1181.6</ele>
        <time>2015-09-18T16:39:14Z</time>
      </trkpt>
      <trkpt lat="44.61143" lon="2.97405">
        <ele>1180.9</ele>
        <time>2015-09-18T16:39:15Z</time>
      </trkpt>
      <trkpt lat="44.61139" lon="2.97391">
        <ele>1180.2</ele>
        <time>2015-09-18T16:39:16Z</time>
      </trkpt>
      <trkpt lat="44.61137" lon="2.97376">
        <ele>1179.4</ele>
        <time>2015-09-18T16:39:17Z</time>
      </trkpt>
      <trkpt lat="44.61135" lon="2.97362">
        <ele>1178.7</ele>
        <time>2015-09-18T16:39:18Z</time>
      </trkpt>
      <trkpt lat="44.61133" lon="2.97347">
        <ele>1177.9</ele>
        <time>2015-09-18T16:39:19Z</time>
      </trkpt>
      <trkpt lat="44.61133" lon="2.97332">
        <ele>1177.2</ele>
        <time>2015-09-18T16:39:20Z</time>
      </trkpt>
      <trkpt lat="44.61132" lon="2.97318">
        <ele>1176.4</ele>
        <time>2015-09-18T16:39:21Z</time>
      </trkpt>
      <trkpt lat="44.61132" lon="2.97303">
        <ele>1175.7</ele>
        <time>2015-09-18T16:39:22Z</time>
      </trkpt>
      <trkpt lat="44.61132" lon="2.97289">
        <ele>1174.9</ele>
        <time>2015-09-18T16:39:23Z</time>
      </trkpt>
      <trkpt lat="44.61133" lon="2.97275">
        <ele>1174.2</ele>
        <time>2015-09-18T16:39:24Z</time>
      </trkpt>
      <trkpt lat="44.61135" lon="2.97261">
        <ele>1173.5</ele>
        <time>2015-09-18T16:39:25Z</time>
      </trkpt>
      <trkpt lat="44.61137" lon="2.97248">
        <ele>1172.8</ele>
        <time>2015-09-18T16:39:26Z</time>
      </trkpt>
      <trkpt lat="44.61139" lon="2.97234">
        <ele>1172.1</ele>
        <time>2015-09-18T16:39:27Z</time>
      </trkpt>
      <trkpt lat="44.61142" lon="2.97221">
        <ele>1171.4</ele>
        <time>2015-09-18T16:39:28Z</time>
      </trkpt>
      <trkpt lat="44.61144" lon="2.97207">
        <ele>1170.7</ele>
        <time>2015-09-18T16:39:29Z</time>
      </trkpt>
      <trkpt lat="44.61147" lon="2.97193">
        <ele>1170</ele>
        <time>2015-09-18T16:39:30Z</time>
      </trkpt>
      <trkpt lat="44.61149" lon="2.9718">
        <ele>1169.2</ele>
        <time>2015-09-18T16:39:31Z</time>
      </trkpt>
      <trkpt lat="44.61152" lon="2.97166">
        <ele>1168.5</ele>
        <time>2015-09-18T16:39:32Z</time>
      </trkpt>
      <trkpt lat="44.61154" lon="2.97151">
        <ele>1167.8</ele>
        <time>2015-09-18T16:39:33Z</time>
      </trkpt>
      <trkpt lat="44.61156" lon="2.97137">
        <ele>1167.1</ele>
        <time>2015-09-18T16:39:34Z</time>
      </trkpt>
      <trkpt lat="44.6116" lon="2.97123">
        <ele>1166.3</ele>
        <time>2015-09-18T16:39:35Z</time>
      </trkpt>
      <trkpt lat="44.61165" lon="2.9711">
        <ele>1165.6</ele>
        <time>2015-09-18T16:39:36Z</time>
      </trkpt>
      <trkpt lat="44.61172" lon="2.97099">
        <ele>1164.9</ele>
        <time>2015-09-18T16:39:37Z</time>
      </trkpt>
      <trkpt lat="44.6118" lon="2.97089">
        <ele>1164.2</ele>
        <time>2015-09-18T16:39:38Z</time>
      </trkpt>
      <trkpt lat="44.61186" lon="2.97077">
        <ele>1163.5</ele>
        <time>2015-09-18T16:39:39Z</time>
      </trkpt>
      <trkpt lat="44.61193" lon="2.97065">
        <ele>1162.7</ele>
        <time>2015-09-18T16:39:40Z</time>
      </trkpt>
      <trkpt lat="44.61197" lon="2.97051">
        <ele>1162.1</ele>
        <time>2015-09-18T16:39:41Z</time>
      </trkpt>
      <trkpt lat="44.612" lon="2.97037">
        <ele>1161.4</ele>
        <time>2015-09-18T16:39:42Z</time>
      </trkpt>
      <trkpt lat="44.61202" lon="2.97022">
        <ele>1160.7</ele>
        <time>2015-09-18T16:39:43Z</time>
      </trkpt>
      <trkpt lat="44.61202" lon="2.97008">
        <ele>1159.9</ele>
        <time>2015-09-18T16:39:44Z</time>
      </trkpt>
      <trkpt lat="44.61203" lon="2.96994">
        <ele>1159.2</ele>
        <time>2015-09-18T16:39:45Z</time>
      </trkpt>
      <trkpt lat="44.61203" lon="2.96979">
        <ele>1158.5</ele>
        <time>2015-09-18T16:39:46Z</time>
      </trkpt>
      <trkpt lat="44.61203" lon="2.96964">
        <ele>1157.8</ele>
        <time>2015-09-18T16:39:47Z</time>
      </trkpt>
      <trkpt lat="44.61202" lon="2.96949">
        <ele>1157.2</ele>
        <time>2015-09-18T16:39:48Z</time>
      </trkpt>
      <trkpt lat="44.61202" lon="2.96934">
        <ele>1156.4</ele>
        <time>2015-09-18T16:39:49Z</time>
      </trkpt>
      <trkpt lat="44.61202" lon="2.96919">
        <ele>1155.7</ele>
        <time>2015-09-18T16:39:50Z</time>
      </trkpt>
      <trkpt lat="44.61202" lon="2.96904">
        <ele>1155</ele>
        <time>2015-09-18T16:39:51Z</time>
      </trkpt>
      <trkpt lat="44.61201" lon="2.96889">
        <ele>1154.2</ele>
        <time>2015-09-18T16:39:52Z</time>
      </trkpt>
      <trkpt lat="44.612" lon="2.96874">
        <ele>1153.5</ele>
        <time>2015-09-18T16:39:53Z</time>
      </trkpt>
      <trkpt lat="44.61198" lon="2.96859">
        <ele>1152.8</ele>
        <time>2015-09-18T16:39:54Z</time>
      </trkpt>
      <trkpt lat="44.61194" lon="2.96846">
        <ele>1152.1</ele>
        <time>2015-09-18T16:39:55Z</time>
      </trkpt>
      <trkpt lat="44.61187" lon="2.96836">
        <ele>1151.3</ele>
        <time>2015-09-18T16:39:56Z</time>
      </trkpt>
      <trkpt lat="44.61178" lon="2.96829">
        <ele>1150.6</ele>
        <time>2015-09-18T16:39:57Z</time>
      </trkpt>
      <trkpt lat="44.61168" lon="2.96826">
        <ele>1149.9</ele>
        <time>2015-09-18T16:39:58Z</time>
      </trkpt>
      <trkpt lat="44.61158" lon="2.96828">
        <ele>1149.2</ele>
        <time>2015-09-18T16:39:59Z</time>
      </trkpt>
      <trkpt lat="44.61149" lon="2.96834">
        <ele>1148.6</ele>
        <time>2015-09-18T16:40:00Z</time>
      </trkpt>
      <trkpt lat="44.61141" lon="2.96842">
        <ele>1147.9</ele>
        <time>2015-09-18T16:40:01Z</time>
      </trkpt>
      <trkpt lat="44.61134" lon="2.96851">
        <ele>1147.2</ele>
        <time>2015-09-18T16:40:02Z</time>
      </trkpt>
      <trkpt lat="44.61127" lon="2.9686">
        <ele>1146.5</ele>
        <time>2015-09-18T16:40:03Z</time>
      </trkpt>
      <trkpt lat="44.61121" lon="2.9687">
        <ele>1145.9</ele>
        <time>2015-09-18T16:40:04Z</time>
      </trkpt>
      <trkpt lat="44.61115" lon="2.9688">
        <ele>1145.3</ele>
        <time>2015-09-18T16:40:05Z</time>
      </trkpt>
      <trkpt lat="44.61109" lon="2.9689">
        <ele>1144.7</ele>
        <time>2015-09-18T16:40:06Z</time>
      </trkpt>
      <trkpt lat="44.61103" lon="2.969">
        <ele>1144.2</ele>
        <time>2015-09-18T16:40:07Z</time>
      </trkpt>
      <trkpt lat="44.61093" lon="2.9692">
        <ele>1143.1</ele>
        <time>2015-09-18T16:40:09Z</time>
      </trkpt>
      <trkpt lat="44.61081" lon="2.96939">
        <ele>1142.2</ele>
        <time>2015-09-18T16:40:11Z</time>
      </trkpt>
      <trkpt lat="44.61068" lon="2.96953">
        <ele>1141.2</ele>
        <time>2015-09-18T16:40:13Z</time>
      </trkpt>
      <trkpt lat="44.61053" lon="2.96963">
        <ele>1140.3</ele>
        <time>2015-09-18T16:40:15Z</time>
      </trkpt>
      <trkpt lat="44.61037" lon="2.9697">
        <ele>1139.4</ele>
        <time>2015-09-18T16:40:17Z</time>
      </trkpt>
      <trkpt lat="44.61019" lon="2.96972">
        <ele>1138.6</ele>
        <time>2015-09-18T16:40:19Z</time>
      </trkpt>
      <trkpt lat="44.61002" lon="2.96969">
        <ele>1137.7</ele>
        <time>2015-09-18T16:40:21Z</time>
      </trkpt>
      <trkpt lat="44.60985" lon="2.96961">
        <ele>1136.9</ele>
        <time>2015-09-18T16:40:23Z</time>
      </trkpt>
      <trkpt lat="44.60977" lon="2.96954">
        <ele>1136.4</ele>
        <time>2015-09-18T16:40:24Z</time>
      </trkpt>
      <trkpt lat="44.60971" lon="2.96946">
        <ele>1136</ele>
        <time>2015-09-18T16:40:25Z</time>
      </trkpt>
      <trkpt lat="44.60965" lon="2.96936">
        <ele>1135.5</ele>
        <time>2015-09-18T16:40:26Z</time>
      </trkpt>
      <trkpt lat="44.60955" lon="2.96914">
        <ele>1134.5</ele>
        <time>2015-09-18T16:40:28Z</time>
      </trkpt>
      <trkpt lat="44.60949" lon="2.96905">
        <ele>1134.1</ele>
        <time>2015-09-18T16:40:29Z</time>
      </trkpt>
      <trkpt lat="44.60942" lon="2.96896">
        <ele>1133.6</ele>
        <time>2015-09-18T16:40:30Z</time>
      </trkpt>
      <trkpt lat="44.60934" lon="2.96887">
        <ele>1133.1</ele>
        <time>2015-09-18T16:40:31Z</time>
      </trkpt>
      <trkpt lat="44.60926" lon="2.96879">
        <ele>1132.6</ele>
        <time>2015-09-18T16:40:32Z</time>
      </trkpt>
      <trkpt lat="44.60919" lon="2.9687">
        <ele>1132</ele>
        <time>2015-09-18T16:40:33Z</time>
      </trkpt>
      <trkpt lat="44.60912" lon="2.9686">
        <ele>1131.5</ele>
        <time>2015-09-18T16:40:34Z</time>
      </trkpt>
      <trkpt lat="44.60906" lon="2.96849">
        <ele>1130.8</ele>
        <time>2015-09-18T16:40:35Z</time>
      </trkpt>
      <trkpt lat="44.60901" lon="2.96837">
        <ele>1130.2</ele>
        <time>2015-09-18T16:40:36Z</time>
      </trkpt>
      <trkpt lat="44.60896" lon="2.96825">
        <ele>1129.7</ele>
        <time>2015-09-18T16:40:37Z</time>
      </trkpt>
      <trkpt lat="44.6089" lon="2.96812">
        <ele>1129.1</ele>
        <time>2015-09-18T16:40:38Z</time>
      </trkpt>
      <trkpt lat="44.60885" lon="2.968">
        <ele>1128.4</ele>
        <time>2015-09-18T16:40:39Z</time>
      </trkpt>
      <trkpt lat="44.60881" lon="2.96787">
        <ele>1127.8</ele>
        <time>2015-09-18T16:40:40Z</time>
      </trkpt>
      <trkpt lat="44.60877" lon="2.96773">
        <ele>1127.2</ele>
        <time>2015-09-18T16:40:41Z</time>
      </trkpt>
      <trkpt lat="44.60873" lon="2.96759">
        <ele>1126.5</ele>
        <time>2015-09-18T16:40:42Z</time>
      </trkpt>
      <trkpt lat="44.60869" lon="2.96745">
        <ele>1125.9</ele>
        <time>2015-09-18T16:40:43Z</time>
      </trkpt>
      <trkpt lat="44.60866" lon="2.96731">
        <ele>1125.3</ele>
        <time>2015-09-18T16:40:44Z</time>
      </trkpt>
      <trkpt lat="44.60863" lon="2.96716">
        <ele>1124.6</ele>
        <time>2015-09-18T16:40:45Z</time>
      </trkpt>
      <trkpt lat="44.60859" lon="2.96702">
        <ele>1124</ele>
        <time>2015-09-18T16:40:46Z</time>
      </trkpt>
      <trkpt lat="44.60854" lon="2.96688">
        <ele>1123.3</ele>
        <time>2015-09-18T16:40:47Z</time>
      </trkpt>
      <trkpt lat="44.60848" lon="2.96675">
        <ele>1122.6</ele>
        <time>2015-09-18T16:40:48Z</time>
      </trkpt>
      <trkpt lat="44.60842" lon="2.96661">
        <ele>1121.9</ele>
        <time>2015-09-18T16:40:49Z</time>
      </trkpt>
      <trkpt lat="44.60835" lon="2.96649">
        <ele>1121.2</ele>
        <time>2015-09-18T16:40:50Z</time>
      </trkpt>
      <trkpt lat="44.60827" lon="2.96639">
        <ele>1120.4</ele>
        <time>2015-09-18T16:40:51Z</time>
      </trkpt>
      <trkpt lat="44.60816" lon="2.96634">
        <ele>1119.7</ele>
        <time>2015-09-18T16:40:52Z</time>
      </trkpt>
      <trkpt lat="44.60805" lon="2.96634">
        <ele>1118.9</ele>
        <time>2015-09-18T16:40:53Z</time>
      </trkpt>
      <trkpt lat="44.60793" lon="2.96636">
        <ele>1118.1</ele>
        <time>2015-09-18T16:40:54Z</time>
      </trkpt>
      <trkpt lat="44.60782" lon="2.96637">
        <ele>1117.4</ele>
        <time>2015-09-18T16:40:55Z</time>
      </trkpt>
      <trkpt lat="44.60771" lon="2.96635">
        <ele>1116.6</ele>
        <time>2015-09-18T16:40:56Z</time>
      </trkpt>
      <trkpt lat="44.6076" lon="2.96631">
        <ele>1115.9</ele>
        <time>2015-09-18T16:40:57Z</time>
      </trkpt>
      <trkpt lat="44.6075" lon="2.96625">
        <ele>1115.1</ele>
        <time>2015-09-18T16:40:58Z</time>
      </trkpt>
      <trkpt lat="44.60739" lon="2.9662">
        <ele>1114.2</ele>
        <time>2015-09-18T16:40:59Z</time>
      </trkpt>
      <trkpt lat="44.60727" lon="2.96614">
        <ele>1113.4</ele>
        <time>2015-09-18T16:41:00Z</time>
      </trkpt>
      <trkpt lat="44.60715" lon="2.96609">
        <ele>1112.5</ele>
        <time>2015-09-18T16:41:01Z</time>
      </trkpt>
      <trkpt lat="44.60703" lon="2.96605">
        <ele>1111.6</ele>
        <time>2015-09-18T16:41:02Z</time>
      </trkpt>
      <trkpt lat="44.6069" lon="2.96603">
        <ele>1110.7</ele>
        <time>2015-09-18T16:41:03Z</time>
      </trkpt>
      <trkpt lat="44.60677" lon="2.96602">
        <ele>1109.7</ele>
        <time>2015-09-18T16:41:04Z</time>
      </trkpt>
      <trkpt lat="44.60664" lon="2.96603">
        <ele>1108.7</ele>
        <time>2015-09-18T16:41:05Z</time>
      </trkpt>
      <trkpt lat="44.60651" lon="2.96607">
        <ele>1107.7</ele>
        <time>2015-09-18T16:41:06Z</time>
      </trkpt>
      <trkpt lat="44.60639" lon="2.96613">
        <ele>1106.8</ele>
        <time>2015-09-18T16:41:07Z</time>
      </trkpt>
      <trkpt lat="44.60627" lon="2.9662">
        <ele>1105.7</ele>
        <time>2015-09-18T16:41:08Z</time>
      </trkpt>
      <trkpt lat="44.60615" lon="2.96626">
        <ele>1104.7</ele>
        <time>2015-09-18T16:41:09Z</time>
      </trkpt>
      <trkpt lat="44.60603" lon="2.96629">
        <ele>1103.7</ele>
        <time>2015-09-18T16:41:10Z</time>
      </trkpt>
      <trkpt lat="44.6059" lon="2.9663">
        <ele>1102.7</ele>
        <time>2015-09-18T16:41:11Z</time>
      </trkpt>
      <trkpt lat="44.60578" lon="2.96627">
        <ele>1101.7</ele>
        <time>2015-09-18T16:41:12Z</time>
      </trkpt>
      <trkpt lat="44.60566" lon="2.96623">
        <ele>1100.7</ele>
        <time>2015-09-18T16:41:13Z</time>
      </trkpt>
      <trkpt lat="44.60553" lon="2.96618">
        <ele>1099.7</ele>
        <time>2015-09-18T16:41:14Z</time>
      </trkpt>
      <trkpt lat="44.60542" lon="2.96612">
        <ele>1098.7</ele>
        <time>2015-09-18T16:41:15Z</time>
      </trkpt>
      <trkpt lat="44.6053" lon="2.96605">
        <ele>1097.7</ele>
        <time>2015-09-18T16:41:16Z</time>
      </trkpt>
      <trkpt lat="44.60519" lon="2.96597">
        <ele>1096.7</ele>
        <time>2015-09-18T16:41:17Z</time>
      </trkpt>
      <trkpt lat="44.60508" lon="2.96589">
        <ele>1095.7</ele>
        <time>2015-09-18T16:41:18Z</time>
      </trkpt>
      <trkpt lat="44.60496" lon="2.96582">
        <ele>1094.6</ele>
        <time>2015-09-18T16:41:19Z</time>
      </trkpt>
      <trkpt lat="44.60484" lon="2.96577">
        <ele>1093.6</ele>
        <time>2015-09-18T16:41:20Z</time>
      </trkpt>
      <trkpt lat="44.60472" lon="2.96576">
        <ele>1092.5</ele>
        <time>2015-09-18T16:41:21Z</time>
      </trkpt>
      <trkpt lat="44.60459" lon="2.96574">
        <ele>1091.4</ele>
        <time>2015-09-18T16:41:22Z</time>
      </trkpt>
      <trkpt lat="44.60448" lon="2.96569">
        <ele>1090.4</ele>
        <time>2015-09-18T16:41:23Z</time>
      </trkpt>
      <trkpt lat="44.60437" lon="2.96562">
        <ele>1089.2</ele>
        <time>2015-09-18T16:41:24Z</time>
      </trkpt>
      <trkpt lat="44.60426" lon="2.96553">
        <ele>1088.1</ele>
        <time>2015-09-18T16:41:25Z</time>
      </trkpt>
      <trkpt lat="44.60415" lon="2.96546">
        <ele>1087</ele>
        <time>2015-09-18T16:41:26Z</time>
      </trkpt>
      <trkpt lat="44.60404" lon="2.9654">
        <ele>1085.9</ele>
        <time>2015-09-18T16:41:27Z</time>
      </trkpt>
      <trkpt lat="44.60393" lon="2.96534">
        <ele>1084.8</ele>
        <time>2015-09-18T16:41:28Z</time>
      </trkpt>
      <trkpt lat="44.60382" lon="2.96527">
        <ele>1083.7</ele>
        <time>2015-09-18T16:41:29Z</time>
      </trkpt>
      <trkpt lat="44.60372" lon="2.9652">
        <ele>1082.7</ele>
        <time>2015-09-18T16:41:30Z</time>
      </trkpt>
      <trkpt lat="44.60362" lon="2.96512">
        <ele>1081.6</ele>
        <time>2015-09-18T16:41:31Z</time>
      </trkpt>
      <trkpt lat="44.60352" lon="2.96503">
        <ele>1080.5</ele>
        <time>2015-09-18T16:41:32Z</time>
      </trkpt>
      <trkpt lat="44.60343" lon="2.96493">
        <ele>1079.4</ele>
        <time>2015-09-18T16:41:33Z</time>
      </trkpt>
      <trkpt lat="44.60334" lon="2.96482">
        <ele>1078.3</ele>
        <time>2015-09-18T16:41:34Z</time>
      </trkpt>
      <trkpt lat="44.60325" lon="2.96471">
        <ele>1077.2</ele>
        <time>2015-09-18T16:41:35Z</time>
      </trkpt>
      <trkpt lat="44.60316" lon="2.96459">
        <ele>1076.1</ele>
        <time>2015-09-18T16:41:36Z</time>
      </trkpt>
      <trkpt lat="44.60307" lon="2.96446">
        <ele>1075</ele>
        <time>2015-09-18T16:41:37Z</time>
      </trkpt>
      <trkpt lat="44.60299" lon="2.96434">
        <ele>1073.9</ele>
        <time>2015-09-18T16:41:38Z</time>
      </trkpt>
      <trkpt lat="44.60291" lon="2.9642">
        <ele>1072.8</ele>
        <time>2015-09-18T16:41:39Z</time>
      </trkpt>
      <trkpt lat="44.60283" lon="2.96406">
        <ele>1071.6</ele>
        <time>2015-09-18T16:41:40Z</time>
      </trkpt>
      <trkpt lat="44.60274" lon="2.96392">
        <ele>1070.5</ele>
        <time>2015-09-18T16:41:41Z</time>
      </trkpt>
      <trkpt lat="44.60266" lon="2.96378">
        <ele>1069.3</ele>
        <time>2015-09-18T16:41:42Z</time>
      </trkpt>
      <trkpt lat="44.60258" lon="2.96364">
        <ele>1068.1</ele>
        <time>2015-09-18T16:41:43Z</time>
      </trkpt>
      <trkpt lat="44.60248" lon="2.9635">
        <ele>1066.9</ele>
        <time>2015-09-18T16:41:44Z</time>
      </trkpt>
      <trkpt lat="44.60239" lon="2.96336">
        <ele>1065.7</ele>
        <time>2015-09-18T16:41:45Z</time>
      </trkpt>
      <trkpt lat="44.6023" lon="2.96323">
        <ele>1064.4</ele>
        <time>2015-09-18T16:41:46Z</time>
      </trkpt>
      <trkpt lat="44.6022" lon="2.9631">
        <ele>1063.1</ele>
        <time>2015-09-18T16:41:47Z</time>
      </trkpt>
      <trkpt lat="44.60209" lon="2.96298">
        <ele>1061.8</ele>
        <time>2015-09-18T16:41:48Z</time>
      </trkpt>
      <trkpt lat="44.60196" lon="2.9629">
        <ele>1060.5</ele>
        <time>2015-09-18T16:41:49Z</time>
      </trkpt>
      <trkpt lat="44.60183" lon="2.96286">
        <ele>1059.3</ele>
        <time>2015-09-18T16:41:50Z</time>
      </trkpt>
      <trkpt lat="44.60169" lon="2.96282">
        <ele>1058</ele>
        <time>2015-09-18T16:41:51Z</time>
      </trkpt>
      <trkpt lat="44.60156" lon="2.9628">
        <ele>1056.7</ele>
        <time>2015-09-18T16:41:52Z</time>
      </trkpt>
      <trkpt lat="44.60142" lon="2.96277">
        <ele>1055.4</ele>
        <time>2015-09-18T16:41:53Z</time>
      </trkpt>
      <trkpt lat="44.60129" lon="2.96274">
        <ele>1054.2</ele>
        <time>2015-09-18T16:41:54Z</time>
      </trkpt>
      <trkpt lat="44.60115" lon="2.96272">
        <ele>1052.9</ele>
        <time>2015-09-18T16:41:55Z</time>
      </trkpt>
      <trkpt lat="44.60102" lon="2.96272">
        <ele>1051.6</ele>
        <time>2015-09-18T16:41:56Z</time>
      </trkpt>
      <trkpt lat="44.60089" lon="2.96273">
        <ele>1050.3</ele>
        <time>2015-09-18T16:41:57Z</time>
      </trkpt>
      <trkpt lat="44.60076" lon="2.96277">
        <ele>1049.1</ele>
        <time>2015-09-18T16:41:58Z</time>
      </trkpt>
      <trkpt lat="44.60063" lon="2.96282">
        <ele>1047.8</ele>
        <time>2015-09-18T16:41:59Z</time>
      </trkpt>
      <trkpt lat="44.6005" lon="2.96288">
        <ele>1046.6</ele>
        <time>2015-09-18T16:42:00Z</time>
      </trkpt>
      <trkpt lat="44.60038" lon="2.96294">
        <ele>1045.5</ele>
        <time>2015-09-18T16:42:01Z</time>
      </trkpt>
      <trkpt lat="44.60026" lon="2.963">
        <ele>1044.3</ele>
        <time>2015-09-18T16:42:02Z</time>
      </trkpt>
      <trkpt lat="44.60015" lon="2.96306">
        <ele>1043.2</ele>
        <time>2015-09-18T16:42:03Z</time>
      </trkpt>
      <trkpt lat="44.60003" lon="2.96311">
        <ele>1042.1</ele>
        <time>2015-09-18T16:42:04Z</time>
      </trkpt>
      <trkpt lat="44.59991" lon="2.96315">
        <ele>1041</ele>
        <time>2015-09-18T16:42:05Z</time>
      </trkpt>
      <trkpt lat="44.59978" lon="2.96319">
        <ele>1039.8</ele>
        <time>2015-09-18T16:42:06Z</time>
      </trkpt>
      <trkpt lat="44.59966" lon="2.96323">
        <ele>1038.7</ele>
        <time>2015-09-18T16:42:07Z</time>
      </trkpt>
      <trkpt lat="44.59954" lon="2.96327">
        <ele>1037.6</ele>
        <time>2015-09-18T16:42:08Z</time>
      </trkpt>
      <trkpt lat="44.59942" lon="2.9633">
        <ele>1036.5</ele>
        <time>2015-09-18T16:42:09Z</time>
      </trkpt>
      <trkpt lat="44.5993" lon="2.96331">
        <ele>1035.4</ele>
        <time>2015-09-18T16:42:10Z</time>
      </trkpt>
      <trkpt lat="44.59917" lon="2.96331">
        <ele>1034.3</ele>
        <time>2015-09-18T16:42:11Z</time>
      </trkpt>
      <trkpt lat="44.59905" lon="2.96331">
        <ele>1033.3</ele>
        <time>2015-09-18T16:42:12Z</time>
      </trkpt>
      <trkpt lat="44.59893" lon="2.96329">
        <ele>1032.3</ele>
        <time>2015-09-18T16:42:13Z</time>
      </trkpt>
      <trkpt lat="44.59881" lon="2.96325">
        <ele>1031.2</ele>
        <time>2015-09-18T16:42:14Z</time>
      </trkpt>
      <trkpt lat="44.5987" lon="2.9632">
        <ele>1030.2</ele>
        <time>2015-09-18T16:42:15Z</time>
      </trkpt>
      <trkpt lat="44.59858" lon="2.96315">
        <ele>1029.1</ele>
        <time>2015-09-18T16:42:16Z</time>
      </trkpt>
      <trkpt lat="44.59847" lon="2.96308">
        <ele>1028.1</ele>
        <time>2015-09-18T16:42:17Z</time>
      </trkpt>
      <trkpt lat="44.59836" lon="2.96301">
        <ele>1027.1</ele>
        <time>2015-09-18T16:42:18Z</time>
      </trkpt>
      <trkpt lat="44.59826" lon="2.96292">
        <ele>1026.1</ele>
        <time>2015-09-18T16:42:19Z</time>
      </trkpt>
      <trkpt lat="44.59816" lon="2.96282">
        <ele>1025.1</ele>
        <time>2015-09-18T16:42:20Z</time>
      </trkpt>
      <trkpt lat="44.59806" lon="2.96273">
        <ele>1024.1</ele>
        <time>2015-09-18T16:42:21Z</time>
      </trkpt>
      <trkpt lat="44.59797" lon="2.96263">
        <ele>1023.1</ele>
        <time>2015-09-18T16:42:22Z</time>
      </trkpt>
      <trkpt lat="44.59788" lon="2.96254">
        <ele>1022.2</ele>
        <time>2015-09-18T16:42:23Z</time>
      </trkpt>
      <trkpt lat="44.59779" lon="2.96244">
        <ele>1021.2</ele>
        <time>2015-09-18T16:42:24Z</time>
      </trkpt>
      <trkpt lat="44.5977" lon="2.96233">
        <ele>1020.2</ele>
        <time>2015-09-18T16:42:25Z</time>
      </trkpt>
      <trkpt lat="44.59763" lon="2.9622">
        <ele>1019.3</ele>
        <time>2015-09-18T16:42:26Z</time>
      </trkpt>
      <trkpt lat="44.59757" lon="2.96207">
        <ele>1018.4</ele>
        <time>2015-09-18T16:42:27Z</time>
      </trkpt>
      <trkpt lat="44.59751" lon="2.96193">
        <ele>1017.4</ele>
        <time>2015-09-18T16:42:28Z</time>
      </trkpt>
      <trkpt lat="44.59747" lon="2.96178">
        <ele>1016.5</ele>
        <time>2015-09-18T16:42:29Z</time>
      </trkpt>
      <trkpt lat="44.59744" lon="2.96162">
        <ele>1015.6</ele>
        <time>2015-09-18T16:42:30Z</time>
      </trkpt>
      <trkpt lat="44.59743" lon="2.96146">
        <ele>1014.7</ele>
        <time>2015-09-18T16:42:31Z</time>
      </trkpt>
      <trkpt lat="44.59743" lon="2.96131">
        <ele>1013.8</ele>
        <time>2015-09-18T16:42:32Z</time>
      </trkpt>
      <trkpt lat="44.59743" lon="2.96114">
        <ele>1012.9</ele>
        <time>2015-09-18T16:42:33Z</time>
      </trkpt>
      <trkpt lat="44.59743" lon="2.96098">
        <ele>1012</ele>
        <time>2015-09-18T16:42:34Z</time>
      </trkpt>
      <trkpt lat="44.59743" lon="2.96082">
        <ele>1011.1</ele>
        <time>2015-09-18T16:42:35Z</time>
      </trkpt>
      <trkpt lat="44.59742" lon="2.96066">
        <ele>1010.3</ele>
        <time>2015-09-18T16:42:36Z</time>
      </trkpt>
      <trkpt lat="44.5974" lon="2.9605">
        <ele>1009.4</ele>
        <time>2015-09-18T16:42:37Z</time>
      </trkpt>
      <trkpt lat="44.59738" lon="2.96034">
        <ele>1008.5</ele>
        <time>2015-09-18T16:42:38Z</time>
      </trkpt>
      <trkpt lat="44.59736" lon="2.96017">
        <ele>1007.5</ele>
        <time>2015-09-18T16:42:39Z</time>
      </trkpt>
      <trkpt lat="44.59735" lon="2.96">
        <ele>1006.6</ele>
        <time>2015-09-18T16:42:40Z</time>
      </trkpt>
      <trkpt lat="44.59734" lon="2.95984">
        <ele>1005.7</ele>
        <time>2015-09-18T16:42:41Z</time>
      </trkpt>
      <trkpt lat="44.59736" lon="2.95967">
        <ele>1004.8</ele>
        <time>2015-09-18T16:42:42Z</time>
      </trkpt>
      <trkpt lat="44.59738" lon="2.95951">
        <ele>1003.8</ele>
        <time>2015-09-18T16:42:43Z</time>
      </trkpt>
      <trkpt lat="44.59742" lon="2.95935">
        <ele>1002.9</ele>
        <time>2015-09-18T16:42:44Z</time>
      </trkpt>
      <trkpt lat="44.59747" lon="2.9592">
        <ele>1001.9</ele>
        <time>2015-09-18T16:42:45Z</time>
      </trkpt>
      <trkpt lat="44.59752" lon="2.95906">
        <ele>1001</ele>
        <time>2015-09-18T16:42:46Z</time>
      </trkpt>
      <trkpt lat="44.59758" lon="2.95892">
        <ele>1000</ele>
        <time>2015-09-18T16:42:47Z</time>
      </trkpt>
      <trkpt lat="44.59764" lon="2.95878">
        <ele>999</ele>
        <time>2015-09-18T16:42:48Z</time>
      </trkpt>
      <trkpt lat="44.5977" lon="2.95864">
        <ele>998.1</ele>
        <time>2015-09-18T16:42:49Z</time>
      </trkpt>
      <trkpt lat="44.59775" lon="2.9585">
        <ele>997.1</ele>
        <time>2015-09-18T16:42:50Z</time>
      </trkpt>
      <trkpt lat="44.59782" lon="2.95835">
        <ele>996.1</ele>
        <time>2015-09-18T16:42:51Z</time>
      </trkpt>
      <trkpt lat="44.59787" lon="2.95818">
        <ele>995.1</ele>
        <time>2015-09-18T16:42:52Z</time>
      </trkpt>
      <trkpt lat="44.59789" lon="2.95799">
        <ele>994.2</ele>
        <time>2015-09-18T16:42:53Z</time>
      </trkpt>
      <trkpt lat="44.59789" lon="2.95782">
        <ele>993.2</ele>
        <time>2015-09-18T16:42:54Z</time>
      </trkpt>
      <trkpt lat="44.59789" lon="2.95764">
        <ele>992.2</ele>
        <time>2015-09-18T16:42:55Z</time>
      </trkpt>
      <trkpt lat="44.59789" lon="2.95747">
        <ele>991.2</ele>
        <time>2015-09-18T16:42:56Z</time>
      </trkpt>
      <trkpt lat="44.59788" lon="2.95729">
        <ele>990.3</ele>
        <time>2015-09-18T16:42:57Z</time>
      </trkpt>
      <trkpt lat="44.59787" lon="2.95711">
        <ele>989.3</ele>
        <time>2015-09-18T16:42:58Z</time>
      </trkpt>
      <trkpt lat="44.59784" lon="2.95694">
        <ele>988.4</ele>
        <time>2015-09-18T16:42:59Z</time>
      </trkpt>
      <trkpt lat="44.59782" lon="2.95676">
        <ele>987.4</ele>
        <time>2015-09-18T16:43:00Z</time>
      </trkpt>
      <trkpt lat="44.5978" lon="2.95659">
        <ele>986.4</ele>
        <time>2015-09-18T16:43:01Z</time>
      </trkpt>
      <trkpt lat="44.59778" lon="2.95642">
        <ele>985.4</ele>
        <time>2015-09-18T16:43:02Z</time>
      </trkpt>
      <trkpt lat="44.59775" lon="2.95624">
        <ele>984.4</ele>
        <time>2015-09-18T16:43:03Z</time>
      </trkpt>
      <trkpt lat="44.59773" lon="2.95607">
        <ele>983.4</ele>
        <time>2015-09-18T16:43:04Z</time>
      </trkpt>
      <trkpt lat="44.5977" lon="2.9559">
        <ele>982.4</ele>
        <time>2015-09-18T16:43:05Z</time>
      </trkpt>
      <trkpt lat="44.59767" lon="2.95573">
        <ele>981.4</ele>
        <time>2015-09-18T16:43:06Z</time>
      </trkpt>
      <trkpt lat="44.59763" lon="2.95556">
        <ele>980.4</ele>
        <time>2015-09-18T16:43:07Z</time>
      </trkpt>
      <trkpt lat="44.5976" lon="2.9554">
        <ele>979.4</ele>
        <time>2015-09-18T16:43:08Z</time>
      </trkpt>
      <trkpt lat="44.59758" lon="2.95523">
        <ele>978.5</ele>
        <time>2015-09-18T16:43:09Z</time>
      </trkpt>
      <trkpt lat="44.59757" lon="2.95507">
        <ele>977.5</ele>
        <time>2015-09-18T16:43:10Z</time>
      </trkpt>
      <trkpt lat="44.59757" lon="2.95491">
        <ele>976.6</ele>
        <time>2015-09-18T16:43:11Z</time>
      </trkpt>
      <trkpt lat="44.59758" lon="2.95475">
        <ele>975.6</ele>
        <time>2015-09-18T16:43:12Z</time>
      </trkpt>
      <trkpt lat="44.59761" lon="2.95458">
        <ele>974.7</ele>
        <time>2015-09-18T16:43:13Z</time>
      </trkpt>
      <trkpt lat="44.59763" lon="2.95441">
        <ele>973.6</ele>
        <time>2015-09-18T16:43:14Z</time>
      </trkpt>
      <trkpt lat="44.59765" lon="2.95425">
        <ele>972.6</ele>
        <time>2015-09-18T16:43:15Z</time>
      </trkpt>
      <trkpt lat="44.59767" lon="2.95408">
        <ele>971.6</ele>
        <time>2015-09-18T16:43:16Z</time>
      </trkpt>
      <trkpt lat="44.59768" lon="2.95391">
        <ele>970.6</ele>
        <time>2015-09-18T16:43:17Z</time>
      </trkpt>
      <trkpt lat="44.5977" lon="2.95374">
        <ele>969.5</ele>
        <time>2015-09-18T16:43:18Z</time>
      </trkpt>
      <trkpt lat="44.59771" lon="2.95357">
        <ele>968.5</ele>
        <time>2015-09-18T16:43:19Z</time>
      </trkpt>
      <trkpt lat="44.59773" lon="2.9534">
        <ele>967.4</ele>
        <time>2015-09-18T16:43:20Z</time>
      </trkpt>
      <trkpt lat="44.59774" lon="2.95323">
        <ele>966.3</ele>
        <time>2015-09-18T16:43:21Z</time>
      </trkpt>
      <trkpt lat="44.59774" lon="2.95306">
        <ele>965.3</ele>
        <time>2015-09-18T16:43:22Z</time>
      </trkpt>
      <trkpt lat="44.59772" lon="2.95288">
        <ele>964.3</ele>
        <time>2015-09-18T16:43:23Z</time>
      </trkpt>
      <trkpt lat="44.59772" lon="2.9527">
        <ele>963.2</ele>
        <time>2015-09-18T16:43:24Z</time>
      </trkpt>
      <trkpt lat="44.59771" lon="2.95253">
        <ele>962.2</ele>
        <time>2015-09-18T16:43:25Z</time>
      </trkpt>
      <trkpt lat="44.5977" lon="2.95236">
        <ele>961.1</ele>
        <time>2015-09-18T16:43:26Z</time>
      </trkpt>
      <trkpt lat="44.59766" lon="2.95219">
        <ele>960.1</ele>
        <time>2015-09-18T16:43:27Z</time>
      </trkpt>
      <trkpt lat="44.5976" lon="2.95203">
        <ele>959</ele>
        <time>2015-09-18T16:43:28Z</time>
      </trkpt>
      <trkpt lat="44.59753" lon="2.95189">
        <ele>958</ele>
        <time>2015-09-18T16:43:29Z</time>
      </trkpt>
      <trkpt lat="44.59745" lon="2.95175">
        <ele>956.9</ele>
        <time>2015-09-18T16:43:30Z</time>
      </trkpt>
      <trkpt lat="44.59736" lon="2.95162">
        <ele>955.9</ele>
        <time>2015-09-18T16:43:31Z</time>
      </trkpt>
      <trkpt lat="44.59726" lon="2.9515">
        <ele>954.8</ele>
        <time>2015-09-18T16:43:32Z</time>
      </trkpt>
      <trkpt lat="44.59716" lon="2.95138">
        <ele>953.8</ele>
        <time>2015-09-18T16:43:33Z</time>
      </trkpt>
      <trkpt lat="44.59707" lon="2.95126">
        <ele>952.8</ele>
        <time>2015-09-18T16:43:34Z</time>
      </trkpt>
      <trkpt lat="44.59698" lon="2.95113">
        <ele>951.7</ele>
        <time>2015-09-18T16:43:35Z</time>
      </trkpt>
      <trkpt lat="44.59689" lon="2.95099">
        <ele>950.6</ele>
        <time>2015-09-18T16:43:36Z</time>
      </trkpt>
      <trkpt lat="44.59681" lon="2.95085">
        <ele>949.5</ele>
        <time>2015-09-18T16:43:37Z</time>
      </trkpt>
      <trkpt lat="44.59672" lon="2.95071">
        <ele>948.4</ele>
        <time>2015-09-18T16:43:38Z</time>
      </trkpt>
      <trkpt lat="44.59664" lon="2.95056">
        <ele>947.3</ele>
        <time>2015-09-18T16:43:39Z</time>
      </trkpt>
      <trkpt lat="44.59655" lon="2.95042">
        <ele>946.1</ele>
        <time>2015-09-18T16:43:40Z</time>
      </trkpt>
      <trkpt lat="44.59646" lon="2.95028">
        <ele>945</ele>
        <time>2015-09-18T16:43:41Z</time>
      </trkpt>
      <trkpt lat="44.59636" lon="2.95015">
        <ele>943.9</ele>
        <time>2015-09-18T16:43:42Z</time>
      </trkpt>
      <trkpt lat="44.59626" lon="2.95003">
        <ele>942.8</ele>
        <time>2015-09-18T16:43:43Z</time>
      </trkpt>
      <trkpt lat="44.59615" lon="2.9499">
        <ele>941.6</ele>
        <time>2015-09-18T16:43:44Z</time>
      </trkpt>
      <trkpt lat="44.59605" lon="2.94978">
        <ele>940.4</ele>
        <time>2015-09-18T16:43:45Z</time>
      </trkpt>
      <trkpt lat="44.59596" lon="2.94964">
        <ele>939.3</ele>
        <time>2015-09-18T16:43:46Z</time>
      </trkpt>
      <trkpt lat="44.59587" lon="2.94951">
        <ele>938.1</ele>
        <time>2015-09-18T16:43:47Z</time>
      </trkpt>
      <trkpt lat="44.59579" lon="2.94936">
        <ele>937</ele>
        <time>2015-09-18T16:43:48Z</time>
      </trkpt>
      <trkpt lat="44.59572" lon="2.9492">
        <ele>935.8</ele>
        <time>2015-09-18T16:43:49Z</time>
      </trkpt>
      <trkpt lat="44.59567" lon="2.94903">
        <ele>934.7</ele>
        <time>2015-09-18T16:43:50Z</time>
      </trkpt>
      <trkpt lat="44.59563" lon="2.94886">
        <ele>933.6</ele>
        <time>2015-09-18T16:43:51Z</time>
      </trkpt>
      <trkpt lat="44.59557" lon="2.94871">
        <ele>932.4</ele>
        <time>2015-09-18T16:43:52Z</time>
      </trkpt>
      <trkpt lat="44.59548" lon="2.94857">
        <ele>931.3</ele>
        <time>2015-09-18T16:43:53Z</time>
      </trkpt>
      <trkpt lat="44.59539" lon="2.94844">
        <ele>930.1</ele>
        <time>2015-09-18T16:43:54Z</time>
      </trkpt>
      <trkpt lat="44.59532" lon="2.94829">
        <ele>929</ele>
        <time>2015-09-18T16:43:55Z</time>
      </trkpt>
      <trkpt lat="44.59526" lon="2.94813">
        <ele>927.8</ele>
        <time>2015-09-18T16:43:56Z</time>
      </trkpt>
      <trkpt lat="44.59522" lon="2.94796">
        <ele>926.7</ele>
        <time>2015-09-18T16:43:57Z</time>
      </trkpt>
      <trkpt lat="44.59518" lon="2.94779">
        <ele>925.6</ele>
        <time>2015-09-18T16:43:58Z</time>
      </trkpt>
      <trkpt lat="44.59513" lon="2.94762">
        <ele>924.5</ele>
        <time>2015-09-18T16:43:59Z</time>
      </trkpt>
      <trkpt lat="44.59508" lon="2.94746">
        <ele>923.3</ele>
        <time>2015-09-18T16:44:00Z</time>
      </trkpt>
      <trkpt lat="44.59502" lon="2.9473">
        <ele>922.1</ele>
        <time>2015-09-18T16:44:01Z</time>
      </trkpt>
      <trkpt lat="44.59498" lon="2.94713">
        <ele>921</ele>
        <time>2015-09-18T16:44:02Z</time>
      </trkpt>
      <trkpt lat="44.59496" lon="2.94696">
        <ele>919.8</ele>
        <time>2015-09-18T16:44:03Z</time>
      </trkpt>
      <trkpt lat="44.59495" lon="2.94678">
        <ele>918.6</ele>
        <time>2015-09-18T16:44:04Z</time>
      </trkpt>
      <trkpt lat="44.59495" lon="2.9466">
        <ele>917.4</ele>
        <time>2015-09-18T16:44:05Z</time>
      </trkpt>
      <trkpt lat="44.59494" lon="2.94643">
        <ele>916.3</ele>
        <time>2015-09-18T16:44:06Z</time>
      </trkpt>
      <trkpt lat="44.5949" lon="2.94626">
        <ele>915.1</ele>
        <time>2015-09-18T16:44:07Z</time>
      </trkpt>
      <trkpt lat="44.59484" lon="2.9461">
        <ele>914</ele>
        <time>2015-09-18T16:44:08Z</time>
      </trkpt>
      <trkpt lat="44.59475" lon="2.94596">
        <ele>912.8</ele>
        <time>2015-09-18T16:44:09Z</time>
      </trkpt>
      <trkpt lat="44.59467" lon="2.94584">
        <ele>911.6</ele>
        <time>2015-09-18T16:44:10Z</time>
      </trkpt>
      <trkpt lat="44.5946" lon="2.94573">
        <ele>910.5</ele>
        <time>2015-09-18T16:44:11Z</time>
      </trkpt>
      <trkpt lat="44.59457" lon="2.9456">
        <ele>909.3</ele>
        <time>2015-09-18T16:44:12Z</time>
      </trkpt>
      <trkpt lat="44.59458" lon="2.94546">
        <ele>908.2</ele>
        <time>2015-09-18T16:44:13Z</time>
      </trkpt>
      <trkpt lat="44.59461" lon="2.94533">
        <ele>907</ele>
        <time>2015-09-18T16:44:14Z</time>
      </trkpt>
      <trkpt lat="44.59467" lon="2.94521">
        <ele>905.8</ele>
        <time>2015-09-18T16:44:15Z</time>
      </trkpt>
      <trkpt lat="44.59474" lon="2.9451">
        <ele>904.7</ele>
        <time>2015-09-18T16:44:16Z</time>
      </trkpt>
      <trkpt lat="44.59482" lon="2.945">
        <ele>903.6</ele>
        <time>2015-09-18T16:44:17Z</time>
      </trkpt>
      <trkpt lat="44.59491" lon="2.94491">
        <ele>902.5</ele>
        <time>2015-09-18T16:44:18Z</time>
      </trkpt>
      <trkpt lat="44.59501" lon="2.94483">
        <ele>901.3</ele>
        <time>2015-09-18T16:44:19Z</time>
      </trkpt>
      <trkpt lat="44.59512" lon="2.94477">
        <ele>900.1</ele>
        <time>2015-09-18T16:44:20Z</time>
      </trkpt>
      <trkpt lat="44.59522" lon="2.94471">
        <ele>899</ele>
        <time>2015-09-18T16:44:21Z</time>
      </trkpt>
      <trkpt lat="44.59533" lon="2.94463">
        <ele>897.9</ele>
        <time>2015-09-18T16:44:22Z</time>
      </trkpt>
      <trkpt lat="44.59542" lon="2.94452">
        <ele>896.7</ele>
        <time>2015-09-18T16:44:23Z</time>
      </trkpt>
      <trkpt lat="44.5955" lon="2.94441">
        <ele>895.6</ele>
        <time>2015-09-18T16:44:24Z</time>
      </trkpt>
      <trkpt lat="44.59556" lon="2.94429">
        <ele>894.6</ele>
        <time>2015-09-18T16:44:25Z</time>
      </trkpt>
      <trkpt lat="44.59563" lon="2.94414">
        <ele>892.6</ele>
        <time>2015-09-18T16:44:27Z</time>
      </trkpt>
      <trkpt lat="44.59567" lon="2.94398">
        <ele>889.8</ele>
        <time>2015-09-18T16:44:30Z</time>
      </trkpt>
      <trkpt lat="44.59571" lon="2.94386">
        <ele>888.2</ele>
        <time>2015-09-18T16:44:32Z</time>
      </trkpt>
      <trkpt lat="44.59574" lon="2.94371">
        <ele>886.6</ele>
        <time>2015-09-18T16:44:34Z</time>
      </trkpt>
      <trkpt lat="44.59571" lon="2.94352">
        <ele>885.1</ele>
        <time>2015-09-18T16:44:36Z</time>
      </trkpt>
      <trkpt lat="44.59553" lon="2.94331">
        <ele>882</ele>
        <time>2015-09-18T16:44:39Z</time>
      </trkpt>
      <trkpt lat="44.5953" lon="2.94316">
        <ele>880.9</ele>
        <time>2015-09-18T16:44:42Z</time>
      </trkpt>
      <trkpt lat="44.59523" lon="2.94308">
        <ele>880.1</ele>
        <time>2015-09-18T16:44:43Z</time>
      </trkpt>
      <trkpt lat="44.59517" lon="2.94298">
        <ele>879.4</ele>
        <time>2015-09-18T16:44:44Z</time>
      </trkpt>
      <trkpt lat="44.59512" lon="2.94287">
        <ele>878.7</ele>
        <time>2015-09-18T16:44:45Z</time>
      </trkpt>
      <trkpt lat="44.59507" lon="2.94275">
        <ele>878</ele>
        <time>2015-09-18T16:44:46Z</time>
      </trkpt>
      <trkpt lat="44.59503" lon="2.94263">
        <ele>877.3</ele>
        <time>2015-09-18T16:44:47Z</time>
      </trkpt>
      <trkpt lat="44.595" lon="2.94251">
        <ele>876.5</ele>
        <time>2015-09-18T16:44:48Z</time>
      </trkpt>
      <trkpt lat="44.59497" lon="2.94238">
        <ele>875.9</ele>
        <time>2015-09-18T16:44:49Z</time>
      </trkpt>
      <trkpt lat="44.59494" lon="2.94226">
        <ele>875.2</ele>
        <time>2015-09-18T16:44:50Z</time>
      </trkpt>
      <trkpt lat="44.59491" lon="2.94213">
        <ele>874.6</ele>
        <time>2015-09-18T16:44:51Z</time>
      </trkpt>
      <trkpt lat="44.59487" lon="2.94201">
        <ele>874</ele>
        <time>2015-09-18T16:44:52Z</time>
      </trkpt>
      <trkpt lat="44.59483" lon="2.9419">
        <ele>873.4</ele>
        <time>2015-09-18T16:44:53Z</time>
      </trkpt>
      <trkpt lat="44.59478" lon="2.94179">
        <ele>872.8</ele>
        <time>2015-09-18T16:44:54Z</time>
      </trkpt>
      <trkpt lat="44.59472" lon="2.94168">
        <ele>872.2</ele>
        <time>2015-09-18T16:44:55Z</time>
      </trkpt>
      <trkpt lat="44.59466" lon="2.94158">
        <ele>871.6</ele>
        <time>2015-09-18T16:44:56Z</time>
      </trkpt>
      <trkpt lat="44.59459" lon="2.94148">
        <ele>871</ele>
        <time>2015-09-18T16:44:57Z</time>
      </trkpt>
      <trkpt lat="44.59453" lon="2.94137">
        <ele>870.4</ele>
        <time>2015-09-18T16:44:58Z</time>
      </trkpt>
      <trkpt lat="44.59448" lon="2.94125">
        <ele>869.8</ele>
        <time>2015-09-18T16:44:59Z</time>
      </trkpt>
      <trkpt lat="44.59444" lon="2.94112">
        <ele>869.2</ele>
        <time>2015-09-18T16:45:00Z</time>
      </trkpt>
      <trkpt lat="44.5944" lon="2.94098">
        <ele>868.5</ele>
        <time>2015-09-18T16:45:01Z</time>
      </trkpt>
      <trkpt lat="44.59438" lon="2.94084">
        <ele>867.8</ele>
        <time>2015-09-18T16:45:02Z</time>
      </trkpt>
      <trkpt lat="44.59436" lon="2.94069">
        <ele>867.1</ele>
        <time>2015-09-18T16:45:03Z</time>
      </trkpt>
      <trkpt lat="44.59434" lon="2.94055">
        <ele>866.4</ele>
        <time>2015-09-18T16:45:04Z</time>
      </trkpt>
      <trkpt lat="44.5943" lon="2.9404">
        <ele>865.7</ele>
        <time>2015-09-18T16:45:05Z</time>
      </trkpt>
      <trkpt lat="44.59424" lon="2.94026">
        <ele>865</ele>
        <time>2015-09-18T16:45:06Z</time>
      </trkpt>
      <trkpt lat="44.59417" lon="2.94013">
        <ele>864.3</ele>
        <time>2015-09-18T16:45:07Z</time>
      </trkpt>
      <trkpt lat="44.59409" lon="2.94">
        <ele>863.5</ele>
        <time>2015-09-18T16:45:08Z</time>
      </trkpt>
      <trkpt lat="44.59402" lon="2.93987">
        <ele>862.7</ele>
        <time>2015-09-18T16:45:09Z</time>
      </trkpt>
      <trkpt lat="44.59395" lon="2.93973">
        <ele>861.9</ele>
        <time>2015-09-18T16:45:10Z</time>
      </trkpt>
      <trkpt lat="44.59388" lon="2.93959">
        <ele>861.1</ele>
        <time>2015-09-18T16:45:11Z</time>
      </trkpt>
      <trkpt lat="44.59381" lon="2.93944">
        <ele>860.2</ele>
        <time>2015-09-18T16:45:12Z</time>
      </trkpt>
      <trkpt lat="44.59373" lon="2.9393">
        <ele>859.3</ele>
        <time>2015-09-18T16:45:13Z</time>
      </trkpt>
      <trkpt lat="44.59366" lon="2.93916">
        <ele>858.4</ele>
        <time>2015-09-18T16:45:14Z</time>
      </trkpt>
      <trkpt lat="44.5936" lon="2.93901">
        <ele>857.5</ele>
        <time>2015-09-18T16:45:15Z</time>
      </trkpt>
      <trkpt lat="44.59355" lon="2.93886">
        <ele>856.6</ele>
        <time>2015-09-18T16:45:16Z</time>
      </trkpt>
      <trkpt lat="44.59351" lon="2.9387">
        <ele>855.7</ele>
        <time>2015-09-18T16:45:17Z</time>
      </trkpt>
      <trkpt lat="44.59349" lon="2.93853">
        <ele>854.7</ele>
        <time>2015-09-18T16:45:18Z</time>
      </trkpt>
      <trkpt lat="44.59347" lon="2.93836">
        <ele>853.7</ele>
        <time>2015-09-18T16:45:19Z</time>
      </trkpt>
      <trkpt lat="44.59346" lon="2.93819">
        <ele>852.7</ele>
        <time>2015-09-18T16:45:20Z</time>
      </trkpt>
      <trkpt lat="44.59345" lon="2.93801">
        <ele>851.7</ele>
        <time>2015-09-18T16:45:21Z</time>
      </trkpt>
      <trkpt lat="44.59342" lon="2.93784">
        <ele>850.8</ele>
        <time>2015-09-18T16:45:22Z</time>
      </trkpt>
      <trkpt lat="44.59339" lon="2.93768">
        <ele>849.8</ele>
        <time>2015-09-18T16:45:23Z</time>
      </trkpt>
      <trkpt lat="44.59334" lon="2.93753">
        <ele>848.9</ele>
        <time>2015-09-18T16:45:24Z</time>
      </trkpt>
      <trkpt lat="44.59329" lon="2.93738">
        <ele>848.1</ele>
        <time>2015-09-18T16:45:25Z</time>
      </trkpt>
      <trkpt lat="44.59323" lon="2.93724">
        <ele>847.2</ele>
        <time>2015-09-18T16:45:26Z</time>
      </trkpt>
      <trkpt lat="44.59318" lon="2.93711">
        <ele>846.4</ele>
        <time>2015-09-18T16:45:27Z</time>
      </trkpt>
      <trkpt lat="44.59311" lon="2.93699">
        <ele>845.6</ele>
        <time>2015-09-18T16:45:28Z</time>
      </trkpt>
      <trkpt lat="44.59305" lon="2.93687">
        <ele>844.8</ele>
        <time>2015-09-18T16:45:29Z</time>
      </trkpt>
      <trkpt lat="44.59298" lon="2.93676">
        <ele>844.1</ele>
        <time>2015-09-18T16:45:30Z</time>
      </trkpt>
      <trkpt lat="44.59291" lon="2.93664">
        <ele>843.4</ele>
        <time>2015-09-18T16:45:31Z</time>
      </trkpt>
      <trkpt lat="44.59285" lon="2.93653">
        <ele>842.7</ele>
        <time>2015-09-18T16:45:32Z</time>
      </trkpt>
      <trkpt lat="44.5928" lon="2.93641">
        <ele>842</ele>
        <time>2015-09-18T16:45:33Z</time>
      </trkpt>
      <trkpt lat="44.59278" lon="2.93628">
        <ele>841.3</ele>
        <time>2015-09-18T16:45:34Z</time>
      </trkpt>
      <trkpt lat="44.59278" lon="2.93614">
        <ele>840.5</ele>
        <time>2015-09-18T16:45:35Z</time>
      </trkpt>
      <trkpt lat="44.5928" lon="2.936">
        <ele>839.8</ele>
        <time>2015-09-18T16:45:36Z</time>
      </trkpt>
      <trkpt lat="44.59283" lon="2.93587">
        <ele>839.2</ele>
        <time>2015-09-18T16:45:37Z</time>
      </trkpt>
      <trkpt lat="44.59286" lon="2.93575">
        <ele>838.5</ele>
        <time>2015-09-18T16:45:38Z</time>
      </trkpt>
      <trkpt lat="44.59289" lon="2.93563">
        <ele>838</ele>
        <time>2015-09-18T16:45:39Z</time>
      </trkpt>
      <trkpt lat="44.59293" lon="2.93551">
        <ele>837.4</ele>
        <time>2015-09-18T16:45:40Z</time>
      </trkpt>
      <trkpt lat="44.59296" lon="2.93539">
        <ele>836.9</ele>
        <time>2015-09-18T16:45:41Z</time>
      </trkpt>
      <trkpt lat="44.59301" lon="2.93515">
        <ele>835.9</ele>
        <time>2015-09-18T16:45:43Z</time>
      </trkpt>
      <trkpt lat="44.59304" lon="2.93492">
        <ele>835</ele>
        <time>2015-09-18T16:45:45Z</time>
      </trkpt>
      <trkpt lat="44.59305" lon="2.9347">
        <ele>834.1</ele>
        <time>2015-09-18T16:45:47Z</time>
      </trkpt>
      <trkpt lat="44.59304" lon="2.93447">
        <ele>833.2</ele>
        <time>2015-09-18T16:45:49Z</time>
      </trkpt>
      <trkpt lat="44.59301" lon="2.93425">
        <ele>832.4</ele>
        <time>2015-09-18T16:45:51Z</time>
      </trkpt>
      <trkpt lat="44.59298" lon="2.93404">
        <ele>831.7</ele>
        <time>2015-09-18T16:45:53Z</time>
      </trkpt>
      <trkpt lat="44.59295" lon="2.93384">
        <ele>831</ele>
        <time>2015-09-18T16:45:55Z</time>
      </trkpt>
      <trkpt lat="44.59292" lon="2.93365">
        <ele>830.4</ele>
        <time>2015-09-18T16:45:57Z</time>
      </trkpt>
      <trkpt lat="44.59289" lon="2.93346">
        <ele>829.9</ele>
        <time>2015-09-18T16:45:59Z</time>
      </trkpt>
      <trkpt lat="44.59287" lon="2.93327">
        <ele>829.4</ele>
        <time>2015-09-18T16:46:01Z</time>
      </trkpt>
      <trkpt lat="44.59286" lon="2.93309">
        <ele>829</ele>
        <time>2015-09-18T16:46:03Z</time>
      </trkpt>
      <trkpt lat="44.59286" lon="2.93291">
        <ele>828.6</ele>
        <time>2015-09-18T16:46:05Z</time>
      </trkpt>
      <trkpt lat="44.59288" lon="2.93276">
        <ele>828.2</ele>
        <time>2015-09-18T16:46:07Z</time>
      </trkpt>
      <trkpt lat="44.59287" lon="2.93259">
        <ele>827.8</ele>
        <time>2015-09-18T16:46:09Z</time>
      </trkpt>
      <trkpt lat="44.59286" lon="2.93243">
        <ele>827.5</ele>
        <time>2015-09-18T16:46:11Z</time>
      </trkpt>
      <trkpt lat="44.59282" lon="2.93224">
        <ele>827.2</ele>
        <time>2015-09-18T16:46:13Z</time>
      </trkpt>
      <trkpt lat="44.59279" lon="2.93206">
        <ele>826.9</ele>
        <time>2015-09-18T16:46:15Z</time>
      </trkpt>
      <trkpt lat="44.59273" lon="2.93186">
        <ele>826.7</ele>
        <time>2015-09-18T16:46:17Z</time>
      </trkpt>
      <trkpt lat="44.59268" lon="2.93167">
        <ele>826.4</ele>
        <time>2015-09-18T16:46:19Z</time>
      </trkpt>
      <trkpt lat="44.59263" lon="2.93148">
        <ele>826.2</ele>
        <time>2015-09-18T16:46:21Z</time>
      </trkpt>
      <trkpt lat="44.59259" lon="2.93129">
        <ele>825.9</ele>
        <time>2015-09-18T16:46:23Z</time>
      </trkpt>
      <trkpt lat="44.59254" lon="2.9311">
        <ele>825.6</ele>
        <time>2015-09-18T16:46:25Z</time>
      </trkpt>
      <trkpt lat="44.59249" lon="2.93091">
        <ele>825.3</ele>
        <time>2015-09-18T16:46:27Z</time>
      </trkpt>
      <trkpt lat="44.59243" lon="2.93072">
        <ele>825</ele>
        <time>2015-09-18T16:46:29Z</time>
      </trkpt>
      <trkpt lat="44.59238" lon="2.93053">
        <ele>824.7</ele>
        <time>2015-09-18T16:46:31Z</time>
      </trkpt>
      <trkpt lat="44.59233" lon="2.93035">
        <ele>824.4</ele>
        <time>2015-09-18T16:46:33Z</time>
      </trkpt>
      <trkpt lat="44.59228" lon="2.93018">
        <ele>824.1</ele>
        <time>2015-09-18T16:46:35Z</time>
      </trkpt>
      <trkpt lat="44.59223" lon="2.93">
        <ele>823.8</ele>
        <time>2015-09-18T16:46:37Z</time>
      </trkpt>
      <trkpt lat="44.59219" lon="2.92982">
        <ele>823.5</ele>
        <time>2015-09-18T16:46:39Z</time>
      </trkpt>
      <trkpt lat="44.59216" lon="2.92965">
        <ele>823.2</ele>
        <time>2015-09-18T16:46:41Z</time>
      </trkpt>
      <trkpt lat="44.59213" lon="2.92949">
        <ele>823</ele>
        <time>2015-09-18T16:46:43Z</time>
      </trkpt>
      <trkpt lat="44.5921" lon="2.92932">
        <ele>822.7</ele>
        <time>2015-09-18T16:46:45Z</time>
      </trkpt>
      <trkpt lat="44.59207" lon="2.92917">
        <ele>822.6</ele>
        <time>2015-09-18T16:46:47Z</time>
      </trkpt>
      <trkpt lat="44.59204" lon="2.92901">
        <ele>822.3</ele>
        <time>2015-09-18T16:46:49Z</time>
      </trkpt>
      <trkpt lat="44.59201" lon="2.92886">
        <ele>822.1</ele>
        <time>2015-09-18T16:46:51Z</time>
      </trkpt>
      <trkpt lat="44.59199" lon="2.92871">
        <ele>821.9</ele>
        <time>2015-09-18T16:46:53Z</time>
      </trkpt>
      <trkpt lat="44.59197" lon="2.92857">
        <ele>821.7</ele>
        <time>2015-09-18T16:46:55Z</time>
      </trkpt>
      <trkpt lat="44.59196" lon="2.92842">
        <ele>821.6</ele>
        <time>2015-09-18T16:46:57Z</time>
      </trkpt>
      <trkpt lat="44.59194" lon="2.92829">
        <ele>821.4</ele>
        <time>2015-09-18T16:46:59Z</time>
      </trkpt>
      <trkpt lat="44.59192" lon="2.92816">
        <ele>821.3</ele>
        <time>2015-09-18T16:47:01Z</time>
      </trkpt>
      <trkpt lat="44.59192" lon="2.92802">
        <ele>821.1</ele>
        <time>2015-09-18T16:47:03Z</time>
      </trkpt>
      <trkpt lat="44.59191" lon="2.92789">
        <ele>820.9</ele>
        <time>2015-09-18T16:47:05Z</time>
      </trkpt>
      <trkpt lat="44.5919" lon="2.92775">
        <ele>820.8</ele>
        <time>2015-09-18T16:47:07Z</time>
      </trkpt>
      <trkpt lat="44.5919" lon="2.92762">
        <ele>820.6</ele>
        <time>2015-09-18T16:47:09Z</time>
      </trkpt>
      <trkpt lat="44.59189" lon="2.92749">
        <ele>820.5</ele>
        <time>2015-09-18T16:47:11Z</time>
      </trkpt>
      <trkpt lat="44.59189" lon="2.92736">
        <ele>820.3</ele>
        <time>2015-09-18T16:47:13Z</time>
      </trkpt>
      <trkpt lat="44.59188" lon="2.92722">
        <ele>820.2</ele>
        <time>2015-09-18T16:47:15Z</time>
      </trkpt>
      <trkpt lat="44.59187" lon="2.92708">
        <ele>820</ele>
        <time>2015-09-18T16:47:17Z</time>
      </trkpt>
      <trkpt lat="44.59185" lon="2.92695">
        <ele>819.8</ele>
        <time>2015-09-18T16:47:19Z</time>
      </trkpt>
      <trkpt lat="44.59183" lon="2.92677">
        <ele>819.5</ele>
        <time>2015-09-18T16:47:22Z</time>
      </trkpt>
      <trkpt lat="44.5918" lon="2.92664">
        <ele>819.1</ele>
        <time>2015-09-18T16:47:26Z</time>
      </trkpt>
      <trkpt lat="44.59177" lon="2.9265">
        <ele>818.5</ele>
        <time>2015-09-18T16:47:32Z</time>
      </trkpt>
      <trkpt lat="44.59174" lon="2.92636">
        <ele>818.1</ele>
        <time>2015-09-18T16:47:36Z</time>
      </trkpt>
      <trkpt lat="44.59172" lon="2.92623">
        <ele>817.9</ele>
        <time>2015-09-18T16:47:39Z</time>
      </trkpt>
      <trkpt lat="44.59169" lon="2.9261">
        <ele>817.8</ele>
        <time>2015-09-18T16:47:42Z</time>
      </trkpt>
      <trkpt lat="44.59166" lon="2.92597">
        <ele>817.7</ele>
        <time>2015-09-18T16:47:45Z</time>
      </trkpt>
      <trkpt lat="44.59162" lon="2.92582">
        <ele>817.5</ele>
        <time>2015-09-18T16:47:48Z</time>
      </trkpt>
      <trkpt lat="44.59159" lon="2.92567">
        <ele>817.5</ele>
        <time>2015-09-18T16:47:51Z</time>
      </trkpt>
      <trkpt lat="44.59158" lon="2.92552">
        <ele>817.4</ele>
        <time>2015-09-18T16:47:54Z</time>
      </trkpt>
      <trkpt lat="44.59157" lon="2.92538">
        <ele>817.4</ele>
        <time>2015-09-18T16:47:57Z</time>
      </trkpt>
      <trkpt lat="44.59158" lon="2.92524">
        <ele>817.4</ele>
        <time>2015-09-18T16:48:00Z</time>
      </trkpt>
      <trkpt lat="44.59159" lon="2.9251">
        <ele>817.4</ele>
        <time>2015-09-18T16:48:03Z</time>
      </trkpt>
      <trkpt lat="44.59161" lon="2.92496">
        <ele>817.5</ele>
        <time>2015-09-18T16:48:06Z</time>
      </trkpt>
      <trkpt lat="44.59163" lon="2.92484">
        <ele>817.7</ele>
        <time>2015-09-18T16:48:09Z</time>
      </trkpt>
      <trkpt lat="44.59165" lon="2.9247">
        <ele>818.1</ele>
        <time>2015-09-18T16:48:13Z</time>
      </trkpt>
      <trkpt lat="44.59164" lon="2.92456">
        <ele>818.5</ele>
        <time>2015-09-18T16:48:17Z</time>
      </trkpt>
      <trkpt lat="44.59161" lon="2.92443">
        <ele>818.9</ele>
        <time>2015-09-18T16:48:21Z</time>
      </trkpt>
      <trkpt lat="44.59156" lon="2.92429">
        <ele>819.3</ele>
        <time>2015-09-18T16:48:25Z</time>
      </trkpt>
      <trkpt lat="44.59151" lon="2.92417">
        <ele>819.7</ele>
        <time>2015-09-18T16:48:29Z</time>
      </trkpt>
      <trkpt lat="44.59146" lon="2.92406">
        <ele>820</ele>
        <time>2015-09-18T16:48:33Z</time>
      </trkpt>
      <trkpt lat="44.59141" lon="2.92395">
        <ele>820.3</ele>
        <time>2015-09-18T16:48:37Z</time>
      </trkpt>
      <trkpt lat="44.59134" lon="2.92383">
        <ele>820.8</ele>
        <time>2015-09-18T16:48:42Z</time>
      </trkpt>
      <trkpt lat="44.59129" lon="2.92373">
        <ele>821.1</ele>
        <time>2015-09-18T16:48:46Z</time>
      </trkpt>
      <trkpt lat="44.59124" lon="2.9236">
        <ele>821.5</ele>
        <time>2015-09-18T16:48:50Z</time>
      </trkpt>
      <trkpt lat="44.59119" lon="2.92348">
        <ele>821.9</ele>
        <time>2015-09-18T16:48:54Z</time>
      </trkpt>
      <trkpt lat="44.59117" lon="2.92333">
        <ele>822.3</ele>
        <time>2015-09-18T16:48:59Z</time>
      </trkpt>
      <trkpt lat="44.59117" lon="2.92319">
        <ele>822.7</ele>
        <time>2015-09-18T16:49:03Z</time>
      </trkpt>
      <trkpt lat="44.59115" lon="2.92306">
        <ele>823.2</ele>
        <time>2015-09-18T16:49:07Z</time>
      </trkpt>
      <trkpt lat="44.59114" lon="2.92292">
        <ele>823.7</ele>
        <time>2015-09-18T16:49:12Z</time>
      </trkpt>
      <trkpt lat="44.59113" lon="2.92278">
        <ele>824</ele>
        <time>2015-09-18T16:49:16Z</time>
      </trkpt>
      <trkpt lat="44.59111" lon="2.92262">
        <ele>824.2</ele>
        <time>2015-09-18T16:49:20Z</time>
      </trkpt>
      <trkpt lat="44.5911" lon="2.92246">
        <ele>824.4</ele>
        <time>2015-09-18T16:49:23Z</time>
      </trkpt>
      <trkpt lat="44.59107" lon="2.92229">
        <ele>824.5</ele>
        <time>2015-09-18T16:49:26Z</time>
      </trkpt>
      <trkpt lat="44.59105" lon="2.92216">
        <ele>824.5</ele>
        <time>2015-09-18T16:49:28Z</time>
      </trkpt>
      <trkpt lat="44.59103" lon="2.92203">
        <ele>824.5</ele>
        <time>2015-09-18T16:49:30Z</time>
      </trkpt>
      <trkpt lat="44.59101" lon="2.92189">
        <ele>824.4</ele>
        <time>2015-09-18T16:49:32Z</time>
      </trkpt>
      <trkpt lat="44.59099" lon="2.92176">
        <ele>824.3</ele>
        <time>2015-09-18T16:49:34Z</time>
      </trkpt>
      <trkpt lat="44.59096" lon="2.92164">
        <ele>824.2</ele>
        <time>2015-09-18T16:49:36Z</time>
      </trkpt>
      <trkpt lat="44.59093" lon="2.9215">
        <ele>824.1</ele>
        <time>2015-09-18T16:49:39Z</time>
      </trkpt>
      <trkpt lat="44.59091" lon="2.92137">
        <ele>824</ele>
        <time>2015-09-18T16:49:43Z</time>
      </trkpt>
      <trkpt lat="44.59088" lon="2.92121">
        <ele>823.9</ele>
        <time>2015-09-18T16:49:48Z</time>
      </trkpt>
      <trkpt lat="44.59085" lon="2.92106">
        <ele>823.9</ele>
        <time>2015-09-18T16:49:53Z</time>
      </trkpt>
      <trkpt lat="44.59082" lon="2.92091">
        <ele>824.1</ele>
        <time>2015-09-18T16:49:58Z</time>
      </trkpt>
      <trkpt lat="44.59081" lon="2.92078">
        <ele>824.5</ele>
        <time>2015-09-18T16:50:03Z</time>
      </trkpt>
      <trkpt lat="44.59081" lon="2.92064">
        <ele>824.9</ele>
        <time>2015-09-18T16:50:08Z</time>
      </trkpt>
      <trkpt lat="44.59081" lon="2.92051">
        <ele>825.3</ele>
        <time>2015-09-18T16:50:13Z</time>
      </trkpt>
      <trkpt lat="44.5908" lon="2.92037">
        <ele>827</ele>
        <time>2015-09-18T16:50:54Z</time>
      </trkpt>
      <trkpt lat="44.59081" lon="2.92025">
        <ele>827.1</ele>
        <time>2015-09-18T16:51:01Z</time>
      </trkpt>
      <trkpt lat="44.59081" lon="2.9201">
        <ele>827.4</ele>
        <time>2015-09-18T16:51:09Z</time>
      </trkpt>
      <trkpt lat="44.59078" lon="2.91998">
        <ele>827.9</ele>
        <time>2015-09-18T16:51:17Z</time>
      </trkpt>
      <trkpt lat="44.59078" lon="2.92012">
        <ele>828.3</ele>
        <time>2015-09-18T16:51:29Z</time>
      </trkpt>
      <trkpt lat="44.59078" lon="2.92029">
        <ele>828.4</ele>
        <time>2015-09-18T16:51:33Z</time>
      </trkpt>
      <trkpt lat="44.59075" lon="2.92043">
        <ele>828.5</ele>
        <time>2015-09-18T16:51:37Z</time>
      </trkpt>
      <trkpt lat="44.59069" lon="2.92032">
        <ele>827.6</ele>
        <time>2015-09-18T16:51:47Z</time>
      </trkpt>
      <trkpt lat="44.59059" lon="2.92035">
        <ele>825.2</ele>
        <time>2015-09-18T16:55:16Z</time>
      </trkpt>
      <trkpt lat="44.59066" lon="2.92025">
        <ele>823</ele>
        <time>2015-09-18T16:56:04Z</time>
      </trkpt>
      <trkpt lat="44.59072" lon="2.92">
        <ele>823</ele>
        <time>2015-09-18T16:56:08Z</time>
      </trkpt>
      <trkpt lat="44.59101" lon="2.92005">
        <ele>823</ele>
        <time>2015-09-18T16:56:12Z</time>
      </trkpt>
      <trkpt lat="44.59144" lon="2.92004">
        <ele>823</ele>
        <time>2015-09-18T16:56:20Z</time>
      </trkpt>
      <trkpt lat="44.59168" lon="2.9198">
        <ele>823</ele>
        <time>2015-09-18T16:56:32Z</time>
      </trkpt>
      <trkpt lat="44.59159" lon="2.91954">
        <ele>823</ele>
        <time>2015-09-18T16:57:07Z</time>
      </trkpt>
      <trkpt lat="44.59127" lon="2.9197">
        <ele>823.4</ele>
        <time>2015-09-18T16:57:10Z</time>
      </trkpt>
      <trkpt lat="44.59118" lon="2.91971">
        <ele>823.6</ele>
        <time>2015-09-18T16:57:12Z</time>
      </trkpt>
      <trkpt lat="44.591" lon="2.91989">
        <ele>823</ele>
        <time>2015-09-18T16:57:17Z</time>
      </trkpt>
      <trkpt lat="44.59067" lon="2.9204">
        <ele>824.3</ele>
        <time>2015-09-18T16:57:24Z</time>
      </trkpt>
      <trkpt lat="44.59048" lon="2.92055">
        <ele>825</ele>
        <time>2015-09-18T16:57:29Z</time>
      </trkpt>
      <trkpt lat="44.59054" lon="2.92042">
        <ele>826.1</ele>
        <time>2015-09-18T16:57:35Z</time>
      </trkpt>
      <trkpt lat="44.5905" lon="2.9203">
        <ele>829.5</ele>
        <time>2015-09-18T16:57:53Z</time>
      </trkpt>
      <trkpt lat="44.59059" lon="2.92028">
        <ele>835.7</ele>
        <time>2015-09-18T16:59:35Z</time>
      </trkpt>
      <trkpt lat="44.59052" lon="2.92036">
        <ele>835.4</ele>
        <time>2015-09-18T17:05:12Z</time>
      </trkpt>
      <trkpt lat="44.5905" lon="2.92024">
        <ele>835.1</ele>
        <time>2015-09-18T17:07:31Z</time>
      </trkpt>
      <trkpt lat="44.59059" lon="2.92026">
        <ele>834.9</ele>
        <time>2015-09-18T17:14:18Z</time>
      </trkpt>
      <trkpt lat="44.5905" lon="2.9203">
        <ele>834.3</ele>
        <time>2015-09-18T17:17:17Z</time>
      </trkpt>
      <trkpt lat="44.59057" lon="2.92021">
        <ele>834.3</ele>
        <time>2015-09-18T17:17:45Z</time>
      </trkpt>
      <trkpt lat="44.59051" lon="2.92011">
        <ele>833.7</ele>
        <time>2015-09-18T17:27:08Z</time>
      </trkpt>
      <trkpt lat="44.59052" lon="2.92024">
        <ele>833.7</ele>
        <time>2015-09-18T17:27:37Z</time>
      </trkpt>
      <trkpt lat="44.59057" lon="2.92035">
        <ele>833.7</ele>
        <time>2015-09-18T17:31:43Z</time>
      </trkpt>
      <trkpt lat="44.59054" lon="2.92048">
        <ele>833.7</ele>
        <time>2015-09-18T17:32:50Z</time>
      </trkpt>
      <trkpt lat="44.59053" lon="2.92035">
        <ele>833.7</ele>
        <time>2015-09-18T17:33:01Z</time>
      </trkpt>
      <trkpt lat="44.59057" lon="2.92023">
        <ele>833.7</ele>
        <time>2015-09-18T17:33:12Z</time>
      </trkpt>
      <trkpt lat="44.5905" lon="2.92033">
        <ele>833.7</ele>
        <time>2015-09-18T17:33:50Z</time>
      </trkpt>
      <trkpt lat="44.59057" lon="2.92041">
        <ele>833.7</ele>
        <time>2015-09-18T17:34:43Z</time>
      </trkpt>
      <trkpt lat="44.59053" lon="2.92053">
        <ele>833.7</ele>
        <time>2015-09-18T17:35:05Z</time>
      </trkpt>
      <trkpt lat="44.59059" lon="2.92043">
        <ele>833.7</ele>
        <time>2015-09-18T17:36:40Z</time>
      </trkpt>
      <trkpt lat="44.59055" lon="2.92032">
        <ele>833.7</ele>
        <time>2015-09-18T17:37:40Z</time>
      </trkpt>
      <trkpt lat="44.59063" lon="2.92038">
        <ele>833.7</ele>
        <time>2015-09-18T17:42:12Z</time>
      </trkpt>
      <trkpt lat="44.59056" lon="2.9203">
        <ele>833.7</ele>
        <time>2015-09-18T17:44:15Z</time>
      </trkpt>
      <trkpt lat="44.59056" lon="2.92017">
        <ele>833.1</ele>
        <time>2015-09-18T17:49:12Z</time>
      </trkpt>
      <trkpt lat="44.59053" lon="2.92029">
        <ele>832.7</ele>
        <time>2015-09-18T17:51:19Z</time>
      </trkpt>
      <trkpt lat="44.59056" lon="2.92043">
        <ele>832.2</ele>
        <time>2015-09-18T17:57:01Z</time>
      </trkpt>
      <trkpt lat="44.59057" lon="2.9203">
        <ele>832</ele>
        <time>2015-09-18T18:00:43Z</time>
      </trkpt>
      <trkpt lat="44.59048" lon="2.9203">
        <ele>829.9</ele>
        <time>2015-09-18T18:22:49Z</time>
      </trkpt>
      <trkpt lat="44.59056" lon="2.92029">
        <ele>829.8</ele>
        <time>2015-09-18T18:25:22Z</time>
      </trkpt>
      <trkpt lat="44.59048" lon="2.92023">
        <ele>829.5</ele>
        <time>2015-09-18T18:26:51Z</time>
      </trkpt>
      <trkpt lat="44.59055" lon="2.92033">
        <ele>829.3</ele>
        <time>2015-09-18T18:28:57Z</time>
      </trkpt>
      <trkpt lat="44.59053" lon="2.92021">
        <ele>828.8</ele>
        <time>2015-09-18T18:33:10Z</time>
      </trkpt>
      <trkpt lat="44.59046" lon="2.92012">
        <ele>828.5</ele>
        <time>2015-09-18T18:34:32Z</time>
      </trkpt>
      <trkpt lat="44.59054" lon="2.92018">
        <ele>828.4</ele>
        <time>2015-09-18T18:35:45Z</time>
      </trkpt>
      <trkpt lat="44.59047" lon="2.92027">
        <ele>827.9</ele>
        <time>2015-09-18T18:38:03Z</time>
      </trkpt>
      <trkpt lat="44.59053" lon="2.92037">
        <ele>827.5</ele>
        <time>2015-09-18T18:40:35Z</time>
      </trkpt>
      <trkpt lat="44.59062" lon="2.92033">
        <ele>827.5</ele>
        <time>2015-09-18T18:42:27Z</time>
      </trkpt>
      <trkpt lat="44.5907" lon="2.92027">
        <ele>827.5</ele>
        <time>2015-09-18T18:42:48Z</time>
      </trkpt>
      <trkpt lat="44.59061" lon="2.92024">
        <ele>827</ele>
        <time>2015-09-18T18:44:19Z</time>
      </trkpt>
      <trkpt lat="44.59054" lon="2.92032">
        <ele>825.4</ele>
        <time>2015-09-18T18:51:49Z</time>
      </trkpt>
      <trkpt lat="44.59045" lon="2.92038">
        <ele>825.2</ele>
        <time>2015-09-18T18:54:47Z</time>
      </trkpt>
      <trkpt lat="44.59055" lon="2.92037">
        <ele>825.2</ele>
        <time>2015-09-18T18:57:43Z</time>
      </trkpt>
      <trkpt lat="44.59061" lon="2.92028">
        <ele>825</ele>
        <time>2015-09-18T18:59:14Z</time>
      </trkpt>
      <trkpt lat="44.59053" lon="2.92024">
        <ele>824.4</ele>
        <time>2015-09-18T19:02:47Z</time>
      </trkpt>
      <trkpt lat="44.59061" lon="2.9203">
        <ele>824.4</ele>
        <time>2015-09-18T19:06:48Z</time>
      </trkpt>
      <trkpt lat="44.59057" lon="2.92017">
        <ele>823.7</ele>
        <time>2015-09-18T19:07:42Z</time>
      </trkpt>
      <trkpt lat="44.59048" lon="2.92023">
        <ele>823.8</ele>
        <time>2015-09-18T19:08:09Z</time>
      </trkpt>
      <trkpt lat="44.5905" lon="2.92036">
        <ele>823.9</ele>
        <time>2015-09-18T19:08:26Z</time>
      </trkpt>
      <trkpt lat="44.59049" lon="2.92022">
        <ele>824</ele>
        <time>2015-09-18T19:09:18Z</time>
      </trkpt>
      <trkpt lat="44.59045" lon="2.92011">
        <ele>824</ele>
        <time>2015-09-18T19:09:48Z</time>
      </trkpt>
      <trkpt lat="44.59038" lon="2.92021">
        <ele>824</ele>
        <time>2015-09-18T19:10:24Z</time>
      </trkpt>
      <trkpt lat="44.5903" lon="2.92027">
        <ele>824</ele>
        <time>2015-09-18T19:10:26Z</time>
      </trkpt>
      <trkpt lat="44.59039" lon="2.9203">
        <ele>824</ele>
        <time>2015-09-18T19:11:02Z</time>
      </trkpt>
      <trkpt lat="44.59048" lon="2.92028">
        <ele>824</ele>
        <time>2015-09-18T19:11:23Z</time>
      </trkpt>
      <trkpt lat="44.59056" lon="2.92023">
        <ele>824</ele>
        <time>2015-09-18T19:14:10Z</time>
      </trkpt>
      <trkpt lat="44.59048" lon="2.92019">
        <ele>824</ele>
        <time>2015-09-18T19:20:47Z</time>
      </trkpt>
      <trkpt lat="44.59042" lon="2.92009">
        <ele>823.9</ele>
        <time>2015-09-18T19:20:56Z</time>
      </trkpt>
      <trkpt lat="44.59049" lon="2.92017">
        <ele>823.9</ele>
        <time>2015-09-18T19:21:13Z</time>
      </trkpt>
      <trkpt lat="44.5905" lon="2.92029">
        <ele>823.9</ele>
        <time>2015-09-18T19:22:51Z</time>
      </trkpt>
      <trkpt lat="44.59058" lon="2.92023">
        <ele>823.9</ele>
        <time>2015-09-18T19:23:12Z</time>
      </trkpt>
      <trkpt lat="44.59067" lon="2.92017">
        <ele>823.9</ele>
        <time>2015-09-18T19:23:23Z</time>
      </trkpt>
      <trkpt lat="44.59058" lon="2.92017">
        <ele>823.9</ele>
        <time>2015-09-18T19:23:56Z</time>
      </trkpt>
      <trkpt lat="44.59052" lon="2.9202">
        <ele>823.7</ele>
        <time>2015-09-18T19:26:43Z</time>
      </trkpt>
    </trkseg>
  </trk>
</gpx>